<?xml version="1.0" encoding="UTF-8" standalone="no" ?>
<gpx xmlns="http://www.topografix.com/GPX/1/1" xmlns:xsi="http://www.w3.org/2001/XMLSchema-instance" xsi:schemaLocation="http://www.topografix.com/GPX/1/1 http://www.topografix.com/GPX/1/1/gpx.xsd" version="1.1" creator="VisuGPX - https://www.visugpx.com">
  <metadata>
    <name>GR7 Des Vosges aux Pyrénées (2020)</name>
    <desc><![CDATA[Parcours VTT sur le GR7 en suivant la ligne du partage des eaux depuis les Vosges jusqu'aux Pyrénées. Total autonomie, en bivouac, en ultra léger en consommant un maximum de plantes sauvages sur la parcours. 

Puis suivi de la traversée des Pyrénées a pied par la "Haute Route des Pyrénées" (HRP) en autonomie. 
]]></desc>
  </metadata>
  <wpt lat="45.5789" lon="3.85579">
    <ele>1368.6</ele>
    <name><![CDATA[L'Ance confluent des eaux]]></name>
    <desc><![CDATA[L'Ance ou Ance du Nord est une rivière française, affluent direct de la Loire en rive gauche, au niveau de Bas-en-Basset. Elle traverse les département du Puy de Dôme, de la Loire et de la Haute-Loire dans la région Auvergne Rhône-Alpes.]]></desc>
  </wpt>
  <trk>
    <name><![CDATA[9039957-La Via Fluvia de lavoûte sur Loire à Annonay]]></name>
    <extensions>
      <line xmlns="http://www.topografix.com/GPX/gpx_style/0/2">
        <color>00FF00</color>
        <width>4</width>
      </line>
    </extensions>
    <trkseg>
      <trkpt lat="45.12124" lon="3.9052">
        <ele>569</ele>
        <time>2019-02-25T20:08:17Z</time>
      </trkpt>
      <trkpt lat="45.12124" lon="3.9052">
        <ele>569</ele>
        <time>2019-02-25T20:08:17Z</time>
      </trkpt>
      <trkpt lat="45.12125" lon="3.90614">
        <ele>568</ele>
        <time>2019-02-25T20:09:17Z</time>
      </trkpt>
      <trkpt lat="45.12132" lon="3.90668">
        <ele>568</ele>
        <time>2019-02-25T20:10:17Z</time>
      </trkpt>
      <trkpt lat="45.12116" lon="3.90688">
        <ele>566</ele>
        <time>2019-02-25T20:11:17Z</time>
      </trkpt>
      <trkpt lat="45.12101" lon="3.907">
        <ele>564</ele>
        <time>2019-02-25T20:12:17Z</time>
      </trkpt>
      <trkpt lat="45.12131" lon="3.90809">
        <ele>565</ele>
        <time>2019-02-25T20:13:17Z</time>
      </trkpt>
      <trkpt lat="45.12203" lon="3.91046">
        <ele>563</ele>
        <time>2019-02-25T20:14:17Z</time>
      </trkpt>
      <trkpt lat="45.12245" lon="3.91027">
        <ele>568</ele>
        <time>2019-02-25T20:15:17Z</time>
      </trkpt>
      <trkpt lat="45.12256" lon="3.91049">
        <ele>567</ele>
        <time>2019-02-25T20:16:17Z</time>
      </trkpt>
      <trkpt lat="45.12323" lon="3.91285">
        <ele>563</ele>
        <time>2019-02-25T20:17:17Z</time>
      </trkpt>
      <trkpt lat="45.12316" lon="3.91291">
        <ele>563</ele>
        <time>2019-02-25T20:18:17Z</time>
      </trkpt>
      <trkpt lat="45.12293" lon="3.91305">
        <ele>561</ele>
        <time>2019-02-25T20:19:17Z</time>
      </trkpt>
      <trkpt lat="45.12392" lon="3.91633">
        <ele>564</ele>
        <time>2019-02-25T20:20:17Z</time>
      </trkpt>
      <trkpt lat="45.12385" lon="3.91641">
        <ele>562</ele>
        <time>2019-02-25T20:21:17Z</time>
      </trkpt>
      <trkpt lat="45.12402" lon="3.91705">
        <ele>562</ele>
        <time>2019-02-25T20:22:17Z</time>
      </trkpt>
      <trkpt lat="45.12326" lon="3.9199">
        <ele>554</ele>
        <time>2019-02-25T20:23:17Z</time>
      </trkpt>
      <trkpt lat="45.12303" lon="3.92066">
        <ele>556</ele>
        <time>2019-02-25T20:24:17Z</time>
      </trkpt>
      <trkpt lat="45.12292" lon="3.92113">
        <ele>556</ele>
        <time>2019-02-25T20:25:17Z</time>
      </trkpt>
      <trkpt lat="45.12286" lon="3.92128">
        <ele>557</ele>
        <time>2019-02-25T20:26:17Z</time>
      </trkpt>
      <trkpt lat="45.12283" lon="3.92184">
        <ele>557</ele>
        <time>2019-02-25T20:27:17Z</time>
      </trkpt>
      <trkpt lat="45.12289" lon="3.92244">
        <ele>557</ele>
        <time>2019-02-25T20:28:17Z</time>
      </trkpt>
      <trkpt lat="45.12338" lon="3.92424">
        <ele>558</ele>
        <time>2019-02-25T20:29:17Z</time>
      </trkpt>
      <trkpt lat="45.12386" lon="3.92586">
        <ele>560</ele>
        <time>2019-02-25T20:30:17Z</time>
      </trkpt>
      <trkpt lat="45.12401" lon="3.92647">
        <ele>560</ele>
        <time>2019-02-25T20:31:17Z</time>
      </trkpt>
      <trkpt lat="45.1241" lon="3.92711">
        <ele>560</ele>
        <time>2019-02-25T20:32:17Z</time>
      </trkpt>
      <trkpt lat="45.12431" lon="3.92929">
        <ele>561</ele>
        <time>2019-02-25T20:33:17Z</time>
      </trkpt>
      <trkpt lat="45.12442" lon="3.93055">
        <ele>562</ele>
        <time>2019-02-25T20:34:17Z</time>
      </trkpt>
      <trkpt lat="45.12458" lon="3.93207">
        <ele>561</ele>
        <time>2019-02-25T20:35:17Z</time>
      </trkpt>
      <trkpt lat="45.12473" lon="3.93245">
        <ele>560</ele>
        <time>2019-02-25T20:36:17Z</time>
      </trkpt>
      <trkpt lat="45.12497" lon="3.93286">
        <ele>560</ele>
        <time>2019-02-25T20:37:17Z</time>
      </trkpt>
      <trkpt lat="45.12538" lon="3.93331">
        <ele>560</ele>
        <time>2019-02-25T20:38:17Z</time>
      </trkpt>
      <trkpt lat="45.12573" lon="3.93376">
        <ele>561</ele>
        <time>2019-02-25T20:39:17Z</time>
      </trkpt>
      <trkpt lat="45.12593" lon="3.9342">
        <ele>562</ele>
        <time>2019-02-25T20:40:17Z</time>
      </trkpt>
      <trkpt lat="45.12602" lon="3.93427">
        <ele>563</ele>
        <time>2019-02-25T20:41:17Z</time>
      </trkpt>
      <trkpt lat="45.12615" lon="3.93456">
        <ele>564</ele>
        <time>2019-02-25T20:42:17Z</time>
      </trkpt>
      <trkpt lat="45.12625" lon="3.9355">
        <ele>566</ele>
        <time>2019-02-25T20:43:17Z</time>
      </trkpt>
      <trkpt lat="45.12641" lon="3.93721">
        <ele>570</ele>
        <time>2019-02-25T20:44:17Z</time>
      </trkpt>
      <trkpt lat="45.12657" lon="3.93878">
        <ele>573</ele>
        <time>2019-02-25T20:45:17Z</time>
      </trkpt>
      <trkpt lat="45.12675" lon="3.94101">
        <ele>577</ele>
        <time>2019-02-25T20:46:17Z</time>
      </trkpt>
      <trkpt lat="45.12682" lon="3.94182">
        <ele>578</ele>
        <time>2019-02-25T20:47:17Z</time>
      </trkpt>
      <trkpt lat="45.12691" lon="3.94218">
        <ele>579</ele>
        <time>2019-02-25T20:48:17Z</time>
      </trkpt>
      <trkpt lat="45.12716" lon="3.94276">
        <ele>580</ele>
        <time>2019-02-25T20:49:17Z</time>
      </trkpt>
      <trkpt lat="45.12723" lon="3.94298">
        <ele>580</ele>
        <time>2019-02-25T20:50:17Z</time>
      </trkpt>
      <trkpt lat="45.12731" lon="3.94338">
        <ele>582</ele>
        <time>2019-02-25T20:51:17Z</time>
      </trkpt>
      <trkpt lat="45.12732" lon="3.94376">
        <ele>583</ele>
        <time>2019-02-25T20:52:17Z</time>
      </trkpt>
      <trkpt lat="45.12729" lon="3.94425">
        <ele>584</ele>
        <time>2019-02-25T20:53:17Z</time>
      </trkpt>
      <trkpt lat="45.12743" lon="3.94439">
        <ele>585</ele>
        <time>2019-02-25T20:54:17Z</time>
      </trkpt>
      <trkpt lat="45.12731" lon="3.94471">
        <ele>584</ele>
        <time>2019-02-25T20:55:17Z</time>
      </trkpt>
      <trkpt lat="45.12714" lon="3.94526">
        <ele>584</ele>
        <time>2019-02-25T20:56:17Z</time>
      </trkpt>
      <trkpt lat="45.12697" lon="3.94596">
        <ele>585</ele>
        <time>2019-02-25T20:57:17Z</time>
      </trkpt>
      <trkpt lat="45.12678" lon="3.94656">
        <ele>585</ele>
        <time>2019-02-25T20:58:17Z</time>
      </trkpt>
      <trkpt lat="45.12667" lon="3.9468">
        <ele>585</ele>
        <time>2019-02-25T20:59:17Z</time>
      </trkpt>
      <trkpt lat="45.12664" lon="3.94703">
        <ele>585</ele>
        <time>2019-02-25T21:00:17Z</time>
      </trkpt>
      <trkpt lat="45.12663" lon="3.94749">
        <ele>585</ele>
        <time>2019-02-25T21:01:17Z</time>
      </trkpt>
      <trkpt lat="45.12665" lon="3.94796">
        <ele>586</ele>
        <time>2019-02-25T21:02:17Z</time>
      </trkpt>
      <trkpt lat="45.12673" lon="3.94835">
        <ele>587</ele>
        <time>2019-02-25T21:03:17Z</time>
      </trkpt>
      <trkpt lat="45.12802" lon="3.95289">
        <ele>596</ele>
        <time>2019-02-25T21:04:17Z</time>
      </trkpt>
      <trkpt lat="45.12812" lon="3.95332">
        <ele>597</ele>
        <time>2019-02-25T21:05:17Z</time>
      </trkpt>
      <trkpt lat="45.12815" lon="3.95362">
        <ele>597</ele>
        <time>2019-02-25T21:06:17Z</time>
      </trkpt>
      <trkpt lat="45.12815" lon="3.95403">
        <ele>598</ele>
        <time>2019-02-25T21:07:17Z</time>
      </trkpt>
      <trkpt lat="45.12805" lon="3.95527">
        <ele>601</ele>
        <time>2019-02-25T21:08:17Z</time>
      </trkpt>
      <trkpt lat="45.128" lon="3.95594">
        <ele>602</ele>
        <time>2019-02-25T21:09:17Z</time>
      </trkpt>
      <trkpt lat="45.12801" lon="3.95617">
        <ele>602</ele>
        <time>2019-02-25T21:10:17Z</time>
      </trkpt>
      <trkpt lat="45.12803" lon="3.95645">
        <ele>602</ele>
        <time>2019-02-25T21:11:17Z</time>
      </trkpt>
      <trkpt lat="45.12809" lon="3.95678">
        <ele>603</ele>
        <time>2019-02-25T21:12:17Z</time>
      </trkpt>
      <trkpt lat="45.12819" lon="3.95711">
        <ele>604</ele>
        <time>2019-02-25T21:13:17Z</time>
      </trkpt>
      <trkpt lat="45.12834" lon="3.95742">
        <ele>605</ele>
        <time>2019-02-25T21:14:17Z</time>
      </trkpt>
      <trkpt lat="45.12869" lon="3.95801">
        <ele>608</ele>
        <time>2019-02-25T21:15:17Z</time>
      </trkpt>
      <trkpt lat="45.12885" lon="3.95843">
        <ele>608</ele>
        <time>2019-02-25T21:16:17Z</time>
      </trkpt>
      <trkpt lat="45.12893" lon="3.95889">
        <ele>608</ele>
        <time>2019-02-25T21:17:17Z</time>
      </trkpt>
      <trkpt lat="45.12892" lon="3.95929">
        <ele>608</ele>
        <time>2019-02-25T21:18:17Z</time>
      </trkpt>
      <trkpt lat="45.12884" lon="3.9598">
        <ele>609</ele>
        <time>2019-02-25T21:19:17Z</time>
      </trkpt>
      <trkpt lat="45.12863" lon="3.96038">
        <ele>611</ele>
        <time>2019-02-25T21:20:17Z</time>
      </trkpt>
      <trkpt lat="45.12847" lon="3.96098">
        <ele>614</ele>
        <time>2019-02-25T21:21:17Z</time>
      </trkpt>
      <trkpt lat="45.12846" lon="3.96146">
        <ele>616</ele>
        <time>2019-02-25T21:22:17Z</time>
      </trkpt>
      <trkpt lat="45.12847" lon="3.96172">
        <ele>617</ele>
        <time>2019-02-25T21:23:17Z</time>
      </trkpt>
      <trkpt lat="45.12853" lon="3.96198">
        <ele>617</ele>
        <time>2019-02-25T21:24:17Z</time>
      </trkpt>
      <trkpt lat="45.12865" lon="3.96236">
        <ele>618</ele>
        <time>2019-02-25T21:25:17Z</time>
      </trkpt>
      <trkpt lat="45.1289" lon="3.96279">
        <ele>619</ele>
        <time>2019-02-25T21:26:17Z</time>
      </trkpt>
      <trkpt lat="45.12918" lon="3.96321">
        <ele>619</ele>
        <time>2019-02-25T21:27:17Z</time>
      </trkpt>
      <trkpt lat="45.12935" lon="3.96361">
        <ele>620</ele>
        <time>2019-02-25T21:28:17Z</time>
      </trkpt>
      <trkpt lat="45.12944" lon="3.96388">
        <ele>621</ele>
        <time>2019-02-25T21:29:17Z</time>
      </trkpt>
      <trkpt lat="45.12951" lon="3.96432">
        <ele>622</ele>
        <time>2019-02-25T21:30:17Z</time>
      </trkpt>
      <trkpt lat="45.1295" lon="3.96471">
        <ele>623</ele>
        <time>2019-02-25T21:31:17Z</time>
      </trkpt>
      <trkpt lat="45.12942" lon="3.96515">
        <ele>624</ele>
        <time>2019-02-25T21:32:17Z</time>
      </trkpt>
      <trkpt lat="45.12931" lon="3.96546">
        <ele>624</ele>
        <time>2019-02-25T21:33:17Z</time>
      </trkpt>
      <trkpt lat="45.12917" lon="3.96585">
        <ele>625</ele>
        <time>2019-02-25T21:34:17Z</time>
      </trkpt>
      <trkpt lat="45.1291" lon="3.96618">
        <ele>625</ele>
        <time>2019-02-25T21:35:17Z</time>
      </trkpt>
      <trkpt lat="45.12908" lon="3.96647">
        <ele>626</ele>
        <time>2019-02-25T21:36:17Z</time>
      </trkpt>
      <trkpt lat="45.1291" lon="3.96705">
        <ele>627</ele>
        <time>2019-02-25T21:37:17Z</time>
      </trkpt>
      <trkpt lat="45.12924" lon="3.96758">
        <ele>629</ele>
        <time>2019-02-25T21:38:17Z</time>
      </trkpt>
      <trkpt lat="45.12942" lon="3.96803">
        <ele>630</ele>
        <time>2019-02-25T21:39:17Z</time>
      </trkpt>
      <trkpt lat="45.12954" lon="3.96842">
        <ele>631</ele>
        <time>2019-02-25T21:40:17Z</time>
      </trkpt>
      <trkpt lat="45.1296" lon="3.96906">
        <ele>632</ele>
        <time>2019-02-25T21:41:17Z</time>
      </trkpt>
      <trkpt lat="45.12971" lon="3.96991">
        <ele>633</ele>
        <time>2019-02-25T21:42:17Z</time>
      </trkpt>
      <trkpt lat="45.12983" lon="3.97112">
        <ele>634</ele>
        <time>2019-02-25T21:43:17Z</time>
      </trkpt>
      <trkpt lat="45.12992" lon="3.97211">
        <ele>635</ele>
        <time>2019-02-25T21:44:17Z</time>
      </trkpt>
      <trkpt lat="45.12997" lon="3.97266">
        <ele>637</ele>
        <time>2019-02-25T21:45:17Z</time>
      </trkpt>
      <trkpt lat="45.12999" lon="3.97333">
        <ele>640</ele>
        <time>2019-02-25T21:46:17Z</time>
      </trkpt>
      <trkpt lat="45.12995" lon="3.97382">
        <ele>640</ele>
        <time>2019-02-25T21:47:17Z</time>
      </trkpt>
      <trkpt lat="45.12976" lon="3.97523">
        <ele>641</ele>
        <time>2019-02-25T21:48:17Z</time>
      </trkpt>
      <trkpt lat="45.12968" lon="3.97564">
        <ele>640</ele>
        <time>2019-02-25T21:49:17Z</time>
      </trkpt>
      <trkpt lat="45.12965" lon="3.97594">
        <ele>640</ele>
        <time>2019-02-25T21:50:17Z</time>
      </trkpt>
      <trkpt lat="45.12964" lon="3.97644">
        <ele>640</ele>
        <time>2019-02-25T21:51:17Z</time>
      </trkpt>
      <trkpt lat="45.12972" lon="3.97709">
        <ele>642</ele>
        <time>2019-02-25T21:52:17Z</time>
      </trkpt>
      <trkpt lat="45.12991" lon="3.97814">
        <ele>643</ele>
        <time>2019-02-25T21:53:17Z</time>
      </trkpt>
      <trkpt lat="45.12998" lon="3.97843">
        <ele>643</ele>
        <time>2019-02-25T21:54:17Z</time>
      </trkpt>
      <trkpt lat="45.13006" lon="3.9787">
        <ele>644</ele>
        <time>2019-02-25T21:55:17Z</time>
      </trkpt>
      <trkpt lat="45.13023" lon="3.97901">
        <ele>646</ele>
        <time>2019-02-25T21:56:17Z</time>
      </trkpt>
      <trkpt lat="45.13041" lon="3.97924">
        <ele>648</ele>
        <time>2019-02-25T21:57:17Z</time>
      </trkpt>
      <trkpt lat="45.13073" lon="3.97948">
        <ele>651</ele>
        <time>2019-02-25T21:58:17Z</time>
      </trkpt>
      <trkpt lat="45.13145" lon="3.97985">
        <ele>655</ele>
        <time>2019-02-25T21:59:17Z</time>
      </trkpt>
      <trkpt lat="45.1322" lon="3.9802">
        <ele>659</ele>
        <time>2019-02-25T22:00:17Z</time>
      </trkpt>
      <trkpt lat="45.13245" lon="3.98041">
        <ele>660</ele>
        <time>2019-02-25T22:01:17Z</time>
      </trkpt>
      <trkpt lat="45.13264" lon="3.98066">
        <ele>660</ele>
        <time>2019-02-25T22:02:17Z</time>
      </trkpt>
      <trkpt lat="45.13287" lon="3.98114">
        <ele>661</ele>
        <time>2019-02-25T22:03:17Z</time>
      </trkpt>
      <trkpt lat="45.13294" lon="3.98144">
        <ele>661</ele>
        <time>2019-02-25T22:04:17Z</time>
      </trkpt>
      <trkpt lat="45.133" lon="3.98186">
        <ele>661</ele>
        <time>2019-02-25T22:05:17Z</time>
      </trkpt>
      <trkpt lat="45.133" lon="3.98209">
        <ele>660</ele>
        <time>2019-02-25T22:06:17Z</time>
      </trkpt>
      <trkpt lat="45.13304" lon="3.98261">
        <ele>661</ele>
        <time>2019-02-25T22:07:17Z</time>
      </trkpt>
      <trkpt lat="45.13314" lon="3.98305">
        <ele>662</ele>
        <time>2019-02-25T22:08:17Z</time>
      </trkpt>
      <trkpt lat="45.13324" lon="3.9833">
        <ele>663</ele>
        <time>2019-02-25T22:09:17Z</time>
      </trkpt>
      <trkpt lat="45.13349" lon="3.98381">
        <ele>664</ele>
        <time>2019-02-25T22:10:17Z</time>
      </trkpt>
      <trkpt lat="45.13365" lon="3.98423">
        <ele>666</ele>
        <time>2019-02-25T22:11:17Z</time>
      </trkpt>
      <trkpt lat="45.13373" lon="3.9847">
        <ele>668</ele>
        <time>2019-02-25T22:12:17Z</time>
      </trkpt>
      <trkpt lat="45.13376" lon="3.98507">
        <ele>669</ele>
        <time>2019-02-25T22:13:17Z</time>
      </trkpt>
      <trkpt lat="45.13376" lon="3.98547">
        <ele>669</ele>
        <time>2019-02-25T22:14:17Z</time>
      </trkpt>
      <trkpt lat="45.13387" lon="3.98709">
        <ele>672</ele>
        <time>2019-02-25T22:15:17Z</time>
      </trkpt>
      <trkpt lat="45.1339" lon="3.98737">
        <ele>672</ele>
        <time>2019-02-25T22:16:17Z</time>
      </trkpt>
      <trkpt lat="45.13413" lon="3.9883">
        <ele>670</ele>
        <time>2019-02-25T22:17:17Z</time>
      </trkpt>
      <trkpt lat="45.13452" lon="3.9897">
        <ele>672</ele>
        <time>2019-02-25T22:18:17Z</time>
      </trkpt>
      <trkpt lat="45.13469" lon="3.99028">
        <ele>672</ele>
        <time>2019-02-25T22:19:17Z</time>
      </trkpt>
      <trkpt lat="45.13469" lon="3.99033">
        <ele>671</ele>
        <time>2019-02-25T22:20:17Z</time>
      </trkpt>
      <trkpt lat="45.13458" lon="3.99038">
        <ele>670</ele>
        <time>2019-02-25T22:21:17Z</time>
      </trkpt>
      <trkpt lat="45.13452" lon="3.99066">
        <ele>669</ele>
        <time>2019-02-25T22:22:17Z</time>
      </trkpt>
      <trkpt lat="45.13447" lon="3.99084">
        <ele>668</ele>
        <time>2019-02-25T22:23:17Z</time>
      </trkpt>
      <trkpt lat="45.13432" lon="3.99119">
        <ele>669</ele>
        <time>2019-02-25T22:24:17Z</time>
      </trkpt>
      <trkpt lat="45.13407" lon="3.99153">
        <ele>671</ele>
        <time>2019-02-25T22:25:17Z</time>
      </trkpt>
      <trkpt lat="45.13369" lon="3.99161">
        <ele>671</ele>
        <time>2019-02-25T22:26:17Z</time>
      </trkpt>
      <trkpt lat="45.13333" lon="3.99163">
        <ele>671</ele>
        <time>2019-02-25T22:27:17Z</time>
      </trkpt>
      <trkpt lat="45.13305" lon="3.99174">
        <ele>670</ele>
        <time>2019-02-25T22:28:17Z</time>
      </trkpt>
      <trkpt lat="45.13262" lon="3.99197">
        <ele>670</ele>
        <time>2019-02-25T22:29:17Z</time>
      </trkpt>
      <trkpt lat="45.1319" lon="3.99242">
        <ele>674</ele>
        <time>2019-02-25T22:30:17Z</time>
      </trkpt>
      <trkpt lat="45.13176" lon="3.9924">
        <ele>674</ele>
        <time>2019-02-25T22:31:17Z</time>
      </trkpt>
      <trkpt lat="45.13144" lon="3.9923">
        <ele>673</ele>
        <time>2019-02-25T22:32:17Z</time>
      </trkpt>
      <trkpt lat="45.13106" lon="3.99215">
        <ele>671</ele>
        <time>2019-02-25T22:33:17Z</time>
      </trkpt>
      <trkpt lat="45.13074" lon="3.9921">
        <ele>670</ele>
        <time>2019-02-25T22:34:17Z</time>
      </trkpt>
      <trkpt lat="45.13058" lon="3.99209">
        <ele>669</ele>
        <time>2019-02-25T22:35:17Z</time>
      </trkpt>
      <trkpt lat="45.13039" lon="3.99219">
        <ele>670</ele>
        <time>2019-02-25T22:36:17Z</time>
      </trkpt>
      <trkpt lat="45.1302" lon="3.9923">
        <ele>671</ele>
        <time>2019-02-25T22:37:17Z</time>
      </trkpt>
      <trkpt lat="45.13001" lon="3.99252">
        <ele>672</ele>
        <time>2019-02-25T22:38:17Z</time>
      </trkpt>
      <trkpt lat="45.12976" lon="3.99287">
        <ele>675</ele>
        <time>2019-02-25T22:39:17Z</time>
      </trkpt>
      <trkpt lat="45.12949" lon="3.99323">
        <ele>677</ele>
        <time>2019-02-25T22:40:17Z</time>
      </trkpt>
      <trkpt lat="45.12919" lon="3.99351">
        <ele>677</ele>
        <time>2019-02-25T22:41:17Z</time>
      </trkpt>
      <trkpt lat="45.12906" lon="3.99365">
        <ele>677</ele>
        <time>2019-02-25T22:42:17Z</time>
      </trkpt>
      <trkpt lat="45.12895" lon="3.99382">
        <ele>678</ele>
        <time>2019-02-25T22:43:17Z</time>
      </trkpt>
      <trkpt lat="45.12885" lon="3.99401">
        <ele>679</ele>
        <time>2019-02-25T22:44:17Z</time>
      </trkpt>
      <trkpt lat="45.12868" lon="3.99449">
        <ele>682</ele>
        <time>2019-02-25T22:45:17Z</time>
      </trkpt>
      <trkpt lat="45.12856" lon="3.99488">
        <ele>685</ele>
        <time>2019-02-25T22:46:17Z</time>
      </trkpt>
      <trkpt lat="45.12842" lon="3.99515">
        <ele>685</ele>
        <time>2019-02-25T22:47:17Z</time>
      </trkpt>
      <trkpt lat="45.12821" lon="3.99549">
        <ele>685</ele>
        <time>2019-02-25T22:48:17Z</time>
      </trkpt>
      <trkpt lat="45.12809" lon="3.99574">
        <ele>685</ele>
        <time>2019-02-25T22:49:17Z</time>
      </trkpt>
      <trkpt lat="45.12802" lon="3.99601">
        <ele>685</ele>
        <time>2019-02-25T22:50:17Z</time>
      </trkpt>
      <trkpt lat="45.12798" lon="3.99624">
        <ele>684</ele>
        <time>2019-02-25T22:51:17Z</time>
      </trkpt>
      <trkpt lat="45.12797" lon="3.99671">
        <ele>685</ele>
        <time>2019-02-25T22:52:17Z</time>
      </trkpt>
      <trkpt lat="45.128" lon="3.99729">
        <ele>684</ele>
        <time>2019-02-25T22:53:17Z</time>
      </trkpt>
      <trkpt lat="45.12802" lon="3.99769">
        <ele>684</ele>
        <time>2019-02-25T22:54:17Z</time>
      </trkpt>
      <trkpt lat="45.12798" lon="3.99801">
        <ele>686</ele>
        <time>2019-02-25T22:55:17Z</time>
      </trkpt>
      <trkpt lat="45.12792" lon="3.99819">
        <ele>686</ele>
        <time>2019-02-25T22:56:17Z</time>
      </trkpt>
      <trkpt lat="45.12779" lon="3.99848">
        <ele>689</ele>
        <time>2019-02-25T22:57:17Z</time>
      </trkpt>
      <trkpt lat="45.12765" lon="3.99868">
        <ele>692</ele>
        <time>2019-02-25T22:58:17Z</time>
      </trkpt>
      <trkpt lat="45.12738" lon="3.99893">
        <ele>693</ele>
        <time>2019-02-25T22:59:17Z</time>
      </trkpt>
      <trkpt lat="45.12707" lon="3.99918">
        <ele>693</ele>
        <time>2019-02-25T23:00:17Z</time>
      </trkpt>
      <trkpt lat="45.12684" lon="3.99944">
        <ele>694</ele>
        <time>2019-02-25T23:01:17Z</time>
      </trkpt>
      <trkpt lat="45.12624" lon="4.00028">
        <ele>697</ele>
        <time>2019-02-25T23:02:17Z</time>
      </trkpt>
      <trkpt lat="45.12606" lon="4.00054">
        <ele>698</ele>
        <time>2019-02-25T23:03:17Z</time>
      </trkpt>
      <trkpt lat="45.12597" lon="4.00072">
        <ele>699</ele>
        <time>2019-02-25T23:04:17Z</time>
      </trkpt>
      <trkpt lat="45.12591" lon="4.00095">
        <ele>700</ele>
        <time>2019-02-25T23:05:17Z</time>
      </trkpt>
      <trkpt lat="45.12578" lon="4.00163">
        <ele>702</ele>
        <time>2019-02-25T23:06:17Z</time>
      </trkpt>
      <trkpt lat="45.1257" lon="4.00195">
        <ele>704</ele>
        <time>2019-02-25T23:07:17Z</time>
      </trkpt>
      <trkpt lat="45.12559" lon="4.00222">
        <ele>706</ele>
        <time>2019-02-25T23:08:17Z</time>
      </trkpt>
      <trkpt lat="45.12546" lon="4.00254">
        <ele>707</ele>
        <time>2019-02-25T23:09:17Z</time>
      </trkpt>
      <trkpt lat="45.1253" lon="4.00282">
        <ele>706</ele>
        <time>2019-02-25T23:10:17Z</time>
      </trkpt>
      <trkpt lat="45.12521" lon="4.00303">
        <ele>706</ele>
        <time>2019-02-25T23:11:17Z</time>
      </trkpt>
      <trkpt lat="45.12514" lon="4.00332">
        <ele>706</ele>
        <time>2019-02-25T23:12:17Z</time>
      </trkpt>
      <trkpt lat="45.12511" lon="4.00359">
        <ele>705</ele>
        <time>2019-02-25T23:13:17Z</time>
      </trkpt>
      <trkpt lat="45.12512" lon="4.00386">
        <ele>706</ele>
        <time>2019-02-25T23:14:17Z</time>
      </trkpt>
      <trkpt lat="45.12533" lon="4.00476">
        <ele>711</ele>
        <time>2019-02-25T23:15:17Z</time>
      </trkpt>
      <trkpt lat="45.12539" lon="4.00504">
        <ele>712</ele>
        <time>2019-02-25T23:16:17Z</time>
      </trkpt>
      <trkpt lat="45.12543" lon="4.00529">
        <ele>713</ele>
        <time>2019-02-25T23:17:17Z</time>
      </trkpt>
      <trkpt lat="45.12544" lon="4.00562">
        <ele>714</ele>
        <time>2019-02-25T23:18:17Z</time>
      </trkpt>
      <trkpt lat="45.12541" lon="4.00601">
        <ele>713</ele>
        <time>2019-02-25T23:19:17Z</time>
      </trkpt>
      <trkpt lat="45.12521" lon="4.00704">
        <ele>714</ele>
        <time>2019-02-25T23:20:17Z</time>
      </trkpt>
      <trkpt lat="45.12521" lon="4.00739">
        <ele>717</ele>
        <time>2019-02-25T23:21:17Z</time>
      </trkpt>
      <trkpt lat="45.12527" lon="4.00778">
        <ele>717</ele>
        <time>2019-02-25T23:22:17Z</time>
      </trkpt>
      <trkpt lat="45.12538" lon="4.00815">
        <ele>717</ele>
        <time>2019-02-25T23:23:17Z</time>
      </trkpt>
      <trkpt lat="45.12549" lon="4.00848">
        <ele>719</ele>
        <time>2019-02-25T23:24:17Z</time>
      </trkpt>
      <trkpt lat="45.12557" lon="4.00882">
        <ele>721</ele>
        <time>2019-02-25T23:25:17Z</time>
      </trkpt>
      <trkpt lat="45.12558" lon="4.00902">
        <ele>721</ele>
        <time>2019-02-25T23:26:17Z</time>
      </trkpt>
      <trkpt lat="45.12557" lon="4.01005">
        <ele>721</ele>
        <time>2019-02-25T23:27:17Z</time>
      </trkpt>
      <trkpt lat="45.12553" lon="4.01037">
        <ele>723</ele>
        <time>2019-02-25T23:28:17Z</time>
      </trkpt>
      <trkpt lat="45.12542" lon="4.01075">
        <ele>725</ele>
        <time>2019-02-25T23:29:17Z</time>
      </trkpt>
      <trkpt lat="45.12529" lon="4.01103">
        <ele>727</ele>
        <time>2019-02-25T23:30:17Z</time>
      </trkpt>
      <trkpt lat="45.1251" lon="4.01127">
        <ele>727</ele>
        <time>2019-02-25T23:31:17Z</time>
      </trkpt>
      <trkpt lat="45.12425" lon="4.01192">
        <ele>724</ele>
        <time>2019-02-25T23:32:17Z</time>
      </trkpt>
      <trkpt lat="45.12414" lon="4.01206">
        <ele>724</ele>
        <time>2019-02-25T23:33:17Z</time>
      </trkpt>
      <trkpt lat="45.12399" lon="4.01233">
        <ele>723</ele>
        <time>2019-02-25T23:34:17Z</time>
      </trkpt>
      <trkpt lat="45.12392" lon="4.01254">
        <ele>723</ele>
        <time>2019-02-25T23:35:17Z</time>
      </trkpt>
      <trkpt lat="45.12385" lon="4.01283">
        <ele>723</ele>
        <time>2019-02-25T23:36:17Z</time>
      </trkpt>
      <trkpt lat="45.12385" lon="4.01317">
        <ele>724</ele>
        <time>2019-02-25T23:37:17Z</time>
      </trkpt>
      <trkpt lat="45.12388" lon="4.01346">
        <ele>725</ele>
        <time>2019-02-25T23:38:17Z</time>
      </trkpt>
      <trkpt lat="45.12397" lon="4.01378">
        <ele>726</ele>
        <time>2019-02-25T23:39:17Z</time>
      </trkpt>
      <trkpt lat="45.12429" lon="4.01454">
        <ele>729</ele>
        <time>2019-02-25T23:40:17Z</time>
      </trkpt>
      <trkpt lat="45.12437" lon="4.01492">
        <ele>727</ele>
        <time>2019-02-25T23:41:17Z</time>
      </trkpt>
      <trkpt lat="45.12444" lon="4.01518">
        <ele>726</ele>
        <time>2019-02-25T23:42:17Z</time>
      </trkpt>
      <trkpt lat="45.12453" lon="4.0154">
        <ele>726</ele>
        <time>2019-02-25T23:43:17Z</time>
      </trkpt>
      <trkpt lat="45.12474" lon="4.01571">
        <ele>729</ele>
        <time>2019-02-25T23:44:17Z</time>
      </trkpt>
      <trkpt lat="45.12497" lon="4.0159">
        <ele>734</ele>
        <time>2019-02-25T23:45:17Z</time>
      </trkpt>
      <trkpt lat="45.12519" lon="4.01598">
        <ele>735</ele>
        <time>2019-02-25T23:46:17Z</time>
      </trkpt>
      <trkpt lat="45.12559" lon="4.01599">
        <ele>740</ele>
        <time>2019-02-25T23:47:17Z</time>
      </trkpt>
      <trkpt lat="45.12624" lon="4.01592">
        <ele>746</ele>
        <time>2019-02-25T23:48:17Z</time>
      </trkpt>
      <trkpt lat="45.12674" lon="4.01592">
        <ele>750</ele>
        <time>2019-02-25T23:49:17Z</time>
      </trkpt>
      <trkpt lat="45.1269" lon="4.01595">
        <ele>752</ele>
        <time>2019-02-25T23:50:17Z</time>
      </trkpt>
      <trkpt lat="45.12719" lon="4.01612">
        <ele>754</ele>
        <time>2019-02-25T23:51:17Z</time>
      </trkpt>
      <trkpt lat="45.12741" lon="4.01635">
        <ele>755</ele>
        <time>2019-02-25T23:52:17Z</time>
      </trkpt>
      <trkpt lat="45.12755" lon="4.01666">
        <ele>754</ele>
        <time>2019-02-25T23:53:17Z</time>
      </trkpt>
      <trkpt lat="45.12771" lon="4.01722">
        <ele>754</ele>
        <time>2019-02-25T23:54:17Z</time>
      </trkpt>
      <trkpt lat="45.12783" lon="4.01762">
        <ele>753</ele>
        <time>2019-02-25T23:55:17Z</time>
      </trkpt>
      <trkpt lat="45.128" lon="4.01798">
        <ele>755</ele>
        <time>2019-02-25T23:56:17Z</time>
      </trkpt>
      <trkpt lat="45.12823" lon="4.01835">
        <ele>757</ele>
        <time>2019-02-25T23:57:17Z</time>
      </trkpt>
      <trkpt lat="45.1284" lon="4.01868">
        <ele>758</ele>
        <time>2019-02-25T23:58:17Z</time>
      </trkpt>
      <trkpt lat="45.12848" lon="4.01896">
        <ele>757</ele>
        <time>2019-02-25T23:59:17Z</time>
      </trkpt>
      <trkpt lat="45.12851" lon="4.01937">
        <ele>756</ele>
        <time>2019-02-26T00:00:17Z</time>
      </trkpt>
      <trkpt lat="45.12853" lon="4.0198">
        <ele>755</ele>
        <time>2019-02-26T00:01:17Z</time>
      </trkpt>
      <trkpt lat="45.1286" lon="4.02022">
        <ele>753</ele>
        <time>2019-02-26T00:02:17Z</time>
      </trkpt>
      <trkpt lat="45.12876" lon="4.02067">
        <ele>752</ele>
        <time>2019-02-26T00:03:17Z</time>
      </trkpt>
      <trkpt lat="45.12889" lon="4.02088">
        <ele>753</ele>
        <time>2019-02-26T00:04:17Z</time>
      </trkpt>
      <trkpt lat="45.12908" lon="4.02107">
        <ele>754</ele>
        <time>2019-02-26T00:05:17Z</time>
      </trkpt>
      <trkpt lat="45.12925" lon="4.02119">
        <ele>754</ele>
        <time>2019-02-26T00:06:17Z</time>
      </trkpt>
      <trkpt lat="45.12951" lon="4.02125">
        <ele>756</ele>
        <time>2019-02-26T00:07:17Z</time>
      </trkpt>
      <trkpt lat="45.13026" lon="4.02134">
        <ele>761</ele>
        <time>2019-02-26T00:08:17Z</time>
      </trkpt>
      <trkpt lat="45.13065" lon="4.02133">
        <ele>763</ele>
        <time>2019-02-26T00:09:17Z</time>
      </trkpt>
      <trkpt lat="45.13121" lon="4.0212">
        <ele>769</ele>
        <time>2019-02-26T00:10:17Z</time>
      </trkpt>
      <trkpt lat="45.13141" lon="4.0212">
        <ele>769</ele>
        <time>2019-02-26T00:11:17Z</time>
      </trkpt>
      <trkpt lat="45.1316" lon="4.02125">
        <ele>767</ele>
        <time>2019-02-26T00:12:17Z</time>
      </trkpt>
      <trkpt lat="45.13184" lon="4.02134">
        <ele>765</ele>
        <time>2019-02-26T00:13:17Z</time>
      </trkpt>
      <trkpt lat="45.13206" lon="4.02139">
        <ele>763</ele>
        <time>2019-02-26T00:14:17Z</time>
      </trkpt>
      <trkpt lat="45.13234" lon="4.02136">
        <ele>765</ele>
        <time>2019-02-26T00:15:17Z</time>
      </trkpt>
      <trkpt lat="45.13265" lon="4.02127">
        <ele>767</ele>
        <time>2019-02-26T00:16:17Z</time>
      </trkpt>
      <trkpt lat="45.1329" lon="4.02113">
        <ele>769</ele>
        <time>2019-02-26T00:17:17Z</time>
      </trkpt>
      <trkpt lat="45.13344" lon="4.02108">
        <ele>769</ele>
        <time>2019-02-26T00:18:17Z</time>
      </trkpt>
      <trkpt lat="45.13366" lon="4.02111">
        <ele>771</ele>
        <time>2019-02-26T00:19:17Z</time>
      </trkpt>
      <trkpt lat="45.13423" lon="4.02124">
        <ele>774</ele>
        <time>2019-02-26T00:20:17Z</time>
      </trkpt>
      <trkpt lat="45.13454" lon="4.02138">
        <ele>778</ele>
        <time>2019-02-26T00:21:17Z</time>
      </trkpt>
      <trkpt lat="45.13473" lon="4.0216">
        <ele>779</ele>
        <time>2019-02-26T00:22:17Z</time>
      </trkpt>
      <trkpt lat="45.1349" lon="4.02196">
        <ele>780</ele>
        <time>2019-02-26T00:23:17Z</time>
      </trkpt>
      <trkpt lat="45.13497" lon="4.02226">
        <ele>779</ele>
        <time>2019-02-26T00:24:17Z</time>
      </trkpt>
      <trkpt lat="45.135" lon="4.02251">
        <ele>778</ele>
        <time>2019-02-26T00:25:17Z</time>
      </trkpt>
      <trkpt lat="45.13495" lon="4.0229">
        <ele>776</ele>
        <time>2019-02-26T00:26:17Z</time>
      </trkpt>
      <trkpt lat="45.13486" lon="4.02319">
        <ele>775</ele>
        <time>2019-02-26T00:27:17Z</time>
      </trkpt>
      <trkpt lat="45.13473" lon="4.02343">
        <ele>776</ele>
        <time>2019-02-26T00:28:17Z</time>
      </trkpt>
      <trkpt lat="45.13458" lon="4.02359">
        <ele>779</ele>
        <time>2019-02-26T00:29:17Z</time>
      </trkpt>
      <trkpt lat="45.13437" lon="4.02371">
        <ele>781</ele>
        <time>2019-02-26T00:30:17Z</time>
      </trkpt>
      <trkpt lat="45.13412" lon="4.02377">
        <ele>783</ele>
        <time>2019-02-26T00:31:17Z</time>
      </trkpt>
      <trkpt lat="45.13389" lon="4.02373">
        <ele>786</ele>
        <time>2019-02-26T00:32:17Z</time>
      </trkpt>
      <trkpt lat="45.1337" lon="4.02363">
        <ele>787</ele>
        <time>2019-02-26T00:33:17Z</time>
      </trkpt>
      <trkpt lat="45.13332" lon="4.02332">
        <ele>788</ele>
        <time>2019-02-26T00:34:17Z</time>
      </trkpt>
      <trkpt lat="45.13314" lon="4.02321">
        <ele>785</ele>
        <time>2019-02-26T00:35:17Z</time>
      </trkpt>
      <trkpt lat="45.13291" lon="4.02318">
        <ele>783</ele>
        <time>2019-02-26T00:36:17Z</time>
      </trkpt>
      <trkpt lat="45.13271" lon="4.02315">
        <ele>782</ele>
        <time>2019-02-26T00:37:17Z</time>
      </trkpt>
      <trkpt lat="45.1325" lon="4.02321">
        <ele>784</ele>
        <time>2019-02-26T00:38:17Z</time>
      </trkpt>
      <trkpt lat="45.13221" lon="4.02338">
        <ele>786</ele>
        <time>2019-02-26T00:39:17Z</time>
      </trkpt>
      <trkpt lat="45.13199" lon="4.02367">
        <ele>789</ele>
        <time>2019-02-26T00:40:17Z</time>
      </trkpt>
      <trkpt lat="45.13181" lon="4.02408">
        <ele>793</ele>
        <time>2019-02-26T00:41:17Z</time>
      </trkpt>
      <trkpt lat="45.1317" lon="4.02443">
        <ele>792</ele>
        <time>2019-02-26T00:42:17Z</time>
      </trkpt>
      <trkpt lat="45.13168" lon="4.02515">
        <ele>788</ele>
        <time>2019-02-26T00:43:17Z</time>
      </trkpt>
      <trkpt lat="45.13174" lon="4.02623">
        <ele>786</ele>
        <time>2019-02-26T00:44:17Z</time>
      </trkpt>
      <trkpt lat="45.13182" lon="4.02698">
        <ele>788</ele>
        <time>2019-02-26T00:45:17Z</time>
      </trkpt>
      <trkpt lat="45.13189" lon="4.02866">
        <ele>791</ele>
        <time>2019-02-26T00:46:17Z</time>
      </trkpt>
      <trkpt lat="45.13186" lon="4.02896">
        <ele>790</ele>
        <time>2019-02-26T00:47:17Z</time>
      </trkpt>
      <trkpt lat="45.1318" lon="4.02946">
        <ele>789</ele>
        <time>2019-02-26T00:48:17Z</time>
      </trkpt>
      <trkpt lat="45.1318" lon="4.02973">
        <ele>789</ele>
        <time>2019-02-26T00:49:17Z</time>
      </trkpt>
      <trkpt lat="45.1318" lon="4.02987">
        <ele>789</ele>
        <time>2019-02-26T00:50:17Z</time>
      </trkpt>
      <trkpt lat="45.13199" lon="4.03038">
        <ele>795</ele>
        <time>2019-02-26T00:51:17Z</time>
      </trkpt>
      <trkpt lat="45.13213" lon="4.03084">
        <ele>798</ele>
        <time>2019-02-26T00:52:17Z</time>
      </trkpt>
      <trkpt lat="45.13219" lon="4.03118">
        <ele>802</ele>
        <time>2019-02-26T00:53:17Z</time>
      </trkpt>
      <trkpt lat="45.13224" lon="4.03152">
        <ele>805</ele>
        <time>2019-02-26T00:54:17Z</time>
      </trkpt>
      <trkpt lat="45.13211" lon="4.03199">
        <ele>808</ele>
        <time>2019-02-26T00:55:17Z</time>
      </trkpt>
      <trkpt lat="45.1318" lon="4.03247">
        <ele>807</ele>
        <time>2019-02-26T00:56:17Z</time>
      </trkpt>
      <trkpt lat="45.13091" lon="4.03372">
        <ele>809</ele>
        <time>2019-02-26T00:57:17Z</time>
      </trkpt>
      <trkpt lat="45.13055" lon="4.03426">
        <ele>810</ele>
        <time>2019-02-26T00:58:17Z</time>
      </trkpt>
      <trkpt lat="45.13045" lon="4.03465">
        <ele>810</ele>
        <time>2019-02-26T00:59:17Z</time>
      </trkpt>
      <trkpt lat="45.13042" lon="4.03516">
        <ele>812</ele>
        <time>2019-02-26T01:00:17Z</time>
      </trkpt>
      <trkpt lat="45.13051" lon="4.03565">
        <ele>814</ele>
        <time>2019-02-26T01:01:17Z</time>
      </trkpt>
      <trkpt lat="45.13077" lon="4.03644">
        <ele>816</ele>
        <time>2019-02-26T01:02:17Z</time>
      </trkpt>
      <trkpt lat="45.13083" lon="4.03677">
        <ele>816</ele>
        <time>2019-02-26T01:03:17Z</time>
      </trkpt>
      <trkpt lat="45.13082" lon="4.03717">
        <ele>817</ele>
        <time>2019-02-26T01:04:17Z</time>
      </trkpt>
      <trkpt lat="45.13072" lon="4.03763">
        <ele>819</ele>
        <time>2019-02-26T01:05:17Z</time>
      </trkpt>
      <trkpt lat="45.13057" lon="4.03792">
        <ele>821</ele>
        <time>2019-02-26T01:06:17Z</time>
      </trkpt>
      <trkpt lat="45.13036" lon="4.03819">
        <ele>822</ele>
        <time>2019-02-26T01:07:17Z</time>
      </trkpt>
      <trkpt lat="45.13003" lon="4.03846">
        <ele>824</ele>
        <time>2019-02-26T01:08:17Z</time>
      </trkpt>
      <trkpt lat="45.12962" lon="4.03876">
        <ele>824</ele>
        <time>2019-02-26T01:09:17Z</time>
      </trkpt>
      <trkpt lat="45.12941" lon="4.03904">
        <ele>824</ele>
        <time>2019-02-26T01:10:17Z</time>
      </trkpt>
      <trkpt lat="45.12927" lon="4.03932">
        <ele>824</ele>
        <time>2019-02-26T01:11:17Z</time>
      </trkpt>
      <trkpt lat="45.12919" lon="4.03967">
        <ele>825</ele>
        <time>2019-02-26T01:12:17Z</time>
      </trkpt>
      <trkpt lat="45.12916" lon="4.03996">
        <ele>826</ele>
        <time>2019-02-26T01:13:17Z</time>
      </trkpt>
      <trkpt lat="45.1292" lon="4.04076">
        <ele>826</ele>
        <time>2019-02-26T01:14:17Z</time>
      </trkpt>
      <trkpt lat="45.12924" lon="4.04151">
        <ele>828</ele>
        <time>2019-02-26T01:15:17Z</time>
      </trkpt>
      <trkpt lat="45.12927" lon="4.04222">
        <ele>829</ele>
        <time>2019-02-26T01:16:17Z</time>
      </trkpt>
      <trkpt lat="45.12932" lon="4.04272">
        <ele>830</ele>
        <time>2019-02-26T01:17:17Z</time>
      </trkpt>
      <trkpt lat="45.1295" lon="4.04337">
        <ele>836</ele>
        <time>2019-02-26T01:18:17Z</time>
      </trkpt>
      <trkpt lat="45.13012" lon="4.04514">
        <ele>843</ele>
        <time>2019-02-26T01:19:17Z</time>
      </trkpt>
      <trkpt lat="45.13022" lon="4.04553">
        <ele>845</ele>
        <time>2019-02-26T01:20:17Z</time>
      </trkpt>
      <trkpt lat="45.13026" lon="4.04598">
        <ele>846</ele>
        <time>2019-02-26T01:21:17Z</time>
      </trkpt>
      <trkpt lat="45.13031" lon="4.0463">
        <ele>846</ele>
        <time>2019-02-26T01:22:17Z</time>
      </trkpt>
      <trkpt lat="45.13051" lon="4.0469">
        <ele>850</ele>
        <time>2019-02-26T01:23:17Z</time>
      </trkpt>
      <trkpt lat="45.13061" lon="4.04724">
        <ele>851</ele>
        <time>2019-02-26T01:24:17Z</time>
      </trkpt>
      <trkpt lat="45.13068" lon="4.04756">
        <ele>852</ele>
        <time>2019-02-26T01:25:17Z</time>
      </trkpt>
      <trkpt lat="45.1307" lon="4.04788">
        <ele>853</ele>
        <time>2019-02-26T01:26:17Z</time>
      </trkpt>
      <trkpt lat="45.13066" lon="4.04836">
        <ele>854</ele>
        <time>2019-02-26T01:27:17Z</time>
      </trkpt>
      <trkpt lat="45.13059" lon="4.04895">
        <ele>855</ele>
        <time>2019-02-26T01:28:17Z</time>
      </trkpt>
      <trkpt lat="45.13035" lon="4.05012">
        <ele>856</ele>
        <time>2019-02-26T01:29:17Z</time>
      </trkpt>
      <trkpt lat="45.13029" lon="4.05054">
        <ele>857</ele>
        <time>2019-02-26T01:30:17Z</time>
      </trkpt>
      <trkpt lat="45.13033" lon="4.05093">
        <ele>859</ele>
        <time>2019-02-26T01:31:17Z</time>
      </trkpt>
      <trkpt lat="45.1304" lon="4.05162">
        <ele>864</ele>
        <time>2019-02-26T01:32:17Z</time>
      </trkpt>
      <trkpt lat="45.13041" lon="4.05186">
        <ele>865</ele>
        <time>2019-02-26T01:33:17Z</time>
      </trkpt>
      <trkpt lat="45.13008" lon="4.053">
        <ele>861</ele>
        <time>2019-02-26T01:34:17Z</time>
      </trkpt>
      <trkpt lat="45.13005" lon="4.05339">
        <ele>861</ele>
        <time>2019-02-26T01:35:17Z</time>
      </trkpt>
      <trkpt lat="45.1301" lon="4.05379">
        <ele>862</ele>
        <time>2019-02-26T01:36:17Z</time>
      </trkpt>
      <trkpt lat="45.13021" lon="4.05411">
        <ele>864</ele>
        <time>2019-02-26T01:37:17Z</time>
      </trkpt>
      <trkpt lat="45.13054" lon="4.05481">
        <ele>868</ele>
        <time>2019-02-26T01:38:17Z</time>
      </trkpt>
      <trkpt lat="45.13064" lon="4.05522">
        <ele>869</ele>
        <time>2019-02-26T01:39:17Z</time>
      </trkpt>
      <trkpt lat="45.13065" lon="4.05565">
        <ele>870</ele>
        <time>2019-02-26T01:40:17Z</time>
      </trkpt>
      <trkpt lat="45.1306" lon="4.05608">
        <ele>871</ele>
        <time>2019-02-26T01:41:17Z</time>
      </trkpt>
      <trkpt lat="45.13051" lon="4.05637">
        <ele>871</ele>
        <time>2019-02-26T01:42:17Z</time>
      </trkpt>
      <trkpt lat="45.13035" lon="4.05664">
        <ele>870</ele>
        <time>2019-02-26T01:43:17Z</time>
      </trkpt>
      <trkpt lat="45.12978" lon="4.05748">
        <ele>869</ele>
        <time>2019-02-26T01:44:17Z</time>
      </trkpt>
      <trkpt lat="45.12963" lon="4.05791">
        <ele>872</ele>
        <time>2019-02-26T01:45:17Z</time>
      </trkpt>
      <trkpt lat="45.12956" lon="4.0583">
        <ele>874</ele>
        <time>2019-02-26T01:46:17Z</time>
      </trkpt>
      <trkpt lat="45.12956" lon="4.05883">
        <ele>875</ele>
        <time>2019-02-26T01:47:17Z</time>
      </trkpt>
      <trkpt lat="45.12968" lon="4.05953">
        <ele>877</ele>
        <time>2019-02-26T01:48:17Z</time>
      </trkpt>
      <trkpt lat="45.12974" lon="4.06029">
        <ele>880</ele>
        <time>2019-02-26T01:49:17Z</time>
      </trkpt>
      <trkpt lat="45.12969" lon="4.06074">
        <ele>882</ele>
        <time>2019-02-26T01:50:17Z</time>
      </trkpt>
      <trkpt lat="45.12959" lon="4.06113">
        <ele>884</ele>
        <time>2019-02-26T01:51:17Z</time>
      </trkpt>
      <trkpt lat="45.1293" lon="4.0621">
        <ele>888</ele>
        <time>2019-02-26T01:52:17Z</time>
      </trkpt>
      <trkpt lat="45.12912" lon="4.06258">
        <ele>890</ele>
        <time>2019-02-26T01:53:17Z</time>
      </trkpt>
      <trkpt lat="45.12889" lon="4.06301">
        <ele>895</ele>
        <time>2019-02-26T01:54:17Z</time>
      </trkpt>
      <trkpt lat="45.12867" lon="4.06345">
        <ele>896</ele>
        <time>2019-02-26T01:55:17Z</time>
      </trkpt>
      <trkpt lat="45.12852" lon="4.06383">
        <ele>895</ele>
        <time>2019-02-26T01:56:17Z</time>
      </trkpt>
      <trkpt lat="45.12813" lon="4.06489">
        <ele>897</ele>
        <time>2019-02-26T01:57:17Z</time>
      </trkpt>
      <trkpt lat="45.12801" lon="4.06518">
        <ele>897</ele>
        <time>2019-02-26T01:58:17Z</time>
      </trkpt>
      <trkpt lat="45.12766" lon="4.06621">
        <ele>897</ele>
        <time>2019-02-26T01:59:17Z</time>
      </trkpt>
      <trkpt lat="45.1274" lon="4.06688">
        <ele>897</ele>
        <time>2019-02-26T02:00:17Z</time>
      </trkpt>
      <trkpt lat="45.12687" lon="4.06767">
        <ele>895</ele>
        <time>2019-02-26T02:01:17Z</time>
      </trkpt>
      <trkpt lat="45.12617" lon="4.06842">
        <ele>895</ele>
        <time>2019-02-26T02:02:17Z</time>
      </trkpt>
      <trkpt lat="45.12586" lon="4.0687">
        <ele>895</ele>
        <time>2019-02-26T02:03:17Z</time>
      </trkpt>
      <trkpt lat="45.12517" lon="4.06915">
        <ele>897</ele>
        <time>2019-02-26T02:04:17Z</time>
      </trkpt>
      <trkpt lat="45.12469" lon="4.0695">
        <ele>898</ele>
        <time>2019-02-26T02:05:17Z</time>
      </trkpt>
      <trkpt lat="45.12434" lon="4.06988">
        <ele>898</ele>
        <time>2019-02-26T02:06:17Z</time>
      </trkpt>
      <trkpt lat="45.12409" lon="4.07033">
        <ele>897</ele>
        <time>2019-02-26T02:07:17Z</time>
      </trkpt>
      <trkpt lat="45.12385" lon="4.07109">
        <ele>895</ele>
        <time>2019-02-26T02:08:17Z</time>
      </trkpt>
      <trkpt lat="45.12347" lon="4.07228">
        <ele>895</ele>
        <time>2019-02-26T02:09:17Z</time>
      </trkpt>
      <trkpt lat="45.12306" lon="4.07337">
        <ele>896</ele>
        <time>2019-02-26T02:10:17Z</time>
      </trkpt>
      <trkpt lat="45.12291" lon="4.07385">
        <ele>891</ele>
        <time>2019-02-26T02:11:17Z</time>
      </trkpt>
      <trkpt lat="45.12266" lon="4.07422">
        <ele>889</ele>
        <time>2019-02-26T02:12:17Z</time>
      </trkpt>
      <trkpt lat="45.12238" lon="4.07448">
        <ele>887</ele>
        <time>2019-02-26T02:13:17Z</time>
      </trkpt>
      <trkpt lat="45.12193" lon="4.0748">
        <ele>881</ele>
        <time>2019-02-26T02:14:17Z</time>
      </trkpt>
      <trkpt lat="45.12167" lon="4.075">
        <ele>876</ele>
        <time>2019-02-26T02:15:17Z</time>
      </trkpt>
      <trkpt lat="45.12147" lon="4.07529">
        <ele>874</ele>
        <time>2019-02-26T02:16:17Z</time>
      </trkpt>
      <trkpt lat="45.12134" lon="4.07573">
        <ele>873</ele>
        <time>2019-02-26T02:17:17Z</time>
      </trkpt>
      <trkpt lat="45.12132" lon="4.0762">
        <ele>877</ele>
        <time>2019-02-26T02:18:17Z</time>
      </trkpt>
      <trkpt lat="45.12137" lon="4.07655">
        <ele>880</ele>
        <time>2019-02-26T02:19:17Z</time>
      </trkpt>
      <trkpt lat="45.12144" lon="4.07671">
        <ele>880</ele>
        <time>2019-02-26T02:20:17Z</time>
      </trkpt>
      <trkpt lat="45.12161" lon="4.07697">
        <ele>879</ele>
        <time>2019-02-26T02:21:17Z</time>
      </trkpt>
      <trkpt lat="45.122" lon="4.07723">
        <ele>879</ele>
        <time>2019-02-26T02:22:17Z</time>
      </trkpt>
      <trkpt lat="45.1223" lon="4.07735">
        <ele>878</ele>
        <time>2019-02-26T02:23:17Z</time>
      </trkpt>
      <trkpt lat="45.12385" lon="4.07722">
        <ele>869</ele>
        <time>2019-02-26T02:24:17Z</time>
      </trkpt>
      <trkpt lat="45.12457" lon="4.07722">
        <ele>865</ele>
        <time>2019-02-26T02:25:17Z</time>
      </trkpt>
      <trkpt lat="45.125" lon="4.07754">
        <ele>865</ele>
        <time>2019-02-26T02:26:17Z</time>
      </trkpt>
      <trkpt lat="45.12536" lon="4.07785">
        <ele>863</ele>
        <time>2019-02-26T02:27:17Z</time>
      </trkpt>
      <trkpt lat="45.1257" lon="4.07813">
        <ele>861</ele>
        <time>2019-02-26T02:28:17Z</time>
      </trkpt>
      <trkpt lat="45.12588" lon="4.0782">
        <ele>859</ele>
        <time>2019-02-26T02:29:17Z</time>
      </trkpt>
      <trkpt lat="45.12608" lon="4.07824">
        <ele>859</ele>
        <time>2019-02-26T02:30:17Z</time>
      </trkpt>
      <trkpt lat="45.12686" lon="4.07818">
        <ele>856</ele>
        <time>2019-02-26T02:31:17Z</time>
      </trkpt>
      <trkpt lat="45.12772" lon="4.07809">
        <ele>854</ele>
        <time>2019-02-26T02:32:17Z</time>
      </trkpt>
      <trkpt lat="45.12787" lon="4.07809">
        <ele>854</ele>
        <time>2019-02-26T02:33:17Z</time>
      </trkpt>
      <trkpt lat="45.1283" lon="4.07825">
        <ele>855</ele>
        <time>2019-02-26T02:34:17Z</time>
      </trkpt>
      <trkpt lat="45.1286" lon="4.07848">
        <ele>854</ele>
        <time>2019-02-26T02:35:17Z</time>
      </trkpt>
      <trkpt lat="45.12928" lon="4.07894">
        <ele>849</ele>
        <time>2019-02-26T02:36:17Z</time>
      </trkpt>
      <trkpt lat="45.1298" lon="4.07916">
        <ele>845</ele>
        <time>2019-02-26T02:37:17Z</time>
      </trkpt>
      <trkpt lat="45.13025" lon="4.07936">
        <ele>843</ele>
        <time>2019-02-26T02:38:17Z</time>
      </trkpt>
      <trkpt lat="45.1307" lon="4.07976">
        <ele>843</ele>
        <time>2019-02-26T02:39:17Z</time>
      </trkpt>
      <trkpt lat="45.13082" lon="4.07993">
        <ele>843</ele>
        <time>2019-02-26T02:40:17Z</time>
      </trkpt>
      <trkpt lat="45.13142" lon="4.08055">
        <ele>842</ele>
        <time>2019-02-26T02:41:17Z</time>
      </trkpt>
      <trkpt lat="45.13158" lon="4.08069">
        <ele>842</ele>
        <time>2019-02-26T02:42:17Z</time>
      </trkpt>
      <trkpt lat="45.13211" lon="4.08096">
        <ele>839</ele>
        <time>2019-02-26T02:43:17Z</time>
      </trkpt>
      <trkpt lat="45.13236" lon="4.08115">
        <ele>839</ele>
        <time>2019-02-26T02:44:17Z</time>
      </trkpt>
      <trkpt lat="45.13258" lon="4.08147">
        <ele>839</ele>
        <time>2019-02-26T02:45:17Z</time>
      </trkpt>
      <trkpt lat="45.13268" lon="4.08191">
        <ele>838</ele>
        <time>2019-02-26T02:46:17Z</time>
      </trkpt>
      <trkpt lat="45.13275" lon="4.08232">
        <ele>836</ele>
        <time>2019-02-26T02:47:17Z</time>
      </trkpt>
      <trkpt lat="45.13275" lon="4.08266">
        <ele>836</ele>
        <time>2019-02-26T02:48:17Z</time>
      </trkpt>
      <trkpt lat="45.13262" lon="4.0833">
        <ele>839</ele>
        <time>2019-02-26T02:49:17Z</time>
      </trkpt>
      <trkpt lat="45.13239" lon="4.0842">
        <ele>837</ele>
        <time>2019-02-26T02:50:17Z</time>
      </trkpt>
      <trkpt lat="45.13224" lon="4.0846">
        <ele>835</ele>
        <time>2019-02-26T02:51:17Z</time>
      </trkpt>
      <trkpt lat="45.13184" lon="4.0852">
        <ele>836</ele>
        <time>2019-02-26T02:52:17Z</time>
      </trkpt>
      <trkpt lat="45.13132" lon="4.08572">
        <ele>832</ele>
        <time>2019-02-26T02:53:17Z</time>
      </trkpt>
      <trkpt lat="45.13094" lon="4.08589">
        <ele>835</ele>
        <time>2019-02-26T02:54:17Z</time>
      </trkpt>
      <trkpt lat="45.13021" lon="4.08622">
        <ele>832</ele>
        <time>2019-02-26T02:55:17Z</time>
      </trkpt>
      <trkpt lat="45.12999" lon="4.08651">
        <ele>827</ele>
        <time>2019-02-26T02:56:17Z</time>
      </trkpt>
      <trkpt lat="45.12987" lon="4.08687">
        <ele>823</ele>
        <time>2019-02-26T02:57:17Z</time>
      </trkpt>
      <trkpt lat="45.12982" lon="4.08719">
        <ele>822</ele>
        <time>2019-02-26T02:58:17Z</time>
      </trkpt>
      <trkpt lat="45.12983" lon="4.08755">
        <ele>822</ele>
        <time>2019-02-26T02:59:17Z</time>
      </trkpt>
      <trkpt lat="45.12995" lon="4.08789">
        <ele>827</ele>
        <time>2019-02-26T03:00:17Z</time>
      </trkpt>
      <trkpt lat="45.13014" lon="4.08827">
        <ele>831</ele>
        <time>2019-02-26T03:01:17Z</time>
      </trkpt>
      <trkpt lat="45.13054" lon="4.08874">
        <ele>825</ele>
        <time>2019-02-26T03:02:17Z</time>
      </trkpt>
      <trkpt lat="45.13076" lon="4.08919">
        <ele>824</ele>
        <time>2019-02-26T03:03:17Z</time>
      </trkpt>
      <trkpt lat="45.13087" lon="4.08971">
        <ele>823</ele>
        <time>2019-02-26T03:04:17Z</time>
      </trkpt>
      <trkpt lat="45.13089" lon="4.0902">
        <ele>824</ele>
        <time>2019-02-26T03:05:17Z</time>
      </trkpt>
      <trkpt lat="45.1308" lon="4.09077">
        <ele>827</ele>
        <time>2019-02-26T03:06:17Z</time>
      </trkpt>
      <trkpt lat="45.13062" lon="4.09131">
        <ele>829</ele>
        <time>2019-02-26T03:07:17Z</time>
      </trkpt>
      <trkpt lat="45.13036" lon="4.092">
        <ele>832</ele>
        <time>2019-02-26T03:08:17Z</time>
      </trkpt>
      <trkpt lat="45.13006" lon="4.09279">
        <ele>835</ele>
        <time>2019-02-26T03:09:17Z</time>
      </trkpt>
      <trkpt lat="45.13002" lon="4.09315">
        <ele>836</ele>
        <time>2019-02-26T03:10:17Z</time>
      </trkpt>
      <trkpt lat="45.13002" lon="4.09352">
        <ele>837</ele>
        <time>2019-02-26T03:11:17Z</time>
      </trkpt>
      <trkpt lat="45.13005" lon="4.09394">
        <ele>838</ele>
        <time>2019-02-26T03:12:17Z</time>
      </trkpt>
      <trkpt lat="45.13025" lon="4.09463">
        <ele>838</ele>
        <time>2019-02-26T03:13:17Z</time>
      </trkpt>
      <trkpt lat="45.12968" lon="4.09512">
        <ele>842</ele>
        <time>2019-02-26T03:14:17Z</time>
      </trkpt>
      <trkpt lat="45.13075" lon="4.09707">
        <ele>840</ele>
        <time>2019-02-26T03:15:17Z</time>
      </trkpt>
      <trkpt lat="45.13159" lon="4.09838">
        <ele>844</ele>
        <time>2019-02-26T03:16:17Z</time>
      </trkpt>
      <trkpt lat="45.13236" lon="4.09917">
        <ele>843</ele>
        <time>2019-02-26T03:17:17Z</time>
      </trkpt>
      <trkpt lat="45.13282" lon="4.09957">
        <ele>843</ele>
        <time>2019-02-26T03:18:17Z</time>
      </trkpt>
      <trkpt lat="45.13352" lon="4.1">
        <ele>841</ele>
        <time>2019-02-26T03:19:17Z</time>
      </trkpt>
      <trkpt lat="45.13442" lon="4.1005">
        <ele>844</ele>
        <time>2019-02-26T03:20:17Z</time>
      </trkpt>
      <trkpt lat="45.13704" lon="4.1013">
        <ele>848</ele>
        <time>2019-02-26T03:21:17Z</time>
      </trkpt>
      <trkpt lat="45.13794" lon="4.10164">
        <ele>848</ele>
        <time>2019-02-26T03:22:17Z</time>
      </trkpt>
      <trkpt lat="45.13849" lon="4.10194">
        <ele>848</ele>
        <time>2019-02-26T03:23:17Z</time>
      </trkpt>
      <trkpt lat="45.139" lon="4.10235">
        <ele>849</ele>
        <time>2019-02-26T03:24:17Z</time>
      </trkpt>
      <trkpt lat="45.13938" lon="4.10275">
        <ele>850</ele>
        <time>2019-02-26T03:25:17Z</time>
      </trkpt>
      <trkpt lat="45.13947" lon="4.10299">
        <ele>851</ele>
        <time>2019-02-26T03:26:17Z</time>
      </trkpt>
      <trkpt lat="45.1396" lon="4.10312">
        <ele>851</ele>
        <time>2019-02-26T03:27:17Z</time>
      </trkpt>
      <trkpt lat="45.13998" lon="4.10349">
        <ele>853</ele>
        <time>2019-02-26T03:28:17Z</time>
      </trkpt>
      <trkpt lat="45.14021" lon="4.1039">
        <ele>854</ele>
        <time>2019-02-26T03:29:17Z</time>
      </trkpt>
      <trkpt lat="45.14085" lon="4.10538">
        <ele>857</ele>
        <time>2019-02-26T03:30:17Z</time>
      </trkpt>
      <trkpt lat="45.14088" lon="4.10553">
        <ele>857</ele>
        <time>2019-02-26T03:31:17Z</time>
      </trkpt>
      <trkpt lat="45.14154" lon="4.10651">
        <ele>854</ele>
        <time>2019-02-26T03:32:17Z</time>
      </trkpt>
      <trkpt lat="45.14204" lon="4.10726">
        <ele>854</ele>
        <time>2019-02-26T03:33:17Z</time>
      </trkpt>
      <trkpt lat="45.14223" lon="4.10756">
        <ele>853</ele>
        <time>2019-02-26T03:34:17Z</time>
      </trkpt>
      <trkpt lat="45.14234" lon="4.10775">
        <ele>852</ele>
        <time>2019-02-26T03:35:17Z</time>
      </trkpt>
      <trkpt lat="45.14239" lon="4.10796">
        <ele>852</ele>
        <time>2019-02-26T03:36:17Z</time>
      </trkpt>
      <trkpt lat="45.14236" lon="4.10864">
        <ele>854</ele>
        <time>2019-02-26T03:37:17Z</time>
      </trkpt>
      <trkpt lat="45.14234" lon="4.11034">
        <ele>855</ele>
        <time>2019-02-26T03:38:17Z</time>
      </trkpt>
      <trkpt lat="45.1425" lon="4.11127">
        <ele>852</ele>
        <time>2019-02-26T03:39:17Z</time>
      </trkpt>
      <trkpt lat="45.14217" lon="4.11397">
        <ele>843</ele>
        <time>2019-02-26T03:40:17Z</time>
      </trkpt>
      <trkpt lat="45.14212" lon="4.11466">
        <ele>843</ele>
        <time>2019-02-26T03:41:17Z</time>
      </trkpt>
      <trkpt lat="45.14217" lon="4.11488">
        <ele>844</ele>
        <time>2019-02-26T03:42:17Z</time>
      </trkpt>
      <trkpt lat="45.14229" lon="4.11515">
        <ele>844</ele>
        <time>2019-02-26T03:43:17Z</time>
      </trkpt>
      <trkpt lat="45.1426" lon="4.11523">
        <ele>843</ele>
        <time>2019-02-26T03:44:17Z</time>
      </trkpt>
      <trkpt lat="45.14312" lon="4.1165">
        <ele>842</ele>
        <time>2019-02-26T03:45:17Z</time>
      </trkpt>
      <trkpt lat="45.1429" lon="4.11668">
        <ele>845</ele>
        <time>2019-02-26T03:46:17Z</time>
      </trkpt>
      <trkpt lat="45.14365" lon="4.11835">
        <ele>839</ele>
        <time>2019-02-26T03:47:17Z</time>
      </trkpt>
      <trkpt lat="45.14384" lon="4.11868">
        <ele>840</ele>
        <time>2019-02-26T03:48:17Z</time>
      </trkpt>
      <trkpt lat="45.14403" lon="4.11881">
        <ele>839</ele>
        <time>2019-02-26T03:49:17Z</time>
      </trkpt>
      <trkpt lat="45.14503" lon="4.12118">
        <ele>840</ele>
        <time>2019-02-26T03:50:17Z</time>
      </trkpt>
      <trkpt lat="45.14517" lon="4.12137">
        <ele>838</ele>
        <time>2019-02-26T03:51:17Z</time>
      </trkpt>
      <trkpt lat="45.14547" lon="4.12167">
        <ele>837</ele>
        <time>2019-02-26T03:52:17Z</time>
      </trkpt>
      <trkpt lat="45.14573" lon="4.12182">
        <ele>836</ele>
        <time>2019-02-26T03:53:17Z</time>
      </trkpt>
      <trkpt lat="45.14704" lon="4.12225">
        <ele>834</ele>
        <time>2019-02-26T03:54:17Z</time>
      </trkpt>
      <trkpt lat="45.14761" lon="4.12246">
        <ele>834</ele>
        <time>2019-02-26T03:55:17Z</time>
      </trkpt>
      <trkpt lat="45.14796" lon="4.12269">
        <ele>834</ele>
        <time>2019-02-26T03:56:17Z</time>
      </trkpt>
      <trkpt lat="45.14822" lon="4.12297">
        <ele>836</ele>
        <time>2019-02-26T03:57:17Z</time>
      </trkpt>
      <trkpt lat="45.14853" lon="4.12347">
        <ele>836</ele>
        <time>2019-02-26T03:58:17Z</time>
      </trkpt>
      <trkpt lat="45.1489" lon="4.12437">
        <ele>837</ele>
        <time>2019-02-26T03:59:17Z</time>
      </trkpt>
      <trkpt lat="45.14914" lon="4.12481">
        <ele>837</ele>
        <time>2019-02-26T04:00:17Z</time>
      </trkpt>
      <trkpt lat="45.14942" lon="4.12503">
        <ele>836</ele>
        <time>2019-02-26T04:01:17Z</time>
      </trkpt>
      <trkpt lat="45.15037" lon="4.12532">
        <ele>832</ele>
        <time>2019-02-26T04:02:17Z</time>
      </trkpt>
      <trkpt lat="45.15091" lon="4.12573">
        <ele>832</ele>
        <time>2019-02-26T04:03:17Z</time>
      </trkpt>
      <trkpt lat="45.15134" lon="4.12623">
        <ele>832</ele>
        <time>2019-02-26T04:04:17Z</time>
      </trkpt>
      <trkpt lat="45.15172" lon="4.12668">
        <ele>831</ele>
        <time>2019-02-26T04:05:17Z</time>
      </trkpt>
      <trkpt lat="45.15191" lon="4.12729">
        <ele>830</ele>
        <time>2019-02-26T04:06:17Z</time>
      </trkpt>
      <trkpt lat="45.15198" lon="4.12779">
        <ele>831</ele>
        <time>2019-02-26T04:07:17Z</time>
      </trkpt>
      <trkpt lat="45.15197" lon="4.12829">
        <ele>831</ele>
        <time>2019-02-26T04:08:17Z</time>
      </trkpt>
      <trkpt lat="45.15204" lon="4.12872">
        <ele>830</ele>
        <time>2019-02-26T04:09:17Z</time>
      </trkpt>
      <trkpt lat="45.15211" lon="4.12892">
        <ele>830</ele>
        <time>2019-02-26T04:10:17Z</time>
      </trkpt>
      <trkpt lat="45.15229" lon="4.12922">
        <ele>828</ele>
        <time>2019-02-26T04:11:17Z</time>
      </trkpt>
      <trkpt lat="45.15248" lon="4.1296">
        <ele>828</ele>
        <time>2019-02-26T04:12:17Z</time>
      </trkpt>
      <trkpt lat="45.15307" lon="4.13096">
        <ele>828</ele>
        <time>2019-02-26T04:13:17Z</time>
      </trkpt>
      <trkpt lat="45.15328" lon="4.13132">
        <ele>827</ele>
        <time>2019-02-26T04:14:17Z</time>
      </trkpt>
      <trkpt lat="45.15349" lon="4.1315">
        <ele>826</ele>
        <time>2019-02-26T04:15:17Z</time>
      </trkpt>
      <trkpt lat="45.15369" lon="4.13153">
        <ele>825</ele>
        <time>2019-02-26T04:16:17Z</time>
      </trkpt>
      <trkpt lat="45.15378" lon="4.13165">
        <ele>825</ele>
        <time>2019-02-26T04:17:17Z</time>
      </trkpt>
      <trkpt lat="45.15387" lon="4.13171">
        <ele>825</ele>
        <time>2019-02-26T04:18:17Z</time>
      </trkpt>
      <trkpt lat="45.15403" lon="4.13165">
        <ele>824</ele>
        <time>2019-02-26T04:19:17Z</time>
      </trkpt>
      <trkpt lat="45.15414" lon="4.1316">
        <ele>824</ele>
        <time>2019-02-26T04:20:17Z</time>
      </trkpt>
      <trkpt lat="45.15428" lon="4.13243">
        <ele>827</ele>
        <time>2019-02-26T04:21:17Z</time>
      </trkpt>
      <trkpt lat="45.15451" lon="4.13249">
        <ele>826</ele>
        <time>2019-02-26T04:22:17Z</time>
      </trkpt>
      <trkpt lat="45.15638" lon="4.13354">
        <ele>822</ele>
        <time>2019-02-26T04:23:17Z</time>
      </trkpt>
      <trkpt lat="45.15765" lon="4.13432">
        <ele>819</ele>
        <time>2019-02-26T04:24:17Z</time>
      </trkpt>
      <trkpt lat="45.1589" lon="4.13515">
        <ele>812</ele>
        <time>2019-02-26T04:25:17Z</time>
      </trkpt>
      <trkpt lat="45.15907" lon="4.13556">
        <ele>810</ele>
        <time>2019-02-26T04:26:17Z</time>
      </trkpt>
      <trkpt lat="45.15972" lon="4.13677">
        <ele>804</ele>
        <time>2019-02-26T04:27:17Z</time>
      </trkpt>
      <trkpt lat="45.1596" lon="4.13687">
        <ele>804</ele>
        <time>2019-02-26T04:28:17Z</time>
      </trkpt>
      <trkpt lat="45.15915" lon="4.13691">
        <ele>803</ele>
        <time>2019-02-26T04:29:17Z</time>
      </trkpt>
      <trkpt lat="45.15898" lon="4.13707">
        <ele>801</ele>
        <time>2019-02-26T04:30:17Z</time>
      </trkpt>
      <trkpt lat="45.15913" lon="4.13807">
        <ele>801</ele>
        <time>2019-02-26T04:31:17Z</time>
      </trkpt>
      <trkpt lat="45.1593" lon="4.13897">
        <ele>801</ele>
        <time>2019-02-26T04:32:17Z</time>
      </trkpt>
      <trkpt lat="45.16015" lon="4.13871">
        <ele>799</ele>
        <time>2019-02-26T04:33:17Z</time>
      </trkpt>
      <trkpt lat="45.16031" lon="4.13916">
        <ele>799</ele>
        <time>2019-02-26T04:34:17Z</time>
      </trkpt>
      <trkpt lat="45.16034" lon="4.13944">
        <ele>798</ele>
        <time>2019-02-26T04:35:17Z</time>
      </trkpt>
      <trkpt lat="45.16062" lon="4.14049">
        <ele>796</ele>
        <time>2019-02-26T04:36:17Z</time>
      </trkpt>
      <trkpt lat="45.16031" lon="4.14135">
        <ele>796</ele>
        <time>2019-02-26T04:37:17Z</time>
      </trkpt>
      <trkpt lat="45.16022" lon="4.1416">
        <ele>797</ele>
        <time>2019-02-26T04:38:17Z</time>
      </trkpt>
      <trkpt lat="45.16016" lon="4.14254">
        <ele>796</ele>
        <time>2019-02-26T04:39:17Z</time>
      </trkpt>
      <trkpt lat="45.16016" lon="4.14317">
        <ele>791</ele>
        <time>2019-02-26T04:40:17Z</time>
      </trkpt>
      <trkpt lat="45.15999" lon="4.14427">
        <ele>786</ele>
        <time>2019-02-26T04:41:17Z</time>
      </trkpt>
      <trkpt lat="45.16" lon="4.14464">
        <ele>785</ele>
        <time>2019-02-26T04:42:17Z</time>
      </trkpt>
      <trkpt lat="45.16026" lon="4.14547">
        <ele>784</ele>
        <time>2019-02-26T04:43:17Z</time>
      </trkpt>
      <trkpt lat="45.16071" lon="4.14635">
        <ele>785</ele>
        <time>2019-02-26T04:44:17Z</time>
      </trkpt>
      <trkpt lat="45.16093" lon="4.14723">
        <ele>781</ele>
        <time>2019-02-26T04:45:17Z</time>
      </trkpt>
      <trkpt lat="45.16111" lon="4.14802">
        <ele>778</ele>
        <time>2019-02-26T04:46:17Z</time>
      </trkpt>
      <trkpt lat="45.16116" lon="4.14868">
        <ele>775</ele>
        <time>2019-02-26T04:47:17Z</time>
      </trkpt>
      <trkpt lat="45.16111" lon="4.14907">
        <ele>773</ele>
        <time>2019-02-26T04:48:17Z</time>
      </trkpt>
      <trkpt lat="45.16096" lon="4.14955">
        <ele>773</ele>
        <time>2019-02-26T04:49:17Z</time>
      </trkpt>
      <trkpt lat="45.16018" lon="4.15115">
        <ele>766</ele>
        <time>2019-02-26T04:50:17Z</time>
      </trkpt>
      <trkpt lat="45.15995" lon="4.15168">
        <ele>765</ele>
        <time>2019-02-26T04:51:17Z</time>
      </trkpt>
      <trkpt lat="45.15963" lon="4.15285">
        <ele>763</ele>
        <time>2019-02-26T04:52:17Z</time>
      </trkpt>
      <trkpt lat="45.15956" lon="4.15391">
        <ele>763</ele>
        <time>2019-02-26T04:53:17Z</time>
      </trkpt>
      <trkpt lat="45.15956" lon="4.15551">
        <ele>762</ele>
        <time>2019-02-26T04:54:17Z</time>
      </trkpt>
      <trkpt lat="45.15968" lon="4.15648">
        <ele>761</ele>
        <time>2019-02-26T04:55:17Z</time>
      </trkpt>
      <trkpt lat="45.15995" lon="4.15705">
        <ele>761</ele>
        <time>2019-02-26T04:56:17Z</time>
      </trkpt>
      <trkpt lat="45.16055" lon="4.15736">
        <ele>758</ele>
        <time>2019-02-26T04:57:17Z</time>
      </trkpt>
      <trkpt lat="45.16078" lon="4.15739">
        <ele>757</ele>
        <time>2019-02-26T04:58:17Z</time>
      </trkpt>
      <trkpt lat="45.16159" lon="4.15754">
        <ele>755</ele>
        <time>2019-02-26T04:59:17Z</time>
      </trkpt>
      <trkpt lat="45.16187" lon="4.15771">
        <ele>752</ele>
        <time>2019-02-26T05:00:17Z</time>
      </trkpt>
      <trkpt lat="45.16248" lon="4.15787">
        <ele>751</ele>
        <time>2019-02-26T05:01:17Z</time>
      </trkpt>
      <trkpt lat="45.163" lon="4.15834">
        <ele>745</ele>
        <time>2019-02-26T05:02:17Z</time>
      </trkpt>
      <trkpt lat="45.16333" lon="4.15941">
        <ele>744</ele>
        <time>2019-02-26T05:03:17Z</time>
      </trkpt>
      <trkpt lat="45.1634" lon="4.16003">
        <ele>744</ele>
        <time>2019-02-26T05:04:17Z</time>
      </trkpt>
      <trkpt lat="45.16338" lon="4.1609">
        <ele>745</ele>
        <time>2019-02-26T05:05:17Z</time>
      </trkpt>
      <trkpt lat="45.16331" lon="4.16138">
        <ele>745</ele>
        <time>2019-02-26T05:06:17Z</time>
      </trkpt>
      <trkpt lat="45.16291" lon="4.16283">
        <ele>745</ele>
        <time>2019-02-26T05:07:17Z</time>
      </trkpt>
      <trkpt lat="45.16248" lon="4.164">
        <ele>741</ele>
        <time>2019-02-26T05:08:17Z</time>
      </trkpt>
      <trkpt lat="45.16227" lon="4.16449">
        <ele>748</ele>
        <time>2019-02-26T05:09:17Z</time>
      </trkpt>
      <trkpt lat="45.16223" lon="4.16529">
        <ele>752</ele>
        <time>2019-02-26T05:10:17Z</time>
      </trkpt>
      <trkpt lat="45.16193" lon="4.16579">
        <ele>748</ele>
        <time>2019-02-26T05:11:17Z</time>
      </trkpt>
      <trkpt lat="45.16148" lon="4.16625">
        <ele>745</ele>
        <time>2019-02-26T05:12:17Z</time>
      </trkpt>
      <trkpt lat="45.1613" lon="4.16689">
        <ele>746</ele>
        <time>2019-02-26T05:13:17Z</time>
      </trkpt>
      <trkpt lat="45.16128" lon="4.16748">
        <ele>744</ele>
        <time>2019-02-26T05:14:17Z</time>
      </trkpt>
      <trkpt lat="45.16116" lon="4.16811">
        <ele>739</ele>
        <time>2019-02-26T05:15:17Z</time>
      </trkpt>
      <trkpt lat="45.16106" lon="4.16837">
        <ele>735</ele>
        <time>2019-02-26T05:16:17Z</time>
      </trkpt>
      <trkpt lat="45.16083" lon="4.16883">
        <ele>730</ele>
        <time>2019-02-26T05:17:17Z</time>
      </trkpt>
      <trkpt lat="45.16076" lon="4.1691">
        <ele>730</ele>
        <time>2019-02-26T05:18:17Z</time>
      </trkpt>
      <trkpt lat="45.16077" lon="4.16927">
        <ele>731</ele>
        <time>2019-02-26T05:19:17Z</time>
      </trkpt>
      <trkpt lat="45.16179" lon="4.17037">
        <ele>728</ele>
        <time>2019-02-26T05:20:17Z</time>
      </trkpt>
      <trkpt lat="45.16247" lon="4.17094">
        <ele>712</ele>
        <time>2019-02-26T05:21:17Z</time>
      </trkpt>
      <trkpt lat="45.16241" lon="4.17118">
        <ele>713</ele>
        <time>2019-02-26T05:22:17Z</time>
      </trkpt>
      <trkpt lat="45.16245" lon="4.17174">
        <ele>712</ele>
        <time>2019-02-26T05:23:17Z</time>
      </trkpt>
      <trkpt lat="45.16246" lon="4.17213">
        <ele>714</ele>
        <time>2019-02-26T05:24:17Z</time>
      </trkpt>
      <trkpt lat="45.16236" lon="4.1725">
        <ele>716</ele>
        <time>2019-02-26T05:25:17Z</time>
      </trkpt>
      <trkpt lat="45.16178" lon="4.17331">
        <ele>717</ele>
        <time>2019-02-26T05:26:17Z</time>
      </trkpt>
      <trkpt lat="45.1612" lon="4.17387">
        <ele>718</ele>
        <time>2019-02-26T05:27:17Z</time>
      </trkpt>
      <trkpt lat="45.16095" lon="4.17453">
        <ele>719</ele>
        <time>2019-02-26T05:28:17Z</time>
      </trkpt>
      <trkpt lat="45.16088" lon="4.17535">
        <ele>717</ele>
        <time>2019-02-26T05:29:17Z</time>
      </trkpt>
      <trkpt lat="45.16117" lon="4.17636">
        <ele>720</ele>
        <time>2019-02-26T05:30:17Z</time>
      </trkpt>
      <trkpt lat="45.1613" lon="4.17715">
        <ele>721</ele>
        <time>2019-02-26T05:31:17Z</time>
      </trkpt>
      <trkpt lat="45.16135" lon="4.1775">
        <ele>721</ele>
        <time>2019-02-26T05:32:17Z</time>
      </trkpt>
      <trkpt lat="45.16156" lon="4.17803">
        <ele>719</ele>
        <time>2019-02-26T05:33:17Z</time>
      </trkpt>
      <trkpt lat="45.16194" lon="4.17821">
        <ele>716</ele>
        <time>2019-02-26T05:34:17Z</time>
      </trkpt>
      <trkpt lat="45.16246" lon="4.17826">
        <ele>716</ele>
        <time>2019-02-26T05:35:17Z</time>
      </trkpt>
      <trkpt lat="45.16316" lon="4.17797">
        <ele>721</ele>
        <time>2019-02-26T05:36:17Z</time>
      </trkpt>
      <trkpt lat="45.16346" lon="4.17786">
        <ele>722</ele>
        <time>2019-02-26T05:37:17Z</time>
      </trkpt>
      <trkpt lat="45.16442" lon="4.1773">
        <ele>719</ele>
        <time>2019-02-26T05:38:17Z</time>
      </trkpt>
      <trkpt lat="45.16501" lon="4.17703">
        <ele>719</ele>
        <time>2019-02-26T05:39:17Z</time>
      </trkpt>
      <trkpt lat="45.16636" lon="4.17787">
        <ele>721</ele>
        <time>2019-02-26T05:40:17Z</time>
      </trkpt>
      <trkpt lat="45.16657" lon="4.17758">
        <ele>724</ele>
        <time>2019-02-26T05:41:17Z</time>
      </trkpt>
      <trkpt lat="45.16658" lon="4.1773">
        <ele>722</ele>
        <time>2019-02-26T05:42:17Z</time>
      </trkpt>
      <trkpt lat="45.16697" lon="4.17716">
        <ele>727</ele>
        <time>2019-02-26T05:43:17Z</time>
      </trkpt>
      <trkpt lat="45.16774" lon="4.17668">
        <ele>737</ele>
        <time>2019-02-26T05:44:17Z</time>
      </trkpt>
      <trkpt lat="45.16813" lon="4.17656">
        <ele>741</ele>
        <time>2019-02-26T05:45:17Z</time>
      </trkpt>
      <trkpt lat="45.16854" lon="4.17641">
        <ele>746</ele>
        <time>2019-02-26T05:46:17Z</time>
      </trkpt>
      <trkpt lat="45.16891" lon="4.17598">
        <ele>743</ele>
        <time>2019-02-26T05:47:17Z</time>
      </trkpt>
      <trkpt lat="45.16918" lon="4.17566">
        <ele>742</ele>
        <time>2019-02-26T05:48:17Z</time>
      </trkpt>
      <trkpt lat="45.1693" lon="4.17541">
        <ele>737</ele>
        <time>2019-02-26T05:49:17Z</time>
      </trkpt>
      <trkpt lat="45.16934" lon="4.17521">
        <ele>732</ele>
        <time>2019-02-26T05:50:17Z</time>
      </trkpt>
      <trkpt lat="45.16958" lon="4.175">
        <ele>732</ele>
        <time>2019-02-26T05:51:17Z</time>
      </trkpt>
      <trkpt lat="45.17005" lon="4.17492">
        <ele>743</ele>
        <time>2019-02-26T05:52:17Z</time>
      </trkpt>
      <trkpt lat="45.17031" lon="4.175">
        <ele>751</ele>
        <time>2019-02-26T05:53:17Z</time>
      </trkpt>
      <trkpt lat="45.17055" lon="4.17482">
        <ele>749</ele>
        <time>2019-02-26T05:54:17Z</time>
      </trkpt>
      <trkpt lat="45.17085" lon="4.17442">
        <ele>742</ele>
        <time>2019-02-26T05:55:17Z</time>
      </trkpt>
      <trkpt lat="45.17103" lon="4.17428">
        <ele>741</ele>
        <time>2019-02-26T05:56:17Z</time>
      </trkpt>
      <trkpt lat="45.17155" lon="4.17417">
        <ele>750</ele>
        <time>2019-02-26T05:57:17Z</time>
      </trkpt>
      <trkpt lat="45.17217" lon="4.17381">
        <ele>752</ele>
        <time>2019-02-26T05:58:17Z</time>
      </trkpt>
      <trkpt lat="45.17267" lon="4.17331">
        <ele>746</ele>
        <time>2019-02-26T05:59:17Z</time>
      </trkpt>
      <trkpt lat="45.17302" lon="4.17276">
        <ele>744</ele>
        <time>2019-02-26T06:00:17Z</time>
      </trkpt>
      <trkpt lat="45.17328" lon="4.17227">
        <ele>746</ele>
        <time>2019-02-26T06:01:17Z</time>
      </trkpt>
      <trkpt lat="45.17337" lon="4.17217">
        <ele>746</ele>
        <time>2019-02-26T06:02:17Z</time>
      </trkpt>
      <trkpt lat="45.17357" lon="4.17215">
        <ele>745</ele>
        <time>2019-02-26T06:03:17Z</time>
      </trkpt>
      <trkpt lat="45.17367" lon="4.17228">
        <ele>747</ele>
        <time>2019-02-26T06:04:17Z</time>
      </trkpt>
      <trkpt lat="45.17382" lon="4.17266">
        <ele>753</ele>
        <time>2019-02-26T06:05:17Z</time>
      </trkpt>
      <trkpt lat="45.17412" lon="4.17285">
        <ele>756</ele>
        <time>2019-02-26T06:06:17Z</time>
      </trkpt>
      <trkpt lat="45.17426" lon="4.17289">
        <ele>758</ele>
        <time>2019-02-26T06:07:17Z</time>
      </trkpt>
      <trkpt lat="45.17505" lon="4.17268">
        <ele>760</ele>
        <time>2019-02-26T06:08:17Z</time>
      </trkpt>
      <trkpt lat="45.17546" lon="4.17256">
        <ele>762</ele>
        <time>2019-02-26T06:09:17Z</time>
      </trkpt>
      <trkpt lat="45.17592" lon="4.17234">
        <ele>760</ele>
        <time>2019-02-26T06:10:17Z</time>
      </trkpt>
      <trkpt lat="45.17618" lon="4.17234">
        <ele>759</ele>
        <time>2019-02-26T06:11:17Z</time>
      </trkpt>
      <trkpt lat="45.17682" lon="4.17309">
        <ele>778</ele>
        <time>2019-02-26T06:12:17Z</time>
      </trkpt>
      <trkpt lat="45.17731" lon="4.17364">
        <ele>781</ele>
        <time>2019-02-26T06:13:17Z</time>
      </trkpt>
      <trkpt lat="45.17741" lon="4.17367">
        <ele>780</ele>
        <time>2019-02-26T06:14:17Z</time>
      </trkpt>
      <trkpt lat="45.17778" lon="4.17331">
        <ele>775</ele>
        <time>2019-02-26T06:15:17Z</time>
      </trkpt>
      <trkpt lat="45.17829" lon="4.17277">
        <ele>773</ele>
        <time>2019-02-26T06:16:17Z</time>
      </trkpt>
      <trkpt lat="45.17859" lon="4.17259">
        <ele>774</ele>
        <time>2019-02-26T06:17:17Z</time>
      </trkpt>
      <trkpt lat="45.17919" lon="4.17275">
        <ele>780</ele>
        <time>2019-02-26T06:18:17Z</time>
      </trkpt>
      <trkpt lat="45.17936" lon="4.17285">
        <ele>781</ele>
        <time>2019-02-26T06:19:17Z</time>
      </trkpt>
      <trkpt lat="45.17982" lon="4.17313">
        <ele>785</ele>
        <time>2019-02-26T06:20:17Z</time>
      </trkpt>
      <trkpt lat="45.18038" lon="4.17367">
        <ele>788</ele>
        <time>2019-02-26T06:21:17Z</time>
      </trkpt>
      <trkpt lat="45.18063" lon="4.17394">
        <ele>790</ele>
        <time>2019-02-26T06:22:17Z</time>
      </trkpt>
      <trkpt lat="45.18096" lon="4.17447">
        <ele>791</ele>
        <time>2019-02-26T06:23:17Z</time>
      </trkpt>
      <trkpt lat="45.18111" lon="4.17475">
        <ele>792</ele>
        <time>2019-02-26T06:24:17Z</time>
      </trkpt>
      <trkpt lat="45.18115" lon="4.17484">
        <ele>792</ele>
        <time>2019-02-26T06:25:17Z</time>
      </trkpt>
      <trkpt lat="45.1811" lon="4.17499">
        <ele>793</ele>
        <time>2019-02-26T06:26:17Z</time>
      </trkpt>
      <trkpt lat="45.1811" lon="4.17525">
        <ele>792</ele>
        <time>2019-02-26T06:27:17Z</time>
      </trkpt>
      <trkpt lat="45.1813" lon="4.17578">
        <ele>791</ele>
        <time>2019-02-26T06:28:17Z</time>
      </trkpt>
      <trkpt lat="45.18133" lon="4.1761">
        <ele>790</ele>
        <time>2019-02-26T06:29:17Z</time>
      </trkpt>
      <trkpt lat="45.18139" lon="4.17631">
        <ele>790</ele>
        <time>2019-02-26T06:30:17Z</time>
      </trkpt>
      <trkpt lat="45.18149" lon="4.17647">
        <ele>789</ele>
        <time>2019-02-26T06:31:17Z</time>
      </trkpt>
      <trkpt lat="45.18157" lon="4.17659">
        <ele>788</ele>
        <time>2019-02-26T06:32:17Z</time>
      </trkpt>
      <trkpt lat="45.18159" lon="4.17721">
        <ele>787</ele>
        <time>2019-02-26T06:33:17Z</time>
      </trkpt>
      <trkpt lat="45.18149" lon="4.17742">
        <ele>788</ele>
        <time>2019-02-26T06:34:17Z</time>
      </trkpt>
      <trkpt lat="45.18134" lon="4.17795">
        <ele>788</ele>
        <time>2019-02-26T06:35:17Z</time>
      </trkpt>
      <trkpt lat="45.18112" lon="4.17852">
        <ele>788</ele>
        <time>2019-02-26T06:36:17Z</time>
      </trkpt>
      <trkpt lat="45.18086" lon="4.17904">
        <ele>790</ele>
        <time>2019-02-26T06:37:17Z</time>
      </trkpt>
      <trkpt lat="45.1806" lon="4.17956">
        <ele>790</ele>
        <time>2019-02-26T06:38:17Z</time>
      </trkpt>
      <trkpt lat="45.18046" lon="4.18002">
        <ele>788</ele>
        <time>2019-02-26T06:39:17Z</time>
      </trkpt>
      <trkpt lat="45.18038" lon="4.18036">
        <ele>788</ele>
        <time>2019-02-26T06:40:17Z</time>
      </trkpt>
      <trkpt lat="45.18037" lon="4.18068">
        <ele>788</ele>
        <time>2019-02-26T06:41:17Z</time>
      </trkpt>
      <trkpt lat="45.18041" lon="4.18099">
        <ele>789</ele>
        <time>2019-02-26T06:42:17Z</time>
      </trkpt>
      <trkpt lat="45.18057" lon="4.18142">
        <ele>791</ele>
        <time>2019-02-26T06:43:17Z</time>
      </trkpt>
      <trkpt lat="45.18076" lon="4.18176">
        <ele>793</ele>
        <time>2019-02-26T06:44:17Z</time>
      </trkpt>
      <trkpt lat="45.18101" lon="4.18196">
        <ele>794</ele>
        <time>2019-02-26T06:45:17Z</time>
      </trkpt>
      <trkpt lat="45.18122" lon="4.18209">
        <ele>794</ele>
        <time>2019-02-26T06:46:17Z</time>
      </trkpt>
      <trkpt lat="45.18168" lon="4.18211">
        <ele>793</ele>
        <time>2019-02-26T06:47:17Z</time>
      </trkpt>
      <trkpt lat="45.18233" lon="4.18196">
        <ele>793</ele>
        <time>2019-02-26T06:48:17Z</time>
      </trkpt>
      <trkpt lat="45.18263" lon="4.18194">
        <ele>793</ele>
        <time>2019-02-26T06:49:17Z</time>
      </trkpt>
      <trkpt lat="45.183" lon="4.18196">
        <ele>793</ele>
        <time>2019-02-26T06:50:17Z</time>
      </trkpt>
      <trkpt lat="45.18323" lon="4.18208">
        <ele>794</ele>
        <time>2019-02-26T06:51:17Z</time>
      </trkpt>
      <trkpt lat="45.18349" lon="4.18248">
        <ele>795</ele>
        <time>2019-02-26T06:52:17Z</time>
      </trkpt>
      <trkpt lat="45.1836" lon="4.18263">
        <ele>795</ele>
        <time>2019-02-26T06:53:17Z</time>
      </trkpt>
      <trkpt lat="45.18477" lon="4.18222">
        <ele>791</ele>
        <time>2019-02-26T06:54:17Z</time>
      </trkpt>
      <trkpt lat="45.18485" lon="4.18254">
        <ele>792</ele>
        <time>2019-02-26T06:55:17Z</time>
      </trkpt>
      <trkpt lat="45.18484" lon="4.18295">
        <ele>792</ele>
        <time>2019-02-26T06:56:17Z</time>
      </trkpt>
      <trkpt lat="45.18467" lon="4.18368">
        <ele>792</ele>
        <time>2019-02-26T06:57:17Z</time>
      </trkpt>
      <trkpt lat="45.18447" lon="4.18436">
        <ele>792</ele>
        <time>2019-02-26T06:58:17Z</time>
      </trkpt>
      <trkpt lat="45.18418" lon="4.18489">
        <ele>792</ele>
        <time>2019-02-26T06:59:17Z</time>
      </trkpt>
      <trkpt lat="45.18324" lon="4.18582">
        <ele>795</ele>
        <time>2019-02-26T07:00:17Z</time>
      </trkpt>
      <trkpt lat="45.18256" lon="4.18644">
        <ele>792</ele>
        <time>2019-02-26T07:01:17Z</time>
      </trkpt>
      <trkpt lat="45.18179" lon="4.18693">
        <ele>793</ele>
        <time>2019-02-26T07:02:17Z</time>
      </trkpt>
      <trkpt lat="45.18138" lon="4.18717">
        <ele>795</ele>
        <time>2019-02-26T07:03:17Z</time>
      </trkpt>
      <trkpt lat="45.18111" lon="4.18748">
        <ele>795</ele>
        <time>2019-02-26T07:04:17Z</time>
      </trkpt>
      <trkpt lat="45.18101" lon="4.1877">
        <ele>795</ele>
        <time>2019-02-26T07:05:17Z</time>
      </trkpt>
      <trkpt lat="45.18092" lon="4.1881">
        <ele>793</ele>
        <time>2019-02-26T07:06:17Z</time>
      </trkpt>
      <trkpt lat="45.18093" lon="4.18839">
        <ele>791</ele>
        <time>2019-02-26T07:07:17Z</time>
      </trkpt>
      <trkpt lat="45.18099" lon="4.1888">
        <ele>791</ele>
        <time>2019-02-26T07:08:17Z</time>
      </trkpt>
      <trkpt lat="45.18129" lon="4.18936">
        <ele>791</ele>
        <time>2019-02-26T07:09:17Z</time>
      </trkpt>
      <trkpt lat="45.18149" lon="4.18977">
        <ele>792</ele>
        <time>2019-02-26T07:10:17Z</time>
      </trkpt>
      <trkpt lat="45.1816" lon="4.19029">
        <ele>793</ele>
        <time>2019-02-26T07:11:17Z</time>
      </trkpt>
      <trkpt lat="45.1816" lon="4.19064">
        <ele>794</ele>
        <time>2019-02-26T07:12:17Z</time>
      </trkpt>
      <trkpt lat="45.18152" lon="4.19113">
        <ele>795</ele>
        <time>2019-02-26T07:13:17Z</time>
      </trkpt>
      <trkpt lat="45.18137" lon="4.19168">
        <ele>797</ele>
        <time>2019-02-26T07:14:17Z</time>
      </trkpt>
      <trkpt lat="45.18134" lon="4.19204">
        <ele>798</ele>
        <time>2019-02-26T07:15:17Z</time>
      </trkpt>
      <trkpt lat="45.18139" lon="4.19237">
        <ele>798</ele>
        <time>2019-02-26T07:16:17Z</time>
      </trkpt>
      <trkpt lat="45.1817" lon="4.193">
        <ele>800</ele>
        <time>2019-02-26T07:17:17Z</time>
      </trkpt>
      <trkpt lat="45.18265" lon="4.1936">
        <ele>804</ele>
        <time>2019-02-26T07:18:17Z</time>
      </trkpt>
      <trkpt lat="45.18316" lon="4.19392">
        <ele>805</ele>
        <time>2019-02-26T07:19:17Z</time>
      </trkpt>
      <trkpt lat="45.18455" lon="4.19469">
        <ele>812</ele>
        <time>2019-02-26T07:20:17Z</time>
      </trkpt>
      <trkpt lat="45.18488" lon="4.19492">
        <ele>814</ele>
        <time>2019-02-26T07:21:17Z</time>
      </trkpt>
      <trkpt lat="45.18514" lon="4.19526">
        <ele>815</ele>
        <time>2019-02-26T07:22:17Z</time>
      </trkpt>
      <trkpt lat="45.18574" lon="4.1964">
        <ele>816</ele>
        <time>2019-02-26T07:23:17Z</time>
      </trkpt>
      <trkpt lat="45.18594" lon="4.19698">
        <ele>817</ele>
        <time>2019-02-26T07:24:17Z</time>
      </trkpt>
      <trkpt lat="45.18619" lon="4.19801">
        <ele>821</ele>
        <time>2019-02-26T07:25:17Z</time>
      </trkpt>
      <trkpt lat="45.18629" lon="4.19897">
        <ele>828</ele>
        <time>2019-02-26T07:26:17Z</time>
      </trkpt>
      <trkpt lat="45.1863" lon="4.20018">
        <ele>831</ele>
        <time>2019-02-26T07:27:17Z</time>
      </trkpt>
      <trkpt lat="45.18625" lon="4.20053">
        <ele>832</ele>
        <time>2019-02-26T07:28:17Z</time>
      </trkpt>
      <trkpt lat="45.1858" lon="4.20558">
        <ele>829</ele>
        <time>2019-02-26T07:29:17Z</time>
      </trkpt>
      <trkpt lat="45.18579" lon="4.20596">
        <ele>830</ele>
        <time>2019-02-26T07:30:17Z</time>
      </trkpt>
      <trkpt lat="45.18587" lon="4.2064">
        <ele>831</ele>
        <time>2019-02-26T07:31:17Z</time>
      </trkpt>
      <trkpt lat="45.18605" lon="4.2068">
        <ele>832</ele>
        <time>2019-02-26T07:32:17Z</time>
      </trkpt>
      <trkpt lat="45.18687" lon="4.2077">
        <ele>832</ele>
        <time>2019-02-26T07:33:17Z</time>
      </trkpt>
      <trkpt lat="45.18705" lon="4.20803">
        <ele>834</ele>
        <time>2019-02-26T07:34:17Z</time>
      </trkpt>
      <trkpt lat="45.18718" lon="4.20852">
        <ele>836</ele>
        <time>2019-02-26T07:35:17Z</time>
      </trkpt>
      <trkpt lat="45.1873" lon="4.20926">
        <ele>836</ele>
        <time>2019-02-26T07:36:17Z</time>
      </trkpt>
      <trkpt lat="45.1873" lon="4.20976">
        <ele>835</ele>
        <time>2019-02-26T07:37:17Z</time>
      </trkpt>
      <trkpt lat="45.18721" lon="4.21016">
        <ele>835</ele>
        <time>2019-02-26T07:38:17Z</time>
      </trkpt>
      <trkpt lat="45.18704" lon="4.21046">
        <ele>836</ele>
        <time>2019-02-26T07:39:17Z</time>
      </trkpt>
      <trkpt lat="45.18642" lon="4.21098">
        <ele>839</ele>
        <time>2019-02-26T07:40:17Z</time>
      </trkpt>
      <trkpt lat="45.18507" lon="4.2121">
        <ele>847</ele>
        <time>2019-02-26T07:41:17Z</time>
      </trkpt>
      <trkpt lat="45.18466" lon="4.21262">
        <ele>848</ele>
        <time>2019-02-26T07:42:17Z</time>
      </trkpt>
      <trkpt lat="45.18426" lon="4.21338">
        <ele>851</ele>
        <time>2019-02-26T07:43:17Z</time>
      </trkpt>
      <trkpt lat="45.18393" lon="4.21388">
        <ele>853</ele>
        <time>2019-02-26T07:44:17Z</time>
      </trkpt>
      <trkpt lat="45.18357" lon="4.21481">
        <ele>853</ele>
        <time>2019-02-26T07:45:17Z</time>
      </trkpt>
      <trkpt lat="45.18337" lon="4.21552">
        <ele>851</ele>
        <time>2019-02-26T07:46:17Z</time>
      </trkpt>
      <trkpt lat="45.18308" lon="4.21648">
        <ele>849</ele>
        <time>2019-02-26T07:47:17Z</time>
      </trkpt>
      <trkpt lat="45.18263" lon="4.21729">
        <ele>847</ele>
        <time>2019-02-26T07:48:17Z</time>
      </trkpt>
      <trkpt lat="45.18247" lon="4.21752">
        <ele>847</ele>
        <time>2019-02-26T07:49:17Z</time>
      </trkpt>
      <trkpt lat="45.18216" lon="4.21769">
        <ele>846</ele>
        <time>2019-02-26T07:50:17Z</time>
      </trkpt>
      <trkpt lat="45.18182" lon="4.21805">
        <ele>845</ele>
        <time>2019-02-26T07:51:17Z</time>
      </trkpt>
      <trkpt lat="45.18142" lon="4.21894">
        <ele>845</ele>
        <time>2019-02-26T07:52:17Z</time>
      </trkpt>
      <trkpt lat="45.18114" lon="4.21981">
        <ele>844</ele>
        <time>2019-02-26T07:53:17Z</time>
      </trkpt>
      <trkpt lat="45.18117" lon="4.21991">
        <ele>843</ele>
        <time>2019-02-26T07:54:17Z</time>
      </trkpt>
      <trkpt lat="45.18088" lon="4.22043">
        <ele>844</ele>
        <time>2019-02-26T07:55:17Z</time>
      </trkpt>
      <trkpt lat="45.18001" lon="4.22169">
        <ele>843</ele>
        <time>2019-02-26T07:56:17Z</time>
      </trkpt>
      <trkpt lat="45.17807" lon="4.22442">
        <ele>838</ele>
        <time>2019-02-26T07:57:17Z</time>
      </trkpt>
      <trkpt lat="45.17717" lon="4.22578">
        <ele>835</ele>
        <time>2019-02-26T07:58:17Z</time>
      </trkpt>
      <trkpt lat="45.17688" lon="4.22642">
        <ele>835</ele>
        <time>2019-02-26T07:59:17Z</time>
      </trkpt>
      <trkpt lat="45.17659" lon="4.22726">
        <ele>837</ele>
        <time>2019-02-26T08:00:17Z</time>
      </trkpt>
      <trkpt lat="45.17641" lon="4.2281">
        <ele>838</ele>
        <time>2019-02-26T08:01:17Z</time>
      </trkpt>
      <trkpt lat="45.17631" lon="4.2291">
        <ele>838</ele>
        <time>2019-02-26T08:02:17Z</time>
      </trkpt>
      <trkpt lat="45.17621" lon="4.23098">
        <ele>843</ele>
        <time>2019-02-26T08:03:17Z</time>
      </trkpt>
      <trkpt lat="45.17616" lon="4.23192">
        <ele>843</ele>
        <time>2019-02-26T08:04:17Z</time>
      </trkpt>
      <trkpt lat="45.17607" lon="4.23263">
        <ele>843</ele>
        <time>2019-02-26T08:05:17Z</time>
      </trkpt>
      <trkpt lat="45.17582" lon="4.2335">
        <ele>848</ele>
        <time>2019-02-26T08:06:17Z</time>
      </trkpt>
      <trkpt lat="45.17499" lon="4.23521">
        <ele>856</ele>
        <time>2019-02-26T08:07:17Z</time>
      </trkpt>
      <trkpt lat="45.17469" lon="4.23593">
        <ele>856</ele>
        <time>2019-02-26T08:08:17Z</time>
      </trkpt>
      <trkpt lat="45.17453" lon="4.23649">
        <ele>857</ele>
        <time>2019-02-26T08:09:17Z</time>
      </trkpt>
      <trkpt lat="45.17442" lon="4.23712">
        <ele>858</ele>
        <time>2019-02-26T08:10:17Z</time>
      </trkpt>
      <trkpt lat="45.17432" lon="4.23756">
        <ele>859</ele>
        <time>2019-02-26T08:11:17Z</time>
      </trkpt>
      <trkpt lat="45.17414" lon="4.23799">
        <ele>860</ele>
        <time>2019-02-26T08:12:17Z</time>
      </trkpt>
      <trkpt lat="45.17388" lon="4.23829">
        <ele>861</ele>
        <time>2019-02-26T08:13:17Z</time>
      </trkpt>
      <trkpt lat="45.17342" lon="4.23865">
        <ele>863</ele>
        <time>2019-02-26T08:14:17Z</time>
      </trkpt>
      <trkpt lat="45.17286" lon="4.23892">
        <ele>866</ele>
        <time>2019-02-26T08:15:17Z</time>
      </trkpt>
      <trkpt lat="45.17246" lon="4.23915">
        <ele>868</ele>
        <time>2019-02-26T08:16:17Z</time>
      </trkpt>
      <trkpt lat="45.17218" lon="4.23947">
        <ele>867</ele>
        <time>2019-02-26T08:17:17Z</time>
      </trkpt>
      <trkpt lat="45.17181" lon="4.24014">
        <ele>866</ele>
        <time>2019-02-26T08:18:17Z</time>
      </trkpt>
      <trkpt lat="45.17155" lon="4.24121">
        <ele>868</ele>
        <time>2019-02-26T08:19:17Z</time>
      </trkpt>
      <trkpt lat="45.17125" lon="4.24268">
        <ele>871</ele>
        <time>2019-02-26T08:20:17Z</time>
      </trkpt>
      <trkpt lat="45.17092" lon="4.24438">
        <ele>876</ele>
        <time>2019-02-26T08:21:17Z</time>
      </trkpt>
      <trkpt lat="45.17071" lon="4.24564">
        <ele>880</ele>
        <time>2019-02-26T08:22:17Z</time>
      </trkpt>
      <trkpt lat="45.17062" lon="4.24696">
        <ele>880</ele>
        <time>2019-02-26T08:23:17Z</time>
      </trkpt>
      <trkpt lat="45.17051" lon="4.24835">
        <ele>879</ele>
        <time>2019-02-26T08:24:17Z</time>
      </trkpt>
      <trkpt lat="45.17037" lon="4.24976">
        <ele>879</ele>
        <time>2019-02-26T08:25:17Z</time>
      </trkpt>
      <trkpt lat="45.17035" lon="4.25003">
        <ele>879</ele>
        <time>2019-02-26T08:26:17Z</time>
      </trkpt>
      <trkpt lat="45.17001" lon="4.25122">
        <ele>880</ele>
        <time>2019-02-26T08:27:17Z</time>
      </trkpt>
      <trkpt lat="45.16983" lon="4.25205">
        <ele>880</ele>
        <time>2019-02-26T08:28:17Z</time>
      </trkpt>
      <trkpt lat="45.16974" lon="4.25282">
        <ele>881</ele>
        <time>2019-02-26T08:29:17Z</time>
      </trkpt>
      <trkpt lat="45.16971" lon="4.2535">
        <ele>882</ele>
        <time>2019-02-26T08:30:17Z</time>
      </trkpt>
      <trkpt lat="45.16973" lon="4.25399">
        <ele>881</ele>
        <time>2019-02-26T08:31:17Z</time>
      </trkpt>
      <trkpt lat="45.16984" lon="4.25458">
        <ele>880</ele>
        <time>2019-02-26T08:32:17Z</time>
      </trkpt>
      <trkpt lat="45.17005" lon="4.255">
        <ele>880</ele>
        <time>2019-02-26T08:33:17Z</time>
      </trkpt>
      <trkpt lat="45.17058" lon="4.25564">
        <ele>879</ele>
        <time>2019-02-26T08:34:17Z</time>
      </trkpt>
      <trkpt lat="45.17082" lon="4.25611">
        <ele>878</ele>
        <time>2019-02-26T08:35:17Z</time>
      </trkpt>
      <trkpt lat="45.17096" lon="4.25673">
        <ele>878</ele>
        <time>2019-02-26T08:36:17Z</time>
      </trkpt>
      <trkpt lat="45.17095" lon="4.25727">
        <ele>877</ele>
        <time>2019-02-26T08:37:17Z</time>
      </trkpt>
      <trkpt lat="45.17086" lon="4.25771">
        <ele>876</ele>
        <time>2019-02-26T08:38:17Z</time>
      </trkpt>
      <trkpt lat="45.1707" lon="4.25814">
        <ele>877</ele>
        <time>2019-02-26T08:39:17Z</time>
      </trkpt>
      <trkpt lat="45.17045" lon="4.25849">
        <ele>878</ele>
        <time>2019-02-26T08:40:17Z</time>
      </trkpt>
      <trkpt lat="45.16997" lon="4.25888">
        <ele>880</ele>
        <time>2019-02-26T08:41:17Z</time>
      </trkpt>
      <trkpt lat="45.16912" lon="4.2595">
        <ele>884</ele>
        <time>2019-02-26T08:42:17Z</time>
      </trkpt>
      <trkpt lat="45.16879" lon="4.25985">
        <ele>885</ele>
        <time>2019-02-26T08:43:17Z</time>
      </trkpt>
      <trkpt lat="45.16867" lon="4.25988">
        <ele>885</ele>
        <time>2019-02-26T08:44:17Z</time>
      </trkpt>
      <trkpt lat="45.16862" lon="4.26014">
        <ele>886</ele>
        <time>2019-02-26T08:45:17Z</time>
      </trkpt>
      <trkpt lat="45.16845" lon="4.26047">
        <ele>886</ele>
        <time>2019-02-26T08:46:17Z</time>
      </trkpt>
      <trkpt lat="45.16828" lon="4.2612">
        <ele>888</ele>
        <time>2019-02-26T08:47:17Z</time>
      </trkpt>
      <trkpt lat="45.16817" lon="4.26239">
        <ele>890</ele>
        <time>2019-02-26T08:48:17Z</time>
      </trkpt>
      <trkpt lat="45.16812" lon="4.26292">
        <ele>891</ele>
        <time>2019-02-26T08:49:17Z</time>
      </trkpt>
      <trkpt lat="45.1681" lon="4.26339">
        <ele>891</ele>
        <time>2019-02-26T08:50:17Z</time>
      </trkpt>
      <trkpt lat="45.16807" lon="4.26419">
        <ele>891</ele>
        <time>2019-02-26T08:51:17Z</time>
      </trkpt>
      <trkpt lat="45.16825" lon="4.26541">
        <ele>890</ele>
        <time>2019-02-26T08:52:17Z</time>
      </trkpt>
      <trkpt lat="45.16841" lon="4.26621">
        <ele>892</ele>
        <time>2019-02-26T08:53:17Z</time>
      </trkpt>
      <trkpt lat="45.16852" lon="4.26687">
        <ele>895</ele>
        <time>2019-02-26T08:54:17Z</time>
      </trkpt>
      <trkpt lat="45.16852" lon="4.26748">
        <ele>899</ele>
        <time>2019-02-26T08:55:17Z</time>
      </trkpt>
      <trkpt lat="45.16847" lon="4.26821">
        <ele>904</ele>
        <time>2019-02-26T08:56:17Z</time>
      </trkpt>
      <trkpt lat="45.16829" lon="4.26898">
        <ele>905</ele>
        <time>2019-02-26T08:57:17Z</time>
      </trkpt>
      <trkpt lat="45.16821" lon="4.26963">
        <ele>905</ele>
        <time>2019-02-26T08:58:17Z</time>
      </trkpt>
      <trkpt lat="45.16821" lon="4.27008">
        <ele>905</ele>
        <time>2019-02-26T08:59:17Z</time>
      </trkpt>
      <trkpt lat="45.1683" lon="4.27078">
        <ele>903</ele>
        <time>2019-02-26T09:00:17Z</time>
      </trkpt>
      <trkpt lat="45.16867" lon="4.27164">
        <ele>898</ele>
        <time>2019-02-26T09:01:17Z</time>
      </trkpt>
      <trkpt lat="45.16921" lon="4.27299">
        <ele>896</ele>
        <time>2019-02-26T09:02:17Z</time>
      </trkpt>
      <trkpt lat="45.16938" lon="4.27412">
        <ele>894</ele>
        <time>2019-02-26T09:03:17Z</time>
      </trkpt>
      <trkpt lat="45.16928" lon="4.27535">
        <ele>895</ele>
        <time>2019-02-26T09:04:17Z</time>
      </trkpt>
      <trkpt lat="45.16891" lon="4.27666">
        <ele>901</ele>
        <time>2019-02-26T09:05:17Z</time>
      </trkpt>
      <trkpt lat="45.16883" lon="4.27724">
        <ele>901</ele>
        <time>2019-02-26T09:06:17Z</time>
      </trkpt>
      <trkpt lat="45.16905" lon="4.27807">
        <ele>897</ele>
        <time>2019-02-26T09:07:17Z</time>
      </trkpt>
      <trkpt lat="45.16972" lon="4.27871">
        <ele>896</ele>
        <time>2019-02-26T09:08:17Z</time>
      </trkpt>
      <trkpt lat="45.1704" lon="4.27937">
        <ele>893</ele>
        <time>2019-02-26T09:09:17Z</time>
      </trkpt>
      <trkpt lat="45.17075" lon="4.28051">
        <ele>891</ele>
        <time>2019-02-26T09:10:17Z</time>
      </trkpt>
      <trkpt lat="45.17077" lon="4.28112">
        <ele>889</ele>
        <time>2019-02-26T09:11:17Z</time>
      </trkpt>
      <trkpt lat="45.17058" lon="4.28219">
        <ele>885</ele>
        <time>2019-02-26T09:12:17Z</time>
      </trkpt>
      <trkpt lat="45.17004" lon="4.28307">
        <ele>883</ele>
        <time>2019-02-26T09:13:17Z</time>
      </trkpt>
      <trkpt lat="45.16947" lon="4.28376">
        <ele>879</ele>
        <time>2019-02-26T09:14:17Z</time>
      </trkpt>
      <trkpt lat="45.16905" lon="4.28494">
        <ele>877</ele>
        <time>2019-02-26T09:15:17Z</time>
      </trkpt>
      <trkpt lat="45.16888" lon="4.28604">
        <ele>877</ele>
        <time>2019-02-26T09:16:17Z</time>
      </trkpt>
      <trkpt lat="45.16868" lon="4.28682">
        <ele>874</ele>
        <time>2019-02-26T09:17:17Z</time>
      </trkpt>
      <trkpt lat="45.16842" lon="4.28718">
        <ele>874</ele>
        <time>2019-02-26T09:18:17Z</time>
      </trkpt>
      <trkpt lat="45.16784" lon="4.28753">
        <ele>872</ele>
        <time>2019-02-26T09:19:17Z</time>
      </trkpt>
      <trkpt lat="45.16729" lon="4.28781">
        <ele>871</ele>
        <time>2019-02-26T09:20:17Z</time>
      </trkpt>
      <trkpt lat="45.16673" lon="4.28868">
        <ele>868</ele>
        <time>2019-02-26T09:21:17Z</time>
      </trkpt>
      <trkpt lat="45.16643" lon="4.2892">
        <ele>867</ele>
        <time>2019-02-26T09:22:17Z</time>
      </trkpt>
      <trkpt lat="45.16611" lon="4.28993">
        <ele>865</ele>
        <time>2019-02-26T09:23:17Z</time>
      </trkpt>
      <trkpt lat="45.16609" lon="4.29059">
        <ele>865</ele>
        <time>2019-02-26T09:24:17Z</time>
      </trkpt>
      <trkpt lat="45.16608" lon="4.29122">
        <ele>864</ele>
        <time>2019-02-26T09:25:17Z</time>
      </trkpt>
      <trkpt lat="45.16649" lon="4.29187">
        <ele>864</ele>
        <time>2019-02-26T09:26:17Z</time>
      </trkpt>
      <trkpt lat="45.16793" lon="4.2938">
        <ele>864</ele>
        <time>2019-02-26T09:27:17Z</time>
      </trkpt>
      <trkpt lat="45.16997" lon="4.29753">
        <ele>866</ele>
        <time>2019-02-26T09:28:17Z</time>
      </trkpt>
      <trkpt lat="45.17031" lon="4.29794">
        <ele>866</ele>
        <time>2019-02-26T09:29:17Z</time>
      </trkpt>
      <trkpt lat="45.17062" lon="4.29802">
        <ele>867</ele>
        <time>2019-02-26T09:30:17Z</time>
      </trkpt>
      <trkpt lat="45.17093" lon="4.298">
        <ele>868</ele>
        <time>2019-02-26T09:31:17Z</time>
      </trkpt>
      <trkpt lat="45.17246" lon="4.29742">
        <ele>871</ele>
        <time>2019-02-26T09:32:17Z</time>
      </trkpt>
      <trkpt lat="45.17358" lon="4.29702">
        <ele>870</ele>
        <time>2019-02-26T09:33:17Z</time>
      </trkpt>
      <trkpt lat="45.17403" lon="4.29698">
        <ele>869</ele>
        <time>2019-02-26T09:34:17Z</time>
      </trkpt>
      <trkpt lat="45.1745" lon="4.29715">
        <ele>869</ele>
        <time>2019-02-26T09:35:17Z</time>
      </trkpt>
      <trkpt lat="45.17504" lon="4.2976">
        <ele>870</ele>
        <time>2019-02-26T09:36:17Z</time>
      </trkpt>
      <trkpt lat="45.1769" lon="4.29921">
        <ele>878</ele>
        <time>2019-02-26T09:37:17Z</time>
      </trkpt>
      <trkpt lat="45.17788" lon="4.30004">
        <ele>884</ele>
        <time>2019-02-26T09:38:17Z</time>
      </trkpt>
      <trkpt lat="45.17839" lon="4.30039">
        <ele>887</ele>
        <time>2019-02-26T09:39:17Z</time>
      </trkpt>
      <trkpt lat="45.17861" lon="4.3004">
        <ele>887</ele>
        <time>2019-02-26T09:40:17Z</time>
      </trkpt>
      <trkpt lat="45.17897" lon="4.3004">
        <ele>887</ele>
        <time>2019-02-26T09:41:17Z</time>
      </trkpt>
      <trkpt lat="45.17929" lon="4.30039">
        <ele>888</ele>
        <time>2019-02-26T09:42:17Z</time>
      </trkpt>
      <trkpt lat="45.1797" lon="4.30061">
        <ele>889</ele>
        <time>2019-02-26T09:43:17Z</time>
      </trkpt>
      <trkpt lat="45.17993" lon="4.30091">
        <ele>889</ele>
        <time>2019-02-26T09:44:17Z</time>
      </trkpt>
      <trkpt lat="45.18021" lon="4.30157">
        <ele>891</ele>
        <time>2019-02-26T09:45:17Z</time>
      </trkpt>
      <trkpt lat="45.1804" lon="4.3018">
        <ele>892</ele>
        <time>2019-02-26T09:46:17Z</time>
      </trkpt>
      <trkpt lat="45.18115" lon="4.30207">
        <ele>895</ele>
        <time>2019-02-26T09:47:17Z</time>
      </trkpt>
      <trkpt lat="45.18159" lon="4.30249">
        <ele>896</ele>
        <time>2019-02-26T09:48:17Z</time>
      </trkpt>
      <trkpt lat="45.18173" lon="4.30314">
        <ele>897</ele>
        <time>2019-02-26T09:49:17Z</time>
      </trkpt>
      <trkpt lat="45.18162" lon="4.30376">
        <ele>899</ele>
        <time>2019-02-26T09:50:17Z</time>
      </trkpt>
      <trkpt lat="45.18144" lon="4.3044">
        <ele>900</ele>
        <time>2019-02-26T09:51:17Z</time>
      </trkpt>
      <trkpt lat="45.18132" lon="4.30513">
        <ele>899</ele>
        <time>2019-02-26T09:52:17Z</time>
      </trkpt>
      <trkpt lat="45.18145" lon="4.30583">
        <ele>901</ele>
        <time>2019-02-26T09:53:17Z</time>
      </trkpt>
      <trkpt lat="45.18171" lon="4.30623">
        <ele>905</ele>
        <time>2019-02-26T09:54:17Z</time>
      </trkpt>
      <trkpt lat="45.18202" lon="4.30647">
        <ele>906</ele>
        <time>2019-02-26T09:55:17Z</time>
      </trkpt>
      <trkpt lat="45.18343" lon="4.30698">
        <ele>911</ele>
        <time>2019-02-26T09:56:17Z</time>
      </trkpt>
      <trkpt lat="45.18402" lon="4.30735">
        <ele>912</ele>
        <time>2019-02-26T09:57:17Z</time>
      </trkpt>
      <trkpt lat="45.18449" lon="4.308">
        <ele>912</ele>
        <time>2019-02-26T09:58:17Z</time>
      </trkpt>
      <trkpt lat="45.18494" lon="4.30884">
        <ele>913</ele>
        <time>2019-02-26T09:59:17Z</time>
      </trkpt>
      <trkpt lat="45.18521" lon="4.30907">
        <ele>913</ele>
        <time>2019-02-26T10:00:17Z</time>
      </trkpt>
      <trkpt lat="45.18601" lon="4.3095">
        <ele>911</ele>
        <time>2019-02-26T10:01:17Z</time>
      </trkpt>
      <trkpt lat="45.18655" lon="4.3099">
        <ele>912</ele>
        <time>2019-02-26T10:02:17Z</time>
      </trkpt>
      <trkpt lat="45.18696" lon="4.31074">
        <ele>912</ele>
        <time>2019-02-26T10:03:17Z</time>
      </trkpt>
      <trkpt lat="45.18728" lon="4.31153">
        <ele>911</ele>
        <time>2019-02-26T10:04:17Z</time>
      </trkpt>
      <trkpt lat="45.18736" lon="4.31252">
        <ele>909</ele>
        <time>2019-02-26T10:05:17Z</time>
      </trkpt>
      <trkpt lat="45.18738" lon="4.31353">
        <ele>910</ele>
        <time>2019-02-26T10:06:17Z</time>
      </trkpt>
      <trkpt lat="45.18732" lon="4.31422">
        <ele>912</ele>
        <time>2019-02-26T10:07:17Z</time>
      </trkpt>
      <trkpt lat="45.18716" lon="4.31616">
        <ele>915</ele>
        <time>2019-02-26T10:08:17Z</time>
      </trkpt>
      <trkpt lat="45.18712" lon="4.31718">
        <ele>920</ele>
        <time>2019-02-26T10:09:17Z</time>
      </trkpt>
      <trkpt lat="45.18723" lon="4.31819">
        <ele>921</ele>
        <time>2019-02-26T10:10:17Z</time>
      </trkpt>
      <trkpt lat="45.18746" lon="4.31889">
        <ele>921</ele>
        <time>2019-02-26T10:11:17Z</time>
      </trkpt>
      <trkpt lat="45.18809" lon="4.3202">
        <ele>922</ele>
        <time>2019-02-26T10:12:17Z</time>
      </trkpt>
      <trkpt lat="45.18934" lon="4.3227">
        <ele>917</ele>
        <time>2019-02-26T10:13:17Z</time>
      </trkpt>
      <trkpt lat="45.18963" lon="4.32327">
        <ele>914</ele>
        <time>2019-02-26T10:14:17Z</time>
      </trkpt>
      <trkpt lat="45.18997" lon="4.32364">
        <ele>913</ele>
        <time>2019-02-26T10:15:17Z</time>
      </trkpt>
      <trkpt lat="45.19034" lon="4.32389">
        <ele>913</ele>
        <time>2019-02-26T10:16:17Z</time>
      </trkpt>
      <trkpt lat="45.19073" lon="4.3239">
        <ele>911</ele>
        <time>2019-02-26T10:17:17Z</time>
      </trkpt>
      <trkpt lat="45.19144" lon="4.3237">
        <ele>910</ele>
        <time>2019-02-26T10:18:17Z</time>
      </trkpt>
      <trkpt lat="45.19205" lon="4.3236">
        <ele>909</ele>
        <time>2019-02-26T10:19:17Z</time>
      </trkpt>
      <trkpt lat="45.1924" lon="4.32326">
        <ele>906</ele>
        <time>2019-02-26T10:20:17Z</time>
      </trkpt>
      <trkpt lat="45.19262" lon="4.32283">
        <ele>907</ele>
        <time>2019-02-26T10:21:17Z</time>
      </trkpt>
      <trkpt lat="45.19301" lon="4.32106">
        <ele>903</ele>
        <time>2019-02-26T10:22:17Z</time>
      </trkpt>
      <trkpt lat="45.19314" lon="4.32072">
        <ele>902</ele>
        <time>2019-02-26T10:23:17Z</time>
      </trkpt>
      <trkpt lat="45.19358" lon="4.32014">
        <ele>900</ele>
        <time>2019-02-26T10:24:17Z</time>
      </trkpt>
      <trkpt lat="45.19403" lon="4.31965">
        <ele>898</ele>
        <time>2019-02-26T10:25:17Z</time>
      </trkpt>
      <trkpt lat="45.19463" lon="4.31932">
        <ele>896</ele>
        <time>2019-02-26T10:26:17Z</time>
      </trkpt>
      <trkpt lat="45.19504" lon="4.3187">
        <ele>890</ele>
        <time>2019-02-26T10:27:17Z</time>
      </trkpt>
      <trkpt lat="45.19546" lon="4.31811">
        <ele>887</ele>
        <time>2019-02-26T10:28:17Z</time>
      </trkpt>
      <trkpt lat="45.19599" lon="4.31767">
        <ele>886</ele>
        <time>2019-02-26T10:29:17Z</time>
      </trkpt>
      <trkpt lat="45.19677" lon="4.31722">
        <ele>882</ele>
        <time>2019-02-26T10:30:17Z</time>
      </trkpt>
      <trkpt lat="45.19709" lon="4.31717">
        <ele>881</ele>
        <time>2019-02-26T10:31:17Z</time>
      </trkpt>
      <trkpt lat="45.19753" lon="4.31735">
        <ele>884</ele>
        <time>2019-02-26T10:32:17Z</time>
      </trkpt>
      <trkpt lat="45.19797" lon="4.31778">
        <ele>887</ele>
        <time>2019-02-26T10:33:17Z</time>
      </trkpt>
      <trkpt lat="45.19829" lon="4.31786">
        <ele>887</ele>
        <time>2019-02-26T10:34:17Z</time>
      </trkpt>
      <trkpt lat="45.19991" lon="4.3178">
        <ele>887</ele>
        <time>2019-02-26T10:35:17Z</time>
      </trkpt>
      <trkpt lat="45.20052" lon="4.31747">
        <ele>882</ele>
        <time>2019-02-26T10:36:17Z</time>
      </trkpt>
      <trkpt lat="45.20098" lon="4.31724">
        <ele>880</ele>
        <time>2019-02-26T10:37:17Z</time>
      </trkpt>
      <trkpt lat="45.20156" lon="4.31724">
        <ele>881</ele>
        <time>2019-02-26T10:38:17Z</time>
      </trkpt>
      <trkpt lat="45.20234" lon="4.31746">
        <ele>878</ele>
        <time>2019-02-26T10:39:17Z</time>
      </trkpt>
      <trkpt lat="45.20267" lon="4.31734">
        <ele>876</ele>
        <time>2019-02-26T10:40:17Z</time>
      </trkpt>
      <trkpt lat="45.20346" lon="4.31692">
        <ele>869</ele>
        <time>2019-02-26T10:41:17Z</time>
      </trkpt>
      <trkpt lat="45.20416" lon="4.31677">
        <ele>866</ele>
        <time>2019-02-26T10:42:17Z</time>
      </trkpt>
      <trkpt lat="45.205" lon="4.31667">
        <ele>858</ele>
        <time>2019-02-26T10:43:17Z</time>
      </trkpt>
      <trkpt lat="45.20516" lon="4.31668">
        <ele>857</ele>
        <time>2019-02-26T10:44:17Z</time>
      </trkpt>
      <trkpt lat="45.20561" lon="4.31684">
        <ele>854</ele>
        <time>2019-02-26T10:45:17Z</time>
      </trkpt>
      <trkpt lat="45.20586" lon="4.31723">
        <ele>856</ele>
        <time>2019-02-26T10:46:17Z</time>
      </trkpt>
      <trkpt lat="45.20615" lon="4.31772">
        <ele>856</ele>
        <time>2019-02-26T10:47:17Z</time>
      </trkpt>
      <trkpt lat="45.20646" lon="4.31795">
        <ele>854</ele>
        <time>2019-02-26T10:48:17Z</time>
      </trkpt>
      <trkpt lat="45.20703" lon="4.31828">
        <ele>853</ele>
        <time>2019-02-26T10:49:17Z</time>
      </trkpt>
      <trkpt lat="45.20729" lon="4.31866">
        <ele>852</ele>
        <time>2019-02-26T10:50:17Z</time>
      </trkpt>
      <trkpt lat="45.20741" lon="4.31925">
        <ele>851</ele>
        <time>2019-02-26T10:51:17Z</time>
      </trkpt>
      <trkpt lat="45.20756" lon="4.31982">
        <ele>849</ele>
        <time>2019-02-26T10:52:17Z</time>
      </trkpt>
      <trkpt lat="45.2077" lon="4.32014">
        <ele>849</ele>
        <time>2019-02-26T10:53:17Z</time>
      </trkpt>
      <trkpt lat="45.20796" lon="4.32039">
        <ele>851</ele>
        <time>2019-02-26T10:54:17Z</time>
      </trkpt>
      <trkpt lat="45.20856" lon="4.32049">
        <ele>850</ele>
        <time>2019-02-26T10:55:17Z</time>
      </trkpt>
      <trkpt lat="45.20885" lon="4.3206">
        <ele>849</ele>
        <time>2019-02-26T10:56:17Z</time>
      </trkpt>
      <trkpt lat="45.20924" lon="4.32088">
        <ele>852</ele>
        <time>2019-02-26T10:57:17Z</time>
      </trkpt>
      <trkpt lat="45.20942" lon="4.32098">
        <ele>853</ele>
        <time>2019-02-26T10:58:17Z</time>
      </trkpt>
      <trkpt lat="45.20975" lon="4.32102">
        <ele>851</ele>
        <time>2019-02-26T10:59:17Z</time>
      </trkpt>
      <trkpt lat="45.21009" lon="4.32088">
        <ele>846</ele>
        <time>2019-02-26T11:00:17Z</time>
      </trkpt>
      <trkpt lat="45.21059" lon="4.32038">
        <ele>845</ele>
        <time>2019-02-26T11:01:17Z</time>
      </trkpt>
      <trkpt lat="45.21099" lon="4.32022">
        <ele>848</ele>
        <time>2019-02-26T11:02:17Z</time>
      </trkpt>
      <trkpt lat="45.21131" lon="4.32019">
        <ele>850</ele>
        <time>2019-02-26T11:03:17Z</time>
      </trkpt>
      <trkpt lat="45.21169" lon="4.32031">
        <ele>854</ele>
        <time>2019-02-26T11:04:17Z</time>
      </trkpt>
      <trkpt lat="45.212" lon="4.32056">
        <ele>852</ele>
        <time>2019-02-26T11:05:17Z</time>
      </trkpt>
      <trkpt lat="45.2123" lon="4.32099">
        <ele>852</ele>
        <time>2019-02-26T11:06:17Z</time>
      </trkpt>
      <trkpt lat="45.21274" lon="4.32223">
        <ele>849</ele>
        <time>2019-02-26T11:07:17Z</time>
      </trkpt>
      <trkpt lat="45.21307" lon="4.32292">
        <ele>847</ele>
        <time>2019-02-26T11:08:17Z</time>
      </trkpt>
      <trkpt lat="45.21362" lon="4.32379">
        <ele>842</ele>
        <time>2019-02-26T11:09:17Z</time>
      </trkpt>
      <trkpt lat="45.21373" lon="4.32422">
        <ele>842</ele>
        <time>2019-02-26T11:10:17Z</time>
      </trkpt>
      <trkpt lat="45.21377" lon="4.32462">
        <ele>842</ele>
        <time>2019-02-26T11:11:17Z</time>
      </trkpt>
      <trkpt lat="45.21348" lon="4.32548">
        <ele>839</ele>
        <time>2019-02-26T11:12:17Z</time>
      </trkpt>
      <trkpt lat="45.21338" lon="4.32589">
        <ele>835</ele>
        <time>2019-02-26T11:13:17Z</time>
      </trkpt>
      <trkpt lat="45.21336" lon="4.32639">
        <ele>833</ele>
        <time>2019-02-26T11:14:17Z</time>
      </trkpt>
      <trkpt lat="45.2137" lon="4.3279">
        <ele>834</ele>
        <time>2019-02-26T11:15:17Z</time>
      </trkpt>
      <trkpt lat="45.21385" lon="4.32834">
        <ele>833</ele>
        <time>2019-02-26T11:16:17Z</time>
      </trkpt>
      <trkpt lat="45.21412" lon="4.32878">
        <ele>836</ele>
        <time>2019-02-26T11:17:17Z</time>
      </trkpt>
      <trkpt lat="45.21451" lon="4.32893">
        <ele>836</ele>
        <time>2019-02-26T11:18:17Z</time>
      </trkpt>
      <trkpt lat="45.21505" lon="4.32898">
        <ele>832</ele>
        <time>2019-02-26T11:19:17Z</time>
      </trkpt>
      <trkpt lat="45.21537" lon="4.3291">
        <ele>826</ele>
        <time>2019-02-26T11:20:17Z</time>
      </trkpt>
      <trkpt lat="45.21568" lon="4.32956">
        <ele>824</ele>
        <time>2019-02-26T11:21:17Z</time>
      </trkpt>
      <trkpt lat="45.21619" lon="4.33143">
        <ele>831</ele>
        <time>2019-02-26T11:22:17Z</time>
      </trkpt>
      <trkpt lat="45.21646" lon="4.33267">
        <ele>828</ele>
        <time>2019-02-26T11:23:17Z</time>
      </trkpt>
      <trkpt lat="45.21654" lon="4.33344">
        <ele>826</ele>
        <time>2019-02-26T11:24:17Z</time>
      </trkpt>
      <trkpt lat="45.21659" lon="4.33393">
        <ele>823</ele>
        <time>2019-02-26T11:25:17Z</time>
      </trkpt>
      <trkpt lat="45.21642" lon="4.33454">
        <ele>819</ele>
        <time>2019-02-26T11:26:17Z</time>
      </trkpt>
      <trkpt lat="45.21632" lon="4.33498">
        <ele>813</ele>
        <time>2019-02-26T11:27:17Z</time>
      </trkpt>
      <trkpt lat="45.21627" lon="4.33561">
        <ele>809</ele>
        <time>2019-02-26T11:28:17Z</time>
      </trkpt>
      <trkpt lat="45.21651" lon="4.33653">
        <ele>806</ele>
        <time>2019-02-26T11:29:17Z</time>
      </trkpt>
      <trkpt lat="45.2168" lon="4.33722">
        <ele>805</ele>
        <time>2019-02-26T11:30:17Z</time>
      </trkpt>
      <trkpt lat="45.21685" lon="4.33793">
        <ele>803</ele>
        <time>2019-02-26T11:31:17Z</time>
      </trkpt>
      <trkpt lat="45.21669" lon="4.33842">
        <ele>803</ele>
        <time>2019-02-26T11:32:17Z</time>
      </trkpt>
      <trkpt lat="45.21642" lon="4.33881">
        <ele>801</ele>
        <time>2019-02-26T11:33:17Z</time>
      </trkpt>
      <trkpt lat="45.21592" lon="4.33915">
        <ele>801</ele>
        <time>2019-02-26T11:34:17Z</time>
      </trkpt>
      <trkpt lat="45.21561" lon="4.3395">
        <ele>801</ele>
        <time>2019-02-26T11:35:17Z</time>
      </trkpt>
      <trkpt lat="45.2154" lon="4.33992">
        <ele>801</ele>
        <time>2019-02-26T11:36:17Z</time>
      </trkpt>
      <trkpt lat="45.21531" lon="4.34034">
        <ele>799</ele>
        <time>2019-02-26T11:37:17Z</time>
      </trkpt>
      <trkpt lat="45.21526" lon="4.34111">
        <ele>796</ele>
        <time>2019-02-26T11:38:17Z</time>
      </trkpt>
      <trkpt lat="45.21499" lon="4.34291">
        <ele>795</ele>
        <time>2019-02-26T11:39:17Z</time>
      </trkpt>
      <trkpt lat="45.2148" lon="4.34389">
        <ele>793</ele>
        <time>2019-02-26T11:40:17Z</time>
      </trkpt>
      <trkpt lat="45.21464" lon="4.34444">
        <ele>793</ele>
        <time>2019-02-26T11:41:17Z</time>
      </trkpt>
      <trkpt lat="45.21422" lon="4.34502">
        <ele>794</ele>
        <time>2019-02-26T11:42:17Z</time>
      </trkpt>
      <trkpt lat="45.21343" lon="4.34559">
        <ele>802</ele>
        <time>2019-02-26T11:43:17Z</time>
      </trkpt>
      <trkpt lat="45.21278" lon="4.34609">
        <ele>808</ele>
        <time>2019-02-26T11:44:17Z</time>
      </trkpt>
      <trkpt lat="45.21261" lon="4.34633">
        <ele>809</ele>
        <time>2019-02-26T11:45:17Z</time>
      </trkpt>
      <trkpt lat="45.21202" lon="4.34813">
        <ele>800</ele>
        <time>2019-02-26T11:46:17Z</time>
      </trkpt>
      <trkpt lat="45.21172" lon="4.34897">
        <ele>795</ele>
        <time>2019-02-26T11:47:17Z</time>
      </trkpt>
      <trkpt lat="45.21153" lon="4.34935">
        <ele>793</ele>
        <time>2019-02-26T11:48:17Z</time>
      </trkpt>
      <trkpt lat="45.21132" lon="4.34962">
        <ele>792</ele>
        <time>2019-02-26T11:49:17Z</time>
      </trkpt>
      <trkpt lat="45.21128" lon="4.34991">
        <ele>790</ele>
        <time>2019-02-26T11:50:17Z</time>
      </trkpt>
      <trkpt lat="45.21119" lon="4.35013">
        <ele>790</ele>
        <time>2019-02-26T11:51:17Z</time>
      </trkpt>
      <trkpt lat="45.21097" lon="4.35047">
        <ele>789</ele>
        <time>2019-02-26T11:52:17Z</time>
      </trkpt>
      <trkpt lat="45.21059" lon="4.35133">
        <ele>788</ele>
        <time>2019-02-26T11:53:17Z</time>
      </trkpt>
      <trkpt lat="45.21035" lon="4.35203">
        <ele>789</ele>
        <time>2019-02-26T11:54:17Z</time>
      </trkpt>
      <trkpt lat="45.21018" lon="4.35285">
        <ele>792</ele>
        <time>2019-02-26T11:55:17Z</time>
      </trkpt>
      <trkpt lat="45.20979" lon="4.35407">
        <ele>792</ele>
        <time>2019-02-26T11:56:17Z</time>
      </trkpt>
      <trkpt lat="45.20942" lon="4.35467">
        <ele>793</ele>
        <time>2019-02-26T11:57:17Z</time>
      </trkpt>
      <trkpt lat="45.20891" lon="4.35533">
        <ele>794</ele>
        <time>2019-02-26T11:58:17Z</time>
      </trkpt>
      <trkpt lat="45.20857" lon="4.35581">
        <ele>793</ele>
        <time>2019-02-26T11:59:17Z</time>
      </trkpt>
      <trkpt lat="45.20823" lon="4.35659">
        <ele>792</ele>
        <time>2019-02-26T12:00:17Z</time>
      </trkpt>
      <trkpt lat="45.20807" lon="4.35718">
        <ele>795</ele>
        <time>2019-02-26T12:01:17Z</time>
      </trkpt>
      <trkpt lat="45.208" lon="4.35787">
        <ele>796</ele>
        <time>2019-02-26T12:02:17Z</time>
      </trkpt>
      <trkpt lat="45.20799" lon="4.3585">
        <ele>797</ele>
        <time>2019-02-26T12:03:17Z</time>
      </trkpt>
      <trkpt lat="45.20807" lon="4.35921">
        <ele>798</ele>
        <time>2019-02-26T12:04:17Z</time>
      </trkpt>
      <trkpt lat="45.20831" lon="4.36">
        <ele>801</ele>
        <time>2019-02-26T12:05:17Z</time>
      </trkpt>
      <trkpt lat="45.20853" lon="4.36088">
        <ele>802</ele>
        <time>2019-02-26T12:06:17Z</time>
      </trkpt>
      <trkpt lat="45.2086" lon="4.36154">
        <ele>801</ele>
        <time>2019-02-26T12:07:17Z</time>
      </trkpt>
      <trkpt lat="45.20857" lon="4.36239">
        <ele>798</ele>
        <time>2019-02-26T12:08:17Z</time>
      </trkpt>
      <trkpt lat="45.20854" lon="4.36263">
        <ele>797</ele>
        <time>2019-02-26T12:09:17Z</time>
      </trkpt>
      <trkpt lat="45.20865" lon="4.36409">
        <ele>788</ele>
        <time>2019-02-26T12:10:17Z</time>
      </trkpt>
      <trkpt lat="45.20894" lon="4.3658">
        <ele>789</ele>
        <time>2019-02-26T12:11:17Z</time>
      </trkpt>
      <trkpt lat="45.20888" lon="4.36662">
        <ele>794</ele>
        <time>2019-02-26T12:12:17Z</time>
      </trkpt>
      <trkpt lat="45.20877" lon="4.36743">
        <ele>797</ele>
        <time>2019-02-26T12:13:17Z</time>
      </trkpt>
      <trkpt lat="45.20845" lon="4.36818">
        <ele>797</ele>
        <time>2019-02-26T12:14:17Z</time>
      </trkpt>
      <trkpt lat="45.20805" lon="4.36898">
        <ele>799</ele>
        <time>2019-02-26T12:15:17Z</time>
      </trkpt>
      <trkpt lat="45.20777" lon="4.36965">
        <ele>800</ele>
        <time>2019-02-26T12:16:17Z</time>
      </trkpt>
      <trkpt lat="45.20766" lon="4.3702">
        <ele>804</ele>
        <time>2019-02-26T12:17:17Z</time>
      </trkpt>
      <trkpt lat="45.20756" lon="4.371">
        <ele>807</ele>
        <time>2019-02-26T12:18:17Z</time>
      </trkpt>
      <trkpt lat="45.20755" lon="4.3717">
        <ele>806</ele>
        <time>2019-02-26T12:19:17Z</time>
      </trkpt>
      <trkpt lat="45.20765" lon="4.37236">
        <ele>803</ele>
        <time>2019-02-26T12:20:17Z</time>
      </trkpt>
      <trkpt lat="45.20784" lon="4.37288">
        <ele>805</ele>
        <time>2019-02-26T12:21:17Z</time>
      </trkpt>
      <trkpt lat="45.20813" lon="4.37361">
        <ele>810</ele>
        <time>2019-02-26T12:22:17Z</time>
      </trkpt>
      <trkpt lat="45.20842" lon="4.37404">
        <ele>815</ele>
        <time>2019-02-26T12:23:17Z</time>
      </trkpt>
      <trkpt lat="45.20892" lon="4.37455">
        <ele>819</ele>
        <time>2019-02-26T12:24:17Z</time>
      </trkpt>
      <trkpt lat="45.20943" lon="4.37484">
        <ele>819</ele>
        <time>2019-02-26T12:25:17Z</time>
      </trkpt>
      <trkpt lat="45.21022" lon="4.37516">
        <ele>816</ele>
        <time>2019-02-26T12:26:17Z</time>
      </trkpt>
      <trkpt lat="45.21085" lon="4.3757">
        <ele>816</ele>
        <time>2019-02-26T12:27:17Z</time>
      </trkpt>
      <trkpt lat="45.21202" lon="4.3768">
        <ele>817</ele>
        <time>2019-02-26T12:28:17Z</time>
      </trkpt>
      <trkpt lat="45.21259" lon="4.37785">
        <ele>812</ele>
        <time>2019-02-26T12:29:17Z</time>
      </trkpt>
      <trkpt lat="45.213" lon="4.37911">
        <ele>817</ele>
        <time>2019-02-26T12:30:17Z</time>
      </trkpt>
      <trkpt lat="45.21344" lon="4.38047">
        <ele>817</ele>
        <time>2019-02-26T12:31:17Z</time>
      </trkpt>
      <trkpt lat="45.2139" lon="4.38146">
        <ele>811</ele>
        <time>2019-02-26T12:32:17Z</time>
      </trkpt>
      <trkpt lat="45.21458" lon="4.38284">
        <ele>821</ele>
        <time>2019-02-26T12:33:17Z</time>
      </trkpt>
      <trkpt lat="45.21473" lon="4.38277">
        <ele>819</ele>
        <time>2019-02-26T12:34:17Z</time>
      </trkpt>
      <trkpt lat="45.21491" lon="4.38294">
        <ele>823</ele>
        <time>2019-02-26T12:35:17Z</time>
      </trkpt>
      <trkpt lat="45.21537" lon="4.38313">
        <ele>820</ele>
        <time>2019-02-26T12:36:17Z</time>
      </trkpt>
      <trkpt lat="45.21562" lon="4.38326">
        <ele>816</ele>
        <time>2019-02-26T12:37:17Z</time>
      </trkpt>
      <trkpt lat="45.21557" lon="4.38366">
        <ele>821</ele>
        <time>2019-02-26T12:38:17Z</time>
      </trkpt>
      <trkpt lat="45.21547" lon="4.38403">
        <ele>827</ele>
        <time>2019-02-26T12:39:17Z</time>
      </trkpt>
      <trkpt lat="45.21545" lon="4.38451">
        <ele>830</ele>
        <time>2019-02-26T12:40:17Z</time>
      </trkpt>
      <trkpt lat="45.21529" lon="4.38493">
        <ele>838</ele>
        <time>2019-02-26T12:41:17Z</time>
      </trkpt>
      <trkpt lat="45.21535" lon="4.38601">
        <ele>835</ele>
        <time>2019-02-26T12:42:17Z</time>
      </trkpt>
      <trkpt lat="45.21546" lon="4.38736">
        <ele>841</ele>
        <time>2019-02-26T12:43:17Z</time>
      </trkpt>
      <trkpt lat="45.21573" lon="4.38835">
        <ele>837</ele>
        <time>2019-02-26T12:44:17Z</time>
      </trkpt>
      <trkpt lat="45.2163" lon="4.38972">
        <ele>848</ele>
        <time>2019-02-26T12:45:17Z</time>
      </trkpt>
      <trkpt lat="45.21658" lon="4.39067">
        <ele>851</ele>
        <time>2019-02-26T12:46:17Z</time>
      </trkpt>
      <trkpt lat="45.21678" lon="4.39248">
        <ele>852</ele>
        <time>2019-02-26T12:47:17Z</time>
      </trkpt>
      <trkpt lat="45.21705" lon="4.39373">
        <ele>850</ele>
        <time>2019-02-26T12:48:17Z</time>
      </trkpt>
      <trkpt lat="45.21745" lon="4.3946">
        <ele>850</ele>
        <time>2019-02-26T12:49:17Z</time>
      </trkpt>
      <trkpt lat="45.21819" lon="4.39604">
        <ele>854</ele>
        <time>2019-02-26T12:50:17Z</time>
      </trkpt>
      <trkpt lat="45.21883" lon="4.39712">
        <ele>849</ele>
        <time>2019-02-26T12:51:17Z</time>
      </trkpt>
      <trkpt lat="45.21945" lon="4.39767">
        <ele>852</ele>
        <time>2019-02-26T12:52:17Z</time>
      </trkpt>
      <trkpt lat="45.22201" lon="4.39876">
        <ele>851</ele>
        <time>2019-02-26T12:53:17Z</time>
      </trkpt>
      <trkpt lat="45.22269" lon="4.39915">
        <ele>853</ele>
        <time>2019-02-26T12:54:17Z</time>
      </trkpt>
      <trkpt lat="45.22357" lon="4.39998">
        <ele>856</ele>
        <time>2019-02-26T12:55:17Z</time>
      </trkpt>
      <trkpt lat="45.22433" lon="4.40069">
        <ele>859</ele>
        <time>2019-02-26T12:56:17Z</time>
      </trkpt>
      <trkpt lat="45.22492" lon="4.40099">
        <ele>858</ele>
        <time>2019-02-26T12:57:17Z</time>
      </trkpt>
      <trkpt lat="45.2254" lon="4.40114">
        <ele>859</ele>
        <time>2019-02-26T12:58:17Z</time>
      </trkpt>
      <trkpt lat="45.22632" lon="4.40116">
        <ele>857</ele>
        <time>2019-02-26T12:59:17Z</time>
      </trkpt>
      <trkpt lat="45.22761" lon="4.40155">
        <ele>862</ele>
        <time>2019-02-26T13:00:17Z</time>
      </trkpt>
      <trkpt lat="45.2287" lon="4.40234">
        <ele>865</ele>
        <time>2019-02-26T13:01:17Z</time>
      </trkpt>
      <trkpt lat="45.22945" lon="4.40297">
        <ele>858</ele>
        <time>2019-02-26T13:02:17Z</time>
      </trkpt>
      <trkpt lat="45.23088" lon="4.40422">
        <ele>859</ele>
        <time>2019-02-26T13:03:17Z</time>
      </trkpt>
      <trkpt lat="45.23134" lon="4.40458">
        <ele>862</ele>
        <time>2019-02-26T13:04:17Z</time>
      </trkpt>
      <trkpt lat="45.23217" lon="4.40564">
        <ele>865</ele>
        <time>2019-02-26T13:05:17Z</time>
      </trkpt>
      <trkpt lat="45.23314" lon="4.40692">
        <ele>865</ele>
        <time>2019-02-26T13:06:17Z</time>
      </trkpt>
      <trkpt lat="45.23385" lon="4.40795">
        <ele>869</ele>
        <time>2019-02-26T13:07:17Z</time>
      </trkpt>
      <trkpt lat="45.23455" lon="4.40904">
        <ele>874</ele>
        <time>2019-02-26T13:08:17Z</time>
      </trkpt>
      <trkpt lat="45.23523" lon="4.41095">
        <ele>876</ele>
        <time>2019-02-26T13:09:17Z</time>
      </trkpt>
      <trkpt lat="45.2364" lon="4.41496">
        <ele>879</ele>
        <time>2019-02-26T13:10:17Z</time>
      </trkpt>
      <trkpt lat="45.23752" lon="4.4188">
        <ele>881</ele>
        <time>2019-02-26T13:11:17Z</time>
      </trkpt>
      <trkpt lat="45.23837" lon="4.42115">
        <ele>885</ele>
        <time>2019-02-26T13:12:17Z</time>
      </trkpt>
      <trkpt lat="45.23968" lon="4.42402">
        <ele>889</ele>
        <time>2019-02-26T13:13:17Z</time>
      </trkpt>
      <trkpt lat="45.24055" lon="4.42595">
        <ele>895</ele>
        <time>2019-02-26T13:14:17Z</time>
      </trkpt>
      <trkpt lat="45.24082" lon="4.42729">
        <ele>896</ele>
        <time>2019-02-26T13:15:17Z</time>
      </trkpt>
      <trkpt lat="45.24089" lon="4.42884">
        <ele>899</ele>
        <time>2019-02-26T13:16:17Z</time>
      </trkpt>
      <trkpt lat="45.24112" lon="4.43087">
        <ele>909</ele>
        <time>2019-02-26T13:17:17Z</time>
      </trkpt>
      <trkpt lat="45.24127" lon="4.43145">
        <ele>911</ele>
        <time>2019-02-26T13:18:17Z</time>
      </trkpt>
      <trkpt lat="45.24165" lon="4.43225">
        <ele>906</ele>
        <time>2019-02-26T13:19:17Z</time>
      </trkpt>
      <trkpt lat="45.24214" lon="4.4329">
        <ele>906</ele>
        <time>2019-02-26T13:20:17Z</time>
      </trkpt>
      <trkpt lat="45.24282" lon="4.43341">
        <ele>906</ele>
        <time>2019-02-26T13:21:17Z</time>
      </trkpt>
      <trkpt lat="45.24363" lon="4.43379">
        <ele>908</ele>
        <time>2019-02-26T13:22:17Z</time>
      </trkpt>
      <trkpt lat="45.24424" lon="4.43415">
        <ele>908</ele>
        <time>2019-02-26T13:23:17Z</time>
      </trkpt>
      <trkpt lat="45.24509" lon="4.43509">
        <ele>906</ele>
        <time>2019-02-26T13:24:17Z</time>
      </trkpt>
      <trkpt lat="45.2465" lon="4.43679">
        <ele>915</ele>
        <time>2019-02-26T13:25:17Z</time>
      </trkpt>
      <trkpt lat="45.24654" lon="4.43685">
        <ele>915</ele>
        <time>2019-02-26T13:26:17Z</time>
      </trkpt>
      <trkpt lat="45.2466" lon="4.43708">
        <ele>917</ele>
        <time>2019-02-26T13:27:17Z</time>
      </trkpt>
      <trkpt lat="45.24677" lon="4.43747">
        <ele>919</ele>
        <time>2019-02-26T13:28:17Z</time>
      </trkpt>
      <trkpt lat="45.24692" lon="4.43833">
        <ele>926</ele>
        <time>2019-02-26T13:29:17Z</time>
      </trkpt>
      <trkpt lat="45.247" lon="4.43902">
        <ele>930</ele>
        <time>2019-02-26T13:30:17Z</time>
      </trkpt>
      <trkpt lat="45.24703" lon="4.43938">
        <ele>933</ele>
        <time>2019-02-26T13:31:17Z</time>
      </trkpt>
      <trkpt lat="45.24708" lon="4.43959">
        <ele>933</ele>
        <time>2019-02-26T13:32:17Z</time>
      </trkpt>
      <trkpt lat="45.24715" lon="4.43977">
        <ele>933</ele>
        <time>2019-02-26T13:33:17Z</time>
      </trkpt>
      <trkpt lat="45.24739" lon="4.44043">
        <ele>932</ele>
        <time>2019-02-26T13:34:17Z</time>
      </trkpt>
      <trkpt lat="45.24743" lon="4.44064">
        <ele>933</ele>
        <time>2019-02-26T13:35:17Z</time>
      </trkpt>
      <trkpt lat="45.24744" lon="4.44084">
        <ele>934</ele>
        <time>2019-02-26T13:36:17Z</time>
      </trkpt>
      <trkpt lat="45.24743" lon="4.44105">
        <ele>936</ele>
        <time>2019-02-26T13:37:17Z</time>
      </trkpt>
      <trkpt lat="45.24744" lon="4.44114">
        <ele>936</ele>
        <time>2019-02-26T13:38:17Z</time>
      </trkpt>
      <trkpt lat="45.24748" lon="4.44123">
        <ele>936</ele>
        <time>2019-02-26T13:39:17Z</time>
      </trkpt>
      <trkpt lat="45.24762" lon="4.44141">
        <ele>935</ele>
        <time>2019-02-26T13:40:17Z</time>
      </trkpt>
      <trkpt lat="45.24815" lon="4.44243">
        <ele>939</ele>
        <time>2019-02-26T13:41:17Z</time>
      </trkpt>
      <trkpt lat="45.24854" lon="4.44304">
        <ele>939</ele>
        <time>2019-02-26T13:42:17Z</time>
      </trkpt>
      <trkpt lat="45.24891" lon="4.44342">
        <ele>938</ele>
        <time>2019-02-26T13:43:17Z</time>
      </trkpt>
      <trkpt lat="45.24909" lon="4.4437">
        <ele>939</ele>
        <time>2019-02-26T13:44:17Z</time>
      </trkpt>
      <trkpt lat="45.24918" lon="4.44393">
        <ele>941</ele>
        <time>2019-02-26T13:45:17Z</time>
      </trkpt>
      <trkpt lat="45.24926" lon="4.44426">
        <ele>945</ele>
        <time>2019-02-26T13:46:17Z</time>
      </trkpt>
      <trkpt lat="45.24943" lon="4.44477">
        <ele>948</ele>
        <time>2019-02-26T13:47:17Z</time>
      </trkpt>
      <trkpt lat="45.24985" lon="4.44645">
        <ele>952</ele>
        <time>2019-02-26T13:48:17Z</time>
      </trkpt>
      <trkpt lat="45.25022" lon="4.44699">
        <ele>953</ele>
        <time>2019-02-26T13:49:17Z</time>
      </trkpt>
      <trkpt lat="45.25026" lon="4.44705">
        <ele>953</ele>
        <time>2019-02-26T13:50:17Z</time>
      </trkpt>
      <trkpt lat="45.25043" lon="4.44781">
        <ele>955</ele>
        <time>2019-02-26T13:51:17Z</time>
      </trkpt>
      <trkpt lat="45.25056" lon="4.4482">
        <ele>955</ele>
        <time>2019-02-26T13:52:17Z</time>
      </trkpt>
      <trkpt lat="45.25059" lon="4.44826">
        <ele>955</ele>
        <time>2019-02-26T13:53:17Z</time>
      </trkpt>
      <trkpt lat="45.25072" lon="4.44833">
        <ele>955</ele>
        <time>2019-02-26T13:54:17Z</time>
      </trkpt>
      <trkpt lat="45.25078" lon="4.44837">
        <ele>955</ele>
        <time>2019-02-26T13:55:17Z</time>
      </trkpt>
      <trkpt lat="45.25092" lon="4.44913">
        <ele>961</ele>
        <time>2019-02-26T13:56:17Z</time>
      </trkpt>
      <trkpt lat="45.25097" lon="4.44938">
        <ele>964</ele>
        <time>2019-02-26T13:57:17Z</time>
      </trkpt>
      <trkpt lat="45.25111" lon="4.44985">
        <ele>969</ele>
        <time>2019-02-26T13:58:17Z</time>
      </trkpt>
      <trkpt lat="45.25121" lon="4.4501">
        <ele>971</ele>
        <time>2019-02-26T13:59:17Z</time>
      </trkpt>
      <trkpt lat="45.25132" lon="4.45028">
        <ele>973</ele>
        <time>2019-02-26T14:00:17Z</time>
      </trkpt>
      <trkpt lat="45.25141" lon="4.45039">
        <ele>974</ele>
        <time>2019-02-26T14:01:17Z</time>
      </trkpt>
      <trkpt lat="45.25166" lon="4.45078">
        <ele>974</ele>
        <time>2019-02-26T14:02:17Z</time>
      </trkpt>
      <trkpt lat="45.25176" lon="4.45109">
        <ele>978</ele>
        <time>2019-02-26T14:03:17Z</time>
      </trkpt>
      <trkpt lat="45.252" lon="4.45207">
        <ele>987</ele>
        <time>2019-02-26T14:04:17Z</time>
      </trkpt>
      <trkpt lat="45.25217" lon="4.45253">
        <ele>990</ele>
        <time>2019-02-26T14:05:17Z</time>
      </trkpt>
      <trkpt lat="45.25227" lon="4.45296">
        <ele>992</ele>
        <time>2019-02-26T14:06:17Z</time>
      </trkpt>
      <trkpt lat="45.2523" lon="4.45308">
        <ele>993</ele>
        <time>2019-02-26T14:07:17Z</time>
      </trkpt>
      <trkpt lat="45.2523" lon="4.45325">
        <ele>994</ele>
        <time>2019-02-26T14:08:17Z</time>
      </trkpt>
      <trkpt lat="45.25241" lon="4.45361">
        <ele>995</ele>
        <time>2019-02-26T14:09:17Z</time>
      </trkpt>
      <trkpt lat="45.25285" lon="4.45437">
        <ele>1004</ele>
        <time>2019-02-26T14:10:17Z</time>
      </trkpt>
      <trkpt lat="45.25305" lon="4.45476">
        <ele>1006</ele>
        <time>2019-02-26T14:11:17Z</time>
      </trkpt>
      <trkpt lat="45.25312" lon="4.4549">
        <ele>1006</ele>
        <time>2019-02-26T14:12:17Z</time>
      </trkpt>
      <trkpt lat="45.25311" lon="4.45502">
        <ele>1005</ele>
        <time>2019-02-26T14:13:17Z</time>
      </trkpt>
      <trkpt lat="45.25309" lon="4.45515">
        <ele>1006</ele>
        <time>2019-02-26T14:14:17Z</time>
      </trkpt>
      <trkpt lat="45.25309" lon="4.45531">
        <ele>1008</ele>
        <time>2019-02-26T14:15:17Z</time>
      </trkpt>
      <trkpt lat="45.25302" lon="4.4554">
        <ele>1009</ele>
        <time>2019-02-26T14:16:17Z</time>
      </trkpt>
      <trkpt lat="45.25295" lon="4.45562">
        <ele>1012</ele>
        <time>2019-02-26T14:17:17Z</time>
      </trkpt>
      <trkpt lat="45.25287" lon="4.45567">
        <ele>1013</ele>
        <time>2019-02-26T14:18:17Z</time>
      </trkpt>
      <trkpt lat="45.25273" lon="4.4558">
        <ele>1015</ele>
        <time>2019-02-26T14:19:17Z</time>
      </trkpt>
      <trkpt lat="45.25269" lon="4.45582">
        <ele>1015</ele>
        <time>2019-02-26T14:20:17Z</time>
      </trkpt>
      <trkpt lat="45.25264" lon="4.4559">
        <ele>1017</ele>
        <time>2019-02-26T14:21:17Z</time>
      </trkpt>
      <trkpt lat="45.2527" lon="4.45598">
        <ele>1019</ele>
        <time>2019-02-26T14:22:17Z</time>
      </trkpt>
      <trkpt lat="45.2529" lon="4.45633">
        <ele>1024</ele>
        <time>2019-02-26T14:23:17Z</time>
      </trkpt>
      <trkpt lat="45.25314" lon="4.45694">
        <ele>1028</ele>
        <time>2019-02-26T14:24:17Z</time>
      </trkpt>
      <trkpt lat="45.2532" lon="4.45705">
        <ele>1027</ele>
        <time>2019-02-26T14:25:17Z</time>
      </trkpt>
      <trkpt lat="45.25325" lon="4.45709">
        <ele>1026</ele>
        <time>2019-02-26T14:26:17Z</time>
      </trkpt>
      <trkpt lat="45.25329" lon="4.4571">
        <ele>1026</ele>
        <time>2019-02-26T14:27:17Z</time>
      </trkpt>
      <trkpt lat="45.25328" lon="4.45721">
        <ele>1027</ele>
        <time>2019-02-26T14:28:17Z</time>
      </trkpt>
      <trkpt lat="45.25329" lon="4.45737">
        <ele>1027</ele>
        <time>2019-02-26T14:29:17Z</time>
      </trkpt>
      <trkpt lat="45.25331" lon="4.45749">
        <ele>1028</ele>
        <time>2019-02-26T14:30:17Z</time>
      </trkpt>
      <trkpt lat="45.25333" lon="4.4576">
        <ele>1027</ele>
        <time>2019-02-26T14:31:17Z</time>
      </trkpt>
      <trkpt lat="45.25337" lon="4.45773">
        <ele>1027</ele>
        <time>2019-02-26T14:32:17Z</time>
      </trkpt>
      <trkpt lat="45.25343" lon="4.45786">
        <ele>1028</ele>
        <time>2019-02-26T14:33:17Z</time>
      </trkpt>
      <trkpt lat="45.25357" lon="4.45809">
        <ele>1028</ele>
        <time>2019-02-26T14:34:17Z</time>
      </trkpt>
      <trkpt lat="45.25363" lon="4.45819">
        <ele>1028</ele>
        <time>2019-02-26T14:35:17Z</time>
      </trkpt>
      <trkpt lat="45.25429" lon="4.45888">
        <ele>1018</ele>
        <time>2019-02-26T14:36:17Z</time>
      </trkpt>
      <trkpt lat="45.25443" lon="4.45901">
        <ele>1017</ele>
        <time>2019-02-26T14:37:17Z</time>
      </trkpt>
      <trkpt lat="45.25456" lon="4.45915">
        <ele>1016</ele>
        <time>2019-02-26T14:38:17Z</time>
      </trkpt>
      <trkpt lat="45.25469" lon="4.4593">
        <ele>1015</ele>
        <time>2019-02-26T14:39:17Z</time>
      </trkpt>
      <trkpt lat="45.25481" lon="4.45944">
        <ele>1015</ele>
        <time>2019-02-26T14:40:17Z</time>
      </trkpt>
      <trkpt lat="45.25492" lon="4.45961">
        <ele>1014</ele>
        <time>2019-02-26T14:41:17Z</time>
      </trkpt>
      <trkpt lat="45.25502" lon="4.4598">
        <ele>1013</ele>
        <time>2019-02-26T14:42:17Z</time>
      </trkpt>
      <trkpt lat="45.25528" lon="4.46041">
        <ele>1008</ele>
        <time>2019-02-26T14:43:17Z</time>
      </trkpt>
      <trkpt lat="45.25537" lon="4.4606">
        <ele>1006</ele>
        <time>2019-02-26T14:44:17Z</time>
      </trkpt>
      <trkpt lat="45.25543" lon="4.46073">
        <ele>1004</ele>
        <time>2019-02-26T14:45:17Z</time>
      </trkpt>
      <trkpt lat="45.25577" lon="4.46134">
        <ele>1001</ele>
        <time>2019-02-26T14:46:17Z</time>
      </trkpt>
      <trkpt lat="45.25586" lon="4.46154">
        <ele>1000</ele>
        <time>2019-02-26T14:47:17Z</time>
      </trkpt>
      <trkpt lat="45.25594" lon="4.46174">
        <ele>999</ele>
        <time>2019-02-26T14:48:17Z</time>
      </trkpt>
      <trkpt lat="45.25613" lon="4.46233">
        <ele>995</ele>
        <time>2019-02-26T14:49:17Z</time>
      </trkpt>
      <trkpt lat="45.25619" lon="4.46252">
        <ele>994</ele>
        <time>2019-02-26T14:50:17Z</time>
      </trkpt>
      <trkpt lat="45.25626" lon="4.4627">
        <ele>991</ele>
        <time>2019-02-26T14:51:17Z</time>
      </trkpt>
      <trkpt lat="45.25635" lon="4.46287">
        <ele>990</ele>
        <time>2019-02-26T14:52:17Z</time>
      </trkpt>
      <trkpt lat="45.25644" lon="4.46302">
        <ele>988</ele>
        <time>2019-02-26T14:53:17Z</time>
      </trkpt>
      <trkpt lat="45.25655" lon="4.46316">
        <ele>988</ele>
        <time>2019-02-26T14:54:17Z</time>
      </trkpt>
      <trkpt lat="45.25666" lon="4.46328">
        <ele>988</ele>
        <time>2019-02-26T14:55:17Z</time>
      </trkpt>
      <trkpt lat="45.25678" lon="4.46339">
        <ele>988</ele>
        <time>2019-02-26T14:56:17Z</time>
      </trkpt>
      <trkpt lat="45.25717" lon="4.46367">
        <ele>989</ele>
        <time>2019-02-26T14:57:17Z</time>
      </trkpt>
      <trkpt lat="45.25729" lon="4.46378">
        <ele>989</ele>
        <time>2019-02-26T14:58:17Z</time>
      </trkpt>
      <trkpt lat="45.25741" lon="4.4639">
        <ele>989</ele>
        <time>2019-02-26T14:59:17Z</time>
      </trkpt>
      <trkpt lat="45.25751" lon="4.46405">
        <ele>989</ele>
        <time>2019-02-26T15:00:17Z</time>
      </trkpt>
      <trkpt lat="45.2576" lon="4.46421">
        <ele>989</ele>
        <time>2019-02-26T15:01:17Z</time>
      </trkpt>
      <trkpt lat="45.25795" lon="4.46487">
        <ele>983</ele>
        <time>2019-02-26T15:02:17Z</time>
      </trkpt>
      <trkpt lat="45.25803" lon="4.46504">
        <ele>981</ele>
        <time>2019-02-26T15:03:17Z</time>
      </trkpt>
      <trkpt lat="45.25811" lon="4.46521">
        <ele>979</ele>
        <time>2019-02-26T15:04:17Z</time>
      </trkpt>
      <trkpt lat="45.25818" lon="4.46539">
        <ele>977</ele>
        <time>2019-02-26T15:05:17Z</time>
      </trkpt>
      <trkpt lat="45.25823" lon="4.46559">
        <ele>974</ele>
        <time>2019-02-26T15:06:17Z</time>
      </trkpt>
      <trkpt lat="45.25825" lon="4.46579">
        <ele>971</ele>
        <time>2019-02-26T15:07:17Z</time>
      </trkpt>
      <trkpt lat="45.25826" lon="4.46599">
        <ele>969</ele>
        <time>2019-02-26T15:08:17Z</time>
      </trkpt>
      <trkpt lat="45.25826" lon="4.46618">
        <ele>967</ele>
        <time>2019-02-26T15:09:17Z</time>
      </trkpt>
      <trkpt lat="45.25826" lon="4.46648">
        <ele>965</ele>
        <time>2019-02-26T15:10:17Z</time>
      </trkpt>
      <trkpt lat="45.25824" lon="4.46691">
        <ele>960</ele>
        <time>2019-02-26T15:11:17Z</time>
      </trkpt>
      <trkpt lat="45.25824" lon="4.46698">
        <ele>960</ele>
        <time>2019-02-26T15:12:17Z</time>
      </trkpt>
      <trkpt lat="45.25826" lon="4.46716">
        <ele>959</ele>
        <time>2019-02-26T15:13:17Z</time>
      </trkpt>
      <trkpt lat="45.25827" lon="4.46727">
        <ele>958</ele>
        <time>2019-02-26T15:14:17Z</time>
      </trkpt>
      <trkpt lat="45.25829" lon="4.46734">
        <ele>958</ele>
        <time>2019-02-26T15:15:17Z</time>
      </trkpt>
      <trkpt lat="45.25834" lon="4.46748">
        <ele>958</ele>
        <time>2019-02-26T15:16:17Z</time>
      </trkpt>
      <trkpt lat="45.2584" lon="4.46763">
        <ele>957</ele>
        <time>2019-02-26T15:17:17Z</time>
      </trkpt>
      <trkpt lat="45.25852" lon="4.46789">
        <ele>955</ele>
        <time>2019-02-26T15:18:17Z</time>
      </trkpt>
      <trkpt lat="45.2587" lon="4.46819">
        <ele>953</ele>
        <time>2019-02-26T15:19:17Z</time>
      </trkpt>
      <trkpt lat="45.25882" lon="4.46837">
        <ele>952</ele>
        <time>2019-02-26T15:20:17Z</time>
      </trkpt>
      <trkpt lat="45.25886" lon="4.46843">
        <ele>951</ele>
        <time>2019-02-26T15:21:17Z</time>
      </trkpt>
      <trkpt lat="45.25895" lon="4.46848">
        <ele>953</ele>
        <time>2019-02-26T15:22:17Z</time>
      </trkpt>
      <trkpt lat="45.259" lon="4.4685">
        <ele>953</ele>
        <time>2019-02-26T15:23:17Z</time>
      </trkpt>
      <trkpt lat="45.25909" lon="4.46851">
        <ele>955</ele>
        <time>2019-02-26T15:24:17Z</time>
      </trkpt>
      <trkpt lat="45.2593" lon="4.4685">
        <ele>960</ele>
        <time>2019-02-26T15:25:17Z</time>
      </trkpt>
      <trkpt lat="45.25939" lon="4.46852">
        <ele>961</ele>
        <time>2019-02-26T15:26:17Z</time>
      </trkpt>
      <trkpt lat="45.25943" lon="4.46856">
        <ele>961</ele>
        <time>2019-02-26T15:27:17Z</time>
      </trkpt>
      <trkpt lat="45.25945" lon="4.46861">
        <ele>960</ele>
        <time>2019-02-26T15:28:17Z</time>
      </trkpt>
      <trkpt lat="45.25945" lon="4.46867">
        <ele>959</ele>
        <time>2019-02-26T15:29:17Z</time>
      </trkpt>
      <trkpt lat="45.25943" lon="4.46873">
        <ele>958</ele>
        <time>2019-02-26T15:30:17Z</time>
      </trkpt>
      <trkpt lat="45.2594" lon="4.46878">
        <ele>956</ele>
        <time>2019-02-26T15:31:17Z</time>
      </trkpt>
      <trkpt lat="45.25935" lon="4.46881">
        <ele>955</ele>
        <time>2019-02-26T15:32:17Z</time>
      </trkpt>
      <trkpt lat="45.25931" lon="4.46882">
        <ele>954</ele>
        <time>2019-02-26T15:33:17Z</time>
      </trkpt>
      <trkpt lat="45.25912" lon="4.46884">
        <ele>949</ele>
        <time>2019-02-26T15:34:17Z</time>
      </trkpt>
      <trkpt lat="45.25905" lon="4.46883">
        <ele>947</ele>
        <time>2019-02-26T15:35:17Z</time>
      </trkpt>
      <trkpt lat="45.25897" lon="4.46881">
        <ele>946</ele>
        <time>2019-02-26T15:36:17Z</time>
      </trkpt>
      <trkpt lat="45.25887" lon="4.46876">
        <ele>944</ele>
        <time>2019-02-26T15:37:17Z</time>
      </trkpt>
      <trkpt lat="45.25882" lon="4.46872">
        <ele>944</ele>
        <time>2019-02-26T15:38:17Z</time>
      </trkpt>
      <trkpt lat="45.25863" lon="4.4685">
        <ele>944</ele>
        <time>2019-02-26T15:39:17Z</time>
      </trkpt>
      <trkpt lat="45.25781" lon="4.46734">
        <ele>940</ele>
        <time>2019-02-26T15:40:17Z</time>
      </trkpt>
      <trkpt lat="45.25726" lon="4.46641">
        <ele>937</ele>
        <time>2019-02-26T15:41:17Z</time>
      </trkpt>
      <trkpt lat="45.2572" lon="4.46631">
        <ele>938</ele>
        <time>2019-02-26T15:42:17Z</time>
      </trkpt>
      <trkpt lat="45.25716" lon="4.46625">
        <ele>938</ele>
        <time>2019-02-26T15:43:17Z</time>
      </trkpt>
      <trkpt lat="45.25709" lon="4.46617">
        <ele>938</ele>
        <time>2019-02-26T15:44:17Z</time>
      </trkpt>
      <trkpt lat="45.25698" lon="4.46605">
        <ele>937</ele>
        <time>2019-02-26T15:45:17Z</time>
      </trkpt>
      <trkpt lat="45.25685" lon="4.46592">
        <ele>936</ele>
        <time>2019-02-26T15:46:17Z</time>
      </trkpt>
      <trkpt lat="45.25676" lon="4.4658">
        <ele>936</ele>
        <time>2019-02-26T15:47:17Z</time>
      </trkpt>
      <trkpt lat="45.25642" lon="4.46522">
        <ele>942</ele>
        <time>2019-02-26T15:48:17Z</time>
      </trkpt>
      <trkpt lat="45.25635" lon="4.46511">
        <ele>942</ele>
        <time>2019-02-26T15:49:17Z</time>
      </trkpt>
      <trkpt lat="45.25632" lon="4.46507">
        <ele>943</ele>
        <time>2019-02-26T15:50:17Z</time>
      </trkpt>
      <trkpt lat="45.25629" lon="4.46505">
        <ele>942</ele>
        <time>2019-02-26T15:51:17Z</time>
      </trkpt>
      <trkpt lat="45.25626" lon="4.46503">
        <ele>942</ele>
        <time>2019-02-26T15:52:17Z</time>
      </trkpt>
      <trkpt lat="45.25621" lon="4.46502">
        <ele>942</ele>
        <time>2019-02-26T15:53:17Z</time>
      </trkpt>
      <trkpt lat="45.25617" lon="4.46503">
        <ele>941</ele>
        <time>2019-02-26T15:54:17Z</time>
      </trkpt>
      <trkpt lat="45.25612" lon="4.46506">
        <ele>940</ele>
        <time>2019-02-26T15:55:17Z</time>
      </trkpt>
      <trkpt lat="45.25599" lon="4.4648">
        <ele>942</ele>
        <time>2019-02-26T15:56:17Z</time>
      </trkpt>
      <trkpt lat="45.25583" lon="4.46457">
        <ele>942</ele>
        <time>2019-02-26T15:57:17Z</time>
      </trkpt>
      <trkpt lat="45.2557" lon="4.46435">
        <ele>946</ele>
        <time>2019-02-26T15:58:17Z</time>
      </trkpt>
      <trkpt lat="45.25562" lon="4.46427">
        <ele>947</ele>
        <time>2019-02-26T15:59:17Z</time>
      </trkpt>
      <trkpt lat="45.25558" lon="4.46425">
        <ele>948</ele>
        <time>2019-02-26T16:00:17Z</time>
      </trkpt>
      <trkpt lat="45.25554" lon="4.46426">
        <ele>948</ele>
        <time>2019-02-26T16:01:17Z</time>
      </trkpt>
      <trkpt lat="45.25551" lon="4.46428">
        <ele>948</ele>
        <time>2019-02-26T16:02:17Z</time>
      </trkpt>
      <trkpt lat="45.25548" lon="4.46431">
        <ele>948</ele>
        <time>2019-02-26T16:03:17Z</time>
      </trkpt>
      <trkpt lat="45.25547" lon="4.46435">
        <ele>948</ele>
        <time>2019-02-26T16:04:17Z</time>
      </trkpt>
      <trkpt lat="45.25544" lon="4.4644">
        <ele>948</ele>
        <time>2019-02-26T16:05:17Z</time>
      </trkpt>
      <trkpt lat="45.25543" lon="4.46447">
        <ele>948</ele>
        <time>2019-02-26T16:06:17Z</time>
      </trkpt>
      <trkpt lat="45.25543" lon="4.46453">
        <ele>947</ele>
        <time>2019-02-26T16:07:17Z</time>
      </trkpt>
      <trkpt lat="45.25544" lon="4.4646">
        <ele>947</ele>
        <time>2019-02-26T16:08:17Z</time>
      </trkpt>
      <trkpt lat="45.25546" lon="4.46475">
        <ele>945</ele>
        <time>2019-02-26T16:09:17Z</time>
      </trkpt>
      <trkpt lat="45.25547" lon="4.46483">
        <ele>945</ele>
        <time>2019-02-26T16:10:17Z</time>
      </trkpt>
      <trkpt lat="45.25548" lon="4.46491">
        <ele>944</ele>
        <time>2019-02-26T16:11:17Z</time>
      </trkpt>
      <trkpt lat="45.25548" lon="4.46499">
        <ele>943</ele>
        <time>2019-02-26T16:12:17Z</time>
      </trkpt>
      <trkpt lat="45.25546" lon="4.46515">
        <ele>944</ele>
        <time>2019-02-26T16:13:17Z</time>
      </trkpt>
      <trkpt lat="45.25545" lon="4.46521">
        <ele>944</ele>
        <time>2019-02-26T16:14:17Z</time>
      </trkpt>
      <trkpt lat="45.25543" lon="4.46528">
        <ele>944</ele>
        <time>2019-02-26T16:15:17Z</time>
      </trkpt>
      <trkpt lat="45.25542" lon="4.46535">
        <ele>944</ele>
        <time>2019-02-26T16:16:17Z</time>
      </trkpt>
      <trkpt lat="45.25538" lon="4.46568">
        <ele>945</ele>
        <time>2019-02-26T16:17:17Z</time>
      </trkpt>
      <trkpt lat="45.25536" lon="4.4659">
        <ele>946</ele>
        <time>2019-02-26T16:18:17Z</time>
      </trkpt>
      <trkpt lat="45.25537" lon="4.46616">
        <ele>948</ele>
        <time>2019-02-26T16:19:17Z</time>
      </trkpt>
      <trkpt lat="45.25539" lon="4.46624">
        <ele>948</ele>
        <time>2019-02-26T16:20:17Z</time>
      </trkpt>
      <trkpt lat="45.25543" lon="4.46633">
        <ele>947</ele>
        <time>2019-02-26T16:21:17Z</time>
      </trkpt>
      <trkpt lat="45.25552" lon="4.46647">
        <ele>945</ele>
        <time>2019-02-26T16:22:17Z</time>
      </trkpt>
      <trkpt lat="45.25558" lon="4.46656">
        <ele>944</ele>
        <time>2019-02-26T16:23:17Z</time>
      </trkpt>
      <trkpt lat="45.25564" lon="4.46669">
        <ele>943</ele>
        <time>2019-02-26T16:24:17Z</time>
      </trkpt>
      <trkpt lat="45.25572" lon="4.4669">
        <ele>940</ele>
        <time>2019-02-26T16:25:17Z</time>
      </trkpt>
      <trkpt lat="45.25575" lon="4.46699">
        <ele>940</ele>
        <time>2019-02-26T16:26:17Z</time>
      </trkpt>
      <trkpt lat="45.25575" lon="4.46708">
        <ele>940</ele>
        <time>2019-02-26T16:27:17Z</time>
      </trkpt>
      <trkpt lat="45.25576" lon="4.46717">
        <ele>940</ele>
        <time>2019-02-26T16:28:17Z</time>
      </trkpt>
      <trkpt lat="45.25575" lon="4.46724">
        <ele>940</ele>
        <time>2019-02-26T16:29:17Z</time>
      </trkpt>
      <trkpt lat="45.25574" lon="4.46732">
        <ele>941</ele>
        <time>2019-02-26T16:30:17Z</time>
      </trkpt>
      <trkpt lat="45.25569" lon="4.46753">
        <ele>944</ele>
        <time>2019-02-26T16:31:17Z</time>
      </trkpt>
      <trkpt lat="45.25567" lon="4.4676">
        <ele>946</ele>
        <time>2019-02-26T16:32:17Z</time>
      </trkpt>
      <trkpt lat="45.25561" lon="4.46778">
        <ele>951</ele>
        <time>2019-02-26T16:33:17Z</time>
      </trkpt>
      <trkpt lat="45.2556" lon="4.46784">
        <ele>953</ele>
        <time>2019-02-26T16:34:17Z</time>
      </trkpt>
      <trkpt lat="45.25565" lon="4.468">
        <ele>953</ele>
        <time>2019-02-26T16:35:17Z</time>
      </trkpt>
      <trkpt lat="45.25569" lon="4.46806">
        <ele>953</ele>
        <time>2019-02-26T16:36:17Z</time>
      </trkpt>
      <trkpt lat="45.25597" lon="4.46843">
        <ele>948</ele>
        <time>2019-02-26T16:37:17Z</time>
      </trkpt>
      <trkpt lat="45.25603" lon="4.46849">
        <ele>946</ele>
        <time>2019-02-26T16:38:17Z</time>
      </trkpt>
      <trkpt lat="45.25608" lon="4.46857">
        <ele>945</ele>
        <time>2019-02-26T16:39:17Z</time>
      </trkpt>
      <trkpt lat="45.25612" lon="4.46865">
        <ele>945</ele>
        <time>2019-02-26T16:40:17Z</time>
      </trkpt>
      <trkpt lat="45.25615" lon="4.46873">
        <ele>944</ele>
        <time>2019-02-26T16:41:17Z</time>
      </trkpt>
      <trkpt lat="45.25622" lon="4.46896">
        <ele>944</ele>
        <time>2019-02-26T16:42:17Z</time>
      </trkpt>
      <trkpt lat="45.2563" lon="4.46935">
        <ele>944</ele>
        <time>2019-02-26T16:43:17Z</time>
      </trkpt>
      <trkpt lat="45.25645" lon="4.47031">
        <ele>941</ele>
        <time>2019-02-26T16:44:17Z</time>
      </trkpt>
      <trkpt lat="45.25649" lon="4.47064">
        <ele>938</ele>
        <time>2019-02-26T16:45:17Z</time>
      </trkpt>
      <trkpt lat="45.25649" lon="4.47087">
        <ele>937</ele>
        <time>2019-02-26T16:46:17Z</time>
      </trkpt>
      <trkpt lat="45.25646" lon="4.47108">
        <ele>938</ele>
        <time>2019-02-26T16:47:17Z</time>
      </trkpt>
      <trkpt lat="45.25644" lon="4.47119">
        <ele>939</ele>
        <time>2019-02-26T16:48:17Z</time>
      </trkpt>
      <trkpt lat="45.25642" lon="4.47126">
        <ele>940</ele>
        <time>2019-02-26T16:49:17Z</time>
      </trkpt>
      <trkpt lat="45.25639" lon="4.47133">
        <ele>941</ele>
        <time>2019-02-26T16:50:17Z</time>
      </trkpt>
      <trkpt lat="45.25634" lon="4.47137">
        <ele>943</ele>
        <time>2019-02-26T16:51:17Z</time>
      </trkpt>
      <trkpt lat="45.25631" lon="4.47159">
        <ele>944</ele>
        <time>2019-02-26T16:52:17Z</time>
      </trkpt>
      <trkpt lat="45.2563" lon="4.47164">
        <ele>944</ele>
        <time>2019-02-26T16:53:17Z</time>
      </trkpt>
      <trkpt lat="45.25628" lon="4.47187">
        <ele>943</ele>
        <time>2019-02-26T16:54:17Z</time>
      </trkpt>
      <trkpt lat="45.25626" lon="4.47192">
        <ele>943</ele>
        <time>2019-02-26T16:55:17Z</time>
      </trkpt>
      <trkpt lat="45.25638" lon="4.47193">
        <ele>939</ele>
        <time>2019-02-26T16:56:17Z</time>
      </trkpt>
      <trkpt lat="45.25643" lon="4.47194">
        <ele>937</ele>
        <time>2019-02-26T16:57:17Z</time>
      </trkpt>
      <trkpt lat="45.25649" lon="4.47197">
        <ele>934</ele>
        <time>2019-02-26T16:58:17Z</time>
      </trkpt>
      <trkpt lat="45.25654" lon="4.47203">
        <ele>931</ele>
        <time>2019-02-26T16:59:17Z</time>
      </trkpt>
      <trkpt lat="45.25675" lon="4.47238">
        <ele>920</ele>
        <time>2019-02-26T17:00:17Z</time>
      </trkpt>
      <trkpt lat="45.25684" lon="4.47248">
        <ele>917</ele>
        <time>2019-02-26T17:01:17Z</time>
      </trkpt>
      <trkpt lat="45.25691" lon="4.47255">
        <ele>914</ele>
        <time>2019-02-26T17:02:17Z</time>
      </trkpt>
      <trkpt lat="45.25698" lon="4.47265">
        <ele>912</ele>
        <time>2019-02-26T17:03:17Z</time>
      </trkpt>
      <trkpt lat="45.25702" lon="4.47271">
        <ele>911</ele>
        <time>2019-02-26T17:04:17Z</time>
      </trkpt>
      <trkpt lat="45.25707" lon="4.47276">
        <ele>909</ele>
        <time>2019-02-26T17:05:17Z</time>
      </trkpt>
      <trkpt lat="45.25712" lon="4.47283">
        <ele>908</ele>
        <time>2019-02-26T17:06:17Z</time>
      </trkpt>
      <trkpt lat="45.25717" lon="4.47288">
        <ele>907</ele>
        <time>2019-02-26T17:07:17Z</time>
      </trkpt>
      <trkpt lat="45.25723" lon="4.47294">
        <ele>905</ele>
        <time>2019-02-26T17:08:17Z</time>
      </trkpt>
      <trkpt lat="45.25728" lon="4.47298">
        <ele>904</ele>
        <time>2019-02-26T17:09:17Z</time>
      </trkpt>
      <trkpt lat="45.25733" lon="4.47302">
        <ele>903</ele>
        <time>2019-02-26T17:10:17Z</time>
      </trkpt>
      <trkpt lat="45.2575" lon="4.47318">
        <ele>901</ele>
        <time>2019-02-26T17:11:17Z</time>
      </trkpt>
      <trkpt lat="45.25753" lon="4.47321">
        <ele>900</ele>
        <time>2019-02-26T17:12:17Z</time>
      </trkpt>
      <trkpt lat="45.25772" lon="4.47356">
        <ele>896</ele>
        <time>2019-02-26T17:13:17Z</time>
      </trkpt>
      <trkpt lat="45.25776" lon="4.4736">
        <ele>894</ele>
        <time>2019-02-26T17:14:17Z</time>
      </trkpt>
      <trkpt lat="45.25787" lon="4.47363">
        <ele>892</ele>
        <time>2019-02-26T17:15:17Z</time>
      </trkpt>
      <trkpt lat="45.25792" lon="4.47365">
        <ele>890</ele>
        <time>2019-02-26T17:16:17Z</time>
      </trkpt>
      <trkpt lat="45.25797" lon="4.47366">
        <ele>889</ele>
        <time>2019-02-26T17:17:17Z</time>
      </trkpt>
      <trkpt lat="45.25802" lon="4.47366">
        <ele>888</ele>
        <time>2019-02-26T17:18:17Z</time>
      </trkpt>
      <trkpt lat="45.25806" lon="4.47363">
        <ele>887</ele>
        <time>2019-02-26T17:19:17Z</time>
      </trkpt>
      <trkpt lat="45.2581" lon="4.47359">
        <ele>885</ele>
        <time>2019-02-26T17:20:17Z</time>
      </trkpt>
      <trkpt lat="45.2581" lon="4.47353">
        <ele>885</ele>
        <time>2019-02-26T17:21:17Z</time>
      </trkpt>
      <trkpt lat="45.25808" lon="4.47337">
        <ele>885</ele>
        <time>2019-02-26T17:22:17Z</time>
      </trkpt>
      <trkpt lat="45.25807" lon="4.47332">
        <ele>886</ele>
        <time>2019-02-26T17:23:17Z</time>
      </trkpt>
      <trkpt lat="45.25809" lon="4.47326">
        <ele>885</ele>
        <time>2019-02-26T17:24:17Z</time>
      </trkpt>
      <trkpt lat="45.25812" lon="4.47323">
        <ele>884</ele>
        <time>2019-02-26T17:25:17Z</time>
      </trkpt>
      <trkpt lat="45.25816" lon="4.47322">
        <ele>883</ele>
        <time>2019-02-26T17:26:17Z</time>
      </trkpt>
      <trkpt lat="45.2582" lon="4.47322">
        <ele>882</ele>
        <time>2019-02-26T17:27:17Z</time>
      </trkpt>
      <trkpt lat="45.25826" lon="4.47324">
        <ele>880</ele>
        <time>2019-02-26T17:28:17Z</time>
      </trkpt>
      <trkpt lat="45.25833" lon="4.47329">
        <ele>878</ele>
        <time>2019-02-26T17:29:17Z</time>
      </trkpt>
      <trkpt lat="45.25841" lon="4.4734">
        <ele>877</ele>
        <time>2019-02-26T17:30:17Z</time>
      </trkpt>
      <trkpt lat="45.25846" lon="4.47345">
        <ele>877</ele>
        <time>2019-02-26T17:31:17Z</time>
      </trkpt>
      <trkpt lat="45.25854" lon="4.47353">
        <ele>876</ele>
        <time>2019-02-26T17:32:17Z</time>
      </trkpt>
      <trkpt lat="45.25857" lon="4.47354">
        <ele>876</ele>
        <time>2019-02-26T17:33:17Z</time>
      </trkpt>
      <trkpt lat="45.25861" lon="4.47355">
        <ele>875</ele>
        <time>2019-02-26T17:34:17Z</time>
      </trkpt>
      <trkpt lat="45.25871" lon="4.47351">
        <ele>874</ele>
        <time>2019-02-26T17:35:17Z</time>
      </trkpt>
      <trkpt lat="45.25877" lon="4.47351">
        <ele>873</ele>
        <time>2019-02-26T17:36:17Z</time>
      </trkpt>
      <trkpt lat="45.25889" lon="4.47353">
        <ele>871</ele>
        <time>2019-02-26T17:37:17Z</time>
      </trkpt>
      <trkpt lat="45.25905" lon="4.47353">
        <ele>869</ele>
        <time>2019-02-26T17:38:17Z</time>
      </trkpt>
      <trkpt lat="45.259" lon="4.47345">
        <ele>870</ele>
        <time>2019-02-26T17:39:17Z</time>
      </trkpt>
      <trkpt lat="45.25907" lon="4.47355">
        <ele>869</ele>
        <time>2019-02-26T17:40:17Z</time>
      </trkpt>
      <trkpt lat="45.25927" lon="4.47383">
        <ele>865</ele>
        <time>2019-02-26T17:41:17Z</time>
      </trkpt>
      <trkpt lat="45.25985" lon="4.47478">
        <ele>859</ele>
        <time>2019-02-26T17:42:17Z</time>
      </trkpt>
      <trkpt lat="45.25998" lon="4.47499">
        <ele>858</ele>
        <time>2019-02-26T17:43:17Z</time>
      </trkpt>
      <trkpt lat="45.26011" lon="4.47524">
        <ele>859</ele>
        <time>2019-02-26T17:44:17Z</time>
      </trkpt>
      <trkpt lat="45.26022" lon="4.47544">
        <ele>859</ele>
        <time>2019-02-26T17:45:17Z</time>
      </trkpt>
      <trkpt lat="45.26032" lon="4.47572">
        <ele>858</ele>
        <time>2019-02-26T17:46:17Z</time>
      </trkpt>
      <trkpt lat="45.26036" lon="4.47582">
        <ele>858</ele>
        <time>2019-02-26T17:47:17Z</time>
      </trkpt>
      <trkpt lat="45.26039" lon="4.47592">
        <ele>858</ele>
        <time>2019-02-26T17:48:17Z</time>
      </trkpt>
      <trkpt lat="45.26042" lon="4.47603">
        <ele>857</ele>
        <time>2019-02-26T17:49:17Z</time>
      </trkpt>
      <trkpt lat="45.26051" lon="4.4764">
        <ele>855</ele>
        <time>2019-02-26T17:50:17Z</time>
      </trkpt>
      <trkpt lat="45.26055" lon="4.47666">
        <ele>854</ele>
        <time>2019-02-26T17:51:17Z</time>
      </trkpt>
      <trkpt lat="45.26057" lon="4.47684">
        <ele>853</ele>
        <time>2019-02-26T17:52:17Z</time>
      </trkpt>
      <trkpt lat="45.2606" lon="4.47719">
        <ele>850</ele>
        <time>2019-02-26T17:53:17Z</time>
      </trkpt>
      <trkpt lat="45.26061" lon="4.47743">
        <ele>849</ele>
        <time>2019-02-26T17:54:17Z</time>
      </trkpt>
      <trkpt lat="45.2606" lon="4.47781">
        <ele>847</ele>
        <time>2019-02-26T17:55:17Z</time>
      </trkpt>
      <trkpt lat="45.26058" lon="4.47806">
        <ele>846</ele>
        <time>2019-02-26T17:56:17Z</time>
      </trkpt>
      <trkpt lat="45.26048" lon="4.47887">
        <ele>847</ele>
        <time>2019-02-26T17:57:17Z</time>
      </trkpt>
      <trkpt lat="45.26046" lon="4.479">
        <ele>847</ele>
        <time>2019-02-26T17:58:17Z</time>
      </trkpt>
      <trkpt lat="45.26038" lon="4.47975">
        <ele>849</ele>
        <time>2019-02-26T17:59:17Z</time>
      </trkpt>
      <trkpt lat="45.26035" lon="4.48018">
        <ele>849</ele>
        <time>2019-02-26T18:00:17Z</time>
      </trkpt>
      <trkpt lat="45.26039" lon="4.481">
        <ele>842</ele>
        <time>2019-02-26T18:01:17Z</time>
      </trkpt>
      <trkpt lat="45.2604" lon="4.48111">
        <ele>842</ele>
        <time>2019-02-26T18:02:17Z</time>
      </trkpt>
      <trkpt lat="45.26046" lon="4.48148">
        <ele>839</ele>
        <time>2019-02-26T18:03:17Z</time>
      </trkpt>
      <trkpt lat="45.26049" lon="4.4817">
        <ele>838</ele>
        <time>2019-02-26T18:04:17Z</time>
      </trkpt>
      <trkpt lat="45.26053" lon="4.48184">
        <ele>839</ele>
        <time>2019-02-26T18:05:17Z</time>
      </trkpt>
      <trkpt lat="45.2607" lon="4.4824">
        <ele>839</ele>
        <time>2019-02-26T18:06:17Z</time>
      </trkpt>
      <trkpt lat="45.26125" lon="4.48376">
        <ele>833</ele>
        <time>2019-02-26T18:07:17Z</time>
      </trkpt>
      <trkpt lat="45.26133" lon="4.48396">
        <ele>831</ele>
        <time>2019-02-26T18:08:17Z</time>
      </trkpt>
      <trkpt lat="45.26151" lon="4.48441">
        <ele>828</ele>
        <time>2019-02-26T18:09:17Z</time>
      </trkpt>
      <trkpt lat="45.26165" lon="4.48482">
        <ele>828</ele>
        <time>2019-02-26T18:10:17Z</time>
      </trkpt>
      <trkpt lat="45.26175" lon="4.48512">
        <ele>827</ele>
        <time>2019-02-26T18:11:17Z</time>
      </trkpt>
      <trkpt lat="45.26198" lon="4.48598">
        <ele>823</ele>
        <time>2019-02-26T18:12:17Z</time>
      </trkpt>
      <trkpt lat="45.26207" lon="4.48639">
        <ele>820</ele>
        <time>2019-02-26T18:13:17Z</time>
      </trkpt>
      <trkpt lat="45.26215" lon="4.48691">
        <ele>818</ele>
        <time>2019-02-26T18:14:17Z</time>
      </trkpt>
      <trkpt lat="45.26217" lon="4.48707">
        <ele>817</ele>
        <time>2019-02-26T18:15:17Z</time>
      </trkpt>
      <trkpt lat="45.26218" lon="4.48725">
        <ele>817</ele>
        <time>2019-02-26T18:16:17Z</time>
      </trkpt>
      <trkpt lat="45.26228" lon="4.48811">
        <ele>820</ele>
        <time>2019-02-26T18:17:17Z</time>
      </trkpt>
      <trkpt lat="45.26245" lon="4.4899">
        <ele>829</ele>
        <time>2019-02-26T18:18:17Z</time>
      </trkpt>
      <trkpt lat="45.26246" lon="4.48993">
        <ele>829</ele>
        <time>2019-02-26T18:19:17Z</time>
      </trkpt>
      <trkpt lat="45.26249" lon="4.49036">
        <ele>826</ele>
        <time>2019-02-26T18:20:17Z</time>
      </trkpt>
      <trkpt lat="45.26256" lon="4.49116">
        <ele>819</ele>
        <time>2019-02-26T18:21:17Z</time>
      </trkpt>
      <trkpt lat="45.26258" lon="4.49125">
        <ele>818</ele>
        <time>2019-02-26T18:22:17Z</time>
      </trkpt>
      <trkpt lat="45.26262" lon="4.49165">
        <ele>814</ele>
        <time>2019-02-26T18:23:17Z</time>
      </trkpt>
      <trkpt lat="45.26271" lon="4.49218">
        <ele>812</ele>
        <time>2019-02-26T18:24:17Z</time>
      </trkpt>
      <trkpt lat="45.26276" lon="4.49241">
        <ele>811</ele>
        <time>2019-02-26T18:25:17Z</time>
      </trkpt>
      <trkpt lat="45.26288" lon="4.49281">
        <ele>812</ele>
        <time>2019-02-26T18:26:17Z</time>
      </trkpt>
      <trkpt lat="45.26292" lon="4.49291">
        <ele>812</ele>
        <time>2019-02-26T18:27:17Z</time>
      </trkpt>
      <trkpt lat="45.26302" lon="4.49314">
        <ele>813</ele>
        <time>2019-02-26T18:28:17Z</time>
      </trkpt>
      <trkpt lat="45.26333" lon="4.49376">
        <ele>819</ele>
        <time>2019-02-26T18:29:17Z</time>
      </trkpt>
      <trkpt lat="45.26345" lon="4.49397">
        <ele>819</ele>
        <time>2019-02-26T18:30:17Z</time>
      </trkpt>
      <trkpt lat="45.26361" lon="4.4942">
        <ele>818</ele>
        <time>2019-02-26T18:31:17Z</time>
      </trkpt>
      <trkpt lat="45.26374" lon="4.49434">
        <ele>816</ele>
        <time>2019-02-26T18:32:17Z</time>
      </trkpt>
      <trkpt lat="45.26385" lon="4.49445">
        <ele>815</ele>
        <time>2019-02-26T18:33:17Z</time>
      </trkpt>
      <trkpt lat="45.26412" lon="4.49475">
        <ele>814</ele>
        <time>2019-02-26T18:34:17Z</time>
      </trkpt>
      <trkpt lat="45.26432" lon="4.49496">
        <ele>812</ele>
        <time>2019-02-26T18:35:17Z</time>
      </trkpt>
      <trkpt lat="45.26476" lon="4.49549">
        <ele>807</ele>
        <time>2019-02-26T18:36:17Z</time>
      </trkpt>
      <trkpt lat="45.26516" lon="4.49596">
        <ele>803</ele>
        <time>2019-02-26T18:37:17Z</time>
      </trkpt>
      <trkpt lat="45.26567" lon="4.49652">
        <ele>800</ele>
        <time>2019-02-26T18:38:17Z</time>
      </trkpt>
      <trkpt lat="45.26572" lon="4.49657">
        <ele>799</ele>
        <time>2019-02-26T18:39:17Z</time>
      </trkpt>
      <trkpt lat="45.26597" lon="4.49693">
        <ele>799</ele>
        <time>2019-02-26T18:40:17Z</time>
      </trkpt>
      <trkpt lat="45.26606" lon="4.49707">
        <ele>799</ele>
        <time>2019-02-26T18:41:17Z</time>
      </trkpt>
      <trkpt lat="45.26626" lon="4.49741">
        <ele>799</ele>
        <time>2019-02-26T18:42:17Z</time>
      </trkpt>
      <trkpt lat="45.2664" lon="4.49769">
        <ele>799</ele>
        <time>2019-02-26T18:43:17Z</time>
      </trkpt>
      <trkpt lat="45.26693" lon="4.49875">
        <ele>795</ele>
        <time>2019-02-26T18:44:17Z</time>
      </trkpt>
      <trkpt lat="45.26702" lon="4.49896">
        <ele>795</ele>
        <time>2019-02-26T18:45:17Z</time>
      </trkpt>
      <trkpt lat="45.26713" lon="4.49921">
        <ele>794</ele>
        <time>2019-02-26T18:46:17Z</time>
      </trkpt>
      <trkpt lat="45.26723" lon="4.49952">
        <ele>793</ele>
        <time>2019-02-26T18:47:17Z</time>
      </trkpt>
      <trkpt lat="45.26728" lon="4.49968">
        <ele>793</ele>
        <time>2019-02-26T18:48:17Z</time>
      </trkpt>
      <trkpt lat="45.26746" lon="4.50054">
        <ele>793</ele>
        <time>2019-02-26T18:49:17Z</time>
      </trkpt>
      <trkpt lat="45.26746" lon="4.50061">
        <ele>794</ele>
        <time>2019-02-26T18:50:17Z</time>
      </trkpt>
      <trkpt lat="45.26748" lon="4.50076">
        <ele>794</ele>
        <time>2019-02-26T18:51:17Z</time>
      </trkpt>
      <trkpt lat="45.26751" lon="4.50091">
        <ele>793</ele>
        <time>2019-02-26T18:52:17Z</time>
      </trkpt>
      <trkpt lat="45.26763" lon="4.50167">
        <ele>787</ele>
        <time>2019-02-26T18:53:17Z</time>
      </trkpt>
      <trkpt lat="45.26777" lon="4.50229">
        <ele>785</ele>
        <time>2019-02-26T18:54:17Z</time>
      </trkpt>
      <trkpt lat="45.26798" lon="4.50286">
        <ele>785</ele>
        <time>2019-02-26T18:55:17Z</time>
      </trkpt>
      <trkpt lat="45.2681" lon="4.50316">
        <ele>786</ele>
        <time>2019-02-26T18:56:17Z</time>
      </trkpt>
      <trkpt lat="45.26823" lon="4.50339">
        <ele>786</ele>
        <time>2019-02-26T18:57:17Z</time>
      </trkpt>
      <trkpt lat="45.26831" lon="4.50355">
        <ele>786</ele>
        <time>2019-02-26T18:58:17Z</time>
      </trkpt>
      <trkpt lat="45.26855" lon="4.50392">
        <ele>786</ele>
        <time>2019-02-26T18:59:17Z</time>
      </trkpt>
      <trkpt lat="45.26861" lon="4.50402">
        <ele>786</ele>
        <time>2019-02-26T19:00:17Z</time>
      </trkpt>
      <trkpt lat="45.26868" lon="4.50413">
        <ele>786</ele>
        <time>2019-02-26T19:01:17Z</time>
      </trkpt>
      <trkpt lat="45.26876" lon="4.50424">
        <ele>786</ele>
        <time>2019-02-26T19:02:17Z</time>
      </trkpt>
      <trkpt lat="45.26905" lon="4.50456">
        <ele>786</ele>
        <time>2019-02-26T19:03:17Z</time>
      </trkpt>
      <trkpt lat="45.26914" lon="4.50466">
        <ele>786</ele>
        <time>2019-02-26T19:04:17Z</time>
      </trkpt>
      <trkpt lat="45.26934" lon="4.50485">
        <ele>784</ele>
        <time>2019-02-26T19:05:17Z</time>
      </trkpt>
      <trkpt lat="45.26946" lon="4.50496">
        <ele>784</ele>
        <time>2019-02-26T19:06:17Z</time>
      </trkpt>
      <trkpt lat="45.26968" lon="4.50518">
        <ele>784</ele>
        <time>2019-02-26T19:07:17Z</time>
      </trkpt>
      <trkpt lat="45.26998" lon="4.50548">
        <ele>785</ele>
        <time>2019-02-26T19:08:17Z</time>
      </trkpt>
      <trkpt lat="45.27016" lon="4.50568">
        <ele>786</ele>
        <time>2019-02-26T19:09:17Z</time>
      </trkpt>
      <trkpt lat="45.27024" lon="4.50577">
        <ele>786</ele>
        <time>2019-02-26T19:10:17Z</time>
      </trkpt>
      <trkpt lat="45.27043" lon="4.50606">
        <ele>788</ele>
        <time>2019-02-26T19:11:17Z</time>
      </trkpt>
      <trkpt lat="45.27049" lon="4.50615">
        <ele>788</ele>
        <time>2019-02-26T19:12:17Z</time>
      </trkpt>
      <trkpt lat="45.27065" lon="4.50644">
        <ele>790</ele>
        <time>2019-02-26T19:13:17Z</time>
      </trkpt>
      <trkpt lat="45.27066" lon="4.50646">
        <ele>790</ele>
        <time>2019-02-26T19:14:17Z</time>
      </trkpt>
      <trkpt lat="45.2707" lon="4.50656">
        <ele>790</ele>
        <time>2019-02-26T19:15:17Z</time>
      </trkpt>
      <trkpt lat="45.27073" lon="4.50665">
        <ele>791</ele>
        <time>2019-02-26T19:16:17Z</time>
      </trkpt>
      <trkpt lat="45.27079" lon="4.50675">
        <ele>791</ele>
        <time>2019-02-26T19:17:17Z</time>
      </trkpt>
      <trkpt lat="45.2709" lon="4.50701">
        <ele>789</ele>
        <time>2019-02-26T19:18:17Z</time>
      </trkpt>
      <trkpt lat="45.27107" lon="4.5075">
        <ele>786</ele>
        <time>2019-02-26T19:19:17Z</time>
      </trkpt>
      <trkpt lat="45.27118" lon="4.50784">
        <ele>785</ele>
        <time>2019-02-26T19:20:17Z</time>
      </trkpt>
      <trkpt lat="45.27202" lon="4.51076">
        <ele>770</ele>
        <time>2019-02-26T19:21:17Z</time>
      </trkpt>
      <trkpt lat="45.27205" lon="4.51086">
        <ele>770</ele>
        <time>2019-02-26T19:22:17Z</time>
      </trkpt>
      <trkpt lat="45.27218" lon="4.51136">
        <ele>770</ele>
        <time>2019-02-26T19:23:17Z</time>
      </trkpt>
      <trkpt lat="45.2722" lon="4.51144">
        <ele>770</ele>
        <time>2019-02-26T19:24:17Z</time>
      </trkpt>
      <trkpt lat="45.27227" lon="4.51183">
        <ele>771</ele>
        <time>2019-02-26T19:25:17Z</time>
      </trkpt>
      <trkpt lat="45.27228" lon="4.51193">
        <ele>771</ele>
        <time>2019-02-26T19:26:17Z</time>
      </trkpt>
      <trkpt lat="45.27231" lon="4.51224">
        <ele>771</ele>
        <time>2019-02-26T19:27:17Z</time>
      </trkpt>
      <trkpt lat="45.27232" lon="4.51234">
        <ele>771</ele>
        <time>2019-02-26T19:28:17Z</time>
      </trkpt>
      <trkpt lat="45.27232" lon="4.51257">
        <ele>772</ele>
        <time>2019-02-26T19:29:17Z</time>
      </trkpt>
      <trkpt lat="45.27232" lon="4.5128">
        <ele>772</ele>
        <time>2019-02-26T19:30:17Z</time>
      </trkpt>
      <trkpt lat="45.27227" lon="4.51386">
        <ele>769</ele>
        <time>2019-02-26T19:31:17Z</time>
      </trkpt>
      <trkpt lat="45.27225" lon="4.51402">
        <ele>768</ele>
        <time>2019-02-26T19:32:17Z</time>
      </trkpt>
      <trkpt lat="45.27225" lon="4.51414">
        <ele>768</ele>
        <time>2019-02-26T19:33:17Z</time>
      </trkpt>
      <trkpt lat="45.27226" lon="4.51443">
        <ele>765</ele>
        <time>2019-02-26T19:34:17Z</time>
      </trkpt>
      <trkpt lat="45.27227" lon="4.51453">
        <ele>764</ele>
        <time>2019-02-26T19:35:17Z</time>
      </trkpt>
      <trkpt lat="45.27234" lon="4.51508">
        <ele>759</ele>
        <time>2019-02-26T19:36:17Z</time>
      </trkpt>
      <trkpt lat="45.27235" lon="4.51517">
        <ele>759</ele>
        <time>2019-02-26T19:37:17Z</time>
      </trkpt>
      <trkpt lat="45.27243" lon="4.51548">
        <ele>759</ele>
        <time>2019-02-26T19:38:17Z</time>
      </trkpt>
      <trkpt lat="45.27244" lon="4.51553">
        <ele>759</ele>
        <time>2019-02-26T19:39:17Z</time>
      </trkpt>
      <trkpt lat="45.27258" lon="4.51594">
        <ele>760</ele>
        <time>2019-02-26T19:40:17Z</time>
      </trkpt>
      <trkpt lat="45.27261" lon="4.51603">
        <ele>762</ele>
        <time>2019-02-26T19:41:17Z</time>
      </trkpt>
      <trkpt lat="45.2727" lon="4.51619">
        <ele>765</ele>
        <time>2019-02-26T19:42:17Z</time>
      </trkpt>
      <trkpt lat="45.27272" lon="4.51623">
        <ele>766</ele>
        <time>2019-02-26T19:43:17Z</time>
      </trkpt>
      <trkpt lat="45.2728" lon="4.5163">
        <ele>767</ele>
        <time>2019-02-26T19:44:17Z</time>
      </trkpt>
      <trkpt lat="45.27285" lon="4.51634">
        <ele>767</ele>
        <time>2019-02-26T19:45:17Z</time>
      </trkpt>
      <trkpt lat="45.27322" lon="4.5166">
        <ele>767</ele>
        <time>2019-02-26T19:46:17Z</time>
      </trkpt>
      <trkpt lat="45.27329" lon="4.51664">
        <ele>767</ele>
        <time>2019-02-26T19:47:17Z</time>
      </trkpt>
      <trkpt lat="45.27335" lon="4.51667">
        <ele>767</ele>
        <time>2019-02-26T19:48:17Z</time>
      </trkpt>
      <trkpt lat="45.2734" lon="4.5167">
        <ele>767</ele>
        <time>2019-02-26T19:49:17Z</time>
      </trkpt>
      <trkpt lat="45.27356" lon="4.51675">
        <ele>767</ele>
        <time>2019-02-26T19:50:17Z</time>
      </trkpt>
      <trkpt lat="45.27372" lon="4.5168">
        <ele>766</ele>
        <time>2019-02-26T19:51:17Z</time>
      </trkpt>
      <trkpt lat="45.2739" lon="4.51685">
        <ele>766</ele>
        <time>2019-02-26T19:52:17Z</time>
      </trkpt>
      <trkpt lat="45.27399" lon="4.51687">
        <ele>765</ele>
        <time>2019-02-26T19:53:17Z</time>
      </trkpt>
      <trkpt lat="45.2744" lon="4.51697">
        <ele>762</ele>
        <time>2019-02-26T19:54:17Z</time>
      </trkpt>
      <trkpt lat="45.27447" lon="4.51699">
        <ele>761</ele>
        <time>2019-02-26T19:55:17Z</time>
      </trkpt>
      <trkpt lat="45.27453" lon="4.51702">
        <ele>760</ele>
        <time>2019-02-26T19:56:17Z</time>
      </trkpt>
      <trkpt lat="45.2746" lon="4.51706">
        <ele>760</ele>
        <time>2019-02-26T19:57:17Z</time>
      </trkpt>
      <trkpt lat="45.27478" lon="4.51721">
        <ele>760</ele>
        <time>2019-02-26T19:58:17Z</time>
      </trkpt>
      <trkpt lat="45.27483" lon="4.51727">
        <ele>760</ele>
        <time>2019-02-26T19:59:17Z</time>
      </trkpt>
      <trkpt lat="45.27488" lon="4.51738">
        <ele>761</ele>
        <time>2019-02-26T20:00:17Z</time>
      </trkpt>
      <trkpt lat="45.27491" lon="4.51745">
        <ele>762</ele>
        <time>2019-02-26T20:01:17Z</time>
      </trkpt>
      <trkpt lat="45.27495" lon="4.51766">
        <ele>763</ele>
        <time>2019-02-26T20:02:17Z</time>
      </trkpt>
      <trkpt lat="45.27496" lon="4.51774">
        <ele>763</ele>
        <time>2019-02-26T20:03:17Z</time>
      </trkpt>
      <trkpt lat="45.27496" lon="4.51784">
        <ele>763</ele>
        <time>2019-02-26T20:04:17Z</time>
      </trkpt>
      <trkpt lat="45.27494" lon="4.51819">
        <ele>765</ele>
        <time>2019-02-26T20:05:17Z</time>
      </trkpt>
      <trkpt lat="45.27494" lon="4.51827">
        <ele>766</ele>
        <time>2019-02-26T20:06:17Z</time>
      </trkpt>
      <trkpt lat="45.27495" lon="4.51842">
        <ele>766</ele>
        <time>2019-02-26T20:07:17Z</time>
      </trkpt>
      <trkpt lat="45.27496" lon="4.51851">
        <ele>766</ele>
        <time>2019-02-26T20:08:17Z</time>
      </trkpt>
      <trkpt lat="45.27502" lon="4.51878">
        <ele>764</ele>
        <time>2019-02-26T20:09:17Z</time>
      </trkpt>
      <trkpt lat="45.27504" lon="4.51885">
        <ele>763</ele>
        <time>2019-02-26T20:10:17Z</time>
      </trkpt>
      <trkpt lat="45.27509" lon="4.51897">
        <ele>761</ele>
        <time>2019-02-26T20:11:17Z</time>
      </trkpt>
      <trkpt lat="45.27511" lon="4.51903">
        <ele>761</ele>
        <time>2019-02-26T20:12:17Z</time>
      </trkpt>
      <trkpt lat="45.27514" lon="4.51925">
        <ele>759</ele>
        <time>2019-02-26T20:13:17Z</time>
      </trkpt>
      <trkpt lat="45.27515" lon="4.51932">
        <ele>758</ele>
        <time>2019-02-26T20:14:17Z</time>
      </trkpt>
      <trkpt lat="45.2751" lon="4.51968">
        <ele>757</ele>
        <time>2019-02-26T20:15:17Z</time>
      </trkpt>
      <trkpt lat="45.27508" lon="4.51978">
        <ele>757</ele>
        <time>2019-02-26T20:16:17Z</time>
      </trkpt>
      <trkpt lat="45.27503" lon="4.51996">
        <ele>757</ele>
        <time>2019-02-26T20:17:17Z</time>
      </trkpt>
      <trkpt lat="45.275" lon="4.52005">
        <ele>758</ele>
        <time>2019-02-26T20:18:17Z</time>
      </trkpt>
      <trkpt lat="45.2749" lon="4.52032">
        <ele>759</ele>
        <time>2019-02-26T20:19:17Z</time>
      </trkpt>
      <trkpt lat="45.2749" lon="4.52037">
        <ele>758</ele>
        <time>2019-02-26T20:20:17Z</time>
      </trkpt>
      <trkpt lat="45.2749" lon="4.52059">
        <ele>756</ele>
        <time>2019-02-26T20:21:17Z</time>
      </trkpt>
      <trkpt lat="45.27491" lon="4.52068">
        <ele>755</ele>
        <time>2019-02-26T20:22:17Z</time>
      </trkpt>
      <trkpt lat="45.27493" lon="4.52099">
        <ele>753</ele>
        <time>2019-02-26T20:23:17Z</time>
      </trkpt>
      <trkpt lat="45.27494" lon="4.52113">
        <ele>754</ele>
        <time>2019-02-26T20:24:17Z</time>
      </trkpt>
      <trkpt lat="45.27498" lon="4.52145">
        <ele>756</ele>
        <time>2019-02-26T20:25:17Z</time>
      </trkpt>
      <trkpt lat="45.275" lon="4.52149">
        <ele>756</ele>
        <time>2019-02-26T20:26:17Z</time>
      </trkpt>
      <trkpt lat="45.27504" lon="4.52158">
        <ele>755</ele>
        <time>2019-02-26T20:27:17Z</time>
      </trkpt>
      <trkpt lat="45.27509" lon="4.52163">
        <ele>755</ele>
        <time>2019-02-26T20:28:17Z</time>
      </trkpt>
      <trkpt lat="45.27514" lon="4.52167">
        <ele>754</ele>
        <time>2019-02-26T20:29:17Z</time>
      </trkpt>
      <trkpt lat="45.27543" lon="4.52178">
        <ele>751</ele>
        <time>2019-02-26T20:30:17Z</time>
      </trkpt>
      <trkpt lat="45.27548" lon="4.5218">
        <ele>750</ele>
        <time>2019-02-26T20:31:17Z</time>
      </trkpt>
      <trkpt lat="45.27553" lon="4.52184">
        <ele>750</ele>
        <time>2019-02-26T20:32:17Z</time>
      </trkpt>
      <trkpt lat="45.27558" lon="4.52187">
        <ele>750</ele>
        <time>2019-02-26T20:33:17Z</time>
      </trkpt>
      <trkpt lat="45.2757" lon="4.52196">
        <ele>750</ele>
        <time>2019-02-26T20:34:17Z</time>
      </trkpt>
      <trkpt lat="45.27575" lon="4.52201">
        <ele>751</ele>
        <time>2019-02-26T20:35:17Z</time>
      </trkpt>
      <trkpt lat="45.2763" lon="4.52252">
        <ele>753</ele>
        <time>2019-02-26T20:36:17Z</time>
      </trkpt>
      <trkpt lat="45.27638" lon="4.52259">
        <ele>753</ele>
        <time>2019-02-26T20:37:17Z</time>
      </trkpt>
      <trkpt lat="45.27645" lon="4.52266">
        <ele>753</ele>
        <time>2019-02-26T20:38:17Z</time>
      </trkpt>
      <trkpt lat="45.27657" lon="4.5228">
        <ele>754</ele>
        <time>2019-02-26T20:39:17Z</time>
      </trkpt>
      <trkpt lat="45.27663" lon="4.52288">
        <ele>754</ele>
        <time>2019-02-26T20:40:17Z</time>
      </trkpt>
      <trkpt lat="45.27677" lon="4.5231">
        <ele>754</ele>
        <time>2019-02-26T20:41:17Z</time>
      </trkpt>
      <trkpt lat="45.27683" lon="4.52319">
        <ele>754</ele>
        <time>2019-02-26T20:42:17Z</time>
      </trkpt>
      <trkpt lat="45.27689" lon="4.52327">
        <ele>753</ele>
        <time>2019-02-26T20:43:17Z</time>
      </trkpt>
      <trkpt lat="45.27694" lon="4.52334">
        <ele>753</ele>
        <time>2019-02-26T20:44:17Z</time>
      </trkpt>
      <trkpt lat="45.277" lon="4.52346">
        <ele>751</ele>
        <time>2019-02-26T20:45:17Z</time>
      </trkpt>
      <trkpt lat="45.27706" lon="4.52361">
        <ele>749</ele>
        <time>2019-02-26T20:46:17Z</time>
      </trkpt>
      <trkpt lat="45.27708" lon="4.52369">
        <ele>749</ele>
        <time>2019-02-26T20:47:17Z</time>
      </trkpt>
      <trkpt lat="45.27709" lon="4.52382">
        <ele>749</ele>
        <time>2019-02-26T20:48:17Z</time>
      </trkpt>
      <trkpt lat="45.27708" lon="4.52396">
        <ele>750</ele>
        <time>2019-02-26T20:49:17Z</time>
      </trkpt>
      <trkpt lat="45.27705" lon="4.52413">
        <ele>751</ele>
        <time>2019-02-26T20:50:17Z</time>
      </trkpt>
      <trkpt lat="45.27698" lon="4.52431">
        <ele>751</ele>
        <time>2019-02-26T20:51:17Z</time>
      </trkpt>
      <trkpt lat="45.27689" lon="4.52446">
        <ele>751</ele>
        <time>2019-02-26T20:52:17Z</time>
      </trkpt>
      <trkpt lat="45.27676" lon="4.52464">
        <ele>751</ele>
        <time>2019-02-26T20:53:17Z</time>
      </trkpt>
      <trkpt lat="45.27657" lon="4.52488">
        <ele>752</ele>
        <time>2019-02-26T20:54:17Z</time>
      </trkpt>
      <trkpt lat="45.27636" lon="4.52518">
        <ele>750</ele>
        <time>2019-02-26T20:55:17Z</time>
      </trkpt>
      <trkpt lat="45.27602" lon="4.52568">
        <ele>748</ele>
        <time>2019-02-26T20:56:17Z</time>
      </trkpt>
      <trkpt lat="45.2758" lon="4.52599">
        <ele>746</ele>
        <time>2019-02-26T20:57:17Z</time>
      </trkpt>
      <trkpt lat="45.27571" lon="4.52614">
        <ele>744</ele>
        <time>2019-02-26T20:58:17Z</time>
      </trkpt>
      <trkpt lat="45.2756" lon="4.5263">
        <ele>742</ele>
        <time>2019-02-26T20:59:17Z</time>
      </trkpt>
      <trkpt lat="45.27554" lon="4.52641">
        <ele>740</ele>
        <time>2019-02-26T21:00:17Z</time>
      </trkpt>
      <trkpt lat="45.27545" lon="4.52651">
        <ele>739</ele>
        <time>2019-02-26T21:01:17Z</time>
      </trkpt>
      <trkpt lat="45.27528" lon="4.52668">
        <ele>739</ele>
        <time>2019-02-26T21:02:17Z</time>
      </trkpt>
      <trkpt lat="45.27517" lon="4.52677">
        <ele>739</ele>
        <time>2019-02-26T21:03:17Z</time>
      </trkpt>
      <trkpt lat="45.27487" lon="4.52696">
        <ele>739</ele>
        <time>2019-02-26T21:04:17Z</time>
      </trkpt>
      <trkpt lat="45.27478" lon="4.52702">
        <ele>739</ele>
        <time>2019-02-26T21:05:17Z</time>
      </trkpt>
      <trkpt lat="45.27465" lon="4.52715">
        <ele>738</ele>
        <time>2019-02-26T21:06:17Z</time>
      </trkpt>
      <trkpt lat="45.27459" lon="4.52722">
        <ele>737</ele>
        <time>2019-02-26T21:07:17Z</time>
      </trkpt>
      <trkpt lat="45.27451" lon="4.52733">
        <ele>736</ele>
        <time>2019-02-26T21:08:17Z</time>
      </trkpt>
      <trkpt lat="45.27433" lon="4.52759">
        <ele>733</ele>
        <time>2019-02-26T21:09:17Z</time>
      </trkpt>
      <trkpt lat="45.2739" lon="4.52818">
        <ele>733</ele>
        <time>2019-02-26T21:10:17Z</time>
      </trkpt>
      <trkpt lat="45.27377" lon="4.52834">
        <ele>732</ele>
        <time>2019-02-26T21:11:17Z</time>
      </trkpt>
      <trkpt lat="45.27354" lon="4.52872">
        <ele>731</ele>
        <time>2019-02-26T21:12:17Z</time>
      </trkpt>
      <trkpt lat="45.27344" lon="4.52893">
        <ele>731</ele>
        <time>2019-02-26T21:13:17Z</time>
      </trkpt>
      <trkpt lat="45.27324" lon="4.52939">
        <ele>733</ele>
        <time>2019-02-26T21:14:17Z</time>
      </trkpt>
      <trkpt lat="45.27316" lon="4.52968">
        <ele>734</ele>
        <time>2019-02-26T21:15:17Z</time>
      </trkpt>
      <trkpt lat="45.27307" lon="4.53012">
        <ele>735</ele>
        <time>2019-02-26T21:16:17Z</time>
      </trkpt>
      <trkpt lat="45.27303" lon="4.53044">
        <ele>733</ele>
        <time>2019-02-26T21:17:17Z</time>
      </trkpt>
      <trkpt lat="45.273" lon="4.53081">
        <ele>731</ele>
        <time>2019-02-26T21:18:17Z</time>
      </trkpt>
      <trkpt lat="45.273" lon="4.53092">
        <ele>730</ele>
        <time>2019-02-26T21:19:17Z</time>
      </trkpt>
      <trkpt lat="45.27299" lon="4.53097">
        <ele>730</ele>
        <time>2019-02-26T21:20:17Z</time>
      </trkpt>
      <trkpt lat="45.273" lon="4.53136">
        <ele>725</ele>
        <time>2019-02-26T21:21:17Z</time>
      </trkpt>
      <trkpt lat="45.27301" lon="4.53162">
        <ele>722</ele>
        <time>2019-02-26T21:22:17Z</time>
      </trkpt>
      <trkpt lat="45.27305" lon="4.53187">
        <ele>722</ele>
        <time>2019-02-26T21:23:17Z</time>
      </trkpt>
      <trkpt lat="45.2731" lon="4.53215">
        <ele>722</ele>
        <time>2019-02-26T21:24:17Z</time>
      </trkpt>
      <trkpt lat="45.27317" lon="4.53242">
        <ele>722</ele>
        <time>2019-02-26T21:25:17Z</time>
      </trkpt>
      <trkpt lat="45.27321" lon="4.53256">
        <ele>724</ele>
        <time>2019-02-26T21:26:17Z</time>
      </trkpt>
      <trkpt lat="45.27326" lon="4.53268">
        <ele>726</ele>
        <time>2019-02-26T21:27:17Z</time>
      </trkpt>
      <trkpt lat="45.27328" lon="4.53272">
        <ele>726</ele>
        <time>2019-02-26T21:28:17Z</time>
      </trkpt>
      <trkpt lat="45.2733" lon="4.53273">
        <ele>727</ele>
        <time>2019-02-26T21:29:17Z</time>
      </trkpt>
      <trkpt lat="45.27335" lon="4.53278">
        <ele>727</ele>
        <time>2019-02-26T21:30:17Z</time>
      </trkpt>
      <trkpt lat="45.27344" lon="4.53282">
        <ele>729</ele>
        <time>2019-02-26T21:31:17Z</time>
      </trkpt>
      <trkpt lat="45.27354" lon="4.53282">
        <ele>730</ele>
        <time>2019-02-26T21:32:17Z</time>
      </trkpt>
      <trkpt lat="45.27373" lon="4.53278">
        <ele>730</ele>
        <time>2019-02-26T21:33:17Z</time>
      </trkpt>
      <trkpt lat="45.27395" lon="4.53264">
        <ele>729</ele>
        <time>2019-02-26T21:34:17Z</time>
      </trkpt>
      <trkpt lat="45.27417" lon="4.53248">
        <ele>728</ele>
        <time>2019-02-26T21:35:17Z</time>
      </trkpt>
      <trkpt lat="45.27426" lon="4.5324">
        <ele>728</ele>
        <time>2019-02-26T21:36:17Z</time>
      </trkpt>
      <trkpt lat="45.27432" lon="4.53232">
        <ele>727</ele>
        <time>2019-02-26T21:37:17Z</time>
      </trkpt>
      <trkpt lat="45.27437" lon="4.53224">
        <ele>727</ele>
        <time>2019-02-26T21:38:17Z</time>
      </trkpt>
      <trkpt lat="45.27446" lon="4.53206">
        <ele>726</ele>
        <time>2019-02-26T21:39:17Z</time>
      </trkpt>
      <trkpt lat="45.27455" lon="4.53191">
        <ele>725</ele>
        <time>2019-02-26T21:40:17Z</time>
      </trkpt>
      <trkpt lat="45.27466" lon="4.53177">
        <ele>725</ele>
        <time>2019-02-26T21:41:17Z</time>
      </trkpt>
      <trkpt lat="45.27482" lon="4.53164">
        <ele>726</ele>
        <time>2019-02-26T21:42:17Z</time>
      </trkpt>
      <trkpt lat="45.27498" lon="4.53156">
        <ele>727</ele>
        <time>2019-02-26T21:43:17Z</time>
      </trkpt>
      <trkpt lat="45.27508" lon="4.53152">
        <ele>727</ele>
        <time>2019-02-26T21:44:17Z</time>
      </trkpt>
      <trkpt lat="45.27524" lon="4.53149">
        <ele>725</ele>
        <time>2019-02-26T21:45:17Z</time>
      </trkpt>
      <trkpt lat="45.27537" lon="4.53149">
        <ele>724</ele>
        <time>2019-02-26T21:46:17Z</time>
      </trkpt>
      <trkpt lat="45.27546" lon="4.53151">
        <ele>724</ele>
        <time>2019-02-26T21:47:17Z</time>
      </trkpt>
      <trkpt lat="45.27553" lon="4.53155">
        <ele>724</ele>
        <time>2019-02-26T21:48:17Z</time>
      </trkpt>
      <trkpt lat="45.27561" lon="4.53163">
        <ele>725</ele>
        <time>2019-02-26T21:49:17Z</time>
      </trkpt>
      <trkpt lat="45.27578" lon="4.53192">
        <ele>726</ele>
        <time>2019-02-26T21:50:17Z</time>
      </trkpt>
      <trkpt lat="45.27584" lon="4.53201">
        <ele>727</ele>
        <time>2019-02-26T21:51:17Z</time>
      </trkpt>
      <trkpt lat="45.27593" lon="4.5321">
        <ele>726</ele>
        <time>2019-02-26T21:52:17Z</time>
      </trkpt>
      <trkpt lat="45.27598" lon="4.53214">
        <ele>726</ele>
        <time>2019-02-26T21:53:17Z</time>
      </trkpt>
      <trkpt lat="45.27608" lon="4.53222">
        <ele>725</ele>
        <time>2019-02-26T21:54:17Z</time>
      </trkpt>
      <trkpt lat="45.2763" lon="4.53233">
        <ele>722</ele>
        <time>2019-02-26T21:55:17Z</time>
      </trkpt>
      <trkpt lat="45.27643" lon="4.53243">
        <ele>722</ele>
        <time>2019-02-26T21:56:17Z</time>
      </trkpt>
      <trkpt lat="45.27652" lon="4.53251">
        <ele>721</ele>
        <time>2019-02-26T21:57:17Z</time>
      </trkpt>
      <trkpt lat="45.27659" lon="4.53264">
        <ele>720</ele>
        <time>2019-02-26T21:58:17Z</time>
      </trkpt>
      <trkpt lat="45.27662" lon="4.53269">
        <ele>720</ele>
        <time>2019-02-26T21:59:17Z</time>
      </trkpt>
      <trkpt lat="45.27665" lon="4.53281">
        <ele>719</ele>
        <time>2019-02-26T22:00:17Z</time>
      </trkpt>
      <trkpt lat="45.27666" lon="4.53289">
        <ele>719</ele>
        <time>2019-02-26T22:01:17Z</time>
      </trkpt>
      <trkpt lat="45.27666" lon="4.53298">
        <ele>719</ele>
        <time>2019-02-26T22:02:17Z</time>
      </trkpt>
      <trkpt lat="45.27663" lon="4.53337">
        <ele>719</ele>
        <time>2019-02-26T22:03:17Z</time>
      </trkpt>
      <trkpt lat="45.2766" lon="4.53363">
        <ele>717</ele>
        <time>2019-02-26T22:04:17Z</time>
      </trkpt>
      <trkpt lat="45.27651" lon="4.53398">
        <ele>717</ele>
        <time>2019-02-26T22:05:17Z</time>
      </trkpt>
      <trkpt lat="45.27643" lon="4.53424">
        <ele>717</ele>
        <time>2019-02-26T22:06:17Z</time>
      </trkpt>
      <trkpt lat="45.27638" lon="4.53434">
        <ele>718</ele>
        <time>2019-02-26T22:07:17Z</time>
      </trkpt>
      <trkpt lat="45.27633" lon="4.53442">
        <ele>718</ele>
        <time>2019-02-26T22:08:17Z</time>
      </trkpt>
      <trkpt lat="45.27615" lon="4.53464">
        <ele>721</ele>
        <time>2019-02-26T22:09:17Z</time>
      </trkpt>
      <trkpt lat="45.27608" lon="4.5348">
        <ele>721</ele>
        <time>2019-02-26T22:10:17Z</time>
      </trkpt>
      <trkpt lat="45.27607" lon="4.53495">
        <ele>720</ele>
        <time>2019-02-26T22:11:17Z</time>
      </trkpt>
      <trkpt lat="45.27608" lon="4.53506">
        <ele>719</ele>
        <time>2019-02-26T22:12:17Z</time>
      </trkpt>
      <trkpt lat="45.2761" lon="4.53509">
        <ele>719</ele>
        <time>2019-02-26T22:13:17Z</time>
      </trkpt>
      <trkpt lat="45.27612" lon="4.53515">
        <ele>718</ele>
        <time>2019-02-26T22:14:17Z</time>
      </trkpt>
      <trkpt lat="45.2762" lon="4.53529">
        <ele>716</ele>
        <time>2019-02-26T22:15:17Z</time>
      </trkpt>
      <trkpt lat="45.27631" lon="4.53552">
        <ele>713</ele>
        <time>2019-02-26T22:16:17Z</time>
      </trkpt>
      <trkpt lat="45.27635" lon="4.53565">
        <ele>711</ele>
        <time>2019-02-26T22:17:17Z</time>
      </trkpt>
      <trkpt lat="45.27637" lon="4.5358">
        <ele>710</ele>
        <time>2019-02-26T22:18:17Z</time>
      </trkpt>
      <trkpt lat="45.27635" lon="4.53591">
        <ele>710</ele>
        <time>2019-02-26T22:19:17Z</time>
      </trkpt>
      <trkpt lat="45.27631" lon="4.53605">
        <ele>710</ele>
        <time>2019-02-26T22:20:17Z</time>
      </trkpt>
      <trkpt lat="45.27608" lon="4.53663">
        <ele>711</ele>
        <time>2019-02-26T22:21:17Z</time>
      </trkpt>
      <trkpt lat="45.276" lon="4.53682">
        <ele>712</ele>
        <time>2019-02-26T22:22:17Z</time>
      </trkpt>
      <trkpt lat="45.27598" lon="4.53691">
        <ele>712</ele>
        <time>2019-02-26T22:23:17Z</time>
      </trkpt>
      <trkpt lat="45.27597" lon="4.53699">
        <ele>713</ele>
        <time>2019-02-26T22:24:17Z</time>
      </trkpt>
      <trkpt lat="45.27601" lon="4.53734">
        <ele>711</ele>
        <time>2019-02-26T22:25:17Z</time>
      </trkpt>
      <trkpt lat="45.27606" lon="4.53782">
        <ele>710</ele>
        <time>2019-02-26T22:26:17Z</time>
      </trkpt>
      <trkpt lat="45.27611" lon="4.53831">
        <ele>709</ele>
        <time>2019-02-26T22:27:17Z</time>
      </trkpt>
      <trkpt lat="45.27615" lon="4.53873">
        <ele>708</ele>
        <time>2019-02-26T22:28:17Z</time>
      </trkpt>
      <trkpt lat="45.27619" lon="4.539">
        <ele>707</ele>
        <time>2019-02-26T22:29:17Z</time>
      </trkpt>
      <trkpt lat="45.27623" lon="4.5392">
        <ele>706</ele>
        <time>2019-02-26T22:30:17Z</time>
      </trkpt>
      <trkpt lat="45.27637" lon="4.5396">
        <ele>702</ele>
        <time>2019-02-26T22:31:17Z</time>
      </trkpt>
      <trkpt lat="45.27643" lon="4.53978">
        <ele>701</ele>
        <time>2019-02-26T22:32:17Z</time>
      </trkpt>
      <trkpt lat="45.27659" lon="4.54019">
        <ele>700</ele>
        <time>2019-02-26T22:33:17Z</time>
      </trkpt>
      <trkpt lat="45.27661" lon="4.54027">
        <ele>700</ele>
        <time>2019-02-26T22:34:17Z</time>
      </trkpt>
      <trkpt lat="45.27668" lon="4.54035">
        <ele>700</ele>
        <time>2019-02-26T22:35:17Z</time>
      </trkpt>
      <trkpt lat="45.2771" lon="4.54091">
        <ele>701</ele>
        <time>2019-02-26T22:36:17Z</time>
      </trkpt>
      <trkpt lat="45.27719" lon="4.54103">
        <ele>702</ele>
        <time>2019-02-26T22:37:17Z</time>
      </trkpt>
      <trkpt lat="45.27739" lon="4.5412">
        <ele>701</ele>
        <time>2019-02-26T22:38:17Z</time>
      </trkpt>
      <trkpt lat="45.2776" lon="4.54136">
        <ele>702</ele>
        <time>2019-02-26T22:39:17Z</time>
      </trkpt>
      <trkpt lat="45.27773" lon="4.54146">
        <ele>704</ele>
        <time>2019-02-26T22:40:17Z</time>
      </trkpt>
      <trkpt lat="45.27783" lon="4.54152">
        <ele>705</ele>
        <time>2019-02-26T22:41:17Z</time>
      </trkpt>
      <trkpt lat="45.27785" lon="4.54152">
        <ele>705</ele>
        <time>2019-02-26T22:42:17Z</time>
      </trkpt>
      <trkpt lat="45.2779" lon="4.54146">
        <ele>705</ele>
        <time>2019-02-26T22:43:17Z</time>
      </trkpt>
      <trkpt lat="45.27797" lon="4.54136">
        <ele>705</ele>
        <time>2019-02-26T22:44:17Z</time>
      </trkpt>
      <trkpt lat="45.27805" lon="4.54124">
        <ele>705</ele>
        <time>2019-02-26T22:45:17Z</time>
      </trkpt>
      <trkpt lat="45.27811" lon="4.54107">
        <ele>704</ele>
        <time>2019-02-26T22:46:17Z</time>
      </trkpt>
      <trkpt lat="45.27805" lon="4.5406">
        <ele>698</ele>
        <time>2019-02-26T22:47:17Z</time>
      </trkpt>
      <trkpt lat="45.27805" lon="4.54047">
        <ele>695</ele>
        <time>2019-02-26T22:48:17Z</time>
      </trkpt>
      <trkpt lat="45.27816" lon="4.54025">
        <ele>692</ele>
        <time>2019-02-26T22:49:17Z</time>
      </trkpt>
      <trkpt lat="45.27825" lon="4.5401">
        <ele>690</ele>
        <time>2019-02-26T22:50:17Z</time>
      </trkpt>
      <trkpt lat="45.27838" lon="4.53991">
        <ele>687</ele>
        <time>2019-02-26T22:51:17Z</time>
      </trkpt>
      <trkpt lat="45.27858" lon="4.53967">
        <ele>684</ele>
        <time>2019-02-26T22:52:17Z</time>
      </trkpt>
      <trkpt lat="45.27878" lon="4.53947">
        <ele>682</ele>
        <time>2019-02-26T22:53:17Z</time>
      </trkpt>
      <trkpt lat="45.27881" lon="4.53942">
        <ele>681</ele>
        <time>2019-02-26T22:54:17Z</time>
      </trkpt>
      <trkpt lat="45.27883" lon="4.5393">
        <ele>678</ele>
        <time>2019-02-26T22:55:17Z</time>
      </trkpt>
      <trkpt lat="45.27888" lon="4.53923">
        <ele>677</ele>
        <time>2019-02-26T22:56:17Z</time>
      </trkpt>
      <trkpt lat="45.279" lon="4.53913">
        <ele>676</ele>
        <time>2019-02-26T22:57:17Z</time>
      </trkpt>
      <trkpt lat="45.279" lon="4.53912">
        <ele>676</ele>
        <time>2019-02-26T22:58:17Z</time>
      </trkpt>
      <trkpt lat="45.27913" lon="4.53907">
        <ele>677</ele>
        <time>2019-02-26T22:59:17Z</time>
      </trkpt>
      <trkpt lat="45.2793" lon="4.53897">
        <ele>678</ele>
        <time>2019-02-26T23:00:17Z</time>
      </trkpt>
      <trkpt lat="45.2796" lon="4.53894">
        <ele>682</ele>
        <time>2019-02-26T23:01:17Z</time>
      </trkpt>
      <trkpt lat="45.27975" lon="4.53902">
        <ele>686</ele>
        <time>2019-02-26T23:02:17Z</time>
      </trkpt>
      <trkpt lat="45.27989" lon="4.53911">
        <ele>689</ele>
        <time>2019-02-26T23:03:17Z</time>
      </trkpt>
      <trkpt lat="45.28009" lon="4.53929">
        <ele>693</ele>
        <time>2019-02-26T23:04:17Z</time>
      </trkpt>
      <trkpt lat="45.28025" lon="4.53941">
        <ele>693</ele>
        <time>2019-02-26T23:05:17Z</time>
      </trkpt>
      <trkpt lat="45.28037" lon="4.53956">
        <ele>695</ele>
        <time>2019-02-26T23:06:17Z</time>
      </trkpt>
      <trkpt lat="45.28052" lon="4.53983">
        <ele>698</ele>
        <time>2019-02-26T23:07:17Z</time>
      </trkpt>
      <trkpt lat="45.28052" lon="4.53984">
        <ele>698</ele>
        <time>2019-02-26T23:08:17Z</time>
      </trkpt>
      <trkpt lat="45.28062" lon="4.53989">
        <ele>698</ele>
        <time>2019-02-26T23:09:17Z</time>
      </trkpt>
      <trkpt lat="45.28066" lon="4.53993">
        <ele>699</ele>
        <time>2019-02-26T23:10:17Z</time>
      </trkpt>
      <trkpt lat="45.2807" lon="4.53997">
        <ele>699</ele>
        <time>2019-02-26T23:11:17Z</time>
      </trkpt>
      <trkpt lat="45.28098" lon="4.5404">
        <ele>699</ele>
        <time>2019-02-26T23:12:17Z</time>
      </trkpt>
      <trkpt lat="45.28157" lon="4.54107">
        <ele>696</ele>
        <time>2019-02-26T23:13:17Z</time>
      </trkpt>
      <trkpt lat="45.28166" lon="4.54113">
        <ele>695</ele>
        <time>2019-02-26T23:14:17Z</time>
      </trkpt>
      <trkpt lat="45.28176" lon="4.54121">
        <ele>693</ele>
        <time>2019-02-26T23:15:17Z</time>
      </trkpt>
      <trkpt lat="45.28203" lon="4.54136">
        <ele>689</ele>
        <time>2019-02-26T23:16:17Z</time>
      </trkpt>
      <trkpt lat="45.28208" lon="4.5414">
        <ele>688</ele>
        <time>2019-02-26T23:17:17Z</time>
      </trkpt>
      <trkpt lat="45.28214" lon="4.54144">
        <ele>688</ele>
        <time>2019-02-26T23:18:17Z</time>
      </trkpt>
      <trkpt lat="45.2822" lon="4.54149">
        <ele>687</ele>
        <time>2019-02-26T23:19:17Z</time>
      </trkpt>
      <trkpt lat="45.28237" lon="4.54161">
        <ele>686</ele>
        <time>2019-02-26T23:20:17Z</time>
      </trkpt>
      <trkpt lat="45.28246" lon="4.54167">
        <ele>685</ele>
        <time>2019-02-26T23:21:17Z</time>
      </trkpt>
      <trkpt lat="45.28273" lon="4.54183">
        <ele>680</ele>
        <time>2019-02-26T23:22:17Z</time>
      </trkpt>
      <trkpt lat="45.28287" lon="4.54192">
        <ele>678</ele>
        <time>2019-02-26T23:23:17Z</time>
      </trkpt>
      <trkpt lat="45.28298" lon="4.54201">
        <ele>676</ele>
        <time>2019-02-26T23:24:17Z</time>
      </trkpt>
      <trkpt lat="45.28307" lon="4.54209">
        <ele>675</ele>
        <time>2019-02-26T23:25:17Z</time>
      </trkpt>
      <trkpt lat="45.28313" lon="4.54218">
        <ele>675</ele>
        <time>2019-02-26T23:26:17Z</time>
      </trkpt>
      <trkpt lat="45.28321" lon="4.54226">
        <ele>674</ele>
        <time>2019-02-26T23:27:17Z</time>
      </trkpt>
      <trkpt lat="45.28367" lon="4.54308">
        <ele>664</ele>
        <time>2019-02-26T23:28:17Z</time>
      </trkpt>
      <trkpt lat="45.28373" lon="4.54319">
        <ele>663</ele>
        <time>2019-02-26T23:29:17Z</time>
      </trkpt>
      <trkpt lat="45.28386" lon="4.54346">
        <ele>659</ele>
        <time>2019-02-26T23:30:17Z</time>
      </trkpt>
      <trkpt lat="45.2839" lon="4.54354">
        <ele>657</ele>
        <time>2019-02-26T23:31:17Z</time>
      </trkpt>
      <trkpt lat="45.28392" lon="4.54363">
        <ele>657</ele>
        <time>2019-02-26T23:32:17Z</time>
      </trkpt>
      <trkpt lat="45.28395" lon="4.54372">
        <ele>656</ele>
        <time>2019-02-26T23:33:17Z</time>
      </trkpt>
      <trkpt lat="45.28402" lon="4.54411">
        <ele>655</ele>
        <time>2019-02-26T23:34:17Z</time>
      </trkpt>
      <trkpt lat="45.28409" lon="4.54448">
        <ele>655</ele>
        <time>2019-02-26T23:35:17Z</time>
      </trkpt>
      <trkpt lat="45.28411" lon="4.54457">
        <ele>655</ele>
        <time>2019-02-26T23:36:17Z</time>
      </trkpt>
      <trkpt lat="45.2841" lon="4.54474">
        <ele>656</ele>
        <time>2019-02-26T23:37:17Z</time>
      </trkpt>
      <trkpt lat="45.28409" lon="4.54484">
        <ele>657</ele>
        <time>2019-02-26T23:38:17Z</time>
      </trkpt>
      <trkpt lat="45.28409" lon="4.54494">
        <ele>658</ele>
        <time>2019-02-26T23:39:17Z</time>
      </trkpt>
      <trkpt lat="45.28411" lon="4.54501">
        <ele>658</ele>
        <time>2019-02-26T23:40:17Z</time>
      </trkpt>
      <trkpt lat="45.28418" lon="4.54519">
        <ele>656</ele>
        <time>2019-02-26T23:41:17Z</time>
      </trkpt>
      <trkpt lat="45.28424" lon="4.54534">
        <ele>654</ele>
        <time>2019-02-26T23:42:17Z</time>
      </trkpt>
      <trkpt lat="45.28436" lon="4.54567">
        <ele>650</ele>
        <time>2019-02-26T23:43:17Z</time>
      </trkpt>
      <trkpt lat="45.28439" lon="4.54573">
        <ele>649</ele>
        <time>2019-02-26T23:44:17Z</time>
      </trkpt>
      <trkpt lat="45.28463" lon="4.54644">
        <ele>643</ele>
        <time>2019-02-26T23:45:17Z</time>
      </trkpt>
      <trkpt lat="45.28487" lon="4.54709">
        <ele>633</ele>
        <time>2019-02-26T23:46:17Z</time>
      </trkpt>
      <trkpt lat="45.28491" lon="4.54724">
        <ele>632</ele>
        <time>2019-02-26T23:47:17Z</time>
      </trkpt>
      <trkpt lat="45.28495" lon="4.54741">
        <ele>630</ele>
        <time>2019-02-26T23:48:17Z</time>
      </trkpt>
      <trkpt lat="45.28503" lon="4.54782">
        <ele>626</ele>
        <time>2019-02-26T23:49:17Z</time>
      </trkpt>
      <trkpt lat="45.28506" lon="4.54792">
        <ele>625</ele>
        <time>2019-02-26T23:50:17Z</time>
      </trkpt>
      <trkpt lat="45.28509" lon="4.54796">
        <ele>624</ele>
        <time>2019-02-26T23:51:17Z</time>
      </trkpt>
      <trkpt lat="45.28515" lon="4.54799">
        <ele>622</ele>
        <time>2019-02-26T23:52:17Z</time>
      </trkpt>
      <trkpt lat="45.28518" lon="4.54802">
        <ele>621</ele>
        <time>2019-02-26T23:53:17Z</time>
      </trkpt>
      <trkpt lat="45.2852" lon="4.54809">
        <ele>620</ele>
        <time>2019-02-26T23:54:17Z</time>
      </trkpt>
      <trkpt lat="45.28521" lon="4.54816">
        <ele>619</ele>
        <time>2019-02-26T23:55:17Z</time>
      </trkpt>
      <trkpt lat="45.28521" lon="4.54823">
        <ele>619</ele>
        <time>2019-02-26T23:56:17Z</time>
      </trkpt>
      <trkpt lat="45.28521" lon="4.54833">
        <ele>619</ele>
        <time>2019-02-26T23:57:17Z</time>
      </trkpt>
      <trkpt lat="45.28518" lon="4.54841">
        <ele>619</ele>
        <time>2019-02-26T23:58:17Z</time>
      </trkpt>
      <trkpt lat="45.28508" lon="4.54864">
        <ele>619</ele>
        <time>2019-02-26T23:59:17Z</time>
      </trkpt>
      <trkpt lat="45.28501" lon="4.54878">
        <ele>620</ele>
        <time>2019-02-27T00:00:17Z</time>
      </trkpt>
      <trkpt lat="45.28498" lon="4.54886">
        <ele>620</ele>
        <time>2019-02-27T00:01:17Z</time>
      </trkpt>
      <trkpt lat="45.28496" lon="4.54899">
        <ele>619</ele>
        <time>2019-02-27T00:02:17Z</time>
      </trkpt>
      <trkpt lat="45.28493" lon="4.54905">
        <ele>620</ele>
        <time>2019-02-27T00:03:17Z</time>
      </trkpt>
      <trkpt lat="45.28489" lon="4.54912">
        <ele>620</ele>
        <time>2019-02-27T00:04:17Z</time>
      </trkpt>
      <trkpt lat="45.28484" lon="4.54919">
        <ele>622</ele>
        <time>2019-02-27T00:05:17Z</time>
      </trkpt>
      <trkpt lat="45.28482" lon="4.54922">
        <ele>623</ele>
        <time>2019-02-27T00:06:17Z</time>
      </trkpt>
      <trkpt lat="45.28481" lon="4.5494">
        <ele>623</ele>
        <time>2019-02-27T00:07:17Z</time>
      </trkpt>
      <trkpt lat="45.28505" lon="4.54977">
        <ele>614</ele>
        <time>2019-02-27T00:08:17Z</time>
      </trkpt>
      <trkpt lat="45.28504" lon="4.54988">
        <ele>614</ele>
        <time>2019-02-27T00:09:17Z</time>
      </trkpt>
      <trkpt lat="45.28504" lon="4.54995">
        <ele>614</ele>
        <time>2019-02-27T00:10:17Z</time>
      </trkpt>
      <trkpt lat="45.28502" lon="4.55">
        <ele>614</ele>
        <time>2019-02-27T00:11:17Z</time>
      </trkpt>
      <trkpt lat="45.28485" lon="4.55017">
        <ele>624</ele>
        <time>2019-02-27T00:12:17Z</time>
      </trkpt>
      <trkpt lat="45.28482" lon="4.55021">
        <ele>626</ele>
        <time>2019-02-27T00:13:17Z</time>
      </trkpt>
      <trkpt lat="45.28468" lon="4.55028">
        <ele>632</ele>
        <time>2019-02-27T00:14:17Z</time>
      </trkpt>
      <trkpt lat="45.28457" lon="4.55037">
        <ele>638</ele>
        <time>2019-02-27T00:15:17Z</time>
      </trkpt>
      <trkpt lat="45.28452" lon="4.55045">
        <ele>640</ele>
        <time>2019-02-27T00:16:17Z</time>
      </trkpt>
      <trkpt lat="45.2845" lon="4.55052">
        <ele>642</ele>
        <time>2019-02-27T00:17:17Z</time>
      </trkpt>
      <trkpt lat="45.28449" lon="4.55064">
        <ele>643</ele>
        <time>2019-02-27T00:18:17Z</time>
      </trkpt>
      <trkpt lat="45.2845" lon="4.55077">
        <ele>643</ele>
        <time>2019-02-27T00:19:17Z</time>
      </trkpt>
      <trkpt lat="45.28453" lon="4.55086">
        <ele>644</ele>
        <time>2019-02-27T00:20:17Z</time>
      </trkpt>
      <trkpt lat="45.28458" lon="4.55095">
        <ele>645</ele>
        <time>2019-02-27T00:21:17Z</time>
      </trkpt>
      <trkpt lat="45.28467" lon="4.55105">
        <ele>646</ele>
        <time>2019-02-27T00:22:17Z</time>
      </trkpt>
      <trkpt lat="45.28479" lon="4.55117">
        <ele>646</ele>
        <time>2019-02-27T00:23:17Z</time>
      </trkpt>
      <trkpt lat="45.28511" lon="4.55145">
        <ele>648</ele>
        <time>2019-02-27T00:24:17Z</time>
      </trkpt>
      <trkpt lat="45.28523" lon="4.55155">
        <ele>649</ele>
        <time>2019-02-27T00:25:17Z</time>
      </trkpt>
      <trkpt lat="45.28554" lon="4.55187">
        <ele>653</ele>
        <time>2019-02-27T00:26:17Z</time>
      </trkpt>
      <trkpt lat="45.28564" lon="4.55206">
        <ele>655</ele>
        <time>2019-02-27T00:27:17Z</time>
      </trkpt>
      <trkpt lat="45.28569" lon="4.55215">
        <ele>656</ele>
        <time>2019-02-27T00:28:17Z</time>
      </trkpt>
      <trkpt lat="45.28572" lon="4.5523">
        <ele>659</ele>
        <time>2019-02-27T00:29:17Z</time>
      </trkpt>
      <trkpt lat="45.28576" lon="4.55262">
        <ele>664</ele>
        <time>2019-02-27T00:30:17Z</time>
      </trkpt>
      <trkpt lat="45.28578" lon="4.55299">
        <ele>665</ele>
        <time>2019-02-27T00:31:17Z</time>
      </trkpt>
      <trkpt lat="45.28578" lon="4.55321">
        <ele>667</ele>
        <time>2019-02-27T00:32:17Z</time>
      </trkpt>
      <trkpt lat="45.28577" lon="4.55337">
        <ele>668</ele>
        <time>2019-02-27T00:33:17Z</time>
      </trkpt>
      <trkpt lat="45.28574" lon="4.55393">
        <ele>668</ele>
        <time>2019-02-27T00:34:17Z</time>
      </trkpt>
      <trkpt lat="45.28576" lon="4.55404">
        <ele>667</ele>
        <time>2019-02-27T00:35:17Z</time>
      </trkpt>
      <trkpt lat="45.28624" lon="4.55473">
        <ele>659</ele>
        <time>2019-02-27T00:36:17Z</time>
      </trkpt>
      <trkpt lat="45.28627" lon="4.55476">
        <ele>658</ele>
        <time>2019-02-27T00:37:17Z</time>
      </trkpt>
      <trkpt lat="45.2864" lon="4.55491">
        <ele>657</ele>
        <time>2019-02-27T00:38:17Z</time>
      </trkpt>
      <trkpt lat="45.2867" lon="4.55521">
        <ele>657</ele>
        <time>2019-02-27T00:39:17Z</time>
      </trkpt>
      <trkpt lat="45.28715" lon="4.55567">
        <ele>657</ele>
        <time>2019-02-27T00:40:17Z</time>
      </trkpt>
      <trkpt lat="45.28751" lon="4.55608">
        <ele>655</ele>
        <time>2019-02-27T00:41:17Z</time>
      </trkpt>
      <trkpt lat="45.28772" lon="4.55626">
        <ele>654</ele>
        <time>2019-02-27T00:42:17Z</time>
      </trkpt>
      <trkpt lat="45.28796" lon="4.55643">
        <ele>651</ele>
        <time>2019-02-27T00:43:17Z</time>
      </trkpt>
      <trkpt lat="45.28825" lon="4.55659">
        <ele>647</ele>
        <time>2019-02-27T00:44:17Z</time>
      </trkpt>
      <trkpt lat="45.28858" lon="4.5567">
        <ele>645</ele>
        <time>2019-02-27T00:45:17Z</time>
      </trkpt>
      <trkpt lat="45.28939" lon="4.5569">
        <ele>640</ele>
        <time>2019-02-27T00:46:17Z</time>
      </trkpt>
      <trkpt lat="45.28954" lon="4.55693">
        <ele>639</ele>
        <time>2019-02-27T00:47:17Z</time>
      </trkpt>
      <trkpt lat="45.28987" lon="4.55705">
        <ele>638</ele>
        <time>2019-02-27T00:48:17Z</time>
      </trkpt>
      <trkpt lat="45.29005" lon="4.55712">
        <ele>637</ele>
        <time>2019-02-27T00:49:17Z</time>
      </trkpt>
      <trkpt lat="45.29026" lon="4.5573">
        <ele>636</ele>
        <time>2019-02-27T00:50:17Z</time>
      </trkpt>
      <trkpt lat="45.29053" lon="4.5575">
        <ele>635</ele>
        <time>2019-02-27T00:51:17Z</time>
      </trkpt>
      <trkpt lat="45.2913" lon="4.55823">
        <ele>632</ele>
        <time>2019-02-27T00:52:17Z</time>
      </trkpt>
      <trkpt lat="45.29154" lon="4.55848">
        <ele>632</ele>
        <time>2019-02-27T00:53:17Z</time>
      </trkpt>
      <trkpt lat="45.29182" lon="4.55878">
        <ele>628</ele>
        <time>2019-02-27T00:54:17Z</time>
      </trkpt>
      <trkpt lat="45.29205" lon="4.55908">
        <ele>624</ele>
        <time>2019-02-27T00:55:17Z</time>
      </trkpt>
      <trkpt lat="45.29222" lon="4.55938">
        <ele>622</ele>
        <time>2019-02-27T00:56:17Z</time>
      </trkpt>
      <trkpt lat="45.2924" lon="4.55977">
        <ele>623</ele>
        <time>2019-02-27T00:57:17Z</time>
      </trkpt>
      <trkpt lat="45.2926" lon="4.56044">
        <ele>625</ele>
        <time>2019-02-27T00:58:17Z</time>
      </trkpt>
      <trkpt lat="45.29277" lon="4.56105">
        <ele>625</ele>
        <time>2019-02-27T00:59:17Z</time>
      </trkpt>
      <trkpt lat="45.29289" lon="4.56166">
        <ele>624</ele>
        <time>2019-02-27T01:00:17Z</time>
      </trkpt>
      <trkpt lat="45.29296" lon="4.56246">
        <ele>623</ele>
        <time>2019-02-27T01:01:17Z</time>
      </trkpt>
      <trkpt lat="45.29295" lon="4.56322">
        <ele>620</ele>
        <time>2019-02-27T01:02:17Z</time>
      </trkpt>
      <trkpt lat="45.29286" lon="4.56392">
        <ele>616</ele>
        <time>2019-02-27T01:03:17Z</time>
      </trkpt>
      <trkpt lat="45.29272" lon="4.56461">
        <ele>614</ele>
        <time>2019-02-27T01:04:17Z</time>
      </trkpt>
      <trkpt lat="45.29263" lon="4.56517">
        <ele>612</ele>
        <time>2019-02-27T01:05:17Z</time>
      </trkpt>
      <trkpt lat="45.29248" lon="4.56581">
        <ele>611</ele>
        <time>2019-02-27T01:06:17Z</time>
      </trkpt>
      <trkpt lat="45.29232" lon="4.56626">
        <ele>609</ele>
        <time>2019-02-27T01:07:17Z</time>
      </trkpt>
      <trkpt lat="45.29207" lon="4.56671">
        <ele>608</ele>
        <time>2019-02-27T01:08:17Z</time>
      </trkpt>
      <trkpt lat="45.29186" lon="4.5671">
        <ele>607</ele>
        <time>2019-02-27T01:09:17Z</time>
      </trkpt>
      <trkpt lat="45.29153" lon="4.56751">
        <ele>605</ele>
        <time>2019-02-27T01:10:17Z</time>
      </trkpt>
      <trkpt lat="45.29135" lon="4.56773">
        <ele>603</ele>
        <time>2019-02-27T01:11:17Z</time>
      </trkpt>
      <trkpt lat="45.29098" lon="4.56844">
        <ele>600</ele>
        <time>2019-02-27T01:12:17Z</time>
      </trkpt>
      <trkpt lat="45.29087" lon="4.56856">
        <ele>601</ele>
        <time>2019-02-27T01:13:17Z</time>
      </trkpt>
      <trkpt lat="45.29088" lon="4.56856">
        <ele>601</ele>
        <time>2019-02-27T01:14:17Z</time>
      </trkpt>
      <trkpt lat="45.29087" lon="4.56877">
        <ele>600</ele>
        <time>2019-02-27T01:15:17Z</time>
      </trkpt>
      <trkpt lat="45.29074" lon="4.56936">
        <ele>600</ele>
        <time>2019-02-27T01:16:17Z</time>
      </trkpt>
      <trkpt lat="45.2907" lon="4.56971">
        <ele>599</ele>
        <time>2019-02-27T01:17:17Z</time>
      </trkpt>
      <trkpt lat="45.29069" lon="4.56987">
        <ele>598</ele>
        <time>2019-02-27T01:18:17Z</time>
      </trkpt>
      <trkpt lat="45.29068" lon="4.57012">
        <ele>597</ele>
        <time>2019-02-27T01:19:17Z</time>
      </trkpt>
      <trkpt lat="45.29064" lon="4.57058">
        <ele>595</ele>
        <time>2019-02-27T01:20:17Z</time>
      </trkpt>
      <trkpt lat="45.29069" lon="4.57115">
        <ele>596</ele>
        <time>2019-02-27T01:21:17Z</time>
      </trkpt>
      <trkpt lat="45.29076" lon="4.57145">
        <ele>597</ele>
        <time>2019-02-27T01:22:17Z</time>
      </trkpt>
      <trkpt lat="45.29083" lon="4.57185">
        <ele>599</ele>
        <time>2019-02-27T01:23:17Z</time>
      </trkpt>
      <trkpt lat="45.29098" lon="4.57346">
        <ele>604</ele>
        <time>2019-02-27T01:24:17Z</time>
      </trkpt>
      <trkpt lat="45.29073" lon="4.57496">
        <ele>604</ele>
        <time>2019-02-27T01:25:17Z</time>
      </trkpt>
      <trkpt lat="45.29005" lon="4.57757">
        <ele>599</ele>
        <time>2019-02-27T01:26:17Z</time>
      </trkpt>
      <trkpt lat="45.28971" lon="4.57853">
        <ele>591</ele>
        <time>2019-02-27T01:27:17Z</time>
      </trkpt>
      <trkpt lat="45.28972" lon="4.57965">
        <ele>571</ele>
        <time>2019-02-27T01:28:17Z</time>
      </trkpt>
      <trkpt lat="45.28955" lon="4.58043">
        <ele>564</ele>
        <time>2019-02-27T01:29:17Z</time>
      </trkpt>
      <trkpt lat="45.28961" lon="4.58143">
        <ele>548</ele>
        <time>2019-02-27T01:30:17Z</time>
      </trkpt>
      <trkpt lat="45.28976" lon="4.58204">
        <ele>537</ele>
        <time>2019-02-27T01:31:17Z</time>
      </trkpt>
      <trkpt lat="45.29006" lon="4.58184">
        <ele>531</ele>
        <time>2019-02-27T01:32:17Z</time>
      </trkpt>
      <trkpt lat="45.29028" lon="4.58187">
        <ele>528</ele>
        <time>2019-02-27T01:33:17Z</time>
      </trkpt>
      <trkpt lat="45.29043" lon="4.5822">
        <ele>525</ele>
        <time>2019-02-27T01:34:17Z</time>
      </trkpt>
      <trkpt lat="45.29068" lon="4.58225">
        <ele>521</ele>
        <time>2019-02-27T01:35:17Z</time>
      </trkpt>
      <trkpt lat="45.29077" lon="4.58286">
        <ele>518</ele>
        <time>2019-02-27T01:36:17Z</time>
      </trkpt>
      <trkpt lat="45.29084" lon="4.58328">
        <ele>516</ele>
        <time>2019-02-27T01:37:17Z</time>
      </trkpt>
      <trkpt lat="45.2909" lon="4.58386">
        <ele>514</ele>
        <time>2019-02-27T01:38:17Z</time>
      </trkpt>
      <trkpt lat="45.29093" lon="4.58404">
        <ele>514</ele>
        <time>2019-02-27T01:39:17Z</time>
      </trkpt>
      <trkpt lat="45.29096" lon="4.58403">
        <ele>514</ele>
        <time>2019-02-27T01:40:17Z</time>
      </trkpt>
      <trkpt lat="45.29094" lon="4.58404">
        <ele>514</ele>
        <time>2019-02-27T01:41:17Z</time>
      </trkpt>
      <trkpt lat="45.29092" lon="4.58408">
        <ele>514</ele>
        <time>2019-02-27T01:42:17Z</time>
      </trkpt>
      <trkpt lat="45.29091" lon="4.58423">
        <ele>513</ele>
        <time>2019-02-27T01:43:17Z</time>
      </trkpt>
      <trkpt lat="45.29093" lon="4.5848">
        <ele>510</ele>
        <time>2019-02-27T01:44:17Z</time>
      </trkpt>
      <trkpt lat="45.29089" lon="4.58531">
        <ele>508</ele>
        <time>2019-02-27T01:45:17Z</time>
      </trkpt>
      <trkpt lat="45.29084" lon="4.58584">
        <ele>507</ele>
        <time>2019-02-27T01:46:17Z</time>
      </trkpt>
      <trkpt lat="45.29075" lon="4.58649">
        <ele>505</ele>
        <time>2019-02-27T01:47:17Z</time>
      </trkpt>
      <trkpt lat="45.29068" lon="4.58703">
        <ele>503</ele>
        <time>2019-02-27T01:48:17Z</time>
      </trkpt>
      <trkpt lat="45.29055" lon="4.58787">
        <ele>501</ele>
        <time>2019-02-27T01:49:17Z</time>
      </trkpt>
      <trkpt lat="45.29048" lon="4.58847">
        <ele>501</ele>
        <time>2019-02-27T01:50:17Z</time>
      </trkpt>
      <trkpt lat="45.29042" lon="4.58879">
        <ele>500</ele>
        <time>2019-02-27T01:51:17Z</time>
      </trkpt>
      <trkpt lat="45.29033" lon="4.58916">
        <ele>500</ele>
        <time>2019-02-27T01:52:17Z</time>
      </trkpt>
      <trkpt lat="45.29028" lon="4.58928">
        <ele>500</ele>
        <time>2019-02-27T01:53:17Z</time>
      </trkpt>
      <trkpt lat="45.29023" lon="4.58946">
        <ele>500</ele>
        <time>2019-02-27T01:54:17Z</time>
      </trkpt>
      <trkpt lat="45.29004" lon="4.59004">
        <ele>498</ele>
        <time>2019-02-27T01:55:17Z</time>
      </trkpt>
      <trkpt lat="45.29" lon="4.59015">
        <ele>498</ele>
        <time>2019-02-27T01:56:17Z</time>
      </trkpt>
      <trkpt lat="45.2898" lon="4.5906">
        <ele>497</ele>
        <time>2019-02-27T01:57:17Z</time>
      </trkpt>
      <trkpt lat="45.28967" lon="4.59089">
        <ele>497</ele>
        <time>2019-02-27T01:58:17Z</time>
      </trkpt>
      <trkpt lat="45.28949" lon="4.5912">
        <ele>497</ele>
        <time>2019-02-27T01:59:17Z</time>
      </trkpt>
      <trkpt lat="45.28927" lon="4.59163">
        <ele>496</ele>
        <time>2019-02-27T02:00:17Z</time>
      </trkpt>
      <trkpt lat="45.28918" lon="4.59182">
        <ele>495</ele>
        <time>2019-02-27T02:01:17Z</time>
      </trkpt>
      <trkpt lat="45.28909" lon="4.59202">
        <ele>495</ele>
        <time>2019-02-27T02:02:17Z</time>
      </trkpt>
      <trkpt lat="45.28891" lon="4.59247">
        <ele>494</ele>
        <time>2019-02-27T02:03:17Z</time>
      </trkpt>
      <trkpt lat="45.28885" lon="4.59266">
        <ele>494</ele>
        <time>2019-02-27T02:04:17Z</time>
      </trkpt>
      <trkpt lat="45.28875" lon="4.59303">
        <ele>493</ele>
        <time>2019-02-27T02:05:17Z</time>
      </trkpt>
      <trkpt lat="45.2887" lon="4.59323">
        <ele>493</ele>
        <time>2019-02-27T02:06:17Z</time>
      </trkpt>
      <trkpt lat="45.2883" lon="4.59513">
        <ele>491</ele>
        <time>2019-02-27T02:07:17Z</time>
      </trkpt>
      <trkpt lat="45.28822" lon="4.59549">
        <ele>488</ele>
        <time>2019-02-27T02:08:17Z</time>
      </trkpt>
      <trkpt lat="45.28818" lon="4.59572">
        <ele>487</ele>
        <time>2019-02-27T02:09:17Z</time>
      </trkpt>
      <trkpt lat="45.28804" lon="4.5964">
        <ele>489</ele>
        <time>2019-02-27T02:10:17Z</time>
      </trkpt>
      <trkpt lat="45.28803" lon="4.59647">
        <ele>489</ele>
        <time>2019-02-27T02:11:17Z</time>
      </trkpt>
      <trkpt lat="45.28797" lon="4.5969">
        <ele>490</ele>
        <time>2019-02-27T02:12:17Z</time>
      </trkpt>
      <trkpt lat="45.28796" lon="4.59697">
        <ele>490</ele>
        <time>2019-02-27T02:13:17Z</time>
      </trkpt>
      <trkpt lat="45.28795" lon="4.5972">
        <ele>490</ele>
        <time>2019-02-27T02:14:17Z</time>
      </trkpt>
      <trkpt lat="45.28794" lon="4.59725">
        <ele>490</ele>
        <time>2019-02-27T02:15:17Z</time>
      </trkpt>
      <trkpt lat="45.28794" lon="4.59777">
        <ele>490</ele>
        <time>2019-02-27T02:16:17Z</time>
      </trkpt>
      <trkpt lat="45.28796" lon="4.59789">
        <ele>489</ele>
        <time>2019-02-27T02:17:17Z</time>
      </trkpt>
      <trkpt lat="45.28803" lon="4.59842">
        <ele>489</ele>
        <time>2019-02-27T02:18:17Z</time>
      </trkpt>
      <trkpt lat="45.28807" lon="4.59861">
        <ele>489</ele>
        <time>2019-02-27T02:19:17Z</time>
      </trkpt>
      <trkpt lat="45.28809" lon="4.59871">
        <ele>490</ele>
        <time>2019-02-27T02:20:17Z</time>
      </trkpt>
      <trkpt lat="45.28811" lon="4.5988">
        <ele>490</ele>
        <time>2019-02-27T02:21:17Z</time>
      </trkpt>
      <trkpt lat="45.28815" lon="4.59888">
        <ele>490</ele>
        <time>2019-02-27T02:22:17Z</time>
      </trkpt>
      <trkpt lat="45.2882" lon="4.59903">
        <ele>489</ele>
        <time>2019-02-27T02:23:17Z</time>
      </trkpt>
      <trkpt lat="45.28825" lon="4.59916">
        <ele>489</ele>
        <time>2019-02-27T02:24:17Z</time>
      </trkpt>
      <trkpt lat="45.2883" lon="4.5993">
        <ele>490</ele>
        <time>2019-02-27T02:25:17Z</time>
      </trkpt>
      <trkpt lat="45.28846" lon="4.59963">
        <ele>493</ele>
        <time>2019-02-27T02:26:17Z</time>
      </trkpt>
      <trkpt lat="45.28855" lon="4.5998">
        <ele>494</ele>
        <time>2019-02-27T02:27:17Z</time>
      </trkpt>
      <trkpt lat="45.28865" lon="4.59996">
        <ele>494</ele>
        <time>2019-02-27T02:28:17Z</time>
      </trkpt>
      <trkpt lat="45.28885" lon="4.60024">
        <ele>492</ele>
        <time>2019-02-27T02:29:17Z</time>
      </trkpt>
      <trkpt lat="45.28896" lon="4.60039">
        <ele>490</ele>
        <time>2019-02-27T02:30:17Z</time>
      </trkpt>
      <trkpt lat="45.28909" lon="4.60055">
        <ele>488</ele>
        <time>2019-02-27T02:31:17Z</time>
      </trkpt>
      <trkpt lat="45.2892" lon="4.60067">
        <ele>486</ele>
        <time>2019-02-27T02:32:17Z</time>
      </trkpt>
      <trkpt lat="45.28928" lon="4.60074">
        <ele>486</ele>
        <time>2019-02-27T02:33:17Z</time>
      </trkpt>
      <trkpt lat="45.2894" lon="4.60085">
        <ele>485</ele>
        <time>2019-02-27T02:34:17Z</time>
      </trkpt>
      <trkpt lat="45.28953" lon="4.60095">
        <ele>483</ele>
        <time>2019-02-27T02:35:17Z</time>
      </trkpt>
      <trkpt lat="45.28967" lon="4.60106">
        <ele>480</ele>
        <time>2019-02-27T02:36:17Z</time>
      </trkpt>
      <trkpt lat="45.29012" lon="4.60131">
        <ele>473</ele>
        <time>2019-02-27T02:37:17Z</time>
      </trkpt>
      <trkpt lat="45.29032" lon="4.60143">
        <ele>472</ele>
        <time>2019-02-27T02:38:17Z</time>
      </trkpt>
      <trkpt lat="45.29041" lon="4.60149">
        <ele>472</ele>
        <time>2019-02-27T02:39:17Z</time>
      </trkpt>
      <trkpt lat="45.29048" lon="4.60154">
        <ele>472</ele>
        <time>2019-02-27T02:40:17Z</time>
      </trkpt>
      <trkpt lat="45.29056" lon="4.6016">
        <ele>472</ele>
        <time>2019-02-27T02:41:17Z</time>
      </trkpt>
      <trkpt lat="45.29066" lon="4.60166">
        <ele>471</ele>
        <time>2019-02-27T02:42:17Z</time>
      </trkpt>
      <trkpt lat="45.29096" lon="4.60193">
        <ele>470</ele>
        <time>2019-02-27T02:43:17Z</time>
      </trkpt>
      <trkpt lat="45.29108" lon="4.60207">
        <ele>470</ele>
        <time>2019-02-27T02:44:17Z</time>
      </trkpt>
      <trkpt lat="45.29116" lon="4.60218">
        <ele>470</ele>
        <time>2019-02-27T02:45:17Z</time>
      </trkpt>
      <trkpt lat="45.29137" lon="4.60248">
        <ele>470</ele>
        <time>2019-02-27T02:46:17Z</time>
      </trkpt>
      <trkpt lat="45.2916" lon="4.60294">
        <ele>470</ele>
        <time>2019-02-27T02:47:17Z</time>
      </trkpt>
      <trkpt lat="45.29169" lon="4.60312">
        <ele>470</ele>
        <time>2019-02-27T02:48:17Z</time>
      </trkpt>
      <trkpt lat="45.29174" lon="4.60328">
        <ele>472</ele>
        <time>2019-02-27T02:49:17Z</time>
      </trkpt>
      <trkpt lat="45.29179" lon="4.60344">
        <ele>472</ele>
        <time>2019-02-27T02:50:17Z</time>
      </trkpt>
      <trkpt lat="45.29185" lon="4.60366">
        <ele>473</ele>
        <time>2019-02-27T02:51:17Z</time>
      </trkpt>
      <trkpt lat="45.29194" lon="4.60405">
        <ele>475</ele>
        <time>2019-02-27T02:52:17Z</time>
      </trkpt>
      <trkpt lat="45.29198" lon="4.60434">
        <ele>475</ele>
        <time>2019-02-27T02:53:17Z</time>
      </trkpt>
      <trkpt lat="45.29201" lon="4.60463">
        <ele>475</ele>
        <time>2019-02-27T02:54:17Z</time>
      </trkpt>
      <trkpt lat="45.29204" lon="4.60504">
        <ele>474</ele>
        <time>2019-02-27T02:55:17Z</time>
      </trkpt>
      <trkpt lat="45.29213" lon="4.60619">
        <ele>470</ele>
        <time>2019-02-27T02:56:17Z</time>
      </trkpt>
      <trkpt lat="45.29227" lon="4.60772">
        <ele>466</ele>
        <time>2019-02-27T02:57:17Z</time>
      </trkpt>
      <trkpt lat="45.29231" lon="4.60803">
        <ele>465</ele>
        <time>2019-02-27T02:58:17Z</time>
      </trkpt>
      <trkpt lat="45.29235" lon="4.60867">
        <ele>463</ele>
        <time>2019-02-27T02:59:17Z</time>
      </trkpt>
      <trkpt lat="45.29237" lon="4.60906">
        <ele>462</ele>
        <time>2019-02-27T03:00:17Z</time>
      </trkpt>
      <trkpt lat="45.29241" lon="4.60934">
        <ele>462</ele>
        <time>2019-02-27T03:01:17Z</time>
      </trkpt>
      <trkpt lat="45.29243" lon="4.60954">
        <ele>462</ele>
        <time>2019-02-27T03:02:17Z</time>
      </trkpt>
      <trkpt lat="45.29243" lon="4.60986">
        <ele>462</ele>
        <time>2019-02-27T03:03:17Z</time>
      </trkpt>
      <trkpt lat="45.29238" lon="4.61096">
        <ele>462</ele>
        <time>2019-02-27T03:04:17Z</time>
      </trkpt>
      <trkpt lat="45.29236" lon="4.61118">
        <ele>462</ele>
        <time>2019-02-27T03:05:17Z</time>
      </trkpt>
      <trkpt lat="45.29228" lon="4.6117">
        <ele>462</ele>
        <time>2019-02-27T03:06:17Z</time>
      </trkpt>
      <trkpt lat="45.29218" lon="4.61216">
        <ele>463</ele>
        <time>2019-02-27T03:07:17Z</time>
      </trkpt>
      <trkpt lat="45.2921" lon="4.61259">
        <ele>463</ele>
        <time>2019-02-27T03:08:17Z</time>
      </trkpt>
      <trkpt lat="45.29203" lon="4.61321">
        <ele>465</ele>
        <time>2019-02-27T03:09:17Z</time>
      </trkpt>
      <trkpt lat="45.29205" lon="4.6138">
        <ele>464</ele>
        <time>2019-02-27T03:10:17Z</time>
      </trkpt>
      <trkpt lat="45.29211" lon="4.61404">
        <ele>465</ele>
        <time>2019-02-27T03:11:17Z</time>
      </trkpt>
      <trkpt lat="45.29228" lon="4.61468">
        <ele>462</ele>
        <time>2019-02-27T03:12:17Z</time>
      </trkpt>
      <trkpt lat="45.29237" lon="4.615">
        <ele>460</ele>
        <time>2019-02-27T03:13:17Z</time>
      </trkpt>
      <trkpt lat="45.29258" lon="4.61579">
        <ele>457</ele>
        <time>2019-02-27T03:14:17Z</time>
      </trkpt>
      <trkpt lat="45.2927" lon="4.61628">
        <ele>458</ele>
        <time>2019-02-27T03:15:17Z</time>
      </trkpt>
      <trkpt lat="45.29273" lon="4.61659">
        <ele>456</ele>
        <time>2019-02-27T03:16:17Z</time>
      </trkpt>
      <trkpt lat="45.29275" lon="4.61676">
        <ele>456</ele>
        <time>2019-02-27T03:17:17Z</time>
      </trkpt>
      <trkpt lat="45.29275" lon="4.61714">
        <ele>454</ele>
        <time>2019-02-27T03:18:17Z</time>
      </trkpt>
      <trkpt lat="45.29275" lon="4.61742">
        <ele>453</ele>
        <time>2019-02-27T03:19:17Z</time>
      </trkpt>
      <trkpt lat="45.29272" lon="4.6179">
        <ele>452</ele>
        <time>2019-02-27T03:20:17Z</time>
      </trkpt>
      <trkpt lat="45.29271" lon="4.6181">
        <ele>452</ele>
        <time>2019-02-27T03:21:17Z</time>
      </trkpt>
      <trkpt lat="45.29264" lon="4.61842">
        <ele>451</ele>
        <time>2019-02-27T03:22:17Z</time>
      </trkpt>
      <trkpt lat="45.29264" lon="4.61854">
        <ele>451</ele>
        <time>2019-02-27T03:23:17Z</time>
      </trkpt>
      <trkpt lat="45.29261" lon="4.61881">
        <ele>451</ele>
        <time>2019-02-27T03:24:17Z</time>
      </trkpt>
      <trkpt lat="45.29257" lon="4.61908">
        <ele>450</ele>
        <time>2019-02-27T03:25:17Z</time>
      </trkpt>
      <trkpt lat="45.29255" lon="4.61925">
        <ele>450</ele>
        <time>2019-02-27T03:26:17Z</time>
      </trkpt>
      <trkpt lat="45.2925" lon="4.61956">
        <ele>449</ele>
        <time>2019-02-27T03:27:17Z</time>
      </trkpt>
      <trkpt lat="45.29245" lon="4.61986">
        <ele>449</ele>
        <time>2019-02-27T03:28:17Z</time>
      </trkpt>
      <trkpt lat="45.29234" lon="4.62076">
        <ele>448</ele>
        <time>2019-02-27T03:29:17Z</time>
      </trkpt>
      <trkpt lat="45.29229" lon="4.62104">
        <ele>448</ele>
        <time>2019-02-27T03:30:17Z</time>
      </trkpt>
      <trkpt lat="45.29225" lon="4.62137">
        <ele>449</ele>
        <time>2019-02-27T03:31:17Z</time>
      </trkpt>
      <trkpt lat="45.29224" lon="4.62159">
        <ele>449</ele>
        <time>2019-02-27T03:32:17Z</time>
      </trkpt>
      <trkpt lat="45.2922" lon="4.62186">
        <ele>449</ele>
        <time>2019-02-27T03:33:17Z</time>
      </trkpt>
      <trkpt lat="45.29214" lon="4.62225">
        <ele>449</ele>
        <time>2019-02-27T03:34:17Z</time>
      </trkpt>
      <trkpt lat="45.2921" lon="4.62254">
        <ele>450</ele>
        <time>2019-02-27T03:35:17Z</time>
      </trkpt>
      <trkpt lat="45.29207" lon="4.62282">
        <ele>450</ele>
        <time>2019-02-27T03:36:17Z</time>
      </trkpt>
      <trkpt lat="45.29206" lon="4.6229">
        <ele>450</ele>
        <time>2019-02-27T03:37:17Z</time>
      </trkpt>
      <trkpt lat="45.29202" lon="4.62304">
        <ele>450</ele>
        <time>2019-02-27T03:38:17Z</time>
      </trkpt>
      <trkpt lat="45.29166" lon="4.62563">
        <ele>446</ele>
        <time>2019-02-27T03:39:17Z</time>
      </trkpt>
      <trkpt lat="45.29157" lon="4.62629">
        <ele>447</ele>
        <time>2019-02-27T03:40:17Z</time>
      </trkpt>
      <trkpt lat="45.29145" lon="4.6267">
        <ele>447</ele>
        <time>2019-02-27T03:41:17Z</time>
      </trkpt>
      <trkpt lat="45.29122" lon="4.62743">
        <ele>444</ele>
        <time>2019-02-27T03:42:17Z</time>
      </trkpt>
      <trkpt lat="45.2908" lon="4.62826">
        <ele>442</ele>
        <time>2019-02-27T03:43:17Z</time>
      </trkpt>
      <trkpt lat="45.29043" lon="4.62875">
        <ele>443</ele>
        <time>2019-02-27T03:44:17Z</time>
      </trkpt>
      <trkpt lat="45.28965" lon="4.62942">
        <ele>442</ele>
        <time>2019-02-27T03:45:17Z</time>
      </trkpt>
      <trkpt lat="45.28946" lon="4.62959">
        <ele>443</ele>
        <time>2019-02-27T03:46:17Z</time>
      </trkpt>
      <trkpt lat="45.2878" lon="4.63011">
        <ele>439</ele>
        <time>2019-02-27T03:47:17Z</time>
      </trkpt>
      <trkpt lat="45.28724" lon="4.6303">
        <ele>440</ele>
        <time>2019-02-27T03:48:17Z</time>
      </trkpt>
      <trkpt lat="45.28691" lon="4.63051">
        <ele>440</ele>
        <time>2019-02-27T03:49:17Z</time>
      </trkpt>
      <trkpt lat="45.28618" lon="4.63076">
        <ele>438</ele>
        <time>2019-02-27T03:50:17Z</time>
      </trkpt>
      <trkpt lat="45.28524" lon="4.63108">
        <ele>436</ele>
        <time>2019-02-27T03:51:17Z</time>
      </trkpt>
      <trkpt lat="45.28508" lon="4.63104">
        <ele>435</ele>
        <time>2019-02-27T03:52:17Z</time>
      </trkpt>
      <trkpt lat="45.28488" lon="4.63111">
        <ele>434</ele>
        <time>2019-02-27T03:53:17Z</time>
      </trkpt>
      <trkpt lat="45.28453" lon="4.63129">
        <ele>434</ele>
        <time>2019-02-27T03:54:17Z</time>
      </trkpt>
      <trkpt lat="45.28411" lon="4.6316">
        <ele>432</ele>
        <time>2019-02-27T03:55:17Z</time>
      </trkpt>
      <trkpt lat="45.28409" lon="4.6318">
        <ele>433</ele>
        <time>2019-02-27T03:56:17Z</time>
      </trkpt>
      <trkpt lat="45.284" lon="4.6319">
        <ele>433</ele>
        <time>2019-02-27T03:57:17Z</time>
      </trkpt>
      <trkpt lat="45.28375" lon="4.63216">
        <ele>433</ele>
        <time>2019-02-27T03:58:17Z</time>
      </trkpt>
      <trkpt lat="45.28364" lon="4.63239">
        <ele>433</ele>
        <time>2019-02-27T03:59:17Z</time>
      </trkpt>
      <trkpt lat="45.28301" lon="4.63389">
        <ele>432</ele>
        <time>2019-02-27T04:00:17Z</time>
      </trkpt>
      <trkpt lat="45.28277" lon="4.63433">
        <ele>430</ele>
        <time>2019-02-27T04:01:17Z</time>
      </trkpt>
      <trkpt lat="45.28211" lon="4.6354">
        <ele>428</ele>
        <time>2019-02-27T04:02:17Z</time>
      </trkpt>
      <trkpt lat="45.28194" lon="4.6355">
        <ele>428</ele>
        <time>2019-02-27T04:03:17Z</time>
      </trkpt>
      <trkpt lat="45.28135" lon="4.63682">
        <ele>430</ele>
        <time>2019-02-27T04:04:17Z</time>
      </trkpt>
      <trkpt lat="45.28118" lon="4.63664">
        <ele>428</ele>
        <time>2019-02-27T04:05:17Z</time>
      </trkpt>
      <trkpt lat="45.28093" lon="4.63729">
        <ele>427</ele>
        <time>2019-02-27T04:06:17Z</time>
      </trkpt>
      <trkpt lat="45.28077" lon="4.6376">
        <ele>427</ele>
        <time>2019-02-27T04:07:17Z</time>
      </trkpt>
      <trkpt lat="45.28068" lon="4.63789">
        <ele>426</ele>
        <time>2019-02-27T04:08:17Z</time>
      </trkpt>
      <trkpt lat="45.28059" lon="4.63834">
        <ele>426</ele>
        <time>2019-02-27T04:09:17Z</time>
      </trkpt>
      <trkpt lat="45.28019" lon="4.63919">
        <ele>424</ele>
        <time>2019-02-27T04:10:17Z</time>
      </trkpt>
      <trkpt lat="45.2795" lon="4.64083">
        <ele>423</ele>
        <time>2019-02-27T04:11:17Z</time>
      </trkpt>
      <trkpt lat="45.27868" lon="4.64263">
        <ele>422</ele>
        <time>2019-02-27T04:12:17Z</time>
      </trkpt>
      <trkpt lat="45.27831" lon="4.64359">
        <ele>420</ele>
        <time>2019-02-27T04:13:17Z</time>
      </trkpt>
      <trkpt lat="45.27645" lon="4.64763">
        <ele>415</ele>
        <time>2019-02-27T04:14:17Z</time>
      </trkpt>
      <trkpt lat="45.27594" lon="4.64829">
        <ele>414</ele>
        <time>2019-02-27T04:15:17Z</time>
      </trkpt>
      <trkpt lat="45.27544" lon="4.64868">
        <ele>414</ele>
        <time>2019-02-27T04:16:17Z</time>
      </trkpt>
      <trkpt lat="45.27477" lon="4.64903">
        <ele>415</ele>
        <time>2019-02-27T04:17:17Z</time>
      </trkpt>
      <trkpt lat="45.27433" lon="4.6491">
        <ele>414</ele>
        <time>2019-02-27T04:18:17Z</time>
      </trkpt>
      <trkpt lat="45.27364" lon="4.64907">
        <ele>412</ele>
        <time>2019-02-27T04:19:17Z</time>
      </trkpt>
      <trkpt lat="45.27309" lon="4.64889">
        <ele>411</ele>
        <time>2019-02-27T04:20:17Z</time>
      </trkpt>
      <trkpt lat="45.27231" lon="4.64857">
        <ele>412</ele>
        <time>2019-02-27T04:21:17Z</time>
      </trkpt>
      <trkpt lat="45.27185" lon="4.64845">
        <ele>411</ele>
        <time>2019-02-27T04:22:17Z</time>
      </trkpt>
      <trkpt lat="45.27117" lon="4.64847">
        <ele>411</ele>
        <time>2019-02-27T04:23:17Z</time>
      </trkpt>
      <trkpt lat="45.27056" lon="4.64869">
        <ele>412</ele>
        <time>2019-02-27T04:24:17Z</time>
      </trkpt>
      <trkpt lat="45.27049" lon="4.64872">
        <ele>412</ele>
        <time>2019-02-27T04:25:17Z</time>
      </trkpt>
      <trkpt lat="45.27005" lon="4.64913">
        <ele>411</ele>
        <time>2019-02-27T04:26:17Z</time>
      </trkpt>
      <trkpt lat="45.26947" lon="4.64992">
        <ele>410</ele>
        <time>2019-02-27T04:27:17Z</time>
      </trkpt>
      <trkpt lat="45.26937" lon="4.65011">
        <ele>409</ele>
        <time>2019-02-27T04:28:17Z</time>
      </trkpt>
      <trkpt lat="45.26916" lon="4.65063">
        <ele>407</ele>
        <time>2019-02-27T04:29:17Z</time>
      </trkpt>
      <trkpt lat="45.26902" lon="4.65115">
        <ele>408</ele>
        <time>2019-02-27T04:30:17Z</time>
      </trkpt>
      <trkpt lat="45.26894" lon="4.65169">
        <ele>410</ele>
        <time>2019-02-27T04:31:17Z</time>
      </trkpt>
      <trkpt lat="45.26892" lon="4.6519">
        <ele>410</ele>
        <time>2019-02-27T04:32:17Z</time>
      </trkpt>
      <trkpt lat="45.26886" lon="4.65204">
        <ele>411</ele>
        <time>2019-02-27T04:33:17Z</time>
      </trkpt>
      <trkpt lat="45.26885" lon="4.65217">
        <ele>411</ele>
        <time>2019-02-27T04:34:17Z</time>
      </trkpt>
      <trkpt lat="45.26882" lon="4.65223">
        <ele>411</ele>
        <time>2019-02-27T04:35:17Z</time>
      </trkpt>
      <trkpt lat="45.2688" lon="4.65234">
        <ele>411</ele>
        <time>2019-02-27T04:36:17Z</time>
      </trkpt>
      <trkpt lat="45.2688" lon="4.65244">
        <ele>411</ele>
        <time>2019-02-27T04:37:17Z</time>
      </trkpt>
      <trkpt lat="45.26888" lon="4.65262">
        <ele>410</ele>
        <time>2019-02-27T04:38:17Z</time>
      </trkpt>
      <trkpt lat="45.26895" lon="4.65275">
        <ele>409</ele>
        <time>2019-02-27T04:39:17Z</time>
      </trkpt>
      <trkpt lat="45.269" lon="4.65305">
        <ele>408</ele>
        <time>2019-02-27T04:40:17Z</time>
      </trkpt>
      <trkpt lat="45.26903" lon="4.65329">
        <ele>407</ele>
        <time>2019-02-27T04:41:17Z</time>
      </trkpt>
      <trkpt lat="45.26899" lon="4.65363">
        <ele>406</ele>
        <time>2019-02-27T04:42:17Z</time>
      </trkpt>
      <trkpt lat="45.26908" lon="4.65513">
        <ele>413</ele>
        <time>2019-02-27T04:43:17Z</time>
      </trkpt>
      <trkpt lat="45.2691" lon="4.65544">
        <ele>417</ele>
        <time>2019-02-27T04:44:17Z</time>
      </trkpt>
      <trkpt lat="45.26928" lon="4.65649">
        <ele>424</ele>
        <time>2019-02-27T04:45:17Z</time>
      </trkpt>
      <trkpt lat="45.26959" lon="4.65782">
        <ele>417</ele>
        <time>2019-02-27T04:46:17Z</time>
      </trkpt>
      <trkpt lat="45.26967" lon="4.65857">
        <ele>415</ele>
        <time>2019-02-27T04:47:17Z</time>
      </trkpt>
      <trkpt lat="45.2696" lon="4.65932">
        <ele>413</ele>
        <time>2019-02-27T04:48:17Z</time>
      </trkpt>
      <trkpt lat="45.26938" lon="4.66046">
        <ele>411</ele>
        <time>2019-02-27T04:49:17Z</time>
      </trkpt>
      <trkpt lat="45.26921" lon="4.66086">
        <ele>410</ele>
        <time>2019-02-27T04:50:17Z</time>
      </trkpt>
      <trkpt lat="45.26875" lon="4.6616">
        <ele>410</ele>
        <time>2019-02-27T04:51:17Z</time>
      </trkpt>
      <trkpt lat="45.2683" lon="4.66221">
        <ele>410</ele>
        <time>2019-02-27T04:52:17Z</time>
      </trkpt>
      <trkpt lat="45.26795" lon="4.66288">
        <ele>406</ele>
        <time>2019-02-27T04:53:17Z</time>
      </trkpt>
      <trkpt lat="45.26776" lon="4.66342">
        <ele>404</ele>
        <time>2019-02-27T04:54:17Z</time>
      </trkpt>
      <trkpt lat="45.26765" lon="4.66385">
        <ele>405</ele>
        <time>2019-02-27T04:55:17Z</time>
      </trkpt>
      <trkpt lat="45.26757" lon="4.66434">
        <ele>407</ele>
        <time>2019-02-27T04:56:17Z</time>
      </trkpt>
      <trkpt lat="45.26754" lon="4.66548">
        <ele>408</ele>
        <time>2019-02-27T04:57:17Z</time>
      </trkpt>
      <trkpt lat="45.26754" lon="4.66591">
        <ele>407</ele>
        <time>2019-02-27T04:58:17Z</time>
      </trkpt>
      <trkpt lat="45.26747" lon="4.66635">
        <ele>406</ele>
        <time>2019-02-27T04:59:17Z</time>
      </trkpt>
      <trkpt lat="45.26719" lon="4.66705">
        <ele>402</ele>
        <time>2019-02-27T05:00:17Z</time>
      </trkpt>
      <trkpt lat="45.26708" lon="4.66739">
        <ele>401</ele>
        <time>2019-02-27T05:01:17Z</time>
      </trkpt>
      <trkpt lat="45.26707" lon="4.66786">
        <ele>401</ele>
        <time>2019-02-27T05:02:17Z</time>
      </trkpt>
      <trkpt lat="45.26715" lon="4.66855">
        <ele>403</ele>
        <time>2019-02-27T05:03:17Z</time>
      </trkpt>
      <trkpt lat="45.26725" lon="4.66908">
        <ele>404</ele>
        <time>2019-02-27T05:04:17Z</time>
      </trkpt>
      <trkpt lat="45.26732" lon="4.66941">
        <ele>405</ele>
        <time>2019-02-27T05:05:17Z</time>
      </trkpt>
      <trkpt lat="45.26735" lon="4.6697">
        <ele>405</ele>
        <time>2019-02-27T05:06:17Z</time>
      </trkpt>
      <trkpt lat="45.26747" lon="4.66985">
        <ele>406</ele>
        <time>2019-02-27T05:07:17Z</time>
      </trkpt>
      <trkpt lat="45.26744" lon="4.67018">
        <ele>406</ele>
        <time>2019-02-27T05:08:17Z</time>
      </trkpt>
      <trkpt lat="45.26727" lon="4.67089">
        <ele>405</ele>
        <time>2019-02-27T05:09:17Z</time>
      </trkpt>
      <trkpt lat="45.26706" lon="4.67143">
        <ele>405</ele>
        <time>2019-02-27T05:10:17Z</time>
      </trkpt>
      <trkpt lat="45.26679" lon="4.67194">
        <ele>405</ele>
        <time>2019-02-27T05:11:17Z</time>
      </trkpt>
      <trkpt lat="45.26638" lon="4.67244">
        <ele>405</ele>
        <time>2019-02-27T05:12:17Z</time>
      </trkpt>
      <trkpt lat="45.26607" lon="4.67273">
        <ele>405</ele>
        <time>2019-02-27T05:13:17Z</time>
      </trkpt>
      <trkpt lat="45.26571" lon="4.67296">
        <ele>405</ele>
        <time>2019-02-27T05:14:17Z</time>
      </trkpt>
      <trkpt lat="45.26513" lon="4.67317">
        <ele>404</ele>
        <time>2019-02-27T05:15:17Z</time>
      </trkpt>
      <trkpt lat="45.26467" lon="4.67332">
        <ele>402</ele>
        <time>2019-02-27T05:16:17Z</time>
      </trkpt>
      <trkpt lat="45.26418" lon="4.67349">
        <ele>400</ele>
        <time>2019-02-27T05:17:17Z</time>
      </trkpt>
      <trkpt lat="45.26372" lon="4.67374">
        <ele>398</ele>
        <time>2019-02-27T05:18:17Z</time>
      </trkpt>
      <trkpt lat="45.26329" lon="4.67408">
        <ele>398</ele>
        <time>2019-02-27T05:19:17Z</time>
      </trkpt>
      <trkpt lat="45.26287" lon="4.67453">
        <ele>396</ele>
        <time>2019-02-27T05:20:17Z</time>
      </trkpt>
      <trkpt lat="45.26085" lon="4.67682">
        <ele>391</ele>
        <time>2019-02-27T05:21:17Z</time>
      </trkpt>
      <trkpt lat="45.26046" lon="4.67732">
        <ele>392</ele>
        <time>2019-02-27T05:22:17Z</time>
      </trkpt>
      <trkpt lat="45.26007" lon="4.67797">
        <ele>393</ele>
        <time>2019-02-27T05:23:17Z</time>
      </trkpt>
      <trkpt lat="45.25984" lon="4.67853">
        <ele>391</ele>
        <time>2019-02-27T05:24:17Z</time>
      </trkpt>
      <trkpt lat="45.25966" lon="4.67914">
        <ele>387</ele>
        <time>2019-02-27T05:25:17Z</time>
      </trkpt>
      <trkpt lat="45.25951" lon="4.67975">
        <ele>388</ele>
        <time>2019-02-27T05:26:17Z</time>
      </trkpt>
      <trkpt lat="45.25925" lon="4.68116">
        <ele>387</ele>
        <time>2019-02-27T05:27:17Z</time>
      </trkpt>
      <trkpt lat="45.25911" lon="4.68165">
        <ele>385</ele>
        <time>2019-02-27T05:28:17Z</time>
      </trkpt>
      <trkpt lat="45.25894" lon="4.68202">
        <ele>380</ele>
        <time>2019-02-27T05:29:17Z</time>
      </trkpt>
      <trkpt lat="45.25879" lon="4.68234">
        <ele>376</ele>
        <time>2019-02-27T05:30:17Z</time>
      </trkpt>
      <trkpt lat="45.2587" lon="4.68231">
        <ele>374</ele>
        <time>2019-02-27T05:31:17Z</time>
      </trkpt>
      <trkpt lat="45.25866" lon="4.68226">
        <ele>374</ele>
        <time>2019-02-27T05:32:17Z</time>
      </trkpt>
      <trkpt lat="45.25862" lon="4.682">
        <ele>374</ele>
        <time>2019-02-27T05:33:17Z</time>
      </trkpt>
      <trkpt lat="45.25862" lon="4.68177">
        <ele>375</ele>
        <time>2019-02-27T05:34:17Z</time>
      </trkpt>
      <trkpt lat="45.2586" lon="4.68147">
        <ele>375</ele>
        <time>2019-02-27T05:35:17Z</time>
      </trkpt>
      <trkpt lat="45.2586" lon="4.68099">
        <ele>375</ele>
        <time>2019-02-27T05:36:17Z</time>
      </trkpt>
      <trkpt lat="45.25857" lon="4.68086">
        <ele>375</ele>
        <time>2019-02-27T05:37:17Z</time>
      </trkpt>
      <trkpt lat="45.25857" lon="4.68088">
        <ele>375</ele>
        <time>2019-02-27T05:38:17Z</time>
      </trkpt>
      <trkpt lat="45.2585" lon="4.68092">
        <ele>373</ele>
        <time>2019-02-27T05:39:17Z</time>
      </trkpt>
      <trkpt lat="45.25845" lon="4.68143">
        <ele>372</ele>
        <time>2019-02-27T05:40:17Z</time>
      </trkpt>
      <trkpt lat="45.25843" lon="4.68157">
        <ele>372</ele>
        <time>2019-02-27T05:41:17Z</time>
      </trkpt>
      <trkpt lat="45.25842" lon="4.68172">
        <ele>372</ele>
        <time>2019-02-27T05:42:17Z</time>
      </trkpt>
      <trkpt lat="45.25842" lon="4.68191">
        <ele>371</ele>
        <time>2019-02-27T05:43:17Z</time>
      </trkpt>
      <trkpt lat="45.25844" lon="4.68206">
        <ele>371</ele>
        <time>2019-02-27T05:44:17Z</time>
      </trkpt>
      <trkpt lat="45.25842" lon="4.68217">
        <ele>370</ele>
        <time>2019-02-27T05:45:17Z</time>
      </trkpt>
      <trkpt lat="45.25832" lon="4.68223">
        <ele>369</ele>
        <time>2019-02-27T05:46:17Z</time>
      </trkpt>
      <trkpt lat="45.25823" lon="4.68227">
        <ele>369</ele>
        <time>2019-02-27T05:47:17Z</time>
      </trkpt>
      <trkpt lat="45.2582" lon="4.68234">
        <ele>368</ele>
        <time>2019-02-27T05:48:17Z</time>
      </trkpt>
      <trkpt lat="45.2582" lon="4.68241">
        <ele>368</ele>
        <time>2019-02-27T05:49:17Z</time>
      </trkpt>
      <trkpt lat="45.25812" lon="4.68285">
        <ele>370</ele>
        <time>2019-02-27T05:50:17Z</time>
      </trkpt>
      <trkpt lat="45.25798" lon="4.68295">
        <ele>371</ele>
        <time>2019-02-27T05:51:17Z</time>
      </trkpt>
      <trkpt lat="45.25793" lon="4.68306">
        <ele>372</ele>
        <time>2019-02-27T05:52:17Z</time>
      </trkpt>
      <trkpt lat="45.25771" lon="4.68318">
        <ele>373</ele>
        <time>2019-02-27T05:53:17Z</time>
      </trkpt>
      <trkpt lat="45.25754" lon="4.68322">
        <ele>373</ele>
        <time>2019-02-27T05:54:17Z</time>
      </trkpt>
      <trkpt lat="45.2572" lon="4.68323">
        <ele>374</ele>
        <time>2019-02-27T05:55:17Z</time>
      </trkpt>
      <trkpt lat="45.257" lon="4.68317">
        <ele>374</ele>
        <time>2019-02-27T05:56:17Z</time>
      </trkpt>
      <trkpt lat="45.25665" lon="4.68297">
        <ele>372</ele>
        <time>2019-02-27T05:57:17Z</time>
      </trkpt>
      <trkpt lat="45.25647" lon="4.68287">
        <ele>373</ele>
        <time>2019-02-27T05:58:17Z</time>
      </trkpt>
      <trkpt lat="45.2562" lon="4.68273">
        <ele>373</ele>
        <time>2019-02-27T05:59:17Z</time>
      </trkpt>
      <trkpt lat="45.25583" lon="4.68239">
        <ele>369</ele>
        <time>2019-02-27T06:00:17Z</time>
      </trkpt>
      <trkpt lat="45.25552" lon="4.68202">
        <ele>375</ele>
        <time>2019-02-27T06:01:17Z</time>
      </trkpt>
      <trkpt lat="45.25523" lon="4.68146">
        <ele>374</ele>
        <time>2019-02-27T06:02:17Z</time>
      </trkpt>
      <trkpt lat="45.25511" lon="4.68086">
        <ele>366</ele>
        <time>2019-02-27T06:03:17Z</time>
      </trkpt>
      <trkpt lat="45.25491" lon="4.68056">
        <ele>366</ele>
        <time>2019-02-27T06:04:17Z</time>
      </trkpt>
      <trkpt lat="45.25472" lon="4.68031">
        <ele>367</ele>
        <time>2019-02-27T06:05:17Z</time>
      </trkpt>
      <trkpt lat="45.25449" lon="4.68014">
        <ele>368</ele>
        <time>2019-02-27T06:06:17Z</time>
      </trkpt>
      <trkpt lat="45.25429" lon="4.68002">
        <ele>368</ele>
        <time>2019-02-27T06:07:17Z</time>
      </trkpt>
      <trkpt lat="45.25412" lon="4.67996">
        <ele>369</ele>
        <time>2019-02-27T06:08:17Z</time>
      </trkpt>
      <trkpt lat="45.254" lon="4.67985">
        <ele>369</ele>
        <time>2019-02-27T06:09:17Z</time>
      </trkpt>
      <trkpt lat="45.25395" lon="4.67976">
        <ele>368</ele>
        <time>2019-02-27T06:10:17Z</time>
      </trkpt>
      <trkpt lat="45.25389" lon="4.67958">
        <ele>368</ele>
        <time>2019-02-27T06:11:17Z</time>
      </trkpt>
      <trkpt lat="45.25383" lon="4.67924">
        <ele>367</ele>
        <time>2019-02-27T06:12:17Z</time>
      </trkpt>
      <trkpt lat="45.25374" lon="4.6788">
        <ele>365</ele>
        <time>2019-02-27T06:13:17Z</time>
      </trkpt>
      <trkpt lat="45.25373" lon="4.67861">
        <ele>364</ele>
        <time>2019-02-27T06:14:17Z</time>
      </trkpt>
      <trkpt lat="45.25379" lon="4.67842">
        <ele>363</ele>
        <time>2019-02-27T06:15:17Z</time>
      </trkpt>
      <trkpt lat="45.25381" lon="4.6782">
        <ele>364</ele>
        <time>2019-02-27T06:16:17Z</time>
      </trkpt>
      <trkpt lat="45.25377" lon="4.67805">
        <ele>364</ele>
        <time>2019-02-27T06:17:17Z</time>
      </trkpt>
      <trkpt lat="45.25371" lon="4.67787">
        <ele>364</ele>
        <time>2019-02-27T06:18:17Z</time>
      </trkpt>
      <trkpt lat="45.25357" lon="4.6777">
        <ele>362</ele>
        <time>2019-02-27T06:19:17Z</time>
      </trkpt>
      <trkpt lat="45.25344" lon="4.67769">
        <ele>359</ele>
        <time>2019-02-27T06:20:17Z</time>
      </trkpt>
      <trkpt lat="45.25335" lon="4.67774">
        <ele>358</ele>
        <time>2019-02-27T06:21:17Z</time>
      </trkpt>
      <trkpt lat="45.25314" lon="4.67807">
        <ele>360</ele>
        <time>2019-02-27T06:22:17Z</time>
      </trkpt>
      <trkpt lat="45.25292" lon="4.67846">
        <ele>360</ele>
        <time>2019-02-27T06:23:17Z</time>
      </trkpt>
      <trkpt lat="45.25284" lon="4.67875">
        <ele>361</ele>
        <time>2019-02-27T06:24:17Z</time>
      </trkpt>
      <trkpt lat="45.25277" lon="4.67877">
        <ele>360</ele>
        <time>2019-02-27T06:25:17Z</time>
      </trkpt>
      <trkpt lat="45.25253" lon="4.67861">
        <ele>360</ele>
        <time>2019-02-27T06:26:17Z</time>
      </trkpt>
      <trkpt lat="45.25243" lon="4.6786">
        <ele>361</ele>
        <time>2019-02-27T06:27:17Z</time>
      </trkpt>
      <trkpt lat="45.25239" lon="4.67865">
        <ele>361</ele>
        <time>2019-02-27T06:28:17Z</time>
      </trkpt>
      <trkpt lat="45.25236" lon="4.67875">
        <ele>361</ele>
        <time>2019-02-27T06:29:17Z</time>
      </trkpt>
      <trkpt lat="45.25224" lon="4.67962">
        <ele>356</ele>
        <time>2019-02-27T06:30:17Z</time>
      </trkpt>
      <trkpt lat="45.25222" lon="4.6798">
        <ele>355</ele>
        <time>2019-02-27T06:31:17Z</time>
      </trkpt>
      <trkpt lat="45.25221" lon="4.68005">
        <ele>354</ele>
        <time>2019-02-27T06:32:17Z</time>
      </trkpt>
      <trkpt lat="45.25214" lon="4.68028">
        <ele>355</ele>
        <time>2019-02-27T06:33:17Z</time>
      </trkpt>
      <trkpt lat="45.25202" lon="4.68055">
        <ele>356</ele>
        <time>2019-02-27T06:34:17Z</time>
      </trkpt>
      <trkpt lat="45.25195" lon="4.68067">
        <ele>356</ele>
        <time>2019-02-27T06:35:17Z</time>
      </trkpt>
      <trkpt lat="45.25178" lon="4.68071">
        <ele>356</ele>
        <time>2019-02-27T06:36:17Z</time>
      </trkpt>
      <trkpt lat="45.25164" lon="4.68062">
        <ele>356</ele>
        <time>2019-02-27T06:37:17Z</time>
      </trkpt>
      <trkpt lat="45.2514" lon="4.68037">
        <ele>359</ele>
        <time>2019-02-27T06:38:17Z</time>
      </trkpt>
      <trkpt lat="45.25133" lon="4.68027">
        <ele>359</ele>
        <time>2019-02-27T06:39:17Z</time>
      </trkpt>
      <trkpt lat="45.25117" lon="4.67986">
        <ele>357</ele>
        <time>2019-02-27T06:40:17Z</time>
      </trkpt>
      <trkpt lat="45.25081" lon="4.67934">
        <ele>353</ele>
        <time>2019-02-27T06:41:17Z</time>
      </trkpt>
      <trkpt lat="45.25026" lon="4.67892">
        <ele>355</ele>
        <time>2019-02-27T06:42:17Z</time>
      </trkpt>
      <trkpt lat="45.25013" lon="4.67881">
        <ele>355</ele>
        <time>2019-02-27T06:43:17Z</time>
      </trkpt>
      <trkpt lat="45.24953" lon="4.67866">
        <ele>352</ele>
        <time>2019-02-27T06:44:17Z</time>
      </trkpt>
      <trkpt lat="45.24895" lon="4.67874">
        <ele>353</ele>
        <time>2019-02-27T06:45:17Z</time>
      </trkpt>
      <trkpt lat="45.24846" lon="4.67871">
        <ele>357</ele>
        <time>2019-02-27T06:46:17Z</time>
      </trkpt>
      <trkpt lat="45.24834" lon="4.67849">
        <ele>354</ele>
        <time>2019-02-27T06:47:17Z</time>
      </trkpt>
      <trkpt lat="45.24828" lon="4.67833">
        <ele>353</ele>
        <time>2019-02-27T06:48:17Z</time>
      </trkpt>
      <trkpt lat="45.24825" lon="4.67801">
        <ele>352</ele>
        <time>2019-02-27T06:49:17Z</time>
      </trkpt>
      <trkpt lat="45.2483" lon="4.67765">
        <ele>348</ele>
        <time>2019-02-27T06:50:17Z</time>
      </trkpt>
      <trkpt lat="45.2483" lon="4.67733">
        <ele>347</ele>
        <time>2019-02-27T06:51:17Z</time>
      </trkpt>
      <trkpt lat="45.24828" lon="4.67711">
        <ele>348</ele>
        <time>2019-02-27T06:52:17Z</time>
      </trkpt>
      <trkpt lat="45.24823" lon="4.67681">
        <ele>349</ele>
        <time>2019-02-27T06:53:17Z</time>
      </trkpt>
      <trkpt lat="45.24816" lon="4.67647">
        <ele>349</ele>
        <time>2019-02-27T06:54:17Z</time>
      </trkpt>
      <trkpt lat="45.24809" lon="4.67625">
        <ele>349</ele>
        <time>2019-02-27T06:55:17Z</time>
      </trkpt>
      <trkpt lat="45.24781" lon="4.67561">
        <ele>346</ele>
        <time>2019-02-27T06:56:17Z</time>
      </trkpt>
      <trkpt lat="45.24693" lon="4.67396">
        <ele>346</ele>
        <time>2019-02-27T06:57:17Z</time>
      </trkpt>
      <trkpt lat="45.24629" lon="4.67283">
        <ele>342</ele>
        <time>2019-02-27T06:58:17Z</time>
      </trkpt>
      <trkpt lat="45.24554" lon="4.67186">
        <ele>339</ele>
        <time>2019-02-27T06:59:17Z</time>
      </trkpt>
      <trkpt lat="45.24517" lon="4.67132">
        <ele>340</ele>
        <time>2019-02-27T07:00:17Z</time>
      </trkpt>
      <trkpt lat="45.2451" lon="4.67121">
        <ele>339</ele>
        <time>2019-02-27T07:01:17Z</time>
      </trkpt>
      <trkpt lat="45.24495" lon="4.67062">
        <ele>334</ele>
        <time>2019-02-27T07:02:17Z</time>
      </trkpt>
      <trkpt lat="45.2448" lon="4.67019">
        <ele>332</ele>
        <time>2019-02-27T07:03:17Z</time>
      </trkpt>
      <trkpt lat="45.2448" lon="4.67001">
        <ele>330</ele>
        <time>2019-02-27T07:04:17Z</time>
      </trkpt>
      <trkpt lat="45.24482" lon="4.66983">
        <ele>330</ele>
        <time>2019-02-27T07:05:17Z</time>
      </trkpt>
      <trkpt lat="45.24482" lon="4.66934">
        <ele>329</ele>
        <time>2019-02-27T07:06:17Z</time>
      </trkpt>
      <trkpt lat="45.24485" lon="4.66914">
        <ele>328</ele>
        <time>2019-02-27T07:07:17Z</time>
      </trkpt>
      <trkpt lat="45.24485" lon="4.66904">
        <ele>328</ele>
        <time>2019-02-27T07:08:17Z</time>
      </trkpt>
      <trkpt lat="45.24482" lon="4.66893">
        <ele>328</ele>
        <time>2019-02-27T07:09:17Z</time>
      </trkpt>
      <trkpt lat="45.24466" lon="4.66885">
        <ele>329</ele>
        <time>2019-02-27T07:10:17Z</time>
      </trkpt>
      <trkpt lat="45.24415" lon="4.66869">
        <ele>329</ele>
        <time>2019-02-27T07:11:17Z</time>
      </trkpt>
      <trkpt lat="45.24405" lon="4.66853">
        <ele>333</ele>
      </trkpt>
      <trkpt lat="45.24405" lon="4.6686">
        <ele>332.9</ele>
      </trkpt>
      <trkpt lat="45.24402" lon="4.66866">
        <ele>333.2</ele>
      </trkpt>
      <trkpt lat="45.24398" lon="4.66869">
        <ele>333.4</ele>
      </trkpt>
      <trkpt lat="45.24372" lon="4.66869">
        <ele>335.3</ele>
      </trkpt>
      <trkpt lat="45.24345" lon="4.66875">
        <ele>336.6</ele>
      </trkpt>
      <trkpt lat="45.24335" lon="4.66881">
        <ele>336.1</ele>
      </trkpt>
      <trkpt lat="45.2433" lon="4.66889">
        <ele>343.9</ele>
      </trkpt>
      <trkpt lat="45.24326" lon="4.66909">
        <ele>338.3</ele>
      </trkpt>
      <trkpt lat="45.24328" lon="4.66917">
        <ele>333.1</ele>
      </trkpt>
      <trkpt lat="45.24328" lon="4.66925">
        <ele>333.7</ele>
      </trkpt>
      <trkpt lat="45.24326" lon="4.6693">
        <ele>334.3</ele>
      </trkpt>
      <trkpt lat="45.24319" lon="4.66937">
        <ele>335.2</ele>
      </trkpt>
      <trkpt lat="45.24315" lon="4.66937">
        <ele>335.5</ele>
      </trkpt>
      <trkpt lat="45.24312" lon="4.66966">
        <ele>335.1</ele>
      </trkpt>
      <trkpt lat="45.24307" lon="4.66994">
        <ele>334</ele>
      </trkpt>
      <trkpt lat="45.24293" lon="4.67024">
        <ele>331.3</ele>
      </trkpt>
      <trkpt lat="45.24308" lon="4.67061">
        <ele>331.5</ele>
      </trkpt>
      <trkpt lat="45.24312" lon="4.67071">
        <ele>331.7</ele>
      </trkpt>
      <trkpt lat="45.24308" lon="4.67074">
        <ele>331.6</ele>
      </trkpt>
      <trkpt lat="45.24311" lon="4.67084">
        <ele>332</ele>
      </trkpt>
      <trkpt lat="45.2431" lon="4.67085">
        <ele>332</ele>
      </trkpt>
      <trkpt lat="45.24322" lon="4.67121">
        <ele>332.1</ele>
      </trkpt>
      <trkpt lat="45.24318" lon="4.67124">
        <ele>332.1</ele>
      </trkpt>
      <trkpt lat="45.2433" lon="4.6715">
        <ele>332.8</ele>
      </trkpt>
      <trkpt lat="45.24328" lon="4.67152">
        <ele>332.9</ele>
      </trkpt>
      <trkpt lat="45.24316" lon="4.67165">
        <ele>332.7</ele>
      </trkpt>
      <trkpt lat="45.24318" lon="4.67176">
        <ele>334</ele>
      </trkpt>
      <trkpt lat="45.24319" lon="4.67188">
        <ele>334.3</ele>
      </trkpt>
      <trkpt lat="45.24318" lon="4.67192">
        <ele>334.4</ele>
      </trkpt>
      <trkpt lat="45.24283" lon="4.67243">
        <ele>334</ele>
      </trkpt>
      <trkpt lat="45.24277" lon="4.67256">
        <ele>335.7</ele>
      </trkpt>
      <trkpt lat="45.24275" lon="4.67266">
        <ele>335.9</ele>
      </trkpt>
      <trkpt lat="45.24271" lon="4.67291">
        <ele>336.6</ele>
      </trkpt>
      <trkpt lat="45.24268" lon="4.67297">
        <ele>336.6</ele>
      </trkpt>
      <trkpt lat="45.2426" lon="4.67306">
        <ele>336.5</ele>
      </trkpt>
      <trkpt lat="45.24256" lon="4.67309">
        <ele>336.3</ele>
      </trkpt>
      <trkpt lat="45.24254" lon="4.6731">
        <ele>336.3</ele>
      </trkpt>
      <trkpt lat="45.24252" lon="4.67311">
        <ele>336.2</ele>
      </trkpt>
      <trkpt lat="45.2425" lon="4.67312">
        <ele>333.1</ele>
      </trkpt>
      <trkpt lat="45.24247" lon="4.67337">
        <ele>335.5</ele>
      </trkpt>
      <trkpt lat="45.24239" lon="4.67365">
        <ele>337.5</ele>
      </trkpt>
      <trkpt lat="45.2423" lon="4.67397">
        <ele>339.8</ele>
      </trkpt>
      <trkpt lat="45.24225" lon="4.67406">
        <ele>340.1</ele>
      </trkpt>
      <trkpt lat="45.24216" lon="4.67444">
        <ele>346.8</ele>
      </trkpt>
      <trkpt lat="45.2421" lon="4.67475">
        <ele>348.6</ele>
      </trkpt>
      <trkpt lat="45.24205" lon="4.67521">
        <ele>358.6</ele>
      </trkpt>
      <trkpt lat="45.24199" lon="4.6754">
        <ele>360.1</ele>
      </trkpt>
      <trkpt lat="45.24161" lon="4.67603">
        <ele>369.7</ele>
      </trkpt>
      <trkpt lat="45.24159" lon="4.67612">
        <ele>370.8</ele>
      </trkpt>
      <trkpt lat="45.24157" lon="4.67617">
        <ele>371.3</ele>
      </trkpt>
      <trkpt lat="45.24151" lon="4.67633">
        <ele>372.7</ele>
      </trkpt>
      <trkpt lat="45.24146" lon="4.67653">
        <ele>373.9</ele>
      </trkpt>
      <trkpt lat="45.24144" lon="4.6766">
        <ele>374.1</ele>
      </trkpt>
      <trkpt lat="45.24137" lon="4.67657">
        <ele>373.9</ele>
      </trkpt>
      <trkpt lat="45.24133" lon="4.67683">
        <ele>378.3</ele>
      </trkpt>
      <trkpt lat="45.24125" lon="4.67723">
        <ele>379.3</ele>
      </trkpt>
      <trkpt lat="45.24126" lon="4.67739">
        <ele>379.6</ele>
      </trkpt>
      <trkpt lat="45.24116" lon="4.67764">
        <ele>382.3</ele>
      </trkpt>
      <trkpt lat="45.24112" lon="4.67771">
        <ele>382.4</ele>
      </trkpt>
      <trkpt lat="45.24108" lon="4.67777">
        <ele>382.5</ele>
      </trkpt>
      <trkpt lat="45.24105" lon="4.67779">
        <ele>382.5</ele>
      </trkpt>
      <trkpt lat="45.24102" lon="4.67786">
        <ele>382.6</ele>
      </trkpt>
      <trkpt lat="45.24101" lon="4.6779">
        <ele>382.7</ele>
      </trkpt>
      <trkpt lat="45.24101" lon="4.67793">
        <ele>382.8</ele>
      </trkpt>
      <trkpt lat="45.24091" lon="4.67813">
        <ele>383</ele>
      </trkpt>
      <trkpt lat="45.24077" lon="4.67858">
        <ele>380.7</ele>
      </trkpt>
      <trkpt lat="45.24067" lon="4.67894">
        <ele>380.4</ele>
      </trkpt>
      <trkpt lat="45.24059" lon="4.67942">
        <ele>379.6</ele>
      </trkpt>
      <trkpt lat="45.24058" lon="4.67966">
        <ele>379.2</ele>
      </trkpt>
      <trkpt lat="45.24059" lon="4.67993">
        <ele>379.1</ele>
      </trkpt>
      <trkpt lat="45.24059" lon="4.68013">
        <ele>378.7</ele>
      </trkpt>
      <trkpt lat="45.24058" lon="4.68052">
        <ele>378.6</ele>
      </trkpt>
      <trkpt lat="45.24049" lon="4.68149">
        <ele>378.9</ele>
      </trkpt>
      <trkpt lat="45.24044" lon="4.68185">
        <ele>380.5</ele>
      </trkpt>
      <trkpt lat="45.24039" lon="4.68221">
        <ele>381.3</ele>
      </trkpt>
      <trkpt lat="45.24037" lon="4.68236">
        <ele>381.6</ele>
      </trkpt>
      <trkpt lat="45.24024" lon="4.68315">
        <ele>384.5</ele>
      </trkpt>
      <trkpt lat="45.24008" lon="4.684">
        <ele>385.5</ele>
      </trkpt>
      <trkpt lat="45.24005" lon="4.68447">
        <ele>385.5</ele>
      </trkpt>
      <trkpt lat="45.23999" lon="4.68501">
        <ele>384</ele>
      </trkpt>
      <trkpt lat="45.23998" lon="4.68504">
        <ele>383.9</ele>
      </trkpt>
      <trkpt lat="45.23996" lon="4.68521">
        <ele>383.6</ele>
      </trkpt>
      <trkpt lat="45.23997" lon="4.68523">
        <ele>383.6</ele>
      </trkpt>
      <trkpt lat="45.23996" lon="4.68532">
        <ele>383.5</ele>
      </trkpt>
      <trkpt lat="45.23994" lon="4.68535">
        <ele>383.5</ele>
      </trkpt>
      <trkpt lat="45.23991" lon="4.68547">
        <ele>383.5</ele>
      </trkpt>
      <trkpt lat="45.23989" lon="4.68554">
        <ele>383.6</ele>
      </trkpt>
      <trkpt lat="45.23982" lon="4.68585">
        <ele>384.4</ele>
      </trkpt>
      <trkpt lat="45.2395" lon="4.68745">
        <ele>386.1</ele>
      </trkpt>
      <trkpt lat="45.23943" lon="4.6878">
        <ele>385.8</ele>
      </trkpt>
      <trkpt lat="45.23933" lon="4.68831">
        <ele>385.3</ele>
      </trkpt>
      <trkpt lat="45.23924" lon="4.68876">
        <ele>384.7</ele>
      </trkpt>
      <trkpt lat="45.23917" lon="4.68941">
        <ele>383</ele>
      </trkpt>
      <trkpt lat="45.23912" lon="4.68972">
        <ele>381</ele>
      </trkpt>
      <trkpt lat="45.23901" lon="4.68991">
        <ele>380.6</ele>
      </trkpt>
      <trkpt lat="45.23896" lon="4.68992">
        <ele>380.6</ele>
      </trkpt>
      <trkpt lat="45.23891" lon="4.68995">
        <ele>380.6</ele>
      </trkpt>
      <trkpt lat="45.23887" lon="4.68999">
        <ele>380.5</ele>
      </trkpt>
      <trkpt lat="45.23881" lon="4.69006">
        <ele>379.3</ele>
      </trkpt>
      <trkpt lat="45.23877" lon="4.69015">
        <ele>379.2</ele>
      </trkpt>
      <trkpt lat="45.23875" lon="4.69029">
        <ele>379.2</ele>
      </trkpt>
      <trkpt lat="45.23876" lon="4.69043">
        <ele>379.3</ele>
      </trkpt>
      <trkpt lat="45.23878" lon="4.6905">
        <ele>379.3</ele>
      </trkpt>
      <trkpt lat="45.2388" lon="4.69056">
        <ele>379.4</ele>
      </trkpt>
      <trkpt lat="45.23879" lon="4.6907">
        <ele>379.5</ele>
      </trkpt>
      <trkpt lat="45.23875" lon="4.69092">
        <ele>381.8</ele>
      </trkpt>
      <trkpt lat="45.23871" lon="4.69102">
        <ele>382</ele>
      </trkpt>
      <trkpt lat="45.23862" lon="4.69111">
        <ele>382</ele>
      </trkpt>
      <trkpt lat="45.23814" lon="4.69144">
        <ele>381.5</ele>
      </trkpt>
      <trkpt lat="45.23802" lon="4.69153">
        <ele>381.6</ele>
      </trkpt>
      <trkpt lat="45.23767" lon="4.69207">
        <ele>387.7</ele>
      </trkpt>
      <trkpt lat="45.23754" lon="4.69233">
        <ele>389.7</ele>
      </trkpt>
      <trkpt lat="45.23748" lon="4.69254">
        <ele>392.4</ele>
      </trkpt>
      <trkpt lat="45.23742" lon="4.69274">
        <ele>393.4</ele>
      </trkpt>
      <trkpt lat="45.23734" lon="4.69302">
        <ele>394</ele>
      </trkpt>
      <trkpt lat="45.23717" lon="4.69343">
        <ele>395.7</ele>
      </trkpt>
      <trkpt lat="45.23693" lon="4.69391">
        <ele>396.6</ele>
      </trkpt>
      <trkpt lat="45.23678" lon="4.69416">
        <ele>397.4</ele>
      </trkpt>
      <trkpt lat="45.23643" lon="4.6944">
        <ele>397.8</ele>
      </trkpt>
      <trkpt lat="45.23608" lon="4.69471">
        <ele>397.6</ele>
      </trkpt>
      <trkpt lat="45.23569" lon="4.69497">
        <ele>396</ele>
      </trkpt>
      <trkpt lat="45.23554" lon="4.69519">
        <ele>396.1</ele>
      </trkpt>
      <trkpt lat="45.23543" lon="4.69556">
        <ele>396.1</ele>
      </trkpt>
      <trkpt lat="45.23535" lon="4.69565">
        <ele>396</ele>
      </trkpt>
      <trkpt lat="45.23436" lon="4.69662">
        <ele>396.4</ele>
      </trkpt>
      <trkpt lat="45.23357" lon="4.69771">
        <ele>398.5</ele>
      </trkpt>
      <trkpt lat="45.23351" lon="4.69781">
        <ele>398.6</ele>
      </trkpt>
      <trkpt lat="45.23343" lon="4.69796">
        <ele>398.7</ele>
      </trkpt>
      <trkpt lat="45.23332" lon="4.69809">
        <ele>397.2</ele>
      </trkpt>
      <trkpt lat="45.23287" lon="4.69845">
        <ele>395.8</ele>
      </trkpt>
      <trkpt lat="45.23275" lon="4.69862">
        <ele>395.4</ele>
      </trkpt>
      <trkpt lat="45.23272" lon="4.69879">
        <ele>395.1</ele>
      </trkpt>
      <trkpt lat="45.23277" lon="4.69914">
        <ele>394.6</ele>
      </trkpt>
      <trkpt lat="45.23262" lon="4.6992">
        <ele>392.8</ele>
      </trkpt>
      <trkpt lat="45.23234" lon="4.6993">
        <ele>392.8</ele>
      </trkpt>
      <trkpt lat="45.23211" lon="4.69929">
        <ele>392.9</ele>
      </trkpt>
      <trkpt lat="45.23181" lon="4.69917">
        <ele>393.9</ele>
      </trkpt>
      <trkpt lat="45.23168" lon="4.69911">
        <ele>394.9</ele>
      </trkpt>
      <trkpt lat="45.23139" lon="4.69908">
        <ele>394.5</ele>
      </trkpt>
      <trkpt lat="45.23096" lon="4.69914">
        <ele>393.6</ele>
      </trkpt>
      <trkpt lat="45.23086" lon="4.69906">
        <ele>393.6</ele>
      </trkpt>
      <trkpt lat="45.2307" lon="4.69904">
        <ele>393.1</ele>
      </trkpt>
      <trkpt lat="45.23029" lon="4.69891">
        <ele>392.8</ele>
      </trkpt>
      <trkpt lat="45.23008" lon="4.69889">
        <ele>392.6</ele>
      </trkpt>
      <trkpt lat="45.22945" lon="4.69887">
        <ele>388.4</ele>
      </trkpt>
      <trkpt lat="45.22928" lon="4.69882">
        <ele>388</ele>
      </trkpt>
      <trkpt lat="45.22892" lon="4.69866">
        <ele>384.3</ele>
      </trkpt>
      <trkpt lat="45.22857" lon="4.69862">
        <ele>383.3</ele>
      </trkpt>
      <trkpt lat="45.22836" lon="4.69858">
        <ele>383</ele>
      </trkpt>
      <trkpt lat="45.22822" lon="4.69853">
        <ele>379.4</ele>
      </trkpt>
      <trkpt lat="45.22811" lon="4.69844">
        <ele>378.9</ele>
      </trkpt>
      <trkpt lat="45.22793" lon="4.69838">
        <ele>377.3</ele>
      </trkpt>
      <trkpt lat="45.22776" lon="4.69836">
        <ele>375.7</ele>
      </trkpt>
      <trkpt lat="45.22762" lon="4.69845">
        <ele>374.6</ele>
      </trkpt>
      <trkpt lat="45.22736" lon="4.69883">
        <ele>369.2</ele>
      </trkpt>
      <trkpt lat="45.22728" lon="4.699">
        <ele>369.4</ele>
      </trkpt>
      <trkpt lat="45.22705" lon="4.69914">
        <ele>367.4</ele>
      </trkpt>
      <trkpt lat="45.22672" lon="4.69926">
        <ele>365.6</ele>
      </trkpt>
      <trkpt lat="45.22644" lon="4.69929">
        <ele>361.7</ele>
      </trkpt>
      <trkpt lat="45.22622" lon="4.69944">
        <ele>360.7</ele>
      </trkpt>
      <trkpt lat="45.22567" lon="4.69958">
        <ele>352.8</ele>
      </trkpt>
      <trkpt lat="45.22556" lon="4.69962">
        <ele>352.5</ele>
      </trkpt>
      <trkpt lat="45.22547" lon="4.69965">
        <ele>352.1</ele>
      </trkpt>
      <trkpt lat="45.22531" lon="4.6997">
        <ele>351.4</ele>
      </trkpt>
      <trkpt lat="45.22498" lon="4.69969">
        <ele>344.7</ele>
      </trkpt>
      <trkpt lat="45.22454" lon="4.69954">
        <ele>341.4</ele>
      </trkpt>
      <trkpt lat="45.22427" lon="4.69935">
        <ele>337</ele>
      </trkpt>
      <trkpt lat="45.22219" lon="4.69826">
        <ele>307.9</ele>
      </trkpt>
      <trkpt lat="45.22212" lon="4.69814">
        <ele>307.5</ele>
      </trkpt>
      <trkpt lat="45.22212" lon="4.69793">
        <ele>307.7</ele>
      </trkpt>
      <trkpt lat="45.22184" lon="4.69772">
        <ele>305.2</ele>
      </trkpt>
      <trkpt lat="45.22155" lon="4.69769">
        <ele>297</ele>
      </trkpt>
      <trkpt lat="45.22154" lon="4.69787">
        <ele>296.9</ele>
      </trkpt>
      <trkpt lat="45.22147" lon="4.69799">
        <ele>296.9</ele>
      </trkpt>
      <trkpt lat="45.22135" lon="4.69802">
        <ele>296.2</ele>
      </trkpt>
      <trkpt lat="45.22099" lon="4.69795">
        <ele>293.5</ele>
      </trkpt>
      <trkpt lat="45.2206" lon="4.6978">
        <ele>281</ele>
      </trkpt>
      <trkpt lat="45.22047" lon="4.69781">
        <ele>279.8</ele>
      </trkpt>
      <trkpt lat="45.21979" lon="4.69835">
        <ele>277.2</ele>
      </trkpt>
      <trkpt lat="45.21968" lon="4.69849">
        <ele>275.6</ele>
      </trkpt>
      <trkpt lat="45.21964" lon="4.69875">
        <ele>276.1</ele>
      </trkpt>
      <trkpt lat="45.21965" lon="4.69889">
        <ele>277</ele>
      </trkpt>
      <trkpt lat="45.21977" lon="4.69925">
        <ele>284.6</ele>
      </trkpt>
      <trkpt lat="45.21979" lon="4.69937">
        <ele>284.6</ele>
      </trkpt>
      <trkpt lat="45.21973" lon="4.6997">
        <ele>284.8</ele>
      </trkpt>
      <trkpt lat="45.21976" lon="4.69988">
        <ele>285.6</ele>
      </trkpt>
      <trkpt lat="45.21986" lon="4.70021">
        <ele>289.1</ele>
      </trkpt>
      <trkpt lat="45.21995" lon="4.70043">
        <ele>289.1</ele>
      </trkpt>
      <trkpt lat="45.22024" lon="4.70087">
        <ele>292.4</ele>
      </trkpt>
      <trkpt lat="45.2203" lon="4.70099">
        <ele>293.9</ele>
      </trkpt>
      <trkpt lat="45.2203" lon="4.70111">
        <ele>294.2</ele>
      </trkpt>
      <trkpt lat="45.22029" lon="4.70125">
        <ele>294.2</ele>
      </trkpt>
      <trkpt lat="45.22024" lon="4.70135">
        <ele>293.8</ele>
      </trkpt>
      <trkpt lat="45.22017" lon="4.70142">
        <ele>293.3</ele>
      </trkpt>
      <trkpt lat="45.21999" lon="4.70141">
        <ele>295.5</ele>
      </trkpt>
      <trkpt lat="45.21983" lon="4.70132">
        <ele>296.9</ele>
      </trkpt>
      <trkpt lat="45.21966" lon="4.70114">
        <ele>297.9</ele>
      </trkpt>
      <trkpt lat="45.21959" lon="4.70105">
        <ele>298.2</ele>
      </trkpt>
      <trkpt lat="45.21953" lon="4.70095">
        <ele>298.6</ele>
      </trkpt>
      <trkpt lat="45.2192" lon="4.70019">
        <ele>289.5</ele>
      </trkpt>
      <trkpt lat="45.21905" lon="4.69967">
        <ele>287.2</ele>
      </trkpt>
      <trkpt lat="45.21899" lon="4.69936">
        <ele>283</ele>
      </trkpt>
      <trkpt lat="45.21887" lon="4.69914">
        <ele>272</ele>
      </trkpt>
      <trkpt lat="45.21839" lon="4.69896">
        <ele>276</ele>
      </trkpt>
      <trkpt lat="45.21816" lon="4.69883">
        <ele>277.6</ele>
      </trkpt>
      <trkpt lat="45.21785" lon="4.6987">
        <ele>276.7</ele>
      </trkpt>
      <trkpt lat="45.21763" lon="4.69867">
        <ele>276.7</ele>
      </trkpt>
      <trkpt lat="45.21684" lon="4.69843">
        <ele>276.2</ele>
      </trkpt>
      <trkpt lat="45.21643" lon="4.69841">
        <ele>273.2</ele>
      </trkpt>
      <trkpt lat="45.21621" lon="4.69843">
        <ele>272.7</ele>
      </trkpt>
      <trkpt lat="45.21607" lon="4.69848">
        <ele>271.1</ele>
      </trkpt>
      <trkpt lat="45.21596" lon="4.69855">
        <ele>270.7</ele>
      </trkpt>
      <trkpt lat="45.21581" lon="4.69875">
        <ele>268.3</ele>
      </trkpt>
      <trkpt lat="45.21556" lon="4.69917">
        <ele>279</ele>
      </trkpt>
      <trkpt lat="45.21536" lon="4.69942">
        <ele>277</ele>
      </trkpt>
      <trkpt lat="45.21512" lon="4.69978">
        <ele>275.9</ele>
      </trkpt>
      <trkpt lat="45.21478" lon="4.70063">
        <ele>274.8</ele>
      </trkpt>
      <trkpt lat="45.21464" lon="4.70089">
        <ele>285.6</ele>
      </trkpt>
      <trkpt lat="45.21447" lon="4.70105">
        <ele>283.4</ele>
      </trkpt>
      <trkpt lat="45.21428" lon="4.70122">
        <ele>284.4</ele>
      </trkpt>
      <trkpt lat="45.21405" lon="4.70126">
        <ele>276.3</ele>
      </trkpt>
      <trkpt lat="45.21354" lon="4.7011">
        <ele>272.1</ele>
      </trkpt>
      <trkpt lat="45.21336" lon="4.70108">
        <ele>270.3</ele>
      </trkpt>
      <trkpt lat="45.21281" lon="4.70113">
        <ele>266.3</ele>
      </trkpt>
      <trkpt lat="45.21222" lon="4.70156">
        <ele>260.4</ele>
      </trkpt>
      <trkpt lat="45.21213" lon="4.70169">
        <ele>267.6</ele>
      </trkpt>
      <trkpt lat="45.21204" lon="4.70198">
        <ele>267.8</ele>
      </trkpt>
      <trkpt lat="45.21203" lon="4.70204">
        <ele>268.2</ele>
      </trkpt>
      <trkpt lat="45.21197" lon="4.70218">
        <ele>268</ele>
      </trkpt>
      <trkpt lat="45.21176" lon="4.70262">
        <ele>269.2</ele>
      </trkpt>
      <trkpt lat="45.21168" lon="4.70286">
        <ele>276.5</ele>
      </trkpt>
      <trkpt lat="45.21161" lon="4.70305">
        <ele>259.7</ele>
      </trkpt>
      <trkpt lat="45.2114" lon="4.70339">
        <ele>265.4</ele>
      </trkpt>
      <trkpt lat="45.21123" lon="4.70349">
        <ele>262.3</ele>
      </trkpt>
      <trkpt lat="45.21113" lon="4.7036">
        <ele>261.2</ele>
      </trkpt>
      <trkpt lat="45.21071" lon="4.70426">
        <ele>255.7</ele>
      </trkpt>
      <trkpt lat="45.21066" lon="4.7043">
        <ele>256.1</ele>
      </trkpt>
      <trkpt lat="45.21062" lon="4.70455">
        <ele>258.6</ele>
      </trkpt>
      <trkpt lat="45.2105" lon="4.70495">
        <ele>261.5</ele>
      </trkpt>
      <trkpt lat="45.21051" lon="4.70501">
        <ele>271.7</ele>
      </trkpt>
      <trkpt lat="45.21033" lon="4.70528">
        <ele>269.6</ele>
      </trkpt>
      <trkpt lat="45.20992" lon="4.70564">
        <ele>256.3</ele>
      </trkpt>
      <trkpt lat="45.20985" lon="4.70575">
        <ele>257.2</ele>
      </trkpt>
      <trkpt lat="45.20983" lon="4.70593">
        <ele>259.4</ele>
      </trkpt>
      <trkpt lat="45.20985" lon="4.70613">
        <ele>258.9</ele>
      </trkpt>
      <trkpt lat="45.21001" lon="4.70677">
        <ele>278.8</ele>
      </trkpt>
      <trkpt lat="45.21004" lon="4.70698">
        <ele>285.7</ele>
      </trkpt>
      <trkpt lat="45.20991" lon="4.70816">
        <ele>269.2</ele>
      </trkpt>
      <trkpt lat="45.20978" lon="4.7086">
        <ele>274.3</ele>
      </trkpt>
      <trkpt lat="45.20969" lon="4.70873">
        <ele>274.1</ele>
      </trkpt>
      <trkpt lat="45.20923" lon="4.70897">
        <ele>270</ele>
      </trkpt>
      <trkpt lat="45.20862" lon="4.70934">
        <ele>262.2</ele>
      </trkpt>
      <trkpt lat="45.20851" lon="4.70947">
        <ele>262</ele>
      </trkpt>
      <trkpt lat="45.20846" lon="4.70962">
        <ele>263.3</ele>
      </trkpt>
      <trkpt lat="45.20842" lon="4.70989">
        <ele>262.2</ele>
      </trkpt>
      <trkpt lat="45.20839" lon="4.71039">
        <ele>274.4</ele>
      </trkpt>
      <trkpt lat="45.20829" lon="4.71069">
        <ele>261.2</ele>
      </trkpt>
      <trkpt lat="45.20831" lon="4.71122">
        <ele>259.1</ele>
      </trkpt>
      <trkpt lat="45.20839" lon="4.7116">
        <ele>269.3</ele>
      </trkpt>
      <trkpt lat="45.20838" lon="4.712">
        <ele>275.7</ele>
      </trkpt>
      <trkpt lat="45.20845" lon="4.71237">
        <ele>271.7</ele>
      </trkpt>
      <trkpt lat="45.20848" lon="4.71273">
        <ele>271.1</ele>
      </trkpt>
      <trkpt lat="45.20851" lon="4.71329">
        <ele>265.5</ele>
      </trkpt>
      <trkpt lat="45.20853" lon="4.71489">
        <ele>260.9</ele>
      </trkpt>
      <trkpt lat="45.20859" lon="4.71512">
        <ele>261.2</ele>
      </trkpt>
      <trkpt lat="45.20859" lon="4.71534">
        <ele>262.5</ele>
      </trkpt>
      <trkpt lat="45.2085" lon="4.71554">
        <ele>261.1</ele>
      </trkpt>
      <trkpt lat="45.20837" lon="4.71568">
        <ele>257.7</ele>
      </trkpt>
      <trkpt lat="45.20833" lon="4.71575">
        <ele>249.4</ele>
      </trkpt>
      <trkpt lat="45.2083" lon="4.71585">
        <ele>250.7</ele>
      </trkpt>
      <trkpt lat="45.20831" lon="4.71597">
        <ele>248.3</ele>
      </trkpt>
      <trkpt lat="45.20837" lon="4.71608">
        <ele>258.6</ele>
      </trkpt>
      <trkpt lat="45.20851" lon="4.71618">
        <ele>260.6</ele>
      </trkpt>
      <trkpt lat="45.20865" lon="4.71626">
        <ele>262.3</ele>
      </trkpt>
      <trkpt lat="45.20878" lon="4.71644">
        <ele>264</ele>
      </trkpt>
      <trkpt lat="45.2088" lon="4.71652">
        <ele>264.3</ele>
      </trkpt>
      <trkpt lat="45.20879" lon="4.7166">
        <ele>264.1</ele>
      </trkpt>
      <trkpt lat="45.20877" lon="4.71668">
        <ele>266.3</ele>
      </trkpt>
      <trkpt lat="45.2087" lon="4.71674">
        <ele>265.2</ele>
      </trkpt>
      <trkpt lat="45.20845" lon="4.71684">
        <ele>261.2</ele>
      </trkpt>
      <trkpt lat="45.20832" lon="4.71696">
        <ele>252.1</ele>
      </trkpt>
      <trkpt lat="45.20824" lon="4.717">
        <ele>252.1</ele>
      </trkpt>
      <trkpt lat="45.2081" lon="4.71703">
        <ele>251.3</ele>
      </trkpt>
      <trkpt lat="45.20786" lon="4.71719">
        <ele>249.9</ele>
      </trkpt>
      <trkpt lat="45.20762" lon="4.71751">
        <ele>251.6</ele>
      </trkpt>
      <trkpt lat="45.20752" lon="4.7177">
        <ele>253.6</ele>
      </trkpt>
      <trkpt lat="45.20748" lon="4.71788">
        <ele>244.5</ele>
      </trkpt>
      <trkpt lat="45.20747" lon="4.71805">
        <ele>245.9</ele>
      </trkpt>
      <trkpt lat="45.20749" lon="4.71821">
        <ele>249.2</ele>
      </trkpt>
      <trkpt lat="45.20764" lon="4.71851">
        <ele>260.5</ele>
      </trkpt>
      <trkpt lat="45.20764" lon="4.7186">
        <ele>261.4</ele>
      </trkpt>
      <trkpt lat="45.20763" lon="4.71868">
        <ele>261.8</ele>
      </trkpt>
      <trkpt lat="45.20747" lon="4.71895">
        <ele>249.5</ele>
      </trkpt>
      <trkpt lat="45.20745" lon="4.71914">
        <ele>253.5</ele>
      </trkpt>
      <trkpt lat="45.20744" lon="4.71932">
        <ele>250.1</ele>
      </trkpt>
      <trkpt lat="45.20751" lon="4.71951">
        <ele>259.5</ele>
      </trkpt>
      <trkpt lat="45.2076" lon="4.71959">
        <ele>259.7</ele>
      </trkpt>
      <trkpt lat="45.20767" lon="4.7197">
        <ele>259.5</ele>
      </trkpt>
      <trkpt lat="45.20776" lon="4.71999">
        <ele>258.9</ele>
      </trkpt>
      <trkpt lat="45.20783" lon="4.72009">
        <ele>257.7</ele>
      </trkpt>
      <trkpt lat="45.208" lon="4.7203">
        <ele>259.6</ele>
      </trkpt>
      <trkpt lat="45.20816" lon="4.72046">
        <ele>260.4</ele>
      </trkpt>
      <trkpt lat="45.20822" lon="4.72052">
        <ele>260.6</ele>
      </trkpt>
      <trkpt lat="45.20828" lon="4.72065">
        <ele>261</ele>
      </trkpt>
      <trkpt lat="45.20829" lon="4.72075">
        <ele>261.7</ele>
      </trkpt>
      <trkpt lat="45.20827" lon="4.7209">
        <ele>264.1</ele>
      </trkpt>
      <trkpt lat="45.20822" lon="4.72099">
        <ele>265</ele>
      </trkpt>
      <trkpt lat="45.20815" lon="4.72104">
        <ele>265.4</ele>
      </trkpt>
      <trkpt lat="45.20804" lon="4.72106">
        <ele>265.3</ele>
      </trkpt>
      <trkpt lat="45.20772" lon="4.721">
        <ele>261.4</ele>
      </trkpt>
      <trkpt lat="45.20761" lon="4.72101">
        <ele>259.9</ele>
      </trkpt>
      <trkpt lat="45.20751" lon="4.72107">
        <ele>260.6</ele>
      </trkpt>
      <trkpt lat="45.20743" lon="4.7212">
        <ele>254.3</ele>
      </trkpt>
      <trkpt lat="45.20723" lon="4.7216">
        <ele>258</ele>
      </trkpt>
      <trkpt lat="45.20709" lon="4.72182">
        <ele>267.1</ele>
      </trkpt>
      <trkpt lat="45.20671" lon="4.72224">
        <ele>267.4</ele>
      </trkpt>
      <trkpt lat="45.2065" lon="4.72228">
        <ele>256.6</ele>
      </trkpt>
      <trkpt lat="45.20629" lon="4.72225">
        <ele>253.7</ele>
      </trkpt>
      <trkpt lat="45.20609" lon="4.72217">
        <ele>251.5</ele>
      </trkpt>
      <trkpt lat="45.20593" lon="4.72207">
        <ele>249.5</ele>
      </trkpt>
      <trkpt lat="45.20583" lon="4.72199">
        <ele>240.9</ele>
      </trkpt>
      <trkpt lat="45.20565" lon="4.72181">
        <ele>239.3</ele>
      </trkpt>
      <trkpt lat="45.20559" lon="4.72178">
        <ele>239.1</ele>
      </trkpt>
      <trkpt lat="45.20551" lon="4.72178">
        <ele>238.8</ele>
      </trkpt>
      <trkpt lat="45.20547" lon="4.72182">
        <ele>238.8</ele>
      </trkpt>
      <trkpt lat="45.20544" lon="4.72186">
        <ele>238.8</ele>
      </trkpt>
      <trkpt lat="45.20543" lon="4.72189">
        <ele>238.9</ele>
      </trkpt>
      <trkpt lat="45.20543" lon="4.72203">
        <ele>239.6</ele>
      </trkpt>
      <trkpt lat="45.20556" lon="4.72248">
        <ele>243.8</ele>
      </trkpt>
      <trkpt lat="45.20559" lon="4.72265">
        <ele>248.2</ele>
      </trkpt>
      <trkpt lat="45.20554" lon="4.72303">
        <ele>248.6</ele>
      </trkpt>
      <trkpt lat="45.20549" lon="4.72317">
        <ele>248.5</ele>
      </trkpt>
      <trkpt lat="45.20548" lon="4.72337">
        <ele>248.9</ele>
      </trkpt>
      <trkpt lat="45.20551" lon="4.72369">
        <ele>248.2</ele>
      </trkpt>
      <trkpt lat="45.20549" lon="4.72385">
        <ele>247.5</ele>
      </trkpt>
      <trkpt lat="45.20552" lon="4.72412">
        <ele>248.3</ele>
      </trkpt>
      <trkpt lat="45.20558" lon="4.72438">
        <ele>243.5</ele>
      </trkpt>
      <trkpt lat="45.20561" lon="4.72448">
        <ele>242.6</ele>
      </trkpt>
      <trkpt lat="45.20567" lon="4.7246">
        <ele>241.7</ele>
      </trkpt>
      <trkpt lat="45.20574" lon="4.72475">
        <ele>240.7</ele>
      </trkpt>
      <trkpt lat="45.20577" lon="4.7248">
        <ele>240.5</ele>
      </trkpt>
      <trkpt lat="45.20603" lon="4.72504">
        <ele>246.7</ele>
      </trkpt>
      <trkpt lat="45.20617" lon="4.7252">
        <ele>250.1</ele>
      </trkpt>
      <trkpt lat="45.20622" lon="4.72533">
        <ele>250.5</ele>
      </trkpt>
      <trkpt lat="45.20623" lon="4.7255">
        <ele>249.4</ele>
      </trkpt>
      <trkpt lat="45.20622" lon="4.72562">
        <ele>248.3</ele>
      </trkpt>
      <trkpt lat="45.20625" lon="4.72574">
        <ele>248.3</ele>
      </trkpt>
      <trkpt lat="45.20638" lon="4.72587">
        <ele>247.9</ele>
      </trkpt>
      <trkpt lat="45.20646" lon="4.72593">
        <ele>250.1</ele>
      </trkpt>
      <trkpt lat="45.20653" lon="4.72605">
        <ele>250.4</ele>
      </trkpt>
      <trkpt lat="45.20654" lon="4.72618">
        <ele>249.5</ele>
      </trkpt>
      <trkpt lat="45.2065" lon="4.72628">
        <ele>249</ele>
      </trkpt>
      <trkpt lat="45.20638" lon="4.72642">
        <ele>247.4</ele>
      </trkpt>
      <trkpt lat="45.2063" lon="4.72657">
        <ele>245.7</ele>
      </trkpt>
      <trkpt lat="45.20611" lon="4.72726">
        <ele>251</ele>
      </trkpt>
      <trkpt lat="45.20604" lon="4.72737">
        <ele>249.3</ele>
      </trkpt>
      <trkpt lat="45.20592" lon="4.72745">
        <ele>245.1</ele>
      </trkpt>
      <trkpt lat="45.20574" lon="4.72783">
        <ele>249.7</ele>
      </trkpt>
      <trkpt lat="45.20568" lon="4.72788">
        <ele>250.7</ele>
      </trkpt>
      <trkpt lat="45.20457" lon="4.72819">
        <ele>237.1</ele>
      </trkpt>
      <trkpt lat="45.20427" lon="4.72821">
        <ele>234.6</ele>
      </trkpt>
      <trkpt lat="45.20413" lon="4.72826">
        <ele>233.5</ele>
      </trkpt>
      <trkpt lat="45.20406" lon="4.72839">
        <ele>235.3</ele>
      </trkpt>
      <trkpt lat="45.20402" lon="4.72857">
        <ele>236.1</ele>
      </trkpt>
      <trkpt lat="45.20402" lon="4.72894">
        <ele>240.8</ele>
      </trkpt>
      <trkpt lat="45.20398" lon="4.72952">
        <ele>244.7</ele>
      </trkpt>
      <trkpt lat="45.20392" lon="4.72974">
        <ele>245</ele>
      </trkpt>
      <trkpt lat="45.20387" lon="4.72986">
        <ele>244.8</ele>
      </trkpt>
      <trkpt lat="45.20375" lon="4.73003">
        <ele>243.8</ele>
      </trkpt>
      <trkpt lat="45.20371" lon="4.73014">
        <ele>242.7</ele>
      </trkpt>
      <trkpt lat="45.20368" lon="4.73027">
        <ele>242.4</ele>
      </trkpt>
      <trkpt lat="45.20367" lon="4.73055">
        <ele>242.7</ele>
      </trkpt>
      <trkpt lat="45.20368" lon="4.73082">
        <ele>242.7</ele>
      </trkpt>
      <trkpt lat="45.20383" lon="4.73149">
        <ele>248.9</ele>
      </trkpt>
      <trkpt lat="45.20384" lon="4.7317">
        <ele>250.7</ele>
      </trkpt>
      <trkpt lat="45.20383" lon="4.7322">
        <ele>250.4</ele>
      </trkpt>
      <trkpt lat="45.20378" lon="4.73249">
        <ele>249.7</ele>
      </trkpt>
      <trkpt lat="45.20363" lon="4.73285">
        <ele>249</ele>
      </trkpt>
      <trkpt lat="45.2036" lon="4.73304">
        <ele>248.6</ele>
      </trkpt>
      <trkpt lat="45.2036" lon="4.73331">
        <ele>247.2</ele>
      </trkpt>
      <trkpt lat="45.20357" lon="4.73341">
        <ele>250.6</ele>
      </trkpt>
      <trkpt lat="45.2031" lon="4.73428">
        <ele>241.5</ele>
      </trkpt>
      <trkpt lat="45.203" lon="4.73449">
        <ele>240.1</ele>
      </trkpt>
      <trkpt lat="45.20294" lon="4.73468">
        <ele>240.5</ele>
      </trkpt>
      <trkpt lat="45.20294" lon="4.73484">
        <ele>241.7</ele>
      </trkpt>
      <trkpt lat="45.20296" lon="4.73504">
        <ele>252.4</ele>
      </trkpt>
      <trkpt lat="45.20297" lon="4.73526">
        <ele>253.7</ele>
      </trkpt>
      <trkpt lat="45.20295" lon="4.73536">
        <ele>254.2</ele>
      </trkpt>
      <trkpt lat="45.20291" lon="4.73542">
        <ele>254.2</ele>
      </trkpt>
      <trkpt lat="45.20281" lon="4.73544">
        <ele>253.1</ele>
      </trkpt>
      <trkpt lat="45.20273" lon="4.73542">
        <ele>251.9</ele>
      </trkpt>
      <trkpt lat="45.20253" lon="4.7353">
        <ele>247.1</ele>
      </trkpt>
      <trkpt lat="45.20236" lon="4.73529">
        <ele>234</ele>
      </trkpt>
      <trkpt lat="45.20205" lon="4.73531">
        <ele>231.7</ele>
      </trkpt>
      <trkpt lat="45.20194" lon="4.73536">
        <ele>231.1</ele>
      </trkpt>
      <trkpt lat="45.20169" lon="4.73557">
        <ele>232.3</ele>
      </trkpt>
      <trkpt lat="45.20159" lon="4.73572">
        <ele>229.2</ele>
      </trkpt>
      <trkpt lat="45.20151" lon="4.73593">
        <ele>233.4</ele>
      </trkpt>
      <trkpt lat="45.20144" lon="4.73628">
        <ele>235</ele>
      </trkpt>
      <trkpt lat="45.20134" lon="4.73718">
        <ele>240.7</ele>
      </trkpt>
      <trkpt lat="45.20124" lon="4.73779">
        <ele>241.2</ele>
      </trkpt>
      <trkpt lat="45.201" lon="4.73853">
        <ele>233.7</ele>
      </trkpt>
      <trkpt lat="45.20097" lon="4.73867">
        <ele>234</ele>
      </trkpt>
      <trkpt lat="45.20097" lon="4.73882">
        <ele>233.5</ele>
      </trkpt>
      <trkpt lat="45.20099" lon="4.73896">
        <ele>232</ele>
      </trkpt>
      <trkpt lat="45.20108" lon="4.73906">
        <ele>232.9</ele>
      </trkpt>
      <trkpt lat="45.20133" lon="4.73913">
        <ele>238.9</ele>
      </trkpt>
      <trkpt lat="45.20168" lon="4.73927">
        <ele>246.8</ele>
      </trkpt>
      <trkpt lat="45.20174" lon="4.73934">
        <ele>246.6</ele>
      </trkpt>
      <trkpt lat="45.20181" lon="4.7395">
        <ele>244.7</ele>
      </trkpt>
      <trkpt lat="45.20189" lon="4.73962">
        <ele>243.1</ele>
      </trkpt>
      <trkpt lat="45.20202" lon="4.73973">
        <ele>243.4</ele>
      </trkpt>
      <trkpt lat="45.20225" lon="4.73983">
        <ele>247</ele>
      </trkpt>
      <trkpt lat="45.20237" lon="4.73997">
        <ele>247.9</ele>
      </trkpt>
      <trkpt lat="45.2024" lon="4.74004">
        <ele>241.3</ele>
      </trkpt>
      <trkpt lat="45.2024" lon="4.74013">
        <ele>238.6</ele>
      </trkpt>
      <trkpt lat="45.20239" lon="4.74039">
        <ele>232.6</ele>
      </trkpt>
      <trkpt lat="45.20242" lon="4.7405">
        <ele>231.9</ele>
      </trkpt>
      <trkpt lat="45.20257" lon="4.74078">
        <ele>244.9</ele>
      </trkpt>
      <trkpt lat="45.20265" lon="4.74118">
        <ele>249.6</ele>
      </trkpt>
      <trkpt lat="45.20275" lon="4.74151">
        <ele>248.1</ele>
      </trkpt>
      <trkpt lat="45.20282" lon="4.7419">
        <ele>246.2</ele>
      </trkpt>
      <trkpt lat="45.20284" lon="4.74211">
        <ele>246.8</ele>
      </trkpt>
      <trkpt lat="45.20283" lon="4.74244">
        <ele>244</ele>
      </trkpt>
      <trkpt lat="45.20295" lon="4.74282">
        <ele>245.8</ele>
      </trkpt>
      <trkpt lat="45.20296" lon="4.74298">
        <ele>245.6</ele>
      </trkpt>
      <trkpt lat="45.20293" lon="4.74319">
        <ele>244.1</ele>
      </trkpt>
      <trkpt lat="45.20295" lon="4.74358">
        <ele>245.2</ele>
      </trkpt>
      <trkpt lat="45.20284" lon="4.7439">
        <ele>242</ele>
      </trkpt>
      <trkpt lat="45.20275" lon="4.74449">
        <ele>246.5</ele>
      </trkpt>
      <trkpt lat="45.20268" lon="4.74476">
        <ele>245.8</ele>
      </trkpt>
      <trkpt lat="45.20251" lon="4.74518">
        <ele>247</ele>
      </trkpt>
      <trkpt lat="45.20232" lon="4.74549">
        <ele>229.9</ele>
      </trkpt>
      <trkpt lat="45.20234" lon="4.74576">
        <ele>235.3</ele>
      </trkpt>
      <trkpt lat="45.20233" lon="4.74589">
        <ele>243</ele>
      </trkpt>
      <trkpt lat="45.20227" lon="4.746">
        <ele>242.3</ele>
      </trkpt>
      <trkpt lat="45.20217" lon="4.74605">
        <ele>240.7</ele>
      </trkpt>
      <trkpt lat="45.20202" lon="4.74601">
        <ele>236.4</ele>
      </trkpt>
      <trkpt lat="45.20192" lon="4.74606">
        <ele>234.4</ele>
      </trkpt>
      <trkpt lat="45.20184" lon="4.74618">
        <ele>235.3</ele>
      </trkpt>
      <trkpt lat="45.2015" lon="4.74685">
        <ele>233.7</ele>
      </trkpt>
      <trkpt lat="45.20137" lon="4.74697">
        <ele>232.8</ele>
      </trkpt>
      <trkpt lat="45.2012" lon="4.74709">
        <ele>231.1</ele>
      </trkpt>
      <trkpt lat="45.20107" lon="4.74727">
        <ele>230.7</ele>
      </trkpt>
      <trkpt lat="45.20092" lon="4.74738">
        <ele>228.6</ele>
      </trkpt>
      <trkpt lat="45.20077" lon="4.7474">
        <ele>218.9</ele>
      </trkpt>
      <trkpt lat="45.20069" lon="4.74748">
        <ele>217.7</ele>
      </trkpt>
      <trkpt lat="45.20068" lon="4.74765">
        <ele>215.8</ele>
      </trkpt>
      <trkpt lat="45.20074" lon="4.74781">
        <ele>213.7</ele>
      </trkpt>
      <trkpt lat="45.2011" lon="4.7482">
        <ele>232.5</ele>
      </trkpt>
      <trkpt lat="45.20134" lon="4.74842">
        <ele>230.8</ele>
      </trkpt>
      <trkpt lat="45.20146" lon="4.74857">
        <ele>232.3</ele>
      </trkpt>
      <trkpt lat="45.20155" lon="4.74874">
        <ele>229.7</ele>
      </trkpt>
      <trkpt lat="45.20162" lon="4.74907">
        <ele>227.4</ele>
      </trkpt>
      <trkpt lat="45.20164" lon="4.74931">
        <ele>220.2</ele>
      </trkpt>
      <trkpt lat="45.2017" lon="4.74953">
        <ele>235</ele>
      </trkpt>
      <trkpt lat="45.20194" lon="4.74986">
        <ele>234.1</ele>
      </trkpt>
      <trkpt lat="45.20203" lon="4.75008">
        <ele>223.5</ele>
      </trkpt>
      <trkpt lat="45.20222" lon="4.75047">
        <ele>223.5</ele>
      </trkpt>
      <trkpt lat="45.20241" lon="4.7508">
        <ele>223.2</ele>
      </trkpt>
      <trkpt lat="45.20251" lon="4.75093">
        <ele>226.5</ele>
      </trkpt>
      <trkpt lat="45.20262" lon="4.75099">
        <ele>228.6</ele>
      </trkpt>
      <trkpt lat="45.20274" lon="4.75102">
        <ele>231</ele>
      </trkpt>
      <trkpt lat="45.20282" lon="4.75107">
        <ele>232.7</ele>
      </trkpt>
      <trkpt lat="45.20287" lon="4.75115">
        <ele>233.2</ele>
      </trkpt>
      <trkpt lat="45.2029" lon="4.75124">
        <ele>233</ele>
      </trkpt>
      <trkpt lat="45.20294" lon="4.75158">
        <ele>231</ele>
      </trkpt>
      <trkpt lat="45.20338" lon="4.7525">
        <ele>227.7</ele>
      </trkpt>
      <trkpt lat="45.20343" lon="4.75264">
        <ele>232.2</ele>
      </trkpt>
      <trkpt lat="45.20345" lon="4.75291">
        <ele>232</ele>
      </trkpt>
      <trkpt lat="45.2036" lon="4.75323">
        <ele>229</ele>
      </trkpt>
      <trkpt lat="45.2037" lon="4.75358">
        <ele>219.6</ele>
      </trkpt>
      <trkpt lat="45.20394" lon="4.7541">
        <ele>222.1</ele>
      </trkpt>
      <trkpt lat="45.20418" lon="4.75446">
        <ele>234.6</ele>
      </trkpt>
      <trkpt lat="45.20427" lon="4.75468">
        <ele>231.4</ele>
      </trkpt>
      <trkpt lat="45.20434" lon="4.75496">
        <ele>223.8</ele>
      </trkpt>
      <trkpt lat="45.20438" lon="4.75507">
        <ele>213.7</ele>
      </trkpt>
      <trkpt lat="45.20454" lon="4.75519">
        <ele>218.3</ele>
      </trkpt>
      <trkpt lat="45.20461" lon="4.75529">
        <ele>219.3</ele>
      </trkpt>
      <trkpt lat="45.20471" lon="4.75553">
        <ele>218.1</ele>
      </trkpt>
      <trkpt lat="45.20487" lon="4.75582">
        <ele>218.6</ele>
      </trkpt>
      <trkpt lat="45.20505" lon="4.75621">
        <ele>223.4</ele>
      </trkpt>
      <trkpt lat="45.20547" lon="4.75683">
        <ele>213.4</ele>
      </trkpt>
      <trkpt lat="45.20555" lon="4.75712">
        <ele>211.3</ele>
      </trkpt>
      <trkpt lat="45.20567" lon="4.75735">
        <ele>210.5</ele>
      </trkpt>
      <trkpt lat="45.20585" lon="4.75753">
        <ele>212.1</ele>
      </trkpt>
      <trkpt lat="45.20594" lon="4.75766">
        <ele>215</ele>
      </trkpt>
      <trkpt lat="45.20603" lon="4.75785">
        <ele>215.4</ele>
      </trkpt>
      <trkpt lat="45.20623" lon="4.75836">
        <ele>201.9</ele>
      </trkpt>
      <trkpt lat="45.20635" lon="4.75852">
        <ele>203.9</ele>
      </trkpt>
      <trkpt lat="45.20642" lon="4.75867">
        <ele>203.1</ele>
      </trkpt>
      <trkpt lat="45.20654" lon="4.75898">
        <ele>199.3</ele>
      </trkpt>
      <trkpt lat="45.20662" lon="4.75912">
        <ele>197.2</ele>
      </trkpt>
      <trkpt lat="45.20671" lon="4.75923">
        <ele>200.4</ele>
      </trkpt>
      <trkpt lat="45.20675" lon="4.75925">
        <ele>202.3</ele>
      </trkpt>
      <trkpt lat="45.20682" lon="4.75921">
        <ele>204.3</ele>
      </trkpt>
      <trkpt lat="45.20691" lon="4.7592">
        <ele>207.7</ele>
      </trkpt>
      <trkpt lat="45.20713" lon="4.75937">
        <ele>215</ele>
      </trkpt>
      <trkpt lat="45.20715" lon="4.75948">
        <ele>215.1</ele>
      </trkpt>
      <trkpt lat="45.20712" lon="4.75974">
        <ele>213.7</ele>
      </trkpt>
      <trkpt lat="45.20701" lon="4.76022">
        <ele>206.2</ele>
      </trkpt>
      <trkpt lat="45.20702" lon="4.76041">
        <ele>206.5</ele>
      </trkpt>
      <trkpt lat="45.20706" lon="4.76061">
        <ele>206.8</ele>
      </trkpt>
      <trkpt lat="45.20716" lon="4.76093">
        <ele>202.8</ele>
      </trkpt>
      <trkpt lat="45.20727" lon="4.76115">
        <ele>202.3</ele>
      </trkpt>
      <trkpt lat="45.20745" lon="4.76155">
        <ele>196.9</ele>
      </trkpt>
      <trkpt lat="45.20777" lon="4.76204">
        <ele>206.1</ele>
      </trkpt>
      <trkpt lat="45.20785" lon="4.76236">
        <ele>204.4</ele>
      </trkpt>
      <trkpt lat="45.20798" lon="4.76266">
        <ele>196.8</ele>
      </trkpt>
      <trkpt lat="45.2086" lon="4.76351">
        <ele>198.5</ele>
      </trkpt>
      <trkpt lat="45.20884" lon="4.76382">
        <ele>198.6</ele>
      </trkpt>
      <trkpt lat="45.20898" lon="4.76389">
        <ele>198.6</ele>
      </trkpt>
      <trkpt lat="45.20914" lon="4.76393">
        <ele>198.3</ele>
      </trkpt>
      <trkpt lat="45.20948" lon="4.76421">
        <ele>200.2</ele>
      </trkpt>
      <trkpt lat="45.20968" lon="4.76444">
        <ele>203</ele>
      </trkpt>
      <trkpt lat="45.21001" lon="4.76495">
        <ele>207.9</ele>
      </trkpt>
      <trkpt lat="45.21004" lon="4.76504">
        <ele>206.7</ele>
      </trkpt>
      <trkpt lat="45.21004" lon="4.76516">
        <ele>213.6</ele>
      </trkpt>
      <trkpt lat="45.21" lon="4.76536">
        <ele>218.2</ele>
      </trkpt>
      <trkpt lat="45.21001" lon="4.76555">
        <ele>217.3</ele>
      </trkpt>
      <trkpt lat="45.20998" lon="4.76571">
        <ele>196.3</ele>
      </trkpt>
      <trkpt lat="45.20992" lon="4.76584">
        <ele>200.1</ele>
      </trkpt>
      <trkpt lat="45.20974" lon="4.766">
        <ele>198.1</ele>
      </trkpt>
      <trkpt lat="45.20958" lon="4.76623">
        <ele>197.5</ele>
      </trkpt>
      <trkpt lat="45.2091" lon="4.76675">
        <ele>188.5</ele>
      </trkpt>
      <trkpt lat="45.20895" lon="4.76695">
        <ele>190.5</ele>
      </trkpt>
      <trkpt lat="45.20887" lon="4.76713">
        <ele>191.7</ele>
      </trkpt>
      <trkpt lat="45.20866" lon="4.76745">
        <ele>189.9</ele>
      </trkpt>
      <trkpt lat="45.20863" lon="4.76759">
        <ele>190.8</ele>
      </trkpt>
      <trkpt lat="45.20866" lon="4.76774">
        <ele>191.7</ele>
      </trkpt>
      <trkpt lat="45.20872" lon="4.76788">
        <ele>192.8</ele>
      </trkpt>
      <trkpt lat="45.20882" lon="4.76803">
        <ele>194.5</ele>
      </trkpt>
      <trkpt lat="45.20887" lon="4.76815">
        <ele>195.9</ele>
      </trkpt>
      <trkpt lat="45.20885" lon="4.76841">
        <ele>193.8</ele>
      </trkpt>
      <trkpt lat="45.20887" lon="4.76852">
        <ele>193.7</ele>
      </trkpt>
      <trkpt lat="45.20898" lon="4.76894">
        <ele>194</ele>
      </trkpt>
      <trkpt lat="45.20903" lon="4.76936">
        <ele>193.5</ele>
      </trkpt>
      <trkpt lat="45.20907" lon="4.76961">
        <ele>191.5</ele>
      </trkpt>
      <trkpt lat="45.20908" lon="4.76985">
        <ele>190.8</ele>
      </trkpt>
      <trkpt lat="45.2091" lon="4.76996">
        <ele>190.9</ele>
      </trkpt>
      <trkpt lat="45.20915" lon="4.77004">
        <ele>191</ele>
      </trkpt>
      <trkpt lat="45.2092" lon="4.77019">
        <ele>199.1</ele>
      </trkpt>
      <trkpt lat="45.20921" lon="4.77033">
        <ele>200.6</ele>
      </trkpt>
      <trkpt lat="45.20919" lon="4.77056">
        <ele>198.1</ele>
      </trkpt>
      <trkpt lat="45.20929" lon="4.77136">
        <ele>189.8</ele>
      </trkpt>
      <trkpt lat="45.20932" lon="4.77151">
        <ele>187.5</ele>
      </trkpt>
      <trkpt lat="45.20936" lon="4.77163">
        <ele>186.9</ele>
      </trkpt>
      <trkpt lat="45.20958" lon="4.7718">
        <ele>190.1</ele>
      </trkpt>
      <trkpt lat="45.20961" lon="4.77189">
        <ele>190.7</ele>
      </trkpt>
      <trkpt lat="45.20962" lon="4.77202">
        <ele>190.9</ele>
      </trkpt>
      <trkpt lat="45.20954" lon="4.77232">
        <ele>189.4</ele>
      </trkpt>
      <trkpt lat="45.20953" lon="4.77256">
        <ele>187.5</ele>
      </trkpt>
      <trkpt lat="45.20974" lon="4.7732">
        <ele>190.4</ele>
      </trkpt>
      <trkpt lat="45.20974" lon="4.77343">
        <ele>190.6</ele>
      </trkpt>
      <trkpt lat="45.20971" lon="4.77366">
        <ele>189.9</ele>
      </trkpt>
      <trkpt lat="45.20958" lon="4.77413">
        <ele>188.8</ele>
      </trkpt>
      <trkpt lat="45.20953" lon="4.7745">
        <ele>192.4</ele>
      </trkpt>
      <trkpt lat="45.20956" lon="4.77474">
        <ele>194</ele>
      </trkpt>
      <trkpt lat="45.20954" lon="4.77544">
        <ele>197.4</ele>
      </trkpt>
      <trkpt lat="45.2095" lon="4.77559">
        <ele>196.3</ele>
      </trkpt>
      <trkpt lat="45.20945" lon="4.77567">
        <ele>194.5</ele>
      </trkpt>
      <trkpt lat="45.20936" lon="4.77571">
        <ele>191.1</ele>
      </trkpt>
      <trkpt lat="45.20911" lon="4.77566">
        <ele>179.5</ele>
      </trkpt>
      <trkpt lat="45.209" lon="4.77574">
        <ele>179.5</ele>
      </trkpt>
      <trkpt lat="45.20895" lon="4.7758">
        <ele>179.6</ele>
      </trkpt>
      <trkpt lat="45.20891" lon="4.7759">
        <ele>178.7</ele>
      </trkpt>
      <trkpt lat="45.20889" lon="4.77609">
        <ele>178.9</ele>
      </trkpt>
      <trkpt lat="45.2088" lon="4.7766">
        <ele>179.3</ele>
      </trkpt>
      <trkpt lat="45.2088" lon="4.7767">
        <ele>178.9</ele>
      </trkpt>
      <trkpt lat="45.20891" lon="4.77729">
        <ele>178.8</ele>
      </trkpt>
      <trkpt lat="45.20901" lon="4.77745">
        <ele>179.9</ele>
      </trkpt>
      <trkpt lat="45.2092" lon="4.77781">
        <ele>187</ele>
      </trkpt>
      <trkpt lat="45.20935" lon="4.77814">
        <ele>182.5</ele>
      </trkpt>
      <trkpt lat="45.20944" lon="4.77822">
        <ele>184.3</ele>
      </trkpt>
      <trkpt lat="45.20951" lon="4.7783">
        <ele>186.5</ele>
      </trkpt>
      <trkpt lat="45.20973" lon="4.77872">
        <ele>178.3</ele>
      </trkpt>
      <trkpt lat="45.20997" lon="4.77903">
        <ele>178.2</ele>
      </trkpt>
      <trkpt lat="45.21006" lon="4.77923">
        <ele>183.8</ele>
      </trkpt>
      <trkpt lat="45.21036" lon="4.77998">
        <ele>189.5</ele>
      </trkpt>
      <trkpt lat="45.2106" lon="4.78063">
        <ele>182.6</ele>
      </trkpt>
      <trkpt lat="45.21061" lon="4.78101">
        <ele>176.5</ele>
      </trkpt>
      <trkpt lat="45.21065" lon="4.78118">
        <ele>175.1</ele>
      </trkpt>
      <trkpt lat="45.21068" lon="4.78137">
        <ele>174.5</ele>
      </trkpt>
      <trkpt lat="45.21066" lon="4.78166">
        <ele>175.2</ele>
      </trkpt>
      <trkpt lat="45.21068" lon="4.78192">
        <ele>172.3</ele>
      </trkpt>
      <trkpt lat="45.21065" lon="4.78229">
        <ele>172</ele>
      </trkpt>
      <trkpt lat="45.21068" lon="4.78256">
        <ele>175.2</ele>
      </trkpt>
      <trkpt lat="45.21068" lon="4.78279">
        <ele>174.5</ele>
      </trkpt>
      <trkpt lat="45.21063" lon="4.78288">
        <ele>174.3</ele>
      </trkpt>
      <trkpt lat="45.2104" lon="4.78317">
        <ele>171.7</ele>
      </trkpt>
      <trkpt lat="45.21016" lon="4.78383">
        <ele>174</ele>
      </trkpt>
      <trkpt lat="45.21014" lon="4.78392">
        <ele>173.4</ele>
      </trkpt>
      <trkpt lat="45.21014" lon="4.78403">
        <ele>172.4</ele>
      </trkpt>
      <trkpt lat="45.21019" lon="4.78432">
        <ele>177.3</ele>
      </trkpt>
      <trkpt lat="45.21019" lon="4.78441">
        <ele>178.7</ele>
      </trkpt>
      <trkpt lat="45.21015" lon="4.78451">
        <ele>179.4</ele>
      </trkpt>
      <trkpt lat="45.21008" lon="4.7846">
        <ele>179.6</ele>
      </trkpt>
      <trkpt lat="45.20944" lon="4.78495">
        <ele>171.1</ele>
      </trkpt>
      <trkpt lat="45.20925" lon="4.78499">
        <ele>173.6</ele>
      </trkpt>
      <trkpt lat="45.20896" lon="4.78501">
        <ele>186.1</ele>
      </trkpt>
      <trkpt lat="45.20864" lon="4.78495">
        <ele>169.2</ele>
      </trkpt>
      <trkpt lat="45.20855" lon="4.78494">
        <ele>170.2</ele>
      </trkpt>
      <trkpt lat="45.20713" lon="4.78433">
        <ele>169.8</ele>
      </trkpt>
      <trkpt lat="45.20666" lon="4.78419">
        <ele>163.8</ele>
      </trkpt>
      <trkpt lat="45.20638" lon="4.78418">
        <ele>167.4</ele>
      </trkpt>
      <trkpt lat="45.20598" lon="4.78427">
        <ele>164.4</ele>
      </trkpt>
      <trkpt lat="45.20558" lon="4.78441">
        <ele>158.7</ele>
      </trkpt>
      <trkpt lat="45.20531" lon="4.7846">
        <ele>157.7</ele>
      </trkpt>
      <trkpt lat="45.2052" lon="4.78466">
        <ele>156.9</ele>
      </trkpt>
      <trkpt lat="45.20491" lon="4.78478">
        <ele>154.2</ele>
      </trkpt>
      <trkpt lat="45.20486" lon="4.78483">
        <ele>154.1</ele>
      </trkpt>
      <trkpt lat="45.20485" lon="4.78496">
        <ele>153.7</ele>
      </trkpt>
      <trkpt lat="45.20488" lon="4.78507">
        <ele>152</ele>
      </trkpt>
      <trkpt lat="45.20508" lon="4.7854">
        <ele>155.7</ele>
      </trkpt>
      <trkpt lat="45.20515" lon="4.78547">
        <ele>155.8</ele>
      </trkpt>
      <trkpt lat="45.20542" lon="4.78567">
        <ele>157.4</ele>
      </trkpt>
      <trkpt lat="45.20554" lon="4.78579">
        <ele>158.4</ele>
      </trkpt>
      <trkpt lat="45.20597" lon="4.7859">
        <ele>168.8</ele>
      </trkpt>
      <trkpt lat="45.20606" lon="4.78597">
        <ele>172.6</ele>
      </trkpt>
      <trkpt lat="45.20615" lon="4.78609">
        <ele>175.7</ele>
      </trkpt>
      <trkpt lat="45.20624" lon="4.78632">
        <ele>177.5</ele>
      </trkpt>
      <trkpt lat="45.20625" lon="4.7864">
        <ele>177.6</ele>
      </trkpt>
      <trkpt lat="45.20623" lon="4.7865">
        <ele>176.5</ele>
      </trkpt>
      <trkpt lat="45.20619" lon="4.78658">
        <ele>174.6</ele>
      </trkpt>
      <trkpt lat="45.20615" lon="4.78661">
        <ele>172.6</ele>
      </trkpt>
      <trkpt lat="45.20578" lon="4.78671">
        <ele>151.7</ele>
      </trkpt>
      <trkpt lat="45.2053" lon="4.78755">
        <ele>161.2</ele>
      </trkpt>
      <trkpt lat="45.2049" lon="4.78784">
        <ele>161.9</ele>
      </trkpt>
      <trkpt lat="45.20457" lon="4.78797">
        <ele>162.3</ele>
      </trkpt>
      <trkpt lat="45.2038" lon="4.78812">
        <ele>168.3</ele>
      </trkpt>
      <trkpt lat="45.20349" lon="4.78829">
        <ele>166.3</ele>
      </trkpt>
      <trkpt lat="45.20325" lon="4.78851">
        <ele>165.8</ele>
      </trkpt>
      <trkpt lat="45.20304" lon="4.78878">
        <ele>167.6</ele>
      </trkpt>
      <trkpt lat="45.20294" lon="4.78925">
        <ele>159.8</ele>
      </trkpt>
      <trkpt lat="45.2026" lon="4.79002">
        <ele>160.1</ele>
      </trkpt>
      <trkpt lat="45.20255" lon="4.7905">
        <ele>158.3</ele>
      </trkpt>
      <trkpt lat="45.20259" lon="4.79082">
        <ele>162.3</ele>
      </trkpt>
      <trkpt lat="45.20268" lon="4.791">
        <ele>164.9</ele>
      </trkpt>
      <trkpt lat="45.20304" lon="4.79126">
        <ele>161.6</ele>
      </trkpt>
      <trkpt lat="45.20381" lon="4.79148">
        <ele>148.1</ele>
      </trkpt>
      <trkpt lat="45.20441" lon="4.79184">
        <ele>141.9</ele>
      </trkpt>
      <trkpt lat="45.20445" lon="4.79191">
        <ele>141.7</ele>
      </trkpt>
      <trkpt lat="45.20446" lon="4.79196">
        <ele>141.7</ele>
      </trkpt>
      <trkpt lat="45.20447" lon="4.79201">
        <ele>141.7</ele>
      </trkpt>
      <trkpt lat="45.20436" lon="4.79235">
        <ele>144.5</ele>
      </trkpt>
      <trkpt lat="45.20435" lon="4.79254">
        <ele>147.2</ele>
      </trkpt>
      <trkpt lat="45.20459" lon="4.79381">
        <ele>145.1</ele>
      </trkpt>
      <trkpt lat="45.20449" lon="4.79475">
        <ele>148.6</ele>
      </trkpt>
      <trkpt lat="45.20457" lon="4.79557">
        <ele>150</ele>
      </trkpt>
      <trkpt lat="45.20463" lon="4.79577">
        <ele>148.3</ele>
      </trkpt>
      <trkpt lat="45.20468" lon="4.79601">
        <ele>148.2</ele>
      </trkpt>
      <trkpt lat="45.20445" lon="4.79735">
        <ele>148.9</ele>
      </trkpt>
      <trkpt lat="45.20415" lon="4.79835">
        <ele>138.4</ele>
      </trkpt>
      <trkpt lat="45.20402" lon="4.79862">
        <ele>140.6</ele>
      </trkpt>
      <trkpt lat="45.2032" lon="4.80033">
        <ele>132</ele>
      </trkpt>
      <trkpt lat="45.20318" lon="4.80028">
        <ele>132.1</ele>
      </trkpt>
      <trkpt lat="45.20316" lon="4.80002">
        <ele>132.7</ele>
      </trkpt>
      <trkpt lat="45.20318" lon="4.80028">
        <ele>132.1</ele>
      </trkpt>
      <trkpt lat="45.2032" lon="4.80033">
        <ele>132</ele>
      </trkpt>
      <trkpt lat="45.20282" lon="4.80109">
        <ele>129.8</ele>
      </trkpt>
      <trkpt lat="45.20277" lon="4.80126">
        <ele>129.8</ele>
      </trkpt>
      <trkpt lat="45.20277" lon="4.8015">
        <ele>129.8</ele>
      </trkpt>
      <trkpt lat="45.20271" lon="4.80169">
        <ele>130.1</ele>
      </trkpt>
      <trkpt lat="45.20271" lon="4.80177">
        <ele>130.2</ele>
      </trkpt>
      <trkpt lat="45.20251" lon="4.80174">
        <ele>130.1</ele>
      </trkpt>
      <trkpt lat="45.20237" lon="4.80169">
        <ele>130.3</ele>
      </trkpt>
      <trkpt lat="45.20221" lon="4.80173">
        <ele>130.5</ele>
      </trkpt>
      <trkpt lat="45.20016" lon="4.80154">
        <ele>131.1</ele>
      </trkpt>
      <trkpt lat="45.19995" lon="4.80152">
        <ele>131.4</ele>
      </trkpt>
      <trkpt lat="45.19975" lon="4.80145">
        <ele>132.2</ele>
      </trkpt>
      <trkpt lat="45.1996" lon="4.80142">
        <ele>132.5</ele>
      </trkpt>
      <trkpt lat="45.19945" lon="4.80143">
        <ele>132.5</ele>
      </trkpt>
      <trkpt lat="45.19933" lon="4.80147">
        <ele>132.3</ele>
      </trkpt>
      <trkpt lat="45.19894" lon="4.80143">
        <ele>132.9</ele>
      </trkpt>
      <trkpt lat="45.19887" lon="4.80142">
        <ele>133</ele>
      </trkpt>
      <trkpt lat="45.19878" lon="4.80142">
        <ele>133.1</ele>
      </trkpt>
      <trkpt lat="45.19824" lon="4.80137">
        <ele>132.3</ele>
      </trkpt>
      <trkpt lat="45.19821" lon="4.80132">
        <ele>132.3</ele>
      </trkpt>
      <trkpt lat="45.19761" lon="4.80127">
        <ele>131.5</ele>
      </trkpt>
      <trkpt lat="45.19754" lon="4.80126">
        <ele>131.4</ele>
      </trkpt>
      <trkpt lat="45.19702" lon="4.80121">
        <ele>130</ele>
      </trkpt>
      <trkpt lat="45.19633" lon="4.80114">
        <ele>129.2</ele>
      </trkpt>
      <trkpt lat="45.19617" lon="4.80113">
        <ele>129.2</ele>
      </trkpt>
      <trkpt lat="45.19609" lon="4.80112">
        <ele>129.2</ele>
      </trkpt>
      <trkpt lat="45.196" lon="4.80111">
        <ele>129.2</ele>
      </trkpt>
      <trkpt lat="45.19527" lon="4.80105">
        <ele>129.4</ele>
      </trkpt>
      <trkpt lat="45.19504" lon="4.80102">
        <ele>129.6</ele>
      </trkpt>
      <trkpt lat="45.1949" lon="4.80101">
        <ele>129.4</ele>
      </trkpt>
      <trkpt lat="45.19435" lon="4.80096">
        <ele>128.6</ele>
      </trkpt>
      <trkpt lat="45.19397" lon="4.8009">
        <ele>128.4</ele>
      </trkpt>
      <trkpt lat="45.1935" lon="4.8007">
        <ele>128.4</ele>
      </trkpt>
      <trkpt lat="45.1933" lon="4.80056">
        <ele>128.4</ele>
      </trkpt>
      <trkpt lat="45.19316" lon="4.80044">
        <ele>128.5</ele>
      </trkpt>
      <trkpt lat="45.19303" lon="4.8001">
        <ele>128.6</ele>
      </trkpt>
      <trkpt lat="45.19261" lon="4.79883">
        <ele>140.4</ele>
      </trkpt>
      <trkpt lat="45.19256" lon="4.79866">
        <ele>141.2</ele>
      </trkpt>
      <trkpt lat="45.19248" lon="4.79875">
        <ele>131.4</ele>
      </trkpt>
      <trkpt lat="45.19216" lon="4.79907">
        <ele>130.2</ele>
      </trkpt>
      <trkpt lat="45.19209" lon="4.79902">
        <ele>130.1</ele>
      </trkpt>
      <trkpt lat="45.1916" lon="4.7984">
        <ele>128.4</ele>
      </trkpt>
      <trkpt lat="45.19156" lon="4.79838">
        <ele>128.5</ele>
      </trkpt>
      <trkpt lat="45.1914" lon="4.79825">
        <ele>129.7</ele>
      </trkpt>
      <trkpt lat="45.19119" lon="4.79811">
        <ele>130.2</ele>
      </trkpt>
      <trkpt lat="45.19094" lon="4.79804">
        <ele>130.3</ele>
      </trkpt>
      <trkpt lat="45.19079" lon="4.79801">
        <ele>130.7</ele>
      </trkpt>
      <trkpt lat="45.19007" lon="4.79792">
        <ele>131.2</ele>
      </trkpt>
      <trkpt lat="45.19002" lon="4.79787">
        <ele>131.2</ele>
      </trkpt>
      <trkpt lat="45.18998" lon="4.79787">
        <ele>131.7</ele>
      </trkpt>
      <trkpt lat="45.18995" lon="4.79782">
        <ele>131.7</ele>
      </trkpt>
      <trkpt lat="45.1899" lon="4.79779">
        <ele>131.8</ele>
      </trkpt>
      <trkpt lat="45.18918" lon="4.79779">
        <ele>132.1</ele>
      </trkpt>
      <trkpt lat="45.18906" lon="4.79777">
        <ele>132.5</ele>
      </trkpt>
      <trkpt lat="45.18904" lon="4.79777">
        <ele>132.5</ele>
      </trkpt>
      <trkpt lat="45.1889" lon="4.79776">
        <ele>132.6</ele>
      </trkpt>
      <trkpt lat="45.18881" lon="4.79775">
        <ele>132.6</ele>
      </trkpt>
      <trkpt lat="45.18871" lon="4.79774">
        <ele>132.6</ele>
      </trkpt>
      <trkpt lat="45.18808" lon="4.79766">
        <ele>134.3</ele>
      </trkpt>
      <trkpt lat="45.18755" lon="4.79755">
        <ele>136.4</ele>
      </trkpt>
      <trkpt lat="45.18747" lon="4.79759">
        <ele>137.1</ele>
      </trkpt>
      <trkpt lat="45.18701" lon="4.79786">
        <ele>137.6</ele>
      </trkpt>
      <trkpt lat="45.18696" lon="4.79788">
        <ele>137.7</ele>
      </trkpt>
      <trkpt lat="45.18678" lon="4.79797">
        <ele>137.8</ele>
      </trkpt>
      <trkpt lat="45.18678" lon="4.79798">
        <ele>137.8</ele>
      </trkpt>
      <trkpt lat="45.18659" lon="4.79805">
        <ele>139</ele>
      </trkpt>
      <trkpt lat="45.18638" lon="4.79802">
        <ele>139.2</ele>
      </trkpt>
      <trkpt lat="45.18623" lon="4.79806">
        <ele>139.3</ele>
      </trkpt>
      <trkpt lat="45.18614" lon="4.79819">
        <ele>139.1</ele>
      </trkpt>
      <trkpt lat="45.18602" lon="4.79837">
        <ele>137.5</ele>
      </trkpt>
      <trkpt lat="45.18593" lon="4.79851">
        <ele>137.4</ele>
      </trkpt>
      <trkpt lat="45.18514" lon="4.79882">
        <ele>137.1</ele>
      </trkpt>
      <trkpt lat="45.18477" lon="4.79897">
        <ele>139.4</ele>
      </trkpt>
      <trkpt lat="45.18411" lon="4.79896">
        <ele>143.6</ele>
      </trkpt>
      <trkpt lat="45.18263" lon="4.79927">
        <ele>139.2</ele>
      </trkpt>
      <trkpt lat="45.18243" lon="4.79944">
        <ele>143.6</ele>
      </trkpt>
      <trkpt lat="45.18212" lon="4.79985">
        <ele>142.6</ele>
      </trkpt>
      <trkpt lat="45.18211" lon="4.79991">
        <ele>142.2</ele>
      </trkpt>
      <trkpt lat="45.18175" lon="4.80004">
        <ele>138.7</ele>
      </trkpt>
      <trkpt lat="45.18177" lon="4.8001">
        <ele>137.7</ele>
      </trkpt>
      <trkpt lat="45.18183" lon="4.80067">
        <ele>133.2</ele>
      </trkpt>
      <trkpt lat="45.18182" lon="4.80082">
        <ele>132.8</ele>
      </trkpt>
      <trkpt lat="45.18179" lon="4.80114">
        <ele>130.6</ele>
      </trkpt>
      <trkpt lat="45.18182" lon="4.80128">
        <ele>130.3</ele>
      </trkpt>
      <trkpt lat="45.18171" lon="4.8013">
        <ele>130.2</ele>
      </trkpt>
      <trkpt lat="45.18117" lon="4.80149">
        <ele>131</ele>
      </trkpt>
      <trkpt lat="45.18056" lon="4.8021">
        <ele>130.6</ele>
      </trkpt>
      <trkpt lat="45.18004" lon="4.80255">
        <ele>128.4</ele>
      </trkpt>
      <trkpt lat="45.17988" lon="4.80263">
        <ele>129</ele>
      </trkpt>
      <trkpt lat="45.17949" lon="4.80275">
        <ele>129.8</ele>
      </trkpt>
      <trkpt lat="45.1754" lon="4.80602">
        <ele>129</ele>
      </trkpt>
      <trkpt lat="45.17469" lon="4.80666">
        <ele>130.3</ele>
      </trkpt>
      <trkpt lat="45.17466" lon="4.80676">
        <ele>129.7</ele>
      </trkpt>
      <trkpt lat="45.17469" lon="4.80695">
        <ele>129.5</ele>
      </trkpt>
      <trkpt lat="45.17459" lon="4.80695">
        <ele>129.6</ele>
      </trkpt>
      <trkpt lat="45.17449" lon="4.80698">
        <ele>129.6</ele>
      </trkpt>
      <trkpt lat="45.17443" lon="4.80703">
        <ele>129.6</ele>
      </trkpt>
      <trkpt lat="45.17427" lon="4.80735">
        <ele>129.7</ele>
      </trkpt>
      <trkpt lat="45.17421" lon="4.80742">
        <ele>129.8</ele>
      </trkpt>
      <trkpt lat="45.17413" lon="4.80745">
        <ele>129.9</ele>
      </trkpt>
      <trkpt lat="45.17407" lon="4.80743">
        <ele>129.8</ele>
      </trkpt>
      <trkpt lat="45.17382" lon="4.80729">
        <ele>129.6</ele>
      </trkpt>
      <trkpt lat="45.17379" lon="4.80722">
        <ele>129.5</ele>
      </trkpt>
      <trkpt lat="45.17377" lon="4.80713">
        <ele>129.5</ele>
      </trkpt>
      <trkpt lat="45.17369" lon="4.80717">
        <ele>129.5</ele>
      </trkpt>
      <trkpt lat="45.17366" lon="4.80731">
        <ele>129.4</ele>
      </trkpt>
      <trkpt lat="45.17358" lon="4.80728">
        <ele>129.4</ele>
      </trkpt>
      <trkpt lat="45.17262" lon="4.80681">
        <ele>129.9</ele>
      </trkpt>
      <trkpt lat="45.17209" lon="4.8066">
        <ele>130.7</ele>
      </trkpt>
      <trkpt lat="45.17157" lon="4.80643">
        <ele>130.2</ele>
      </trkpt>
      <trkpt lat="45.17103" lon="4.80631">
        <ele>131.3</ele>
      </trkpt>
      <trkpt lat="45.17055" lon="4.80624">
        <ele>132</ele>
      </trkpt>
      <trkpt lat="45.17031" lon="4.80618">
        <ele>132.4</ele>
      </trkpt>
      <trkpt lat="45.17028" lon="4.80619">
        <ele>132.3</ele>
      </trkpt>
      <trkpt lat="45.16991" lon="4.80615">
        <ele>133.7</ele>
      </trkpt>
      <trkpt lat="45.16975" lon="4.80617">
        <ele>133.6</ele>
      </trkpt>
      <trkpt lat="45.16961" lon="4.80625">
        <ele>133.2</ele>
      </trkpt>
      <trkpt lat="45.16945" lon="4.80629">
        <ele>133.1</ele>
      </trkpt>
      <trkpt lat="45.16932" lon="4.80627">
        <ele>133.4</ele>
      </trkpt>
      <trkpt lat="45.16925" lon="4.80623">
        <ele>133.9</ele>
      </trkpt>
      <trkpt lat="45.16918" lon="4.80623">
        <ele>134</ele>
      </trkpt>
      <trkpt lat="45.16895" lon="4.80638">
        <ele>135.7</ele>
      </trkpt>
      <trkpt lat="45.16881" lon="4.80644">
        <ele>136.1</ele>
      </trkpt>
      <trkpt lat="45.16878" lon="4.80642">
        <ele>136.4</ele>
      </trkpt>
      <trkpt lat="45.16882" lon="4.80634">
        <ele>136.8</ele>
      </trkpt>
      <trkpt lat="45.16904" lon="4.80615">
        <ele>137.9</ele>
      </trkpt>
      <trkpt lat="45.16907" lon="4.80608">
        <ele>138.6</ele>
      </trkpt>
      <trkpt lat="45.16904" lon="4.80606">
        <ele>138.8</ele>
      </trkpt>
      <trkpt lat="45.16849" lon="4.80649">
        <ele>137.3</ele>
      </trkpt>
      <trkpt lat="45.16842" lon="4.80649">
        <ele>137.5</ele>
      </trkpt>
      <trkpt lat="45.16834" lon="4.80655">
        <ele>137.3</ele>
      </trkpt>
      <trkpt lat="45.16819" lon="4.8066">
        <ele>140.4</ele>
      </trkpt>
      <trkpt lat="45.16805" lon="4.80666">
        <ele>141.7</ele>
      </trkpt>
      <trkpt lat="45.16797" lon="4.80675">
        <ele>135.2</ele>
      </trkpt>
      <trkpt lat="45.16787" lon="4.8068">
        <ele>135.3</ele>
      </trkpt>
      <trkpt lat="45.16761" lon="4.80694">
        <ele>135.5</ele>
      </trkpt>
      <trkpt lat="45.16741" lon="4.80698">
        <ele>139.8</ele>
      </trkpt>
      <trkpt lat="45.16724" lon="4.80709">
        <ele>139.6</ele>
      </trkpt>
      <trkpt lat="45.16686" lon="4.80735">
        <ele>140.6</ele>
      </trkpt>
      <trkpt lat="45.16649" lon="4.80764">
        <ele>139.5</ele>
      </trkpt>
      <trkpt lat="45.16642" lon="4.80773">
        <ele>139</ele>
      </trkpt>
      <trkpt lat="45.16641" lon="4.80777">
        <ele>138.8</ele>
      </trkpt>
      <trkpt lat="45.16637" lon="4.80782">
        <ele>138.5</ele>
      </trkpt>
      <trkpt lat="45.16633" lon="4.80784">
        <ele>138.5</ele>
      </trkpt>
      <trkpt lat="45.16626" lon="4.80783">
        <ele>138.9</ele>
      </trkpt>
      <trkpt lat="45.16617" lon="4.80788">
        <ele>139</ele>
      </trkpt>
      <trkpt lat="45.16421" lon="4.80926">
        <ele>135.6</ele>
      </trkpt>
      <trkpt lat="45.16302" lon="4.80999">
        <ele>140.8</ele>
      </trkpt>
      <trkpt lat="45.16283" lon="4.8102">
        <ele>135.1</ele>
      </trkpt>
      <trkpt lat="45.1625" lon="4.81049">
        <ele>134.1</ele>
      </trkpt>
      <trkpt lat="45.16216" lon="4.81094">
        <ele>133.3</ele>
      </trkpt>
      <trkpt lat="45.16206" lon="4.81103">
        <ele>133.6</ele>
      </trkpt>
      <trkpt lat="45.16194" lon="4.81107">
        <ele>134.1</ele>
      </trkpt>
      <trkpt lat="45.16179" lon="4.81111">
        <ele>134.6</ele>
      </trkpt>
      <trkpt lat="45.16163" lon="4.81111">
        <ele>137.9</ele>
      </trkpt>
      <trkpt lat="45.16156" lon="4.81118">
        <ele>137.8</ele>
      </trkpt>
      <trkpt lat="45.16038" lon="4.8129">
        <ele>137.6</ele>
      </trkpt>
      <trkpt lat="45.15977" lon="4.8136">
        <ele>136.4</ele>
      </trkpt>
      <trkpt lat="45.15946" lon="4.81393">
        <ele>135.7</ele>
      </trkpt>
      <trkpt lat="45.15899" lon="4.81437">
        <ele>134.8</ele>
      </trkpt>
      <trkpt lat="45.15848" lon="4.81476">
        <ele>134.9</ele>
      </trkpt>
      <trkpt lat="45.15797" lon="4.8151">
        <ele>133.7</ele>
      </trkpt>
      <trkpt lat="45.15743" lon="4.81537">
        <ele>132.6</ele>
      </trkpt>
      <trkpt lat="45.15738" lon="4.8154">
        <ele>132.5</ele>
      </trkpt>
      <trkpt lat="45.1568" lon="4.81565">
        <ele>131.7</ele>
      </trkpt>
      <trkpt lat="45.15607" lon="4.81586">
        <ele>130.4</ele>
      </trkpt>
      <trkpt lat="45.15593" lon="4.81586">
        <ele>130.7</ele>
      </trkpt>
      <trkpt lat="45.15566" lon="4.81593">
        <ele>130.5</ele>
      </trkpt>
      <trkpt lat="45.15517" lon="4.81596">
        <ele>131.3</ele>
      </trkpt>
      <trkpt lat="45.15453" lon="4.81591">
        <ele>131.7</ele>
      </trkpt>
      <trkpt lat="45.15417" lon="4.81583">
        <ele>133.1</ele>
      </trkpt>
      <trkpt lat="45.15382" lon="4.81573">
        <ele>133.5</ele>
      </trkpt>
      <trkpt lat="45.15362" lon="4.81573">
        <ele>133</ele>
      </trkpt>
      <trkpt lat="45.15351" lon="4.81567">
        <ele>132.8</ele>
      </trkpt>
      <trkpt lat="45.15333" lon="4.81563">
        <ele>131.6</ele>
      </trkpt>
      <trkpt lat="45.15266" lon="4.81539">
        <ele>131.9</ele>
      </trkpt>
      <trkpt lat="45.15223" lon="4.81521">
        <ele>130.9</ele>
      </trkpt>
      <trkpt lat="45.15216" lon="4.81513">
        <ele>130.9</ele>
      </trkpt>
      <trkpt lat="45.15179" lon="4.81498">
        <ele>132.7</ele>
      </trkpt>
      <trkpt lat="45.15104" lon="4.81463">
        <ele>131.1</ele>
      </trkpt>
      <trkpt lat="45.15095" lon="4.81463">
        <ele>131</ele>
      </trkpt>
      <trkpt lat="45.15087" lon="4.81453">
        <ele>131.4</ele>
      </trkpt>
      <trkpt lat="45.15016" lon="4.81422">
        <ele>129.6</ele>
      </trkpt>
      <trkpt lat="45.14917" lon="4.81372">
        <ele>132.8</ele>
      </trkpt>
      <trkpt lat="45.14872" lon="4.81353">
        <ele>129</ele>
      </trkpt>
      <trkpt lat="45.14854" lon="4.81341">
        <ele>128.9</ele>
      </trkpt>
      <trkpt lat="45.14857" lon="4.81331">
        <ele>133.1</ele>
      </trkpt>
      <trkpt lat="45.14861" lon="4.81315">
        <ele>134.2</ele>
      </trkpt>
      <trkpt lat="45.14861" lon="4.81305">
        <ele>134.8</ele>
      </trkpt>
      <trkpt lat="45.14846" lon="4.81296">
        <ele>134.8</ele>
      </trkpt>
      <trkpt lat="45.14808" lon="4.81285">
        <ele>131.6</ele>
      </trkpt>
      <trkpt lat="45.14802" lon="4.81278">
        <ele>131.7</ele>
      </trkpt>
      <trkpt lat="45.14799" lon="4.81269">
        <ele>132</ele>
      </trkpt>
      <trkpt lat="45.14799" lon="4.81262">
        <ele>132.2</ele>
      </trkpt>
      <trkpt lat="45.14802" lon="4.81255">
        <ele>132.5</ele>
      </trkpt>
      <trkpt lat="45.14804" lon="4.81249">
        <ele>137.2</ele>
      </trkpt>
      <trkpt lat="45.14807" lon="4.81243">
        <ele>137.4</ele>
      </trkpt>
      <trkpt lat="45.14806" lon="4.81231">
        <ele>137.8</ele>
      </trkpt>
      <trkpt lat="45.14787" lon="4.81215">
        <ele>138.2</ele>
      </trkpt>
      <trkpt lat="45.14737" lon="4.81175">
        <ele>137.1</ele>
      </trkpt>
      <trkpt lat="45.14699" lon="4.81144">
        <ele>138.1</ele>
      </trkpt>
      <trkpt lat="45.14668" lon="4.81113">
        <ele>138.8</ele>
      </trkpt>
      <trkpt lat="45.14629" lon="4.81075">
        <ele>139</ele>
      </trkpt>
      <trkpt lat="45.14615" lon="4.8106">
        <ele>138.7</ele>
      </trkpt>
      <trkpt lat="45.14605" lon="4.81053">
        <ele>138.5</ele>
      </trkpt>
      <trkpt lat="45.14601" lon="4.81047">
        <ele>138.7</ele>
      </trkpt>
      <trkpt lat="45.14594" lon="4.81036">
        <ele>138.9</ele>
      </trkpt>
      <trkpt lat="45.1457" lon="4.8101">
        <ele>137</ele>
      </trkpt>
      <trkpt lat="45.14539" lon="4.80985">
        <ele>138.7</ele>
      </trkpt>
      <trkpt lat="45.14523" lon="4.80968">
        <ele>138.7</ele>
      </trkpt>
      <trkpt lat="45.14477" lon="4.80932">
        <ele>137.1</ele>
      </trkpt>
      <trkpt lat="45.14441" lon="4.80896">
        <ele>138.2</ele>
      </trkpt>
      <trkpt lat="45.14423" lon="4.80873">
        <ele>138.1</ele>
      </trkpt>
      <trkpt lat="45.14414" lon="4.80859">
        <ele>136</ele>
      </trkpt>
      <trkpt lat="45.14404" lon="4.80849">
        <ele>136.1</ele>
      </trkpt>
      <trkpt lat="45.14365" lon="4.80821">
        <ele>138.4</ele>
      </trkpt>
      <trkpt lat="45.14356" lon="4.80811">
        <ele>138.5</ele>
      </trkpt>
      <trkpt lat="45.14342" lon="4.80787">
        <ele>139.4</ele>
      </trkpt>
      <trkpt lat="45.14322" lon="4.8072">
        <ele>138.9</ele>
      </trkpt>
      <trkpt lat="45.14306" lon="4.80702">
        <ele>138.5</ele>
      </trkpt>
      <trkpt lat="45.14298" lon="4.8069">
        <ele>138.3</ele>
      </trkpt>
      <trkpt lat="45.14277" lon="4.80653">
        <ele>140.8</ele>
      </trkpt>
      <trkpt lat="45.1427" lon="4.80632">
        <ele>141.6</ele>
      </trkpt>
      <trkpt lat="45.14266" lon="4.80624">
        <ele>141.8</ele>
      </trkpt>
      <trkpt lat="45.14259" lon="4.80606">
        <ele>141.7</ele>
      </trkpt>
      <trkpt lat="45.14254" lon="4.80606">
        <ele>141.5</ele>
      </trkpt>
      <trkpt lat="45.14228" lon="4.80604">
        <ele>141.3</ele>
      </trkpt>
      <trkpt lat="45.14222" lon="4.80608">
        <ele>141.6</ele>
      </trkpt>
      <trkpt lat="45.14213" lon="4.8062">
        <ele>141.7</ele>
      </trkpt>
      <trkpt lat="45.14204" lon="4.80632">
        <ele>141.5</ele>
      </trkpt>
      <trkpt lat="45.14201" lon="4.80639">
        <ele>141.2</ele>
      </trkpt>
      <trkpt lat="45.14198" lon="4.80649">
        <ele>140.7</ele>
      </trkpt>
      <trkpt lat="45.14196" lon="4.80658">
        <ele>140.4</ele>
      </trkpt>
      <trkpt lat="45.14192" lon="4.8071">
        <ele>133.3</ele>
      </trkpt>
      <trkpt lat="45.14186" lon="4.80719">
        <ele>133</ele>
      </trkpt>
      <trkpt lat="45.14181" lon="4.80721">
        <ele>132.9</ele>
      </trkpt>
      <trkpt lat="45.14173" lon="4.80722">
        <ele>132.9</ele>
      </trkpt>
      <trkpt lat="45.14171" lon="4.80723">
        <ele>132.8</ele>
      </trkpt>
      <trkpt lat="45.14131" lon="4.80736">
        <ele>134.6</ele>
      </trkpt>
      <trkpt lat="45.14106" lon="4.80736">
        <ele>135</ele>
      </trkpt>
      <trkpt lat="45.14082" lon="4.80733">
        <ele>134.4</ele>
      </trkpt>
      <trkpt lat="45.14069" lon="4.80727">
        <ele>134.5</ele>
      </trkpt>
      <trkpt lat="45.14054" lon="4.80712">
        <ele>134.7</ele>
      </trkpt>
      <trkpt lat="45.1404" lon="4.80702">
        <ele>134.6</ele>
      </trkpt>
      <trkpt lat="45.13995" lon="4.80693">
        <ele>132.3</ele>
      </trkpt>
      <trkpt lat="45.13968" lon="4.8069">
        <ele>131.9</ele>
      </trkpt>
      <trkpt lat="45.13966" lon="4.8069">
        <ele>131.9</ele>
      </trkpt>
      <trkpt lat="45.13963" lon="4.80705">
        <ele>131.6</ele>
      </trkpt>
      <trkpt lat="45.13963" lon="4.80708">
        <ele>131.6</ele>
      </trkpt>
      <trkpt lat="45.13961" lon="4.80716">
        <ele>131.4</ele>
      </trkpt>
      <trkpt lat="45.13958" lon="4.80723">
        <ele>131.3</ele>
      </trkpt>
      <trkpt lat="45.13955" lon="4.80735">
        <ele>131.2</ele>
      </trkpt>
      <trkpt lat="45.13947" lon="4.80752">
        <ele>129.8</ele>
      </trkpt>
      <trkpt lat="45.13935" lon="4.80776">
        <ele>129.7</ele>
      </trkpt>
      <trkpt lat="45.13916" lon="4.80812">
        <ele>128.8</ele>
      </trkpt>
      <trkpt lat="45.13902" lon="4.80838">
        <ele>129</ele>
      </trkpt>
      <trkpt lat="45.13892" lon="4.80844">
        <ele>128.5</ele>
      </trkpt>
      <trkpt lat="45.13885" lon="4.80845">
        <ele>128.3</ele>
      </trkpt>
      <trkpt lat="45.13875" lon="4.80845">
        <ele>127.8</ele>
      </trkpt>
      <trkpt lat="45.13869" lon="4.80843">
        <ele>127.6</ele>
      </trkpt>
      <trkpt lat="45.13858" lon="4.80834">
        <ele>127</ele>
      </trkpt>
      <trkpt lat="45.13848" lon="4.80813">
        <ele>126.7</ele>
      </trkpt>
      <trkpt lat="45.13833" lon="4.80778">
        <ele>125.5</ele>
      </trkpt>
      <trkpt lat="45.13832" lon="4.80757">
        <ele>125.8</ele>
      </trkpt>
      <trkpt lat="45.13823" lon="4.80731">
        <ele>125.9</ele>
      </trkpt>
      <trkpt lat="45.13803" lon="4.80693">
        <ele>125.8</ele>
      </trkpt>
      <trkpt lat="45.13781" lon="4.80655">
        <ele>125.7</ele>
      </trkpt>
      <trkpt lat="45.1377" lon="4.80645">
        <ele>125.6</ele>
      </trkpt>
      <trkpt lat="45.13759" lon="4.80642">
        <ele>125.5</ele>
      </trkpt>
      <trkpt lat="45.13756" lon="4.80635">
        <ele>125.5</ele>
      </trkpt>
      <trkpt lat="45.13722" lon="4.80565">
        <ele>124.2</ele>
      </trkpt>
      <trkpt lat="45.1368" lon="4.80495">
        <ele>125.8</ele>
      </trkpt>
      <trkpt lat="45.13659" lon="4.80468">
        <ele>124.5</ele>
      </trkpt>
      <trkpt lat="45.13622" lon="4.8043">
        <ele>124.8</ele>
      </trkpt>
      <trkpt lat="45.13546" lon="4.80374">
        <ele>126.9</ele>
      </trkpt>
      <trkpt lat="45.13521" lon="4.80348">
        <ele>126.7</ele>
      </trkpt>
      <trkpt lat="45.13494" lon="4.80313">
        <ele>128.2</ele>
      </trkpt>
      <trkpt lat="45.13476" lon="4.80299">
        <ele>129.1</ele>
      </trkpt>
      <trkpt lat="45.13456" lon="4.80294">
        <ele>128.9</ele>
      </trkpt>
      <trkpt lat="45.13441" lon="4.80296">
        <ele>128.4</ele>
      </trkpt>
      <trkpt lat="45.13424" lon="4.80296">
        <ele>128.1</ele>
      </trkpt>
      <trkpt lat="45.13387" lon="4.80272">
        <ele>125.6</ele>
      </trkpt>
      <trkpt lat="45.13365" lon="4.80267">
        <ele>125.1</ele>
      </trkpt>
      <trkpt lat="45.13328" lon="4.80268">
        <ele>124.1</ele>
      </trkpt>
      <trkpt lat="45.13289" lon="4.80259">
        <ele>124.4</ele>
      </trkpt>
      <trkpt lat="45.13247" lon="4.80254">
        <ele>124.7</ele>
      </trkpt>
      <trkpt lat="45.13201" lon="4.80244">
        <ele>130.8</ele>
      </trkpt>
      <trkpt lat="45.13186" lon="4.80243">
        <ele>129.6</ele>
      </trkpt>
      <trkpt lat="45.13157" lon="4.80249">
        <ele>127.5</ele>
      </trkpt>
      <trkpt lat="45.1314" lon="4.80249">
        <ele>130.5</ele>
      </trkpt>
      <trkpt lat="45.13007" lon="4.80229">
        <ele>128.5</ele>
      </trkpt>
      <trkpt lat="45.1289" lon="4.80208">
        <ele>125.6</ele>
      </trkpt>
      <trkpt lat="45.12809" lon="4.80177">
        <ele>126.6</ele>
      </trkpt>
      <trkpt lat="45.12788" lon="4.80177">
        <ele>126.3</ele>
      </trkpt>
      <trkpt lat="45.12767" lon="4.80171">
        <ele>126.8</ele>
      </trkpt>
      <trkpt lat="45.12744" lon="4.80167">
        <ele>127.4</ele>
      </trkpt>
      <trkpt lat="45.12709" lon="4.80171">
        <ele>125.7</ele>
      </trkpt>
      <trkpt lat="45.12453" lon="4.80117">
        <ele>125.9</ele>
      </trkpt>
      <trkpt lat="45.12431" lon="4.80111">
        <ele>126.1</ele>
      </trkpt>
      <trkpt lat="45.12424" lon="4.80107">
        <ele>126.2</ele>
      </trkpt>
      <trkpt lat="45.12413" lon="4.80103">
        <ele>125.9</ele>
      </trkpt>
      <trkpt lat="45.12384" lon="4.80104">
        <ele>125.4</ele>
      </trkpt>
      <trkpt lat="45.12329" lon="4.80094">
        <ele>125.5</ele>
      </trkpt>
      <trkpt lat="45.12303" lon="4.80093">
        <ele>125.2</ele>
      </trkpt>
      <trkpt lat="45.12237" lon="4.80103">
        <ele>125.7</ele>
      </trkpt>
      <trkpt lat="45.12201" lon="4.80118">
        <ele>125.6</ele>
      </trkpt>
      <trkpt lat="45.12196" lon="4.80118">
        <ele>125.7</ele>
      </trkpt>
      <trkpt lat="45.12193" lon="4.80119">
        <ele>125.7</ele>
      </trkpt>
      <trkpt lat="45.12191" lon="4.80121">
        <ele>125.7</ele>
      </trkpt>
      <trkpt lat="45.12173" lon="4.80134">
        <ele>125.5</ele>
      </trkpt>
      <trkpt lat="45.12153" lon="4.80148">
        <ele>125.3</ele>
      </trkpt>
      <trkpt lat="45.12128" lon="4.80155">
        <ele>125.1</ele>
      </trkpt>
      <trkpt lat="45.12111" lon="4.80161">
        <ele>124.7</ele>
      </trkpt>
      <trkpt lat="45.12096" lon="4.80174">
        <ele>123.1</ele>
      </trkpt>
      <trkpt lat="45.12082" lon="4.80178">
        <ele>123.2</ele>
      </trkpt>
      <trkpt lat="45.12055" lon="4.80292">
        <ele>122.3</ele>
      </trkpt>
      <trkpt lat="45.12051" lon="4.80324">
        <ele>122.2</ele>
      </trkpt>
      <trkpt lat="45.1205" lon="4.80332">
        <ele>122.2</ele>
      </trkpt>
      <trkpt lat="45.12047" lon="4.80357">
        <ele>122.1</ele>
      </trkpt>
      <trkpt lat="45.12035" lon="4.80385">
        <ele>122.3</ele>
      </trkpt>
      <trkpt lat="45.11997" lon="4.80438">
        <ele>122.5</ele>
      </trkpt>
      <trkpt lat="45.11973" lon="4.80477">
        <ele>122.2</ele>
      </trkpt>
      <trkpt lat="45.11908" lon="4.80552">
        <ele>120.1</ele>
      </trkpt>
      <trkpt lat="45.11885" lon="4.80573">
        <ele>120.1</ele>
      </trkpt>
      <trkpt lat="45.11816" lon="4.80635">
        <ele>122.3</ele>
      </trkpt>
      <trkpt lat="45.11674" lon="4.80734">
        <ele>123.2</ele>
      </trkpt>
      <trkpt lat="45.1159" lon="4.808">
        <ele>123.5</ele>
      </trkpt>
      <trkpt lat="45.11558" lon="4.80833">
        <ele>123.6</ele>
      </trkpt>
      <trkpt lat="45.11522" lon="4.80865">
        <ele>123.8</ele>
      </trkpt>
      <trkpt lat="45.11378" lon="4.80988">
        <ele>124.1</ele>
      </trkpt>
      <trkpt lat="45.11349" lon="4.81033">
        <ele>123.7</ele>
      </trkpt>
      <trkpt lat="45.11338" lon="4.81042">
        <ele>123.6</ele>
      </trkpt>
      <trkpt lat="45.11327" lon="4.81046">
        <ele>122.8</ele>
      </trkpt>
      <trkpt lat="45.11287" lon="4.81065">
        <ele>122.8</ele>
      </trkpt>
      <trkpt lat="45.11248" lon="4.81088">
        <ele>123</ele>
      </trkpt>
      <trkpt lat="45.11223" lon="4.81112">
        <ele>123.1</ele>
      </trkpt>
      <trkpt lat="45.112" lon="4.81142">
        <ele>122.8</ele>
      </trkpt>
      <trkpt lat="45.11159" lon="4.81224">
        <ele>121.3</ele>
      </trkpt>
      <trkpt lat="45.1114" lon="4.81233">
        <ele>121.3</ele>
      </trkpt>
      <trkpt lat="45.11034" lon="4.81255">
        <ele>121.3</ele>
      </trkpt>
      <trkpt lat="45.11001" lon="4.81275">
        <ele>121.3</ele>
      </trkpt>
      <trkpt lat="45.10963" lon="4.81311">
        <ele>120.9</ele>
      </trkpt>
      <trkpt lat="45.10958" lon="4.81315">
        <ele>120.8</ele>
      </trkpt>
      <trkpt lat="45.10934" lon="4.8135">
        <ele>121.1</ele>
      </trkpt>
      <trkpt lat="45.10897" lon="4.81434">
        <ele>121.1</ele>
      </trkpt>
      <trkpt lat="45.10818" lon="4.81583">
        <ele>121.9</ele>
      </trkpt>
      <trkpt lat="45.10784" lon="4.81652">
        <ele>121.5</ele>
      </trkpt>
      <trkpt lat="45.10745" lon="4.81704">
        <ele>122.6</ele>
      </trkpt>
      <trkpt lat="45.10657" lon="4.8179">
        <ele>121</ele>
      </trkpt>
      <trkpt lat="45.10638" lon="4.81808">
        <ele>120.9</ele>
      </trkpt>
      <trkpt lat="45.10585" lon="4.81866">
        <ele>121.5</ele>
      </trkpt>
      <trkpt lat="45.10551" lon="4.81912">
        <ele>121.9</ele>
      </trkpt>
      <trkpt lat="45.1042" lon="4.82029">
        <ele>122.9</ele>
      </trkpt>
      <trkpt lat="45.1037" lon="4.82089">
        <ele>122.2</ele>
      </trkpt>
      <trkpt lat="45.10352" lon="4.8211">
        <ele>122.2</ele>
      </trkpt>
      <trkpt lat="45.10327" lon="4.8214">
        <ele>122.9</ele>
      </trkpt>
      <trkpt lat="45.10309" lon="4.82154">
        <ele>123.1</ele>
      </trkpt>
      <trkpt lat="45.10286" lon="4.82159">
        <ele>123</ele>
      </trkpt>
      <trkpt lat="45.10259" lon="4.82154">
        <ele>123.3</ele>
      </trkpt>
      <trkpt lat="45.10216" lon="4.82153">
        <ele>122.4</ele>
      </trkpt>
      <trkpt lat="45.10212" lon="4.82153">
        <ele>122.4</ele>
      </trkpt>
      <trkpt lat="45.10201" lon="4.82156">
        <ele>122.2</ele>
      </trkpt>
      <trkpt lat="45.10187" lon="4.82164">
        <ele>122.1</ele>
      </trkpt>
      <trkpt lat="45.10183" lon="4.8217">
        <ele>122.9</ele>
      </trkpt>
      <trkpt lat="45.10144" lon="4.82213">
        <ele>122.3</ele>
      </trkpt>
      <trkpt lat="45.1013" lon="4.82223">
        <ele>122.2</ele>
      </trkpt>
      <trkpt lat="45.10122" lon="4.8223">
        <ele>122.1</ele>
      </trkpt>
      <trkpt lat="45.10079" lon="4.82246">
        <ele>120.9</ele>
      </trkpt>
      <trkpt lat="45.1004" lon="4.82246">
        <ele>120.6</ele>
      </trkpt>
      <trkpt lat="45.10002" lon="4.82237">
        <ele>120.3</ele>
      </trkpt>
      <trkpt lat="45.09981" lon="4.82229">
        <ele>120.2</ele>
      </trkpt>
      <trkpt lat="45.0997" lon="4.82225">
        <ele>120.2</ele>
      </trkpt>
      <trkpt lat="45.09951" lon="4.82221">
        <ele>120.2</ele>
      </trkpt>
      <trkpt lat="45.09828" lon="4.82225">
        <ele>120.1</ele>
      </trkpt>
      <trkpt lat="45.0972" lon="4.82241">
        <ele>121.3</ele>
      </trkpt>
      <trkpt lat="45.09633" lon="4.82267">
        <ele>121.8</ele>
      </trkpt>
      <trkpt lat="45.09602" lon="4.8228">
        <ele>121.8</ele>
      </trkpt>
      <trkpt lat="45.09576" lon="4.82296">
        <ele>121.8</ele>
      </trkpt>
      <trkpt lat="45.09562" lon="4.82298">
        <ele>121.8</ele>
      </trkpt>
      <trkpt lat="45.09488" lon="4.82309">
        <ele>121.8</ele>
      </trkpt>
      <trkpt lat="45.0948" lon="4.82311">
        <ele>121.9</ele>
      </trkpt>
      <trkpt lat="45.09453" lon="4.82319">
        <ele>122.1</ele>
      </trkpt>
      <trkpt lat="45.09427" lon="4.82326">
        <ele>122.1</ele>
      </trkpt>
      <trkpt lat="45.09427" lon="4.82289">
        <ele>122.5</ele>
      </trkpt>
      <trkpt lat="45.09422" lon="4.82182">
        <ele>123.1</ele>
      </trkpt>
      <trkpt lat="45.09421" lon="4.82156">
        <ele>123.2</ele>
      </trkpt>
      <trkpt lat="45.09418" lon="4.82087">
        <ele>123.9</ele>
      </trkpt>
      <trkpt lat="45.09407" lon="4.82086">
        <ele>123.8</ele>
      </trkpt>
      <trkpt lat="45.09336" lon="4.82052">
        <ele>124.4</ele>
      </trkpt>
      <trkpt lat="45.09286" lon="4.82035">
        <ele>124</ele>
      </trkpt>
      <trkpt lat="45.09258" lon="4.82027">
        <ele>123.9</ele>
      </trkpt>
      <trkpt lat="45.09159" lon="4.81999">
        <ele>123.8</ele>
      </trkpt>
      <trkpt lat="45.09115" lon="4.81985">
        <ele>123.3</ele>
      </trkpt>
      <trkpt lat="45.09036" lon="4.81964">
        <ele>122.2</ele>
      </trkpt>
      <trkpt lat="45.08916" lon="4.81928">
        <ele>120.8</ele>
      </trkpt>
      <trkpt lat="45.08859" lon="4.81908">
        <ele>121.4</ele>
      </trkpt>
      <trkpt lat="45.08837" lon="4.81907">
        <ele>121.2</ele>
      </trkpt>
      <trkpt lat="45.0881" lon="4.81924">
        <ele>120.9</ele>
      </trkpt>
      <trkpt lat="45.08775" lon="4.81939">
        <ele>121</ele>
      </trkpt>
      <trkpt lat="45.08699" lon="4.81942">
        <ele>122</ele>
      </trkpt>
      <trkpt lat="45.08693" lon="4.81943">
        <ele>122</ele>
      </trkpt>
      <trkpt lat="45.08675" lon="4.81943">
        <ele>122.2</ele>
      </trkpt>
      <trkpt lat="45.08618" lon="4.81928">
        <ele>122.5</ele>
      </trkpt>
      <trkpt lat="45.0856" lon="4.81903">
        <ele>123.1</ele>
      </trkpt>
      <trkpt lat="45.08518" lon="4.81885">
        <ele>123</ele>
      </trkpt>
      <trkpt lat="45.08508" lon="4.81881">
        <ele>122.9</ele>
      </trkpt>
      <trkpt lat="45.08461" lon="4.81867">
        <ele>122.1</ele>
      </trkpt>
      <trkpt lat="45.08443" lon="4.81862">
        <ele>122</ele>
      </trkpt>
      <trkpt lat="45.08388" lon="4.81843">
        <ele>122.3</ele>
      </trkpt>
      <trkpt lat="45.08384" lon="4.81842">
        <ele>122.4</ele>
      </trkpt>
      <trkpt lat="45.08321" lon="4.8182">
        <ele>124.4</ele>
      </trkpt>
      <trkpt lat="45.08289" lon="4.81813">
        <ele>124.6</ele>
      </trkpt>
      <trkpt lat="45.08287" lon="4.81812">
        <ele>124.6</ele>
      </trkpt>
      <trkpt lat="45.08274" lon="4.81807">
        <ele>124.6</ele>
      </trkpt>
      <trkpt lat="45.08262" lon="4.81803">
        <ele>124.7</ele>
      </trkpt>
      <trkpt lat="45.0826" lon="4.81802">
        <ele>124.7</ele>
      </trkpt>
      <trkpt lat="45.08254" lon="4.81796">
        <ele>124.8</ele>
      </trkpt>
      <trkpt lat="45.08246" lon="4.81787">
        <ele>124.4</ele>
      </trkpt>
      <trkpt lat="45.08243" lon="4.81784">
        <ele>124.5</ele>
      </trkpt>
      <trkpt lat="45.08233" lon="4.81775">
        <ele>124.5</ele>
      </trkpt>
      <trkpt lat="45.08226" lon="4.81801">
        <ele>124.1</ele>
      </trkpt>
      <trkpt lat="45.08221" lon="4.81826">
        <ele>124</ele>
      </trkpt>
      <trkpt lat="45.08208" lon="4.81873">
        <ele>123.3</ele>
      </trkpt>
      <trkpt lat="45.08056" lon="4.81813">
        <ele>121.4</ele>
      </trkpt>
      <trkpt lat="45.0805" lon="4.81811">
        <ele>121.4</ele>
      </trkpt>
      <trkpt lat="45.08005" lon="4.81796">
        <ele>121</ele>
      </trkpt>
      <trkpt lat="45.07931" lon="4.81778">
        <ele>119.7</ele>
      </trkpt>
      <trkpt lat="45.07906" lon="4.81776">
        <ele>118.6</ele>
      </trkpt>
      <trkpt lat="45.07875" lon="4.81775">
        <ele>118.1</ele>
      </trkpt>
      <trkpt lat="45.07806" lon="4.81784">
        <ele>117.6</ele>
      </trkpt>
      <trkpt lat="45.07794" lon="4.81786">
        <ele>117.7</ele>
      </trkpt>
      <trkpt lat="45.07656" lon="4.81792">
        <ele>120.3</ele>
      </trkpt>
      <trkpt lat="45.07625" lon="4.81799">
        <ele>120.3</ele>
      </trkpt>
      <trkpt lat="45.0761" lon="4.81804">
        <ele>120.2</ele>
      </trkpt>
      <trkpt lat="45.07596" lon="4.81805">
        <ele>120.2</ele>
      </trkpt>
      <trkpt lat="45.07572" lon="4.81807">
        <ele>120</ele>
      </trkpt>
      <trkpt lat="45.07537" lon="4.81681">
        <ele>120.8</ele>
      </trkpt>
      <trkpt lat="45.07533" lon="4.81668">
        <ele>120.9</ele>
      </trkpt>
      <trkpt lat="45.07533" lon="4.81662">
        <ele>121.3</ele>
      </trkpt>
      <trkpt lat="45.07532" lon="4.81659">
        <ele>121.3</ele>
      </trkpt>
      <trkpt lat="45.0753" lon="4.81652">
        <ele>121.4</ele>
      </trkpt>
      <trkpt lat="45.07529" lon="4.81649">
        <ele>121.4</ele>
      </trkpt>
      <trkpt lat="45.07527" lon="4.8165">
        <ele>121.4</ele>
      </trkpt>
      <trkpt lat="45.07524" lon="4.81652">
        <ele>121.4</ele>
      </trkpt>
      <trkpt lat="45.0742" lon="4.81726">
        <ele>122</ele>
      </trkpt>
      <trkpt lat="45.07398" lon="4.81747">
        <ele>122.6</ele>
      </trkpt>
      <trkpt lat="45.07387" lon="4.8176">
        <ele>122.4</ele>
      </trkpt>
      <trkpt lat="45.07369" lon="4.81799">
        <ele>122.2</ele>
      </trkpt>
      <trkpt lat="45.07325" lon="4.81951">
        <ele>123.8</ele>
      </trkpt>
      <trkpt lat="45.07281" lon="4.82093">
        <ele>124.2</ele>
      </trkpt>
      <trkpt lat="45.07274" lon="4.82117">
        <ele>124.2</ele>
      </trkpt>
      <trkpt lat="45.07274" lon="4.8212">
        <ele>124.2</ele>
      </trkpt>
      <trkpt lat="45.07259" lon="4.82168">
        <ele>124.6</ele>
      </trkpt>
      <trkpt lat="45.07255" lon="4.82164">
        <ele>124.8</ele>
      </trkpt>
      <trkpt lat="45.07251" lon="4.82162">
        <ele>124.8</ele>
      </trkpt>
      <trkpt lat="45.07246" lon="4.82158">
        <ele>125.4</ele>
      </trkpt>
      <trkpt lat="45.07243" lon="4.82162">
        <ele>125.4</ele>
      </trkpt>
      <trkpt lat="45.0723" lon="4.82168">
        <ele>126.1</ele>
      </trkpt>
      <trkpt lat="45.07226" lon="4.82166">
        <ele>125.9</ele>
      </trkpt>
      <trkpt lat="45.07223" lon="4.82173">
        <ele>126.4</ele>
      </trkpt>
      <trkpt lat="45.07219" lon="4.82184">
        <ele>126.6</ele>
      </trkpt>
      <trkpt lat="45.07225" lon="4.82214">
        <ele>126.6</ele>
      </trkpt>
      <trkpt lat="45.07225" lon="4.82226">
        <ele>126.6</ele>
      </trkpt>
      <trkpt lat="45.07223" lon="4.82234">
        <ele>126.6</ele>
      </trkpt>
      <trkpt lat="45.07226" lon="4.82236">
        <ele>126.5</ele>
      </trkpt>
      <trkpt lat="45.07216" lon="4.82264">
        <ele>126.7</ele>
      </trkpt>
      <trkpt lat="45.07212" lon="4.82265">
        <ele>126.8</ele>
      </trkpt>
      <trkpt lat="45.07209" lon="4.82266">
        <ele>126.9</ele>
      </trkpt>
      <trkpt lat="45.07169" lon="4.82326">
        <ele>127.7</ele>
      </trkpt>
      <trkpt lat="45.07154" lon="4.82362">
        <ele>130.1</ele>
      </trkpt>
      <trkpt lat="45.07137" lon="4.82408">
        <ele>129.4</ele>
      </trkpt>
      <trkpt lat="45.07125" lon="4.82416">
        <ele>129.8</ele>
      </trkpt>
      <trkpt lat="45.07113" lon="4.8242">
        <ele>126.6</ele>
      </trkpt>
      <trkpt lat="45.07102" lon="4.82421">
        <ele>127.1</ele>
      </trkpt>
      <trkpt lat="45.0709" lon="4.82421">
        <ele>128</ele>
      </trkpt>
      <trkpt lat="45.07083" lon="4.82421">
        <ele>131.1</ele>
      </trkpt>
      <trkpt lat="45.07046" lon="4.82465">
        <ele>140.8</ele>
      </trkpt>
      <trkpt lat="45.07022" lon="4.82523">
        <ele>138.4</ele>
      </trkpt>
      <trkpt lat="45.06999" lon="4.82591">
        <ele>143.5</ele>
      </trkpt>
      <trkpt lat="45.07" lon="4.82603">
        <ele>133.6</ele>
      </trkpt>
      <trkpt lat="45.07" lon="4.8262">
        <ele>132.6</ele>
      </trkpt>
      <trkpt lat="45.07009" lon="4.82637">
        <ele>132.2</ele>
      </trkpt>
      <trkpt lat="45.07023" lon="4.82658">
        <ele>131.8</ele>
      </trkpt>
      <trkpt lat="45.07028" lon="4.8267">
        <ele>130.3</ele>
      </trkpt>
      <trkpt lat="45.07029" lon="4.82692">
        <ele>129.7</ele>
      </trkpt>
      <trkpt lat="45.07031" lon="4.82709">
        <ele>129.2</ele>
      </trkpt>
      <trkpt lat="45.0703" lon="4.82718">
        <ele>129.2</ele>
      </trkpt>
      <trkpt lat="45.07028" lon="4.82743">
        <ele>129.4</ele>
      </trkpt>
      <trkpt lat="45.07026" lon="4.82748">
        <ele>129.7</ele>
      </trkpt>
      <trkpt lat="45.07024" lon="4.82752">
        <ele>128.1</ele>
      </trkpt>
      <trkpt lat="45.07019" lon="4.82761">
        <ele>128.4</ele>
      </trkpt>
      <trkpt lat="45.07013" lon="4.82769">
        <ele>128.3</ele>
      </trkpt>
      <trkpt lat="45.07003" lon="4.82782">
        <ele>127.4</ele>
      </trkpt>
      <trkpt lat="45.06964" lon="4.82826">
        <ele>136.2</ele>
      </trkpt>
      <trkpt lat="45.06921" lon="4.82874">
        <ele>127.4</ele>
      </trkpt>
      <trkpt lat="45.06901" lon="4.82896">
        <ele>133.7</ele>
      </trkpt>
      <trkpt lat="45.06899" lon="4.82899">
        <ele>133.4</ele>
      </trkpt>
      <trkpt lat="45.06893" lon="4.82909">
        <ele>133.2</ele>
      </trkpt>
      <trkpt lat="45.06862" lon="4.82962">
        <ele>127.6</ele>
      </trkpt>
      <trkpt lat="45.06852" lon="4.8299">
        <ele>127.8</ele>
      </trkpt>
      <trkpt lat="45.06844" lon="4.83007">
        <ele>127.6</ele>
      </trkpt>
      <trkpt lat="45.06832" lon="4.83024">
        <ele>132.1</ele>
      </trkpt>
      <trkpt lat="45.06826" lon="4.83031">
        <ele>132.6</ele>
      </trkpt>
      <trkpt lat="45.06818" lon="4.83044">
        <ele>132.9</ele>
      </trkpt>
      <trkpt lat="45.06802" lon="4.83028">
        <ele>134.2</ele>
      </trkpt>
      <trkpt lat="45.06798" lon="4.83033">
        <ele>134.4</ele>
      </trkpt>
      <trkpt lat="45.06794" lon="4.83037">
        <ele>134.5</ele>
      </trkpt>
      <trkpt lat="45.06793" lon="4.83039">
        <ele>134.5</ele>
      </trkpt>
      <trkpt lat="45.06787" lon="4.83056">
        <ele>134</ele>
      </trkpt>
      <trkpt lat="45.06781" lon="4.83062">
        <ele>134</ele>
      </trkpt>
      <trkpt lat="45.06755" lon="4.83078">
        <ele>132.8</ele>
      </trkpt>
      <trkpt lat="45.06741" lon="4.8309">
        <ele>134.2</ele>
      </trkpt>
      <trkpt lat="45.06737" lon="4.83098">
        <ele>135.1</ele>
      </trkpt>
      <trkpt lat="45.06732" lon="4.83106">
        <ele>135.8</ele>
      </trkpt>
      <trkpt lat="45.06722" lon="4.83121">
        <ele>136.4</ele>
      </trkpt>
      <trkpt lat="45.06721" lon="4.83123">
        <ele>136.4</ele>
      </trkpt>
      <trkpt lat="45.06718" lon="4.8313">
        <ele>136.3</ele>
      </trkpt>
      <trkpt lat="45.06713" lon="4.83142">
        <ele>136</ele>
      </trkpt>
      <trkpt lat="45.06706" lon="4.83161">
        <ele>135.7</ele>
      </trkpt>
      <trkpt lat="45.06691" lon="4.83155">
        <ele>136.4</ele>
      </trkpt>
      <trkpt lat="45.06652" lon="4.83188">
        <ele>133.9</ele>
      </trkpt>
      <trkpt lat="45.06637" lon="4.83209">
        <ele>133</ele>
      </trkpt>
      <trkpt lat="45.06636" lon="4.83214">
        <ele>132.8</ele>
      </trkpt>
      <trkpt lat="45.06629" lon="4.83222">
        <ele>132.5</ele>
      </trkpt>
      <trkpt lat="45.06624" lon="4.83233">
        <ele>132.1</ele>
      </trkpt>
      <trkpt lat="45.06623" lon="4.83238">
        <ele>131.9</ele>
      </trkpt>
      <trkpt lat="45.06621" lon="4.83246">
        <ele>131.7</ele>
      </trkpt>
      <trkpt lat="45.06616" lon="4.83263">
        <ele>129</ele>
      </trkpt>
      <trkpt lat="45.06608" lon="4.83296">
        <ele>128.9</ele>
      </trkpt>
      <trkpt lat="45.066" lon="4.83321">
        <ele>128.6</ele>
      </trkpt>
      <trkpt lat="45.06595" lon="4.83329">
        <ele>128.4</ele>
      </trkpt>
      <trkpt lat="45.06589" lon="4.8333">
        <ele>128.3</ele>
      </trkpt>
      <trkpt lat="45.0658" lon="4.83329">
        <ele>128.6</ele>
      </trkpt>
      <trkpt lat="45.06572" lon="4.83336">
        <ele>127.9</ele>
      </trkpt>
      <trkpt lat="45.06516" lon="4.83376">
        <ele>127.6</ele>
      </trkpt>
      <trkpt lat="45.06515" lon="4.83404">
        <ele>126.8</ele>
      </trkpt>
      <trkpt lat="45.06497" lon="4.83394">
        <ele>127.5</ele>
      </trkpt>
      <trkpt lat="45.06485" lon="4.83383">
        <ele>128.1</ele>
      </trkpt>
      <trkpt lat="45.06463" lon="4.83378">
        <ele>128.4</ele>
      </trkpt>
      <trkpt lat="45.0645" lon="4.83371">
        <ele>128.7</ele>
      </trkpt>
      <trkpt lat="45.06427" lon="4.83351">
        <ele>130.4</ele>
      </trkpt>
      <trkpt lat="45.0642" lon="4.83353">
        <ele>130.4</ele>
      </trkpt>
      <trkpt lat="45.06372" lon="4.83392">
        <ele>126.8</ele>
      </trkpt>
      <trkpt lat="45.06353" lon="4.834">
        <ele>125.8</ele>
      </trkpt>
      <trkpt lat="45.0632" lon="4.83404">
        <ele>124.6</ele>
      </trkpt>
      <trkpt lat="45.06293" lon="4.83408">
        <ele>125</ele>
      </trkpt>
      <trkpt lat="45.06262" lon="4.83412">
        <ele>124.2</ele>
      </trkpt>
      <trkpt lat="45.06242" lon="4.83413">
        <ele>123.3</ele>
      </trkpt>
      <trkpt lat="45.06238" lon="4.83414">
        <ele>123.3</ele>
      </trkpt>
      <trkpt lat="45.06207" lon="4.83415">
        <ele>123</ele>
      </trkpt>
      <trkpt lat="45.0619" lon="4.83416">
        <ele>122.3</ele>
      </trkpt>
      <trkpt lat="45.06185" lon="4.83416">
        <ele>122</ele>
      </trkpt>
      <trkpt lat="45.06175" lon="4.83416">
        <ele>121.1</ele>
      </trkpt>
      <trkpt lat="45.06162" lon="4.83416">
        <ele>120.1</ele>
      </trkpt>
      <trkpt lat="45.0613" lon="4.83414">
        <ele>119.9</ele>
      </trkpt>
      <trkpt lat="45.06128" lon="4.83413">
        <ele>119.9</ele>
      </trkpt>
      <trkpt lat="45.06115" lon="4.83411">
        <ele>119.6</ele>
      </trkpt>
      <trkpt lat="45.06097" lon="4.83407">
        <ele>119</ele>
      </trkpt>
      <trkpt lat="45.06058" lon="4.83401">
        <ele>118.9</ele>
      </trkpt>
      <trkpt lat="45.06004" lon="4.83387">
        <ele>119.5</ele>
      </trkpt>
      <trkpt lat="45.0599" lon="4.83382">
        <ele>120.5</ele>
      </trkpt>
      <trkpt lat="45.05926" lon="4.83361">
        <ele>121.1</ele>
      </trkpt>
      <trkpt lat="45.05918" lon="4.83358">
        <ele>121.2</ele>
      </trkpt>
      <trkpt lat="45.05913" lon="4.83356">
        <ele>121.5</ele>
      </trkpt>
      <trkpt lat="45.05865" lon="4.83335">
        <ele>121.7</ele>
      </trkpt>
      <trkpt lat="45.05844" lon="4.83325">
        <ele>123.6</ele>
      </trkpt>
      <trkpt lat="45.058" lon="4.833">
        <ele>124.3</ele>
      </trkpt>
      <trkpt lat="45.05759" lon="4.83269">
        <ele>125.1</ele>
      </trkpt>
      <trkpt lat="45.05755" lon="4.83269">
        <ele>125.1</ele>
      </trkpt>
      <trkpt lat="45.05748" lon="4.83269">
        <ele>124.2</ele>
      </trkpt>
      <trkpt lat="45.05739" lon="4.83265">
        <ele>124.2</ele>
      </trkpt>
      <trkpt lat="45.05711" lon="4.83252">
        <ele>123.3</ele>
      </trkpt>
      <trkpt lat="45.05677" lon="4.83237">
        <ele>125.1</ele>
      </trkpt>
      <trkpt lat="45.05635" lon="4.83218">
        <ele>123.6</ele>
      </trkpt>
      <trkpt lat="45.05611" lon="4.83212">
        <ele>123.5</ele>
      </trkpt>
      <trkpt lat="45.05582" lon="4.83204">
        <ele>122.6</ele>
      </trkpt>
      <trkpt lat="45.05545" lon="4.83192">
        <ele>122.7</ele>
      </trkpt>
      <trkpt lat="45.05507" lon="4.83173">
        <ele>122.9</ele>
      </trkpt>
      <trkpt lat="45.05435" lon="4.8315">
        <ele>122.2</ele>
      </trkpt>
      <trkpt lat="45.0542" lon="4.83143">
        <ele>122.1</ele>
      </trkpt>
      <trkpt lat="45.05333" lon="4.83101">
        <ele>120.1</ele>
      </trkpt>
      <trkpt lat="45.05276" lon="4.83074">
        <ele>121.2</ele>
      </trkpt>
      <trkpt lat="45.05262" lon="4.83063">
        <ele>121.1</ele>
      </trkpt>
      <trkpt lat="45.05249" lon="4.83059">
        <ele>120.5</ele>
      </trkpt>
      <trkpt lat="45.05242" lon="4.83057">
        <ele>120.6</ele>
      </trkpt>
      <trkpt lat="45.05145" lon="4.83025">
        <ele>121.9</ele>
      </trkpt>
      <trkpt lat="45.0514" lon="4.83023">
        <ele>121.9</ele>
      </trkpt>
      <trkpt lat="45.05134" lon="4.83021">
        <ele>121.9</ele>
      </trkpt>
      <trkpt lat="45.0509" lon="4.83007">
        <ele>122.5</ele>
      </trkpt>
      <trkpt lat="45.05055" lon="4.82996">
        <ele>126.2</ele>
      </trkpt>
      <trkpt lat="45.04832" lon="4.82935">
        <ele>125.5</ele>
      </trkpt>
      <trkpt lat="45.04714" lon="4.82907">
        <ele>124.6</ele>
      </trkpt>
      <trkpt lat="45.0469" lon="4.82903">
        <ele>124.7</ele>
      </trkpt>
      <trkpt lat="45.04678" lon="4.82902">
        <ele>124.6</ele>
      </trkpt>
      <trkpt lat="45.04664" lon="4.829">
        <ele>125</ele>
      </trkpt>
      <trkpt lat="45.04562" lon="4.82886">
        <ele>127.6</ele>
      </trkpt>
      <trkpt lat="45.04469" lon="4.82871">
        <ele>129</ele>
      </trkpt>
      <trkpt lat="45.04454" lon="4.82866">
        <ele>129.1</ele>
      </trkpt>
      <trkpt lat="45.04405" lon="4.82824">
        <ele>131.2</ele>
      </trkpt>
      <trkpt lat="45.04355" lon="4.82763">
        <ele>130.4</ele>
      </trkpt>
      <trkpt lat="45.04325" lon="4.82731">
        <ele>130.7</ele>
      </trkpt>
      <trkpt lat="45.0432" lon="4.82726">
        <ele>131.2</ele>
      </trkpt>
      <trkpt lat="45.04313" lon="4.8272">
        <ele>131.8</ele>
      </trkpt>
      <trkpt lat="45.04309" lon="4.82717">
        <ele>132.2</ele>
      </trkpt>
      <trkpt lat="45.04299" lon="4.82715">
        <ele>132.8</ele>
      </trkpt>
      <trkpt lat="45.0429" lon="4.82719">
        <ele>133.1</ele>
      </trkpt>
      <trkpt lat="45.04281" lon="4.82728">
        <ele>133.2</ele>
      </trkpt>
      <trkpt lat="45.04265" lon="4.82753">
        <ele>130.4</ele>
      </trkpt>
      <trkpt lat="45.04261" lon="4.82755">
        <ele>130.6</ele>
      </trkpt>
      <trkpt lat="45.04259" lon="4.8274">
        <ele>132.9</ele>
      </trkpt>
      <trkpt lat="45.04256" lon="4.8274">
        <ele>132.8</ele>
      </trkpt>
      <trkpt lat="45.04183" lon="4.82753">
        <ele>132.5</ele>
      </trkpt>
      <trkpt lat="45.04176" lon="4.82759">
        <ele>132.8</ele>
      </trkpt>
      <trkpt lat="45.04175" lon="4.82762">
        <ele>132.6</ele>
      </trkpt>
      <trkpt lat="45.04169" lon="4.82774">
        <ele>131.5</ele>
      </trkpt>
      <trkpt lat="45.04164" lon="4.82778">
        <ele>130.2</ele>
      </trkpt>
      <trkpt lat="45.04154" lon="4.82779">
        <ele>129.8</ele>
      </trkpt>
      <trkpt lat="45.04132" lon="4.82774">
        <ele>129.2</ele>
      </trkpt>
      <trkpt lat="45.04116" lon="4.8277">
        <ele>128.7</ele>
      </trkpt>
      <trkpt lat="45.04102" lon="4.82763">
        <ele>128.4</ele>
      </trkpt>
      <trkpt lat="45.04048" lon="4.82736">
        <ele>132.1</ele>
      </trkpt>
      <trkpt lat="45.03998" lon="4.82705">
        <ele>129</ele>
      </trkpt>
      <trkpt lat="45.03991" lon="4.82701">
        <ele>129.3</ele>
      </trkpt>
      <trkpt lat="45.03961" lon="4.82687">
        <ele>129.1</ele>
      </trkpt>
      <trkpt lat="45.03944" lon="4.82682">
        <ele>128.7</ele>
      </trkpt>
      <trkpt lat="45.03896" lon="4.82654">
        <ele>132.8</ele>
      </trkpt>
      <trkpt lat="45.03881" lon="4.82648">
        <ele>133.6</ele>
      </trkpt>
      <trkpt lat="45.0388" lon="4.82651">
        <ele>133.4</ele>
      </trkpt>
      <trkpt lat="45.03877" lon="4.82669">
        <ele>127.4</ele>
      </trkpt>
      <trkpt lat="45.03877" lon="4.82673">
        <ele>127.4</ele>
      </trkpt>
      <trkpt lat="45.03856" lon="4.82667">
        <ele>127.5</ele>
      </trkpt>
      <trkpt lat="45.0385" lon="4.82677">
        <ele>127.4</ele>
      </trkpt>
      <trkpt lat="45.03842" lon="4.82686">
        <ele>127.4</ele>
      </trkpt>
      <trkpt lat="45.03835" lon="4.82698">
        <ele>127.2</ele>
      </trkpt>
      <trkpt lat="45.0383" lon="4.82706">
        <ele>127.2</ele>
      </trkpt>
      <trkpt lat="45.03813" lon="4.82733">
        <ele>127</ele>
      </trkpt>
      <trkpt lat="45.03791" lon="4.82768">
        <ele>125.6</ele>
      </trkpt>
      <trkpt lat="45.03779" lon="4.82775">
        <ele>125.4</ele>
      </trkpt>
      <trkpt lat="45.03776" lon="4.82775">
        <ele>125.4</ele>
      </trkpt>
      <trkpt lat="45.03763" lon="4.82771">
        <ele>125.5</ele>
      </trkpt>
      <trkpt lat="45.03757" lon="4.82767">
        <ele>125.6</ele>
      </trkpt>
      <trkpt lat="45.03746" lon="4.82763">
        <ele>125.1</ele>
      </trkpt>
      <trkpt lat="45.03702" lon="4.82754">
        <ele>124.1</ele>
      </trkpt>
      <trkpt lat="45.03687" lon="4.82752">
        <ele>124</ele>
      </trkpt>
      <trkpt lat="45.03683" lon="4.82751">
        <ele>123.9</ele>
      </trkpt>
      <trkpt lat="45.0366" lon="4.82752">
        <ele>123.5</ele>
      </trkpt>
      <trkpt lat="45.03638" lon="4.82751">
        <ele>122.6</ele>
      </trkpt>
      <trkpt lat="45.03625" lon="4.82751">
        <ele>122.4</ele>
      </trkpt>
      <trkpt lat="45.03614" lon="4.82751">
        <ele>122.4</ele>
      </trkpt>
      <trkpt lat="45.03589" lon="4.82751">
        <ele>122.7</ele>
      </trkpt>
      <trkpt lat="45.03571" lon="4.82746">
        <ele>124.1</ele>
      </trkpt>
      <trkpt lat="45.03566" lon="4.82743">
        <ele>124.5</ele>
      </trkpt>
      <trkpt lat="45.03534" lon="4.82723">
        <ele>125.5</ele>
      </trkpt>
      <trkpt lat="45.0352" lon="4.82721">
        <ele>125.6</ele>
      </trkpt>
      <trkpt lat="45.03508" lon="4.82657">
        <ele>129.4</ele>
      </trkpt>
      <trkpt lat="45.03503" lon="4.82625">
        <ele>133</ele>
      </trkpt>
      <trkpt lat="45.03499" lon="4.82616">
        <ele>136.6</ele>
      </trkpt>
      <trkpt lat="45.03492" lon="4.82615">
        <ele>136.8</ele>
      </trkpt>
      <trkpt lat="45.03475" lon="4.82628">
        <ele>135.8</ele>
      </trkpt>
      <trkpt lat="45.03447" lon="4.82645">
        <ele>134.7</ele>
      </trkpt>
      <trkpt lat="45.03327" lon="4.82711">
        <ele>130.1</ele>
      </trkpt>
      <trkpt lat="45.0332" lon="4.82705">
        <ele>131</ele>
      </trkpt>
      <trkpt lat="45.03314" lon="4.82684">
        <ele>133</ele>
      </trkpt>
      <trkpt lat="45.03305" lon="4.82684">
        <ele>133.4</ele>
      </trkpt>
      <trkpt lat="45.03285" lon="4.82685">
        <ele>135</ele>
      </trkpt>
      <trkpt lat="45.03007" lon="4.82844">
        <ele>127.5</ele>
      </trkpt>
      <trkpt lat="45.02946" lon="4.82878">
        <ele>124.7</ele>
      </trkpt>
      <trkpt lat="45.02933" lon="4.82892">
        <ele>124.1</ele>
      </trkpt>
      <trkpt lat="45.02928" lon="4.82898">
        <ele>123.7</ele>
      </trkpt>
      <trkpt lat="45.0292" lon="4.82906">
        <ele>123</ele>
      </trkpt>
      <trkpt lat="45.02781" lon="4.82989">
        <ele>122.9</ele>
      </trkpt>
      <trkpt lat="45.02617" lon="4.83083">
        <ele>119.3</ele>
      </trkpt>
      <trkpt lat="45.02574" lon="4.83103">
        <ele>118.4</ele>
      </trkpt>
      <trkpt lat="45.02489" lon="4.83132">
        <ele>120.1</ele>
      </trkpt>
      <trkpt lat="45.0248" lon="4.83131">
        <ele>120.2</ele>
      </trkpt>
      <trkpt lat="45.02472" lon="4.83127">
        <ele>120.2</ele>
      </trkpt>
      <trkpt lat="45.02461" lon="4.83109">
        <ele>120.4</ele>
      </trkpt>
      <trkpt lat="45.02455" lon="4.83104">
        <ele>120.5</ele>
      </trkpt>
      <trkpt lat="45.02452" lon="4.83105">
        <ele>120.5</ele>
      </trkpt>
      <trkpt lat="45.0245" lon="4.83111">
        <ele>120.4</ele>
      </trkpt>
      <trkpt lat="45.02451" lon="4.83128">
        <ele>120.2</ele>
      </trkpt>
      <trkpt lat="45.02445" lon="4.83152">
        <ele>119.9</ele>
      </trkpt>
      <trkpt lat="45.02446" lon="4.8316">
        <ele>119.9</ele>
      </trkpt>
      <trkpt lat="45.0244" lon="4.83161">
        <ele>119.8</ele>
      </trkpt>
      <trkpt lat="45.02408" lon="4.83174">
        <ele>118.7</ele>
      </trkpt>
      <trkpt lat="45.02362" lon="4.83179">
        <ele>117.9</ele>
      </trkpt>
      <trkpt lat="45.02175" lon="4.83218">
        <ele>115.8</ele>
      </trkpt>
      <trkpt lat="45.02114" lon="4.8325">
        <ele>115.3</ele>
      </trkpt>
      <trkpt lat="45.02096" lon="4.83264">
        <ele>114.7</ele>
      </trkpt>
      <trkpt lat="45.02014" lon="4.83326">
        <ele>115.8</ele>
      </trkpt>
      <trkpt lat="45.01981" lon="4.83342">
        <ele>116.7</ele>
      </trkpt>
      <trkpt lat="45.01953" lon="4.83347">
        <ele>117.3</ele>
      </trkpt>
      <trkpt lat="45.01938" lon="4.83348">
        <ele>117.5</ele>
      </trkpt>
      <trkpt lat="45.01913" lon="4.83342">
        <ele>118.1</ele>
      </trkpt>
      <trkpt lat="45.01909" lon="4.83341">
        <ele>118.1</ele>
      </trkpt>
      <trkpt lat="45.01874" lon="4.83326">
        <ele>118.5</ele>
      </trkpt>
      <trkpt lat="45.01828" lon="4.83312">
        <ele>119.2</ele>
      </trkpt>
      <trkpt lat="45.01783" lon="4.83306">
        <ele>119.1</ele>
      </trkpt>
      <trkpt lat="45.01757" lon="4.83306">
        <ele>118.9</ele>
      </trkpt>
      <trkpt lat="45.01743" lon="4.83307">
        <ele>118.6</ele>
      </trkpt>
      <trkpt lat="45.01728" lon="4.83308">
        <ele>118.6</ele>
      </trkpt>
      <trkpt lat="45.01689" lon="4.83311">
        <ele>118.3</ele>
      </trkpt>
      <trkpt lat="45.01619" lon="4.8332">
        <ele>116.8</ele>
      </trkpt>
      <trkpt lat="45.01548" lon="4.83333">
        <ele>116.6</ele>
      </trkpt>
      <trkpt lat="45.01507" lon="4.83335">
        <ele>115.8</ele>
      </trkpt>
      <trkpt lat="45.01332" lon="4.83314">
        <ele>130.3</ele>
      </trkpt>
      <trkpt lat="45.01295" lon="4.83313">
        <ele>134.5</ele>
      </trkpt>
      <trkpt lat="45.01258" lon="4.83316">
        <ele>132.6</ele>
      </trkpt>
      <trkpt lat="45.01175" lon="4.83333">
        <ele>134.3</ele>
      </trkpt>
      <trkpt lat="45.01134" lon="4.83348">
        <ele>128.9</ele>
      </trkpt>
      <trkpt lat="45.01035" lon="4.83368">
        <ele>131</ele>
      </trkpt>
      <trkpt lat="45.00977" lon="4.83362">
        <ele>131.4</ele>
      </trkpt>
      <trkpt lat="45.00921" lon="4.83348">
        <ele>134.9</ele>
      </trkpt>
      <trkpt lat="45.00895" lon="4.83346">
        <ele>134.4</ele>
      </trkpt>
      <trkpt lat="45.00867" lon="4.83351">
        <ele>133.9</ele>
      </trkpt>
      <trkpt lat="45.00825" lon="4.83361">
        <ele>137.2</ele>
      </trkpt>
      <trkpt lat="45.00634" lon="4.83432">
        <ele>132.5</ele>
      </trkpt>
      <trkpt lat="45.00579" lon="4.83461">
        <ele>136</ele>
      </trkpt>
      <trkpt lat="45.00549" lon="4.83482">
        <ele>133.8</ele>
      </trkpt>
      <trkpt lat="45.00523" lon="4.83508">
        <ele>124.6</ele>
      </trkpt>
      <trkpt lat="45.00502" lon="4.83537">
        <ele>123.7</ele>
      </trkpt>
      <trkpt lat="45.00484" lon="4.83567">
        <ele>131</ele>
      </trkpt>
      <trkpt lat="45.00348" lon="4.83837">
        <ele>123.5</ele>
      </trkpt>
      <trkpt lat="45.00301" lon="4.83901">
        <ele>134.8</ele>
      </trkpt>
      <trkpt lat="45.00271" lon="4.83938">
        <ele>126.1</ele>
      </trkpt>
      <trkpt lat="45.00237" lon="4.83962">
        <ele>134</ele>
      </trkpt>
      <trkpt lat="45.00202" lon="4.83983">
        <ele>133.4</ele>
      </trkpt>
      <trkpt lat="45.00189" lon="4.83998">
        <ele>131.8</ele>
      </trkpt>
      <trkpt lat="45.00148" lon="4.84025">
        <ele>124.8</ele>
      </trkpt>
      <trkpt lat="45.00107" lon="4.84041">
        <ele>124.5</ele>
      </trkpt>
      <trkpt lat="45.00074" lon="4.84049">
        <ele>123.7</ele>
      </trkpt>
      <trkpt lat="45.00067" lon="4.84044">
        <ele>124.3</ele>
      </trkpt>
      <trkpt lat="45.00064" lon="4.84036">
        <ele>125.1</ele>
      </trkpt>
      <trkpt lat="45.0006" lon="4.84026">
        <ele>126</ele>
      </trkpt>
      <trkpt lat="45.00055" lon="4.8402">
        <ele>126.3</ele>
      </trkpt>
      <trkpt lat="45.00004" lon="4.84014">
        <ele>125.1</ele>
      </trkpt>
      <trkpt lat="44.9999" lon="4.84024">
        <ele>125.6</ele>
      </trkpt>
      <trkpt lat="44.9997" lon="4.84058">
        <ele>124.5</ele>
      </trkpt>
      <trkpt lat="44.99971" lon="4.84067">
        <ele>124</ele>
      </trkpt>
      <trkpt lat="44.99966" lon="4.84069">
        <ele>124.3</ele>
      </trkpt>
      <trkpt lat="44.99908" lon="4.8409">
        <ele>126.6</ele>
      </trkpt>
      <trkpt lat="44.99862" lon="4.84123">
        <ele>128</ele>
      </trkpt>
      <trkpt lat="44.99842" lon="4.84138">
        <ele>126.7</ele>
      </trkpt>
      <trkpt lat="44.99811" lon="4.84165">
        <ele>129.3</ele>
      </trkpt>
      <trkpt lat="44.99812" lon="4.84174">
        <ele>122.9</ele>
      </trkpt>
      <trkpt lat="44.99793" lon="4.84217">
        <ele>122.7</ele>
      </trkpt>
      <trkpt lat="44.99776" lon="4.84247">
        <ele>122.7</ele>
      </trkpt>
      <trkpt lat="44.99765" lon="4.84281">
        <ele>120.1</ele>
      </trkpt>
      <trkpt lat="44.9976" lon="4.84304">
        <ele>119.9</ele>
      </trkpt>
      <trkpt lat="44.99757" lon="4.84313">
        <ele>120</ele>
      </trkpt>
      <trkpt lat="44.99746" lon="4.84327">
        <ele>122.1</ele>
      </trkpt>
      <trkpt lat="44.99739" lon="4.84338">
        <ele>121.9</ele>
      </trkpt>
      <trkpt lat="44.99725" lon="4.84374">
        <ele>122.8</ele>
      </trkpt>
      <trkpt lat="44.99722" lon="4.84381">
        <ele>122.9</ele>
      </trkpt>
      <trkpt lat="44.9971" lon="4.84395">
        <ele>123</ele>
      </trkpt>
      <trkpt lat="44.99704" lon="4.84402">
        <ele>123.1</ele>
      </trkpt>
      <trkpt lat="44.99694" lon="4.8441">
        <ele>123.4</ele>
      </trkpt>
      <trkpt lat="44.99642" lon="4.8444">
        <ele>121.3</ele>
      </trkpt>
      <trkpt lat="44.99631" lon="4.84458">
        <ele>120.5</ele>
      </trkpt>
      <trkpt lat="44.99616" lon="4.84478">
        <ele>119.9</ele>
      </trkpt>
      <trkpt lat="44.996" lon="4.84504">
        <ele>117.2</ele>
      </trkpt>
      <trkpt lat="44.99598" lon="4.84509">
        <ele>117.1</ele>
      </trkpt>
      <trkpt lat="44.99594" lon="4.84515">
        <ele>117</ele>
      </trkpt>
      <trkpt lat="44.99582" lon="4.84539">
        <ele>116.4</ele>
      </trkpt>
      <trkpt lat="44.99571" lon="4.84555">
        <ele>115.9</ele>
      </trkpt>
      <trkpt lat="44.99544" lon="4.84599">
        <ele>113.6</ele>
      </trkpt>
      <trkpt lat="44.9951" lon="4.84642">
        <ele>113.6</ele>
      </trkpt>
      <trkpt lat="44.99493" lon="4.84656">
        <ele>114</ele>
      </trkpt>
      <trkpt lat="44.9947" lon="4.84669">
        <ele>112.3</ele>
      </trkpt>
      <trkpt lat="44.99384" lon="4.84689">
        <ele>111</ele>
      </trkpt>
      <trkpt lat="44.99295" lon="4.84715">
        <ele>112.1</ele>
      </trkpt>
      <trkpt lat="44.99251" lon="4.84734">
        <ele>111.8</ele>
      </trkpt>
      <trkpt lat="44.99213" lon="4.84742">
        <ele>115.5</ele>
      </trkpt>
      <trkpt lat="44.99175" lon="4.84738">
        <ele>115.6</ele>
      </trkpt>
      <trkpt lat="44.99142" lon="4.84742">
        <ele>118.4</ele>
      </trkpt>
      <trkpt lat="44.99109" lon="4.84756">
        <ele>112.8</ele>
      </trkpt>
      <trkpt lat="44.98878" lon="4.84774">
        <ele>115.1</ele>
      </trkpt>
      <trkpt lat="44.98673" lon="4.84784">
        <ele>116</ele>
      </trkpt>
      <trkpt lat="44.98576" lon="4.84816">
        <ele>119.3</ele>
      </trkpt>
      <trkpt lat="44.98408" lon="4.84923">
        <ele>113.4</ele>
      </trkpt>
      <trkpt lat="44.98371" lon="4.84941">
        <ele>114.6</ele>
      </trkpt>
      <trkpt lat="44.9834" lon="4.84951">
        <ele>115</ele>
      </trkpt>
      <trkpt lat="44.98245" lon="4.84987">
        <ele>119.6</ele>
      </trkpt>
      <trkpt lat="44.98162" lon="4.85014">
        <ele>115.3</ele>
      </trkpt>
      <trkpt lat="44.98" lon="4.85091">
        <ele>111.2</ele>
      </trkpt>
      <trkpt lat="44.97974" lon="4.85101">
        <ele>111.5</ele>
      </trkpt>
      <trkpt lat="44.97943" lon="4.85113">
        <ele>111.7</ele>
      </trkpt>
      <trkpt lat="44.97933" lon="4.85117">
        <ele>111.7</ele>
      </trkpt>
      <trkpt lat="44.97911" lon="4.85113">
        <ele>113.9</ele>
      </trkpt>
      <trkpt lat="44.97844" lon="4.85141">
        <ele>114.2</ele>
      </trkpt>
      <trkpt lat="44.97705" lon="4.85175">
        <ele>113.1</ele>
      </trkpt>
      <trkpt lat="44.97459" lon="4.85256">
        <ele>112</ele>
      </trkpt>
      <trkpt lat="44.97387" lon="4.85312">
        <ele>112.4</ele>
      </trkpt>
      <trkpt lat="44.97377" lon="4.8533">
        <ele>112.2</ele>
      </trkpt>
      <trkpt lat="44.97366" lon="4.85337">
        <ele>110.5</ele>
      </trkpt>
      <trkpt lat="44.97363" lon="4.85333">
        <ele>112.4</ele>
      </trkpt>
      <trkpt lat="44.97358" lon="4.85327">
        <ele>112.4</ele>
      </trkpt>
      <trkpt lat="44.97355" lon="4.85325">
        <ele>112.5</ele>
      </trkpt>
      <trkpt lat="44.97354" lon="4.8532">
        <ele>112.5</ele>
      </trkpt>
      <trkpt lat="44.97352" lon="4.85315">
        <ele>112.6</ele>
      </trkpt>
      <trkpt lat="44.97345" lon="4.85308">
        <ele>112.7</ele>
      </trkpt>
      <trkpt lat="44.97339" lon="4.85284">
        <ele>113.4</ele>
      </trkpt>
      <trkpt lat="44.97293" lon="4.85298">
        <ele>113.8</ele>
      </trkpt>
      <trkpt lat="44.97232" lon="4.8532">
        <ele>114.4</ele>
      </trkpt>
      <trkpt lat="44.97146" lon="4.85346">
        <ele>116.3</ele>
      </trkpt>
      <trkpt lat="44.97063" lon="4.85356">
        <ele>117.7</ele>
      </trkpt>
      <trkpt lat="44.97022" lon="4.85352">
        <ele>117.6</ele>
      </trkpt>
      <trkpt lat="44.96974" lon="4.85342">
        <ele>117.9</ele>
      </trkpt>
      <trkpt lat="44.96919" lon="4.85328">
        <ele>119.2</ele>
      </trkpt>
      <trkpt lat="44.96857" lon="4.85313">
        <ele>120.5</ele>
      </trkpt>
      <trkpt lat="44.96789" lon="4.85301">
        <ele>120.6</ele>
      </trkpt>
      <trkpt lat="44.96772" lon="4.85301">
        <ele>120.5</ele>
      </trkpt>
      <trkpt lat="44.96757" lon="4.8531">
        <ele>120.2</ele>
      </trkpt>
      <trkpt lat="44.96733" lon="4.85322">
        <ele>119.7</ele>
      </trkpt>
      <trkpt lat="44.96695" lon="4.8535">
        <ele>118.1</ele>
      </trkpt>
      <trkpt lat="44.96687" lon="4.8535">
        <ele>118.2</ele>
      </trkpt>
      <trkpt lat="44.96676" lon="4.85343">
        <ele>118.5</ele>
      </trkpt>
      <trkpt lat="44.96624" lon="4.85342">
        <ele>117.8</ele>
      </trkpt>
      <trkpt lat="44.96616" lon="4.85344">
        <ele>117.8</ele>
      </trkpt>
      <trkpt lat="44.96521" lon="4.85377">
        <ele>120</ele>
      </trkpt>
      <trkpt lat="44.96453" lon="4.8539">
        <ele>122.8</ele>
      </trkpt>
      <trkpt lat="44.96367" lon="4.8541">
        <ele>123.2</ele>
      </trkpt>
      <trkpt lat="44.96363" lon="4.85411">
        <ele>123.1</ele>
      </trkpt>
      <trkpt lat="44.96333" lon="4.85416">
        <ele>122</ele>
      </trkpt>
      <trkpt lat="44.96187" lon="4.85472">
        <ele>121.8</ele>
      </trkpt>
      <trkpt lat="44.96129" lon="4.85488">
        <ele>121.7</ele>
      </trkpt>
      <trkpt lat="44.9605" lon="4.85498">
        <ele>121.9</ele>
      </trkpt>
      <trkpt lat="44.95989" lon="4.85503">
        <ele>121.6</ele>
      </trkpt>
      <trkpt lat="44.95974" lon="4.85492">
        <ele>121.7</ele>
      </trkpt>
      <trkpt lat="44.95941" lon="4.85504">
        <ele>120.7</ele>
      </trkpt>
      <trkpt lat="44.95909" lon="4.85504">
        <ele>120.2</ele>
      </trkpt>
      <trkpt lat="44.95881" lon="4.85503">
        <ele>120.7</ele>
      </trkpt>
      <trkpt lat="44.95812" lon="4.85507">
        <ele>121.8</ele>
      </trkpt>
      <trkpt lat="44.95787" lon="4.8551">
        <ele>121.6</ele>
      </trkpt>
      <trkpt lat="44.95768" lon="4.85515">
        <ele>121.5</ele>
      </trkpt>
      <trkpt lat="44.95717" lon="4.85537">
        <ele>122.2</ele>
      </trkpt>
      <trkpt lat="44.95692" lon="4.85552">
        <ele>122.4</ele>
      </trkpt>
      <trkpt lat="44.9562" lon="4.85595">
        <ele>122</ele>
      </trkpt>
      <trkpt lat="44.95572" lon="4.85619">
        <ele>121.7</ele>
      </trkpt>
      <trkpt lat="44.95532" lon="4.85632">
        <ele>121.8</ele>
      </trkpt>
      <trkpt lat="44.95518" lon="4.85633">
        <ele>121.8</ele>
      </trkpt>
      <trkpt lat="44.95502" lon="4.85634">
        <ele>121.8</ele>
      </trkpt>
      <trkpt lat="44.95471" lon="4.85629">
        <ele>121.1</ele>
      </trkpt>
      <trkpt lat="44.9542" lon="4.85611">
        <ele>120.6</ele>
      </trkpt>
      <trkpt lat="44.95377" lon="4.8559">
        <ele>120.6</ele>
      </trkpt>
      <trkpt lat="44.95353" lon="4.85582">
        <ele>121.6</ele>
      </trkpt>
      <trkpt lat="44.9533" lon="4.8558">
        <ele>122.1</ele>
      </trkpt>
      <trkpt lat="44.95274" lon="4.85584">
        <ele>122</ele>
      </trkpt>
      <trkpt lat="44.9517" lon="4.85597">
        <ele>121.1</ele>
      </trkpt>
      <trkpt lat="44.95129" lon="4.85601">
        <ele>121.5</ele>
      </trkpt>
      <trkpt lat="44.95116" lon="4.85604">
        <ele>121.6</ele>
      </trkpt>
      <trkpt lat="44.95079" lon="4.85612">
        <ele>121.7</ele>
      </trkpt>
      <trkpt lat="44.94987" lon="4.85635">
        <ele>122.1</ele>
      </trkpt>
      <trkpt lat="44.94969" lon="4.85638">
        <ele>122.4</ele>
      </trkpt>
      <trkpt lat="44.9488" lon="4.85653">
        <ele>123.9</ele>
      </trkpt>
      <trkpt lat="44.94791" lon="4.85676">
        <ele>122.2</ele>
      </trkpt>
      <trkpt lat="44.94779" lon="4.85627">
        <ele>123.4</ele>
      </trkpt>
      <trkpt lat="44.94773" lon="4.85579">
        <ele>124.2</ele>
      </trkpt>
      <trkpt lat="44.94772" lon="4.85572">
        <ele>124.2</ele>
      </trkpt>
      <trkpt lat="44.94764" lon="4.85575">
        <ele>124.2</ele>
      </trkpt>
      <trkpt lat="44.94741" lon="4.8558">
        <ele>123.9</ele>
      </trkpt>
      <trkpt lat="44.94736" lon="4.85582">
        <ele>123.8</ele>
      </trkpt>
      <trkpt lat="44.94721" lon="4.85646">
        <ele>122.2</ele>
      </trkpt>
      <trkpt lat="44.94724" lon="4.8569">
        <ele>121.4</ele>
      </trkpt>
      <trkpt lat="44.94549" lon="4.8573">
        <ele>120.2</ele>
      </trkpt>
      <trkpt lat="44.9446" lon="4.8575">
        <ele>119.7</ele>
      </trkpt>
      <trkpt lat="44.94435" lon="4.85763">
        <ele>119.5</ele>
      </trkpt>
      <trkpt lat="44.94426" lon="4.85771">
        <ele>119.5</ele>
      </trkpt>
      <trkpt lat="44.94418" lon="4.85778">
        <ele>119.6</ele>
      </trkpt>
      <trkpt lat="44.94412" lon="4.85782">
        <ele>119.7</ele>
      </trkpt>
      <trkpt lat="44.944" lon="4.85791">
        <ele>119.8</ele>
      </trkpt>
      <trkpt lat="44.94383" lon="4.85799">
        <ele>119.8</ele>
      </trkpt>
      <trkpt lat="44.94376" lon="4.85802">
        <ele>119.8</ele>
      </trkpt>
      <trkpt lat="44.94371" lon="4.85813">
        <ele>119.9</ele>
      </trkpt>
      <trkpt lat="44.94364" lon="4.85821">
        <ele>119.9</ele>
      </trkpt>
      <trkpt lat="44.94355" lon="4.85824">
        <ele>119.9</ele>
      </trkpt>
      <trkpt lat="44.94347" lon="4.85823">
        <ele>119.9</ele>
      </trkpt>
      <trkpt lat="44.9434" lon="4.85819">
        <ele>119.9</ele>
      </trkpt>
      <trkpt lat="44.94335" lon="4.85811">
        <ele>119.8</ele>
      </trkpt>
      <trkpt lat="44.94332" lon="4.85806">
        <ele>119.8</ele>
      </trkpt>
      <trkpt lat="44.9433" lon="4.858">
        <ele>119.7</ele>
      </trkpt>
      <trkpt lat="44.94319" lon="4.85791">
        <ele>119.7</ele>
      </trkpt>
      <trkpt lat="44.94313" lon="4.85787">
        <ele>119.7</ele>
      </trkpt>
      <trkpt lat="44.94298" lon="4.85786">
        <ele>119.7</ele>
      </trkpt>
      <trkpt lat="44.94286" lon="4.85788">
        <ele>119.8</ele>
      </trkpt>
      <trkpt lat="44.94264" lon="4.85794">
        <ele>119.8</ele>
      </trkpt>
      <trkpt lat="44.94232" lon="4.85801">
        <ele>119.3</ele>
      </trkpt>
      <trkpt lat="44.94233" lon="4.85805">
        <ele>119.3</ele>
      </trkpt>
      <trkpt lat="44.94229" lon="4.85812">
        <ele>119.3</ele>
      </trkpt>
      <trkpt lat="44.94227" lon="4.85813">
        <ele>119.3</ele>
      </trkpt>
      <trkpt lat="44.94224" lon="4.85813">
        <ele>119.2</ele>
      </trkpt>
      <trkpt lat="44.94222" lon="4.85812">
        <ele>119.2</ele>
      </trkpt>
      <trkpt lat="44.9422" lon="4.8581">
        <ele>119.2</ele>
      </trkpt>
      <trkpt lat="44.94219" lon="4.85807">
        <ele>119.1</ele>
      </trkpt>
      <trkpt lat="44.94179" lon="4.85823">
        <ele>118.5</ele>
      </trkpt>
      <trkpt lat="44.94163" lon="4.85828">
        <ele>118.1</ele>
      </trkpt>
      <trkpt lat="44.9416" lon="4.85822">
        <ele>118.2</ele>
      </trkpt>
      <trkpt lat="44.94155" lon="4.8582">
        <ele>118.3</ele>
      </trkpt>
      <trkpt lat="44.94149" lon="4.85822">
        <ele>118.3</ele>
      </trkpt>
      <trkpt lat="44.94146" lon="4.85829">
        <ele>118.3</ele>
      </trkpt>
      <trkpt lat="44.94137" lon="4.8582">
        <ele>118.4</ele>
      </trkpt>
      <trkpt lat="44.94054" lon="4.85796">
        <ele>117.7</ele>
      </trkpt>
      <trkpt lat="44.93986" lon="4.85791">
        <ele>115.8</ele>
      </trkpt>
      <trkpt lat="44.93941" lon="4.85812">
        <ele>115.8</ele>
      </trkpt>
      <trkpt lat="44.93902" lon="4.85835">
        <ele>116.3</ele>
      </trkpt>
      <trkpt lat="44.9387" lon="4.85843">
        <ele>116.5</ele>
      </trkpt>
      <trkpt lat="44.93754" lon="4.85861">
        <ele>116.6</ele>
      </trkpt>
      <trkpt lat="44.93625" lon="4.85874">
        <ele>117.5</ele>
      </trkpt>
      <trkpt lat="44.9352" lon="4.85874">
        <ele>116.7</ele>
      </trkpt>
      <trkpt lat="44.93454" lon="4.85869">
        <ele>116.8</ele>
      </trkpt>
      <trkpt lat="44.93413" lon="4.85887">
        <ele>116.7</ele>
      </trkpt>
      <trkpt lat="44.93342" lon="4.85957">
        <ele>116.3</ele>
      </trkpt>
      <trkpt lat="44.93338" lon="4.85972">
        <ele>116.3</ele>
      </trkpt>
      <trkpt lat="44.93328" lon="4.85978">
        <ele>115.6</ele>
      </trkpt>
      <trkpt lat="44.93318" lon="4.85973">
        <ele>115.5</ele>
      </trkpt>
      <trkpt lat="44.93313" lon="4.85961">
        <ele>115.4</ele>
      </trkpt>
      <trkpt lat="44.93273" lon="4.85965">
        <ele>115.1</ele>
      </trkpt>
      <trkpt lat="44.93202" lon="4.85958">
        <ele>114.5</ele>
      </trkpt>
      <trkpt lat="44.93119" lon="4.85939">
        <ele>113.9</ele>
      </trkpt>
      <trkpt lat="44.93088" lon="4.85932">
        <ele>113.5</ele>
      </trkpt>
      <trkpt lat="44.92944" lon="4.8594">
        <ele>111.4</ele>
      </trkpt>
      <trkpt lat="44.92856" lon="4.85952">
        <ele>111.2</ele>
      </trkpt>
      <trkpt lat="44.92849" lon="4.85953">
        <ele>111.2</ele>
      </trkpt>
      <trkpt lat="44.92782" lon="4.8596">
        <ele>112</ele>
      </trkpt>
      <trkpt lat="44.92638" lon="4.85976">
        <ele>111.4</ele>
      </trkpt>
      <trkpt lat="44.92619" lon="4.85977">
        <ele>111.5</ele>
      </trkpt>
      <trkpt lat="44.92445" lon="4.85986">
        <ele>110.3</ele>
      </trkpt>
      <trkpt lat="44.92435" lon="4.85989">
        <ele>110.3</ele>
      </trkpt>
      <trkpt lat="44.92422" lon="4.85998">
        <ele>110.1</ele>
      </trkpt>
      <trkpt lat="44.92417" lon="4.86005">
        <ele>110</ele>
      </trkpt>
      <trkpt lat="44.92412" lon="4.86015">
        <ele>109.8</ele>
      </trkpt>
      <trkpt lat="44.92404" lon="4.86022">
        <ele>109.7</ele>
      </trkpt>
      <trkpt lat="44.92395" lon="4.86024">
        <ele>109.6</ele>
      </trkpt>
      <trkpt lat="44.9239" lon="4.86022">
        <ele>109.6</ele>
      </trkpt>
      <trkpt lat="44.92384" lon="4.86019">
        <ele>109.6</ele>
      </trkpt>
      <trkpt lat="44.92379" lon="4.86016">
        <ele>109.5</ele>
      </trkpt>
      <trkpt lat="44.92359" lon="4.86016">
        <ele>109.4</ele>
      </trkpt>
      <trkpt lat="44.92346" lon="4.8602">
        <ele>109.3</ele>
      </trkpt>
      <trkpt lat="44.92304" lon="4.86045">
        <ele>109.4</ele>
      </trkpt>
      <trkpt lat="44.92258" lon="4.86074">
        <ele>109.8</ele>
      </trkpt>
      <trkpt lat="44.92111" lon="4.86178">
        <ele>109</ele>
      </trkpt>
      <trkpt lat="44.92086" lon="4.86188">
        <ele>109</ele>
      </trkpt>
      <trkpt lat="44.92078" lon="4.86189">
        <ele>109.3</ele>
      </trkpt>
      <trkpt lat="44.92071" lon="4.86188">
        <ele>109.3</ele>
      </trkpt>
      <trkpt lat="44.92064" lon="4.86182">
        <ele>109.3</ele>
      </trkpt>
      <trkpt lat="44.92057" lon="4.8618">
        <ele>109.4</ele>
      </trkpt>
      <trkpt lat="44.9205" lon="4.8618">
        <ele>109.4</ele>
      </trkpt>
      <trkpt lat="44.92043" lon="4.86183">
        <ele>109.5</ele>
      </trkpt>
      <trkpt lat="44.92037" lon="4.86189">
        <ele>109.5</ele>
      </trkpt>
      <trkpt lat="44.92032" lon="4.86196">
        <ele>109.6</ele>
      </trkpt>
      <trkpt lat="44.92029" lon="4.86204">
        <ele>109.6</ele>
      </trkpt>
      <trkpt lat="44.92028" lon="4.86213">
        <ele>109.6</ele>
      </trkpt>
      <trkpt lat="44.92016" lon="4.86225">
        <ele>109.7</ele>
      </trkpt>
      <trkpt lat="44.92005" lon="4.8623">
        <ele>109.7</ele>
      </trkpt>
      <trkpt lat="44.92007" lon="4.8624">
        <ele>109.8</ele>
      </trkpt>
      <trkpt lat="44.92008" lon="4.86249">
        <ele>109.9</ele>
      </trkpt>
      <trkpt lat="44.92008" lon="4.86252">
        <ele>109.8</ele>
      </trkpt>
      <trkpt lat="44.91937" lon="4.8627">
        <ele>109.1</ele>
      </trkpt>
      <trkpt lat="44.91674" lon="4.86348">
        <ele>108.7</ele>
      </trkpt>
      <trkpt lat="44.91647" lon="4.86353">
        <ele>106.6</ele>
      </trkpt>
      <trkpt lat="44.91614" lon="4.86355">
        <ele>105.4</ele>
      </trkpt>
      <trkpt lat="44.91571" lon="4.86351">
        <ele>103.7</ele>
      </trkpt>
      <trkpt lat="44.91529" lon="4.86342">
        <ele>103.7</ele>
      </trkpt>
      <trkpt lat="44.91296" lon="4.86281">
        <ele>105.2</ele>
      </trkpt>
      <trkpt lat="44.91261" lon="4.86277">
        <ele>105.1</ele>
      </trkpt>
      <trkpt lat="44.91219" lon="4.8628">
        <ele>105.7</ele>
      </trkpt>
      <trkpt lat="44.91176" lon="4.86288">
        <ele>106</ele>
      </trkpt>
      <trkpt lat="44.91141" lon="4.86301">
        <ele>106.4</ele>
      </trkpt>
      <trkpt lat="44.91088" lon="4.86332">
        <ele>105.3</ele>
      </trkpt>
      <trkpt lat="44.9106" lon="4.86355">
        <ele>104.8</ele>
      </trkpt>
      <trkpt lat="44.91029" lon="4.86385">
        <ele>104.7</ele>
      </trkpt>
      <trkpt lat="44.90999" lon="4.86418">
        <ele>104.1</ele>
      </trkpt>
      <trkpt lat="44.90972" lon="4.86452">
        <ele>105.8</ele>
      </trkpt>
      <trkpt lat="44.90656" lon="4.86954">
        <ele>107.7</ele>
      </trkpt>
      <trkpt lat="44.90656" lon="4.86955">
        <ele>107.7</ele>
      </trkpt>
      <trkpt lat="44.9052" lon="4.87175">
        <ele>106.8</ele>
      </trkpt>
      <trkpt lat="44.9052" lon="4.87178">
        <ele>106.8</ele>
      </trkpt>
      <trkpt lat="44.90533" lon="4.87191">
        <ele>107.1</ele>
      </trkpt>
      <trkpt lat="44.90601" lon="4.87249">
        <ele>108</ele>
      </trkpt>
      <trkpt lat="44.90609" lon="4.87257">
        <ele>108.3</ele>
      </trkpt>
      <trkpt lat="44.90581" lon="4.87505">
        <ele>108.6</ele>
      </trkpt>
      <trkpt lat="44.90575" lon="4.87579">
        <ele>108.4</ele>
      </trkpt>
      <trkpt lat="44.90573" lon="4.87595">
        <ele>108.5</ele>
      </trkpt>
      <trkpt lat="44.90563" lon="4.87686">
        <ele>109.5</ele>
      </trkpt>
      <trkpt lat="44.90558" lon="4.87727">
        <ele>109.7</ele>
      </trkpt>
      <trkpt lat="44.90558" lon="4.87751">
        <ele>110.8</ele>
      </trkpt>
      <trkpt lat="44.90562" lon="4.87777">
        <ele>111</ele>
      </trkpt>
      <trkpt lat="44.90567" lon="4.878">
        <ele>111.2</ele>
      </trkpt>
      <trkpt lat="44.9056" lon="4.87799">
        <ele>111.2</ele>
      </trkpt>
      <trkpt lat="44.90551" lon="4.87802">
        <ele>111.2</ele>
      </trkpt>
      <trkpt lat="44.90546" lon="4.87806">
        <ele>111.2</ele>
      </trkpt>
      <trkpt lat="44.90538" lon="4.87819">
        <ele>111.3</ele>
      </trkpt>
      <trkpt lat="44.90534" lon="4.8783">
        <ele>111.4</ele>
      </trkpt>
      <trkpt lat="44.90532" lon="4.87842">
        <ele>113.1</ele>
      </trkpt>
      <trkpt lat="44.90533" lon="4.87856">
        <ele>113.4</ele>
      </trkpt>
      <trkpt lat="44.90534" lon="4.87861">
        <ele>113.5</ele>
      </trkpt>
      <trkpt lat="44.90537" lon="4.87869">
        <ele>113.6</ele>
      </trkpt>
      <trkpt lat="44.90527" lon="4.87861">
        <ele>113.5</ele>
      </trkpt>
      <trkpt lat="44.90517" lon="4.87858">
        <ele>113.3</ele>
      </trkpt>
      <trkpt lat="44.90502" lon="4.8786">
        <ele>113.3</ele>
      </trkpt>
      <trkpt lat="44.90448" lon="4.87874">
        <ele>112.6</ele>
      </trkpt>
      <trkpt lat="44.90444" lon="4.87876">
        <ele>112.6</ele>
      </trkpt>
      <trkpt lat="44.90382" lon="4.87885">
        <ele>111.5</ele>
      </trkpt>
      <trkpt lat="44.90372" lon="4.87884">
        <ele>111.4</ele>
      </trkpt>
      <trkpt lat="44.90366" lon="4.87883">
        <ele>111.4</ele>
      </trkpt>
      <trkpt lat="44.90361" lon="4.87889">
        <ele>111.5</ele>
      </trkpt>
      <trkpt lat="44.90358" lon="4.87897">
        <ele>111.7</ele>
      </trkpt>
      <trkpt lat="44.90348" lon="4.87903">
        <ele>112</ele>
      </trkpt>
      <trkpt lat="44.90337" lon="4.87908">
        <ele>112.4</ele>
      </trkpt>
      <trkpt lat="44.90309" lon="4.87917">
        <ele>112.5</ele>
      </trkpt>
      <trkpt lat="44.90284" lon="4.87923">
        <ele>111.9</ele>
      </trkpt>
      <trkpt lat="44.90256" lon="4.87922">
        <ele>110.7</ele>
      </trkpt>
      <trkpt lat="44.90194" lon="4.87912">
        <ele>109.3</ele>
      </trkpt>
      <trkpt lat="44.90187" lon="4.87904">
        <ele>109.3</ele>
      </trkpt>
      <trkpt lat="44.90182" lon="4.87903">
        <ele>109.4</ele>
      </trkpt>
      <trkpt lat="44.90177" lon="4.87908">
        <ele>109.5</ele>
      </trkpt>
      <trkpt lat="44.90162" lon="4.87881">
        <ele>109.6</ele>
      </trkpt>
      <trkpt lat="44.90148" lon="4.87899">
        <ele>109.7</ele>
      </trkpt>
      <trkpt lat="44.90139" lon="4.87905">
        <ele>109.8</ele>
      </trkpt>
      <trkpt lat="44.9013" lon="4.87907">
        <ele>109.8</ele>
      </trkpt>
      <trkpt lat="44.90107" lon="4.87903">
        <ele>110</ele>
      </trkpt>
      <trkpt lat="44.90089" lon="4.879">
        <ele>110.2</ele>
      </trkpt>
      <trkpt lat="44.90054" lon="4.87894">
        <ele>109.7</ele>
      </trkpt>
      <trkpt lat="44.90011" lon="4.87897">
        <ele>109.9</ele>
      </trkpt>
      <trkpt lat="44.8983" lon="4.87905">
        <ele>110.9</ele>
      </trkpt>
      <trkpt lat="44.89695" lon="4.87908">
        <ele>109.9</ele>
      </trkpt>
      <trkpt lat="44.89668" lon="4.87905">
        <ele>110.7</ele>
      </trkpt>
      <trkpt lat="44.8963" lon="4.87888">
        <ele>109.9</ele>
      </trkpt>
      <trkpt lat="44.89612" lon="4.87876">
        <ele>109.6</ele>
      </trkpt>
      <trkpt lat="44.89572" lon="4.87851">
        <ele>108.8</ele>
      </trkpt>
      <trkpt lat="44.8954" lon="4.87824">
        <ele>107.9</ele>
      </trkpt>
      <trkpt lat="44.89502" lon="4.87781">
        <ele>108.2</ele>
      </trkpt>
      <trkpt lat="44.89469" lon="4.87736">
        <ele>108.7</ele>
      </trkpt>
      <trkpt lat="44.89457" lon="4.87721">
        <ele>108.7</ele>
      </trkpt>
      <trkpt lat="44.89411" lon="4.87686">
        <ele>110.4</ele>
      </trkpt>
      <trkpt lat="44.89342" lon="4.87648">
        <ele>110.5</ele>
      </trkpt>
      <trkpt lat="44.89321" lon="4.87629">
        <ele>111.2</ele>
      </trkpt>
      <trkpt lat="44.89313" lon="4.87629">
        <ele>111.2</ele>
      </trkpt>
      <trkpt lat="44.89306" lon="4.87621">
        <ele>111.2</ele>
      </trkpt>
      <trkpt lat="44.89291" lon="4.87617">
        <ele>111.2</ele>
      </trkpt>
      <trkpt lat="44.89124" lon="4.87517">
        <ele>111.2</ele>
      </trkpt>
      <trkpt lat="44.88997" lon="4.87438">
        <ele>111.1</ele>
      </trkpt>
      <trkpt lat="44.88973" lon="4.87423">
        <ele>111.2</ele>
      </trkpt>
      <trkpt lat="44.88775" lon="4.873">
        <ele>111.6</ele>
      </trkpt>
      <trkpt lat="44.88764" lon="4.87298">
        <ele>111.7</ele>
      </trkpt>
      <trkpt lat="44.88659" lon="4.87374">
        <ele>111.5</ele>
      </trkpt>
      <trkpt lat="44.88591" lon="4.87418">
        <ele>111.8</ele>
      </trkpt>
      <trkpt lat="44.88531" lon="4.8744">
        <ele>110.9</ele>
      </trkpt>
      <trkpt lat="44.8849" lon="4.87445">
        <ele>110.4</ele>
      </trkpt>
      <trkpt lat="44.88411" lon="4.87435">
        <ele>110.1</ele>
      </trkpt>
      <trkpt lat="44.8835" lon="4.87418">
        <ele>109.6</ele>
      </trkpt>
      <trkpt lat="44.88306" lon="4.87406">
        <ele>109.2</ele>
      </trkpt>
      <trkpt lat="44.8827" lon="4.87402">
        <ele>109.5</ele>
      </trkpt>
      <trkpt lat="44.88241" lon="4.87397">
        <ele>109.7</ele>
      </trkpt>
      <trkpt lat="44.88201" lon="4.8738">
        <ele>109.5</ele>
      </trkpt>
      <trkpt lat="44.88132" lon="4.87345">
        <ele>109.1</ele>
      </trkpt>
      <trkpt lat="44.88083" lon="4.87332">
        <ele>108</ele>
      </trkpt>
      <trkpt lat="44.88" lon="4.87311">
        <ele>107.2</ele>
      </trkpt>
      <trkpt lat="44.87967" lon="4.87311">
        <ele>107.2</ele>
      </trkpt>
      <trkpt lat="44.87951" lon="4.87315">
        <ele>107.3</ele>
      </trkpt>
      <trkpt lat="44.87918" lon="4.87319">
        <ele>107.2</ele>
      </trkpt>
      <trkpt lat="44.87892" lon="4.87315">
        <ele>107.7</ele>
      </trkpt>
      <trkpt lat="44.87831" lon="4.87296">
        <ele>108.1</ele>
      </trkpt>
      <trkpt lat="44.87785" lon="4.87268">
        <ele>108.1</ele>
      </trkpt>
      <trkpt lat="44.87781" lon="4.87298">
        <ele>107.9</ele>
      </trkpt>
      <trkpt lat="44.87775" lon="4.87354">
        <ele>107.7</ele>
      </trkpt>
      <trkpt lat="44.87773" lon="4.87369">
        <ele>107.8</ele>
      </trkpt>
      <trkpt lat="44.87771" lon="4.87384">
        <ele>107.9</ele>
      </trkpt>
      <trkpt lat="44.87769" lon="4.87398">
        <ele>108</ele>
      </trkpt>
      <trkpt lat="44.87767" lon="4.87412">
        <ele>108</ele>
      </trkpt>
      <trkpt lat="44.87771" lon="4.87413">
        <ele>108</ele>
      </trkpt>
      <trkpt lat="44.87774" lon="4.87414">
        <ele>108.1</ele>
      </trkpt>
      <trkpt lat="44.87769" lon="4.8742">
        <ele>109</ele>
      </trkpt>
      <trkpt lat="44.87736" lon="4.87417">
        <ele>109.1</ele>
      </trkpt>
      <trkpt lat="44.87728" lon="4.87422">
        <ele>109.5</ele>
      </trkpt>
      <trkpt lat="44.87722" lon="4.87448">
        <ele>110.2</ele>
      </trkpt>
      <trkpt lat="44.8771" lon="4.87503">
        <ele>112</ele>
      </trkpt>
      <trkpt lat="44.87587" lon="4.87444">
        <ele>110.5</ele>
      </trkpt>
      <trkpt lat="44.87576" lon="4.8744">
        <ele>110.7</ele>
      </trkpt>
      <trkpt lat="44.87575" lon="4.87444">
        <ele>110.8</ele>
      </trkpt>
      <trkpt lat="44.87573" lon="4.87457">
        <ele>111</ele>
      </trkpt>
      <trkpt lat="44.87575" lon="4.87444">
        <ele>110.8</ele>
      </trkpt>
      <trkpt lat="44.87576" lon="4.8744">
        <ele>110.7</ele>
      </trkpt>
      <trkpt lat="44.87587" lon="4.87444">
        <ele>110.5</ele>
      </trkpt>
      <trkpt lat="44.8771" lon="4.87503">
        <ele>112</ele>
      </trkpt>
      <trkpt lat="44.87722" lon="4.87448">
        <ele>110.2</ele>
      </trkpt>
      <trkpt lat="44.87728" lon="4.87422">
        <ele>109.5</ele>
      </trkpt>
      <trkpt lat="44.87736" lon="4.87417">
        <ele>109.1</ele>
      </trkpt>
      <trkpt lat="44.87769" lon="4.8742">
        <ele>109</ele>
      </trkpt>
      <trkpt lat="44.87774" lon="4.87414">
        <ele>108.1</ele>
      </trkpt>
      <trkpt lat="44.87771" lon="4.87413">
        <ele>108</ele>
      </trkpt>
      <trkpt lat="44.87767" lon="4.87412">
        <ele>108</ele>
      </trkpt>
      <trkpt lat="44.87769" lon="4.87398">
        <ele>108</ele>
      </trkpt>
      <trkpt lat="44.87771" lon="4.87384">
        <ele>107.9</ele>
      </trkpt>
      <trkpt lat="44.87773" lon="4.87369">
        <ele>107.8</ele>
      </trkpt>
      <trkpt lat="44.87775" lon="4.87354">
        <ele>107.7</ele>
      </trkpt>
      <trkpt lat="44.87781" lon="4.87298">
        <ele>107.9</ele>
      </trkpt>
      <trkpt lat="44.87785" lon="4.87268">
        <ele>108.1</ele>
      </trkpt>
      <trkpt lat="44.8776" lon="4.8728">
        <ele>107.9</ele>
      </trkpt>
      <trkpt lat="44.87748" lon="4.8728">
        <ele>108</ele>
      </trkpt>
      <trkpt lat="44.87725" lon="4.87266">
        <ele>108.2</ele>
      </trkpt>
      <trkpt lat="44.8769" lon="4.8724">
        <ele>109.1</ele>
      </trkpt>
      <trkpt lat="44.87634" lon="4.87205">
        <ele>110.3</ele>
      </trkpt>
      <trkpt lat="44.87519" lon="4.87161">
        <ele>109.6</ele>
      </trkpt>
      <trkpt lat="44.87498" lon="4.87153">
        <ele>108.5</ele>
      </trkpt>
      <trkpt lat="44.87454" lon="4.87118">
        <ele>107.7</ele>
      </trkpt>
      <trkpt lat="44.87445" lon="4.87112">
        <ele>107.5</ele>
      </trkpt>
      <trkpt lat="44.87464" lon="4.87057">
        <ele>108</ele>
      </trkpt>
      <trkpt lat="44.87395" lon="4.86996">
        <ele>108.5</ele>
      </trkpt>
      <trkpt lat="44.87346" lon="4.86953">
        <ele>108.8</ele>
      </trkpt>
      <trkpt lat="44.87304" lon="4.86895">
        <ele>109</ele>
      </trkpt>
      <trkpt lat="44.87279" lon="4.8687">
        <ele>109</ele>
      </trkpt>
      <trkpt lat="44.87262" lon="4.86854">
        <ele>109</ele>
      </trkpt>
      <trkpt lat="44.8723" lon="4.86826">
        <ele>109</ele>
      </trkpt>
      <trkpt lat="44.87227" lon="4.86824">
        <ele>109</ele>
      </trkpt>
      <trkpt lat="44.87204" lon="4.86804">
        <ele>109</ele>
      </trkpt>
      <trkpt lat="44.87165" lon="4.8677">
        <ele>109.8</ele>
      </trkpt>
      <trkpt lat="44.8707" lon="4.867">
        <ele>109.6</ele>
      </trkpt>
      <trkpt lat="44.87077" lon="4.8669">
        <ele>109.7</ele>
      </trkpt>
      <trkpt lat="44.87121" lon="4.86639">
        <ele>109.5</ele>
      </trkpt>
      <trkpt lat="44.87113" lon="4.86612">
        <ele>109.5</ele>
      </trkpt>
      <trkpt lat="44.87111" lon="4.86591">
        <ele>109.4</ele>
      </trkpt>
      <trkpt lat="44.87117" lon="4.86564">
        <ele>108.1</ele>
      </trkpt>
      <trkpt lat="44.8712" lon="4.86555">
        <ele>108</ele>
      </trkpt>
      <trkpt lat="44.87131" lon="4.86518">
        <ele>107.4</ele>
      </trkpt>
      <trkpt lat="44.87154" lon="4.86444">
        <ele>106.6</ele>
      </trkpt>
      <trkpt lat="44.87162" lon="4.86417">
        <ele>107.6</ele>
      </trkpt>
      <trkpt lat="44.87168" lon="4.86399">
        <ele>107.1</ele>
      </trkpt>
      <trkpt lat="44.87172" lon="4.86378">
        <ele>106.4</ele>
      </trkpt>
      <trkpt lat="44.87171" lon="4.86352">
        <ele>105.7</ele>
      </trkpt>
      <trkpt lat="44.87187" lon="4.8633">
        <ele>104.2</ele>
      </trkpt>
      <trkpt lat="44.87226" lon="4.86336">
        <ele>105.7</ele>
      </trkpt>
      <trkpt lat="44.87319" lon="4.86338">
        <ele>106</ele>
      </trkpt>
      <trkpt lat="44.87351" lon="4.86336">
        <ele>106.3</ele>
      </trkpt>
      <trkpt lat="44.87346" lon="4.86314">
        <ele>106.2</ele>
      </trkpt>
      <trkpt lat="44.87333" lon="4.86304">
        <ele>105.3</ele>
      </trkpt>
      <trkpt lat="44.87302" lon="4.86289">
        <ele>104.9</ele>
      </trkpt>
      <trkpt lat="44.87253" lon="4.86261">
        <ele>103</ele>
      </trkpt>
      <trkpt lat="44.8716" lon="4.86202">
        <ele>104</ele>
      </trkpt>
      <trkpt lat="44.87079" lon="4.86136">
        <ele>101.8</ele>
      </trkpt>
      <trkpt lat="44.87018" lon="4.86074">
        <ele>100.5</ele>
      </trkpt>
      <trkpt lat="44.86937" lon="4.85987">
        <ele>99.9</ele>
      </trkpt>
      <trkpt lat="44.8686" lon="4.85886">
        <ele>101.1</ele>
      </trkpt>
      <trkpt lat="44.86764" lon="4.85767">
        <ele>101.8</ele>
      </trkpt>
      <trkpt lat="44.8668" lon="4.85654">
        <ele>99.4</ele>
      </trkpt>
      <trkpt lat="44.86366" lon="4.85255">
        <ele>100.4</ele>
      </trkpt>
      <trkpt lat="44.86142" lon="4.84989">
        <ele>100.3</ele>
      </trkpt>
      <trkpt lat="44.8603" lon="4.84879">
        <ele>96.8</ele>
      </trkpt>
      <trkpt lat="44.85946" lon="4.84807">
        <ele>96.8</ele>
      </trkpt>
      <trkpt lat="44.85875" lon="4.84758">
        <ele>96.5</ele>
      </trkpt>
      <trkpt lat="44.8567" lon="4.84649">
        <ele>97.4</ele>
      </trkpt>
      <trkpt lat="44.85518" lon="4.84597">
        <ele>95.9</ele>
      </trkpt>
      <trkpt lat="44.85413" lon="4.84572">
        <ele>95</ele>
      </trkpt>
      <trkpt lat="44.85362" lon="4.84567">
        <ele>95</ele>
      </trkpt>
      <trkpt lat="44.85345" lon="4.84576">
        <ele>95</ele>
      </trkpt>
      <trkpt lat="44.85338" lon="4.84586">
        <ele>95.7</ele>
      </trkpt>
      <trkpt lat="44.8532" lon="4.84627">
        <ele>100.3</ele>
      </trkpt>
      <trkpt lat="44.85312" lon="4.84647">
        <ele>101.2</ele>
      </trkpt>
      <trkpt lat="44.85303" lon="4.84659">
        <ele>101.4</ele>
      </trkpt>
      <trkpt lat="44.85305" lon="4.84616">
        <ele>100.1</ele>
      </trkpt>
      <trkpt lat="44.85305" lon="4.84581">
        <ele>96.9</ele>
      </trkpt>
      <trkpt lat="44.85308" lon="4.8455">
        <ele>96.7</ele>
      </trkpt>
      <trkpt lat="44.85315" lon="4.84529">
        <ele>96.3</ele>
      </trkpt>
      <trkpt lat="44.85324" lon="4.84512">
        <ele>95.8</ele>
      </trkpt>
      <trkpt lat="44.85323" lon="4.8449">
        <ele>95</ele>
      </trkpt>
      <trkpt lat="44.85315" lon="4.84232">
        <ele>96</ele>
      </trkpt>
      <trkpt lat="44.85314" lon="4.84207">
        <ele>96.3</ele>
      </trkpt>
      <trkpt lat="44.85326" lon="4.84194">
        <ele>96.1</ele>
      </trkpt>
      <trkpt lat="44.85331" lon="4.84175">
        <ele>95.6</ele>
      </trkpt>
      <trkpt lat="44.85341" lon="4.84132">
        <ele>98.4</ele>
      </trkpt>
      <trkpt lat="44.85358" lon="4.84091">
        <ele>100.9</ele>
      </trkpt>
      <trkpt lat="44.85346" lon="4.84077">
        <ele>102.9</ele>
      </trkpt>
      <trkpt lat="44.85258" lon="4.83992">
        <ele>102.1</ele>
      </trkpt>
      <trkpt lat="44.85195" lon="4.83925">
        <ele>102</ele>
      </trkpt>
      <trkpt lat="44.85141" lon="4.83862">
        <ele>101.3</ele>
      </trkpt>
      <trkpt lat="44.85047" lon="4.83731">
        <ele>100.2</ele>
      </trkpt>
      <trkpt lat="44.84993" lon="4.83646">
        <ele>102.2</ele>
      </trkpt>
      <trkpt lat="44.84857" lon="4.83426">
        <ele>99.1</ele>
      </trkpt>
      <trkpt lat="44.84823" lon="4.83376">
        <ele>98.9</ele>
      </trkpt>
      <trkpt lat="44.84373" lon="4.82645">
        <ele>98</ele>
      </trkpt>
      <trkpt lat="44.84231" lon="4.8242">
        <ele>97.5</ele>
      </trkpt>
      <trkpt lat="44.84154" lon="4.82284">
        <ele>96.9</ele>
      </trkpt>
      <trkpt lat="44.84116" lon="4.82225">
        <ele>98.7</ele>
      </trkpt>
      <trkpt lat="44.84039" lon="4.82129">
        <ele>99.4</ele>
      </trkpt>
      <trkpt lat="44.83992" lon="4.82076">
        <ele>100.3</ele>
      </trkpt>
      <trkpt lat="44.83925" lon="4.82015">
        <ele>100.9</ele>
      </trkpt>
      <trkpt lat="44.83864" lon="4.81966">
        <ele>98</ele>
      </trkpt>
      <trkpt lat="44.83731" lon="4.81886">
        <ele>99.3</ele>
      </trkpt>
      <trkpt lat="44.8343" lon="4.81769">
        <ele>96.8</ele>
      </trkpt>
      <trkpt lat="44.83215" lon="4.81675">
        <ele>97.7</ele>
      </trkpt>
      <trkpt lat="44.82781" lon="4.81476">
        <ele>98.3</ele>
      </trkpt>
      <trkpt lat="44.82608" lon="4.81401">
        <ele>98.7</ele>
      </trkpt>
      <trkpt lat="44.82462" lon="4.81333">
        <ele>95.9</ele>
      </trkpt>
      <trkpt lat="44.82359" lon="4.81289">
        <ele>96.9</ele>
      </trkpt>
      <trkpt lat="44.82344" lon="4.8133">
        <ele>99.6</ele>
      </trkpt>
      <trkpt lat="44.82331" lon="4.81374">
        <ele>101</ele>
      </trkpt>
      <trkpt lat="44.82327" lon="4.81373">
        <ele>101</ele>
      </trkpt>
      <trkpt lat="44.82307" lon="4.81343">
        <ele>101</ele>
      </trkpt>
      <trkpt lat="44.82316" lon="4.81292">
        <ele>98.3</ele>
      </trkpt>
      <trkpt lat="44.82321" lon="4.81262">
        <ele>96</ele>
      </trkpt>
      <trkpt lat="44.82378" lon="4.80972">
        <ele>96.3</ele>
      </trkpt>
      <trkpt lat="44.82381" lon="4.80951">
        <ele>96.1</ele>
      </trkpt>
      <trkpt lat="44.82393" lon="4.80888">
        <ele>95.7</ele>
      </trkpt>
      <trkpt lat="44.82403" lon="4.80841">
        <ele>95.8</ele>
      </trkpt>
      <trkpt lat="44.82425" lon="4.80729">
        <ele>96.1</ele>
      </trkpt>
      <trkpt lat="44.8243" lon="4.80703">
        <ele>96</ele>
      </trkpt>
      <trkpt lat="44.8243" lon="4.80697">
        <ele>95.9</ele>
      </trkpt>
      <trkpt lat="44.82438" lon="4.80661">
        <ele>95.7</ele>
      </trkpt>
      <trkpt lat="44.82445" lon="4.80618">
        <ele>96.1</ele>
      </trkpt>
      <trkpt lat="44.82452" lon="4.80596">
        <ele>96.2</ele>
      </trkpt>
      <trkpt lat="44.82462" lon="4.80578">
        <ele>96.9</ele>
      </trkpt>
      <trkpt lat="44.82471" lon="4.80566">
        <ele>97.1</ele>
      </trkpt>
      <trkpt lat="44.8249" lon="4.80545">
        <ele>97.5</ele>
      </trkpt>
      <trkpt lat="44.82498" lon="4.80536">
        <ele>97.6</ele>
      </trkpt>
      <trkpt lat="44.82503" lon="4.80529">
        <ele>98</ele>
      </trkpt>
      <trkpt lat="44.82505" lon="4.80525">
        <ele>98.1</ele>
      </trkpt>
      <trkpt lat="44.82509" lon="4.80518">
        <ele>98.2</ele>
      </trkpt>
      <trkpt lat="44.82511" lon="4.80513">
        <ele>98.3</ele>
      </trkpt>
      <trkpt lat="44.82534" lon="4.80434">
        <ele>97.6</ele>
      </trkpt>
      <trkpt lat="44.82545" lon="4.80397">
        <ele>97.7</ele>
      </trkpt>
      <trkpt lat="44.82565" lon="4.80332">
        <ele>98.3</ele>
      </trkpt>
      <trkpt lat="44.82571" lon="4.80314">
        <ele>98.2</ele>
      </trkpt>
      <trkpt lat="44.82577" lon="4.80306">
        <ele>98.2</ele>
      </trkpt>
      <trkpt lat="44.82581" lon="4.80302">
        <ele>98.1</ele>
      </trkpt>
      <trkpt lat="44.82598" lon="4.80282">
        <ele>101.8</ele>
      </trkpt>
      <trkpt lat="44.82615" lon="4.80278">
        <ele>102.8</ele>
      </trkpt>
      <trkpt lat="44.82621" lon="4.80274">
        <ele>103.3</ele>
      </trkpt>
      <trkpt lat="44.82625" lon="4.80271">
        <ele>103.7</ele>
      </trkpt>
      <trkpt lat="44.82617" lon="4.80255">
        <ele>103</ele>
      </trkpt>
      <trkpt lat="44.82621" lon="4.80245">
        <ele>104.7</ele>
      </trkpt>
      <trkpt lat="44.82622" lon="4.8024">
        <ele>104.8</ele>
      </trkpt>
      <trkpt lat="44.82624" lon="4.80223">
        <ele>105.1</ele>
      </trkpt>
      <trkpt lat="44.82632" lon="4.80155">
        <ele>109</ele>
      </trkpt>
      <trkpt lat="44.82632" lon="4.80096">
        <ele>111.9</ele>
      </trkpt>
      <trkpt lat="44.8263" lon="4.80041">
        <ele>115.7</ele>
      </trkpt>
      <trkpt lat="44.8263" lon="4.80021">
        <ele>116.4</ele>
      </trkpt>
      <trkpt lat="44.82625" lon="4.79927">
        <ele>117.5</ele>
      </trkpt>
      <trkpt lat="44.82629" lon="4.79858">
        <ele>118.8</ele>
      </trkpt>
      <trkpt lat="44.8263" lon="4.79847">
        <ele>119.2</ele>
      </trkpt>
      <trkpt lat="44.82634" lon="4.79788">
        <ele>117.7</ele>
      </trkpt>
      <trkpt lat="44.8264" lon="4.79755">
        <ele>118.5</ele>
      </trkpt>
      <trkpt lat="44.82653" lon="4.79707">
        <ele>113.8</ele>
      </trkpt>
      <trkpt lat="44.82669" lon="4.7967">
        <ele>117.3</ele>
      </trkpt>
      <trkpt lat="44.82672" lon="4.79662">
        <ele>117.2</ele>
      </trkpt>
      <trkpt lat="44.8267" lon="4.79648">
        <ele>119</ele>
      </trkpt>
      <trkpt lat="44.82673" lon="4.79642">
        <ele>119.6</ele>
      </trkpt>
      <trkpt lat="44.82684" lon="4.79617">
        <ele>120</ele>
      </trkpt>
      <trkpt lat="44.82695" lon="4.79583">
        <ele>115.8</ele>
      </trkpt>
      <trkpt lat="44.82704" lon="4.7956">
        <ele>117.6</ele>
      </trkpt>
      <trkpt lat="44.8271" lon="4.79536">
        <ele>117.5</ele>
      </trkpt>
      <trkpt lat="44.82711" lon="4.79528">
        <ele>117.3</ele>
      </trkpt>
      <trkpt lat="44.82713" lon="4.79515">
        <ele>117.2</ele>
      </trkpt>
      <trkpt lat="44.8272" lon="4.79498">
        <ele>113.8</ele>
      </trkpt>
      <trkpt lat="44.82725" lon="4.79471">
        <ele>112.7</ele>
      </trkpt>
      <trkpt lat="44.82726" lon="4.79464">
        <ele>112.2</ele>
      </trkpt>
      <trkpt lat="44.8274" lon="4.79441">
        <ele>112.2</ele>
      </trkpt>
      <trkpt lat="44.82748" lon="4.79424">
        <ele>113.1</ele>
      </trkpt>
      <trkpt lat="44.82756" lon="4.794">
        <ele>120.6</ele>
      </trkpt>
      <trkpt lat="44.82766" lon="4.79368">
        <ele>122.7</ele>
      </trkpt>
      <trkpt lat="44.82774" lon="4.79295">
        <ele>117.9</ele>
      </trkpt>
      <trkpt lat="44.82786" lon="4.7925">
        <ele>118.2</ele>
      </trkpt>
      <trkpt lat="44.82789" lon="4.79222">
        <ele>117.5</ele>
      </trkpt>
      <trkpt lat="44.82786" lon="4.79133">
        <ele>114</ele>
      </trkpt>
      <trkpt lat="44.82787" lon="4.79044">
        <ele>110.4</ele>
      </trkpt>
      <trkpt lat="44.82792" lon="4.78977">
        <ele>110.7</ele>
      </trkpt>
      <trkpt lat="44.82792" lon="4.78952">
        <ele>110.8</ele>
      </trkpt>
      <trkpt lat="44.82788" lon="4.78927">
        <ele>110.3</ele>
      </trkpt>
      <trkpt lat="44.82788" lon="4.78901">
        <ele>110.7</ele>
      </trkpt>
      <trkpt lat="44.82792" lon="4.78846">
        <ele>111.4</ele>
      </trkpt>
      <trkpt lat="44.82791" lon="4.78833">
        <ele>111.4</ele>
      </trkpt>
      <trkpt lat="44.82787" lon="4.78823">
        <ele>111</ele>
      </trkpt>
      <trkpt lat="44.82794" lon="4.78798">
        <ele>111.7</ele>
      </trkpt>
      <trkpt lat="44.82806" lon="4.78753">
        <ele>113.4</ele>
      </trkpt>
      <trkpt lat="44.82811" lon="4.78729">
        <ele>111.2</ele>
      </trkpt>
      <trkpt lat="44.82813" lon="4.78692">
        <ele>109.3</ele>
      </trkpt>
      <trkpt lat="44.82819" lon="4.78649">
        <ele>105.9</ele>
      </trkpt>
      <trkpt lat="44.82826" lon="4.78635">
        <ele>104.8</ele>
      </trkpt>
      <trkpt lat="44.82836" lon="4.78623">
        <ele>112.5</ele>
      </trkpt>
      <trkpt lat="44.82862" lon="4.78604">
        <ele>113.1</ele>
      </trkpt>
      <trkpt lat="44.82869" lon="4.78594">
        <ele>113.6</ele>
      </trkpt>
      <trkpt lat="44.8291" lon="4.78495">
        <ele>111</ele>
      </trkpt>
      <trkpt lat="44.82914" lon="4.78481">
        <ele>109.5</ele>
      </trkpt>
      <trkpt lat="44.82915" lon="4.78464">
        <ele>108.5</ele>
      </trkpt>
      <trkpt lat="44.82914" lon="4.78357">
        <ele>107.8</ele>
      </trkpt>
      <trkpt lat="44.82917" lon="4.78279">
        <ele>118.5</ele>
      </trkpt>
      <trkpt lat="44.82916" lon="4.78251">
        <ele>107.9</ele>
      </trkpt>
      <trkpt lat="44.82912" lon="4.78221">
        <ele>108.2</ele>
      </trkpt>
      <trkpt lat="44.82904" lon="4.78179">
        <ele>110.1</ele>
      </trkpt>
      <trkpt lat="44.82878" lon="4.78092">
        <ele>107.8</ele>
      </trkpt>
      <trkpt lat="44.82846" lon="4.78002">
        <ele>105.6</ele>
      </trkpt>
      <trkpt lat="44.82808" lon="4.77897">
        <ele>105.3</ele>
      </trkpt>
      <trkpt lat="44.82803" lon="4.77884">
        <ele>105.5</ele>
      </trkpt>
      <trkpt lat="44.82743" lon="4.77737">
        <ele>105.2</ele>
      </trkpt>
      <trkpt lat="44.82739" lon="4.77728">
        <ele>104.5</ele>
      </trkpt>
      <trkpt lat="44.82702" lon="4.77644">
        <ele>102.9</ele>
      </trkpt>
      <trkpt lat="44.82649" lon="4.77528">
        <ele>101.5</ele>
      </trkpt>
      <trkpt lat="44.82613" lon="4.7745">
        <ele>102.3</ele>
      </trkpt>
      <trkpt lat="44.82576" lon="4.7737">
        <ele>103.1</ele>
      </trkpt>
      <trkpt lat="44.82555" lon="4.77325">
        <ele>103.6</ele>
      </trkpt>
      <trkpt lat="44.82535" lon="4.77281">
        <ele>103.5</ele>
      </trkpt>
      <trkpt lat="44.8252" lon="4.77247">
        <ele>103.8</ele>
      </trkpt>
      <trkpt lat="44.82512" lon="4.77234">
        <ele>103.8</ele>
      </trkpt>
      <trkpt lat="44.82452" lon="4.77152">
        <ele>103.4</ele>
      </trkpt>
      <trkpt lat="44.82434" lon="4.77123">
        <ele>103.6</ele>
      </trkpt>
      <trkpt lat="44.82391" lon="4.77044">
        <ele>103.4</ele>
      </trkpt>
      <trkpt lat="44.82386" lon="4.77033">
        <ele>103.4</ele>
      </trkpt>
      <trkpt lat="44.82361" lon="4.76986">
        <ele>103.9</ele>
      </trkpt>
      <trkpt lat="44.82302" lon="4.76876">
        <ele>104.7</ele>
      </trkpt>
      <trkpt lat="44.82281" lon="4.76831">
        <ele>106.5</ele>
      </trkpt>
      <trkpt lat="44.82275" lon="4.76814">
        <ele>106.5</ele>
      </trkpt>
      <trkpt lat="44.82256" lon="4.76763">
        <ele>106.9</ele>
      </trkpt>
      <trkpt lat="44.82249" lon="4.76745">
        <ele>106.6</ele>
      </trkpt>
      <trkpt lat="44.82231" lon="4.76681">
        <ele>106.3</ele>
      </trkpt>
      <trkpt lat="44.82229" lon="4.76667">
        <ele>106.5</ele>
      </trkpt>
      <trkpt lat="44.8223" lon="4.76655">
        <ele>106.9</ele>
      </trkpt>
      <trkpt lat="44.82234" lon="4.76644">
        <ele>106.9</ele>
      </trkpt>
      <trkpt lat="44.82236" lon="4.76632">
        <ele>106.7</ele>
      </trkpt>
      <trkpt lat="44.8224" lon="4.76602">
        <ele>107.2</ele>
      </trkpt>
      <trkpt lat="44.82236" lon="4.76602">
        <ele>107.1</ele>
      </trkpt>
      <trkpt lat="44.82231" lon="4.76603">
        <ele>106.9</ele>
      </trkpt>
      <trkpt lat="44.8222" lon="4.76606">
        <ele>106.3</ele>
      </trkpt>
      <trkpt lat="44.82207" lon="4.7661">
        <ele>105.7</ele>
      </trkpt>
      <trkpt lat="44.82089" lon="4.76645">
        <ele>107.7</ele>
      </trkpt>
      <trkpt lat="44.82077" lon="4.7665">
        <ele>119.8</ele>
      </trkpt>
      <trkpt lat="44.82072" lon="4.76653">
        <ele>120.3</ele>
      </trkpt>
      <trkpt lat="44.82066" lon="4.76651">
        <ele>122.4</ele>
      </trkpt>
      <trkpt lat="44.82057" lon="4.76632">
        <ele>125.8</ele>
      </trkpt>
      <trkpt lat="44.82048" lon="4.76603">
        <ele>126.3</ele>
      </trkpt>
      <trkpt lat="44.82041" lon="4.76583">
        <ele>124.3</ele>
      </trkpt>
      <trkpt lat="44.82037" lon="4.76561">
        <ele>125</ele>
      </trkpt>
      <trkpt lat="44.82032" lon="4.76512">
        <ele>125.4</ele>
      </trkpt>
      <trkpt lat="44.82032" lon="4.76436">
        <ele>123.5</ele>
      </trkpt>
      <trkpt lat="44.82029" lon="4.76371">
        <ele>121.1</ele>
      </trkpt>
      <trkpt lat="44.82016" lon="4.76311">
        <ele>120.5</ele>
      </trkpt>
      <trkpt lat="44.82017" lon="4.76278">
        <ele>118.4</ele>
      </trkpt>
      <trkpt lat="44.82014" lon="4.7626">
        <ele>119.7</ele>
      </trkpt>
      <trkpt lat="44.81995" lon="4.76187">
        <ele>128.6</ele>
      </trkpt>
      <trkpt lat="44.8199" lon="4.76112">
        <ele>123.1</ele>
      </trkpt>
      <trkpt lat="44.81989" lon="4.76064">
        <ele>119.8</ele>
      </trkpt>
      <trkpt lat="44.81987" lon="4.76025">
        <ele>121.2</ele>
      </trkpt>
      <trkpt lat="44.81977" lon="4.75992">
        <ele>122.3</ele>
      </trkpt>
      <trkpt lat="44.81965" lon="4.75934">
        <ele>126.2</ele>
      </trkpt>
      <trkpt lat="44.81956" lon="4.75879">
        <ele>125.9</ele>
      </trkpt>
      <trkpt lat="44.81948" lon="4.75757">
        <ele>124.2</ele>
      </trkpt>
      <trkpt lat="44.81944" lon="4.75732">
        <ele>124.1</ele>
      </trkpt>
      <trkpt lat="44.81941" lon="4.75687">
        <ele>124.2</ele>
      </trkpt>
      <trkpt lat="44.81937" lon="4.75657">
        <ele>124.5</ele>
      </trkpt>
      <trkpt lat="44.81934" lon="4.75611">
        <ele>121.7</ele>
      </trkpt>
      <trkpt lat="44.81929" lon="4.75585">
        <ele>123.7</ele>
      </trkpt>
      <trkpt lat="44.81909" lon="4.75511">
        <ele>126.1</ele>
      </trkpt>
      <trkpt lat="44.81907" lon="4.75481">
        <ele>123</ele>
      </trkpt>
      <trkpt lat="44.81907" lon="4.75452">
        <ele>122.6</ele>
      </trkpt>
      <trkpt lat="44.81899" lon="4.75429">
        <ele>120</ele>
      </trkpt>
      <trkpt lat="44.81862" lon="4.75365">
        <ele>120.8</ele>
      </trkpt>
      <trkpt lat="44.81835" lon="4.75295">
        <ele>115.6</ele>
      </trkpt>
      <trkpt lat="44.81798" lon="4.75223">
        <ele>127.1</ele>
      </trkpt>
      <trkpt lat="44.81751" lon="4.75112">
        <ele>117.8</ele>
      </trkpt>
      <trkpt lat="44.81744" lon="4.75088">
        <ele>124.6</ele>
      </trkpt>
      <trkpt lat="44.81739" lon="4.75062">
        <ele>124.8</ele>
      </trkpt>
      <trkpt lat="44.81736" lon="4.75025">
        <ele>124.2</ele>
      </trkpt>
      <trkpt lat="44.81739" lon="4.74951">
        <ele>119.2</ele>
      </trkpt>
      <trkpt lat="44.81749" lon="4.74872">
        <ele>116.1</ele>
      </trkpt>
      <trkpt lat="44.8177" lon="4.74732">
        <ele>110.3</ele>
      </trkpt>
      <trkpt lat="44.8177" lon="4.74729">
        <ele>110.3</ele>
      </trkpt>
      <trkpt lat="44.81773" lon="4.74714">
        <ele>110.1</ele>
      </trkpt>
      <trkpt lat="44.81774" lon="4.74707">
        <ele>110.1</ele>
      </trkpt>
      <trkpt lat="44.81776" lon="4.74694">
        <ele>110.1</ele>
      </trkpt>
      <trkpt lat="44.81776" lon="4.74585">
        <ele>110.3</ele>
      </trkpt>
      <trkpt lat="44.81782" lon="4.74522">
        <ele>111.1</ele>
      </trkpt>
      <trkpt lat="44.81795" lon="4.74448">
        <ele>112</ele>
      </trkpt>
      <trkpt lat="44.81828" lon="4.74356">
        <ele>112.5</ele>
      </trkpt>
      <trkpt lat="44.81838" lon="4.74322">
        <ele>111.6</ele>
      </trkpt>
      <trkpt lat="44.81842" lon="4.74287">
        <ele>111.3</ele>
      </trkpt>
      <trkpt lat="44.81851" lon="4.74184">
        <ele>112.6</ele>
      </trkpt>
      <trkpt lat="44.81855" lon="4.74138">
        <ele>114.1</ele>
      </trkpt>
      <trkpt lat="44.81857" lon="4.74105">
        <ele>114.8</ele>
      </trkpt>
      <trkpt lat="44.81861" lon="4.74049">
        <ele>115.9</ele>
      </trkpt>
      <trkpt lat="44.81872" lon="4.73968">
        <ele>116.7</ele>
      </trkpt>
      <trkpt lat="44.81877" lon="4.73946">
        <ele>116.8</ele>
      </trkpt>
      <trkpt lat="44.81886" lon="4.73904">
        <ele>117.2</ele>
      </trkpt>
      <trkpt lat="44.81893" lon="4.73824">
        <ele>116.9</ele>
      </trkpt>
      <trkpt lat="44.81894" lon="4.73778">
        <ele>116.9</ele>
      </trkpt>
      <trkpt lat="44.819" lon="4.73741">
        <ele>116.8</ele>
      </trkpt>
      <trkpt lat="44.81901" lon="4.73726">
        <ele>116.9</ele>
      </trkpt>
      <trkpt lat="44.81902" lon="4.73696">
        <ele>117</ele>
      </trkpt>
      <trkpt lat="44.81906" lon="4.73669">
        <ele>116.6</ele>
      </trkpt>
      <trkpt lat="44.81921" lon="4.73569">
        <ele>115.8</ele>
      </trkpt>
      <trkpt lat="44.81921" lon="4.73563">
        <ele>115.8</ele>
      </trkpt>
      <trkpt lat="44.81915" lon="4.73563">
        <ele>117.4</ele>
      </trkpt>
      <trkpt lat="44.81793" lon="4.73556">
        <ele>128.8</ele>
      </trkpt>
      <trkpt lat="44.81785" lon="4.73554">
        <ele>129.6</ele>
      </trkpt>
      <trkpt lat="44.81787" lon="4.73543">
        <ele>129.4</ele>
      </trkpt>
      <trkpt lat="44.81794" lon="4.73518">
        <ele>128.9</ele>
      </trkpt>
      <trkpt lat="44.81801" lon="4.73477">
        <ele>128.7</ele>
      </trkpt>
      <trkpt lat="44.81802" lon="4.73454">
        <ele>128.8</ele>
      </trkpt>
      <trkpt lat="44.81797" lon="4.73368">
        <ele>131.1</ele>
      </trkpt>
      <trkpt lat="44.81795" lon="4.7332">
        <ele>133.6</ele>
      </trkpt>
      <trkpt lat="44.81792" lon="4.73265">
        <ele>134.9</ele>
      </trkpt>
      <trkpt lat="44.8179" lon="4.73218">
        <ele>138.9</ele>
      </trkpt>
      <trkpt lat="44.81784" lon="4.73137">
        <ele>143.6</ele>
      </trkpt>
      <trkpt lat="44.81775" lon="4.72976">
        <ele>139.5</ele>
      </trkpt>
      <trkpt lat="44.81769" lon="4.729">
        <ele>136.3</ele>
      </trkpt>
      <trkpt lat="44.81765" lon="4.72873">
        <ele>133.5</ele>
      </trkpt>
      <trkpt lat="44.81758" lon="4.72844">
        <ele>135.3</ele>
      </trkpt>
      <trkpt lat="44.81736" lon="4.7278">
        <ele>142</ele>
      </trkpt>
      <trkpt lat="44.81726" lon="4.72759">
        <ele>140.3</ele>
      </trkpt>
      <trkpt lat="44.81714" lon="4.72739">
        <ele>132.1</ele>
      </trkpt>
      <trkpt lat="44.81646" lon="4.7268">
        <ele>146</ele>
      </trkpt>
      <trkpt lat="44.81625" lon="4.72645">
        <ele>143.3</ele>
      </trkpt>
      <trkpt lat="44.81617" lon="4.72621">
        <ele>144.3</ele>
      </trkpt>
      <trkpt lat="44.8161" lon="4.72593">
        <ele>147</ele>
      </trkpt>
      <trkpt lat="44.81605" lon="4.72508">
        <ele>142.7</ele>
      </trkpt>
      <trkpt lat="44.81574" lon="4.72284">
        <ele>147.3</ele>
      </trkpt>
      <trkpt lat="44.81564" lon="4.72191">
        <ele>147.4</ele>
      </trkpt>
      <trkpt lat="44.81565" lon="4.72173">
        <ele>145.8</ele>
      </trkpt>
      <trkpt lat="44.81588" lon="4.72035">
        <ele>135.3</ele>
      </trkpt>
      <trkpt lat="44.816" lon="4.71955">
        <ele>136.8</ele>
      </trkpt>
      <trkpt lat="44.81623" lon="4.71835">
        <ele>141.5</ele>
      </trkpt>
      <trkpt lat="44.81623" lon="4.7182">
        <ele>143.6</ele>
      </trkpt>
      <trkpt lat="44.81621" lon="4.71774">
        <ele>143.7</ele>
      </trkpt>
      <trkpt lat="44.81615" lon="4.71748">
        <ele>140.6</ele>
      </trkpt>
      <trkpt lat="44.81609" lon="4.71733">
        <ele>140.4</ele>
      </trkpt>
      <trkpt lat="44.81584" lon="4.71694">
        <ele>137.7</ele>
      </trkpt>
      <trkpt lat="44.8154" lon="4.71639">
        <ele>140.5</ele>
      </trkpt>
      <trkpt lat="44.81529" lon="4.71611">
        <ele>141.2</ele>
      </trkpt>
      <trkpt lat="44.81521" lon="4.71582">
        <ele>141.2</ele>
      </trkpt>
      <trkpt lat="44.81519" lon="4.71523">
        <ele>138.7</ele>
      </trkpt>
      <trkpt lat="44.81516" lon="4.71499">
        <ele>137.9</ele>
      </trkpt>
      <trkpt lat="44.81511" lon="4.71478">
        <ele>135.9</ele>
      </trkpt>
      <trkpt lat="44.81499" lon="4.71448">
        <ele>146.9</ele>
      </trkpt>
      <trkpt lat="44.8149" lon="4.7143">
        <ele>143.9</ele>
      </trkpt>
      <trkpt lat="44.8146" lon="4.71383">
        <ele>143.6</ele>
      </trkpt>
      <trkpt lat="44.81408" lon="4.71328">
        <ele>151.7</ele>
      </trkpt>
      <trkpt lat="44.81402" lon="4.71318">
        <ele>154.2</ele>
      </trkpt>
      <trkpt lat="44.81395" lon="4.71304">
        <ele>155.7</ele>
      </trkpt>
      <trkpt lat="44.81389" lon="4.71282">
        <ele>155.1</ele>
      </trkpt>
      <trkpt lat="44.81385" lon="4.71263">
        <ele>153.9</ele>
      </trkpt>
      <trkpt lat="44.81375" lon="4.71189">
        <ele>149.5</ele>
      </trkpt>
      <trkpt lat="44.81374" lon="4.71168">
        <ele>149.3</ele>
      </trkpt>
      <trkpt lat="44.81375" lon="4.71151">
        <ele>147.7</ele>
      </trkpt>
      <trkpt lat="44.81392" lon="4.71062">
        <ele>145.5</ele>
      </trkpt>
      <trkpt lat="44.81392" lon="4.71016">
        <ele>144.4</ele>
      </trkpt>
      <trkpt lat="44.81379" lon="4.70973">
        <ele>146.9</ele>
      </trkpt>
      <trkpt lat="44.81325" lon="4.70834">
        <ele>155.5</ele>
      </trkpt>
      <trkpt lat="44.81318" lon="4.70795">
        <ele>159.6</ele>
      </trkpt>
      <trkpt lat="44.81317" lon="4.70758">
        <ele>154.5</ele>
      </trkpt>
      <trkpt lat="44.8132" lon="4.70742">
        <ele>150.8</ele>
      </trkpt>
      <trkpt lat="44.81331" lon="4.70702">
        <ele>153.8</ele>
      </trkpt>
      <trkpt lat="44.81346" lon="4.7067">
        <ele>142.3</ele>
      </trkpt>
      <trkpt lat="44.81366" lon="4.70636">
        <ele>148.1</ele>
      </trkpt>
      <trkpt lat="44.81373" lon="4.70627">
        <ele>148.5</ele>
      </trkpt>
      <trkpt lat="44.81392" lon="4.70612">
        <ele>148.2</ele>
      </trkpt>
      <trkpt lat="44.81412" lon="4.70601">
        <ele>147.9</ele>
      </trkpt>
      <trkpt lat="44.81438" lon="4.70598">
        <ele>142.4</ele>
      </trkpt>
      <trkpt lat="44.81449" lon="4.70599">
        <ele>141.5</ele>
      </trkpt>
      <trkpt lat="44.81483" lon="4.70613">
        <ele>140</ele>
      </trkpt>
      <trkpt lat="44.81525" lon="4.70635">
        <ele>137.5</ele>
      </trkpt>
      <trkpt lat="44.81545" lon="4.70638">
        <ele>137.5</ele>
      </trkpt>
      <trkpt lat="44.81557" lon="4.70636">
        <ele>137.6</ele>
      </trkpt>
      <trkpt lat="44.81569" lon="4.70633">
        <ele>137.8</ele>
      </trkpt>
      <trkpt lat="44.81572" lon="4.70621">
        <ele>139.1</ele>
      </trkpt>
      <trkpt lat="44.81574" lon="4.70613">
        <ele>140.1</ele>
      </trkpt>
      <trkpt lat="44.81593" lon="4.70606">
        <ele>138.4</ele>
      </trkpt>
      <trkpt lat="44.81602" lon="4.70595">
        <ele>138.9</ele>
      </trkpt>
      <trkpt lat="44.81614" lon="4.70576">
        <ele>142.6</ele>
      </trkpt>
      <trkpt lat="44.81625" lon="4.70546">
        <ele>142.3</ele>
      </trkpt>
      <trkpt lat="44.81637" lon="4.70467">
        <ele>148</ele>
      </trkpt>
      <trkpt lat="44.81643" lon="4.70456">
        <ele>147.8</ele>
      </trkpt>
      <trkpt lat="44.81648" lon="4.70396">
        <ele>152.1</ele>
      </trkpt>
      <trkpt lat="44.81651" lon="4.70379">
        <ele>153.5</ele>
      </trkpt>
      <trkpt lat="44.81654" lon="4.70367">
        <ele>153.6</ele>
      </trkpt>
      <trkpt lat="44.81659" lon="4.70346">
        <ele>151.5</ele>
      </trkpt>
      <trkpt lat="44.81667" lon="4.70305">
        <ele>142.3</ele>
      </trkpt>
      <trkpt lat="44.81669" lon="4.70264">
        <ele>146.2</ele>
      </trkpt>
      <trkpt lat="44.81666" lon="4.70215">
        <ele>158.2</ele>
      </trkpt>
      <trkpt lat="44.81652" lon="4.70137">
        <ele>156</ele>
      </trkpt>
      <trkpt lat="44.81651" lon="4.70117">
        <ele>155.9</ele>
      </trkpt>
      <trkpt lat="44.81652" lon="4.70095">
        <ele>152.8</ele>
      </trkpt>
      <trkpt lat="44.81669" lon="4.69981">
        <ele>144.1</ele>
      </trkpt>
      <trkpt lat="44.81671" lon="4.69967">
        <ele>143.4</ele>
      </trkpt>
      <trkpt lat="44.8167" lon="4.69931">
        <ele>147.8</ele>
      </trkpt>
      <trkpt lat="44.81664" lon="4.69883">
        <ele>167.4</ele>
      </trkpt>
      <trkpt lat="44.81638" lon="4.69787">
        <ele>158.5</ele>
      </trkpt>
      <trkpt lat="44.81636" lon="4.69767">
        <ele>156</ele>
      </trkpt>
      <trkpt lat="44.81637" lon="4.69747">
        <ele>145</ele>
      </trkpt>
      <trkpt lat="44.81639" lon="4.69733">
        <ele>144.7</ele>
      </trkpt>
      <trkpt lat="44.81647" lon="4.69699">
        <ele>143.3</ele>
      </trkpt>
      <trkpt lat="44.81656" lon="4.69675">
        <ele>140</ele>
      </trkpt>
      <trkpt lat="44.81669" lon="4.69637">
        <ele>138</ele>
      </trkpt>
      <trkpt lat="44.8168" lon="4.69573">
        <ele>149.1</ele>
      </trkpt>
      <trkpt lat="44.81687" lon="4.69537">
        <ele>151.5</ele>
      </trkpt>
      <trkpt lat="44.81691" lon="4.69521">
        <ele>153.4</ele>
      </trkpt>
      <trkpt lat="44.817" lon="4.69498">
        <ele>162.8</ele>
      </trkpt>
      <trkpt lat="44.8171" lon="4.69482">
        <ele>161.1</ele>
      </trkpt>
      <trkpt lat="44.8172" lon="4.6947">
        <ele>160.2</ele>
      </trkpt>
      <trkpt lat="44.81731" lon="4.69462">
        <ele>159.3</ele>
      </trkpt>
      <trkpt lat="44.81748" lon="4.69453">
        <ele>158.7</ele>
      </trkpt>
      <trkpt lat="44.8188" lon="4.69412">
        <ele>153.6</ele>
      </trkpt>
      <trkpt lat="44.81908" lon="4.69406">
        <ele>149.9</ele>
      </trkpt>
      <trkpt lat="44.81935" lon="4.6941">
        <ele>149.7</ele>
      </trkpt>
      <trkpt lat="44.81963" lon="4.6942">
        <ele>143.5</ele>
      </trkpt>
      <trkpt lat="44.81979" lon="4.69429">
        <ele>144.2</ele>
      </trkpt>
      <trkpt lat="44.8201" lon="4.69453">
        <ele>145.7</ele>
      </trkpt>
      <trkpt lat="44.82119" lon="4.6956">
        <ele>147.2</ele>
      </trkpt>
      <trkpt lat="44.82145" lon="4.69575">
        <ele>147.6</ele>
      </trkpt>
      <trkpt lat="44.82155" lon="4.69576">
        <ele>147.6</ele>
      </trkpt>
      <trkpt lat="44.82174" lon="4.69576">
        <ele>148.7</ele>
      </trkpt>
      <trkpt lat="44.82194" lon="4.69574">
        <ele>149.7</ele>
      </trkpt>
      <trkpt lat="44.82214" lon="4.69565">
        <ele>149.9</ele>
      </trkpt>
      <trkpt lat="44.82245" lon="4.69538">
        <ele>152.6</ele>
      </trkpt>
      <trkpt lat="44.82272" lon="4.69515">
        <ele>150</ele>
      </trkpt>
      <trkpt lat="44.82307" lon="4.69484">
        <ele>154.4</ele>
      </trkpt>
      <trkpt lat="44.82344" lon="4.6943">
        <ele>150.6</ele>
      </trkpt>
      <trkpt lat="44.8237" lon="4.69385">
        <ele>153.4</ele>
      </trkpt>
      <trkpt lat="44.82384" lon="4.69352">
        <ele>152.9</ele>
      </trkpt>
      <trkpt lat="44.82399" lon="4.69307">
        <ele>154.5</ele>
      </trkpt>
      <trkpt lat="44.82457" lon="4.6912">
        <ele>150.8</ele>
      </trkpt>
      <trkpt lat="44.82467" lon="4.69094">
        <ele>150.8</ele>
      </trkpt>
      <trkpt lat="44.8248" lon="4.69068">
        <ele>153.7</ele>
      </trkpt>
      <trkpt lat="44.82511" lon="4.69023">
        <ele>146.5</ele>
      </trkpt>
      <trkpt lat="44.82524" lon="4.68997">
        <ele>147.4</ele>
      </trkpt>
      <trkpt lat="44.82533" lon="4.68972">
        <ele>146</ele>
      </trkpt>
      <trkpt lat="44.82538" lon="4.68947">
        <ele>145.8</ele>
      </trkpt>
      <trkpt lat="44.82538" lon="4.68911">
        <ele>146.6</ele>
      </trkpt>
      <trkpt lat="44.82535" lon="4.68884">
        <ele>146.8</ele>
      </trkpt>
      <trkpt lat="44.82524" lon="4.68814">
        <ele>149.9</ele>
      </trkpt>
      <trkpt lat="44.8252" lon="4.6878">
        <ele>151.3</ele>
      </trkpt>
      <trkpt lat="44.8253" lon="4.68679">
        <ele>154.6</ele>
      </trkpt>
      <trkpt lat="44.82528" lon="4.68651">
        <ele>155</ele>
      </trkpt>
      <trkpt lat="44.82523" lon="4.6863">
        <ele>154.5</ele>
      </trkpt>
      <trkpt lat="44.82498" lon="4.68546">
        <ele>176.8</ele>
      </trkpt>
      <trkpt lat="44.82496" lon="4.68521">
        <ele>172.8</ele>
      </trkpt>
      <trkpt lat="44.82502" lon="4.68477">
        <ele>153.3</ele>
      </trkpt>
      <trkpt lat="44.82512" lon="4.68447">
        <ele>152.3</ele>
      </trkpt>
      <trkpt lat="44.82546" lon="4.68387">
        <ele>153</ele>
      </trkpt>
      <trkpt lat="44.8258" lon="4.68319">
        <ele>152.5</ele>
      </trkpt>
      <trkpt lat="44.82608" lon="4.68252">
        <ele>147.7</ele>
      </trkpt>
      <trkpt lat="44.82621" lon="4.68209">
        <ele>149.4</ele>
      </trkpt>
      <trkpt lat="44.82639" lon="4.68138">
        <ele>149.5</ele>
      </trkpt>
      <trkpt lat="44.82646" lon="4.68132">
        <ele>149.3</ele>
      </trkpt>
      <trkpt lat="44.82648" lon="4.68128">
        <ele>149.2</ele>
      </trkpt>
      <trkpt lat="44.82665" lon="4.68026">
        <ele>147.1</ele>
      </trkpt>
      <trkpt lat="44.82665" lon="4.68008">
        <ele>146</ele>
      </trkpt>
      <trkpt lat="44.82666" lon="4.67984">
        <ele>146.6</ele>
      </trkpt>
      <trkpt lat="44.82664" lon="4.67928">
        <ele>147</ele>
      </trkpt>
      <trkpt lat="44.82659" lon="4.67864">
        <ele>149.4</ele>
      </trkpt>
      <trkpt lat="44.82649" lon="4.67808">
        <ele>149.9</ele>
      </trkpt>
      <trkpt lat="44.82639" lon="4.6778">
        <ele>150.4</ele>
      </trkpt>
      <trkpt lat="44.82633" lon="4.67763">
        <ele>150.5</ele>
      </trkpt>
      <trkpt lat="44.8263" lon="4.67748">
        <ele>150.2</ele>
      </trkpt>
      <trkpt lat="44.82621" lon="4.67688">
        <ele>151.6</ele>
      </trkpt>
      <trkpt lat="44.82614" lon="4.6761">
        <ele>151.6</ele>
      </trkpt>
      <trkpt lat="44.82602" lon="4.67546">
        <ele>151.2</ele>
      </trkpt>
      <trkpt lat="44.82569" lon="4.67406">
        <ele>152.5</ele>
      </trkpt>
      <trkpt lat="44.8256" lon="4.67383">
        <ele>153.7</ele>
      </trkpt>
      <trkpt lat="44.82548" lon="4.67363">
        <ele>153.8</ele>
      </trkpt>
      <trkpt lat="44.82509" lon="4.67313">
        <ele>152.3</ele>
      </trkpt>
      <trkpt lat="44.82492" lon="4.67285">
        <ele>161.1</ele>
      </trkpt>
      <trkpt lat="44.82478" lon="4.67257">
        <ele>159</ele>
      </trkpt>
      <trkpt lat="44.82397" lon="4.67065">
        <ele>155.1</ele>
      </trkpt>
      <trkpt lat="44.82368" lon="4.67007">
        <ele>156.4</ele>
      </trkpt>
      <trkpt lat="44.82203" lon="4.66753">
        <ele>158.4</ele>
      </trkpt>
      <trkpt lat="44.82146" lon="4.66653">
        <ele>155.2</ele>
      </trkpt>
      <trkpt lat="44.82132" lon="4.66636">
        <ele>157</ele>
      </trkpt>
      <trkpt lat="44.8207" lon="4.66581">
        <ele>164.5</ele>
      </trkpt>
      <trkpt lat="44.81996" lon="4.6645">
        <ele>181.7</ele>
      </trkpt>
      <trkpt lat="44.8198" lon="4.66417">
        <ele>177.3</ele>
      </trkpt>
      <trkpt lat="44.81969" lon="4.66381">
        <ele>173.6</ele>
      </trkpt>
      <trkpt lat="44.81954" lon="4.6631">
        <ele>166.7</ele>
      </trkpt>
      <trkpt lat="44.81923" lon="4.66211">
        <ele>158.3</ele>
      </trkpt>
      <trkpt lat="44.81903" lon="4.66154">
        <ele>163.5</ele>
      </trkpt>
      <trkpt lat="44.81874" lon="4.66105">
        <ele>168.4</ele>
      </trkpt>
      <trkpt lat="44.81856" lon="4.66055">
        <ele>165.8</ele>
      </trkpt>
      <trkpt lat="44.81845" lon="4.66011">
        <ele>167.2</ele>
      </trkpt>
      <trkpt lat="44.81838" lon="4.65966">
        <ele>163.2</ele>
      </trkpt>
      <trkpt lat="44.81838" lon="4.65932">
        <ele>164.1</ele>
      </trkpt>
      <trkpt lat="44.8184" lon="4.65888">
        <ele>163.2</ele>
      </trkpt>
      <trkpt lat="44.81841" lon="4.65839">
        <ele>168</ele>
      </trkpt>
      <trkpt lat="44.81839" lon="4.6576">
        <ele>167.9</ele>
      </trkpt>
      <trkpt lat="44.81833" lon="4.65682">
        <ele>174.3</ele>
      </trkpt>
      <trkpt lat="44.81826" lon="4.65632">
        <ele>171.9</ele>
      </trkpt>
      <trkpt lat="44.818" lon="4.65531">
        <ele>168.3</ele>
      </trkpt>
      <trkpt lat="44.81788" lon="4.65478">
        <ele>170.1</ele>
      </trkpt>
      <trkpt lat="44.81785" lon="4.65445">
        <ele>171.1</ele>
      </trkpt>
      <trkpt lat="44.81783" lon="4.65412">
        <ele>173.5</ele>
      </trkpt>
      <trkpt lat="44.81789" lon="4.65331">
        <ele>171.6</ele>
      </trkpt>
      <trkpt lat="44.81776" lon="4.65244">
        <ele>172.1</ele>
      </trkpt>
      <trkpt lat="44.8176" lon="4.65157">
        <ele>174.3</ele>
      </trkpt>
      <trkpt lat="44.81758" lon="4.65014">
        <ele>170.1</ele>
      </trkpt>
      <trkpt lat="44.81739" lon="4.64813">
        <ele>175.2</ele>
      </trkpt>
      <trkpt lat="44.81715" lon="4.64674">
        <ele>181.8</ele>
      </trkpt>
      <trkpt lat="44.81715" lon="4.64651">
        <ele>184.6</ele>
      </trkpt>
      <trkpt lat="44.81728" lon="4.64586">
        <ele>181.6</ele>
      </trkpt>
      <trkpt lat="44.81736" lon="4.64535">
        <ele>182.2</ele>
      </trkpt>
      <trkpt lat="44.81736" lon="4.64491">
        <ele>175.1</ele>
      </trkpt>
      <trkpt lat="44.81734" lon="4.64446">
        <ele>176.6</ele>
      </trkpt>
      <trkpt lat="44.8172" lon="4.64407">
        <ele>172.1</ele>
      </trkpt>
      <trkpt lat="44.81704" lon="4.64373">
        <ele>173.1</ele>
      </trkpt>
      <trkpt lat="44.81676" lon="4.64331">
        <ele>171.4</ele>
      </trkpt>
      <trkpt lat="44.81633" lon="4.64275">
        <ele>174.7</ele>
      </trkpt>
      <trkpt lat="44.81606" lon="4.64243">
        <ele>168.1</ele>
      </trkpt>
      <trkpt lat="44.81596" lon="4.64228">
        <ele>167.8</ele>
      </trkpt>
      <trkpt lat="44.81562" lon="4.64201">
        <ele>173.4</ele>
      </trkpt>
      <trkpt lat="44.81548" lon="4.64193">
        <ele>173.8</ele>
      </trkpt>
      <trkpt lat="44.8146" lon="4.6418">
        <ele>181</ele>
      </trkpt>
      <trkpt lat="44.81415" lon="4.64174">
        <ele>172.7</ele>
      </trkpt>
      <trkpt lat="44.81403" lon="4.64168">
        <ele>173.7</ele>
      </trkpt>
      <trkpt lat="44.81382" lon="4.64148">
        <ele>164.6</ele>
      </trkpt>
      <trkpt lat="44.81371" lon="4.64132">
        <ele>163.8</ele>
      </trkpt>
      <trkpt lat="44.81362" lon="4.64116">
        <ele>163.6</ele>
      </trkpt>
      <trkpt lat="44.81354" lon="4.64096">
        <ele>163.8</ele>
      </trkpt>
      <trkpt lat="44.81342" lon="4.64065">
        <ele>167.6</ele>
      </trkpt>
      <trkpt lat="44.81326" lon="4.64025">
        <ele>172.7</ele>
      </trkpt>
      <trkpt lat="44.81318" lon="4.64014">
        <ele>173.6</ele>
      </trkpt>
      <trkpt lat="44.8131" lon="4.64005">
        <ele>173.5</ele>
      </trkpt>
      <trkpt lat="44.81287" lon="4.63988">
        <ele>181.8</ele>
      </trkpt>
      <trkpt lat="44.81221" lon="4.63966">
        <ele>176.2</ele>
      </trkpt>
      <trkpt lat="44.81203" lon="4.63957">
        <ele>175.7</ele>
      </trkpt>
      <trkpt lat="44.81188" lon="4.63945">
        <ele>175.4</ele>
      </trkpt>
      <trkpt lat="44.81175" lon="4.63927">
        <ele>174.9</ele>
      </trkpt>
      <trkpt lat="44.81169" lon="4.63917">
        <ele>174.2</ele>
      </trkpt>
      <trkpt lat="44.8116" lon="4.63893">
        <ele>173.2</ele>
      </trkpt>
      <trkpt lat="44.81155" lon="4.63866">
        <ele>173.5</ele>
      </trkpt>
      <trkpt lat="44.81159" lon="4.63757">
        <ele>179.6</ele>
      </trkpt>
      <trkpt lat="44.81156" lon="4.63731">
        <ele>180.7</ele>
      </trkpt>
      <trkpt lat="44.81153" lon="4.63713">
        <ele>181</ele>
      </trkpt>
      <trkpt lat="44.81109" lon="4.6358">
        <ele>188</ele>
      </trkpt>
      <trkpt lat="44.81086" lon="4.6352">
        <ele>189.1</ele>
      </trkpt>
      <trkpt lat="44.81049" lon="4.63451">
        <ele>178.9</ele>
      </trkpt>
      <trkpt lat="44.81036" lon="4.63409">
        <ele>184</ele>
      </trkpt>
      <trkpt lat="44.81016" lon="4.63328">
        <ele>188.6</ele>
      </trkpt>
      <trkpt lat="44.81011" lon="4.63312">
        <ele>189.7</ele>
      </trkpt>
      <trkpt lat="44.80998" lon="4.63286">
        <ele>182</ele>
      </trkpt>
      <trkpt lat="44.80992" lon="4.63276">
        <ele>182.7</ele>
      </trkpt>
      <trkpt lat="44.80979" lon="4.6326">
        <ele>183</ele>
      </trkpt>
      <trkpt lat="44.80937" lon="4.63217">
        <ele>185.5</ele>
      </trkpt>
      <trkpt lat="44.80929" lon="4.63207">
        <ele>185.9</ele>
      </trkpt>
      <trkpt lat="44.8092" lon="4.63195">
        <ele>186.4</ele>
      </trkpt>
      <trkpt lat="44.80901" lon="4.63162">
        <ele>186.8</ele>
      </trkpt>
      <trkpt lat="44.8085" lon="4.63062">
        <ele>192.3</ele>
      </trkpt>
      <trkpt lat="44.80837" lon="4.63047">
        <ele>193</ele>
      </trkpt>
      <trkpt lat="44.80826" lon="4.63039">
        <ele>190</ele>
      </trkpt>
      <trkpt lat="44.8082" lon="4.63036">
        <ele>190.2</ele>
      </trkpt>
      <trkpt lat="44.80806" lon="4.63029">
        <ele>190.3</ele>
      </trkpt>
      <trkpt lat="44.80796" lon="4.63026">
        <ele>190.1</ele>
      </trkpt>
      <trkpt lat="44.8079" lon="4.63024">
        <ele>190.1</ele>
      </trkpt>
      <trkpt lat="44.80788" lon="4.63017">
        <ele>190.3</ele>
      </trkpt>
      <trkpt lat="44.80786" lon="4.63007">
        <ele>190.6</ele>
      </trkpt>
      <trkpt lat="44.80745" lon="4.62999">
        <ele>191.5</ele>
      </trkpt>
      <trkpt lat="44.80742" lon="4.62998">
        <ele>191.3</ele>
      </trkpt>
      <trkpt lat="44.80732" lon="4.62993">
        <ele>190.5</ele>
      </trkpt>
      <trkpt lat="44.80725" lon="4.62987">
        <ele>190</ele>
      </trkpt>
      <trkpt lat="44.80722" lon="4.62983">
        <ele>189.8</ele>
      </trkpt>
      <trkpt lat="44.80718" lon="4.62977">
        <ele>189.6</ele>
      </trkpt>
      <trkpt lat="44.80718" lon="4.62975">
        <ele>189.6</ele>
      </trkpt>
      <trkpt lat="44.80719" lon="4.62966">
        <ele>190</ele>
      </trkpt>
      <trkpt lat="44.80723" lon="4.62952">
        <ele>191.1</ele>
      </trkpt>
      <trkpt lat="44.80728" lon="4.62932">
        <ele>193.2</ele>
      </trkpt>
      <trkpt lat="44.80728" lon="4.62929">
        <ele>193.5</ele>
      </trkpt>
      <trkpt lat="44.80733" lon="4.62918">
        <ele>195.2</ele>
      </trkpt>
      <trkpt lat="44.80735" lon="4.62911">
        <ele>197.9</ele>
      </trkpt>
      <trkpt lat="44.80729" lon="4.62907">
        <ele>197</ele>
      </trkpt>
      <trkpt lat="44.80731" lon="4.62902">
        <ele>197.1</ele>
      </trkpt>
      <trkpt lat="44.80736" lon="4.62887">
        <ele>197.2</ele>
      </trkpt>
      <trkpt lat="44.80744" lon="4.62864">
        <ele>198.6</ele>
      </trkpt>
      <trkpt lat="44.8075" lon="4.62843">
        <ele>202.5</ele>
      </trkpt>
      <trkpt lat="44.80762" lon="4.62847">
        <ele>204.3</ele>
      </trkpt>
      <trkpt lat="44.80773" lon="4.62847">
        <ele>203.9</ele>
      </trkpt>
      <trkpt lat="44.80779" lon="4.62839">
        <ele>203.9</ele>
      </trkpt>
      <trkpt lat="44.80787" lon="4.62827">
        <ele>205.5</ele>
      </trkpt>
      <trkpt lat="44.80794" lon="4.62817">
        <ele>205.5</ele>
      </trkpt>
      <trkpt lat="44.80845" lon="4.62728">
        <ele>211.6</ele>
      </trkpt>
      <trkpt lat="44.80843" lon="4.62727">
        <ele>211.6</ele>
      </trkpt>
      <trkpt lat="44.8084" lon="4.62722">
        <ele>211.9</ele>
      </trkpt>
      <trkpt lat="44.80813" lon="4.62692">
        <ele>209.4</ele>
      </trkpt>
      <trkpt lat="44.80809" lon="4.62687">
        <ele>209.4</ele>
      </trkpt>
      <trkpt lat="44.808" lon="4.62676">
        <ele>209.1</ele>
      </trkpt>
      <trkpt lat="44.80792" lon="4.62657">
        <ele>211.2</ele>
      </trkpt>
      <trkpt lat="44.80787" lon="4.62634">
        <ele>211.4</ele>
      </trkpt>
      <trkpt lat="44.80787" lon="4.62631">
        <ele>211.5</ele>
      </trkpt>
      <trkpt lat="44.80786" lon="4.62623">
        <ele>211.7</ele>
      </trkpt>
      <trkpt lat="44.80783" lon="4.62603">
        <ele>212</ele>
      </trkpt>
      <trkpt lat="44.80782" lon="4.62593">
        <ele>212</ele>
      </trkpt>
      <trkpt lat="44.8078" lon="4.62582">
        <ele>215.3</ele>
      </trkpt>
      <trkpt lat="44.80774" lon="4.62569">
        <ele>215.1</ele>
      </trkpt>
      <trkpt lat="44.80764" lon="4.62555">
        <ele>215.3</ele>
      </trkpt>
      <trkpt lat="44.80761" lon="4.62553">
        <ele>215.4</ele>
      </trkpt>
      <trkpt lat="44.80748" lon="4.62541">
        <ele>209.3</ele>
      </trkpt>
      <trkpt lat="44.80738" lon="4.62526">
        <ele>210.3</ele>
      </trkpt>
      <trkpt lat="44.80733" lon="4.62516">
        <ele>211</ele>
      </trkpt>
      <trkpt lat="44.80722" lon="4.6249">
        <ele>215.9</ele>
      </trkpt>
      <trkpt lat="44.80721" lon="4.62486">
        <ele>216</ele>
      </trkpt>
      <trkpt lat="44.80718" lon="4.62478">
        <ele>216</ele>
      </trkpt>
      <trkpt lat="44.80714" lon="4.62472">
        <ele>216</ele>
      </trkpt>
      <trkpt lat="44.80716" lon="4.62467">
        <ele>216.4</ele>
      </trkpt>
      <trkpt lat="44.80715" lon="4.62456">
        <ele>216.9</ele>
      </trkpt>
      <trkpt lat="44.80731" lon="4.62433">
        <ele>220.7</ele>
      </trkpt>
      <trkpt lat="44.80743" lon="4.62404">
        <ele>226</ele>
      </trkpt>
      <trkpt lat="44.80753" lon="4.62373">
        <ele>236.8</ele>
      </trkpt>
      <trkpt lat="44.8076" lon="4.62367">
        <ele>237.3</ele>
      </trkpt>
      <trkpt lat="44.80764" lon="4.62352">
        <ele>237.3</ele>
      </trkpt>
      <trkpt lat="44.80806" lon="4.62317">
        <ele>246.4</ele>
      </trkpt>
      <trkpt lat="44.80816" lon="4.62315">
        <ele>248</ele>
      </trkpt>
      <trkpt lat="44.80829" lon="4.62312">
        <ele>249.3</ele>
      </trkpt>
      <trkpt lat="44.80832" lon="4.62311">
        <ele>249.4</ele>
      </trkpt>
      <trkpt lat="44.80839" lon="4.6231">
        <ele>259.3</ele>
      </trkpt>
      <trkpt lat="44.80852" lon="4.62311">
        <ele>260.1</ele>
      </trkpt>
      <trkpt lat="44.80862" lon="4.62308">
        <ele>261</ele>
      </trkpt>
      <trkpt lat="44.80867" lon="4.62302">
        <ele>261.5</ele>
      </trkpt>
      <trkpt lat="44.80881" lon="4.6229">
        <ele>262.8</ele>
      </trkpt>
      <trkpt lat="44.80889" lon="4.62288">
        <ele>263.5</ele>
      </trkpt>
      <trkpt lat="44.80894" lon="4.62288">
        <ele>263.9</ele>
      </trkpt>
      <trkpt lat="44.80892" lon="4.62276">
        <ele>264.2</ele>
      </trkpt>
      <trkpt lat="44.80902" lon="4.62246">
        <ele>266.3</ele>
      </trkpt>
      <trkpt lat="44.80909" lon="4.62235">
        <ele>266</ele>
      </trkpt>
      <trkpt lat="44.80913" lon="4.62231">
        <ele>265.5</ele>
      </trkpt>
      <trkpt lat="44.80917" lon="4.62228">
        <ele>272.1</ele>
      </trkpt>
      <trkpt lat="44.80927" lon="4.62223">
        <ele>272.2</ele>
      </trkpt>
      <trkpt lat="44.80943" lon="4.62219">
        <ele>272.8</ele>
      </trkpt>
      <trkpt lat="44.80952" lon="4.62216">
        <ele>273.3</ele>
      </trkpt>
      <trkpt lat="44.80955" lon="4.62215">
        <ele>273.5</ele>
      </trkpt>
      <trkpt lat="44.80961" lon="4.62214">
        <ele>273.9</ele>
      </trkpt>
      <trkpt lat="44.80975" lon="4.62213">
        <ele>274.9</ele>
      </trkpt>
      <trkpt lat="44.80983" lon="4.62209">
        <ele>275.3</ele>
      </trkpt>
      <trkpt lat="44.80988" lon="4.62203">
        <ele>275.4</ele>
      </trkpt>
      <trkpt lat="44.80992" lon="4.62192">
        <ele>275.7</ele>
      </trkpt>
      <trkpt lat="44.80992" lon="4.62187">
        <ele>276</ele>
      </trkpt>
      <trkpt lat="44.8099" lon="4.62182">
        <ele>276.1</ele>
      </trkpt>
      <trkpt lat="44.8098" lon="4.62175">
        <ele>275.3</ele>
      </trkpt>
      <trkpt lat="44.80972" lon="4.62165">
        <ele>272.6</ele>
      </trkpt>
      <trkpt lat="44.80959" lon="4.62144">
        <ele>270.4</ele>
      </trkpt>
      <trkpt lat="44.80957" lon="4.62127">
        <ele>270.1</ele>
      </trkpt>
      <trkpt lat="44.8096" lon="4.62112">
        <ele>270.5</ele>
      </trkpt>
      <trkpt lat="44.80971" lon="4.62101">
        <ele>272.9</ele>
      </trkpt>
      <trkpt lat="44.80974" lon="4.62094">
        <ele>274</ele>
      </trkpt>
      <trkpt lat="44.80973" lon="4.62082">
        <ele>275</ele>
      </trkpt>
      <trkpt lat="44.8096" lon="4.62063">
        <ele>271.5</ele>
      </trkpt>
      <trkpt lat="44.80958" lon="4.62041">
        <ele>271.4</ele>
      </trkpt>
      <trkpt lat="44.80954" lon="4.62028">
        <ele>270.8</ele>
      </trkpt>
      <trkpt lat="44.80927" lon="4.62009">
        <ele>263.2</ele>
      </trkpt>
      <trkpt lat="44.80921" lon="4.62">
        <ele>259.4</ele>
      </trkpt>
      <trkpt lat="44.8092" lon="4.6199">
        <ele>261.4</ele>
      </trkpt>
      <trkpt lat="44.80916" lon="4.6199">
        <ele>254.2</ele>
      </trkpt>
      <trkpt lat="44.80919" lon="4.61969">
        <ele>264.9</ele>
      </trkpt>
      <trkpt lat="44.80921" lon="4.61961">
        <ele>265.3</ele>
      </trkpt>
      <trkpt lat="44.80931" lon="4.6194">
        <ele>265.2</ele>
      </trkpt>
      <trkpt lat="44.80961" lon="4.61895">
        <ele>263.7</ele>
      </trkpt>
      <trkpt lat="44.80971" lon="4.61875">
        <ele>263.2</ele>
      </trkpt>
      <trkpt lat="44.80975" lon="4.61863">
        <ele>262.4</ele>
      </trkpt>
      <trkpt lat="44.80976" lon="4.61858">
        <ele>262.1</ele>
      </trkpt>
      <trkpt lat="44.8098" lon="4.6185">
        <ele>261.6</ele>
      </trkpt>
      <trkpt lat="44.80987" lon="4.61849">
        <ele>261.4</ele>
      </trkpt>
      <trkpt lat="44.81012" lon="4.61862">
        <ele>264.1</ele>
      </trkpt>
      <trkpt lat="44.81023" lon="4.61865">
        <ele>264.5</ele>
      </trkpt>
      <trkpt lat="44.81041" lon="4.61843">
        <ele>261.6</ele>
      </trkpt>
      <trkpt lat="44.81055" lon="4.61841">
        <ele>259.7</ele>
      </trkpt>
      <trkpt lat="44.81069" lon="4.61844">
        <ele>257.2</ele>
      </trkpt>
      <trkpt lat="44.81073" lon="4.61839">
        <ele>254.7</ele>
      </trkpt>
      <trkpt lat="44.81081" lon="4.6185">
        <ele>257.1</ele>
      </trkpt>
      <trkpt lat="44.81096" lon="4.6188">
        <ele>262.4</ele>
      </trkpt>
      <trkpt lat="44.81108" lon="4.61888">
        <ele>263.7</ele>
      </trkpt>
      <trkpt lat="44.8112" lon="4.6189">
        <ele>263.1</ele>
      </trkpt>
      <trkpt lat="44.81128" lon="4.61888">
        <ele>262.3</ele>
      </trkpt>
      <trkpt lat="44.81141" lon="4.6188">
        <ele>260.2</ele>
      </trkpt>
      <trkpt lat="44.81146" lon="4.61878">
        <ele>259.6</ele>
      </trkpt>
      <trkpt lat="44.81145" lon="4.61872">
        <ele>258</ele>
      </trkpt>
      <trkpt lat="44.81148" lon="4.61867">
        <ele>256.3</ele>
      </trkpt>
      <trkpt lat="44.81153" lon="4.61867">
        <ele>255.9</ele>
      </trkpt>
      <trkpt lat="44.81186" lon="4.61889">
        <ele>255.1</ele>
      </trkpt>
      <trkpt lat="44.81199" lon="4.61894">
        <ele>254.6</ele>
      </trkpt>
      <trkpt lat="44.81223" lon="4.61891">
        <ele>252.2</ele>
      </trkpt>
      <trkpt lat="44.81233" lon="4.61891">
        <ele>252.2</ele>
      </trkpt>
      <trkpt lat="44.81258" lon="4.61897">
        <ele>241.8</ele>
      </trkpt>
      <trkpt lat="44.81268" lon="4.61895">
        <ele>237.6</ele>
      </trkpt>
      <trkpt lat="44.81274" lon="4.61898">
        <ele>236.5</ele>
      </trkpt>
      <trkpt lat="44.81286" lon="4.61908">
        <ele>234</ele>
      </trkpt>
      <trkpt lat="44.81298" lon="4.6193">
        <ele>255.3</ele>
      </trkpt>
      <trkpt lat="44.81305" lon="4.61939">
        <ele>255</ele>
      </trkpt>
      <trkpt lat="44.81319" lon="4.61951">
        <ele>255.4</ele>
      </trkpt>
      <trkpt lat="44.81329" lon="4.61956">
        <ele>255.9</ele>
      </trkpt>
      <trkpt lat="44.81354" lon="4.61979">
        <ele>238.6</ele>
      </trkpt>
      <trkpt lat="44.81381" lon="4.61999">
        <ele>232.7</ele>
      </trkpt>
      <trkpt lat="44.81409" lon="4.62002">
        <ele>238.3</ele>
      </trkpt>
      <trkpt lat="44.81421" lon="4.62007">
        <ele>230.6</ele>
      </trkpt>
      <trkpt lat="44.81435" lon="4.62022">
        <ele>234.6</ele>
      </trkpt>
      <trkpt lat="44.81443" lon="4.62024">
        <ele>234.7</ele>
      </trkpt>
      <trkpt lat="44.81452" lon="4.62018">
        <ele>232.6</ele>
      </trkpt>
      <trkpt lat="44.81464" lon="4.62016">
        <ele>230.1</ele>
      </trkpt>
      <trkpt lat="44.81508" lon="4.62047">
        <ele>220.2</ele>
      </trkpt>
      <trkpt lat="44.81518" lon="4.6207">
        <ele>227.1</ele>
      </trkpt>
      <trkpt lat="44.81551" lon="4.62087">
        <ele>241.1</ele>
      </trkpt>
      <trkpt lat="44.81583" lon="4.62118">
        <ele>242.8</ele>
      </trkpt>
      <trkpt lat="44.81592" lon="4.62119">
        <ele>235.1</ele>
      </trkpt>
      <trkpt lat="44.81606" lon="4.62114">
        <ele>234.2</ele>
      </trkpt>
      <trkpt lat="44.81637" lon="4.62108">
        <ele>233.5</ele>
      </trkpt>
      <trkpt lat="44.81645" lon="4.62108">
        <ele>233.1</ele>
      </trkpt>
      <trkpt lat="44.81651" lon="4.62112">
        <ele>233.8</ele>
      </trkpt>
      <trkpt lat="44.81662" lon="4.62113">
        <ele>233.6</ele>
      </trkpt>
      <trkpt lat="44.81671" lon="4.62093">
        <ele>229.6</ele>
      </trkpt>
      <trkpt lat="44.81713" lon="4.62047">
        <ele>218.2</ele>
      </trkpt>
      <trkpt lat="44.81729" lon="4.62052">
        <ele>221.4</ele>
      </trkpt>
      <trkpt lat="44.81734" lon="4.62051">
        <ele>221.9</ele>
      </trkpt>
      <trkpt lat="44.81743" lon="4.62025">
        <ele>216.2</ele>
      </trkpt>
      <trkpt lat="44.81762" lon="4.61999">
        <ele>208.9</ele>
      </trkpt>
      <trkpt lat="44.81771" lon="4.61989">
        <ele>207.7</ele>
      </trkpt>
      <trkpt lat="44.81779" lon="4.61982">
        <ele>207</ele>
      </trkpt>
      <trkpt lat="44.81787" lon="4.61979">
        <ele>207</ele>
      </trkpt>
      <trkpt lat="44.81812" lon="4.61975">
        <ele>208.9</ele>
      </trkpt>
      <trkpt lat="44.81858" lon="4.61977">
        <ele>211.4</ele>
      </trkpt>
      <trkpt lat="44.81891" lon="4.61982">
        <ele>211.1</ele>
      </trkpt>
      <trkpt lat="44.81911" lon="4.6199">
        <ele>214.2</ele>
      </trkpt>
      <trkpt lat="44.81935" lon="4.61987">
        <ele>214.1</ele>
      </trkpt>
      <trkpt lat="44.81948" lon="4.61998">
        <ele>214.6</ele>
      </trkpt>
      <trkpt lat="44.81954" lon="4.62012">
        <ele>230.6</ele>
      </trkpt>
      <trkpt lat="44.8196" lon="4.62015">
        <ele>231.2</ele>
      </trkpt>
      <trkpt lat="44.81965" lon="4.62014">
        <ele>231.1</ele>
      </trkpt>
      <trkpt lat="44.81986" lon="4.6197">
        <ele>214.3</ele>
      </trkpt>
      <trkpt lat="44.82016" lon="4.61914">
        <ele>209.6</ele>
      </trkpt>
      <trkpt lat="44.82042" lon="4.61887">
        <ele>212.2</ele>
      </trkpt>
      <trkpt lat="44.82093" lon="4.61849">
        <ele>224.5</ele>
      </trkpt>
      <trkpt lat="44.82125" lon="4.61812">
        <ele>215.3</ele>
      </trkpt>
      <trkpt lat="44.82148" lon="4.6178">
        <ele>214.1</ele>
      </trkpt>
      <trkpt lat="44.82156" lon="4.61763">
        <ele>212.3</ele>
      </trkpt>
      <trkpt lat="44.82176" lon="4.61728">
        <ele>220.6</ele>
      </trkpt>
      <trkpt lat="44.82179" lon="4.61714">
        <ele>221.6</ele>
      </trkpt>
      <trkpt lat="44.82181" lon="4.61691">
        <ele>218.5</ele>
      </trkpt>
      <trkpt lat="44.82193" lon="4.61658">
        <ele>214.1</ele>
      </trkpt>
      <trkpt lat="44.82203" lon="4.61595">
        <ele>216</ele>
      </trkpt>
      <trkpt lat="44.82218" lon="4.61552">
        <ele>215.9</ele>
      </trkpt>
      <trkpt lat="44.82219" lon="4.6152">
        <ele>215.4</ele>
      </trkpt>
      <trkpt lat="44.82229" lon="4.6149">
        <ele>215.5</ele>
      </trkpt>
      <trkpt lat="44.82241" lon="4.61466">
        <ele>214.2</ele>
      </trkpt>
      <trkpt lat="44.82248" lon="4.61461">
        <ele>214.3</ele>
      </trkpt>
      <trkpt lat="44.82259" lon="4.61462">
        <ele>234</ele>
      </trkpt>
      <trkpt lat="44.82265" lon="4.61464">
        <ele>234.8</ele>
      </trkpt>
      <trkpt lat="44.8227" lon="4.61462">
        <ele>235.4</ele>
      </trkpt>
      <trkpt lat="44.82285" lon="4.61461">
        <ele>237.7</ele>
      </trkpt>
      <trkpt lat="44.82287" lon="4.61456">
        <ele>237.8</ele>
      </trkpt>
      <trkpt lat="44.82288" lon="4.61446">
        <ele>237.5</ele>
      </trkpt>
      <trkpt lat="44.82283" lon="4.61436">
        <ele>235.8</ele>
      </trkpt>
      <trkpt lat="44.82277" lon="4.61427">
        <ele>233.6</ele>
      </trkpt>
      <trkpt lat="44.82274" lon="4.61415">
        <ele>230.3</ele>
      </trkpt>
      <trkpt lat="44.82269" lon="4.61398">
        <ele>230.1</ele>
      </trkpt>
      <trkpt lat="44.82265" lon="4.6138">
        <ele>230.7</ele>
      </trkpt>
      <trkpt lat="44.82274" lon="4.61297">
        <ele>230.3</ele>
      </trkpt>
      <trkpt lat="44.82273" lon="4.6126">
        <ele>226.4</ele>
      </trkpt>
      <trkpt lat="44.82275" lon="4.61231">
        <ele>225</ele>
      </trkpt>
      <trkpt lat="44.82272" lon="4.61221">
        <ele>224.8</ele>
      </trkpt>
      <trkpt lat="44.8227" lon="4.61203">
        <ele>224.2</ele>
      </trkpt>
      <trkpt lat="44.82271" lon="4.61179">
        <ele>221.3</ele>
      </trkpt>
      <trkpt lat="44.82275" lon="4.61166">
        <ele>219.7</ele>
      </trkpt>
      <trkpt lat="44.82282" lon="4.61157">
        <ele>222.6</ele>
      </trkpt>
      <trkpt lat="44.82284" lon="4.6115">
        <ele>223.5</ele>
      </trkpt>
      <trkpt lat="44.82278" lon="4.61129">
        <ele>222.3</ele>
      </trkpt>
      <trkpt lat="44.82273" lon="4.61083">
        <ele>214.5</ele>
      </trkpt>
      <trkpt lat="44.82268" lon="4.61057">
        <ele>215</ele>
      </trkpt>
      <trkpt lat="44.82266" lon="4.61054">
        <ele>214.8</ele>
      </trkpt>
      <trkpt lat="44.82271" lon="4.61027">
        <ele>214.6</ele>
      </trkpt>
      <trkpt lat="44.82281" lon="4.60981">
        <ele>213.9</ele>
      </trkpt>
      <trkpt lat="44.82281" lon="4.60978">
        <ele>214.1</ele>
      </trkpt>
      <trkpt lat="44.82288" lon="4.60941">
        <ele>216</ele>
      </trkpt>
      <trkpt lat="44.8229" lon="4.60875">
        <ele>216.6</ele>
      </trkpt>
      <trkpt lat="44.82282" lon="4.60717">
        <ele>221.6</ele>
      </trkpt>
      <trkpt lat="44.82276" lon="4.60686">
        <ele>221.2</ele>
      </trkpt>
      <trkpt lat="44.82259" lon="4.60647">
        <ele>224.4</ele>
      </trkpt>
      <trkpt lat="44.82247" lon="4.6063">
        <ele>208.3</ele>
      </trkpt>
      <trkpt lat="44.82234" lon="4.60616">
        <ele>209.5</ele>
      </trkpt>
      <trkpt lat="44.82214" lon="4.60602">
        <ele>208.1</ele>
      </trkpt>
      <trkpt lat="44.8219" lon="4.60588">
        <ele>204.4</ele>
      </trkpt>
      <trkpt lat="44.82161" lon="4.60561">
        <ele>204.3</ele>
      </trkpt>
      <trkpt lat="44.82111" lon="4.60488">
        <ele>218.8</ele>
      </trkpt>
      <trkpt lat="44.82067" lon="4.60427">
        <ele>210.4</ele>
      </trkpt>
      <trkpt lat="44.81999" lon="4.60254">
        <ele>212.6</ele>
      </trkpt>
      <trkpt lat="44.81982" lon="4.60215">
        <ele>214.3</ele>
      </trkpt>
      <trkpt lat="44.81945" lon="4.60138">
        <ele>218.8</ele>
      </trkpt>
      <trkpt lat="44.81926" lon="4.60097">
        <ele>215.6</ele>
      </trkpt>
      <trkpt lat="44.81924" lon="4.6009">
        <ele>213.9</ele>
      </trkpt>
      <trkpt lat="44.81918" lon="4.60064">
        <ele>219.6</ele>
      </trkpt>
      <trkpt lat="44.8191" lon="4.60014">
        <ele>210.6</ele>
      </trkpt>
      <trkpt lat="44.81904" lon="4.5994">
        <ele>217.4</ele>
      </trkpt>
      <trkpt lat="44.819" lon="4.59915">
        <ele>223</ele>
      </trkpt>
      <trkpt lat="44.81889" lon="4.59876">
        <ele>220.6</ele>
      </trkpt>
      <trkpt lat="44.81877" lon="4.59843">
        <ele>219.6</ele>
      </trkpt>
      <trkpt lat="44.81872" lon="4.59823">
        <ele>219.4</ele>
      </trkpt>
      <trkpt lat="44.8187" lon="4.598">
        <ele>219.2</ele>
      </trkpt>
      <trkpt lat="44.81868" lon="4.59784">
        <ele>218.6</ele>
      </trkpt>
      <trkpt lat="44.8187" lon="4.59754">
        <ele>218.5</ele>
      </trkpt>
      <trkpt lat="44.81874" lon="4.59726">
        <ele>214</ele>
      </trkpt>
      <trkpt lat="44.81887" lon="4.59691">
        <ele>213.1</ele>
      </trkpt>
      <trkpt lat="44.81928" lon="4.59596">
        <ele>220.7</ele>
      </trkpt>
      <trkpt lat="44.81938" lon="4.59569">
        <ele>219.1</ele>
      </trkpt>
      <trkpt lat="44.81945" lon="4.59531">
        <ele>220.7</ele>
      </trkpt>
      <trkpt lat="44.81949" lon="4.595">
        <ele>214.9</ele>
      </trkpt>
      <trkpt lat="44.81954" lon="4.59468">
        <ele>216</ele>
      </trkpt>
      <trkpt lat="44.81961" lon="4.59432">
        <ele>216.1</ele>
      </trkpt>
      <trkpt lat="44.81993" lon="4.59335">
        <ele>213.1</ele>
      </trkpt>
      <trkpt lat="44.82025" lon="4.59234">
        <ele>216.6</ele>
      </trkpt>
      <trkpt lat="44.82042" lon="4.59168">
        <ele>218.4</ele>
      </trkpt>
      <trkpt lat="44.82061" lon="4.59056">
        <ele>215.6</ele>
      </trkpt>
      <trkpt lat="44.8207" lon="4.59013">
        <ele>215.3</ele>
      </trkpt>
      <trkpt lat="44.8212" lon="4.58843">
        <ele>217.9</ele>
      </trkpt>
      <trkpt lat="44.82134" lon="4.58812">
        <ele>214</ele>
      </trkpt>
      <trkpt lat="44.82149" lon="4.58791">
        <ele>213.4</ele>
      </trkpt>
      <trkpt lat="44.82201" lon="4.58729">
        <ele>217.5</ele>
      </trkpt>
      <trkpt lat="44.82274" lon="4.58631">
        <ele>226.1</ele>
      </trkpt>
      <trkpt lat="44.8229" lon="4.58599">
        <ele>226.2</ele>
      </trkpt>
      <trkpt lat="44.82306" lon="4.58558">
        <ele>221.3</ele>
      </trkpt>
      <trkpt lat="44.82313" lon="4.5854">
        <ele>220.8</ele>
      </trkpt>
      <trkpt lat="44.82332" lon="4.58491">
        <ele>220.3</ele>
      </trkpt>
      <trkpt lat="44.82344" lon="4.58432">
        <ele>229.2</ele>
      </trkpt>
      <trkpt lat="44.82348" lon="4.58383">
        <ele>230.7</ele>
      </trkpt>
      <trkpt lat="44.82347" lon="4.5837">
        <ele>230.7</ele>
      </trkpt>
      <trkpt lat="44.82338" lon="4.5834">
        <ele>223</ele>
      </trkpt>
      <trkpt lat="44.82335" lon="4.58329">
        <ele>220.9</ele>
      </trkpt>
      <trkpt lat="44.82331" lon="4.58269">
        <ele>215.4</ele>
      </trkpt>
      <trkpt lat="44.82328" lon="4.58225">
        <ele>216.6</ele>
      </trkpt>
      <trkpt lat="44.82324" lon="4.58221">
        <ele>216.5</ele>
      </trkpt>
      <trkpt lat="44.82321" lon="4.58205">
        <ele>216.8</ele>
      </trkpt>
      <trkpt lat="44.82319" lon="4.58194">
        <ele>217.4</ele>
      </trkpt>
      <trkpt lat="44.82319" lon="4.58171">
        <ele>219.3</ele>
      </trkpt>
      <trkpt lat="44.82325" lon="4.58133">
        <ele>217</ele>
      </trkpt>
      <trkpt lat="44.82334" lon="4.58095">
        <ele>224.3</ele>
      </trkpt>
      <trkpt lat="44.82343" lon="4.5807">
        <ele>221.4</ele>
      </trkpt>
      <trkpt lat="44.82373" lon="4.58023">
        <ele>224.7</ele>
      </trkpt>
      <trkpt lat="44.82437" lon="4.57951">
        <ele>228.3</ele>
      </trkpt>
      <trkpt lat="44.82454" lon="4.57926">
        <ele>227.6</ele>
      </trkpt>
      <trkpt lat="44.82472" lon="4.57901">
        <ele>220.9</ele>
      </trkpt>
      <trkpt lat="44.82494" lon="4.57873">
        <ele>219.8</ele>
      </trkpt>
      <trkpt lat="44.82508" lon="4.57862">
        <ele>225.8</ele>
      </trkpt>
      <trkpt lat="44.82523" lon="4.57852">
        <ele>226</ele>
      </trkpt>
      <trkpt lat="44.82578" lon="4.57825">
        <ele>225</ele>
      </trkpt>
      <trkpt lat="44.82603" lon="4.5782">
        <ele>224.5</ele>
      </trkpt>
      <trkpt lat="44.82676" lon="4.57815">
        <ele>227</ele>
      </trkpt>
      <trkpt lat="44.82691" lon="4.57812">
        <ele>227.1</ele>
      </trkpt>
      <trkpt lat="44.82698" lon="4.57808">
        <ele>227.1</ele>
      </trkpt>
      <trkpt lat="44.82717" lon="4.57799">
        <ele>227.2</ele>
      </trkpt>
      <trkpt lat="44.8285" lon="4.57734">
        <ele>226.8</ele>
      </trkpt>
      <trkpt lat="44.82877" lon="4.57724">
        <ele>227.5</ele>
      </trkpt>
      <trkpt lat="44.82877" lon="4.57724">
        <ele>227.5</ele>
      </trkpt>
      <trkpt lat="44.82878" lon="4.57723">
        <ele>227.5</ele>
      </trkpt>
      <trkpt lat="44.82936" lon="4.5771">
        <ele>232.6</ele>
      </trkpt>
      <trkpt lat="44.83067" lon="4.57667">
        <ele>233.6</ele>
      </trkpt>
      <trkpt lat="44.83091" lon="4.57661">
        <ele>228.6</ele>
      </trkpt>
      <trkpt lat="44.83139" lon="4.57657">
        <ele>232.2</ele>
      </trkpt>
      <trkpt lat="44.83163" lon="4.5766">
        <ele>233.4</ele>
      </trkpt>
      <trkpt lat="44.83318" lon="4.57719">
        <ele>235.2</ele>
      </trkpt>
      <trkpt lat="44.83344" lon="4.57736">
        <ele>233.9</ele>
      </trkpt>
      <trkpt lat="44.83367" lon="4.57756">
        <ele>243.1</ele>
      </trkpt>
      <trkpt lat="44.83415" lon="4.57791">
        <ele>243.2</ele>
      </trkpt>
      <trkpt lat="44.83505" lon="4.57839">
        <ele>239</ele>
      </trkpt>
      <trkpt lat="44.83594" lon="4.57893">
        <ele>249.1</ele>
      </trkpt>
      <trkpt lat="44.83692" lon="4.57943">
        <ele>259.4</ele>
      </trkpt>
      <trkpt lat="44.83705" lon="4.57946">
        <ele>259.9</ele>
      </trkpt>
      <trkpt lat="44.83726" lon="4.57944">
        <ele>258.3</ele>
      </trkpt>
      <trkpt lat="44.83738" lon="4.5794">
        <ele>256.1</ele>
      </trkpt>
      <trkpt lat="44.83759" lon="4.57926">
        <ele>255.4</ele>
      </trkpt>
      <trkpt lat="44.83772" lon="4.57914">
        <ele>247</ele>
      </trkpt>
      <trkpt lat="44.83783" lon="4.57895">
        <ele>247.7</ele>
      </trkpt>
      <trkpt lat="44.83821" lon="4.57817">
        <ele>240.2</ele>
      </trkpt>
      <trkpt lat="44.83826" lon="4.57801">
        <ele>239.6</ele>
      </trkpt>
      <trkpt lat="44.83833" lon="4.57775">
        <ele>240</ele>
      </trkpt>
      <trkpt lat="44.83836" lon="4.5775">
        <ele>245.6</ele>
      </trkpt>
      <trkpt lat="44.83836" lon="4.57724">
        <ele>257.4</ele>
      </trkpt>
      <trkpt lat="44.83833" lon="4.57702">
        <ele>242.9</ele>
      </trkpt>
      <trkpt lat="44.83817" lon="4.57627">
        <ele>245.7</ele>
      </trkpt>
      <trkpt lat="44.83813" lon="4.57603">
        <ele>246.6</ele>
      </trkpt>
      <trkpt lat="44.83813" lon="4.5758">
        <ele>246.2</ele>
      </trkpt>
      <trkpt lat="44.83817" lon="4.57553">
        <ele>244.4</ele>
      </trkpt>
      <trkpt lat="44.83825" lon="4.57528">
        <ele>243.4</ele>
      </trkpt>
      <trkpt lat="44.83836" lon="4.57511">
        <ele>248.9</ele>
      </trkpt>
      <trkpt lat="44.8385" lon="4.57494">
        <ele>243</ele>
      </trkpt>
      <trkpt lat="44.83869" lon="4.57476">
        <ele>242.4</ele>
      </trkpt>
      <trkpt lat="44.8388" lon="4.57471">
        <ele>242.6</ele>
      </trkpt>
      <trkpt lat="44.83901" lon="4.57466">
        <ele>243.1</ele>
      </trkpt>
      <trkpt lat="44.83919" lon="4.57467">
        <ele>246.3</ele>
      </trkpt>
      <trkpt lat="44.83926" lon="4.57469">
        <ele>246.6</ele>
      </trkpt>
      <trkpt lat="44.83953" lon="4.57482">
        <ele>247.5</ele>
      </trkpt>
      <trkpt lat="44.8399" lon="4.57504">
        <ele>258</ele>
      </trkpt>
      <trkpt lat="44.84014" lon="4.57518">
        <ele>258.9</ele>
      </trkpt>
      <trkpt lat="44.8403" lon="4.57526">
        <ele>260.4</ele>
      </trkpt>
      <trkpt lat="44.84058" lon="4.57532">
        <ele>259.8</ele>
      </trkpt>
      <trkpt lat="44.84085" lon="4.57528">
        <ele>259.8</ele>
      </trkpt>
      <trkpt lat="44.84099" lon="4.57521">
        <ele>259</ele>
      </trkpt>
      <trkpt lat="44.84139" lon="4.57494">
        <ele>248.2</ele>
      </trkpt>
      <trkpt lat="44.84164" lon="4.57474">
        <ele>248.1</ele>
      </trkpt>
      <trkpt lat="44.84194" lon="4.57439">
        <ele>252.6</ele>
      </trkpt>
      <trkpt lat="44.84264" lon="4.57331">
        <ele>241.9</ele>
      </trkpt>
      <trkpt lat="44.8428" lon="4.57315">
        <ele>243.5</ele>
      </trkpt>
      <trkpt lat="44.84318" lon="4.57285">
        <ele>244</ele>
      </trkpt>
      <trkpt lat="44.84336" lon="4.57274">
        <ele>249.8</ele>
      </trkpt>
      <trkpt lat="44.84371" lon="4.57249">
        <ele>242.9</ele>
      </trkpt>
      <trkpt lat="44.84409" lon="4.57222">
        <ele>245</ele>
      </trkpt>
      <trkpt lat="44.84442" lon="4.57192">
        <ele>244</ele>
      </trkpt>
      <trkpt lat="44.84453" lon="4.57174">
        <ele>242.8</ele>
      </trkpt>
      <trkpt lat="44.84491" lon="4.5712">
        <ele>240.2</ele>
      </trkpt>
      <trkpt lat="44.8451" lon="4.57088">
        <ele>241.6</ele>
      </trkpt>
      <trkpt lat="44.84531" lon="4.57064">
        <ele>255.8</ele>
      </trkpt>
      <trkpt lat="44.84541" lon="4.57058">
        <ele>257.2</ele>
      </trkpt>
      <trkpt lat="44.84559" lon="4.57054">
        <ele>257.4</ele>
      </trkpt>
      <trkpt lat="44.84623" lon="4.57052">
        <ele>255.2</ele>
      </trkpt>
      <trkpt lat="44.84649" lon="4.57047">
        <ele>255.3</ele>
      </trkpt>
      <trkpt lat="44.84669" lon="4.57039">
        <ele>253.9</ele>
      </trkpt>
      <trkpt lat="44.84818" lon="4.56962">
        <ele>256.3</ele>
      </trkpt>
      <trkpt lat="44.84859" lon="4.56945">
        <ele>254.2</ele>
      </trkpt>
      <trkpt lat="44.84885" lon="4.56929">
        <ele>255.3</ele>
      </trkpt>
      <trkpt lat="44.84914" lon="4.56921">
        <ele>258.7</ele>
      </trkpt>
      <trkpt lat="44.84938" lon="4.56925">
        <ele>256.6</ele>
      </trkpt>
      <trkpt lat="44.85001" lon="4.56967">
        <ele>253.8</ele>
      </trkpt>
      <trkpt lat="44.85017" lon="4.56976">
        <ele>253.1</ele>
      </trkpt>
      <trkpt lat="44.85029" lon="4.56981">
        <ele>253.3</ele>
      </trkpt>
      <trkpt lat="44.85039" lon="4.56982">
        <ele>253.6</ele>
      </trkpt>
      <trkpt lat="44.85053" lon="4.56983">
        <ele>253.7</ele>
      </trkpt>
      <trkpt lat="44.85084" lon="4.56974">
        <ele>252.5</ele>
      </trkpt>
      <trkpt lat="44.85109" lon="4.56954">
        <ele>253.7</ele>
      </trkpt>
      <trkpt lat="44.85211" lon="4.56832">
        <ele>260.7</ele>
      </trkpt>
      <trkpt lat="44.85224" lon="4.56813">
        <ele>259.7</ele>
      </trkpt>
      <trkpt lat="44.85232" lon="4.56795">
        <ele>260.2</ele>
      </trkpt>
      <trkpt lat="44.85246" lon="4.56757">
        <ele>259.1</ele>
      </trkpt>
      <trkpt lat="44.85253" lon="4.56718">
        <ele>257.2</ele>
      </trkpt>
      <trkpt lat="44.85254" lon="4.56693">
        <ele>257.6</ele>
      </trkpt>
      <trkpt lat="44.85246" lon="4.5659">
        <ele>267.4</ele>
      </trkpt>
      <trkpt lat="44.85246" lon="4.5658">
        <ele>266.6</ele>
      </trkpt>
      <trkpt lat="44.85249" lon="4.56557">
        <ele>271.1</ele>
      </trkpt>
      <trkpt lat="44.85256" lon="4.56537">
        <ele>258.5</ele>
      </trkpt>
      <trkpt lat="44.85261" lon="4.56525">
        <ele>257.7</ele>
      </trkpt>
      <trkpt lat="44.85298" lon="4.56463">
        <ele>259.8</ele>
      </trkpt>
      <trkpt lat="44.85306" lon="4.56448">
        <ele>260.8</ele>
      </trkpt>
      <trkpt lat="44.85311" lon="4.56431">
        <ele>262.4</ele>
      </trkpt>
      <trkpt lat="44.85313" lon="4.56425">
        <ele>263.2</ele>
      </trkpt>
      <trkpt lat="44.85317" lon="4.56391">
        <ele>263.4</ele>
      </trkpt>
      <trkpt lat="44.8532" lon="4.5636">
        <ele>264.1</ele>
      </trkpt>
      <trkpt lat="44.85322" lon="4.56323">
        <ele>265.4</ele>
      </trkpt>
      <trkpt lat="44.85324" lon="4.56309">
        <ele>263.1</ele>
      </trkpt>
      <trkpt lat="44.85327" lon="4.56296">
        <ele>261.5</ele>
      </trkpt>
      <trkpt lat="44.85333" lon="4.56282">
        <ele>260.7</ele>
      </trkpt>
      <trkpt lat="44.85344" lon="4.5626">
        <ele>267.3</ele>
      </trkpt>
      <trkpt lat="44.85351" lon="4.5625">
        <ele>263.3</ele>
      </trkpt>
      <trkpt lat="44.85374" lon="4.56232">
        <ele>260.7</ele>
      </trkpt>
      <trkpt lat="44.85389" lon="4.56225">
        <ele>261.3</ele>
      </trkpt>
      <trkpt lat="44.85413" lon="4.56222">
        <ele>262.5</ele>
      </trkpt>
      <trkpt lat="44.85444" lon="4.5623">
        <ele>265.9</ele>
      </trkpt>
      <trkpt lat="44.8549" lon="4.56249">
        <ele>267.1</ele>
      </trkpt>
      <trkpt lat="44.8551" lon="4.56259">
        <ele>273.9</ele>
      </trkpt>
      <trkpt lat="44.85564" lon="4.563">
        <ele>282.7</ele>
      </trkpt>
      <trkpt lat="44.85584" lon="4.56309">
        <ele>282.2</ele>
      </trkpt>
      <trkpt lat="44.85607" lon="4.56314">
        <ele>281.8</ele>
      </trkpt>
      <trkpt lat="44.85626" lon="4.56314">
        <ele>280.9</ele>
      </trkpt>
      <trkpt lat="44.85643" lon="4.56308">
        <ele>280.5</ele>
      </trkpt>
      <trkpt lat="44.85655" lon="4.56301">
        <ele>279.6</ele>
      </trkpt>
      <trkpt lat="44.85674" lon="4.56283">
        <ele>285.3</ele>
      </trkpt>
      <trkpt lat="44.85694" lon="4.56249">
        <ele>274.3</ele>
      </trkpt>
      <trkpt lat="44.85715" lon="4.56206">
        <ele>276.9</ele>
      </trkpt>
      <trkpt lat="44.85727" lon="4.56184">
        <ele>276.7</ele>
      </trkpt>
      <trkpt lat="44.85744" lon="4.56165">
        <ele>276.3</ele>
      </trkpt>
      <trkpt lat="44.85776" lon="4.56149">
        <ele>275</ele>
      </trkpt>
      <trkpt lat="44.85793" lon="4.56144">
        <ele>275.3</ele>
      </trkpt>
      <trkpt lat="44.85805" lon="4.56143">
        <ele>276</ele>
      </trkpt>
      <trkpt lat="44.85827" lon="4.56151">
        <ele>279.6</ele>
      </trkpt>
      <trkpt lat="44.85836" lon="4.56158">
        <ele>280.5</ele>
      </trkpt>
      <trkpt lat="44.85851" lon="4.56175">
        <ele>282.3</ele>
      </trkpt>
      <trkpt lat="44.85862" lon="4.56193">
        <ele>280.7</ele>
      </trkpt>
      <trkpt lat="44.85869" lon="4.56209">
        <ele>280.5</ele>
      </trkpt>
      <trkpt lat="44.85879" lon="4.56256">
        <ele>284.8</ele>
      </trkpt>
      <trkpt lat="44.85882" lon="4.56349">
        <ele>290</ele>
      </trkpt>
      <trkpt lat="44.85888" lon="4.56379">
        <ele>290.1</ele>
      </trkpt>
      <trkpt lat="44.85895" lon="4.56405">
        <ele>286.3</ele>
      </trkpt>
      <trkpt lat="44.85904" lon="4.56428">
        <ele>290.2</ele>
      </trkpt>
      <trkpt lat="44.85946" lon="4.56503">
        <ele>292.1</ele>
      </trkpt>
      <trkpt lat="44.85963" lon="4.56525">
        <ele>290.5</ele>
      </trkpt>
      <trkpt lat="44.8598" lon="4.56545">
        <ele>290.6</ele>
      </trkpt>
      <trkpt lat="44.86121" lon="4.56657">
        <ele>281.1</ele>
      </trkpt>
      <trkpt lat="44.86225" lon="4.56742">
        <ele>287.2</ele>
      </trkpt>
      <trkpt lat="44.86245" lon="4.56756">
        <ele>291.9</ele>
      </trkpt>
      <trkpt lat="44.8627" lon="4.56769">
        <ele>296.9</ele>
      </trkpt>
      <trkpt lat="44.86284" lon="4.56775">
        <ele>299.1</ele>
      </trkpt>
      <trkpt lat="44.86299" lon="4.56778">
        <ele>299.7</ele>
      </trkpt>
      <trkpt lat="44.86318" lon="4.56778">
        <ele>298.4</ele>
      </trkpt>
      <trkpt lat="44.86333" lon="4.56775">
        <ele>296.2</ele>
      </trkpt>
      <trkpt lat="44.86357" lon="4.56763">
        <ele>306.2</ele>
      </trkpt>
      <trkpt lat="44.86373" lon="4.5675">
        <ele>290.1</ele>
      </trkpt>
      <trkpt lat="44.86387" lon="4.56732">
        <ele>292.5</ele>
      </trkpt>
      <trkpt lat="44.86402" lon="4.56708">
        <ele>290.6</ele>
      </trkpt>
      <trkpt lat="44.86412" lon="4.56678">
        <ele>286.9</ele>
      </trkpt>
      <trkpt lat="44.86425" lon="4.56635">
        <ele>291.5</ele>
      </trkpt>
      <trkpt lat="44.86433" lon="4.56606">
        <ele>290.2</ele>
      </trkpt>
      <trkpt lat="44.86436" lon="4.56586">
        <ele>288.5</ele>
      </trkpt>
      <trkpt lat="44.86437" lon="4.56567">
        <ele>289.7</ele>
      </trkpt>
      <trkpt lat="44.86436" lon="4.5655">
        <ele>291.2</ele>
      </trkpt>
      <trkpt lat="44.86425" lon="4.56496">
        <ele>289.1</ele>
      </trkpt>
      <trkpt lat="44.86403" lon="4.56409">
        <ele>285.8</ele>
      </trkpt>
      <trkpt lat="44.86391" lon="4.56358">
        <ele>284.6</ele>
      </trkpt>
      <trkpt lat="44.86387" lon="4.56321">
        <ele>284.9</ele>
      </trkpt>
      <trkpt lat="44.86386" lon="4.56295">
        <ele>284</ele>
      </trkpt>
      <trkpt lat="44.864" lon="4.56178">
        <ele>284.8</ele>
      </trkpt>
      <trkpt lat="44.86399" lon="4.56137">
        <ele>288.6</ele>
      </trkpt>
      <trkpt lat="44.86393" lon="4.56072">
        <ele>297.5</ele>
      </trkpt>
      <trkpt lat="44.86395" lon="4.56031">
        <ele>298.8</ele>
      </trkpt>
      <trkpt lat="44.86421" lon="4.55859">
        <ele>313.5</ele>
      </trkpt>
      <trkpt lat="44.86422" lon="4.55821">
        <ele>304.4</ele>
      </trkpt>
      <trkpt lat="44.86421" lon="4.55804">
        <ele>311.4</ele>
      </trkpt>
      <trkpt lat="44.86414" lon="4.55759">
        <ele>298.2</ele>
      </trkpt>
      <trkpt lat="44.86403" lon="4.55705">
        <ele>298.6</ele>
      </trkpt>
      <trkpt lat="44.86371" lon="4.55606">
        <ele>296.6</ele>
      </trkpt>
      <trkpt lat="44.86365" lon="4.55584">
        <ele>294.4</ele>
      </trkpt>
      <trkpt lat="44.8636" lon="4.55531">
        <ele>294.2</ele>
      </trkpt>
      <trkpt lat="44.8636" lon="4.55494">
        <ele>289.8</ele>
      </trkpt>
      <trkpt lat="44.86365" lon="4.55455">
        <ele>291.1</ele>
      </trkpt>
      <trkpt lat="44.86377" lon="4.55416">
        <ele>288.7</ele>
      </trkpt>
      <trkpt lat="44.86383" lon="4.55402">
        <ele>289.5</ele>
      </trkpt>
      <trkpt lat="44.86397" lon="4.5538">
        <ele>289.7</ele>
      </trkpt>
      <trkpt lat="44.8641" lon="4.55361">
        <ele>288.7</ele>
      </trkpt>
      <trkpt lat="44.86424" lon="4.55348">
        <ele>293.3</ele>
      </trkpt>
      <trkpt lat="44.86441" lon="4.55336">
        <ele>294.7</ele>
      </trkpt>
      <trkpt lat="44.86456" lon="4.55328">
        <ele>287</ele>
      </trkpt>
      <trkpt lat="44.86473" lon="4.55325">
        <ele>288</ele>
      </trkpt>
      <trkpt lat="44.86487" lon="4.55325">
        <ele>289.8</ele>
      </trkpt>
      <trkpt lat="44.865" lon="4.5533">
        <ele>293.1</ele>
      </trkpt>
      <trkpt lat="44.86516" lon="4.55337">
        <ele>295.4</ele>
      </trkpt>
      <trkpt lat="44.8653" lon="4.55347">
        <ele>295.6</ele>
      </trkpt>
      <trkpt lat="44.86569" lon="4.55394">
        <ele>295.7</ele>
      </trkpt>
      <trkpt lat="44.86656" lon="4.55505">
        <ele>312.3</ele>
      </trkpt>
      <trkpt lat="44.86682" lon="4.55533">
        <ele>308.7</ele>
      </trkpt>
      <trkpt lat="44.86701" lon="4.55546">
        <ele>310.3</ele>
      </trkpt>
      <trkpt lat="44.86717" lon="4.55552">
        <ele>309.8</ele>
      </trkpt>
      <trkpt lat="44.86733" lon="4.55555">
        <ele>309.4</ele>
      </trkpt>
      <trkpt lat="44.86793" lon="4.55556">
        <ele>305.8</ele>
      </trkpt>
      <trkpt lat="44.86813" lon="4.55554">
        <ele>306.8</ele>
      </trkpt>
      <trkpt lat="44.86817" lon="4.55553">
        <ele>306.9</ele>
      </trkpt>
      <trkpt lat="44.86822" lon="4.55552">
        <ele>306.9</ele>
      </trkpt>
      <trkpt lat="44.86842" lon="4.55538">
        <ele>316.3</ele>
      </trkpt>
      <trkpt lat="44.86864" lon="4.55516">
        <ele>315.1</ele>
      </trkpt>
      <trkpt lat="44.86942" lon="4.55398">
        <ele>307</ele>
      </trkpt>
      <trkpt lat="44.8697" lon="4.55362">
        <ele>307.2</ele>
      </trkpt>
      <trkpt lat="44.86982" lon="4.5535">
        <ele>305.1</ele>
      </trkpt>
      <trkpt lat="44.87" lon="4.55336">
        <ele>299.2</ele>
      </trkpt>
      <trkpt lat="44.87027" lon="4.5532">
        <ele>305.7</ele>
      </trkpt>
      <trkpt lat="44.8706" lon="4.55306">
        <ele>310.7</ele>
      </trkpt>
      <trkpt lat="44.87088" lon="4.55291">
        <ele>323.3</ele>
      </trkpt>
      <trkpt lat="44.87102" lon="4.5528">
        <ele>322.2</ele>
      </trkpt>
      <trkpt lat="44.87113" lon="4.55269">
        <ele>322.1</ele>
      </trkpt>
      <trkpt lat="44.87127" lon="4.55249">
        <ele>310.7</ele>
      </trkpt>
      <trkpt lat="44.87135" lon="4.55234">
        <ele>311.6</ele>
      </trkpt>
      <trkpt lat="44.87187" lon="4.55129">
        <ele>309.7</ele>
      </trkpt>
      <trkpt lat="44.87192" lon="4.55119">
        <ele>309.6</ele>
      </trkpt>
      <trkpt lat="44.87203" lon="4.55093">
        <ele>309.2</ele>
      </trkpt>
      <trkpt lat="44.87214" lon="4.5507">
        <ele>304.1</ele>
      </trkpt>
      <trkpt lat="44.87238" lon="4.55034">
        <ele>303.4</ele>
      </trkpt>
      <trkpt lat="44.8725" lon="4.55021">
        <ele>307.6</ele>
      </trkpt>
      <trkpt lat="44.87263" lon="4.55008">
        <ele>306.5</ele>
      </trkpt>
      <trkpt lat="44.8729" lon="4.54989">
        <ele>302.1</ele>
      </trkpt>
      <trkpt lat="44.87315" lon="4.54978">
        <ele>303.4</ele>
      </trkpt>
      <trkpt lat="44.8735" lon="4.54962">
        <ele>309.2</ele>
      </trkpt>
      <trkpt lat="44.8737" lon="4.54953">
        <ele>310</ele>
      </trkpt>
      <trkpt lat="44.8738" lon="4.54945">
        <ele>310.4</ele>
      </trkpt>
      <trkpt lat="44.87398" lon="4.54927">
        <ele>311.4</ele>
      </trkpt>
      <trkpt lat="44.87415" lon="4.54901">
        <ele>308</ele>
      </trkpt>
      <trkpt lat="44.87465" lon="4.54816">
        <ele>321.9</ele>
      </trkpt>
      <trkpt lat="44.87475" lon="4.54795">
        <ele>321.9</ele>
      </trkpt>
      <trkpt lat="44.87517" lon="4.54672">
        <ele>330.7</ele>
      </trkpt>
      <trkpt lat="44.87524" lon="4.54642">
        <ele>331.8</ele>
      </trkpt>
      <trkpt lat="44.87527" lon="4.54621">
        <ele>333</ele>
      </trkpt>
      <trkpt lat="44.87525" lon="4.54585">
        <ele>328.6</ele>
      </trkpt>
      <trkpt lat="44.87515" lon="4.54514">
        <ele>326.7</ele>
      </trkpt>
      <trkpt lat="44.87474" lon="4.54339">
        <ele>317.4</ele>
      </trkpt>
      <trkpt lat="44.8745" lon="4.54219">
        <ele>316.6</ele>
      </trkpt>
      <trkpt lat="44.87449" lon="4.542">
        <ele>317</ele>
      </trkpt>
      <trkpt lat="44.87452" lon="4.54148">
        <ele>318.1</ele>
      </trkpt>
      <trkpt lat="44.8746" lon="4.54089">
        <ele>318.4</ele>
      </trkpt>
      <trkpt lat="44.87468" lon="4.54055">
        <ele>314.8</ele>
      </trkpt>
      <trkpt lat="44.87479" lon="4.54021">
        <ele>313.4</ele>
      </trkpt>
      <trkpt lat="44.87488" lon="4.54005">
        <ele>313.1</ele>
      </trkpt>
      <trkpt lat="44.87498" lon="4.53993">
        <ele>311.1</ele>
      </trkpt>
      <trkpt lat="44.87504" lon="4.53982">
        <ele>314.4</ele>
      </trkpt>
      <trkpt lat="44.87519" lon="4.5397">
        <ele>315</ele>
      </trkpt>
      <trkpt lat="44.87564" lon="4.53945">
        <ele>316.7</ele>
      </trkpt>
      <trkpt lat="44.87586" lon="4.5393">
        <ele>327</ele>
      </trkpt>
      <trkpt lat="44.87607" lon="4.53908">
        <ele>322.2</ele>
      </trkpt>
      <trkpt lat="44.87721" lon="4.53762">
        <ele>331.2</ele>
      </trkpt>
      <trkpt lat="44.87769" lon="4.53704">
        <ele>335.6</ele>
      </trkpt>
      <trkpt lat="44.8778" lon="4.53689">
        <ele>335.5</ele>
      </trkpt>
      <trkpt lat="44.87789" lon="4.53669">
        <ele>336.3</ele>
      </trkpt>
      <trkpt lat="44.87828" lon="4.53554">
        <ele>329.1</ele>
      </trkpt>
      <trkpt lat="44.87847" lon="4.53465">
        <ele>338.5</ele>
      </trkpt>
      <trkpt lat="44.87895" lon="4.53194">
        <ele>329.5</ele>
      </trkpt>
      <trkpt lat="44.87917" lon="4.53157">
        <ele>329.2</ele>
      </trkpt>
      <trkpt lat="44.87943" lon="4.53133">
        <ele>330.8</ele>
      </trkpt>
      <trkpt lat="44.87963" lon="4.53125">
        <ele>331.9</ele>
      </trkpt>
      <trkpt lat="44.87982" lon="4.53124">
        <ele>333.4</ele>
      </trkpt>
      <trkpt lat="44.88003" lon="4.53128">
        <ele>339</ele>
      </trkpt>
      <trkpt lat="44.88032" lon="4.53149">
        <ele>340.8</ele>
      </trkpt>
      <trkpt lat="44.88075" lon="4.53202">
        <ele>359.3</ele>
      </trkpt>
      <trkpt lat="44.88094" lon="4.53213">
        <ele>352.5</ele>
      </trkpt>
      <trkpt lat="44.88114" lon="4.53219">
        <ele>351.3</ele>
      </trkpt>
      <trkpt lat="44.8814" lon="4.53218">
        <ele>347.1</ele>
      </trkpt>
      <trkpt lat="44.88157" lon="4.53208">
        <ele>344</ele>
      </trkpt>
      <trkpt lat="44.88174" lon="4.53195">
        <ele>343.6</ele>
      </trkpt>
      <trkpt lat="44.88187" lon="4.53179">
        <ele>342.9</ele>
      </trkpt>
      <trkpt lat="44.882" lon="4.53153">
        <ele>342.6</ele>
      </trkpt>
      <trkpt lat="44.88257" lon="4.52943">
        <ele>349.7</ele>
      </trkpt>
      <trkpt lat="44.88343" lon="4.52722">
        <ele>358.5</ele>
      </trkpt>
      <trkpt lat="44.88351" lon="4.52693">
        <ele>357.8</ele>
      </trkpt>
      <trkpt lat="44.88355" lon="4.52657">
        <ele>352.9</ele>
      </trkpt>
      <trkpt lat="44.88356" lon="4.52616">
        <ele>356.9</ele>
      </trkpt>
      <trkpt lat="44.88351" lon="4.52583">
        <ele>354.3</ele>
      </trkpt>
      <trkpt lat="44.88342" lon="4.5255">
        <ele>360.6</ele>
      </trkpt>
      <trkpt lat="44.88331" lon="4.52524">
        <ele>343.6</ele>
      </trkpt>
      <trkpt lat="44.88312" lon="4.52496">
        <ele>351.5</ele>
      </trkpt>
      <trkpt lat="44.88297" lon="4.52479">
        <ele>351.3</ele>
      </trkpt>
      <trkpt lat="44.8828" lon="4.52467">
        <ele>350.3</ele>
      </trkpt>
      <trkpt lat="44.88253" lon="4.52454">
        <ele>349.3</ele>
      </trkpt>
      <trkpt lat="44.88199" lon="4.52433">
        <ele>336.8</ele>
      </trkpt>
      <trkpt lat="44.88181" lon="4.52421">
        <ele>336.6</ele>
      </trkpt>
      <trkpt lat="44.88168" lon="4.52408">
        <ele>341.9</ele>
      </trkpt>
      <trkpt lat="44.88158" lon="4.52395">
        <ele>336.9</ele>
      </trkpt>
      <trkpt lat="44.88148" lon="4.52382">
        <ele>337.1</ele>
      </trkpt>
      <trkpt lat="44.88142" lon="4.52366">
        <ele>337.9</ele>
      </trkpt>
      <trkpt lat="44.88141" lon="4.52363">
        <ele>338.1</ele>
      </trkpt>
      <trkpt lat="44.88137" lon="4.52345">
        <ele>339.1</ele>
      </trkpt>
      <trkpt lat="44.88134" lon="4.52314">
        <ele>341.1</ele>
      </trkpt>
      <trkpt lat="44.88136" lon="4.52287">
        <ele>340.9</ele>
      </trkpt>
      <trkpt lat="44.88139" lon="4.52267">
        <ele>341.5</ele>
      </trkpt>
      <trkpt lat="44.88146" lon="4.52249">
        <ele>343.9</ele>
      </trkpt>
      <trkpt lat="44.88227" lon="4.52096">
        <ele>353.8</ele>
      </trkpt>
      <trkpt lat="44.88353" lon="4.51864">
        <ele>355.1</ele>
      </trkpt>
      <trkpt lat="44.88378" lon="4.51834">
        <ele>357.4</ele>
      </trkpt>
      <trkpt lat="44.88431" lon="4.51786">
        <ele>360.6</ele>
      </trkpt>
      <trkpt lat="44.88444" lon="4.51772">
        <ele>360.4</ele>
      </trkpt>
      <trkpt lat="44.8845" lon="4.51764">
        <ele>361</ele>
      </trkpt>
      <trkpt lat="44.88467" lon="4.51731">
        <ele>354.7</ele>
      </trkpt>
      <trkpt lat="44.88476" lon="4.51699">
        <ele>353.4</ele>
      </trkpt>
      <trkpt lat="44.88488" lon="4.51625">
        <ele>348.2</ele>
      </trkpt>
      <trkpt lat="44.88489" lon="4.51598">
        <ele>349.7</ele>
      </trkpt>
      <trkpt lat="44.88488" lon="4.51577">
        <ele>352.5</ele>
      </trkpt>
      <trkpt lat="44.88484" lon="4.51555">
        <ele>351.8</ele>
      </trkpt>
      <trkpt lat="44.88478" lon="4.51534">
        <ele>352.9</ele>
      </trkpt>
      <trkpt lat="44.8847" lon="4.51514">
        <ele>353.7</ele>
      </trkpt>
      <trkpt lat="44.8846" lon="4.51497">
        <ele>363.1</ele>
      </trkpt>
      <trkpt lat="44.8844" lon="4.51475">
        <ele>361.2</ele>
      </trkpt>
      <trkpt lat="44.88427" lon="4.51464">
        <ele>361.9</ele>
      </trkpt>
      <trkpt lat="44.88411" lon="4.51455">
        <ele>356</ele>
      </trkpt>
      <trkpt lat="44.88397" lon="4.5145">
        <ele>356.9</ele>
      </trkpt>
      <trkpt lat="44.88383" lon="4.51449">
        <ele>356.9</ele>
      </trkpt>
      <trkpt lat="44.88366" lon="4.51451">
        <ele>356.6</ele>
      </trkpt>
      <trkpt lat="44.8834" lon="4.51462">
        <ele>354.4</ele>
      </trkpt>
      <trkpt lat="44.88346" lon="4.51451">
        <ele>357.1</ele>
      </trkpt>
      <trkpt lat="44.88366" lon="4.5144">
        <ele>358.4</ele>
      </trkpt>
      <trkpt lat="44.88367" lon="4.51432">
        <ele>359.5</ele>
      </trkpt>
      <trkpt lat="44.88362" lon="4.5143">
        <ele>360.2</ele>
      </trkpt>
      <trkpt lat="44.88341" lon="4.51435">
        <ele>361.6</ele>
      </trkpt>
      <trkpt lat="44.8833" lon="4.51447">
        <ele>360.7</ele>
      </trkpt>
      <trkpt lat="44.88318" lon="4.51458">
        <ele>358.3</ele>
      </trkpt>
      <trkpt lat="44.88293" lon="4.51468">
        <ele>357.6</ele>
      </trkpt>
      <trkpt lat="44.88269" lon="4.51476">
        <ele>356.9</ele>
      </trkpt>
      <trkpt lat="44.88264" lon="4.51476">
        <ele>356.8</ele>
      </trkpt>
      <trkpt lat="44.88231" lon="4.51466">
        <ele>357.8</ele>
      </trkpt>
      <trkpt lat="44.88201" lon="4.51454">
        <ele>357.8</ele>
      </trkpt>
      <trkpt lat="44.88196" lon="4.51449">
        <ele>358</ele>
      </trkpt>
      <trkpt lat="44.88195" lon="4.51444">
        <ele>358.4</ele>
      </trkpt>
      <trkpt lat="44.88195" lon="4.51438">
        <ele>358.8</ele>
      </trkpt>
      <trkpt lat="44.88191" lon="4.51438">
        <ele>358.6</ele>
      </trkpt>
      <trkpt lat="44.88177" lon="4.51432">
        <ele>358.4</ele>
      </trkpt>
      <trkpt lat="44.88178" lon="4.51353">
        <ele>362.9</ele>
      </trkpt>
      <trkpt lat="44.88195" lon="4.51271">
        <ele>360.7</ele>
      </trkpt>
      <trkpt lat="44.88195" lon="4.51264">
        <ele>360.2</ele>
      </trkpt>
      <trkpt lat="44.88191" lon="4.51262">
        <ele>359.3</ele>
      </trkpt>
      <trkpt lat="44.88184" lon="4.51268">
        <ele>358.6</ele>
      </trkpt>
      <trkpt lat="44.88177" lon="4.51262">
        <ele>356.3</ele>
      </trkpt>
      <trkpt lat="44.88238" lon="4.51196">
        <ele>355.6</ele>
      </trkpt>
      <trkpt lat="44.88246" lon="4.51187">
        <ele>355.3</ele>
      </trkpt>
      <trkpt lat="44.88263" lon="4.51166">
        <ele>355.7</ele>
      </trkpt>
      <trkpt lat="44.88278" lon="4.51149">
        <ele>356.3</ele>
      </trkpt>
      <trkpt lat="44.88292" lon="4.51138">
        <ele>356.8</ele>
      </trkpt>
      <trkpt lat="44.88346" lon="4.51118">
        <ele>362.7</ele>
      </trkpt>
      <trkpt lat="44.88588" lon="4.51092">
        <ele>366.6</ele>
      </trkpt>
      <trkpt lat="44.8862" lon="4.51087">
        <ele>376.5</ele>
      </trkpt>
      <trkpt lat="44.8864" lon="4.51082">
        <ele>365.2</ele>
      </trkpt>
      <trkpt lat="44.88769" lon="4.51027">
        <ele>375.9</ele>
      </trkpt>
      <trkpt lat="44.88826" lon="4.51005">
        <ele>372.2</ele>
      </trkpt>
      <trkpt lat="44.88865" lon="4.50983">
        <ele>371.7</ele>
      </trkpt>
      <trkpt lat="44.88879" lon="4.50971">
        <ele>372.5</ele>
      </trkpt>
      <trkpt lat="44.89003" lon="4.50873">
        <ele>383</ele>
      </trkpt>
      <trkpt lat="44.89018" lon="4.50858">
        <ele>381.2</ele>
      </trkpt>
      <trkpt lat="44.8905" lon="4.5082">
        <ele>374</ele>
      </trkpt>
      <trkpt lat="44.89069" lon="4.50801">
        <ele>374</ele>
      </trkpt>
      <trkpt lat="44.89112" lon="4.50764">
        <ele>379.3</ele>
      </trkpt>
      <trkpt lat="44.89128" lon="4.50747">
        <ele>370.8</ele>
      </trkpt>
      <trkpt lat="44.89138" lon="4.50729">
        <ele>372.2</ele>
      </trkpt>
      <trkpt lat="44.89148" lon="4.50707">
        <ele>372.6</ele>
      </trkpt>
      <trkpt lat="44.89153" lon="4.50687">
        <ele>373.9</ele>
      </trkpt>
      <trkpt lat="44.89156" lon="4.50662">
        <ele>376</ele>
      </trkpt>
      <trkpt lat="44.89158" lon="4.50639">
        <ele>373</ele>
      </trkpt>
      <trkpt lat="44.89155" lon="4.50577">
        <ele>378.4</ele>
      </trkpt>
      <trkpt lat="44.89152" lon="4.50547">
        <ele>377.1</ele>
      </trkpt>
      <trkpt lat="44.89147" lon="4.50526">
        <ele>378.5</ele>
      </trkpt>
      <trkpt lat="44.89146" lon="4.5052">
        <ele>379.1</ele>
      </trkpt>
      <trkpt lat="44.89141" lon="4.50504">
        <ele>379.5</ele>
      </trkpt>
      <trkpt lat="44.89133" lon="4.50488">
        <ele>386.7</ele>
      </trkpt>
      <trkpt lat="44.89113" lon="4.50458">
        <ele>385.7</ele>
      </trkpt>
      <trkpt lat="44.89073" lon="4.50417">
        <ele>373.2</ele>
      </trkpt>
      <trkpt lat="44.89052" lon="4.50393">
        <ele>377</ele>
      </trkpt>
      <trkpt lat="44.89004" lon="4.50329">
        <ele>378.2</ele>
      </trkpt>
      <trkpt lat="44.88965" lon="4.50265">
        <ele>376.5</ele>
      </trkpt>
      <trkpt lat="44.88935" lon="4.5022">
        <ele>385.7</ele>
      </trkpt>
      <trkpt lat="44.88913" lon="4.50177">
        <ele>377.5</ele>
      </trkpt>
      <trkpt lat="44.88905" lon="4.50155">
        <ele>378.3</ele>
      </trkpt>
      <trkpt lat="44.88898" lon="4.50131">
        <ele>376.3</ele>
      </trkpt>
      <trkpt lat="44.88887" lon="4.5008">
        <ele>379</ele>
      </trkpt>
      <trkpt lat="44.8888" lon="4.50021">
        <ele>377.5</ele>
      </trkpt>
      <trkpt lat="44.88871" lon="4.49855">
        <ele>380.9</ele>
      </trkpt>
      <trkpt lat="44.88871" lon="4.49826">
        <ele>381.1</ele>
      </trkpt>
      <trkpt lat="44.88874" lon="4.49804">
        <ele>381.5</ele>
      </trkpt>
      <trkpt lat="44.88878" lon="4.49783">
        <ele>381.4</ele>
      </trkpt>
      <trkpt lat="44.88889" lon="4.49749">
        <ele>379.3</ele>
      </trkpt>
      <trkpt lat="44.88901" lon="4.49717">
        <ele>378.4</ele>
      </trkpt>
      <trkpt lat="44.88912" lon="4.49672">
        <ele>376.8</ele>
      </trkpt>
      <trkpt lat="44.88913" lon="4.49655">
        <ele>374.7</ele>
      </trkpt>
      <trkpt lat="44.88908" lon="4.49567">
        <ele>371.6</ele>
      </trkpt>
      <trkpt lat="44.88911" lon="4.49538">
        <ele>370.7</ele>
      </trkpt>
      <trkpt lat="44.88916" lon="4.49518">
        <ele>372.2</ele>
      </trkpt>
      <trkpt lat="44.88922" lon="4.49498">
        <ele>376.4</ele>
      </trkpt>
      <trkpt lat="44.88933" lon="4.49475">
        <ele>376.6</ele>
      </trkpt>
      <trkpt lat="44.88957" lon="4.49451">
        <ele>376</ele>
      </trkpt>
      <trkpt lat="44.88975" lon="4.49442">
        <ele>375.3</ele>
      </trkpt>
      <trkpt lat="44.8899" lon="4.49439">
        <ele>374.4</ele>
      </trkpt>
      <trkpt lat="44.88996" lon="4.49439">
        <ele>374.3</ele>
      </trkpt>
      <trkpt lat="44.89009" lon="4.4944">
        <ele>376.6</ele>
      </trkpt>
      <trkpt lat="44.89029" lon="4.49447">
        <ele>378.9</ele>
      </trkpt>
      <trkpt lat="44.89132" lon="4.49488">
        <ele>387.1</ele>
      </trkpt>
      <trkpt lat="44.89301" lon="4.49515">
        <ele>399.3</ele>
      </trkpt>
      <trkpt lat="44.89328" lon="4.49518">
        <ele>396.4</ele>
      </trkpt>
      <trkpt lat="44.89346" lon="4.49515">
        <ele>400.1</ele>
      </trkpt>
      <trkpt lat="44.89356" lon="4.49512">
        <ele>402.2</ele>
      </trkpt>
      <trkpt lat="44.89366" lon="4.49507">
        <ele>403.8</ele>
      </trkpt>
      <trkpt lat="44.89379" lon="4.49495">
        <ele>385.1</ele>
      </trkpt>
      <trkpt lat="44.89388" lon="4.49484">
        <ele>385.5</ele>
      </trkpt>
      <trkpt lat="44.89399" lon="4.49471">
        <ele>385.2</ele>
      </trkpt>
      <trkpt lat="44.89405" lon="4.49455">
        <ele>383.5</ele>
      </trkpt>
      <trkpt lat="44.89409" lon="4.49445">
        <ele>382.6</ele>
      </trkpt>
      <trkpt lat="44.89415" lon="4.49425">
        <ele>381.4</ele>
      </trkpt>
      <trkpt lat="44.89417" lon="4.49414">
        <ele>383.5</ele>
      </trkpt>
      <trkpt lat="44.89418" lon="4.49388">
        <ele>396.3</ele>
      </trkpt>
      <trkpt lat="44.89416" lon="4.49367">
        <ele>384.5</ele>
      </trkpt>
      <trkpt lat="44.89412" lon="4.49347">
        <ele>388.4</ele>
      </trkpt>
      <trkpt lat="44.89406" lon="4.49331">
        <ele>393.7</ele>
      </trkpt>
      <trkpt lat="44.89381" lon="4.49284">
        <ele>394.5</ele>
      </trkpt>
      <trkpt lat="44.89366" lon="4.49251">
        <ele>393.6</ele>
      </trkpt>
      <trkpt lat="44.8936" lon="4.49219">
        <ele>398</ele>
      </trkpt>
      <trkpt lat="44.8936" lon="4.49203">
        <ele>398.5</ele>
      </trkpt>
      <trkpt lat="44.8936" lon="4.49188">
        <ele>398.4</ele>
      </trkpt>
      <trkpt lat="44.89368" lon="4.49145">
        <ele>394.9</ele>
      </trkpt>
      <trkpt lat="44.89374" lon="4.49129">
        <ele>394.3</ele>
      </trkpt>
      <trkpt lat="44.89381" lon="4.49112">
        <ele>393.2</ele>
      </trkpt>
      <trkpt lat="44.89392" lon="4.49096">
        <ele>392.2</ele>
      </trkpt>
      <trkpt lat="44.89404" lon="4.49084">
        <ele>390.9</ele>
      </trkpt>
      <trkpt lat="44.89414" lon="4.49078">
        <ele>388.3</ele>
      </trkpt>
      <trkpt lat="44.89437" lon="4.49071">
        <ele>389.3</ele>
      </trkpt>
      <trkpt lat="44.8945" lon="4.49069">
        <ele>389.6</ele>
      </trkpt>
      <trkpt lat="44.89484" lon="4.49075">
        <ele>392.1</ele>
      </trkpt>
      <trkpt lat="44.89512" lon="4.49082">
        <ele>393.6</ele>
      </trkpt>
      <trkpt lat="44.89552" lon="4.49088">
        <ele>406.3</ele>
      </trkpt>
      <trkpt lat="44.89572" lon="4.49085">
        <ele>401.9</ele>
      </trkpt>
      <trkpt lat="44.89592" lon="4.4908">
        <ele>397.7</ele>
      </trkpt>
      <trkpt lat="44.89618" lon="4.49064">
        <ele>401.5</ele>
      </trkpt>
      <trkpt lat="44.8963" lon="4.49055">
        <ele>402.7</ele>
      </trkpt>
      <trkpt lat="44.89642" lon="4.49041">
        <ele>402.2</ele>
      </trkpt>
      <trkpt lat="44.89662" lon="4.49013">
        <ele>399</ele>
      </trkpt>
      <trkpt lat="44.89674" lon="4.48985">
        <ele>406</ele>
      </trkpt>
      <trkpt lat="44.89686" lon="4.48931">
        <ele>406.8</ele>
      </trkpt>
      <trkpt lat="44.89689" lon="4.48897">
        <ele>403.5</ele>
      </trkpt>
      <trkpt lat="44.89688" lon="4.48872">
        <ele>403.9</ele>
      </trkpt>
      <trkpt lat="44.8969" lon="4.48846">
        <ele>402</ele>
      </trkpt>
      <trkpt lat="44.89693" lon="4.48825">
        <ele>395.9</ele>
      </trkpt>
      <trkpt lat="44.89711" lon="4.48782">
        <ele>395.6</ele>
      </trkpt>
      <trkpt lat="44.89724" lon="4.48765">
        <ele>394.8</ele>
      </trkpt>
      <trkpt lat="44.89753" lon="4.48742">
        <ele>390.8</ele>
      </trkpt>
      <trkpt lat="44.89769" lon="4.48737">
        <ele>389.7</ele>
      </trkpt>
      <trkpt lat="44.89788" lon="4.48736">
        <ele>389.4</ele>
      </trkpt>
      <trkpt lat="44.89806" lon="4.48741">
        <ele>390.2</ele>
      </trkpt>
      <trkpt lat="44.89839" lon="4.48754">
        <ele>399.3</ele>
      </trkpt>
      <trkpt lat="44.89855" lon="4.48758">
        <ele>405.4</ele>
      </trkpt>
      <trkpt lat="44.89877" lon="4.48755">
        <ele>408.4</ele>
      </trkpt>
      <trkpt lat="44.89894" lon="4.48748">
        <ele>397.9</ele>
      </trkpt>
      <trkpt lat="44.89904" lon="4.48741">
        <ele>399.6</ele>
      </trkpt>
      <trkpt lat="44.89915" lon="4.48732">
        <ele>398.7</ele>
      </trkpt>
      <trkpt lat="44.89925" lon="4.4872">
        <ele>406.7</ele>
      </trkpt>
      <trkpt lat="44.89936" lon="4.48704">
        <ele>405.2</ele>
      </trkpt>
      <trkpt lat="44.90001" lon="4.48578">
        <ele>391.8</ele>
      </trkpt>
      <trkpt lat="44.90017" lon="4.48558">
        <ele>393.5</ele>
      </trkpt>
      <trkpt lat="44.90044" lon="4.48535">
        <ele>394.2</ele>
      </trkpt>
      <trkpt lat="44.9006" lon="4.48528">
        <ele>394.2</ele>
      </trkpt>
      <trkpt lat="44.90069" lon="4.48527">
        <ele>394.2</ele>
      </trkpt>
      <trkpt lat="44.901" lon="4.48527">
        <ele>396.2</ele>
      </trkpt>
      <trkpt lat="44.9013" lon="4.48541">
        <ele>397.3</ele>
      </trkpt>
      <trkpt lat="44.90145" lon="4.48553">
        <ele>397.6</ele>
      </trkpt>
      <trkpt lat="44.90156" lon="4.48566">
        <ele>397.9</ele>
      </trkpt>
      <trkpt lat="44.90208" lon="4.48643">
        <ele>409.8</ele>
      </trkpt>
      <trkpt lat="44.90225" lon="4.48661">
        <ele>408.9</ele>
      </trkpt>
      <trkpt lat="44.90239" lon="4.48671">
        <ele>419</ele>
      </trkpt>
      <trkpt lat="44.90251" lon="4.48677">
        <ele>411.9</ele>
      </trkpt>
      <trkpt lat="44.90267" lon="4.48681">
        <ele>414.9</ele>
      </trkpt>
      <trkpt lat="44.903" lon="4.48682">
        <ele>414.5</ele>
      </trkpt>
      <trkpt lat="44.90367" lon="4.4868">
        <ele>408.9</ele>
      </trkpt>
      <trkpt lat="44.90391" lon="4.48671">
        <ele>408.2</ele>
      </trkpt>
      <trkpt lat="44.90416" lon="4.48657">
        <ele>400.1</ele>
      </trkpt>
      <trkpt lat="44.90433" lon="4.48642">
        <ele>401.5</ele>
      </trkpt>
      <trkpt lat="44.90474" lon="4.48607">
        <ele>401.2</ele>
      </trkpt>
      <trkpt lat="44.90494" lon="4.4859">
        <ele>401.1</ele>
      </trkpt>
      <trkpt lat="44.9054" lon="4.48544">
        <ele>403.5</ele>
      </trkpt>
      <trkpt lat="44.90558" lon="4.4851">
        <ele>403.6</ele>
      </trkpt>
      <trkpt lat="44.90569" lon="4.4848">
        <ele>398.8</ele>
      </trkpt>
      <trkpt lat="44.90573" lon="4.48464">
        <ele>397.5</ele>
      </trkpt>
      <trkpt lat="44.90576" lon="4.48433">
        <ele>397</ele>
      </trkpt>
      <trkpt lat="44.90577" lon="4.48412">
        <ele>398</ele>
      </trkpt>
      <trkpt lat="44.90577" lon="4.48393">
        <ele>397.2</ele>
      </trkpt>
      <trkpt lat="44.90571" lon="4.48304">
        <ele>403</ele>
      </trkpt>
      <trkpt lat="44.90563" lon="4.48178">
        <ele>408.3</ele>
      </trkpt>
      <trkpt lat="44.90557" lon="4.48146">
        <ele>408.5</ele>
      </trkpt>
      <trkpt lat="44.90537" lon="4.4809">
        <ele>405.3</ele>
      </trkpt>
      <trkpt lat="44.90534" lon="4.48073">
        <ele>406.7</ele>
      </trkpt>
      <trkpt lat="44.90534" lon="4.48042">
        <ele>407.9</ele>
      </trkpt>
      <trkpt lat="44.90533" lon="4.48027">
        <ele>407.9</ele>
      </trkpt>
      <trkpt lat="44.90532" lon="4.48013">
        <ele>407.6</ele>
      </trkpt>
      <trkpt lat="44.90538" lon="4.47986">
        <ele>405.6</ele>
      </trkpt>
      <trkpt lat="44.90547" lon="4.47962">
        <ele>405.4</ele>
      </trkpt>
      <trkpt lat="44.90564" lon="4.47937">
        <ele>404.8</ele>
      </trkpt>
      <trkpt lat="44.90583" lon="4.47919">
        <ele>404.1</ele>
      </trkpt>
      <trkpt lat="44.90615" lon="4.47905">
        <ele>401.9</ele>
      </trkpt>
      <trkpt lat="44.90643" lon="4.47892">
        <ele>402.4</ele>
      </trkpt>
      <trkpt lat="44.90651" lon="4.47887">
        <ele>402.3</ele>
      </trkpt>
      <trkpt lat="44.90667" lon="4.47873">
        <ele>407.2</ele>
      </trkpt>
      <trkpt lat="44.90678" lon="4.47861">
        <ele>406.3</ele>
      </trkpt>
      <trkpt lat="44.90697" lon="4.47835">
        <ele>406.7</ele>
      </trkpt>
      <trkpt lat="44.90748" lon="4.4777">
        <ele>405.8</ele>
      </trkpt>
      <trkpt lat="44.90765" lon="4.47741">
        <ele>413.9</ele>
      </trkpt>
      <trkpt lat="44.90778" lon="4.47707">
        <ele>417.1</ele>
      </trkpt>
      <trkpt lat="44.90813" lon="4.47594">
        <ele>416.2</ele>
      </trkpt>
      <trkpt lat="44.90853" lon="4.47456">
        <ele>427.5</ele>
      </trkpt>
      <trkpt lat="44.90857" lon="4.47422">
        <ele>424.2</ele>
      </trkpt>
      <trkpt lat="44.90854" lon="4.4735">
        <ele>417.7</ele>
      </trkpt>
      <trkpt lat="44.90858" lon="4.4732">
        <ele>415</ele>
      </trkpt>
      <trkpt lat="44.90863" lon="4.47296">
        <ele>416.5</ele>
      </trkpt>
      <trkpt lat="44.9087" lon="4.47279">
        <ele>417.1</ele>
      </trkpt>
      <trkpt lat="44.90873" lon="4.47266">
        <ele>417.2</ele>
      </trkpt>
      <trkpt lat="44.90892" lon="4.47224">
        <ele>416.2</ele>
      </trkpt>
      <trkpt lat="44.90893" lon="4.47219">
        <ele>416</ele>
      </trkpt>
      <trkpt lat="44.90895" lon="4.472">
        <ele>415.4</ele>
      </trkpt>
      <trkpt lat="44.90895" lon="4.47199">
        <ele>415.4</ele>
      </trkpt>
      <trkpt lat="44.90904" lon="4.4718">
        <ele>415.7</ele>
      </trkpt>
      <trkpt lat="44.90918" lon="4.47169">
        <ele>418.5</ele>
      </trkpt>
      <trkpt lat="44.90923" lon="4.47157">
        <ele>419.7</ele>
      </trkpt>
      <trkpt lat="44.90932" lon="4.47138">
        <ele>421.7</ele>
      </trkpt>
      <trkpt lat="44.90954" lon="4.47095">
        <ele>422.4</ele>
      </trkpt>
      <trkpt lat="44.91" lon="4.46997">
        <ele>418.9</ele>
      </trkpt>
      <trkpt lat="44.91028" lon="4.46951">
        <ele>423.9</ele>
      </trkpt>
      <trkpt lat="44.91041" lon="4.46937">
        <ele>424.7</ele>
      </trkpt>
      <trkpt lat="44.9106" lon="4.4692">
        <ele>426.7</ele>
      </trkpt>
      <trkpt lat="44.9109" lon="4.46892">
        <ele>429.4</ele>
      </trkpt>
      <trkpt lat="44.91102" lon="4.46881">
        <ele>429.1</ele>
      </trkpt>
      <trkpt lat="44.91175" lon="4.46813">
        <ele>432.1</ele>
      </trkpt>
      <trkpt lat="44.91184" lon="4.46803">
        <ele>432.8</ele>
      </trkpt>
      <trkpt lat="44.91193" lon="4.46789">
        <ele>432.9</ele>
      </trkpt>
      <trkpt lat="44.91203" lon="4.46771">
        <ele>432.8</ele>
      </trkpt>
      <trkpt lat="44.91209" lon="4.46755">
        <ele>433</ele>
      </trkpt>
      <trkpt lat="44.91215" lon="4.46704">
        <ele>425.1</ele>
      </trkpt>
      <trkpt lat="44.91217" lon="4.46658">
        <ele>421.1</ele>
      </trkpt>
      <trkpt lat="44.91217" lon="4.4662">
        <ele>420.1</ele>
      </trkpt>
      <trkpt lat="44.91223" lon="4.46586">
        <ele>421.3</ele>
      </trkpt>
      <trkpt lat="44.91228" lon="4.46565">
        <ele>422.3</ele>
      </trkpt>
      <trkpt lat="44.91231" lon="4.46539">
        <ele>422.4</ele>
      </trkpt>
      <trkpt lat="44.91231" lon="4.4651">
        <ele>424</ele>
      </trkpt>
      <trkpt lat="44.91229" lon="4.46444">
        <ele>423.8</ele>
      </trkpt>
      <trkpt lat="44.91228" lon="4.46423">
        <ele>424.2</ele>
      </trkpt>
      <trkpt lat="44.91224" lon="4.46396">
        <ele>423.4</ele>
      </trkpt>
      <trkpt lat="44.91219" lon="4.46381">
        <ele>423</ele>
      </trkpt>
      <trkpt lat="44.91207" lon="4.46357">
        <ele>422.1</ele>
      </trkpt>
      <trkpt lat="44.91203" lon="4.4634">
        <ele>421.5</ele>
      </trkpt>
      <trkpt lat="44.91201" lon="4.46286">
        <ele>421.4</ele>
      </trkpt>
      <trkpt lat="44.91203" lon="4.46249">
        <ele>420.4</ele>
      </trkpt>
      <trkpt lat="44.91214" lon="4.46211">
        <ele>420.6</ele>
      </trkpt>
      <trkpt lat="44.91235" lon="4.46173">
        <ele>420.2</ele>
      </trkpt>
      <trkpt lat="44.91261" lon="4.46147">
        <ele>422.3</ele>
      </trkpt>
      <trkpt lat="44.91297" lon="4.46121">
        <ele>424.1</ele>
      </trkpt>
      <trkpt lat="44.91311" lon="4.46105">
        <ele>423.7</ele>
      </trkpt>
      <trkpt lat="44.91324" lon="4.46087">
        <ele>422.7</ele>
      </trkpt>
      <trkpt lat="44.91337" lon="4.46052">
        <ele>423</ele>
      </trkpt>
      <trkpt lat="44.9134" lon="4.46034">
        <ele>422.7</ele>
      </trkpt>
      <trkpt lat="44.91341" lon="4.46014">
        <ele>421.8</ele>
      </trkpt>
      <trkpt lat="44.9134" lon="4.45992">
        <ele>423.5</ele>
      </trkpt>
      <trkpt lat="44.91337" lon="4.45968">
        <ele>427.8</ele>
      </trkpt>
      <trkpt lat="44.91332" lon="4.45951">
        <ele>423.3</ele>
      </trkpt>
      <trkpt lat="44.91312" lon="4.45915">
        <ele>428.2</ele>
      </trkpt>
      <trkpt lat="44.91287" lon="4.45861">
        <ele>425.6</ele>
      </trkpt>
      <trkpt lat="44.91281" lon="4.45835">
        <ele>424.6</ele>
      </trkpt>
      <trkpt lat="44.91277" lon="4.45796">
        <ele>424</ele>
      </trkpt>
      <trkpt lat="44.91279" lon="4.45765">
        <ele>423</ele>
      </trkpt>
      <trkpt lat="44.91305" lon="4.45638">
        <ele>421.5</ele>
      </trkpt>
      <trkpt lat="44.91309" lon="4.45619">
        <ele>421.5</ele>
      </trkpt>
      <trkpt lat="44.91313" lon="4.45583">
        <ele>422.9</ele>
      </trkpt>
      <trkpt lat="44.91311" lon="4.45546">
        <ele>422</ele>
      </trkpt>
      <trkpt lat="44.91303" lon="4.45485">
        <ele>423.3</ele>
      </trkpt>
      <trkpt lat="44.91301" lon="4.45452">
        <ele>422.8</ele>
      </trkpt>
      <trkpt lat="44.91317" lon="4.4534">
        <ele>425.4</ele>
      </trkpt>
      <trkpt lat="44.91333" lon="4.45287">
        <ele>421.3</ele>
      </trkpt>
      <trkpt lat="44.91355" lon="4.45253">
        <ele>430.2</ele>
      </trkpt>
      <trkpt lat="44.91381" lon="4.45219">
        <ele>425.6</ele>
      </trkpt>
      <trkpt lat="44.91387" lon="4.45209">
        <ele>425.3</ele>
      </trkpt>
      <trkpt lat="44.91399" lon="4.45182">
        <ele>424.3</ele>
      </trkpt>
      <trkpt lat="44.91404" lon="4.4517">
        <ele>424.1</ele>
      </trkpt>
      <trkpt lat="44.91415" lon="4.45122">
        <ele>420.2</ele>
      </trkpt>
      <trkpt lat="44.9143" lon="4.45076">
        <ele>426.4</ele>
      </trkpt>
      <trkpt lat="44.9146" lon="4.45013">
        <ele>429.9</ele>
      </trkpt>
      <trkpt lat="44.91484" lon="4.44975">
        <ele>427.6</ele>
      </trkpt>
      <trkpt lat="44.91518" lon="4.44945">
        <ele>435</ele>
      </trkpt>
      <trkpt lat="44.91562" lon="4.44883">
        <ele>430.1</ele>
      </trkpt>
      <trkpt lat="44.91596" lon="4.44824">
        <ele>432.8</ele>
      </trkpt>
      <trkpt lat="44.91615" lon="4.44786">
        <ele>435.7</ele>
      </trkpt>
      <trkpt lat="44.91624" lon="4.44749">
        <ele>429.9</ele>
      </trkpt>
      <trkpt lat="44.91628" lon="4.44723">
        <ele>430.1</ele>
      </trkpt>
      <trkpt lat="44.91629" lon="4.44698">
        <ele>429.3</ele>
      </trkpt>
      <trkpt lat="44.91629" lon="4.44648">
        <ele>426.1</ele>
      </trkpt>
      <trkpt lat="44.9163" lon="4.4465">
        <ele>426.4</ele>
      </trkpt>
      <trkpt lat="44.91629" lon="4.44648">
        <ele>426.1</ele>
      </trkpt>
      <trkpt lat="44.91635" lon="4.44601">
        <ele>426.6</ele>
      </trkpt>
      <trkpt lat="44.9164" lon="4.4458">
        <ele>426.4</ele>
      </trkpt>
      <trkpt lat="44.91654" lon="4.44528">
        <ele>425.6</ele>
      </trkpt>
      <trkpt lat="44.91665" lon="4.44477">
        <ele>426.3</ele>
      </trkpt>
      <trkpt lat="44.91667" lon="4.44451">
        <ele>443.9</ele>
      </trkpt>
      <trkpt lat="44.91662" lon="4.44361">
        <ele>428.2</ele>
      </trkpt>
      <trkpt lat="44.91662" lon="4.44333">
        <ele>430.6</ele>
      </trkpt>
      <trkpt lat="44.91664" lon="4.44282">
        <ele>426.3</ele>
      </trkpt>
      <trkpt lat="44.91677" lon="4.44141">
        <ele>437.1</ele>
      </trkpt>
      <trkpt lat="44.91675" lon="4.44099">
        <ele>434.9</ele>
      </trkpt>
      <trkpt lat="44.91669" lon="4.44059">
        <ele>436.1</ele>
      </trkpt>
      <trkpt lat="44.91667" lon="4.44047">
        <ele>437.4</ele>
      </trkpt>
      <trkpt lat="44.91652" lon="4.43953">
        <ele>427</ele>
      </trkpt>
      <trkpt lat="44.91645" lon="4.43902">
        <ele>428.6</ele>
      </trkpt>
      <trkpt lat="44.91639" lon="4.43865">
        <ele>427.8</ele>
      </trkpt>
      <trkpt lat="44.91638" lon="4.43861">
        <ele>427.8</ele>
      </trkpt>
      <trkpt lat="44.91637" lon="4.43852">
        <ele>428.1</ele>
      </trkpt>
      <trkpt lat="44.91626" lon="4.43791">
        <ele>429.9</ele>
      </trkpt>
      <trkpt lat="44.91626" lon="4.43788">
        <ele>430</ele>
      </trkpt>
      <trkpt lat="44.91619" lon="4.43754">
        <ele>429.5</ele>
      </trkpt>
      <trkpt lat="44.91608" lon="4.4369">
        <ele>430.8</ele>
      </trkpt>
      <trkpt lat="44.91604" lon="4.43656">
        <ele>430.6</ele>
      </trkpt>
      <trkpt lat="44.91604" lon="4.43577">
        <ele>431.1</ele>
      </trkpt>
      <trkpt lat="44.91607" lon="4.4352">
        <ele>432.2</ele>
      </trkpt>
      <trkpt lat="44.9161" lon="4.43468">
        <ele>432.7</ele>
      </trkpt>
      <trkpt lat="44.91611" lon="4.4345">
        <ele>433</ele>
      </trkpt>
      <trkpt lat="44.91612" lon="4.4342">
        <ele>432.5</ele>
      </trkpt>
      <trkpt lat="44.91609" lon="4.43391">
        <ele>436.5</ele>
      </trkpt>
      <trkpt lat="44.91606" lon="4.43368">
        <ele>437.6</ele>
      </trkpt>
      <trkpt lat="44.916" lon="4.43345">
        <ele>436.3</ele>
      </trkpt>
      <trkpt lat="44.91555" lon="4.43224">
        <ele>436.6</ele>
      </trkpt>
      <trkpt lat="44.91541" lon="4.43188">
        <ele>437</ele>
      </trkpt>
      <trkpt lat="44.91528" lon="4.43158">
        <ele>441.2</ele>
      </trkpt>
      <trkpt lat="44.91514" lon="4.43132">
        <ele>441.5</ele>
      </trkpt>
      <trkpt lat="44.91498" lon="4.43107">
        <ele>431.3</ele>
      </trkpt>
      <trkpt lat="44.91486" lon="4.43087">
        <ele>432.4</ele>
      </trkpt>
      <trkpt lat="44.91454" lon="4.43049">
        <ele>433.1</ele>
      </trkpt>
      <trkpt lat="44.91377" lon="4.42917">
        <ele>431.5</ele>
      </trkpt>
      <trkpt lat="44.91352" lon="4.42876">
        <ele>433.9</ele>
      </trkpt>
      <trkpt lat="44.9133" lon="4.42842">
        <ele>430.9</ele>
      </trkpt>
      <trkpt lat="44.91296" lon="4.42786">
        <ele>431.5</ele>
      </trkpt>
      <trkpt lat="44.91287" lon="4.42777">
        <ele>431.5</ele>
      </trkpt>
      <trkpt lat="44.91283" lon="4.42772">
        <ele>431.5</ele>
      </trkpt>
      <trkpt lat="44.9127" lon="4.42758">
        <ele>431.3</ele>
      </trkpt>
      <trkpt lat="44.9125" lon="4.42728">
        <ele>432.7</ele>
      </trkpt>
      <trkpt lat="44.91247" lon="4.42726">
        <ele>431.7</ele>
      </trkpt>
      <trkpt lat="44.9124" lon="4.42697">
        <ele>432.1</ele>
      </trkpt>
      <trkpt lat="44.91236" lon="4.42673">
        <ele>432.2</ele>
      </trkpt>
      <trkpt lat="44.91237" lon="4.42652">
        <ele>433.1</ele>
      </trkpt>
      <trkpt lat="44.91239" lon="4.42634">
        <ele>433.2</ele>
      </trkpt>
      <trkpt lat="44.91253" lon="4.42583">
        <ele>430.1</ele>
      </trkpt>
      <trkpt lat="44.91266" lon="4.42554">
        <ele>430.7</ele>
      </trkpt>
      <trkpt lat="44.91284" lon="4.42518">
        <ele>430.6</ele>
      </trkpt>
      <trkpt lat="44.91303" lon="4.42491">
        <ele>430</ele>
      </trkpt>
      <trkpt lat="44.91327" lon="4.42457">
        <ele>429.8</ele>
      </trkpt>
      <trkpt lat="44.9133" lon="4.42455">
        <ele>429.8</ele>
      </trkpt>
      <trkpt lat="44.91334" lon="4.42452">
        <ele>432</ele>
      </trkpt>
      <trkpt lat="44.91335" lon="4.42452">
        <ele>432</ele>
      </trkpt>
      <trkpt lat="44.91347" lon="4.42442">
        <ele>432</ele>
      </trkpt>
      <trkpt lat="44.91379" lon="4.42416">
        <ele>431.1</ele>
      </trkpt>
      <trkpt lat="44.9141" lon="4.42395">
        <ele>432.2</ele>
      </trkpt>
      <trkpt lat="44.91426" lon="4.42378">
        <ele>436.8</ele>
      </trkpt>
      <trkpt lat="44.91494" lon="4.42284">
        <ele>434</ele>
      </trkpt>
      <trkpt lat="44.91525" lon="4.42244">
        <ele>437.7</ele>
      </trkpt>
      <trkpt lat="44.91551" lon="4.42213">
        <ele>440.6</ele>
      </trkpt>
      <trkpt lat="44.91572" lon="4.4219">
        <ele>440.8</ele>
      </trkpt>
      <trkpt lat="44.91578" lon="4.42198">
        <ele>441.4</ele>
      </trkpt>
      <trkpt lat="44.91597" lon="4.42175">
        <ele>453.6</ele>
      </trkpt>
      <trkpt lat="44.9161" lon="4.42163">
        <ele>450.1</ele>
      </trkpt>
      <trkpt lat="44.91626" lon="4.42153">
        <ele>454.2</ele>
      </trkpt>
      <trkpt lat="44.91645" lon="4.42132">
        <ele>455.6</ele>
      </trkpt>
      <trkpt lat="44.91653" lon="4.42112">
        <ele>453</ele>
      </trkpt>
      <trkpt lat="44.9167" lon="4.42087">
        <ele>455.8</ele>
      </trkpt>
      <trkpt lat="44.91676" lon="4.42073">
        <ele>455</ele>
      </trkpt>
      <trkpt lat="44.91679" lon="4.42061">
        <ele>456.9</ele>
      </trkpt>
      <trkpt lat="44.91679" lon="4.42053">
        <ele>457.2</ele>
      </trkpt>
      <trkpt lat="44.91683" lon="4.42045">
        <ele>457.5</ele>
      </trkpt>
      <trkpt lat="44.91691" lon="4.42039">
        <ele>458.3</ele>
      </trkpt>
      <trkpt lat="44.91696" lon="4.42039">
        <ele>459.2</ele>
      </trkpt>
      <trkpt lat="44.91701" lon="4.42029">
        <ele>459.4</ele>
      </trkpt>
      <trkpt lat="44.91702" lon="4.4202">
        <ele>459</ele>
      </trkpt>
      <trkpt lat="44.91703" lon="4.42012">
        <ele>458.7</ele>
      </trkpt>
      <trkpt lat="44.91704" lon="4.42">
        <ele>457.1</ele>
      </trkpt>
      <trkpt lat="44.91703" lon="4.41974">
        <ele>457.7</ele>
      </trkpt>
      <trkpt lat="44.91701" lon="4.41944">
        <ele>458.1</ele>
      </trkpt>
      <trkpt lat="44.91694" lon="4.41877">
        <ele>464.8</ele>
      </trkpt>
      <trkpt lat="44.91681" lon="4.41824">
        <ele>466.8</ele>
      </trkpt>
      <trkpt lat="44.91664" lon="4.41781">
        <ele>456.3</ele>
      </trkpt>
      <trkpt lat="44.91643" lon="4.41725">
        <ele>461.4</ele>
      </trkpt>
      <trkpt lat="44.91635" lon="4.41705">
        <ele>461.3</ele>
      </trkpt>
      <trkpt lat="44.9163" lon="4.41684">
        <ele>461.8</ele>
      </trkpt>
      <trkpt lat="44.91627" lon="4.41674">
        <ele>461.5</ele>
      </trkpt>
      <trkpt lat="44.91627" lon="4.41656">
        <ele>461.1</ele>
      </trkpt>
      <trkpt lat="44.9163" lon="4.41622">
        <ele>459.9</ele>
      </trkpt>
      <trkpt lat="44.91636" lon="4.41596">
        <ele>460.1</ele>
      </trkpt>
      <trkpt lat="44.91647" lon="4.41571">
        <ele>456.7</ele>
      </trkpt>
      <trkpt lat="44.91663" lon="4.4155">
        <ele>454.5</ele>
      </trkpt>
      <trkpt lat="44.91697" lon="4.41527">
        <ele>468.3</ele>
      </trkpt>
      <trkpt lat="44.91717" lon="4.41517">
        <ele>470.9</ele>
      </trkpt>
      <trkpt lat="44.91735" lon="4.41502">
        <ele>471.5</ele>
      </trkpt>
      <trkpt lat="44.91754" lon="4.41481">
        <ele>476.5</ele>
      </trkpt>
      <trkpt lat="44.91798" lon="4.41394">
        <ele>469.7</ele>
      </trkpt>
      <trkpt lat="44.91837" lon="4.41329">
        <ele>471.3</ele>
      </trkpt>
      <trkpt lat="44.91867" lon="4.41257">
        <ele>474.2</ele>
      </trkpt>
      <trkpt lat="44.91875" lon="4.41243">
        <ele>466.1</ele>
      </trkpt>
      <trkpt lat="44.91885" lon="4.41229">
        <ele>467.3</ele>
      </trkpt>
      <trkpt lat="44.91906" lon="4.4121">
        <ele>466.9</ele>
      </trkpt>
      <trkpt lat="44.92003" lon="4.41172">
        <ele>483</ele>
      </trkpt>
      <trkpt lat="44.92032" lon="4.41156">
        <ele>478.5</ele>
      </trkpt>
      <trkpt lat="44.92079" lon="4.4112">
        <ele>478.3</ele>
      </trkpt>
      <trkpt lat="44.9209" lon="4.4111">
        <ele>493.2</ele>
      </trkpt>
      <trkpt lat="44.92101" lon="4.41098">
        <ele>491.2</ele>
      </trkpt>
      <trkpt lat="44.92117" lon="4.41072">
        <ele>484.4</ele>
      </trkpt>
      <trkpt lat="44.92136" lon="4.41013">
        <ele>488.1</ele>
      </trkpt>
      <trkpt lat="44.92141" lon="4.40988">
        <ele>487</ele>
      </trkpt>
      <trkpt lat="44.92142" lon="4.40959">
        <ele>485.5</ele>
      </trkpt>
      <trkpt lat="44.92132" lon="4.40887">
        <ele>483.9</ele>
      </trkpt>
      <trkpt lat="44.92127" lon="4.40837">
        <ele>482.7</ele>
      </trkpt>
      <trkpt lat="44.92131" lon="4.40806">
        <ele>481.8</ele>
      </trkpt>
      <trkpt lat="44.92144" lon="4.40769">
        <ele>483.5</ele>
      </trkpt>
      <trkpt lat="44.92156" lon="4.40751">
        <ele>487.8</ele>
      </trkpt>
      <trkpt lat="44.92169" lon="4.40737">
        <ele>487.1</ele>
      </trkpt>
      <trkpt lat="44.922" lon="4.40717">
        <ele>481.8</ele>
      </trkpt>
      <trkpt lat="44.92215" lon="4.40716">
        <ele>482.2</ele>
      </trkpt>
      <trkpt lat="44.92267" lon="4.40726">
        <ele>491.5</ele>
      </trkpt>
      <trkpt lat="44.92289" lon="4.40728">
        <ele>491.5</ele>
      </trkpt>
      <trkpt lat="44.92304" lon="4.40725">
        <ele>492</ele>
      </trkpt>
      <trkpt lat="44.9232" lon="4.40716">
        <ele>491</ele>
      </trkpt>
      <trkpt lat="44.92374" lon="4.40674">
        <ele>489.6</ele>
      </trkpt>
      <trkpt lat="44.9241" lon="4.40644">
        <ele>482.3</ele>
      </trkpt>
      <trkpt lat="44.92415" lon="4.40638">
        <ele>482</ele>
      </trkpt>
      <trkpt lat="44.92423" lon="4.40626">
        <ele>491.2</ele>
      </trkpt>
      <trkpt lat="44.9243" lon="4.40613">
        <ele>491.1</ele>
      </trkpt>
      <trkpt lat="44.92439" lon="4.40589">
        <ele>490.6</ele>
      </trkpt>
      <trkpt lat="44.92453" lon="4.40478">
        <ele>487.6</ele>
      </trkpt>
      <trkpt lat="44.9246" lon="4.40449">
        <ele>486.9</ele>
      </trkpt>
      <trkpt lat="44.92473" lon="4.40421">
        <ele>488.1</ele>
      </trkpt>
      <trkpt lat="44.92479" lon="4.40412">
        <ele>482.9</ele>
      </trkpt>
      <trkpt lat="44.92497" lon="4.40395">
        <ele>482.8</ele>
      </trkpt>
      <trkpt lat="44.9251" lon="4.40386">
        <ele>488.2</ele>
      </trkpt>
      <trkpt lat="44.92524" lon="4.4038">
        <ele>487.8</ele>
      </trkpt>
      <trkpt lat="44.92584" lon="4.40373">
        <ele>501.7</ele>
      </trkpt>
      <trkpt lat="44.92598" lon="4.40367">
        <ele>501.2</ele>
      </trkpt>
      <trkpt lat="44.92616" lon="4.40354">
        <ele>501.5</ele>
      </trkpt>
      <trkpt lat="44.92631" lon="4.40336">
        <ele>502.5</ele>
      </trkpt>
      <trkpt lat="44.92654" lon="4.40298">
        <ele>487</ele>
      </trkpt>
      <trkpt lat="44.92668" lon="4.4028">
        <ele>496.4</ele>
      </trkpt>
      <trkpt lat="44.92678" lon="4.4027">
        <ele>494.6</ele>
      </trkpt>
      <trkpt lat="44.92689" lon="4.40264">
        <ele>495.6</ele>
      </trkpt>
      <trkpt lat="44.92702" lon="4.40259">
        <ele>497.8</ele>
      </trkpt>
      <trkpt lat="44.92731" lon="4.40258">
        <ele>501.1</ele>
      </trkpt>
      <trkpt lat="44.92751" lon="4.40264">
        <ele>499.9</ele>
      </trkpt>
      <trkpt lat="44.92759" lon="4.40268">
        <ele>499.5</ele>
      </trkpt>
      <trkpt lat="44.92767" lon="4.40274">
        <ele>499</ele>
      </trkpt>
      <trkpt lat="44.92781" lon="4.40288">
        <ele>498.4</ele>
      </trkpt>
      <trkpt lat="44.92819" lon="4.4035">
        <ele>510.3</ele>
      </trkpt>
      <trkpt lat="44.92831" lon="4.40364">
        <ele>514.3</ele>
      </trkpt>
      <trkpt lat="44.92843" lon="4.40375">
        <ele>504.1</ele>
      </trkpt>
      <trkpt lat="44.92857" lon="4.40384">
        <ele>505.7</ele>
      </trkpt>
      <trkpt lat="44.92888" lon="4.40396">
        <ele>505.4</ele>
      </trkpt>
      <trkpt lat="44.92907" lon="4.40398">
        <ele>506</ele>
      </trkpt>
      <trkpt lat="44.92933" lon="4.40389">
        <ele>505.6</ele>
      </trkpt>
      <trkpt lat="44.93012" lon="4.40349">
        <ele>511.5</ele>
      </trkpt>
      <trkpt lat="44.93023" lon="4.4034">
        <ele>513.2</ele>
      </trkpt>
      <trkpt lat="44.93027" lon="4.40337">
        <ele>514.4</ele>
      </trkpt>
      <trkpt lat="44.93041" lon="4.4032">
        <ele>500.6</ele>
      </trkpt>
      <trkpt lat="44.93059" lon="4.40286">
        <ele>498.6</ele>
      </trkpt>
      <trkpt lat="44.93088" lon="4.40239">
        <ele>497.9</ele>
      </trkpt>
      <trkpt lat="44.93111" lon="4.40218">
        <ele>499</ele>
      </trkpt>
      <trkpt lat="44.93122" lon="4.40213">
        <ele>499.9</ele>
      </trkpt>
      <trkpt lat="44.93144" lon="4.40208">
        <ele>501.9</ele>
      </trkpt>
      <trkpt lat="44.93173" lon="4.40213">
        <ele>503.4</ele>
      </trkpt>
      <trkpt lat="44.93189" lon="4.40222">
        <ele>503.2</ele>
      </trkpt>
      <trkpt lat="44.93206" lon="4.40236">
        <ele>501.6</ele>
      </trkpt>
      <trkpt lat="44.93213" lon="4.40245">
        <ele>500.7</ele>
      </trkpt>
      <trkpt lat="44.93246" lon="4.40308">
        <ele>515.6</ele>
      </trkpt>
      <trkpt lat="44.93259" lon="4.40326">
        <ele>508.2</ele>
      </trkpt>
      <trkpt lat="44.93283" lon="4.40359">
        <ele>516.6</ele>
      </trkpt>
      <trkpt lat="44.93367" lon="4.4046">
        <ele>513.8</ele>
      </trkpt>
      <trkpt lat="44.93393" lon="4.40488">
        <ele>510.7</ele>
      </trkpt>
      <trkpt lat="44.93407" lon="4.405">
        <ele>512.9</ele>
      </trkpt>
      <trkpt lat="44.93421" lon="4.40509">
        <ele>508.4</ele>
      </trkpt>
      <trkpt lat="44.93453" lon="4.40514">
        <ele>514.4</ele>
      </trkpt>
      <trkpt lat="44.93502" lon="4.405">
        <ele>515.4</ele>
      </trkpt>
      <trkpt lat="44.93521" lon="4.40491">
        <ele>516</ele>
      </trkpt>
      <trkpt lat="44.93537" lon="4.40476">
        <ele>517.8</ele>
      </trkpt>
      <trkpt lat="44.93552" lon="4.40457">
        <ele>517.1</ele>
      </trkpt>
      <trkpt lat="44.93587" lon="4.40378">
        <ele>522.1</ele>
      </trkpt>
      <trkpt lat="44.93598" lon="4.4034">
        <ele>514.6</ele>
      </trkpt>
      <trkpt lat="44.93604" lon="4.4022">
        <ele>507.2</ele>
      </trkpt>
      <trkpt lat="44.9361" lon="4.40182">
        <ele>506.3</ele>
      </trkpt>
      <trkpt lat="44.93624" lon="4.40153">
        <ele>503.8</ele>
      </trkpt>
      <trkpt lat="44.93643" lon="4.40131">
        <ele>505.5</ele>
      </trkpt>
      <trkpt lat="44.93663" lon="4.40119">
        <ele>506</ele>
      </trkpt>
      <trkpt lat="44.93685" lon="4.40113">
        <ele>512.2</ele>
      </trkpt>
      <trkpt lat="44.93711" lon="4.40116">
        <ele>512.6</ele>
      </trkpt>
      <trkpt lat="44.93734" lon="4.40125">
        <ele>514.1</ele>
      </trkpt>
      <trkpt lat="44.93781" lon="4.40146">
        <ele>518.4</ele>
      </trkpt>
      <trkpt lat="44.93806" lon="4.40151">
        <ele>519.6</ele>
      </trkpt>
      <trkpt lat="44.93838" lon="4.40148">
        <ele>523.5</ele>
      </trkpt>
      <trkpt lat="44.9386" lon="4.40135">
        <ele>519.3</ele>
      </trkpt>
      <trkpt lat="44.9388" lon="4.40111">
        <ele>515.4</ele>
      </trkpt>
      <trkpt lat="44.93906" lon="4.40067">
        <ele>502.5</ele>
      </trkpt>
      <trkpt lat="44.93923" lon="4.40029">
        <ele>506.6</ele>
      </trkpt>
      <trkpt lat="44.93934" lon="4.40006">
        <ele>504.6</ele>
      </trkpt>
      <trkpt lat="44.9394" lon="4.39988">
        <ele>504</ele>
      </trkpt>
      <trkpt lat="44.93951" lon="4.39943">
        <ele>506.1</ele>
      </trkpt>
      <trkpt lat="44.93956" lon="4.39898">
        <ele>506.7</ele>
      </trkpt>
      <trkpt lat="44.93954" lon="4.39754">
        <ele>507.4</ele>
      </trkpt>
      <trkpt lat="44.9395" lon="4.39597">
        <ele>510.3</ele>
      </trkpt>
      <trkpt lat="44.93948" lon="4.39545">
        <ele>512.2</ele>
      </trkpt>
      <trkpt lat="44.93931" lon="4.39431">
        <ele>513.3</ele>
      </trkpt>
      <trkpt lat="44.93926" lon="4.39362">
        <ele>517.7</ele>
      </trkpt>
      <trkpt lat="44.93927" lon="4.39134">
        <ele>531.5</ele>
      </trkpt>
      <trkpt lat="44.93925" lon="4.39062">
        <ele>533.1</ele>
      </trkpt>
      <trkpt lat="44.93922" lon="4.39024">
        <ele>533.8</ele>
      </trkpt>
      <trkpt lat="44.93892" lon="4.38832">
        <ele>522.9</ele>
      </trkpt>
      <trkpt lat="44.93892" lon="4.38806">
        <ele>520.8</ele>
      </trkpt>
      <trkpt lat="44.93898" lon="4.38774">
        <ele>520.8</ele>
      </trkpt>
      <trkpt lat="44.93905" lon="4.38743">
        <ele>520.4</ele>
      </trkpt>
      <trkpt lat="44.93915" lon="4.38726">
        <ele>517.2</ele>
      </trkpt>
      <trkpt lat="44.93956" lon="4.38668">
        <ele>537.6</ele>
      </trkpt>
      <trkpt lat="44.94001" lon="4.38528">
        <ele>548.4</ele>
      </trkpt>
      <trkpt lat="44.94012" lon="4.38358">
        <ele>540.3</ele>
      </trkpt>
      <trkpt lat="44.94016" lon="4.38334">
        <ele>535.4</ele>
      </trkpt>
      <trkpt lat="44.94023" lon="4.38324">
        <ele>537.5</ele>
      </trkpt>
      <trkpt lat="44.94029" lon="4.38307">
        <ele>541.5</ele>
      </trkpt>
      <trkpt lat="44.94036" lon="4.3824">
        <ele>537.7</ele>
      </trkpt>
      <trkpt lat="44.94036" lon="4.3821">
        <ele>538.2</ele>
      </trkpt>
      <trkpt lat="44.94022" lon="4.38048">
        <ele>541.3</ele>
      </trkpt>
      <trkpt lat="44.94006" lon="4.37998">
        <ele>535.2</ele>
      </trkpt>
      <trkpt lat="44.93953" lon="4.37885">
        <ele>531.3</ele>
      </trkpt>
      <trkpt lat="44.93939" lon="4.37814">
        <ele>531.3</ele>
      </trkpt>
      <trkpt lat="44.93937" lon="4.3777">
        <ele>532.8</ele>
      </trkpt>
      <trkpt lat="44.93933" lon="4.37748">
        <ele>534.6</ele>
      </trkpt>
      <trkpt lat="44.93928" lon="4.37731">
        <ele>537.1</ele>
      </trkpt>
      <trkpt lat="44.93907" lon="4.37694">
        <ele>526.9</ele>
      </trkpt>
      <trkpt lat="44.93889" lon="4.37671">
        <ele>526.7</ele>
      </trkpt>
      <trkpt lat="44.93883" lon="4.37664">
        <ele>534.7</ele>
      </trkpt>
      <trkpt lat="44.93874" lon="4.37651">
        <ele>533.6</ele>
      </trkpt>
      <trkpt lat="44.93822" lon="4.37596">
        <ele>523.4</ele>
      </trkpt>
      <trkpt lat="44.93767" lon="4.37548">
        <ele>526.7</ele>
      </trkpt>
      <trkpt lat="44.93696" lon="4.375">
        <ele>525.1</ele>
      </trkpt>
      <trkpt lat="44.937" lon="4.37465">
        <ele>528.2</ele>
      </trkpt>
      <trkpt lat="44.93667" lon="4.37458">
        <ele>526.9</ele>
      </trkpt>
      <trkpt lat="44.93657" lon="4.37449">
        <ele>521.3</ele>
      </trkpt>
      <trkpt lat="44.93647" lon="4.37436">
        <ele>522.1</ele>
      </trkpt>
      <trkpt lat="44.93639" lon="4.37417">
        <ele>522.2</ele>
      </trkpt>
      <trkpt lat="44.93631" lon="4.37395">
        <ele>523.4</ele>
      </trkpt>
      <trkpt lat="44.93628" lon="4.37372">
        <ele>523.2</ele>
      </trkpt>
      <trkpt lat="44.93627" lon="4.37352">
        <ele>523.3</ele>
      </trkpt>
      <trkpt lat="44.93631" lon="4.37329">
        <ele>523</ele>
      </trkpt>
      <trkpt lat="44.93639" lon="4.37304">
        <ele>522.9</ele>
      </trkpt>
      <trkpt lat="44.93647" lon="4.37281">
        <ele>522.5</ele>
      </trkpt>
      <trkpt lat="44.93654" lon="4.37262">
        <ele>522.5</ele>
      </trkpt>
      <trkpt lat="44.93657" lon="4.37261">
        <ele>522.6</ele>
      </trkpt>
      <trkpt lat="44.93685" lon="4.3724">
        <ele>523.6</ele>
      </trkpt>
      <trkpt lat="44.9371" lon="4.37237">
        <ele>524.7</ele>
      </trkpt>
      <trkpt lat="44.93746" lon="4.37238">
        <ele>527.9</ele>
      </trkpt>
      <trkpt lat="44.93773" lon="4.37237">
        <ele>531.1</ele>
      </trkpt>
      <trkpt lat="44.93813" lon="4.37223">
        <ele>533.4</ele>
      </trkpt>
      <trkpt lat="44.93835" lon="4.37219">
        <ele>537.7</ele>
      </trkpt>
      <trkpt lat="44.93856" lon="4.37219">
        <ele>537.5</ele>
      </trkpt>
      <trkpt lat="44.93879" lon="4.37219">
        <ele>537.8</ele>
      </trkpt>
      <trkpt lat="44.93932" lon="4.37235">
        <ele>542.9</ele>
      </trkpt>
      <trkpt lat="44.93964" lon="4.37241">
        <ele>541.7</ele>
      </trkpt>
      <trkpt lat="44.9399" lon="4.37242">
        <ele>543.7</ele>
      </trkpt>
      <trkpt lat="44.94083" lon="4.37235">
        <ele>546.6</ele>
      </trkpt>
      <trkpt lat="44.94113" lon="4.37219">
        <ele>547.8</ele>
      </trkpt>
      <trkpt lat="44.94152" lon="4.37187">
        <ele>544.9</ele>
      </trkpt>
      <trkpt lat="44.94191" lon="4.37152">
        <ele>545.4</ele>
      </trkpt>
      <trkpt lat="44.94201" lon="4.37139">
        <ele>546.6</ele>
      </trkpt>
      <trkpt lat="44.94236" lon="4.37076">
        <ele>543.9</ele>
      </trkpt>
      <trkpt lat="44.94283" lon="4.36986">
        <ele>546.1</ele>
      </trkpt>
      <trkpt lat="44.94288" lon="4.36977">
        <ele>546.5</ele>
      </trkpt>
      <trkpt lat="44.94304" lon="4.36951">
        <ele>546.6</ele>
      </trkpt>
      <trkpt lat="44.94324" lon="4.36923">
        <ele>546.7</ele>
      </trkpt>
      <trkpt lat="44.94344" lon="4.36898">
        <ele>547.4</ele>
      </trkpt>
      <trkpt lat="44.94357" lon="4.36886">
        <ele>547.5</ele>
      </trkpt>
      <trkpt lat="44.94373" lon="4.36882">
        <ele>548.2</ele>
      </trkpt>
      <trkpt lat="44.94394" lon="4.36884">
        <ele>549.5</ele>
      </trkpt>
      <trkpt lat="44.94414" lon="4.36889">
        <ele>550.8</ele>
      </trkpt>
      <trkpt lat="44.94428" lon="4.36899">
        <ele>551.5</ele>
      </trkpt>
      <trkpt lat="44.94441" lon="4.36913">
        <ele>551</ele>
      </trkpt>
      <trkpt lat="44.94454" lon="4.36932">
        <ele>556.1</ele>
      </trkpt>
      <trkpt lat="44.94465" lon="4.36954">
        <ele>556.8</ele>
      </trkpt>
      <trkpt lat="44.94485" lon="4.36998">
        <ele>556.8</ele>
      </trkpt>
      <trkpt lat="44.94501" lon="4.37023">
        <ele>562</ele>
      </trkpt>
      <trkpt lat="44.94532" lon="4.37049">
        <ele>566.8</ele>
      </trkpt>
      <trkpt lat="44.9456" lon="4.37065">
        <ele>568.1</ele>
      </trkpt>
      <trkpt lat="44.94595" lon="4.37074">
        <ele>568.5</ele>
      </trkpt>
      <trkpt lat="44.94654" lon="4.37075">
        <ele>568.6</ele>
      </trkpt>
      <trkpt lat="44.94672" lon="4.37069">
        <ele>571.9</ele>
      </trkpt>
      <trkpt lat="44.94689" lon="4.3706">
        <ele>571</ele>
      </trkpt>
      <trkpt lat="44.94747" lon="4.37022">
        <ele>568.9</ele>
      </trkpt>
      <trkpt lat="44.94765" lon="4.37014">
        <ele>573.4</ele>
      </trkpt>
      <trkpt lat="44.94778" lon="4.37013">
        <ele>575.2</ele>
      </trkpt>
      <trkpt lat="44.948" lon="4.37018">
        <ele>577.3</ele>
      </trkpt>
      <trkpt lat="44.94861" lon="4.37054">
        <ele>581.4</ele>
      </trkpt>
      <trkpt lat="44.94871" lon="4.37058">
        <ele>581.1</ele>
      </trkpt>
      <trkpt lat="44.94875" lon="4.3706">
        <ele>581</ele>
      </trkpt>
      <trkpt lat="44.94902" lon="4.3706">
        <ele>579.9</ele>
      </trkpt>
      <trkpt lat="44.94913" lon="4.37056">
        <ele>579.5</ele>
      </trkpt>
      <trkpt lat="44.9492" lon="4.37053">
        <ele>581.8</ele>
      </trkpt>
      <trkpt lat="44.94926" lon="4.37049">
        <ele>581.8</ele>
      </trkpt>
      <trkpt lat="44.94939" lon="4.37039">
        <ele>582</ele>
      </trkpt>
      <trkpt lat="44.94945" lon="4.37033">
        <ele>582.1</ele>
      </trkpt>
      <trkpt lat="44.94955" lon="4.37018">
        <ele>582.4</ele>
      </trkpt>
      <trkpt lat="44.94962" lon="4.37007">
        <ele>582.9</ele>
      </trkpt>
      <trkpt lat="44.94981" lon="4.36958">
        <ele>578.2</ele>
      </trkpt>
      <trkpt lat="44.94988" lon="4.36937">
        <ele>577.8</ele>
      </trkpt>
      <trkpt lat="44.94993" lon="4.36914">
        <ele>577.8</ele>
      </trkpt>
      <trkpt lat="44.94995" lon="4.36894">
        <ele>576.9</ele>
      </trkpt>
      <trkpt lat="44.94995" lon="4.3682">
        <ele>579.7</ele>
      </trkpt>
      <trkpt lat="44.94997" lon="4.36802">
        <ele>576.1</ele>
      </trkpt>
      <trkpt lat="44.95005" lon="4.36774">
        <ele>586.6</ele>
      </trkpt>
      <trkpt lat="44.95018" lon="4.36748">
        <ele>581.4</ele>
      </trkpt>
      <trkpt lat="44.95051" lon="4.36695">
        <ele>583.7</ele>
      </trkpt>
      <trkpt lat="44.9508" lon="4.36649">
        <ele>579.2</ele>
      </trkpt>
      <trkpt lat="44.9511" lon="4.3661">
        <ele>591</ele>
      </trkpt>
      <trkpt lat="44.95145" lon="4.36561">
        <ele>584.3</ele>
      </trkpt>
      <trkpt lat="44.95172" lon="4.36532">
        <ele>601.9</ele>
      </trkpt>
      <trkpt lat="44.95199" lon="4.36499">
        <ele>592.3</ele>
      </trkpt>
      <trkpt lat="44.95223" lon="4.36449">
        <ele>594</ele>
      </trkpt>
      <trkpt lat="44.95266" lon="4.36382">
        <ele>609.2</ele>
      </trkpt>
      <trkpt lat="44.95274" lon="4.36365">
        <ele>609.1</ele>
      </trkpt>
      <trkpt lat="44.95283" lon="4.36328">
        <ele>602</ele>
      </trkpt>
      <trkpt lat="44.95294" lon="4.36227">
        <ele>597.2</ele>
      </trkpt>
      <trkpt lat="44.95302" lon="4.36201">
        <ele>597.7</ele>
      </trkpt>
      <trkpt lat="44.95331" lon="4.36139">
        <ele>595.9</ele>
      </trkpt>
      <trkpt lat="44.95337" lon="4.36119">
        <ele>611.3</ele>
      </trkpt>
      <trkpt lat="44.9534" lon="4.36098">
        <ele>606</ele>
      </trkpt>
      <trkpt lat="44.95341" lon="4.36079">
        <ele>600.3</ele>
      </trkpt>
      <trkpt lat="44.9534" lon="4.36063">
        <ele>603.8</ele>
      </trkpt>
      <trkpt lat="44.95331" lon="4.35991">
        <ele>597.5</ele>
      </trkpt>
      <trkpt lat="44.95331" lon="4.35969">
        <ele>592.7</ele>
      </trkpt>
      <trkpt lat="44.95334" lon="4.35946">
        <ele>606.5</ele>
      </trkpt>
      <trkpt lat="44.95339" lon="4.35929">
        <ele>604.1</ele>
      </trkpt>
      <trkpt lat="44.95347" lon="4.35908">
        <ele>600.7</ele>
      </trkpt>
      <trkpt lat="44.95354" lon="4.35894">
        <ele>601</ele>
      </trkpt>
      <trkpt lat="44.95364" lon="4.35881">
        <ele>601.1</ele>
      </trkpt>
      <trkpt lat="44.95377" lon="4.35868">
        <ele>601.5</ele>
      </trkpt>
      <trkpt lat="44.95442" lon="4.3583">
        <ele>608.1</ele>
      </trkpt>
      <trkpt lat="44.95455" lon="4.35818">
        <ele>610.2</ele>
      </trkpt>
      <trkpt lat="44.95525" lon="4.3574">
        <ele>617.4</ele>
      </trkpt>
      <trkpt lat="44.95557" lon="4.35696">
        <ele>620.4</ele>
      </trkpt>
      <trkpt lat="44.956" lon="4.35618">
        <ele>631.8</ele>
      </trkpt>
      <trkpt lat="44.95616" lon="4.35578">
        <ele>622.1</ele>
      </trkpt>
      <trkpt lat="44.95662" lon="4.35431">
        <ele>621.9</ele>
      </trkpt>
      <trkpt lat="44.9567" lon="4.35391">
        <ele>638.6</ele>
      </trkpt>
      <trkpt lat="44.95679" lon="4.35334">
        <ele>625.8</ele>
      </trkpt>
      <trkpt lat="44.95686" lon="4.35307">
        <ele>625.1</ele>
      </trkpt>
      <trkpt lat="44.95714" lon="4.35248">
        <ele>621.2</ele>
      </trkpt>
      <trkpt lat="44.95742" lon="4.35161">
        <ele>622.4</ele>
      </trkpt>
      <trkpt lat="44.95752" lon="4.35136">
        <ele>632.8</ele>
      </trkpt>
      <trkpt lat="44.95764" lon="4.35116">
        <ele>631.8</ele>
      </trkpt>
      <trkpt lat="44.95775" lon="4.35102">
        <ele>631.3</ele>
      </trkpt>
      <trkpt lat="44.95787" lon="4.35091">
        <ele>632.4</ele>
      </trkpt>
      <trkpt lat="44.958" lon="4.35084">
        <ele>633.7</ele>
      </trkpt>
      <trkpt lat="44.95826" lon="4.35078">
        <ele>627.5</ele>
      </trkpt>
      <trkpt lat="44.95839" lon="4.35079">
        <ele>629.4</ele>
      </trkpt>
      <trkpt lat="44.95923" lon="4.3512">
        <ele>642.5</ele>
      </trkpt>
      <trkpt lat="44.95973" lon="4.35137">
        <ele>642.9</ele>
      </trkpt>
      <trkpt lat="44.95999" lon="4.35152">
        <ele>645.4</ele>
      </trkpt>
      <trkpt lat="44.96014" lon="4.35169">
        <ele>645.8</ele>
      </trkpt>
      <trkpt lat="44.96028" lon="4.35191">
        <ele>643.5</ele>
      </trkpt>
      <trkpt lat="44.96056" lon="4.35319">
        <ele>657</ele>
      </trkpt>
      <trkpt lat="44.96085" lon="4.35373">
        <ele>640.6</ele>
      </trkpt>
      <trkpt lat="44.96098" lon="4.35391">
        <ele>643.3</ele>
      </trkpt>
      <trkpt lat="44.96107" lon="4.3541">
        <ele>644.8</ele>
      </trkpt>
      <trkpt lat="44.96112" lon="4.35432">
        <ele>650.5</ele>
      </trkpt>
      <trkpt lat="44.96115" lon="4.35458">
        <ele>649.7</ele>
      </trkpt>
      <trkpt lat="44.96109" lon="4.35503">
        <ele>657.3</ele>
      </trkpt>
      <trkpt lat="44.96072" lon="4.3562">
        <ele>678.1</ele>
      </trkpt>
      <trkpt lat="44.96069" lon="4.35645">
        <ele>676.8</ele>
      </trkpt>
      <trkpt lat="44.9607" lon="4.35673">
        <ele>674.2</ele>
      </trkpt>
      <trkpt lat="44.96074" lon="4.35696">
        <ele>678.5</ele>
      </trkpt>
      <trkpt lat="44.96081" lon="4.35718">
        <ele>679.6</ele>
      </trkpt>
      <trkpt lat="44.96099" lon="4.3575">
        <ele>667.9</ele>
      </trkpt>
      <trkpt lat="44.96109" lon="4.35764">
        <ele>672.3</ele>
      </trkpt>
      <trkpt lat="44.96128" lon="4.35776">
        <ele>670.7</ele>
      </trkpt>
      <trkpt lat="44.96143" lon="4.35781">
        <ele>669.3</ele>
      </trkpt>
      <trkpt lat="44.96154" lon="4.35783">
        <ele>668.4</ele>
      </trkpt>
      <trkpt lat="44.96177" lon="4.3578">
        <ele>666.9</ele>
      </trkpt>
      <trkpt lat="44.96189" lon="4.35775">
        <ele>667.5</ele>
      </trkpt>
      <trkpt lat="44.96196" lon="4.35772">
        <ele>668.2</ele>
      </trkpt>
      <trkpt lat="44.96201" lon="4.35768">
        <ele>668.6</ele>
      </trkpt>
      <trkpt lat="44.9622" lon="4.35755">
        <ele>670.6</ele>
      </trkpt>
      <trkpt lat="44.96244" lon="4.35737">
        <ele>667.6</ele>
      </trkpt>
      <trkpt lat="44.96298" lon="4.35723">
        <ele>666.9</ele>
      </trkpt>
      <trkpt lat="44.96329" lon="4.35726">
        <ele>668.1</ele>
      </trkpt>
      <trkpt lat="44.96355" lon="4.35714">
        <ele>671.5</ele>
      </trkpt>
      <trkpt lat="44.96379" lon="4.35694">
        <ele>672.2</ele>
      </trkpt>
      <trkpt lat="44.96397" lon="4.35668">
        <ele>674.3</ele>
      </trkpt>
      <trkpt lat="44.96407" lon="4.35634">
        <ele>666.5</ele>
      </trkpt>
      <trkpt lat="44.96428" lon="4.35544">
        <ele>674.2</ele>
      </trkpt>
      <trkpt lat="44.96445" lon="4.355">
        <ele>672.4</ele>
      </trkpt>
      <trkpt lat="44.96496" lon="4.35403">
        <ele>661</ele>
      </trkpt>
      <trkpt lat="44.96547" lon="4.35345">
        <ele>675.6</ele>
      </trkpt>
      <trkpt lat="44.96567" lon="4.35325">
        <ele>670</ele>
      </trkpt>
      <trkpt lat="44.96583" lon="4.3529">
        <ele>663.5</ele>
      </trkpt>
      <trkpt lat="44.966" lon="4.35247">
        <ele>667.1</ele>
      </trkpt>
      <trkpt lat="44.96625" lon="4.35218">
        <ele>668.8</ele>
      </trkpt>
      <trkpt lat="44.96642" lon="4.35206">
        <ele>669.4</ele>
      </trkpt>
      <trkpt lat="44.9666" lon="4.35199">
        <ele>669.8</ele>
      </trkpt>
      <trkpt lat="44.96678" lon="4.35197">
        <ele>674.4</ele>
      </trkpt>
      <trkpt lat="44.96693" lon="4.35199">
        <ele>674.7</ele>
      </trkpt>
      <trkpt lat="44.96709" lon="4.35205">
        <ele>675</ele>
      </trkpt>
      <trkpt lat="44.96735" lon="4.35228">
        <ele>677.5</ele>
      </trkpt>
      <trkpt lat="44.96746" lon="4.35242">
        <ele>680</ele>
      </trkpt>
      <trkpt lat="44.96755" lon="4.3526">
        <ele>678.5</ele>
      </trkpt>
      <trkpt lat="44.96761" lon="4.35277">
        <ele>676.2</ele>
      </trkpt>
      <trkpt lat="44.96769" lon="4.35308">
        <ele>677.4</ele>
      </trkpt>
      <trkpt lat="44.96782" lon="4.35356">
        <ele>682</ele>
      </trkpt>
      <trkpt lat="44.96787" lon="4.35375">
        <ele>681.9</ele>
      </trkpt>
      <trkpt lat="44.9679" lon="4.35385">
        <ele>682</ele>
      </trkpt>
      <trkpt lat="44.96824" lon="4.35486">
        <ele>691.9</ele>
      </trkpt>
      <trkpt lat="44.96833" lon="4.35501">
        <ele>690.8</ele>
      </trkpt>
      <trkpt lat="44.9685" lon="4.3554">
        <ele>687.1</ele>
      </trkpt>
      <trkpt lat="44.96864" lon="4.3557">
        <ele>688.4</ele>
      </trkpt>
      <trkpt lat="44.9688" lon="4.3559">
        <ele>696.7</ele>
      </trkpt>
      <trkpt lat="44.96897" lon="4.35609">
        <ele>695.6</ele>
      </trkpt>
      <trkpt lat="44.96916" lon="4.35616">
        <ele>695</ele>
      </trkpt>
      <trkpt lat="44.96955" lon="4.35615">
        <ele>694.9</ele>
      </trkpt>
      <trkpt lat="44.96984" lon="4.35598">
        <ele>695.3</ele>
      </trkpt>
      <trkpt lat="44.97012" lon="4.35572">
        <ele>691.6</ele>
      </trkpt>
      <trkpt lat="44.97031" lon="4.35557">
        <ele>690.2</ele>
      </trkpt>
      <trkpt lat="44.97055" lon="4.35549">
        <ele>691</ele>
      </trkpt>
      <trkpt lat="44.97097" lon="4.3555">
        <ele>701.2</ele>
      </trkpt>
      <trkpt lat="44.97114" lon="4.35547">
        <ele>701.4</ele>
      </trkpt>
      <trkpt lat="44.97136" lon="4.35538">
        <ele>701.4</ele>
      </trkpt>
      <trkpt lat="44.9718" lon="4.35502">
        <ele>701.7</ele>
      </trkpt>
      <trkpt lat="44.972" lon="4.35483">
        <ele>691.3</ele>
      </trkpt>
      <trkpt lat="44.97218" lon="4.35469">
        <ele>691.6</ele>
      </trkpt>
      <trkpt lat="44.97236" lon="4.35458">
        <ele>691.4</ele>
      </trkpt>
      <trkpt lat="44.97247" lon="4.35454">
        <ele>691.2</ele>
      </trkpt>
      <trkpt lat="44.97275" lon="4.35455">
        <ele>694.4</ele>
      </trkpt>
      <trkpt lat="44.97295" lon="4.35463">
        <ele>694.8</ele>
      </trkpt>
      <trkpt lat="44.97315" lon="4.3548">
        <ele>697.1</ele>
      </trkpt>
      <trkpt lat="44.97325" lon="4.35491">
        <ele>699.6</ele>
      </trkpt>
      <trkpt lat="44.97348" lon="4.35527">
        <ele>699.9</ele>
      </trkpt>
      <trkpt lat="44.97371" lon="4.35558">
        <ele>699.5</ele>
      </trkpt>
      <trkpt lat="44.97403" lon="4.35605">
        <ele>707.3</ele>
      </trkpt>
      <trkpt lat="44.9741" lon="4.35623">
        <ele>710.6</ele>
      </trkpt>
      <trkpt lat="44.97416" lon="4.35643">
        <ele>712.7</ele>
      </trkpt>
      <trkpt lat="44.97419" lon="4.35666">
        <ele>709.3</ele>
      </trkpt>
      <trkpt lat="44.9742" lon="4.35707">
        <ele>699.2</ele>
      </trkpt>
      <trkpt lat="44.9742" lon="4.35748">
        <ele>711.5</ele>
      </trkpt>
      <trkpt lat="44.97415" lon="4.35851">
        <ele>733.3</ele>
      </trkpt>
      <trkpt lat="44.97418" lon="4.35875">
        <ele>711.6</ele>
      </trkpt>
      <trkpt lat="44.97422" lon="4.35897">
        <ele>716.8</ele>
      </trkpt>
      <trkpt lat="44.9743" lon="4.35917">
        <ele>726.4</ele>
      </trkpt>
      <trkpt lat="44.97464" lon="4.35977">
        <ele>720.1</ele>
      </trkpt>
      <trkpt lat="44.97476" lon="4.36005">
        <ele>726.9</ele>
      </trkpt>
      <trkpt lat="44.97483" lon="4.36031">
        <ele>729.8</ele>
      </trkpt>
      <trkpt lat="44.9749" lon="4.36081">
        <ele>728.2</ele>
      </trkpt>
      <trkpt lat="44.97497" lon="4.36107">
        <ele>737.7</ele>
      </trkpt>
      <trkpt lat="44.97501" lon="4.36117">
        <ele>723.7</ele>
      </trkpt>
      <trkpt lat="44.97505" lon="4.36126">
        <ele>724.4</ele>
      </trkpt>
      <trkpt lat="44.97513" lon="4.36138">
        <ele>725.5</ele>
      </trkpt>
      <trkpt lat="44.97526" lon="4.36151">
        <ele>725.9</ele>
      </trkpt>
      <trkpt lat="44.97552" lon="4.36168">
        <ele>738.4</ele>
      </trkpt>
      <trkpt lat="44.97566" lon="4.36172">
        <ele>736.4</ele>
      </trkpt>
      <trkpt lat="44.97579" lon="4.36172">
        <ele>732.7</ele>
      </trkpt>
      <trkpt lat="44.97588" lon="4.36172">
        <ele>733.2</ele>
      </trkpt>
      <trkpt lat="44.97642" lon="4.36158">
        <ele>722.4</ele>
      </trkpt>
      <trkpt lat="44.97657" lon="4.36158">
        <ele>725.2</ele>
      </trkpt>
      <trkpt lat="44.97694" lon="4.36163">
        <ele>719.6</ele>
      </trkpt>
      <trkpt lat="44.9771" lon="4.36172">
        <ele>733.8</ele>
      </trkpt>
      <trkpt lat="44.97724" lon="4.36195">
        <ele>735</ele>
      </trkpt>
      <trkpt lat="44.97732" lon="4.36215">
        <ele>737.9</ele>
      </trkpt>
      <trkpt lat="44.97757" lon="4.36306">
        <ele>739.6</ele>
      </trkpt>
      <trkpt lat="44.97764" lon="4.36323">
        <ele>742.3</ele>
      </trkpt>
      <trkpt lat="44.97768" lon="4.3633">
        <ele>741.9</ele>
      </trkpt>
      <trkpt lat="44.97778" lon="4.36346">
        <ele>742.6</ele>
      </trkpt>
      <trkpt lat="44.9779" lon="4.36359">
        <ele>740.4</ele>
      </trkpt>
      <trkpt lat="44.97806" lon="4.3637">
        <ele>738.8</ele>
      </trkpt>
      <trkpt lat="44.97828" lon="4.36376">
        <ele>737.6</ele>
      </trkpt>
      <trkpt lat="44.97845" lon="4.36375">
        <ele>739.7</ele>
      </trkpt>
      <trkpt lat="44.97877" lon="4.36364">
        <ele>742.5</ele>
      </trkpt>
      <trkpt lat="44.97882" lon="4.36362">
        <ele>743</ele>
      </trkpt>
      <trkpt lat="44.97889" lon="4.36356">
        <ele>743.5</ele>
      </trkpt>
      <trkpt lat="44.97904" lon="4.36351">
        <ele>744.7</ele>
      </trkpt>
      <trkpt lat="44.97925" lon="4.36344">
        <ele>747.8</ele>
      </trkpt>
      <trkpt lat="44.97935" lon="4.36342">
        <ele>747.9</ele>
      </trkpt>
      <trkpt lat="44.97961" lon="4.36347">
        <ele>747.4</ele>
      </trkpt>
      <trkpt lat="44.9797" lon="4.3635">
        <ele>746.9</ele>
      </trkpt>
      <trkpt lat="44.97988" lon="4.36362">
        <ele>746.8</ele>
      </trkpt>
      <trkpt lat="44.98005" lon="4.36385">
        <ele>735.9</ele>
      </trkpt>
      <trkpt lat="44.98035" lon="4.36458">
        <ele>746.2</ele>
      </trkpt>
      <trkpt lat="44.98082" lon="4.36615">
        <ele>769.2</ele>
      </trkpt>
      <trkpt lat="44.98112" lon="4.36673">
        <ele>762.1</ele>
      </trkpt>
      <trkpt lat="44.98123" lon="4.36698">
        <ele>761.1</ele>
      </trkpt>
      <trkpt lat="44.98133" lon="4.36718">
        <ele>761</ele>
      </trkpt>
      <trkpt lat="44.98152" lon="4.36742">
        <ele>758.9</ele>
      </trkpt>
      <trkpt lat="44.98167" lon="4.36756">
        <ele>758.6</ele>
      </trkpt>
      <trkpt lat="44.98193" lon="4.36769">
        <ele>764.6</ele>
      </trkpt>
      <trkpt lat="44.98205" lon="4.36771">
        <ele>765.7</ele>
      </trkpt>
      <trkpt lat="44.98232" lon="4.36764">
        <ele>765</ele>
      </trkpt>
      <trkpt lat="44.98324" lon="4.36717">
        <ele>759.3</ele>
      </trkpt>
      <trkpt lat="44.98349" lon="4.36708">
        <ele>760.2</ele>
      </trkpt>
      <trkpt lat="44.98359" lon="4.36707">
        <ele>759.8</ele>
      </trkpt>
      <trkpt lat="44.98384" lon="4.36713">
        <ele>760.3</ele>
      </trkpt>
      <trkpt lat="44.98413" lon="4.36733">
        <ele>764.6</ele>
      </trkpt>
      <trkpt lat="44.98422" lon="4.36745">
        <ele>763.1</ele>
      </trkpt>
      <trkpt lat="44.98428" lon="4.36756">
        <ele>766.2</ele>
      </trkpt>
      <trkpt lat="44.98442" lon="4.36791">
        <ele>764.6</ele>
      </trkpt>
      <trkpt lat="44.98476" lon="4.36914">
        <ele>774.5</ele>
      </trkpt>
      <trkpt lat="44.98515" lon="4.37067">
        <ele>772.5</ele>
      </trkpt>
      <trkpt lat="44.98518" lon="4.37091">
        <ele>776.6</ele>
      </trkpt>
      <trkpt lat="44.98517" lon="4.3712">
        <ele>773.7</ele>
      </trkpt>
      <trkpt lat="44.98503" lon="4.37235">
        <ele>782.5</ele>
      </trkpt>
      <trkpt lat="44.98502" lon="4.37265">
        <ele>784.9</ele>
      </trkpt>
      <trkpt lat="44.98503" lon="4.37321">
        <ele>790.8</ele>
      </trkpt>
      <trkpt lat="44.98506" lon="4.3734">
        <ele>797.1</ele>
      </trkpt>
      <trkpt lat="44.98518" lon="4.37373">
        <ele>793.5</ele>
      </trkpt>
      <trkpt lat="44.98525" lon="4.37384">
        <ele>793.6</ele>
      </trkpt>
      <trkpt lat="44.98533" lon="4.37396">
        <ele>793.3</ele>
      </trkpt>
      <trkpt lat="44.98578" lon="4.37443">
        <ele>799.6</ele>
      </trkpt>
      <trkpt lat="44.98587" lon="4.37454">
        <ele>782.2</ele>
      </trkpt>
      <trkpt lat="44.98596" lon="4.37468">
        <ele>784.1</ele>
      </trkpt>
      <trkpt lat="44.98601" lon="4.37483">
        <ele>787.1</ele>
      </trkpt>
      <trkpt lat="44.98605" lon="4.37501">
        <ele>794.5</ele>
      </trkpt>
      <trkpt lat="44.98612" lon="4.37614">
        <ele>800.1</ele>
      </trkpt>
      <trkpt lat="44.98618" lon="4.37638">
        <ele>800.7</ele>
      </trkpt>
      <trkpt lat="44.98638" lon="4.37693">
        <ele>810.1</ele>
      </trkpt>
      <trkpt lat="44.98669" lon="4.37767">
        <ele>805.8</ele>
      </trkpt>
      <trkpt lat="44.9869" lon="4.37804">
        <ele>806.6</ele>
      </trkpt>
      <trkpt lat="44.98729" lon="4.37843">
        <ele>814.2</ele>
      </trkpt>
      <trkpt lat="44.98793" lon="4.37885">
        <ele>803.5</ele>
      </trkpt>
      <trkpt lat="44.9886" lon="4.37904">
        <ele>794</ele>
      </trkpt>
      <trkpt lat="44.98884" lon="4.37921">
        <ele>804.4</ele>
      </trkpt>
      <trkpt lat="44.98898" lon="4.37936">
        <ele>803.4</ele>
      </trkpt>
      <trkpt lat="44.9891" lon="4.37956">
        <ele>806.3</ele>
      </trkpt>
      <trkpt lat="44.98916" lon="4.37973">
        <ele>808.7</ele>
      </trkpt>
      <trkpt lat="44.98919" lon="4.37986">
        <ele>804.7</ele>
      </trkpt>
      <trkpt lat="44.98924" lon="4.38011">
        <ele>809.9</ele>
      </trkpt>
      <trkpt lat="44.98928" lon="4.38031">
        <ele>809.6</ele>
      </trkpt>
      <trkpt lat="44.98934" lon="4.3806">
        <ele>810.7</ele>
      </trkpt>
      <trkpt lat="44.98947" lon="4.38099">
        <ele>819.5</ele>
      </trkpt>
      <trkpt lat="44.98952" lon="4.38108">
        <ele>820.1</ele>
      </trkpt>
      <trkpt lat="44.98963" lon="4.38123">
        <ele>821</ele>
      </trkpt>
      <trkpt lat="44.98983" lon="4.38141">
        <ele>821.8</ele>
      </trkpt>
      <trkpt lat="44.98992" lon="4.38147">
        <ele>822.2</ele>
      </trkpt>
      <trkpt lat="44.99005" lon="4.38151">
        <ele>819.4</ele>
      </trkpt>
      <trkpt lat="44.99013" lon="4.38152">
        <ele>819</ele>
      </trkpt>
      <trkpt lat="44.9903" lon="4.38151">
        <ele>817.8</ele>
      </trkpt>
      <trkpt lat="44.99039" lon="4.38149">
        <ele>817.5</ele>
      </trkpt>
      <trkpt lat="44.99061" lon="4.38139">
        <ele>817.1</ele>
      </trkpt>
      <trkpt lat="44.9907" lon="4.38131">
        <ele>816.3</ele>
      </trkpt>
      <trkpt lat="44.99082" lon="4.38117">
        <ele>814.3</ele>
      </trkpt>
      <trkpt lat="44.991" lon="4.38089">
        <ele>822.9</ele>
      </trkpt>
      <trkpt lat="44.99116" lon="4.38055">
        <ele>821.8</ele>
      </trkpt>
      <trkpt lat="44.99128" lon="4.38018">
        <ele>822.6</ele>
      </trkpt>
      <trkpt lat="44.99132" lon="4.38">
        <ele>820.6</ele>
      </trkpt>
      <trkpt lat="44.99136" lon="4.37983">
        <ele>821.6</ele>
      </trkpt>
      <trkpt lat="44.99138" lon="4.37964">
        <ele>821.6</ele>
      </trkpt>
      <trkpt lat="44.99139" lon="4.37948">
        <ele>822.3</ele>
      </trkpt>
      <trkpt lat="44.99139" lon="4.3793">
        <ele>823.7</ele>
      </trkpt>
      <trkpt lat="44.99133" lon="4.37897">
        <ele>827.1</ele>
      </trkpt>
      <trkpt lat="44.99117" lon="4.37845">
        <ele>825.6</ele>
      </trkpt>
      <trkpt lat="44.99092" lon="4.37778">
        <ele>839.5</ele>
      </trkpt>
      <trkpt lat="44.99086" lon="4.37754">
        <ele>840.3</ele>
      </trkpt>
      <trkpt lat="44.99084" lon="4.37741">
        <ele>844.6</ele>
      </trkpt>
      <trkpt lat="44.99085" lon="4.37708">
        <ele>851.5</ele>
      </trkpt>
      <trkpt lat="44.99088" lon="4.37687">
        <ele>852.5</ele>
      </trkpt>
      <trkpt lat="44.99095" lon="4.37663">
        <ele>849.1</ele>
      </trkpt>
      <trkpt lat="44.99112" lon="4.37628">
        <ele>844.8</ele>
      </trkpt>
      <trkpt lat="44.99121" lon="4.37612">
        <ele>843.1</ele>
      </trkpt>
      <trkpt lat="44.99127" lon="4.37601">
        <ele>842.2</ele>
      </trkpt>
      <trkpt lat="44.99131" lon="4.37589">
        <ele>841.4</ele>
      </trkpt>
      <trkpt lat="44.99138" lon="4.37569">
        <ele>828.9</ele>
      </trkpt>
      <trkpt lat="44.99142" lon="4.37554">
        <ele>827.7</ele>
      </trkpt>
      <trkpt lat="44.99145" lon="4.37519">
        <ele>824.4</ele>
      </trkpt>
      <trkpt lat="44.99142" lon="4.37488">
        <ele>828</ele>
      </trkpt>
      <trkpt lat="44.99137" lon="4.37473">
        <ele>830</ele>
      </trkpt>
      <trkpt lat="44.9913" lon="4.37456">
        <ele>832.5</ele>
      </trkpt>
      <trkpt lat="44.99119" lon="4.37436">
        <ele>834.8</ele>
      </trkpt>
      <trkpt lat="44.99089" lon="4.37409">
        <ele>847.5</ele>
      </trkpt>
      <trkpt lat="44.99068" lon="4.37397">
        <ele>851.9</ele>
      </trkpt>
      <trkpt lat="44.99056" lon="4.37392">
        <ele>854.3</ele>
      </trkpt>
      <trkpt lat="44.9903" lon="4.3739">
        <ele>854.7</ele>
      </trkpt>
      <trkpt lat="44.99014" lon="4.37394">
        <ele>852.2</ele>
      </trkpt>
      <trkpt lat="44.98948" lon="4.37425">
        <ele>832.8</ele>
      </trkpt>
      <trkpt lat="44.9893" lon="4.37429">
        <ele>835.7</ele>
      </trkpt>
      <trkpt lat="44.98919" lon="4.37428">
        <ele>838.3</ele>
      </trkpt>
      <trkpt lat="44.98898" lon="4.37419">
        <ele>832</ele>
      </trkpt>
      <trkpt lat="44.98881" lon="4.37406">
        <ele>840.4</ele>
      </trkpt>
      <trkpt lat="44.98865" lon="4.37389">
        <ele>838.9</ele>
      </trkpt>
      <trkpt lat="44.98857" lon="4.3737">
        <ele>840.6</ele>
      </trkpt>
      <trkpt lat="44.98847" lon="4.37343">
        <ele>841</ele>
      </trkpt>
      <trkpt lat="44.98832" lon="4.37288">
        <ele>829.5</ele>
      </trkpt>
      <trkpt lat="44.9883" lon="4.37261">
        <ele>838.3</ele>
      </trkpt>
      <trkpt lat="44.9883" lon="4.3726">
        <ele>838.9</ele>
      </trkpt>
      <trkpt lat="44.98831" lon="4.37226">
        <ele>834.5</ele>
      </trkpt>
      <trkpt lat="44.98838" lon="4.372">
        <ele>858.2</ele>
      </trkpt>
      <trkpt lat="44.98847" lon="4.37178">
        <ele>854.7</ele>
      </trkpt>
      <trkpt lat="44.98857" lon="4.37162">
        <ele>849.8</ele>
      </trkpt>
      <trkpt lat="44.98865" lon="4.3715">
        <ele>851.7</ele>
      </trkpt>
      <trkpt lat="44.98885" lon="4.37123">
        <ele>853.7</ele>
      </trkpt>
      <trkpt lat="44.98892" lon="4.3711">
        <ele>853.7</ele>
      </trkpt>
      <trkpt lat="44.98898" lon="4.37095">
        <ele>854.3</ele>
      </trkpt>
      <trkpt lat="44.98902" lon="4.37084">
        <ele>855.2</ele>
      </trkpt>
      <trkpt lat="44.98906" lon="4.37062">
        <ele>850</ele>
      </trkpt>
      <trkpt lat="44.98908" lon="4.37039">
        <ele>849.3</ele>
      </trkpt>
      <trkpt lat="44.98906" lon="4.37017">
        <ele>852.1</ele>
      </trkpt>
      <trkpt lat="44.98902" lon="4.36994">
        <ele>858.4</ele>
      </trkpt>
      <trkpt lat="44.98899" lon="4.36985">
        <ele>857.6</ele>
      </trkpt>
      <trkpt lat="44.98894" lon="4.36974">
        <ele>857.1</ele>
      </trkpt>
      <trkpt lat="44.98879" lon="4.36943">
        <ele>857.6</ele>
      </trkpt>
      <trkpt lat="44.98856" lon="4.36905">
        <ele>860.8</ele>
      </trkpt>
      <trkpt lat="44.9885" lon="4.36893">
        <ele>861</ele>
      </trkpt>
      <trkpt lat="44.98844" lon="4.36864">
        <ele>862.1</ele>
      </trkpt>
      <trkpt lat="44.98842" lon="4.36836">
        <ele>856.6</ele>
      </trkpt>
      <trkpt lat="44.98843" lon="4.36817">
        <ele>862.9</ele>
      </trkpt>
      <trkpt lat="44.98845" lon="4.36797">
        <ele>866.9</ele>
      </trkpt>
      <trkpt lat="44.98849" lon="4.36758">
        <ele>863.7</ele>
      </trkpt>
      <trkpt lat="44.98848" lon="4.36735">
        <ele>869.4</ele>
      </trkpt>
      <trkpt lat="44.98842" lon="4.36707">
        <ele>874.9</ele>
      </trkpt>
      <trkpt lat="44.98832" lon="4.36681">
        <ele>854.9</ele>
      </trkpt>
      <trkpt lat="44.98825" lon="4.36662">
        <ele>862.3</ele>
      </trkpt>
      <trkpt lat="44.98804" lon="4.36604">
        <ele>858.9</ele>
      </trkpt>
      <trkpt lat="44.98793" lon="4.36567">
        <ele>864</ele>
      </trkpt>
      <trkpt lat="44.98787" lon="4.36529">
        <ele>864</ele>
      </trkpt>
      <trkpt lat="44.98783" lon="4.36495">
        <ele>869.3</ele>
      </trkpt>
      <trkpt lat="44.98774" lon="4.3645">
        <ele>871.4</ele>
      </trkpt>
      <trkpt lat="44.98767" lon="4.36429">
        <ele>869.3</ele>
      </trkpt>
      <trkpt lat="44.98748" lon="4.36386">
        <ele>854.8</ele>
      </trkpt>
      <trkpt lat="44.9874" lon="4.36363">
        <ele>856.9</ele>
      </trkpt>
      <trkpt lat="44.98732" lon="4.36331">
        <ele>864.1</ele>
      </trkpt>
      <trkpt lat="44.9873" lon="4.36303">
        <ele>859.7</ele>
      </trkpt>
      <trkpt lat="44.98729" lon="4.36261">
        <ele>861.9</ele>
      </trkpt>
      <trkpt lat="44.98736" lon="4.36211">
        <ele>858.4</ele>
      </trkpt>
      <trkpt lat="44.98738" lon="4.36186">
        <ele>860.6</ele>
      </trkpt>
      <trkpt lat="44.98736" lon="4.36104">
        <ele>862</ele>
      </trkpt>
      <trkpt lat="44.9874" lon="4.36078">
        <ele>872.1</ele>
      </trkpt>
      <trkpt lat="44.98742" lon="4.3607">
        <ele>871</ele>
      </trkpt>
      <trkpt lat="44.98748" lon="4.36052">
        <ele>869.6</ele>
      </trkpt>
      <trkpt lat="44.98756" lon="4.36038">
        <ele>887.3</ele>
      </trkpt>
      <trkpt lat="44.98765" lon="4.36023">
        <ele>887.7</ele>
      </trkpt>
      <trkpt lat="44.98775" lon="4.3601">
        <ele>888.1</ele>
      </trkpt>
      <trkpt lat="44.98799" lon="4.35994">
        <ele>880.3</ele>
      </trkpt>
      <trkpt lat="44.98812" lon="4.3599">
        <ele>881.3</ele>
      </trkpt>
      <trkpt lat="44.98827" lon="4.35987">
        <ele>883.3</ele>
      </trkpt>
      <trkpt lat="44.98844" lon="4.3599">
        <ele>878.3</ele>
      </trkpt>
      <trkpt lat="44.9886" lon="4.35997">
        <ele>873.5</ele>
      </trkpt>
      <trkpt lat="44.98908" lon="4.36029">
        <ele>888.7</ele>
      </trkpt>
      <trkpt lat="44.9892" lon="4.36035">
        <ele>888.4</ele>
      </trkpt>
      <trkpt lat="44.98932" lon="4.36039">
        <ele>889.9</ele>
      </trkpt>
      <trkpt lat="44.98956" lon="4.36043">
        <ele>891.5</ele>
      </trkpt>
      <trkpt lat="44.98972" lon="4.36041">
        <ele>891.4</ele>
      </trkpt>
      <trkpt lat="44.98992" lon="4.36035">
        <ele>889.8</ele>
      </trkpt>
      <trkpt lat="44.99015" lon="4.36023">
        <ele>893.9</ele>
      </trkpt>
      <trkpt lat="44.9906" lon="4.35989">
        <ele>877.6</ele>
      </trkpt>
      <trkpt lat="44.99074" lon="4.35981">
        <ele>879.5</ele>
      </trkpt>
      <trkpt lat="44.99113" lon="4.35967">
        <ele>885.7</ele>
      </trkpt>
      <trkpt lat="44.99126" lon="4.35965">
        <ele>886</ele>
      </trkpt>
      <trkpt lat="44.99145" lon="4.35965">
        <ele>887.4</ele>
      </trkpt>
      <trkpt lat="44.99172" lon="4.35973">
        <ele>894.2</ele>
      </trkpt>
      <trkpt lat="44.99227" lon="4.35995">
        <ele>897</ele>
      </trkpt>
      <trkpt lat="44.99244" lon="4.35995">
        <ele>901.6</ele>
      </trkpt>
      <trkpt lat="44.99298" lon="4.35975">
        <ele>894.5</ele>
      </trkpt>
      <trkpt lat="44.99315" lon="4.35971">
        <ele>894.8</ele>
      </trkpt>
      <trkpt lat="44.99327" lon="4.35971">
        <ele>895.5</ele>
      </trkpt>
      <trkpt lat="44.99347" lon="4.35975">
        <ele>891.6</ele>
      </trkpt>
      <trkpt lat="44.99361" lon="4.35984">
        <ele>891</ele>
      </trkpt>
      <trkpt lat="44.99385" lon="4.36005">
        <ele>908.5</ele>
      </trkpt>
      <trkpt lat="44.99416" lon="4.36038">
        <ele>912.1</ele>
      </trkpt>
      <trkpt lat="44.99439" lon="4.36059">
        <ele>908.6</ele>
      </trkpt>
      <trkpt lat="44.99449" lon="4.36066">
        <ele>908.7</ele>
      </trkpt>
      <trkpt lat="44.99479" lon="4.36069">
        <ele>908</ele>
      </trkpt>
      <trkpt lat="44.99519" lon="4.36057">
        <ele>908.1</ele>
      </trkpt>
      <trkpt lat="44.99573" lon="4.36031">
        <ele>906.7</ele>
      </trkpt>
      <trkpt lat="44.99616" lon="4.36006">
        <ele>916.7</ele>
      </trkpt>
      <trkpt lat="44.9967" lon="4.36">
        <ele>922.6</ele>
      </trkpt>
      <trkpt lat="44.99685" lon="4.35997">
        <ele>919.7</ele>
      </trkpt>
      <trkpt lat="44.99706" lon="4.35986">
        <ele>921.3</ele>
      </trkpt>
      <trkpt lat="44.99722" lon="4.35971">
        <ele>922</ele>
      </trkpt>
      <trkpt lat="44.99762" lon="4.35908">
        <ele>919.8</ele>
      </trkpt>
      <trkpt lat="44.99807" lon="4.35865">
        <ele>923.2</ele>
      </trkpt>
      <trkpt lat="44.99819" lon="4.35851">
        <ele>924</ele>
      </trkpt>
      <trkpt lat="44.99846" lon="4.35805">
        <ele>926.2</ele>
      </trkpt>
      <trkpt lat="44.99867" lon="4.35777">
        <ele>924.5</ele>
      </trkpt>
      <trkpt lat="44.99927" lon="4.3571">
        <ele>927.5</ele>
      </trkpt>
      <trkpt lat="44.99928" lon="4.3571">
        <ele>927.6</ele>
      </trkpt>
      <trkpt lat="44.99943" lon="4.35696">
        <ele>926.7</ele>
      </trkpt>
      <trkpt lat="44.99983" lon="4.35638">
        <ele>913.7</ele>
      </trkpt>
      <trkpt lat="44.99997" lon="4.35625">
        <ele>912.1</ele>
      </trkpt>
      <trkpt lat="45.00009" lon="4.35617">
        <ele>925.5</ele>
      </trkpt>
      <trkpt lat="45.00022" lon="4.35614">
        <ele>926.1</ele>
      </trkpt>
      <trkpt lat="45.00034" lon="4.35614">
        <ele>927.6</ele>
      </trkpt>
      <trkpt lat="45.00057" lon="4.35618">
        <ele>930.5</ele>
      </trkpt>
      <trkpt lat="45.00076" lon="4.35629">
        <ele>933.5</ele>
      </trkpt>
      <trkpt lat="45.00087" lon="4.3564">
        <ele>934.3</ele>
      </trkpt>
      <trkpt lat="45.00098" lon="4.35653">
        <ele>936</ele>
      </trkpt>
      <trkpt lat="45.00107" lon="4.35667">
        <ele>939.2</ele>
      </trkpt>
      <trkpt lat="45.00115" lon="4.35687">
        <ele>936.7</ele>
      </trkpt>
      <trkpt lat="45.00122" lon="4.35725">
        <ele>935.9</ele>
      </trkpt>
      <trkpt lat="45.00123" lon="4.35739">
        <ele>936</ele>
      </trkpt>
      <trkpt lat="45.00109" lon="4.35872">
        <ele>942.5</ele>
      </trkpt>
      <trkpt lat="45.00104" lon="4.35892">
        <ele>943.7</ele>
      </trkpt>
      <trkpt lat="45.00097" lon="4.35911">
        <ele>947.7</ele>
      </trkpt>
      <trkpt lat="45.00074" lon="4.35959">
        <ele>957</ele>
      </trkpt>
      <trkpt lat="45.00055" lon="4.36012">
        <ele>953.7</ele>
      </trkpt>
      <trkpt lat="45.00053" lon="4.36038">
        <ele>954.7</ele>
      </trkpt>
      <trkpt lat="45.00054" lon="4.36063">
        <ele>953.7</ele>
      </trkpt>
      <trkpt lat="45.00057" lon="4.36079">
        <ele>952.1</ele>
      </trkpt>
      <trkpt lat="45.00061" lon="4.36092">
        <ele>953.1</ele>
      </trkpt>
      <trkpt lat="45.00107" lon="4.36212">
        <ele>944.8</ele>
      </trkpt>
      <trkpt lat="45.00135" lon="4.36297">
        <ele>955.2</ele>
      </trkpt>
      <trkpt lat="45.00154" lon="4.36329">
        <ele>954.5</ele>
      </trkpt>
      <trkpt lat="45.00164" lon="4.3634">
        <ele>957.4</ele>
      </trkpt>
      <trkpt lat="45.00192" lon="4.36356">
        <ele>958.1</ele>
      </trkpt>
      <trkpt lat="45.00255" lon="4.36376">
        <ele>949</ele>
      </trkpt>
      <trkpt lat="45.00274" lon="4.36394">
        <ele>949.9</ele>
      </trkpt>
      <trkpt lat="45.00286" lon="4.36414">
        <ele>949.1</ele>
      </trkpt>
      <trkpt lat="45.00308" lon="4.36467">
        <ele>960.4</ele>
      </trkpt>
      <trkpt lat="45.00323" lon="4.36496">
        <ele>959.6</ele>
      </trkpt>
      <trkpt lat="45.00355" lon="4.36545">
        <ele>960.2</ele>
      </trkpt>
      <trkpt lat="45.00395" lon="4.36597">
        <ele>968.6</ele>
      </trkpt>
      <trkpt lat="45.00414" lon="4.36614">
        <ele>969.7</ele>
      </trkpt>
      <trkpt lat="45.00439" lon="4.36632">
        <ele>965.1</ele>
      </trkpt>
      <trkpt lat="45.00485" lon="4.36658">
        <ele>965.4</ele>
      </trkpt>
      <trkpt lat="45.0055" lon="4.36722">
        <ele>969.9</ele>
      </trkpt>
      <trkpt lat="45.00573" lon="4.36748">
        <ele>972.9</ele>
      </trkpt>
      <trkpt lat="45.00596" lon="4.36767">
        <ele>980.1</ele>
      </trkpt>
      <trkpt lat="45.00614" lon="4.36775">
        <ele>981.5</ele>
      </trkpt>
      <trkpt lat="45.00633" lon="4.36777">
        <ele>980.6</ele>
      </trkpt>
      <trkpt lat="45.00733" lon="4.36765">
        <ele>979</ele>
      </trkpt>
      <trkpt lat="45.00759" lon="4.36754">
        <ele>981.6</ele>
      </trkpt>
      <trkpt lat="45.00771" lon="4.36744">
        <ele>976.4</ele>
      </trkpt>
      <trkpt lat="45.00807" lon="4.36698">
        <ele>976.1</ele>
      </trkpt>
      <trkpt lat="45.00818" lon="4.36688">
        <ele>976.5</ele>
      </trkpt>
      <trkpt lat="45.00832" lon="4.36679">
        <ele>977.2</ele>
      </trkpt>
      <trkpt lat="45.00847" lon="4.36674">
        <ele>983.2</ele>
      </trkpt>
      <trkpt lat="45.00863" lon="4.36673">
        <ele>985.6</ele>
      </trkpt>
      <trkpt lat="45.0088" lon="4.36676">
        <ele>987.1</ele>
      </trkpt>
      <trkpt lat="45.00896" lon="4.36683">
        <ele>987.9</ele>
      </trkpt>
      <trkpt lat="45.00915" lon="4.36698">
        <ele>988.9</ele>
      </trkpt>
      <trkpt lat="45.00934" lon="4.36724">
        <ele>980.4</ele>
      </trkpt>
      <trkpt lat="45.00943" lon="4.36745">
        <ele>980.4</ele>
      </trkpt>
      <trkpt lat="45.00944" lon="4.36748">
        <ele>980.2</ele>
      </trkpt>
      <trkpt lat="45.00949" lon="4.36766">
        <ele>981.5</ele>
      </trkpt>
      <trkpt lat="45.00952" lon="4.36791">
        <ele>981.1</ele>
      </trkpt>
      <trkpt lat="45.00953" lon="4.36822">
        <ele>982.4</ele>
      </trkpt>
      <trkpt lat="45.00947" lon="4.36938">
        <ele>981.8</ele>
      </trkpt>
      <trkpt lat="45.00943" lon="4.36965">
        <ele>981.3</ele>
      </trkpt>
      <trkpt lat="45.00936" lon="4.36987">
        <ele>983.5</ele>
      </trkpt>
      <trkpt lat="45.00925" lon="4.37013">
        <ele>984.9</ele>
      </trkpt>
      <trkpt lat="45.00904" lon="4.37053">
        <ele>995.7</ele>
      </trkpt>
      <trkpt lat="45.00897" lon="4.3707">
        <ele>995.2</ele>
      </trkpt>
      <trkpt lat="45.00892" lon="4.37088">
        <ele>995.2</ele>
      </trkpt>
      <trkpt lat="45.00889" lon="4.37103">
        <ele>996.2</ele>
      </trkpt>
      <trkpt lat="45.00886" lon="4.37127">
        <ele>996.7</ele>
      </trkpt>
      <trkpt lat="45.00886" lon="4.37154">
        <ele>995.4</ele>
      </trkpt>
      <trkpt lat="45.00884" lon="4.37181">
        <ele>992.4</ele>
      </trkpt>
      <trkpt lat="45.00878" lon="4.3721">
        <ele>992.7</ele>
      </trkpt>
      <trkpt lat="45.00871" lon="4.37233">
        <ele>992.9</ele>
      </trkpt>
      <trkpt lat="45.00857" lon="4.37254">
        <ele>990.6</ele>
      </trkpt>
      <trkpt lat="45.00817" lon="4.37304">
        <ele>999.5</ele>
      </trkpt>
      <trkpt lat="45.00782" lon="4.37343">
        <ele>996.2</ele>
      </trkpt>
      <trkpt lat="45.00739" lon="4.37396">
        <ele>1003.2</ele>
      </trkpt>
      <trkpt lat="45.00724" lon="4.37425">
        <ele>1002.3</ele>
      </trkpt>
      <trkpt lat="45.00715" lon="4.37459">
        <ele>1003.6</ele>
      </trkpt>
      <trkpt lat="45.0071" lon="4.3749">
        <ele>1004</ele>
      </trkpt>
      <trkpt lat="45.0071" lon="4.37529">
        <ele>1005.5</ele>
      </trkpt>
      <trkpt lat="45.00717" lon="4.37561">
        <ele>1005.6</ele>
      </trkpt>
      <trkpt lat="45.0073" lon="4.37592">
        <ele>1007.4</ele>
      </trkpt>
      <trkpt lat="45.0075" lon="4.37623">
        <ele>1005.2</ele>
      </trkpt>
      <trkpt lat="45.0079" lon="4.37672">
        <ele>1010.8</ele>
      </trkpt>
      <trkpt lat="45.00806" lon="4.37692">
        <ele>1010.9</ele>
      </trkpt>
      <trkpt lat="45.00817" lon="4.37716">
        <ele>1011.8</ele>
      </trkpt>
      <trkpt lat="45.00848" lon="4.37795">
        <ele>1012</ele>
      </trkpt>
      <trkpt lat="45.0086" lon="4.37815">
        <ele>1012.7</ele>
      </trkpt>
      <trkpt lat="45.00879" lon="4.37839">
        <ele>1018.3</ele>
      </trkpt>
      <trkpt lat="45.00892" lon="4.37849">
        <ele>1017.6</ele>
      </trkpt>
      <trkpt lat="45.00909" lon="4.37857">
        <ele>1017.2</ele>
      </trkpt>
      <trkpt lat="45.00938" lon="4.37868">
        <ele>1014.5</ele>
      </trkpt>
      <trkpt lat="45.00961" lon="4.37882">
        <ele>1015</ele>
      </trkpt>
      <trkpt lat="45.00971" lon="4.3789">
        <ele>1015.4</ele>
      </trkpt>
      <trkpt lat="45.00995" lon="4.37919">
        <ele>1020.6</ele>
      </trkpt>
      <trkpt lat="45.01008" lon="4.37947">
        <ele>1012.8</ele>
      </trkpt>
      <trkpt lat="45.01036" lon="4.38038">
        <ele>1016.8</ele>
      </trkpt>
      <trkpt lat="45.01046" lon="4.38058">
        <ele>1017</ele>
      </trkpt>
      <trkpt lat="45.0105" lon="4.38064">
        <ele>1017.1</ele>
      </trkpt>
      <trkpt lat="45.01057" lon="4.38076">
        <ele>1017.3</ele>
      </trkpt>
      <trkpt lat="45.01102" lon="4.38117">
        <ele>1020.2</ele>
      </trkpt>
      <trkpt lat="45.01117" lon="4.38137">
        <ele>1021</ele>
      </trkpt>
      <trkpt lat="45.01133" lon="4.38165">
        <ele>1021.4</ele>
      </trkpt>
      <trkpt lat="45.0114" lon="4.38183">
        <ele>1025.7</ele>
      </trkpt>
      <trkpt lat="45.01144" lon="4.38204">
        <ele>1026.5</ele>
      </trkpt>
      <trkpt lat="45.01144" lon="4.38222">
        <ele>1027.1</ele>
      </trkpt>
      <trkpt lat="45.01142" lon="4.38252">
        <ele>1030.2</ele>
      </trkpt>
      <trkpt lat="45.0114" lon="4.38264">
        <ele>1030.6</ele>
      </trkpt>
      <trkpt lat="45.01098" lon="4.38404">
        <ele>1035.7</ele>
      </trkpt>
      <trkpt lat="45.01088" lon="4.38467">
        <ele>1036</ele>
      </trkpt>
      <trkpt lat="45.01089" lon="4.38523">
        <ele>1036.4</ele>
      </trkpt>
      <trkpt lat="45.01098" lon="4.38574">
        <ele>1036.3</ele>
      </trkpt>
      <trkpt lat="45.01111" lon="4.38614">
        <ele>1038</ele>
      </trkpt>
      <trkpt lat="45.01123" lon="4.38642">
        <ele>1038.5</ele>
      </trkpt>
      <trkpt lat="45.01131" lon="4.38655">
        <ele>1038.9</ele>
      </trkpt>
      <trkpt lat="45.01137" lon="4.38666">
        <ele>1039.2</ele>
      </trkpt>
      <trkpt lat="45.01131" lon="4.38676">
        <ele>1038.9</ele>
      </trkpt>
      <trkpt lat="45.01113" lon="4.38708">
        <ele>1038.2</ele>
      </trkpt>
      <trkpt lat="45.01105" lon="4.38739">
        <ele>1037.6</ele>
      </trkpt>
      <trkpt lat="45.01102" lon="4.38757">
        <ele>1037.7</ele>
      </trkpt>
      <trkpt lat="45.01101" lon="4.38767">
        <ele>1037.9</ele>
      </trkpt>
      <trkpt lat="45.0109" lon="4.38773">
        <ele>1037.9</ele>
      </trkpt>
      <trkpt lat="45.01089" lon="4.38786">
        <ele>1038.3</ele>
      </trkpt>
      <trkpt lat="45.01087" lon="4.38822">
        <ele>1038.9</ele>
      </trkpt>
      <trkpt lat="45.01086" lon="4.3885">
        <ele>1040.2</ele>
      </trkpt>
      <trkpt lat="45.01077" lon="4.39003">
        <ele>1046.5</ele>
      </trkpt>
      <trkpt lat="45.01075" lon="4.39041">
        <ele>1048.1</ele>
      </trkpt>
      <trkpt lat="45.01064" lon="4.39122">
        <ele>1052.4</ele>
      </trkpt>
      <trkpt lat="45.01049" lon="4.39181">
        <ele>1055</ele>
      </trkpt>
      <trkpt lat="45.01041" lon="4.39208">
        <ele>1055.5</ele>
      </trkpt>
      <trkpt lat="45.01023" lon="4.39245">
        <ele>1056.5</ele>
      </trkpt>
      <trkpt lat="45.01005" lon="4.39303">
        <ele>1058.3</ele>
      </trkpt>
      <trkpt lat="45.00988" lon="4.39355">
        <ele>1060</ele>
      </trkpt>
      <trkpt lat="45.00976" lon="4.39385">
        <ele>1060.8</ele>
      </trkpt>
      <trkpt lat="45.00973" lon="4.39394">
        <ele>1061</ele>
      </trkpt>
      <trkpt lat="45.00961" lon="4.39427">
        <ele>1061.8</ele>
      </trkpt>
      <trkpt lat="45.00959" lon="4.39431">
        <ele>1061.7</ele>
      </trkpt>
      <trkpt lat="45.00982" lon="4.39446">
        <ele>1062.5</ele>
      </trkpt>
      <trkpt lat="45.00999" lon="4.39457">
        <ele>1063</ele>
      </trkpt>
      <trkpt lat="45.00983" lon="4.39516">
        <ele>1064.1</ele>
      </trkpt>
      <trkpt lat="45.00981" lon="4.39528">
        <ele>1063.9</ele>
      </trkpt>
      <trkpt lat="45.00984" lon="4.39534">
        <ele>1063.9</ele>
      </trkpt>
      <trkpt lat="45.01002" lon="4.39544">
        <ele>1069</ele>
      </trkpt>
      <trkpt lat="45.01006" lon="4.39546">
        <ele>1069.1</ele>
      </trkpt>
      <trkpt lat="45.00999" lon="4.39565">
        <ele>1065.1</ele>
      </trkpt>
      <trkpt lat="45.00992" lon="4.3958">
        <ele>1065.8</ele>
      </trkpt>
      <trkpt lat="45.00989" lon="4.39587">
        <ele>1066.7</ele>
      </trkpt>
      <trkpt lat="45.00985" lon="4.39595">
        <ele>1066.5</ele>
      </trkpt>
      <trkpt lat="45.00977" lon="4.39607">
        <ele>1066.4</ele>
      </trkpt>
      <trkpt lat="45.00965" lon="4.39627">
        <ele>1066.5</ele>
      </trkpt>
      <trkpt lat="45.0096" lon="4.39637">
        <ele>1066.6</ele>
      </trkpt>
      <trkpt lat="45.00956" lon="4.39649">
        <ele>1066.8</ele>
      </trkpt>
      <trkpt lat="45.00955" lon="4.39655">
        <ele>1066.8</ele>
      </trkpt>
      <trkpt lat="45.00951" lon="4.39672">
        <ele>1069.3</ele>
      </trkpt>
      <trkpt lat="45.00948" lon="4.39681">
        <ele>1069.2</ele>
      </trkpt>
      <trkpt lat="45.0094" lon="4.39717">
        <ele>1069.7</ele>
      </trkpt>
      <trkpt lat="45.00928" lon="4.39767">
        <ele>1069.9</ele>
      </trkpt>
      <trkpt lat="45.00921" lon="4.39791">
        <ele>1070.1</ele>
      </trkpt>
      <trkpt lat="45.00916" lon="4.3982">
        <ele>1066.5</ele>
      </trkpt>
      <trkpt lat="45.00911" lon="4.39851">
        <ele>1065.5</ele>
      </trkpt>
      <trkpt lat="45.00936" lon="4.39831">
        <ele>1069.5</ele>
      </trkpt>
      <trkpt lat="45.00936" lon="4.39831">
        <ele>1069</ele>
      </trkpt>
      <trkpt lat="45.00927" lon="4.39822">
        <ele>1069.1</ele>
      </trkpt>
      <trkpt lat="45.00921" lon="4.39821">
        <ele>1068.8</ele>
      </trkpt>
      <trkpt lat="45.00916" lon="4.3982">
        <ele>1066.5</ele>
      </trkpt>
      <trkpt lat="45.00921" lon="4.39791">
        <ele>1070.1</ele>
      </trkpt>
      <trkpt lat="45.00928" lon="4.39767">
        <ele>1069.9</ele>
      </trkpt>
      <trkpt lat="45.0094" lon="4.39717">
        <ele>1069.7</ele>
      </trkpt>
      <trkpt lat="45.00948" lon="4.39681">
        <ele>1069.2</ele>
      </trkpt>
      <trkpt lat="45.00951" lon="4.39672">
        <ele>1069.3</ele>
      </trkpt>
      <trkpt lat="45.00955" lon="4.39655">
        <ele>1066.8</ele>
      </trkpt>
      <trkpt lat="45.00956" lon="4.39649">
        <ele>1066.8</ele>
      </trkpt>
      <trkpt lat="45.0096" lon="4.39637">
        <ele>1066.6</ele>
      </trkpt>
      <trkpt lat="45.00965" lon="4.39627">
        <ele>1066.5</ele>
      </trkpt>
      <trkpt lat="45.00977" lon="4.39607">
        <ele>1066.4</ele>
      </trkpt>
      <trkpt lat="45.00985" lon="4.39595">
        <ele>1066.5</ele>
      </trkpt>
      <trkpt lat="45.00989" lon="4.39587">
        <ele>1066.7</ele>
      </trkpt>
      <trkpt lat="45.00992" lon="4.3958">
        <ele>1065.8</ele>
      </trkpt>
      <trkpt lat="45.00999" lon="4.39565">
        <ele>1065.1</ele>
      </trkpt>
      <trkpt lat="45.01006" lon="4.39546">
        <ele>1069.1</ele>
      </trkpt>
      <trkpt lat="45.01014" lon="4.39517">
        <ele>1068.6</ele>
      </trkpt>
      <trkpt lat="45.01018" lon="4.39502">
        <ele>1068.4</ele>
      </trkpt>
      <trkpt lat="45.01023" lon="4.39486">
        <ele>1067.4</ele>
      </trkpt>
      <trkpt lat="45.01026" lon="4.39475">
        <ele>1067.5</ele>
      </trkpt>
      <trkpt lat="45.01029" lon="4.39469">
        <ele>1067.5</ele>
      </trkpt>
      <trkpt lat="45.01067" lon="4.39388">
        <ele>1063.5</ele>
      </trkpt>
      <trkpt lat="45.01076" lon="4.39366">
        <ele>1062.3</ele>
      </trkpt>
      <trkpt lat="45.01089" lon="4.39334">
        <ele>1062.5</ele>
      </trkpt>
      <trkpt lat="45.01097" lon="4.39322">
        <ele>1062.2</ele>
      </trkpt>
      <trkpt lat="45.01149" lon="4.39218">
        <ele>1059</ele>
      </trkpt>
      <trkpt lat="45.01152" lon="4.39211">
        <ele>1058.7</ele>
      </trkpt>
      <trkpt lat="45.01172" lon="4.39184">
        <ele>1060.8</ele>
      </trkpt>
      <trkpt lat="45.01191" lon="4.39165">
        <ele>1057.4</ele>
      </trkpt>
      <trkpt lat="45.01213" lon="4.39146">
        <ele>1057.9</ele>
      </trkpt>
      <trkpt lat="45.01219" lon="4.39142">
        <ele>1058.1</ele>
      </trkpt>
      <trkpt lat="45.01222" lon="4.39139">
        <ele>1058.1</ele>
      </trkpt>
      <trkpt lat="45.01317" lon="4.39054">
        <ele>1055.9</ele>
      </trkpt>
      <trkpt lat="45.01335" lon="4.39032">
        <ele>1056.7</ele>
      </trkpt>
      <trkpt lat="45.01347" lon="4.39013">
        <ele>1056</ele>
      </trkpt>
      <trkpt lat="45.01356" lon="4.38995">
        <ele>1054.6</ele>
      </trkpt>
      <trkpt lat="45.01389" lon="4.3891">
        <ele>1053</ele>
      </trkpt>
      <trkpt lat="45.01406" lon="4.38877">
        <ele>1052.7</ele>
      </trkpt>
      <trkpt lat="45.01416" lon="4.38859">
        <ele>1052.6</ele>
      </trkpt>
      <trkpt lat="45.01427" lon="4.38844">
        <ele>1053</ele>
      </trkpt>
      <trkpt lat="45.01446" lon="4.38819">
        <ele>1051.4</ele>
      </trkpt>
      <trkpt lat="45.01452" lon="4.38811">
        <ele>1051.2</ele>
      </trkpt>
      <trkpt lat="45.01461" lon="4.38796">
        <ele>1051</ele>
      </trkpt>
      <trkpt lat="45.01462" lon="4.38793">
        <ele>1051</ele>
      </trkpt>
      <trkpt lat="45.01465" lon="4.38794">
        <ele>1050.9</ele>
      </trkpt>
      <trkpt lat="45.01468" lon="4.38794">
        <ele>1050.9</ele>
      </trkpt>
      <trkpt lat="45.01472" lon="4.38789">
        <ele>1050.8</ele>
      </trkpt>
      <trkpt lat="45.01473" lon="4.38785">
        <ele>1050.8</ele>
      </trkpt>
      <trkpt lat="45.01473" lon="4.38782">
        <ele>1050.8</ele>
      </trkpt>
      <trkpt lat="45.01491" lon="4.38761">
        <ele>1050.4</ele>
      </trkpt>
      <trkpt lat="45.01507" lon="4.38752">
        <ele>1049.1</ele>
      </trkpt>
      <trkpt lat="45.01512" lon="4.38749">
        <ele>1048.2</ele>
      </trkpt>
      <trkpt lat="45.01518" lon="4.38746">
        <ele>1047.5</ele>
      </trkpt>
      <trkpt lat="45.01555" lon="4.38733">
        <ele>1044.9</ele>
      </trkpt>
      <trkpt lat="45.01571" lon="4.38731">
        <ele>1044.1</ele>
      </trkpt>
      <trkpt lat="45.0157" lon="4.38725">
        <ele>1044.3</ele>
      </trkpt>
      <trkpt lat="45.01569" lon="4.3871">
        <ele>1044.6</ele>
      </trkpt>
      <trkpt lat="45.01565" lon="4.38691">
        <ele>1044.6</ele>
      </trkpt>
      <trkpt lat="45.01627" lon="4.38626">
        <ele>1037.7</ele>
      </trkpt>
      <trkpt lat="45.01664" lon="4.38596">
        <ele>1034.9</ele>
      </trkpt>
      <trkpt lat="45.0168" lon="4.38588">
        <ele>1031.9</ele>
      </trkpt>
      <trkpt lat="45.01698" lon="4.38581">
        <ele>1029.7</ele>
      </trkpt>
      <trkpt lat="45.01734" lon="4.38574">
        <ele>1027.6</ele>
      </trkpt>
      <trkpt lat="45.01748" lon="4.38569">
        <ele>1027.2</ele>
      </trkpt>
      <trkpt lat="45.01758" lon="4.38563">
        <ele>1022.9</ele>
      </trkpt>
      <trkpt lat="45.01766" lon="4.38554">
        <ele>1022</ele>
      </trkpt>
      <trkpt lat="45.01778" lon="4.38533">
        <ele>1021</ele>
      </trkpt>
      <trkpt lat="45.01787" lon="4.38527">
        <ele>1020.3</ele>
      </trkpt>
      <trkpt lat="45.01794" lon="4.38529">
        <ele>1019.6</ele>
      </trkpt>
      <trkpt lat="45.01865" lon="4.38563">
        <ele>1011.3</ele>
      </trkpt>
      <trkpt lat="45.01892" lon="4.38574">
        <ele>1010.1</ele>
      </trkpt>
      <trkpt lat="45.01912" lon="4.38582">
        <ele>1009.2</ele>
      </trkpt>
      <trkpt lat="45.01947" lon="4.38603">
        <ele>1008</ele>
      </trkpt>
      <trkpt lat="45.01958" lon="4.38611">
        <ele>1007.6</ele>
      </trkpt>
      <trkpt lat="45.01963" lon="4.38618">
        <ele>1007.5</ele>
      </trkpt>
      <trkpt lat="45.01977" lon="4.38644">
        <ele>1006.9</ele>
      </trkpt>
      <trkpt lat="45.02" lon="4.38672">
        <ele>1004.3</ele>
      </trkpt>
      <trkpt lat="45.02009" lon="4.38678">
        <ele>1004.8</ele>
      </trkpt>
      <trkpt lat="45.02024" lon="4.3868">
        <ele>1005.2</ele>
      </trkpt>
      <trkpt lat="45.02031" lon="4.38677">
        <ele>1005.4</ele>
      </trkpt>
      <trkpt lat="45.02044" lon="4.38659">
        <ele>1007.1</ele>
      </trkpt>
      <trkpt lat="45.02066" lon="4.38641">
        <ele>1007.9</ele>
      </trkpt>
      <trkpt lat="45.02071" lon="4.38637">
        <ele>1008.1</ele>
      </trkpt>
      <trkpt lat="45.02094" lon="4.38621">
        <ele>1014.1</ele>
      </trkpt>
      <trkpt lat="45.02101" lon="4.38611">
        <ele>1014.7</ele>
      </trkpt>
      <trkpt lat="45.02115" lon="4.38579">
        <ele>1017.4</ele>
      </trkpt>
      <trkpt lat="45.02132" lon="4.38526">
        <ele>1018.3</ele>
      </trkpt>
      <trkpt lat="45.02137" lon="4.3852">
        <ele>1018</ele>
      </trkpt>
      <trkpt lat="45.02141" lon="4.38519">
        <ele>1017.8</ele>
      </trkpt>
      <trkpt lat="45.0214" lon="4.38502">
        <ele>1017.8</ele>
      </trkpt>
      <trkpt lat="45.02149" lon="4.38457">
        <ele>1018.1</ele>
      </trkpt>
      <trkpt lat="45.02153" lon="4.38437">
        <ele>1017.5</ele>
      </trkpt>
      <trkpt lat="45.02166" lon="4.38359">
        <ele>1019.1</ele>
      </trkpt>
      <trkpt lat="45.02177" lon="4.38314">
        <ele>1019.7</ele>
      </trkpt>
      <trkpt lat="45.02186" lon="4.38282">
        <ele>1020.8</ele>
      </trkpt>
      <trkpt lat="45.02229" lon="4.38171">
        <ele>1024.7</ele>
      </trkpt>
      <trkpt lat="45.02255" lon="4.38127">
        <ele>1027.7</ele>
      </trkpt>
      <trkpt lat="45.02271" lon="4.38105">
        <ele>1028.4</ele>
      </trkpt>
      <trkpt lat="45.02274" lon="4.381">
        <ele>1028.5</ele>
      </trkpt>
      <trkpt lat="45.0229" lon="4.38083">
        <ele>1031.2</ele>
      </trkpt>
      <trkpt lat="45.02307" lon="4.38072">
        <ele>1032</ele>
      </trkpt>
      <trkpt lat="45.02339" lon="4.38057">
        <ele>1035.1</ele>
      </trkpt>
      <trkpt lat="45.02462" lon="4.3802">
        <ele>1039.6</ele>
      </trkpt>
      <trkpt lat="45.02519" lon="4.38006">
        <ele>1041.4</ele>
      </trkpt>
      <trkpt lat="45.02677" lon="4.3796">
        <ele>1048.5</ele>
      </trkpt>
      <trkpt lat="45.02703" lon="4.37953">
        <ele>1048.9</ele>
      </trkpt>
      <trkpt lat="45.02722" lon="4.37946">
        <ele>1049.3</ele>
      </trkpt>
      <trkpt lat="45.02751" lon="4.37938">
        <ele>1051.3</ele>
      </trkpt>
      <trkpt lat="45.02802" lon="4.37917">
        <ele>1052.3</ele>
      </trkpt>
      <trkpt lat="45.0285" lon="4.37896">
        <ele>1054</ele>
      </trkpt>
      <trkpt lat="45.02877" lon="4.37881">
        <ele>1054.3</ele>
      </trkpt>
      <trkpt lat="45.02905" lon="4.37863">
        <ele>1055</ele>
      </trkpt>
      <trkpt lat="45.02961" lon="4.37824">
        <ele>1058</ele>
      </trkpt>
      <trkpt lat="45.03014" lon="4.37779">
        <ele>1060</ele>
      </trkpt>
      <trkpt lat="45.03033" lon="4.3776">
        <ele>1060.3</ele>
      </trkpt>
      <trkpt lat="45.0305" lon="4.37741">
        <ele>1060.4</ele>
      </trkpt>
      <trkpt lat="45.03088" lon="4.37698">
        <ele>1062.2</ele>
      </trkpt>
      <trkpt lat="45.03094" lon="4.3769">
        <ele>1062</ele>
      </trkpt>
      <trkpt lat="45.03122" lon="4.37654">
        <ele>1061</ele>
      </trkpt>
      <trkpt lat="45.03168" lon="4.37579">
        <ele>1060.2</ele>
      </trkpt>
      <trkpt lat="45.03215" lon="4.37492">
        <ele>1058.2</ele>
      </trkpt>
      <trkpt lat="45.03248" lon="4.37418">
        <ele>1056.1</ele>
      </trkpt>
      <trkpt lat="45.03282" lon="4.37326">
        <ele>1053.6</ele>
      </trkpt>
      <trkpt lat="45.0334" lon="4.37122">
        <ele>1054.8</ele>
      </trkpt>
      <trkpt lat="45.03429" lon="4.36794">
        <ele>1062.6</ele>
      </trkpt>
      <trkpt lat="45.03453" lon="4.36709">
        <ele>1058.9</ele>
      </trkpt>
      <trkpt lat="45.03485" lon="4.36587">
        <ele>1056.5</ele>
      </trkpt>
      <trkpt lat="45.03503" lon="4.36533">
        <ele>1062.9</ele>
      </trkpt>
      <trkpt lat="45.03519" lon="4.36475">
        <ele>1061.7</ele>
      </trkpt>
      <trkpt lat="45.0354" lon="4.36427">
        <ele>1062.7</ele>
      </trkpt>
      <trkpt lat="45.03565" lon="4.36395">
        <ele>1059.8</ele>
      </trkpt>
      <trkpt lat="45.03614" lon="4.36351">
        <ele>1063.2</ele>
      </trkpt>
      <trkpt lat="45.03652" lon="4.36321">
        <ele>1058.8</ele>
      </trkpt>
      <trkpt lat="45.03693" lon="4.36277">
        <ele>1055.9</ele>
      </trkpt>
      <trkpt lat="45.0373" lon="4.36269">
        <ele>1055.3</ele>
      </trkpt>
      <trkpt lat="45.03811" lon="4.3627">
        <ele>1053.4</ele>
      </trkpt>
      <trkpt lat="45.0386" lon="4.3626">
        <ele>1054.8</ele>
      </trkpt>
      <trkpt lat="45.03889" lon="4.36238">
        <ele>1048.8</ele>
      </trkpt>
      <trkpt lat="45.03936" lon="4.36218">
        <ele>1050.6</ele>
      </trkpt>
      <trkpt lat="45.0398" lon="4.3619">
        <ele>1049.6</ele>
      </trkpt>
      <trkpt lat="45.04" lon="4.36164">
        <ele>1047.7</ele>
      </trkpt>
      <trkpt lat="45.04004" lon="4.36135">
        <ele>1052.7</ele>
      </trkpt>
      <trkpt lat="45.04" lon="4.36102">
        <ele>1048.9</ele>
      </trkpt>
      <trkpt lat="45.03977" lon="4.36031">
        <ele>1044.5</ele>
      </trkpt>
      <trkpt lat="45.03979" lon="4.35989">
        <ele>1042.5</ele>
      </trkpt>
      <trkpt lat="45.0399" lon="4.35957">
        <ele>1041.2</ele>
      </trkpt>
      <trkpt lat="45.04052" lon="4.35894">
        <ele>1041.8</ele>
      </trkpt>
      <trkpt lat="45.04153" lon="4.35803">
        <ele>1038.4</ele>
      </trkpt>
      <trkpt lat="45.04165" lon="4.35792">
        <ele>1037.7</ele>
      </trkpt>
      <trkpt lat="45.04231" lon="4.35725">
        <ele>1030.5</ele>
      </trkpt>
      <trkpt lat="45.04307" lon="4.35652">
        <ele>1026.6</ele>
      </trkpt>
      <trkpt lat="45.04334" lon="4.35628">
        <ele>1029.2</ele>
      </trkpt>
      <trkpt lat="45.04341" lon="4.35621">
        <ele>1029.2</ele>
      </trkpt>
      <trkpt lat="45.04371" lon="4.3559">
        <ele>1030.3</ele>
      </trkpt>
      <trkpt lat="45.04435" lon="4.35531">
        <ele>1033.8</ele>
      </trkpt>
      <trkpt lat="45.04624" lon="4.3534">
        <ele>1021.5</ele>
      </trkpt>
      <trkpt lat="45.04669" lon="4.35296">
        <ele>1019.8</ele>
      </trkpt>
      <trkpt lat="45.04684" lon="4.35282">
        <ele>1019.2</ele>
      </trkpt>
      <trkpt lat="45.04771" lon="4.35194">
        <ele>1015.8</ele>
      </trkpt>
      <trkpt lat="45.04785" lon="4.35178">
        <ele>1016.2</ele>
      </trkpt>
      <trkpt lat="45.04797" lon="4.35161">
        <ele>1011.9</ele>
      </trkpt>
      <trkpt lat="45.04807" lon="4.3514">
        <ele>1012</ele>
      </trkpt>
      <trkpt lat="45.04815" lon="4.35119">
        <ele>1011.4</ele>
      </trkpt>
      <trkpt lat="45.0485" lon="4.34986">
        <ele>1005.4</ele>
      </trkpt>
      <trkpt lat="45.04856" lon="4.34969">
        <ele>1004.9</ele>
      </trkpt>
      <trkpt lat="45.04864" lon="4.34953">
        <ele>1004.2</ele>
      </trkpt>
      <trkpt lat="45.04875" lon="4.3494">
        <ele>1003.9</ele>
      </trkpt>
      <trkpt lat="45.04911" lon="4.34918">
        <ele>1003.5</ele>
      </trkpt>
      <trkpt lat="45.05002" lon="4.34872">
        <ele>999</ele>
      </trkpt>
      <trkpt lat="45.05061" lon="4.3484">
        <ele>996.5</ele>
      </trkpt>
      <trkpt lat="45.05073" lon="4.3483">
        <ele>991.7</ele>
      </trkpt>
      <trkpt lat="45.05085" lon="4.34818">
        <ele>990.4</ele>
      </trkpt>
      <trkpt lat="45.0509" lon="4.34811">
        <ele>989.5</ele>
      </trkpt>
      <trkpt lat="45.05095" lon="4.34799">
        <ele>988.4</ele>
      </trkpt>
      <trkpt lat="45.05102" lon="4.34776">
        <ele>987.1</ele>
      </trkpt>
      <trkpt lat="45.05108" lon="4.34754">
        <ele>986.5</ele>
      </trkpt>
      <trkpt lat="45.05118" lon="4.34718">
        <ele>985.2</ele>
      </trkpt>
      <trkpt lat="45.05143" lon="4.34631">
        <ele>987.3</ele>
      </trkpt>
      <trkpt lat="45.05163" lon="4.34547">
        <ele>991.8</ele>
      </trkpt>
      <trkpt lat="45.05169" lon="4.34522">
        <ele>997.9</ele>
      </trkpt>
      <trkpt lat="45.0518" lon="4.34486">
        <ele>999.9</ele>
      </trkpt>
      <trkpt lat="45.05182" lon="4.34469">
        <ele>1000.8</ele>
      </trkpt>
      <trkpt lat="45.05181" lon="4.34436">
        <ele>1000.8</ele>
      </trkpt>
      <trkpt lat="45.05177" lon="4.34399">
        <ele>1001.8</ele>
      </trkpt>
      <trkpt lat="45.05163" lon="4.34315">
        <ele>997.9</ele>
      </trkpt>
      <trkpt lat="45.05144" lon="4.34228">
        <ele>998.5</ele>
      </trkpt>
      <trkpt lat="45.05123" lon="4.34131">
        <ele>998.1</ele>
      </trkpt>
      <trkpt lat="45.05105" lon="4.3404">
        <ele>999.5</ele>
      </trkpt>
      <trkpt lat="45.05086" lon="4.33948">
        <ele>1004.6</ele>
      </trkpt>
      <trkpt lat="45.05077" lon="4.33902">
        <ele>1004</ele>
      </trkpt>
      <trkpt lat="45.05073" lon="4.339">
        <ele>1003.9</ele>
      </trkpt>
      <trkpt lat="45.05042" lon="4.33878">
        <ele>1002.7</ele>
      </trkpt>
      <trkpt lat="45.04986" lon="4.33818">
        <ele>1000.9</ele>
      </trkpt>
      <trkpt lat="45.04949" lon="4.33765">
        <ele>1000.9</ele>
      </trkpt>
      <trkpt lat="45.04882" lon="4.33687">
        <ele>993.2</ele>
      </trkpt>
      <trkpt lat="45.04872" lon="4.33654">
        <ele>991.8</ele>
      </trkpt>
      <trkpt lat="45.04871" lon="4.33591">
        <ele>991.4</ele>
      </trkpt>
      <trkpt lat="45.0487" lon="4.33543">
        <ele>991.9</ele>
      </trkpt>
      <trkpt lat="45.04869" lon="4.33538">
        <ele>991.9</ele>
      </trkpt>
      <trkpt lat="45.04861" lon="4.33501">
        <ele>991.2</ele>
      </trkpt>
      <trkpt lat="45.0483" lon="4.33412">
        <ele>989.3</ele>
      </trkpt>
      <trkpt lat="45.04803" lon="4.33371">
        <ele>986.9</ele>
      </trkpt>
      <trkpt lat="45.04798" lon="4.3336">
        <ele>986.7</ele>
      </trkpt>
      <trkpt lat="45.04788" lon="4.33289">
        <ele>983.5</ele>
      </trkpt>
      <trkpt lat="45.04804" lon="4.33235">
        <ele>980</ele>
      </trkpt>
      <trkpt lat="45.04809" lon="4.33205">
        <ele>978.9</ele>
      </trkpt>
      <trkpt lat="45.04812" lon="4.33196">
        <ele>978.7</ele>
      </trkpt>
      <trkpt lat="45.04827" lon="4.33173">
        <ele>979.4</ele>
      </trkpt>
      <trkpt lat="45.04831" lon="4.33163">
        <ele>978.5</ele>
      </trkpt>
      <trkpt lat="45.04835" lon="4.33143">
        <ele>982.3</ele>
      </trkpt>
      <trkpt lat="45.04835" lon="4.33134">
        <ele>982.1</ele>
      </trkpt>
      <trkpt lat="45.04833" lon="4.33126">
        <ele>972.8</ele>
      </trkpt>
      <trkpt lat="45.0484" lon="4.33106">
        <ele>979.4</ele>
      </trkpt>
      <trkpt lat="45.04858" lon="4.33022">
        <ele>975</ele>
      </trkpt>
      <trkpt lat="45.04868" lon="4.32992">
        <ele>970.6</ele>
      </trkpt>
      <trkpt lat="45.04876" lon="4.32977">
        <ele>970.8</ele>
      </trkpt>
      <trkpt lat="45.04887" lon="4.32964">
        <ele>970.8</ele>
      </trkpt>
      <trkpt lat="45.04897" lon="4.32957">
        <ele>970.7</ele>
      </trkpt>
      <trkpt lat="45.04921" lon="4.32949">
        <ele>974.3</ele>
      </trkpt>
      <trkpt lat="45.05031" lon="4.32921">
        <ele>975.8</ele>
      </trkpt>
      <trkpt lat="45.05043" lon="4.32921">
        <ele>976.1</ele>
      </trkpt>
      <trkpt lat="45.05056" lon="4.32925">
        <ele>975.8</ele>
      </trkpt>
      <trkpt lat="45.05091" lon="4.32945">
        <ele>978.9</ele>
      </trkpt>
      <trkpt lat="45.05103" lon="4.32949">
        <ele>980.2</ele>
      </trkpt>
      <trkpt lat="45.05115" lon="4.32948">
        <ele>980.7</ele>
      </trkpt>
      <trkpt lat="45.05126" lon="4.32942">
        <ele>980.7</ele>
      </trkpt>
      <trkpt lat="45.05133" lon="4.32934">
        <ele>980.6</ele>
      </trkpt>
      <trkpt lat="45.05138" lon="4.32923">
        <ele>980.3</ele>
      </trkpt>
      <trkpt lat="45.05168" lon="4.32833">
        <ele>973.8</ele>
      </trkpt>
      <trkpt lat="45.0518" lon="4.32793">
        <ele>981.9</ele>
      </trkpt>
      <trkpt lat="45.05186" lon="4.32755">
        <ele>978.5</ele>
      </trkpt>
      <trkpt lat="45.05188" lon="4.32731">
        <ele>980.3</ele>
      </trkpt>
      <trkpt lat="45.05188" lon="4.32707">
        <ele>982</ele>
      </trkpt>
      <trkpt lat="45.05186" lon="4.32684">
        <ele>980.5</ele>
      </trkpt>
      <trkpt lat="45.05182" lon="4.32659">
        <ele>980</ele>
      </trkpt>
      <trkpt lat="45.05161" lon="4.32583">
        <ele>973.3</ele>
      </trkpt>
      <trkpt lat="45.051" lon="4.32383">
        <ele>974.9</ele>
      </trkpt>
      <trkpt lat="45.05086" lon="4.3233">
        <ele>967.2</ele>
      </trkpt>
      <trkpt lat="45.0508" lon="4.32293">
        <ele>959.9</ele>
      </trkpt>
      <trkpt lat="45.05077" lon="4.32257">
        <ele>961.8</ele>
      </trkpt>
      <trkpt lat="45.05075" lon="4.32206">
        <ele>956.6</ele>
      </trkpt>
      <trkpt lat="45.05074" lon="4.32167">
        <ele>958.1</ele>
      </trkpt>
      <trkpt lat="45.05075" lon="4.32146">
        <ele>954.1</ele>
      </trkpt>
      <trkpt lat="45.0508" lon="4.32131">
        <ele>952.7</ele>
      </trkpt>
      <trkpt lat="45.05085" lon="4.32119">
        <ele>958.3</ele>
      </trkpt>
      <trkpt lat="45.05095" lon="4.32108">
        <ele>957.5</ele>
      </trkpt>
      <trkpt lat="45.05105" lon="4.321">
        <ele>957.4</ele>
      </trkpt>
      <trkpt lat="45.05118" lon="4.32092">
        <ele>957.9</ele>
      </trkpt>
      <trkpt lat="45.05129" lon="4.3209">
        <ele>958.4</ele>
      </trkpt>
      <trkpt lat="45.05142" lon="4.32089">
        <ele>958.5</ele>
      </trkpt>
      <trkpt lat="45.05153" lon="4.32092">
        <ele>958.2</ele>
      </trkpt>
      <trkpt lat="45.05189" lon="4.32113">
        <ele>964.6</ele>
      </trkpt>
      <trkpt lat="45.05201" lon="4.32117">
        <ele>965.5</ele>
      </trkpt>
      <trkpt lat="45.05214" lon="4.32115">
        <ele>965.7</ele>
      </trkpt>
      <trkpt lat="45.05225" lon="4.32108">
        <ele>965.4</ele>
      </trkpt>
      <trkpt lat="45.05235" lon="4.32098">
        <ele>965</ele>
      </trkpt>
      <trkpt lat="45.05241" lon="4.32085">
        <ele>964.5</ele>
      </trkpt>
      <trkpt lat="45.05246" lon="4.32069">
        <ele>960.6</ele>
      </trkpt>
      <trkpt lat="45.05257" lon="4.32014">
        <ele>967.2</ele>
      </trkpt>
      <trkpt lat="45.05267" lon="4.31954">
        <ele>968.3</ele>
      </trkpt>
      <trkpt lat="45.0527" lon="4.31912">
        <ele>962.2</ele>
      </trkpt>
      <trkpt lat="45.05273" lon="4.31889">
        <ele>963.8</ele>
      </trkpt>
      <trkpt lat="45.05282" lon="4.31857">
        <ele>964.1</ele>
      </trkpt>
      <trkpt lat="45.05298" lon="4.31825">
        <ele>961.7</ele>
      </trkpt>
      <trkpt lat="45.05314" lon="4.31806">
        <ele>962.8</ele>
      </trkpt>
      <trkpt lat="45.05348" lon="4.31786">
        <ele>970.8</ele>
      </trkpt>
      <trkpt lat="45.05389" lon="4.31768">
        <ele>972.5</ele>
      </trkpt>
      <trkpt lat="45.054" lon="4.3176">
        <ele>972.8</ele>
      </trkpt>
      <trkpt lat="45.05409" lon="4.31749">
        <ele>970.1</ele>
      </trkpt>
      <trkpt lat="45.05416" lon="4.31736">
        <ele>968.5</ele>
      </trkpt>
      <trkpt lat="45.0542" lon="4.3172">
        <ele>972.2</ele>
      </trkpt>
      <trkpt lat="45.05424" lon="4.31672">
        <ele>967.5</ele>
      </trkpt>
      <trkpt lat="45.05426" lon="4.31645">
        <ele>965.7</ele>
      </trkpt>
      <trkpt lat="45.05428" lon="4.31629">
        <ele>965.2</ele>
      </trkpt>
      <trkpt lat="45.05436" lon="4.31598">
        <ele>963.2</ele>
      </trkpt>
      <trkpt lat="45.05446" lon="4.31569">
        <ele>958.8</ele>
      </trkpt>
      <trkpt lat="45.05451" lon="4.31556">
        <ele>958.8</ele>
      </trkpt>
      <trkpt lat="45.05459" lon="4.31538">
        <ele>958.3</ele>
      </trkpt>
      <trkpt lat="45.05465" lon="4.31525">
        <ele>958</ele>
      </trkpt>
      <trkpt lat="45.05481" lon="4.31505">
        <ele>958.4</ele>
      </trkpt>
      <trkpt lat="45.05511" lon="4.31483">
        <ele>957.1</ele>
      </trkpt>
      <trkpt lat="45.0552" lon="4.31477">
        <ele>956.6</ele>
      </trkpt>
      <trkpt lat="45.05535" lon="4.31462">
        <ele>955.8</ele>
      </trkpt>
      <trkpt lat="45.05542" lon="4.31449">
        <ele>955.4</ele>
      </trkpt>
      <trkpt lat="45.05548" lon="4.31431">
        <ele>954.9</ele>
      </trkpt>
      <trkpt lat="45.05554" lon="4.31413">
        <ele>953.3</ele>
      </trkpt>
      <trkpt lat="45.05567" lon="4.31358">
        <ele>954.3</ele>
      </trkpt>
      <trkpt lat="45.05569" lon="4.31349">
        <ele>954.8</ele>
      </trkpt>
      <trkpt lat="45.0557" lon="4.31341">
        <ele>955.2</ele>
      </trkpt>
      <trkpt lat="45.05573" lon="4.31318">
        <ele>954.8</ele>
      </trkpt>
      <trkpt lat="45.05575" lon="4.31279">
        <ele>954.1</ele>
      </trkpt>
      <trkpt lat="45.05581" lon="4.31232">
        <ele>954</ele>
      </trkpt>
      <trkpt lat="45.05594" lon="4.31198">
        <ele>960</ele>
      </trkpt>
      <trkpt lat="45.05642" lon="4.3112">
        <ele>961</ele>
      </trkpt>
      <trkpt lat="45.05656" lon="4.31096">
        <ele>962.1</ele>
      </trkpt>
      <trkpt lat="45.05662" lon="4.31086">
        <ele>963.2</ele>
      </trkpt>
      <trkpt lat="45.05677" lon="4.31061">
        <ele>963.3</ele>
      </trkpt>
      <trkpt lat="45.05694" lon="4.31035">
        <ele>962.6</ele>
      </trkpt>
      <trkpt lat="45.05705" lon="4.3102">
        <ele>962.5</ele>
      </trkpt>
      <trkpt lat="45.05715" lon="4.31009">
        <ele>962.6</ele>
      </trkpt>
      <trkpt lat="45.05725" lon="4.30998">
        <ele>959</ele>
      </trkpt>
      <trkpt lat="45.05743" lon="4.30983">
        <ele>959.7</ele>
      </trkpt>
      <trkpt lat="45.05771" lon="4.30965">
        <ele>962.5</ele>
      </trkpt>
      <trkpt lat="45.05811" lon="4.30944">
        <ele>962.7</ele>
      </trkpt>
      <trkpt lat="45.05839" lon="4.30931">
        <ele>964.2</ele>
      </trkpt>
      <trkpt lat="45.05865" lon="4.30917">
        <ele>965.3</ele>
      </trkpt>
      <trkpt lat="45.05901" lon="4.30894">
        <ele>962.2</ele>
      </trkpt>
      <trkpt lat="45.05929" lon="4.30871">
        <ele>965.7</ele>
      </trkpt>
      <trkpt lat="45.05951" lon="4.30848">
        <ele>965.7</ele>
      </trkpt>
      <trkpt lat="45.05975" lon="4.30823">
        <ele>961.8</ele>
      </trkpt>
      <trkpt lat="45.05995" lon="4.30798">
        <ele>961.1</ele>
      </trkpt>
      <trkpt lat="45.06008" lon="4.30774">
        <ele>968.1</ele>
      </trkpt>
      <trkpt lat="45.06017" lon="4.30753">
        <ele>966.8</ele>
      </trkpt>
      <trkpt lat="45.06025" lon="4.30722">
        <ele>966.7</ele>
      </trkpt>
      <trkpt lat="45.06031" lon="4.30679">
        <ele>966.1</ele>
      </trkpt>
      <trkpt lat="45.06038" lon="4.30622">
        <ele>964.3</ele>
      </trkpt>
      <trkpt lat="45.06045" lon="4.30583">
        <ele>961.4</ele>
      </trkpt>
      <trkpt lat="45.06051" lon="4.30556">
        <ele>961.3</ele>
      </trkpt>
      <trkpt lat="45.0606" lon="4.3052">
        <ele>961.6</ele>
      </trkpt>
      <trkpt lat="45.06055" lon="4.30515">
        <ele>960.9</ele>
      </trkpt>
      <trkpt lat="45.06054" lon="4.30503">
        <ele>960.7</ele>
      </trkpt>
      <trkpt lat="45.06063" lon="4.30439">
        <ele>955.3</ele>
      </trkpt>
      <trkpt lat="45.06058" lon="4.30414">
        <ele>954.3</ele>
      </trkpt>
      <trkpt lat="45.0605" lon="4.30392">
        <ele>952.7</ele>
      </trkpt>
      <trkpt lat="45.06035" lon="4.30368">
        <ele>951.5</ele>
      </trkpt>
      <trkpt lat="45.06016" lon="4.30354">
        <ele>950.2</ele>
      </trkpt>
      <trkpt lat="45.05994" lon="4.30329">
        <ele>948.1</ele>
      </trkpt>
      <trkpt lat="45.05986" lon="4.30318">
        <ele>948.2</ele>
      </trkpt>
      <trkpt lat="45.05985" lon="4.30314">
        <ele>948.3</ele>
      </trkpt>
      <trkpt lat="45.05977" lon="4.30292">
        <ele>949.1</ele>
      </trkpt>
      <trkpt lat="45.0598" lon="4.30275">
        <ele>950.5</ele>
      </trkpt>
      <trkpt lat="45.05975" lon="4.30274">
        <ele>950.2</ele>
      </trkpt>
      <trkpt lat="45.05975" lon="4.30261">
        <ele>951.1</ele>
      </trkpt>
      <trkpt lat="45.05978" lon="4.30245">
        <ele>954</ele>
      </trkpt>
      <trkpt lat="45.05988" lon="4.30217">
        <ele>953.9</ele>
      </trkpt>
      <trkpt lat="45.05991" lon="4.30214">
        <ele>954</ele>
      </trkpt>
      <trkpt lat="45.05989" lon="4.30209">
        <ele>953.9</ele>
      </trkpt>
      <trkpt lat="45.05983" lon="4.30192">
        <ele>954</ele>
      </trkpt>
      <trkpt lat="45.05978" lon="4.30183">
        <ele>954</ele>
      </trkpt>
      <trkpt lat="45.05942" lon="4.30128">
        <ele>951.4</ele>
      </trkpt>
      <trkpt lat="45.05934" lon="4.3012">
        <ele>950.8</ele>
      </trkpt>
      <trkpt lat="45.05924" lon="4.30117">
        <ele>950.3</ele>
      </trkpt>
      <trkpt lat="45.05907" lon="4.30116">
        <ele>943.5</ele>
      </trkpt>
      <trkpt lat="45.05902" lon="4.30117">
        <ele>943.3</ele>
      </trkpt>
      <trkpt lat="45.05892" lon="4.30121">
        <ele>942.8</ele>
      </trkpt>
      <trkpt lat="45.05889" lon="4.30122">
        <ele>942.7</ele>
      </trkpt>
      <trkpt lat="45.05875" lon="4.30129">
        <ele>942</ele>
      </trkpt>
      <trkpt lat="45.05864" lon="4.30133">
        <ele>941.5</ele>
      </trkpt>
      <trkpt lat="45.05854" lon="4.30134">
        <ele>941.1</ele>
      </trkpt>
      <trkpt lat="45.05844" lon="4.30131">
        <ele>940.7</ele>
      </trkpt>
      <trkpt lat="45.0583" lon="4.30124">
        <ele>937.3</ele>
      </trkpt>
      <trkpt lat="45.05822" lon="4.30119">
        <ele>937.2</ele>
      </trkpt>
      <trkpt lat="45.05808" lon="4.30113">
        <ele>937.2</ele>
      </trkpt>
      <trkpt lat="45.05801" lon="4.30109">
        <ele>937.3</ele>
      </trkpt>
      <trkpt lat="45.0575" lon="4.30074">
        <ele>944.9</ele>
      </trkpt>
      <trkpt lat="45.05738" lon="4.30062">
        <ele>949.9</ele>
      </trkpt>
      <trkpt lat="45.05732" lon="4.30036">
        <ele>953</ele>
      </trkpt>
      <trkpt lat="45.05733" lon="4.30018">
        <ele>952.4</ele>
      </trkpt>
      <trkpt lat="45.05759" lon="4.29905">
        <ele>945.3</ele>
      </trkpt>
      <trkpt lat="45.05764" lon="4.29877">
        <ele>943.9</ele>
      </trkpt>
      <trkpt lat="45.05764" lon="4.29854">
        <ele>944.9</ele>
      </trkpt>
      <trkpt lat="45.0576" lon="4.29834">
        <ele>947.3</ele>
      </trkpt>
      <trkpt lat="45.05738" lon="4.29783">
        <ele>956.1</ele>
      </trkpt>
      <trkpt lat="45.05734" lon="4.29758">
        <ele>955</ele>
      </trkpt>
      <trkpt lat="45.05734" lon="4.29739">
        <ele>955</ele>
      </trkpt>
      <trkpt lat="45.05736" lon="4.29728">
        <ele>955.5</ele>
      </trkpt>
      <trkpt lat="45.05743" lon="4.29694">
        <ele>955.4</ele>
      </trkpt>
      <trkpt lat="45.05749" lon="4.29658">
        <ele>953.4</ele>
      </trkpt>
      <trkpt lat="45.05751" lon="4.29631">
        <ele>950.2</ele>
      </trkpt>
      <trkpt lat="45.05749" lon="4.29606">
        <ele>957.2</ele>
      </trkpt>
      <trkpt lat="45.05743" lon="4.29583">
        <ele>956.8</ele>
      </trkpt>
      <trkpt lat="45.05723" lon="4.29529">
        <ele>958.4</ele>
      </trkpt>
      <trkpt lat="45.05687" lon="4.29429">
        <ele>957.1</ele>
      </trkpt>
      <trkpt lat="45.0568" lon="4.29412">
        <ele>956.9</ele>
      </trkpt>
      <trkpt lat="45.05646" lon="4.29327">
        <ele>959.6</ele>
      </trkpt>
      <trkpt lat="45.05638" lon="4.29303">
        <ele>960.2</ele>
      </trkpt>
      <trkpt lat="45.05632" lon="4.29284">
        <ele>960.3</ele>
      </trkpt>
      <trkpt lat="45.05627" lon="4.29268">
        <ele>960.3</ele>
      </trkpt>
      <trkpt lat="45.05621" lon="4.29259">
        <ele>960.4</ele>
      </trkpt>
      <trkpt lat="45.05613" lon="4.29252">
        <ele>960.5</ele>
      </trkpt>
      <trkpt lat="45.05601" lon="4.29244">
        <ele>959.8</ele>
      </trkpt>
      <trkpt lat="45.05559" lon="4.29228">
        <ele>962.8</ele>
      </trkpt>
      <trkpt lat="45.05546" lon="4.29221">
        <ele>963.3</ele>
      </trkpt>
      <trkpt lat="45.05532" lon="4.29207">
        <ele>963.9</ele>
      </trkpt>
      <trkpt lat="45.05525" lon="4.29199">
        <ele>964.2</ele>
      </trkpt>
      <trkpt lat="45.05517" lon="4.29182">
        <ele>965.2</ele>
      </trkpt>
      <trkpt lat="45.05511" lon="4.29164">
        <ele>967.3</ele>
      </trkpt>
      <trkpt lat="45.0551" lon="4.29143">
        <ele>967.3</ele>
      </trkpt>
      <trkpt lat="45.05514" lon="4.29122">
        <ele>967.8</ele>
      </trkpt>
      <trkpt lat="45.05524" lon="4.29096">
        <ele>968.7</ele>
      </trkpt>
      <trkpt lat="45.05546" lon="4.29045">
        <ele>971.3</ele>
      </trkpt>
      <trkpt lat="45.05551" lon="4.29035">
        <ele>971.4</ele>
      </trkpt>
      <trkpt lat="45.05557" lon="4.29022">
        <ele>971.5</ele>
      </trkpt>
      <trkpt lat="45.05573" lon="4.28984">
        <ele>974.6</ele>
      </trkpt>
      <trkpt lat="45.05579" lon="4.28964">
        <ele>976.4</ele>
      </trkpt>
      <trkpt lat="45.05582" lon="4.28946">
        <ele>977.4</ele>
      </trkpt>
      <trkpt lat="45.05582" lon="4.28921">
        <ele>977.3</ele>
      </trkpt>
      <trkpt lat="45.0558" lon="4.28905">
        <ele>979.7</ele>
      </trkpt>
      <trkpt lat="45.05576" lon="4.28884">
        <ele>981.9</ele>
      </trkpt>
      <trkpt lat="45.05577" lon="4.28863">
        <ele>982.2</ele>
      </trkpt>
      <trkpt lat="45.05587" lon="4.28818">
        <ele>978.7</ele>
      </trkpt>
      <trkpt lat="45.0559" lon="4.28784">
        <ele>980.2</ele>
      </trkpt>
      <trkpt lat="45.05588" lon="4.28755">
        <ele>984.7</ele>
      </trkpt>
      <trkpt lat="45.05584" lon="4.28724">
        <ele>984.6</ele>
      </trkpt>
      <trkpt lat="45.05579" lon="4.28706">
        <ele>991.9</ele>
      </trkpt>
      <trkpt lat="45.0557" lon="4.28688">
        <ele>991.9</ele>
      </trkpt>
      <trkpt lat="45.05562" lon="4.28677">
        <ele>992.1</ele>
      </trkpt>
      <trkpt lat="45.0555" lon="4.28669">
        <ele>993.1</ele>
      </trkpt>
      <trkpt lat="45.05531" lon="4.2866">
        <ele>992.4</ele>
      </trkpt>
      <trkpt lat="45.05468" lon="4.28648">
        <ele>999.9</ele>
      </trkpt>
      <trkpt lat="45.05444" lon="4.28642">
        <ele>1002</ele>
      </trkpt>
      <trkpt lat="45.05425" lon="4.28632">
        <ele>1002.3</ele>
      </trkpt>
      <trkpt lat="45.05409" lon="4.28619">
        <ele>1008</ele>
      </trkpt>
      <trkpt lat="45.05393" lon="4.28594">
        <ele>1006</ele>
      </trkpt>
      <trkpt lat="45.05377" lon="4.2858">
        <ele>1000</ele>
      </trkpt>
      <trkpt lat="45.05362" lon="4.2857">
        <ele>1001.2</ele>
      </trkpt>
      <trkpt lat="45.05343" lon="4.28562">
        <ele>1002.5</ele>
      </trkpt>
      <trkpt lat="45.05288" lon="4.28547">
        <ele>1010.1</ele>
      </trkpt>
      <trkpt lat="45.05268" lon="4.28532">
        <ele>1010.4</ele>
      </trkpt>
      <trkpt lat="45.05254" lon="4.28518">
        <ele>1010.1</ele>
      </trkpt>
      <trkpt lat="45.05232" lon="4.28487">
        <ele>1010.6</ele>
      </trkpt>
      <trkpt lat="45.05212" lon="4.28466">
        <ele>1011</ele>
      </trkpt>
      <trkpt lat="45.05202" lon="4.28457">
        <ele>1011.2</ele>
      </trkpt>
      <trkpt lat="45.0519" lon="4.28442">
        <ele>1011.3</ele>
      </trkpt>
      <trkpt lat="45.0517" lon="4.28412">
        <ele>1011.4</ele>
      </trkpt>
      <trkpt lat="45.05144" lon="4.28371">
        <ele>1015.6</ele>
      </trkpt>
      <trkpt lat="45.05121" lon="4.2834">
        <ele>1016.3</ele>
      </trkpt>
      <trkpt lat="45.05102" lon="4.28323">
        <ele>1014.1</ele>
      </trkpt>
      <trkpt lat="45.05071" lon="4.28299">
        <ele>1016.1</ele>
      </trkpt>
      <trkpt lat="45.05057" lon="4.28282">
        <ele>1015.2</ele>
      </trkpt>
      <trkpt lat="45.05046" lon="4.28264">
        <ele>1014.6</ele>
      </trkpt>
      <trkpt lat="45.05038" lon="4.28244">
        <ele>1011.4</ele>
      </trkpt>
      <trkpt lat="45.05033" lon="4.28221">
        <ele>1011.4</ele>
      </trkpt>
      <trkpt lat="45.05031" lon="4.282">
        <ele>1011.4</ele>
      </trkpt>
      <trkpt lat="45.05031" lon="4.28174">
        <ele>1011.4</ele>
      </trkpt>
      <trkpt lat="45.05032" lon="4.28163">
        <ele>1013.5</ele>
      </trkpt>
      <trkpt lat="45.05055" lon="4.28078">
        <ele>1018.9</ele>
      </trkpt>
      <trkpt lat="45.05088" lon="4.27955">
        <ele>1016.4</ele>
      </trkpt>
      <trkpt lat="45.05109" lon="4.27879">
        <ele>1017.4</ele>
      </trkpt>
      <trkpt lat="45.05115" lon="4.27854">
        <ele>1017.7</ele>
      </trkpt>
      <trkpt lat="45.05119" lon="4.27837">
        <ele>1017.9</ele>
      </trkpt>
      <trkpt lat="45.05121" lon="4.27821">
        <ele>1019.1</ele>
      </trkpt>
      <trkpt lat="45.0512" lon="4.27802">
        <ele>1019.3</ele>
      </trkpt>
      <trkpt lat="45.05117" lon="4.27782">
        <ele>1019.6</ele>
      </trkpt>
      <trkpt lat="45.05095" lon="4.27684">
        <ele>1023.4</ele>
      </trkpt>
      <trkpt lat="45.05063" lon="4.27547">
        <ele>1032.4</ele>
      </trkpt>
      <trkpt lat="45.05035" lon="4.27469">
        <ele>1034.2</ele>
      </trkpt>
      <trkpt lat="45.05013" lon="4.27416">
        <ele>1036.4</ele>
      </trkpt>
      <trkpt lat="45.04937" lon="4.27215">
        <ele>1038.9</ele>
      </trkpt>
      <trkpt lat="45.04926" lon="4.27182">
        <ele>1038.4</ele>
      </trkpt>
      <trkpt lat="45.04896" lon="4.27047">
        <ele>1038.3</ele>
      </trkpt>
      <trkpt lat="45.04868" lon="4.26908">
        <ele>1043.3</ele>
      </trkpt>
      <trkpt lat="45.04862" lon="4.26882">
        <ele>1043.5</ele>
      </trkpt>
      <trkpt lat="45.04856" lon="4.26868">
        <ele>1043.7</ele>
      </trkpt>
      <trkpt lat="45.04853" lon="4.26864">
        <ele>1043.8</ele>
      </trkpt>
      <trkpt lat="45.0486" lon="4.26824">
        <ele>1045</ele>
      </trkpt>
      <trkpt lat="45.04911" lon="4.26713">
        <ele>1048.1</ele>
      </trkpt>
      <trkpt lat="45.04965" lon="4.26579">
        <ele>1047.2</ele>
      </trkpt>
      <trkpt lat="45.0505" lon="4.2643">
        <ele>1040.9</ele>
      </trkpt>
      <trkpt lat="45.05065" lon="4.262">
        <ele>1043.7</ele>
      </trkpt>
      <trkpt lat="45.05126" lon="4.26015">
        <ele>1045.3</ele>
      </trkpt>
      <trkpt lat="45.05164" lon="4.25926">
        <ele>1046.4</ele>
      </trkpt>
      <trkpt lat="45.05182" lon="4.25879">
        <ele>1046.3</ele>
      </trkpt>
      <trkpt lat="45.05184" lon="4.25845">
        <ele>1047.6</ele>
      </trkpt>
      <trkpt lat="45.05175" lon="4.25792">
        <ele>1048.7</ele>
      </trkpt>
      <trkpt lat="45.05135" lon="4.2566">
        <ele>1049.6</ele>
      </trkpt>
      <trkpt lat="45.05117" lon="4.25615">
        <ele>1050</ele>
      </trkpt>
      <trkpt lat="45.05095" lon="4.25533">
        <ele>1046.3</ele>
      </trkpt>
      <trkpt lat="45.0509" lon="4.25392">
        <ele>1043.4</ele>
      </trkpt>
      <trkpt lat="45.05101" lon="4.25356">
        <ele>1043.3</ele>
      </trkpt>
      <trkpt lat="45.05146" lon="4.2529">
        <ele>1040.2</ele>
      </trkpt>
      <trkpt lat="45.05146" lon="4.25242">
        <ele>1038.6</ele>
      </trkpt>
      <trkpt lat="45.0512" lon="4.25137">
        <ele>1036.5</ele>
      </trkpt>
      <trkpt lat="45.05035" lon="4.2502">
        <ele>1031.9</ele>
      </trkpt>
      <trkpt lat="45.04996" lon="4.24998">
        <ele>1030.2</ele>
      </trkpt>
      <trkpt lat="45.04982" lon="4.24986">
        <ele>1030.9</ele>
      </trkpt>
      <trkpt lat="45.0497" lon="4.24969">
        <ele>1031.1</ele>
      </trkpt>
      <trkpt lat="45.04935" lon="4.24873">
        <ele>1026.1</ele>
      </trkpt>
      <trkpt lat="45.04922" lon="4.24846">
        <ele>1025.8</ele>
      </trkpt>
      <trkpt lat="45.04895" lon="4.24818">
        <ele>1025.5</ele>
      </trkpt>
      <trkpt lat="45.04849" lon="4.24791">
        <ele>1025.5</ele>
      </trkpt>
      <trkpt lat="45.0481" lon="4.24762">
        <ele>1027</ele>
      </trkpt>
      <trkpt lat="45.048" lon="4.24754">
        <ele>1027.2</ele>
      </trkpt>
      <trkpt lat="45.04777" lon="4.24728">
        <ele>1022.9</ele>
      </trkpt>
      <trkpt lat="45.04746" lon="4.24681">
        <ele>1023</ele>
      </trkpt>
      <trkpt lat="45.04734" lon="4.24664">
        <ele>1021.7</ele>
      </trkpt>
      <trkpt lat="45.04717" lon="4.24651">
        <ele>1022.8</ele>
      </trkpt>
      <trkpt lat="45.04699" lon="4.24633">
        <ele>1023.4</ele>
      </trkpt>
      <trkpt lat="45.04695" lon="4.24628">
        <ele>1023.5</ele>
      </trkpt>
      <trkpt lat="45.04693" lon="4.24608">
        <ele>1023.4</ele>
      </trkpt>
      <trkpt lat="45.04699" lon="4.2456">
        <ele>1024.4</ele>
      </trkpt>
      <trkpt lat="45.04702" lon="4.24537">
        <ele>1024.8</ele>
      </trkpt>
      <trkpt lat="45.04705" lon="4.24513">
        <ele>1025.1</ele>
      </trkpt>
      <trkpt lat="45.04705" lon="4.24511">
        <ele>1025.1</ele>
      </trkpt>
      <trkpt lat="45.04709" lon="4.2449">
        <ele>1027.2</ele>
      </trkpt>
      <trkpt lat="45.04693" lon="4.24487">
        <ele>1026.9</ele>
      </trkpt>
      <trkpt lat="45.0469" lon="4.24487">
        <ele>1026.8</ele>
      </trkpt>
      <trkpt lat="45.04693" lon="4.24487">
        <ele>1026.9</ele>
      </trkpt>
      <trkpt lat="45.04709" lon="4.2449">
        <ele>1027.2</ele>
      </trkpt>
      <trkpt lat="45.04716" lon="4.24473">
        <ele>1027.6</ele>
      </trkpt>
      <trkpt lat="45.04712" lon="4.24455">
        <ele>1027.9</ele>
      </trkpt>
      <trkpt lat="45.04701" lon="4.24429">
        <ele>1028.1</ele>
      </trkpt>
      <trkpt lat="45.04682" lon="4.24385">
        <ele>1032.1</ele>
      </trkpt>
      <trkpt lat="45.04655" lon="4.24321">
        <ele>1034.3</ele>
      </trkpt>
      <trkpt lat="45.0465" lon="4.24303">
        <ele>1034.6</ele>
      </trkpt>
      <trkpt lat="45.04654" lon="4.2428">
        <ele>1035.1</ele>
      </trkpt>
      <trkpt lat="45.04663" lon="4.24261">
        <ele>1036</ele>
      </trkpt>
      <trkpt lat="45.04717" lon="4.24192">
        <ele>1043.5</ele>
      </trkpt>
      <trkpt lat="45.04723" lon="4.24172">
        <ele>1044.4</ele>
      </trkpt>
      <trkpt lat="45.04728" lon="4.24136">
        <ele>1048.1</ele>
      </trkpt>
      <trkpt lat="45.04726" lon="4.24113">
        <ele>1048.9</ele>
      </trkpt>
      <trkpt lat="45.04719" lon="4.24097">
        <ele>1049.3</ele>
      </trkpt>
      <trkpt lat="45.04708" lon="4.24088">
        <ele>1049.3</ele>
      </trkpt>
      <trkpt lat="45.04669" lon="4.2408">
        <ele>1051.5</ele>
      </trkpt>
      <trkpt lat="45.04657" lon="4.24072">
        <ele>1050.2</ele>
      </trkpt>
      <trkpt lat="45.04648" lon="4.24059">
        <ele>1049.8</ele>
      </trkpt>
      <trkpt lat="45.04642" lon="4.24037">
        <ele>1050</ele>
      </trkpt>
      <trkpt lat="45.04643" lon="4.24016">
        <ele>1051</ele>
      </trkpt>
      <trkpt lat="45.04651" lon="4.23991">
        <ele>1052.6</ele>
      </trkpt>
      <trkpt lat="45.04669" lon="4.23947">
        <ele>1055.9</ele>
      </trkpt>
      <trkpt lat="45.04681" lon="4.23936">
        <ele>1055.8</ele>
      </trkpt>
      <trkpt lat="45.04708" lon="4.2392">
        <ele>1056.8</ele>
      </trkpt>
      <trkpt lat="45.04732" lon="4.23905">
        <ele>1058.6</ele>
      </trkpt>
      <trkpt lat="45.04738" lon="4.23899">
        <ele>1058.7</ele>
      </trkpt>
      <trkpt lat="45.04744" lon="4.23889">
        <ele>1058.8</ele>
      </trkpt>
      <trkpt lat="45.04752" lon="4.23832">
        <ele>1063.5</ele>
      </trkpt>
      <trkpt lat="45.04772" lon="4.23757">
        <ele>1068.1</ele>
      </trkpt>
      <trkpt lat="45.04776" lon="4.23723">
        <ele>1068.4</ele>
      </trkpt>
      <trkpt lat="45.04775" lon="4.23699">
        <ele>1068.1</ele>
      </trkpt>
      <trkpt lat="45.04744" lon="4.23538">
        <ele>1064.1</ele>
      </trkpt>
      <trkpt lat="45.04741" lon="4.23514">
        <ele>1064.8</ele>
      </trkpt>
      <trkpt lat="45.04743" lon="4.23437">
        <ele>1065.3</ele>
      </trkpt>
      <trkpt lat="45.04741" lon="4.23388">
        <ele>1065.1</ele>
      </trkpt>
      <trkpt lat="45.04738" lon="4.23373">
        <ele>1065</ele>
      </trkpt>
      <trkpt lat="45.04732" lon="4.23359">
        <ele>1064.9</ele>
      </trkpt>
      <trkpt lat="45.04726" lon="4.23349">
        <ele>1064.8</ele>
      </trkpt>
      <trkpt lat="45.04707" lon="4.23336">
        <ele>1064.6</ele>
      </trkpt>
      <trkpt lat="45.0466" lon="4.23314">
        <ele>1065.9</ele>
      </trkpt>
      <trkpt lat="45.04642" lon="4.23301">
        <ele>1066.9</ele>
      </trkpt>
      <trkpt lat="45.04633" lon="4.23294">
        <ele>1067.4</ele>
      </trkpt>
      <trkpt lat="45.04627" lon="4.23285">
        <ele>1067.7</ele>
      </trkpt>
      <trkpt lat="45.04621" lon="4.23276">
        <ele>1068.1</ele>
      </trkpt>
      <trkpt lat="45.04611" lon="4.23256">
        <ele>1069.2</ele>
      </trkpt>
      <trkpt lat="45.04591" lon="4.23177">
        <ele>1068.7</ele>
      </trkpt>
      <trkpt lat="45.04568" lon="4.23082">
        <ele>1070.8</ele>
      </trkpt>
      <trkpt lat="45.04561" lon="4.23056">
        <ele>1071.8</ele>
      </trkpt>
      <trkpt lat="45.04553" lon="4.23034">
        <ele>1072.2</ele>
      </trkpt>
      <trkpt lat="45.0449" lon="4.22887">
        <ele>1075.2</ele>
      </trkpt>
      <trkpt lat="45.0448" lon="4.2287">
        <ele>1074.9</ele>
      </trkpt>
      <trkpt lat="45.0447" lon="4.22858">
        <ele>1074.9</ele>
      </trkpt>
      <trkpt lat="45.04458" lon="4.2285">
        <ele>1075.1</ele>
      </trkpt>
      <trkpt lat="45.04441" lon="4.22842">
        <ele>1075.6</ele>
      </trkpt>
      <trkpt lat="45.04364" lon="4.22829">
        <ele>1076.3</ele>
      </trkpt>
      <trkpt lat="45.04347" lon="4.22821">
        <ele>1077.2</ele>
      </trkpt>
      <trkpt lat="45.04339" lon="4.22812">
        <ele>1076.8</ele>
      </trkpt>
      <trkpt lat="45.04334" lon="4.228">
        <ele>1076</ele>
      </trkpt>
      <trkpt lat="45.0433" lon="4.22788">
        <ele>1080.3</ele>
      </trkpt>
      <trkpt lat="45.04315" lon="4.22598">
        <ele>1076.7</ele>
      </trkpt>
      <trkpt lat="45.04311" lon="4.2257">
        <ele>1076.3</ele>
      </trkpt>
      <trkpt lat="45.04306" lon="4.2256">
        <ele>1076.7</ele>
      </trkpt>
      <trkpt lat="45.04301" lon="4.22551">
        <ele>1076.9</ele>
      </trkpt>
      <trkpt lat="45.0428" lon="4.22529">
        <ele>1077.7</ele>
      </trkpt>
      <trkpt lat="45.04275" lon="4.22521">
        <ele>1077.9</ele>
      </trkpt>
      <trkpt lat="45.04194" lon="4.22346">
        <ele>1080.8</ele>
      </trkpt>
      <trkpt lat="45.04185" lon="4.22315">
        <ele>1079.6</ele>
      </trkpt>
      <trkpt lat="45.04162" lon="4.22192">
        <ele>1082.3</ele>
      </trkpt>
      <trkpt lat="45.04151" lon="4.22164">
        <ele>1079.4</ele>
      </trkpt>
      <trkpt lat="45.04089" lon="4.22021">
        <ele>1074.9</ele>
      </trkpt>
      <trkpt lat="45.04075" lon="4.22001">
        <ele>1076.7</ele>
      </trkpt>
      <trkpt lat="45.04063" lon="4.21989">
        <ele>1075.1</ele>
      </trkpt>
      <trkpt lat="45.04053" lon="4.21983">
        <ele>1075.3</ele>
      </trkpt>
      <trkpt lat="45.04039" lon="4.21978">
        <ele>1075.7</ele>
      </trkpt>
      <trkpt lat="45.04013" lon="4.21976">
        <ele>1076.7</ele>
      </trkpt>
      <trkpt lat="45.04004" lon="4.21974">
        <ele>1076.8</ele>
      </trkpt>
      <trkpt lat="45.03987" lon="4.21962">
        <ele>1079.6</ele>
      </trkpt>
      <trkpt lat="45.03981" lon="4.21955">
        <ele>1079.4</ele>
      </trkpt>
      <trkpt lat="45.03968" lon="4.21932">
        <ele>1079</ele>
      </trkpt>
      <trkpt lat="45.03962" lon="4.21916">
        <ele>1076.9</ele>
      </trkpt>
      <trkpt lat="45.03954" lon="4.21884">
        <ele>1077</ele>
      </trkpt>
      <trkpt lat="45.03951" lon="4.21846">
        <ele>1076.9</ele>
      </trkpt>
      <trkpt lat="45.03954" lon="4.21737">
        <ele>1078.1</ele>
      </trkpt>
      <trkpt lat="45.03952" lon="4.21699">
        <ele>1078.3</ele>
      </trkpt>
      <trkpt lat="45.03925" lon="4.21433">
        <ele>1079.9</ele>
      </trkpt>
      <trkpt lat="45.03922" lon="4.21415">
        <ele>1081.2</ele>
      </trkpt>
      <trkpt lat="45.03914" lon="4.21392">
        <ele>1086.2</ele>
      </trkpt>
      <trkpt lat="45.03879" lon="4.21303">
        <ele>1086.5</ele>
      </trkpt>
      <trkpt lat="45.03875" lon="4.2128">
        <ele>1086.6</ele>
      </trkpt>
      <trkpt lat="45.03877" lon="4.21272">
        <ele>1086.3</ele>
      </trkpt>
      <trkpt lat="45.0388" lon="4.21265">
        <ele>1085.8</ele>
      </trkpt>
      <trkpt lat="45.03888" lon="4.21252">
        <ele>1084.6</ele>
      </trkpt>
      <trkpt lat="45.03894" lon="4.21248">
        <ele>1083.8</ele>
      </trkpt>
      <trkpt lat="45.0393" lon="4.21226">
        <ele>1081.7</ele>
      </trkpt>
      <trkpt lat="45.03939" lon="4.2122">
        <ele>1082.2</ele>
      </trkpt>
      <trkpt lat="45.03945" lon="4.21212">
        <ele>1082.6</ele>
      </trkpt>
      <trkpt lat="45.03952" lon="4.21204">
        <ele>1083</ele>
      </trkpt>
      <trkpt lat="45.03957" lon="4.21192">
        <ele>1083.5</ele>
      </trkpt>
      <trkpt lat="45.03982" lon="4.21101">
        <ele>1092</ele>
      </trkpt>
      <trkpt lat="45.03989" lon="4.21083">
        <ele>1095.4</ele>
      </trkpt>
      <trkpt lat="45.04001" lon="4.21061">
        <ele>1095.9</ele>
      </trkpt>
      <trkpt lat="45.04015" lon="4.21043">
        <ele>1096.9</ele>
      </trkpt>
      <trkpt lat="45.04035" lon="4.21034">
        <ele>1097.2</ele>
      </trkpt>
      <trkpt lat="45.04047" lon="4.21032">
        <ele>1097.3</ele>
      </trkpt>
      <trkpt lat="45.0406" lon="4.21036">
        <ele>1097.2</ele>
      </trkpt>
      <trkpt lat="45.04124" lon="4.21079">
        <ele>1098.6</ele>
      </trkpt>
      <trkpt lat="45.04139" lon="4.21082">
        <ele>1099</ele>
      </trkpt>
      <trkpt lat="45.04157" lon="4.21078">
        <ele>1099.2</ele>
      </trkpt>
      <trkpt lat="45.04168" lon="4.21071">
        <ele>1100.7</ele>
      </trkpt>
      <trkpt lat="45.04246" lon="4.21006">
        <ele>1106.1</ele>
      </trkpt>
      <trkpt lat="45.0426" lon="4.20984">
        <ele>1108.3</ele>
      </trkpt>
      <trkpt lat="45.04268" lon="4.20959">
        <ele>1109.1</ele>
      </trkpt>
      <trkpt lat="45.0427" lon="4.20949">
        <ele>1109.3</ele>
      </trkpt>
      <trkpt lat="45.04271" lon="4.20935">
        <ele>1109.4</ele>
      </trkpt>
      <trkpt lat="45.04269" lon="4.20881">
        <ele>1109.6</ele>
      </trkpt>
      <trkpt lat="45.04255" lon="4.20792">
        <ele>1109.7</ele>
      </trkpt>
      <trkpt lat="45.04251" lon="4.2076">
        <ele>1111</ele>
      </trkpt>
      <trkpt lat="45.04247" lon="4.20702">
        <ele>1115.1</ele>
      </trkpt>
      <trkpt lat="45.04243" lon="4.20653">
        <ele>1116.6</ele>
      </trkpt>
      <trkpt lat="45.04241" lon="4.20616">
        <ele>1117.7</ele>
      </trkpt>
      <trkpt lat="45.04244" lon="4.2059">
        <ele>1116.9</ele>
      </trkpt>
      <trkpt lat="45.04256" lon="4.20536">
        <ele>1116.9</ele>
      </trkpt>
      <trkpt lat="45.04263" lon="4.20501">
        <ele>1119.2</ele>
      </trkpt>
      <trkpt lat="45.04272" lon="4.20473">
        <ele>1122.2</ele>
      </trkpt>
      <trkpt lat="45.04278" lon="4.20458">
        <ele>1122.7</ele>
      </trkpt>
      <trkpt lat="45.04326" lon="4.20376">
        <ele>1128.4</ele>
      </trkpt>
      <trkpt lat="45.0434" lon="4.20353">
        <ele>1124.5</ele>
      </trkpt>
      <trkpt lat="45.04385" lon="4.20282">
        <ele>1127.5</ele>
      </trkpt>
      <trkpt lat="45.04391" lon="4.2027">
        <ele>1127.5</ele>
      </trkpt>
      <trkpt lat="45.044" lon="4.20247">
        <ele>1130.2</ele>
      </trkpt>
      <trkpt lat="45.04402" lon="4.20237">
        <ele>1130.6</ele>
      </trkpt>
      <trkpt lat="45.04402" lon="4.20196">
        <ele>1133.1</ele>
      </trkpt>
      <trkpt lat="45.04398" lon="4.20162">
        <ele>1136.3</ele>
      </trkpt>
      <trkpt lat="45.04397" lon="4.20141">
        <ele>1138.1</ele>
      </trkpt>
      <trkpt lat="45.04397" lon="4.20132">
        <ele>1138.8</ele>
      </trkpt>
      <trkpt lat="45.04403" lon="4.20106">
        <ele>1139.5</ele>
      </trkpt>
      <trkpt lat="45.04421" lon="4.20062">
        <ele>1136.3</ele>
      </trkpt>
      <trkpt lat="45.04427" lon="4.20048">
        <ele>1136.2</ele>
      </trkpt>
      <trkpt lat="45.04435" lon="4.2004">
        <ele>1136.1</ele>
      </trkpt>
      <trkpt lat="45.04439" lon="4.20029">
        <ele>1136.4</ele>
      </trkpt>
      <trkpt lat="45.04442" lon="4.20011">
        <ele>1137.2</ele>
      </trkpt>
      <trkpt lat="45.04457" lon="4.19951">
        <ele>1140.6</ele>
      </trkpt>
      <trkpt lat="45.04467" lon="4.19922">
        <ele>1140.7</ele>
      </trkpt>
      <trkpt lat="45.04477" lon="4.19904">
        <ele>1144.5</ele>
      </trkpt>
      <trkpt lat="45.04491" lon="4.19879">
        <ele>1146</ele>
      </trkpt>
      <trkpt lat="45.04526" lon="4.19833">
        <ele>1150.3</ele>
      </trkpt>
      <trkpt lat="45.04548" lon="4.1981">
        <ele>1150.2</ele>
      </trkpt>
      <trkpt lat="45.04591" lon="4.19771">
        <ele>1149.4</ele>
      </trkpt>
      <trkpt lat="45.04616" lon="4.19742">
        <ele>1155.8</ele>
      </trkpt>
      <trkpt lat="45.04626" lon="4.19729">
        <ele>1155.9</ele>
      </trkpt>
      <trkpt lat="45.04632" lon="4.19717">
        <ele>1156.4</ele>
      </trkpt>
      <trkpt lat="45.0464" lon="4.19679">
        <ele>1158.4</ele>
      </trkpt>
      <trkpt lat="45.04647" lon="4.19644">
        <ele>1165.8</ele>
      </trkpt>
      <trkpt lat="45.04652" lon="4.19617">
        <ele>1167.4</ele>
      </trkpt>
      <trkpt lat="45.04654" lon="4.196">
        <ele>1167.4</ele>
      </trkpt>
      <trkpt lat="45.04672" lon="4.19515">
        <ele>1168.1</ele>
      </trkpt>
      <trkpt lat="45.04686" lon="4.19487">
        <ele>1170.5</ele>
      </trkpt>
      <trkpt lat="45.04744" lon="4.19404">
        <ele>1175</ele>
      </trkpt>
      <trkpt lat="45.04751" lon="4.19388">
        <ele>1177.6</ele>
      </trkpt>
      <trkpt lat="45.04752" lon="4.19374">
        <ele>1178.5</ele>
      </trkpt>
      <trkpt lat="45.04751" lon="4.19362">
        <ele>1179</ele>
      </trkpt>
      <trkpt lat="45.04743" lon="4.19337">
        <ele>1179</ele>
      </trkpt>
      <trkpt lat="45.04735" lon="4.19317">
        <ele>1181.4</ele>
      </trkpt>
      <trkpt lat="45.047" lon="4.1924">
        <ele>1186.8</ele>
      </trkpt>
      <trkpt lat="45.04691" lon="4.19215">
        <ele>1187.1</ele>
      </trkpt>
      <trkpt lat="45.04687" lon="4.19197">
        <ele>1187.4</ele>
      </trkpt>
      <trkpt lat="45.04688" lon="4.19176">
        <ele>1187.6</ele>
      </trkpt>
      <trkpt lat="45.04703" lon="4.19077">
        <ele>1191.2</ele>
      </trkpt>
      <trkpt lat="45.04707" lon="4.19064">
        <ele>1191.4</ele>
      </trkpt>
      <trkpt lat="45.04734" lon="4.1889">
        <ele>1191.1</ele>
      </trkpt>
      <trkpt lat="45.04736" lon="4.1886">
        <ele>1190.9</ele>
      </trkpt>
      <trkpt lat="45.04736" lon="4.18785">
        <ele>1189.7</ele>
      </trkpt>
      <trkpt lat="45.0474" lon="4.18742">
        <ele>1190.3</ele>
      </trkpt>
      <trkpt lat="45.04751" lon="4.18669">
        <ele>1195.2</ele>
      </trkpt>
      <trkpt lat="45.04755" lon="4.18626">
        <ele>1199.2</ele>
      </trkpt>
      <trkpt lat="45.04761" lon="4.18624">
        <ele>1199.4</ele>
      </trkpt>
      <trkpt lat="45.04775" lon="4.18601">
        <ele>1200.2</ele>
      </trkpt>
      <trkpt lat="45.04788" lon="4.18585">
        <ele>1200.9</ele>
      </trkpt>
      <trkpt lat="45.04792" lon="4.18571">
        <ele>1203.4</ele>
      </trkpt>
      <trkpt lat="45.04793" lon="4.18543">
        <ele>1204</ele>
      </trkpt>
      <trkpt lat="45.04789" lon="4.18496">
        <ele>1208.1</ele>
      </trkpt>
      <trkpt lat="45.04777" lon="4.18458">
        <ele>1209</ele>
      </trkpt>
      <trkpt lat="45.04776" lon="4.18423">
        <ele>1210.1</ele>
      </trkpt>
      <trkpt lat="45.0477" lon="4.18407">
        <ele>1212.9</ele>
      </trkpt>
      <trkpt lat="45.04748" lon="4.18374">
        <ele>1208.2</ele>
      </trkpt>
      <trkpt lat="45.04745" lon="4.18363">
        <ele>1208.6</ele>
      </trkpt>
      <trkpt lat="45.04747" lon="4.18355">
        <ele>1209.3</ele>
      </trkpt>
      <trkpt lat="45.04766" lon="4.18308">
        <ele>1216.9</ele>
      </trkpt>
      <trkpt lat="45.04779" lon="4.18269">
        <ele>1218.2</ele>
      </trkpt>
      <trkpt lat="45.0479" lon="4.18227">
        <ele>1221.7</ele>
      </trkpt>
      <trkpt lat="45.04822" lon="4.18136">
        <ele>1228</ele>
      </trkpt>
      <trkpt lat="45.04825" lon="4.18117">
        <ele>1229</ele>
      </trkpt>
      <trkpt lat="45.04823" lon="4.18098">
        <ele>1230.8</ele>
      </trkpt>
      <trkpt lat="45.04818" lon="4.18081">
        <ele>1233.5</ele>
      </trkpt>
      <trkpt lat="45.04838" lon="4.18065">
        <ele>1238.6</ele>
      </trkpt>
      <trkpt lat="45.04891" lon="4.18058">
        <ele>1241.9</ele>
      </trkpt>
      <trkpt lat="45.04933" lon="4.18073">
        <ele>1244.3</ele>
      </trkpt>
      <trkpt lat="45.05" lon="4.18068">
        <ele>1246.5</ele>
      </trkpt>
      <trkpt lat="45.05084" lon="4.18054">
        <ele>1245</ele>
      </trkpt>
      <trkpt lat="45.05171" lon="4.1803">
        <ele>1245.1</ele>
      </trkpt>
      <trkpt lat="45.05211" lon="4.18015">
        <ele>1246</ele>
      </trkpt>
      <trkpt lat="45.05224" lon="4.18011">
        <ele>1246.3</ele>
      </trkpt>
      <trkpt lat="45.05222" lon="4.1798">
        <ele>1243.9</ele>
      </trkpt>
      <trkpt lat="45.0521" lon="4.17882">
        <ele>1239.9</ele>
      </trkpt>
      <trkpt lat="45.05213" lon="4.17867">
        <ele>1239.7</ele>
      </trkpt>
      <trkpt lat="45.05235" lon="4.17852">
        <ele>1239.9</ele>
      </trkpt>
      <trkpt lat="45.05316" lon="4.17765">
        <ele>1239.3</ele>
      </trkpt>
      <trkpt lat="45.05398" lon="4.17625">
        <ele>1227.9</ele>
      </trkpt>
      <trkpt lat="45.05423" lon="4.17569">
        <ele>1220.1</ele>
      </trkpt>
      <trkpt lat="45.05452" lon="4.17525">
        <ele>1215.7</ele>
      </trkpt>
      <trkpt lat="45.05462" lon="4.17523">
        <ele>1215.6</ele>
      </trkpt>
      <trkpt lat="45.05474" lon="4.1752">
        <ele>1215.3</ele>
      </trkpt>
      <trkpt lat="45.05498" lon="4.17513">
        <ele>1213.5</ele>
      </trkpt>
      <trkpt lat="45.05598" lon="4.17454">
        <ele>1208.6</ele>
      </trkpt>
      <trkpt lat="45.05624" lon="4.17441">
        <ele>1208.4</ele>
      </trkpt>
      <trkpt lat="45.05637" lon="4.17418">
        <ele>1207.4</ele>
      </trkpt>
      <trkpt lat="45.05649" lon="4.17402">
        <ele>1200.3</ele>
      </trkpt>
      <trkpt lat="45.0565" lon="4.17384">
        <ele>1198.6</ele>
      </trkpt>
      <trkpt lat="45.05646" lon="4.17373">
        <ele>1197.5</ele>
      </trkpt>
      <trkpt lat="45.05636" lon="4.17365">
        <ele>1196.8</ele>
      </trkpt>
      <trkpt lat="45.05627" lon="4.17361">
        <ele>1196.4</ele>
      </trkpt>
      <trkpt lat="45.05622" lon="4.1735">
        <ele>1195.6</ele>
      </trkpt>
      <trkpt lat="45.05621" lon="4.17332">
        <ele>1188.3</ele>
      </trkpt>
      <trkpt lat="45.05628" lon="4.17302">
        <ele>1187.2</ele>
      </trkpt>
      <trkpt lat="45.05644" lon="4.17224">
        <ele>1178.2</ele>
      </trkpt>
      <trkpt lat="45.05655" lon="4.17196">
        <ele>1176.1</ele>
      </trkpt>
      <trkpt lat="45.05665" lon="4.17175">
        <ele>1174.1</ele>
      </trkpt>
      <trkpt lat="45.05702" lon="4.17143">
        <ele>1171.8</ele>
      </trkpt>
      <trkpt lat="45.05715" lon="4.1713">
        <ele>1171.5</ele>
      </trkpt>
      <trkpt lat="45.05729" lon="4.17106">
        <ele>1170.3</ele>
      </trkpt>
      <trkpt lat="45.05736" lon="4.17088">
        <ele>1169.2</ele>
      </trkpt>
      <trkpt lat="45.05737" lon="4.17072">
        <ele>1164.4</ele>
      </trkpt>
      <trkpt lat="45.05735" lon="4.17063">
        <ele>1163.3</ele>
      </trkpt>
      <trkpt lat="45.0573" lon="4.17056">
        <ele>1162.4</ele>
      </trkpt>
      <trkpt lat="45.057" lon="4.1703">
        <ele>1159.8</ele>
      </trkpt>
      <trkpt lat="45.05682" lon="4.17009">
        <ele>1157.3</ele>
      </trkpt>
      <trkpt lat="45.05681" lon="4.17">
        <ele>1153</ele>
      </trkpt>
      <trkpt lat="45.05682" lon="4.16993">
        <ele>1152.8</ele>
      </trkpt>
      <trkpt lat="45.05688" lon="4.16928">
        <ele>1149.4</ele>
      </trkpt>
      <trkpt lat="45.05688" lon="4.169">
        <ele>1144.2</ele>
      </trkpt>
      <trkpt lat="45.05685" lon="4.16886">
        <ele>1143.4</ele>
      </trkpt>
      <trkpt lat="45.05668" lon="4.16853">
        <ele>1141.5</ele>
      </trkpt>
      <trkpt lat="45.05667" lon="4.16839">
        <ele>1140.5</ele>
      </trkpt>
      <trkpt lat="45.05675" lon="4.16815">
        <ele>1136.8</ele>
      </trkpt>
      <trkpt lat="45.05686" lon="4.16772">
        <ele>1133.7</ele>
      </trkpt>
      <trkpt lat="45.05694" lon="4.16738">
        <ele>1128.6</ele>
      </trkpt>
      <trkpt lat="45.05695" lon="4.16721">
        <ele>1127.8</ele>
      </trkpt>
      <trkpt lat="45.05692" lon="4.16705">
        <ele>1127.1</ele>
      </trkpt>
      <trkpt lat="45.05687" lon="4.1669">
        <ele>1126.5</ele>
      </trkpt>
      <trkpt lat="45.05642" lon="4.16621">
        <ele>1120.7</ele>
      </trkpt>
      <trkpt lat="45.0564" lon="4.16612">
        <ele>1120.3</ele>
      </trkpt>
      <trkpt lat="45.05641" lon="4.166">
        <ele>1119.8</ele>
      </trkpt>
      <trkpt lat="45.05647" lon="4.16587">
        <ele>1119.4</ele>
      </trkpt>
      <trkpt lat="45.05664" lon="4.16565">
        <ele>1116.6</ele>
      </trkpt>
      <trkpt lat="45.05677" lon="4.16539">
        <ele>1114.7</ele>
      </trkpt>
      <trkpt lat="45.05684" lon="4.16515">
        <ele>1114.3</ele>
      </trkpt>
      <trkpt lat="45.05695" lon="4.1647">
        <ele>1109.4</ele>
      </trkpt>
      <trkpt lat="45.05703" lon="4.16451">
        <ele>1108.2</ele>
      </trkpt>
      <trkpt lat="45.05718" lon="4.1643">
        <ele>1106.6</ele>
      </trkpt>
      <trkpt lat="45.05763" lon="4.16377">
        <ele>1096.5</ele>
      </trkpt>
      <trkpt lat="45.05784" lon="4.16341">
        <ele>1095.1</ele>
      </trkpt>
      <trkpt lat="45.05815" lon="4.16274">
        <ele>1089.9</ele>
      </trkpt>
      <trkpt lat="45.05825" lon="4.16259">
        <ele>1088.2</ele>
      </trkpt>
      <trkpt lat="45.05831" lon="4.16252">
        <ele>1086.7</ele>
      </trkpt>
      <trkpt lat="45.05848" lon="4.16242">
        <ele>1085.6</ele>
      </trkpt>
      <trkpt lat="45.0588" lon="4.16215">
        <ele>1085.1</ele>
      </trkpt>
      <trkpt lat="45.05916" lon="4.16195">
        <ele>1084.6</ele>
      </trkpt>
      <trkpt lat="45.05951" lon="4.16182">
        <ele>1082.2</ele>
      </trkpt>
      <trkpt lat="45.05959" lon="4.16176">
        <ele>1082</ele>
      </trkpt>
      <trkpt lat="45.05984" lon="4.16142">
        <ele>1082.1</ele>
      </trkpt>
      <trkpt lat="45.05992" lon="4.16123">
        <ele>1082.3</ele>
      </trkpt>
      <trkpt lat="45.06008" lon="4.16053">
        <ele>1081.3</ele>
      </trkpt>
      <trkpt lat="45.06022" lon="4.16016">
        <ele>1081.9</ele>
      </trkpt>
      <trkpt lat="45.06023" lon="4.16009">
        <ele>1082</ele>
      </trkpt>
      <trkpt lat="45.06035" lon="4.16009">
        <ele>1081.6</ele>
      </trkpt>
      <trkpt lat="45.06051" lon="4.16008">
        <ele>1081.1</ele>
      </trkpt>
      <trkpt lat="45.06108" lon="4.16006">
        <ele>1079.2</ele>
      </trkpt>
      <trkpt lat="45.06154" lon="4.16001">
        <ele>1078.9</ele>
      </trkpt>
      <trkpt lat="45.06196" lon="4.15997">
        <ele>1079.6</ele>
      </trkpt>
      <trkpt lat="45.06215" lon="4.15995">
        <ele>1079.6</ele>
      </trkpt>
      <trkpt lat="45.06237" lon="4.15993">
        <ele>1079</ele>
      </trkpt>
      <trkpt lat="45.06256" lon="4.15989">
        <ele>1078</ele>
      </trkpt>
      <trkpt lat="45.06265" lon="4.15986">
        <ele>1077.9</ele>
      </trkpt>
      <trkpt lat="45.06275" lon="4.15979">
        <ele>1077.9</ele>
      </trkpt>
      <trkpt lat="45.0632" lon="4.15951">
        <ele>1077.7</ele>
      </trkpt>
      <trkpt lat="45.06347" lon="4.15934">
        <ele>1076.2</ele>
      </trkpt>
      <trkpt lat="45.06361" lon="4.15925">
        <ele>1075.8</ele>
      </trkpt>
      <trkpt lat="45.06386" lon="4.15909">
        <ele>1077.7</ele>
      </trkpt>
      <trkpt lat="45.06441" lon="4.15872">
        <ele>1075.5</ele>
      </trkpt>
      <trkpt lat="45.0649" lon="4.15844">
        <ele>1076</ele>
      </trkpt>
      <trkpt lat="45.06509" lon="4.1583">
        <ele>1077.2</ele>
      </trkpt>
      <trkpt lat="45.06517" lon="4.15823">
        <ele>1077.3</ele>
      </trkpt>
      <trkpt lat="45.06532" lon="4.15803">
        <ele>1077.6</ele>
      </trkpt>
      <trkpt lat="45.06555" lon="4.15784">
        <ele>1077.8</ele>
      </trkpt>
      <trkpt lat="45.06561" lon="4.15781">
        <ele>1077.8</ele>
      </trkpt>
      <trkpt lat="45.06576" lon="4.15771">
        <ele>1078.1</ele>
      </trkpt>
      <trkpt lat="45.06597" lon="4.15756">
        <ele>1078</ele>
      </trkpt>
      <trkpt lat="45.06623" lon="4.15729">
        <ele>1081.8</ele>
      </trkpt>
      <trkpt lat="45.06634" lon="4.15716">
        <ele>1082.2</ele>
      </trkpt>
      <trkpt lat="45.06748" lon="4.15572">
        <ele>1088</ele>
      </trkpt>
      <trkpt lat="45.06823" lon="4.15486">
        <ele>1090.4</ele>
      </trkpt>
      <trkpt lat="45.06837" lon="4.15475">
        <ele>1088.5</ele>
      </trkpt>
      <trkpt lat="45.0685" lon="4.15468">
        <ele>1089.1</ele>
      </trkpt>
      <trkpt lat="45.06874" lon="4.15459">
        <ele>1089.5</ele>
      </trkpt>
      <trkpt lat="45.06892" lon="4.15456">
        <ele>1089.5</ele>
      </trkpt>
      <trkpt lat="45.06907" lon="4.15457">
        <ele>1089.3</ele>
      </trkpt>
      <trkpt lat="45.06927" lon="4.15463">
        <ele>1089.4</ele>
      </trkpt>
      <trkpt lat="45.07025" lon="4.15513">
        <ele>1086</ele>
      </trkpt>
      <trkpt lat="45.07057" lon="4.1552">
        <ele>1087.5</ele>
      </trkpt>
      <trkpt lat="45.07071" lon="4.15518">
        <ele>1088.7</ele>
      </trkpt>
      <trkpt lat="45.07148" lon="4.15488">
        <ele>1096.7</ele>
      </trkpt>
      <trkpt lat="45.0717" lon="4.15481">
        <ele>1096.4</ele>
      </trkpt>
      <trkpt lat="45.07169" lon="4.15475">
        <ele>1096.5</ele>
      </trkpt>
      <trkpt lat="45.07166" lon="4.15465">
        <ele>1097.3</ele>
      </trkpt>
      <trkpt lat="45.07152" lon="4.15437">
        <ele>1098.1</ele>
      </trkpt>
      <trkpt lat="45.07149" lon="4.15423">
        <ele>1098.4</ele>
      </trkpt>
      <trkpt lat="45.07147" lon="4.15397">
        <ele>1101.8</ele>
      </trkpt>
      <trkpt lat="45.07135" lon="4.15336">
        <ele>1103.9</ele>
      </trkpt>
      <trkpt lat="45.07134" lon="4.15318">
        <ele>1106.6</ele>
      </trkpt>
      <trkpt lat="45.07136" lon="4.15307">
        <ele>1106.8</ele>
      </trkpt>
      <trkpt lat="45.07141" lon="4.15302">
        <ele>1106.8</ele>
      </trkpt>
      <trkpt lat="45.07151" lon="4.153">
        <ele>1106.7</ele>
      </trkpt>
      <trkpt lat="45.07188" lon="4.15299">
        <ele>1105.3</ele>
      </trkpt>
      <trkpt lat="45.07223" lon="4.1529">
        <ele>1105.1</ele>
      </trkpt>
      <trkpt lat="45.07227" lon="4.15286">
        <ele>1105.1</ele>
      </trkpt>
      <trkpt lat="45.07228" lon="4.15277">
        <ele>1105.2</ele>
      </trkpt>
      <trkpt lat="45.07227" lon="4.15269">
        <ele>1105.2</ele>
      </trkpt>
      <trkpt lat="45.07196" lon="4.15167">
        <ele>1109.5</ele>
      </trkpt>
      <trkpt lat="45.0719" lon="4.15154">
        <ele>1112.4</ele>
      </trkpt>
      <trkpt lat="45.07162" lon="4.1512">
        <ele>1116.6</ele>
      </trkpt>
      <trkpt lat="45.07154" lon="4.15107">
        <ele>1117.1</ele>
      </trkpt>
      <trkpt lat="45.0715" lon="4.15095">
        <ele>1117.3</ele>
      </trkpt>
      <trkpt lat="45.07151" lon="4.15085">
        <ele>1117.3</ele>
      </trkpt>
      <trkpt lat="45.07146" lon="4.15078">
        <ele>1120.7</ele>
      </trkpt>
      <trkpt lat="45.07141" lon="4.15064">
        <ele>1121.8</ele>
      </trkpt>
      <trkpt lat="45.07139" lon="4.15053">
        <ele>1122.5</ele>
      </trkpt>
      <trkpt lat="45.07139" lon="4.15037">
        <ele>1123.4</ele>
      </trkpt>
      <trkpt lat="45.07142" lon="4.15022">
        <ele>1124.1</ele>
      </trkpt>
      <trkpt lat="45.0715" lon="4.15007">
        <ele>1124.8</ele>
      </trkpt>
      <trkpt lat="45.07172" lon="4.1497">
        <ele>1126.3</ele>
      </trkpt>
      <trkpt lat="45.07179" lon="4.14957">
        <ele>1126.7</ele>
      </trkpt>
      <trkpt lat="45.07197" lon="4.14907">
        <ele>1129.4</ele>
      </trkpt>
      <trkpt lat="45.07223" lon="4.1482">
        <ele>1132.4</ele>
      </trkpt>
      <trkpt lat="45.07262" lon="4.14698">
        <ele>1139.4</ele>
      </trkpt>
      <trkpt lat="45.07268" lon="4.14679">
        <ele>1140.8</ele>
      </trkpt>
      <trkpt lat="45.07282" lon="4.14644">
        <ele>1147.8</ele>
      </trkpt>
      <trkpt lat="45.07304" lon="4.14613">
        <ele>1149.8</ele>
      </trkpt>
      <trkpt lat="45.0732" lon="4.14598">
        <ele>1151.6</ele>
      </trkpt>
      <trkpt lat="45.07375" lon="4.14577">
        <ele>1155.2</ele>
      </trkpt>
      <trkpt lat="45.07395" lon="4.14562">
        <ele>1154.4</ele>
      </trkpt>
      <trkpt lat="45.07414" lon="4.14536">
        <ele>1156.9</ele>
      </trkpt>
      <trkpt lat="45.07427" lon="4.14506">
        <ele>1154.8</ele>
      </trkpt>
      <trkpt lat="45.07435" lon="4.14461">
        <ele>1156.1</ele>
      </trkpt>
      <trkpt lat="45.07429" lon="4.14406">
        <ele>1160.9</ele>
      </trkpt>
      <trkpt lat="45.07399" lon="4.14256">
        <ele>1171.5</ele>
      </trkpt>
      <trkpt lat="45.07404" lon="4.14208">
        <ele>1176.3</ele>
      </trkpt>
      <trkpt lat="45.07422" lon="4.1416">
        <ele>1174.9</ele>
      </trkpt>
      <trkpt lat="45.07433" lon="4.14112">
        <ele>1174.7</ele>
      </trkpt>
      <trkpt lat="45.07443" lon="4.14033">
        <ele>1178.2</ele>
      </trkpt>
      <trkpt lat="45.07458" lon="4.13941">
        <ele>1182.6</ele>
      </trkpt>
      <trkpt lat="45.07465" lon="4.13899">
        <ele>1187.6</ele>
      </trkpt>
      <trkpt lat="45.07467" lon="4.13839">
        <ele>1190</ele>
      </trkpt>
      <trkpt lat="45.07467" lon="4.1375">
        <ele>1197.1</ele>
      </trkpt>
      <trkpt lat="45.07467" lon="4.13706">
        <ele>1202.2</ele>
      </trkpt>
      <trkpt lat="45.07466" lon="4.13672">
        <ele>1202.9</ele>
      </trkpt>
      <trkpt lat="45.07466" lon="4.13624">
        <ele>1209.3</ele>
      </trkpt>
      <trkpt lat="45.07466" lon="4.13459">
        <ele>1221.1</ele>
      </trkpt>
      <trkpt lat="45.07465" lon="4.13335">
        <ele>1224.2</ele>
      </trkpt>
      <trkpt lat="45.07453" lon="4.13248">
        <ele>1229.8</ele>
      </trkpt>
      <trkpt lat="45.07427" lon="4.13172">
        <ele>1234.8</ele>
      </trkpt>
      <trkpt lat="45.07391" lon="4.13103">
        <ele>1243</ele>
      </trkpt>
      <trkpt lat="45.07384" lon="4.13089">
        <ele>1243.5</ele>
      </trkpt>
      <trkpt lat="45.07304" lon="4.12943">
        <ele>1255.5</ele>
      </trkpt>
      <trkpt lat="45.07269" lon="4.12877">
        <ele>1254.2</ele>
      </trkpt>
      <trkpt lat="45.07266" lon="4.12871">
        <ele>1254.1</ele>
      </trkpt>
      <trkpt lat="45.07198" lon="4.12752">
        <ele>1260.5</ele>
      </trkpt>
      <trkpt lat="45.07176" lon="4.12729">
        <ele>1263.8</ele>
      </trkpt>
      <trkpt lat="45.07161" lon="4.12717">
        <ele>1267.6</ele>
      </trkpt>
      <trkpt lat="45.07088" lon="4.12672">
        <ele>1270.6</ele>
      </trkpt>
      <trkpt lat="45.07021" lon="4.12626">
        <ele>1271.9</ele>
      </trkpt>
      <trkpt lat="45.06993" lon="4.12595">
        <ele>1272.5</ele>
      </trkpt>
      <trkpt lat="45.06974" lon="4.12555">
        <ele>1272.1</ele>
      </trkpt>
      <trkpt lat="45.06919" lon="4.12373">
        <ele>1269.8</ele>
      </trkpt>
      <trkpt lat="45.06887" lon="4.12244">
        <ele>1268.2</ele>
      </trkpt>
      <trkpt lat="45.06853" lon="4.12141">
        <ele>1268.3</ele>
      </trkpt>
      <trkpt lat="45.06835" lon="4.1209">
        <ele>1267.7</ele>
      </trkpt>
      <trkpt lat="45.06819" lon="4.12063">
        <ele>1267.8</ele>
      </trkpt>
      <trkpt lat="45.06818" lon="4.12061">
        <ele>1267.9</ele>
      </trkpt>
      <trkpt lat="45.06812" lon="4.12021">
        <ele>1268.8</ele>
      </trkpt>
      <trkpt lat="45.06815" lon="4.11968">
        <ele>1267.2</ele>
      </trkpt>
      <trkpt lat="45.06825" lon="4.11886">
        <ele>1258.8</ele>
      </trkpt>
      <trkpt lat="45.06838" lon="4.11817">
        <ele>1259</ele>
      </trkpt>
      <trkpt lat="45.06863" lon="4.11735">
        <ele>1252.3</ele>
      </trkpt>
      <trkpt lat="45.0688" lon="4.1166">
        <ele>1247.5</ele>
      </trkpt>
      <trkpt lat="45.06892" lon="4.11565">
        <ele>1241.9</ele>
      </trkpt>
      <trkpt lat="45.06892" lon="4.11472">
        <ele>1233.7</ele>
      </trkpt>
      <trkpt lat="45.06896" lon="4.11423">
        <ele>1234.4</ele>
      </trkpt>
      <trkpt lat="45.06905" lon="4.11384">
        <ele>1226.8</ele>
      </trkpt>
      <trkpt lat="45.06914" lon="4.11365">
        <ele>1225.6</ele>
      </trkpt>
      <trkpt lat="45.06925" lon="4.11342">
        <ele>1237.6</ele>
      </trkpt>
      <trkpt lat="45.0695" lon="4.11259">
        <ele>1234.6</ele>
      </trkpt>
      <trkpt lat="45.06953" lon="4.11189">
        <ele>1227.5</ele>
      </trkpt>
      <trkpt lat="45.06944" lon="4.11117">
        <ele>1221.3</ele>
      </trkpt>
      <trkpt lat="45.06949" lon="4.11061">
        <ele>1216.5</ele>
      </trkpt>
      <trkpt lat="45.06963" lon="4.11027">
        <ele>1215.3</ele>
      </trkpt>
      <trkpt lat="45.06979" lon="4.1099">
        <ele>1208.2</ele>
      </trkpt>
      <trkpt lat="45.06996" lon="4.10966">
        <ele>1206.6</ele>
      </trkpt>
      <trkpt lat="45.07075" lon="4.10889">
        <ele>1200.4</ele>
      </trkpt>
      <trkpt lat="45.0709" lon="4.1087">
        <ele>1202.6</ele>
      </trkpt>
      <trkpt lat="45.07101" lon="4.10833">
        <ele>1193.7</ele>
      </trkpt>
      <trkpt lat="45.07122" lon="4.10804">
        <ele>1194.2</ele>
      </trkpt>
      <trkpt lat="45.07139" lon="4.10797">
        <ele>1194.8</ele>
      </trkpt>
      <trkpt lat="45.07151" lon="4.10768">
        <ele>1193.9</ele>
      </trkpt>
      <trkpt lat="45.07195" lon="4.10604">
        <ele>1181.7</ele>
      </trkpt>
      <trkpt lat="45.07201" lon="4.10564">
        <ele>1176.2</ele>
      </trkpt>
      <trkpt lat="45.07222" lon="4.10496">
        <ele>1171</ele>
      </trkpt>
      <trkpt lat="45.07267" lon="4.10376">
        <ele>1168</ele>
      </trkpt>
      <trkpt lat="45.073" lon="4.10298">
        <ele>1162.6</ele>
      </trkpt>
      <trkpt lat="45.07319" lon="4.10243">
        <ele>1159.9</ele>
      </trkpt>
      <trkpt lat="45.07319" lon="4.10206">
        <ele>1157.4</ele>
      </trkpt>
      <trkpt lat="45.07308" lon="4.10171">
        <ele>1156.3</ele>
      </trkpt>
      <trkpt lat="45.07302" lon="4.10148">
        <ele>1153</ele>
      </trkpt>
      <trkpt lat="45.07288" lon="4.10075">
        <ele>1149</ele>
      </trkpt>
      <trkpt lat="45.07271" lon="4.10016">
        <ele>1146.9</ele>
      </trkpt>
      <trkpt lat="45.07237" lon="4.0994">
        <ele>1140.5</ele>
      </trkpt>
      <trkpt lat="45.07208" lon="4.09888">
        <ele>1139.9</ele>
      </trkpt>
      <trkpt lat="45.07205" lon="4.09881">
        <ele>1139.8</ele>
      </trkpt>
      <trkpt lat="45.07192" lon="4.09857">
        <ele>1138.9</ele>
      </trkpt>
      <trkpt lat="45.07179" lon="4.0983">
        <ele>1138.1</ele>
      </trkpt>
      <trkpt lat="45.07171" lon="4.09815">
        <ele>1139</ele>
      </trkpt>
      <trkpt lat="45.07151" lon="4.0978">
        <ele>1131.2</ele>
      </trkpt>
      <trkpt lat="45.07128" lon="4.09747">
        <ele>1131.7</ele>
      </trkpt>
      <trkpt lat="45.07111" lon="4.09732">
        <ele>1130</ele>
      </trkpt>
      <trkpt lat="45.07097" lon="4.09726">
        <ele>1129.1</ele>
      </trkpt>
      <trkpt lat="45.07087" lon="4.09725">
        <ele>1128.6</ele>
      </trkpt>
      <trkpt lat="45.0706" lon="4.09735">
        <ele>1123.1</ele>
      </trkpt>
      <trkpt lat="45.0705" lon="4.09733">
        <ele>1122.6</ele>
      </trkpt>
      <trkpt lat="45.07019" lon="4.09718">
        <ele>1121.6</ele>
      </trkpt>
      <trkpt lat="45.06955" lon="4.09702">
        <ele>1114.4</ele>
      </trkpt>
      <trkpt lat="45.06906" lon="4.09697">
        <ele>1104.3</ele>
      </trkpt>
      <trkpt lat="45.0689" lon="4.09677">
        <ele>1104.9</ele>
      </trkpt>
      <trkpt lat="45.06885" lon="4.09643">
        <ele>1107.3</ele>
      </trkpt>
      <trkpt lat="45.06891" lon="4.09596">
        <ele>1109.4</ele>
      </trkpt>
      <trkpt lat="45.06919" lon="4.09451">
        <ele>1104.1</ele>
      </trkpt>
      <trkpt lat="45.06944" lon="4.09392">
        <ele>1093.4</ele>
      </trkpt>
      <trkpt lat="45.06981" lon="4.0934">
        <ele>1092.5</ele>
      </trkpt>
      <trkpt lat="45.07023" lon="4.09298">
        <ele>1086</ele>
      </trkpt>
      <trkpt lat="45.07043" lon="4.09286">
        <ele>1085</ele>
      </trkpt>
      <trkpt lat="45.07048" lon="4.09283">
        <ele>1084.7</ele>
      </trkpt>
      <trkpt lat="45.07072" lon="4.09278">
        <ele>1083.9</ele>
      </trkpt>
      <trkpt lat="45.07091" lon="4.09287">
        <ele>1082.7</ele>
      </trkpt>
      <trkpt lat="45.07143" lon="4.09322">
        <ele>1082.8</ele>
      </trkpt>
      <trkpt lat="45.07167" lon="4.09333">
        <ele>1082.9</ele>
      </trkpt>
      <trkpt lat="45.07185" lon="4.09334">
        <ele>1085.1</ele>
      </trkpt>
      <trkpt lat="45.07197" lon="4.09331">
        <ele>1080.3</ele>
      </trkpt>
      <trkpt lat="45.07218" lon="4.09318">
        <ele>1079.9</ele>
      </trkpt>
      <trkpt lat="45.07256" lon="4.09245">
        <ele>1079.8</ele>
      </trkpt>
      <trkpt lat="45.07259" lon="4.09215">
        <ele>1080.6</ele>
      </trkpt>
      <trkpt lat="45.07256" lon="4.09193">
        <ele>1079.9</ele>
      </trkpt>
      <trkpt lat="45.07166" lon="4.09064">
        <ele>1072</ele>
      </trkpt>
      <trkpt lat="45.07133" lon="4.08998">
        <ele>1075.1</ele>
      </trkpt>
      <trkpt lat="45.07117" lon="4.08957">
        <ele>1075</ele>
      </trkpt>
      <trkpt lat="45.07113" lon="4.08952">
        <ele>1074.9</ele>
      </trkpt>
      <trkpt lat="45.07078" lon="4.08911">
        <ele>1073.3</ele>
      </trkpt>
      <trkpt lat="45.07014" lon="4.08845">
        <ele>1070.3</ele>
      </trkpt>
      <trkpt lat="45.06975" lon="4.08801">
        <ele>1068</ele>
      </trkpt>
      <trkpt lat="45.06942" lon="4.08762">
        <ele>1067.3</ele>
      </trkpt>
      <trkpt lat="45.06932" lon="4.08746">
        <ele>1068.7</ele>
      </trkpt>
      <trkpt lat="45.06918" lon="4.08721">
        <ele>1069.6</ele>
      </trkpt>
      <trkpt lat="45.06887" lon="4.08674">
        <ele>1063.5</ele>
      </trkpt>
      <trkpt lat="45.06874" lon="4.08639">
        <ele>1064.2</ele>
      </trkpt>
      <trkpt lat="45.06865" lon="4.08606">
        <ele>1063.9</ele>
      </trkpt>
      <trkpt lat="45.06861" lon="4.08592">
        <ele>1063.4</ele>
      </trkpt>
      <trkpt lat="45.06839" lon="4.08514">
        <ele>1063.7</ele>
      </trkpt>
      <trkpt lat="45.06813" lon="4.08454">
        <ele>1054.7</ele>
      </trkpt>
      <trkpt lat="45.06803" lon="4.08419">
        <ele>1054.6</ele>
      </trkpt>
      <trkpt lat="45.06795" lon="4.0836">
        <ele>1054.6</ele>
      </trkpt>
      <trkpt lat="45.06782" lon="4.0832">
        <ele>1053.8</ele>
      </trkpt>
      <trkpt lat="45.06765" lon="4.08285">
        <ele>1052.7</ele>
      </trkpt>
      <trkpt lat="45.06749" lon="4.08257">
        <ele>1044.8</ele>
      </trkpt>
      <trkpt lat="45.06707" lon="4.08203">
        <ele>1041</ele>
      </trkpt>
      <trkpt lat="45.06695" lon="4.08175">
        <ele>1040.1</ele>
      </trkpt>
      <trkpt lat="45.06688" lon="4.08156">
        <ele>1040.6</ele>
      </trkpt>
      <trkpt lat="45.06671" lon="4.08105">
        <ele>1040.1</ele>
      </trkpt>
      <trkpt lat="45.06649" lon="4.08029">
        <ele>1031.9</ele>
      </trkpt>
      <trkpt lat="45.06643" lon="4.07997">
        <ele>1030.4</ele>
      </trkpt>
      <trkpt lat="45.06635" lon="4.0795">
        <ele>1028</ele>
      </trkpt>
      <trkpt lat="45.06636" lon="4.0793">
        <ele>1027.9</ele>
      </trkpt>
      <trkpt lat="45.06639" lon="4.07886">
        <ele>1023.7</ele>
      </trkpt>
      <trkpt lat="45.06646" lon="4.07792">
        <ele>1017.4</ele>
      </trkpt>
      <trkpt lat="45.0665" lon="4.07759">
        <ele>1017.4</ele>
      </trkpt>
      <trkpt lat="45.06672" lon="4.07712">
        <ele>1017.1</ele>
      </trkpt>
      <trkpt lat="45.06685" lon="4.07695">
        <ele>1016.1</ele>
      </trkpt>
      <trkpt lat="45.06735" lon="4.07628">
        <ele>1010.6</ele>
      </trkpt>
      <trkpt lat="45.06759" lon="4.07597">
        <ele>1010.8</ele>
      </trkpt>
      <trkpt lat="45.06818" lon="4.07526">
        <ele>1007.1</ele>
      </trkpt>
      <trkpt lat="45.06846" lon="4.07492">
        <ele>1006.1</ele>
      </trkpt>
      <trkpt lat="45.0686" lon="4.07477">
        <ele>1005.5</ele>
      </trkpt>
      <trkpt lat="45.06863" lon="4.07471">
        <ele>1005.2</ele>
      </trkpt>
      <trkpt lat="45.06872" lon="4.07457">
        <ele>1004.6</ele>
      </trkpt>
      <trkpt lat="45.0687" lon="4.0743">
        <ele>1003.3</ele>
      </trkpt>
      <trkpt lat="45.06857" lon="4.07403">
        <ele>997.2</ele>
      </trkpt>
      <trkpt lat="45.06839" lon="4.07376">
        <ele>995.7</ele>
      </trkpt>
      <trkpt lat="45.06766" lon="4.0732">
        <ele>989.1</ele>
      </trkpt>
      <trkpt lat="45.06761" lon="4.07306">
        <ele>988.4</ele>
      </trkpt>
      <trkpt lat="45.06758" lon="4.07295">
        <ele>987.7</ele>
      </trkpt>
      <trkpt lat="45.06769" lon="4.07257">
        <ele>985.8</ele>
      </trkpt>
      <trkpt lat="45.06772" lon="4.07244">
        <ele>981.9</ele>
      </trkpt>
      <trkpt lat="45.06776" lon="4.07228">
        <ele>981.1</ele>
      </trkpt>
      <trkpt lat="45.06771" lon="4.07128">
        <ele>974.6</ele>
      </trkpt>
      <trkpt lat="45.06772" lon="4.07107">
        <ele>973.8</ele>
      </trkpt>
      <trkpt lat="45.06776" lon="4.07076">
        <ele>970.5</ele>
      </trkpt>
      <trkpt lat="45.06788" lon="4.07039">
        <ele>969.6</ele>
      </trkpt>
      <trkpt lat="45.06798" lon="4.0702">
        <ele>969.2</ele>
      </trkpt>
      <trkpt lat="45.06855" lon="4.06941">
        <ele>963.5</ele>
      </trkpt>
      <trkpt lat="45.06862" lon="4.06917">
        <ele>963</ele>
      </trkpt>
      <trkpt lat="45.06863" lon="4.06881">
        <ele>958.9</ele>
      </trkpt>
      <trkpt lat="45.0687" lon="4.06793">
        <ele>954.2</ele>
      </trkpt>
      <trkpt lat="45.06874" lon="4.06777">
        <ele>953.7</ele>
      </trkpt>
      <trkpt lat="45.06882" lon="4.06759">
        <ele>953</ele>
      </trkpt>
      <trkpt lat="45.06892" lon="4.06746">
        <ele>950.4</ele>
      </trkpt>
      <trkpt lat="45.06904" lon="4.06737">
        <ele>949.9</ele>
      </trkpt>
      <trkpt lat="45.06929" lon="4.06726">
        <ele>947.1</ele>
      </trkpt>
      <trkpt lat="45.06931" lon="4.06724">
        <ele>947</ele>
      </trkpt>
      <trkpt lat="45.06949" lon="4.06745">
        <ele>946.8</ele>
      </trkpt>
      <trkpt lat="45.06954" lon="4.06744">
        <ele>946.7</ele>
      </trkpt>
      <trkpt lat="45.0698" lon="4.0673">
        <ele>945.9</ele>
      </trkpt>
      <trkpt lat="45.07074" lon="4.06624">
        <ele>941.6</ele>
      </trkpt>
      <trkpt lat="45.07101" lon="4.06593">
        <ele>939.9</ele>
      </trkpt>
      <trkpt lat="45.07112" lon="4.06581">
        <ele>939.1</ele>
      </trkpt>
      <trkpt lat="45.0714" lon="4.0655">
        <ele>939.2</ele>
      </trkpt>
      <trkpt lat="45.07194" lon="4.06491">
        <ele>938.8</ele>
      </trkpt>
      <trkpt lat="45.07227" lon="4.06457">
        <ele>937.9</ele>
      </trkpt>
      <trkpt lat="45.07247" lon="4.06437">
        <ele>937.3</ele>
      </trkpt>
      <trkpt lat="45.073" lon="4.06394">
        <ele>934.3</ele>
      </trkpt>
      <trkpt lat="45.07318" lon="4.06376">
        <ele>934</ele>
      </trkpt>
      <trkpt lat="45.07331" lon="4.06361">
        <ele>933.8</ele>
      </trkpt>
      <trkpt lat="45.07381" lon="4.06281">
        <ele>926.5</ele>
      </trkpt>
      <trkpt lat="45.07396" lon="4.06254">
        <ele>924.7</ele>
      </trkpt>
      <trkpt lat="45.0742" lon="4.06201">
        <ele>916.3</ele>
      </trkpt>
      <trkpt lat="45.0744" lon="4.06147">
        <ele>914.8</ele>
      </trkpt>
      <trkpt lat="45.07472" lon="4.06066">
        <ele>912.1</ele>
      </trkpt>
      <trkpt lat="45.07516" lon="4.05973">
        <ele>899.4</ele>
      </trkpt>
      <trkpt lat="45.07525" lon="4.05947">
        <ele>899</ele>
      </trkpt>
      <trkpt lat="45.07567" lon="4.05788">
        <ele>896.7</ele>
      </trkpt>
      <trkpt lat="45.07579" lon="4.05724">
        <ele>893.6</ele>
      </trkpt>
      <trkpt lat="45.07585" lon="4.05673">
        <ele>882.9</ele>
      </trkpt>
      <trkpt lat="45.07596" lon="4.05559">
        <ele>873.5</ele>
      </trkpt>
      <trkpt lat="45.07598" lon="4.05522">
        <ele>872.4</ele>
      </trkpt>
      <trkpt lat="45.07598" lon="4.055">
        <ele>871.5</ele>
      </trkpt>
      <trkpt lat="45.07596" lon="4.05467">
        <ele>868.7</ele>
      </trkpt>
      <trkpt lat="45.07591" lon="4.05429">
        <ele>868.4</ele>
      </trkpt>
      <trkpt lat="45.07582" lon="4.05386">
        <ele>870.5</ele>
      </trkpt>
      <trkpt lat="45.07575" lon="4.05367">
        <ele>869.5</ele>
      </trkpt>
      <trkpt lat="45.07571" lon="4.05357">
        <ele>868.7</ele>
      </trkpt>
      <trkpt lat="45.07557" lon="4.05333">
        <ele>862.7</ele>
      </trkpt>
      <trkpt lat="45.07487" lon="4.05226">
        <ele>859</ele>
      </trkpt>
      <trkpt lat="45.0746" lon="4.05178">
        <ele>857.8</ele>
      </trkpt>
      <trkpt lat="45.07415" lon="4.05105">
        <ele>855.1</ele>
      </trkpt>
      <trkpt lat="45.07385" lon="4.05063">
        <ele>849.5</ele>
      </trkpt>
      <trkpt lat="45.07372" lon="4.05037">
        <ele>848.9</ele>
      </trkpt>
      <trkpt lat="45.07369" lon="4.05029">
        <ele>848.6</ele>
      </trkpt>
      <trkpt lat="45.07367" lon="4.05023">
        <ele>848.4</ele>
      </trkpt>
      <trkpt lat="45.07367" lon="4.04997">
        <ele>842.7</ele>
      </trkpt>
      <trkpt lat="45.0739" lon="4.04835">
        <ele>834</ele>
      </trkpt>
      <trkpt lat="45.07392" lon="4.0483">
        <ele>832.2</ele>
      </trkpt>
      <trkpt lat="45.07382" lon="4.04817">
        <ele>832.3</ele>
      </trkpt>
      <trkpt lat="45.07371" lon="4.04806">
        <ele>832.3</ele>
      </trkpt>
      <trkpt lat="45.0735" lon="4.04788">
        <ele>832.3</ele>
      </trkpt>
      <trkpt lat="45.07351" lon="4.04783">
        <ele>832.2</ele>
      </trkpt>
      <trkpt lat="45.07353" lon="4.04772">
        <ele>832</ele>
      </trkpt>
      <trkpt lat="45.07354" lon="4.04769">
        <ele>832</ele>
      </trkpt>
      <trkpt lat="45.07359" lon="4.04755">
        <ele>831.8</ele>
      </trkpt>
      <trkpt lat="45.07376" lon="4.04709">
        <ele>830</ele>
      </trkpt>
      <trkpt lat="45.07383" lon="4.04692">
        <ele>829.7</ele>
      </trkpt>
      <trkpt lat="45.07405" lon="4.04654">
        <ele>827.7</ele>
      </trkpt>
      <trkpt lat="45.07407" lon="4.04649">
        <ele>827.7</ele>
      </trkpt>
      <trkpt lat="45.07408" lon="4.0464">
        <ele>827.8</ele>
      </trkpt>
      <trkpt lat="45.07408" lon="4.04626">
        <ele>827.8</ele>
      </trkpt>
      <trkpt lat="45.07406" lon="4.04612">
        <ele>827.7</ele>
      </trkpt>
      <trkpt lat="45.07395" lon="4.04575">
        <ele>826.6</ele>
      </trkpt>
      <trkpt lat="45.07393" lon="4.0456">
        <ele>826.4</ele>
      </trkpt>
      <trkpt lat="45.07393" lon="4.04546">
        <ele>826.3</ele>
      </trkpt>
      <trkpt lat="45.07396" lon="4.04531">
        <ele>826</ele>
      </trkpt>
      <trkpt lat="45.07421" lon="4.04459">
        <ele>828.2</ele>
      </trkpt>
      <trkpt lat="45.07424" lon="4.04443">
        <ele>827.7</ele>
      </trkpt>
      <trkpt lat="45.07428" lon="4.04407">
        <ele>823.9</ele>
      </trkpt>
      <trkpt lat="45.07429" lon="4.04355">
        <ele>820.9</ele>
      </trkpt>
      <trkpt lat="45.07432" lon="4.04341">
        <ele>819.8</ele>
      </trkpt>
      <trkpt lat="45.07435" lon="4.04332">
        <ele>815.1</ele>
      </trkpt>
      <trkpt lat="45.0744" lon="4.04324">
        <ele>814.9</ele>
      </trkpt>
      <trkpt lat="45.07448" lon="4.04317">
        <ele>814.7</ele>
      </trkpt>
      <trkpt lat="45.07493" lon="4.04283">
        <ele>813.6</ele>
      </trkpt>
      <trkpt lat="45.07519" lon="4.04253">
        <ele>815.3</ele>
      </trkpt>
      <trkpt lat="45.07525" lon="4.04243">
        <ele>810.5</ele>
      </trkpt>
      <trkpt lat="45.07529" lon="4.04235">
        <ele>810.5</ele>
      </trkpt>
      <trkpt lat="45.07534" lon="4.0422">
        <ele>810.2</ele>
      </trkpt>
      <trkpt lat="45.07545" lon="4.04174">
        <ele>808.7</ele>
      </trkpt>
      <trkpt lat="45.0755" lon="4.04149">
        <ele>804.7</ele>
      </trkpt>
      <trkpt lat="45.07557" lon="4.04096">
        <ele>804.2</ele>
      </trkpt>
      <trkpt lat="45.07564" lon="4.04062">
        <ele>801.9</ele>
      </trkpt>
      <trkpt lat="45.07572" lon="4.04019">
        <ele>801.5</ele>
      </trkpt>
      <trkpt lat="45.07577" lon="4.03994">
        <ele>801.6</ele>
      </trkpt>
      <trkpt lat="45.0759" lon="4.03911">
        <ele>802.8</ele>
      </trkpt>
      <trkpt lat="45.07609" lon="4.03865">
        <ele>804.6</ele>
      </trkpt>
      <trkpt lat="45.07624" lon="4.0384">
        <ele>805.3</ele>
      </trkpt>
      <trkpt lat="45.07681" lon="4.03787">
        <ele>806.1</ele>
      </trkpt>
      <trkpt lat="45.077" lon="4.03768">
        <ele>805.4</ele>
      </trkpt>
      <trkpt lat="45.07736" lon="4.03719">
        <ele>800.3</ele>
      </trkpt>
      <trkpt lat="45.07756" lon="4.03689">
        <ele>806.5</ele>
      </trkpt>
      <trkpt lat="45.07792" lon="4.03623">
        <ele>805</ele>
      </trkpt>
      <trkpt lat="45.07801" lon="4.03605">
        <ele>805.4</ele>
      </trkpt>
      <trkpt lat="45.07804" lon="4.03598">
        <ele>805.7</ele>
      </trkpt>
      <trkpt lat="45.07844" lon="4.03484">
        <ele>804.5</ele>
      </trkpt>
      <trkpt lat="45.07863" lon="4.03425">
        <ele>803.5</ele>
      </trkpt>
      <trkpt lat="45.07881" lon="4.03298">
        <ele>795</ele>
      </trkpt>
      <trkpt lat="45.07907" lon="4.03179">
        <ele>789.9</ele>
      </trkpt>
      <trkpt lat="45.07922" lon="4.031">
        <ele>790.7</ele>
      </trkpt>
      <trkpt lat="45.07925" lon="4.03085">
        <ele>789.6</ele>
      </trkpt>
      <trkpt lat="45.07933" lon="4.03056">
        <ele>788.4</ele>
      </trkpt>
      <trkpt lat="45.07965" lon="4.02985">
        <ele>784.3</ele>
      </trkpt>
      <trkpt lat="45.08018" lon="4.02914">
        <ele>781.4</ele>
      </trkpt>
      <trkpt lat="45.08028" lon="4.02903">
        <ele>780.8</ele>
      </trkpt>
      <trkpt lat="45.08029" lon="4.02902">
        <ele>780.7</ele>
      </trkpt>
      <trkpt lat="45.08037" lon="4.02895">
        <ele>780.4</ele>
      </trkpt>
      <trkpt lat="45.08055" lon="4.02885">
        <ele>780.1</ele>
      </trkpt>
      <trkpt lat="45.0807" lon="4.02881">
        <ele>779.9</ele>
      </trkpt>
      <trkpt lat="45.08121" lon="4.02875">
        <ele>779.5</ele>
      </trkpt>
      <trkpt lat="45.08136" lon="4.0287">
        <ele>779.1</ele>
      </trkpt>
      <trkpt lat="45.08146" lon="4.02863">
        <ele>778.4</ele>
      </trkpt>
      <trkpt lat="45.08155" lon="4.02853">
        <ele>777.1</ele>
      </trkpt>
      <trkpt lat="45.08188" lon="4.02804">
        <ele>774.6</ele>
      </trkpt>
      <trkpt lat="45.08202" lon="4.02787">
        <ele>774.7</ele>
      </trkpt>
      <trkpt lat="45.08217" lon="4.02771">
        <ele>774.8</ele>
      </trkpt>
      <trkpt lat="45.08228" lon="4.02762">
        <ele>775</ele>
      </trkpt>
      <trkpt lat="45.08239" lon="4.02757">
        <ele>775.1</ele>
      </trkpt>
      <trkpt lat="45.08259" lon="4.02752">
        <ele>777.4</ele>
      </trkpt>
      <trkpt lat="45.08314" lon="4.0276">
        <ele>781.8</ele>
      </trkpt>
      <trkpt lat="45.08325" lon="4.0276">
        <ele>781.7</ele>
      </trkpt>
      <trkpt lat="45.08423" lon="4.02736">
        <ele>778.9</ele>
      </trkpt>
      <trkpt lat="45.08431" lon="4.02736">
        <ele>778.3</ele>
      </trkpt>
      <trkpt lat="45.08446" lon="4.02743">
        <ele>777.9</ele>
      </trkpt>
      <trkpt lat="45.08452" lon="4.02747">
        <ele>777.8</ele>
      </trkpt>
      <trkpt lat="45.08469" lon="4.02762">
        <ele>784.2</ele>
      </trkpt>
      <trkpt lat="45.08505" lon="4.02781">
        <ele>782.8</ele>
      </trkpt>
      <trkpt lat="45.08537" lon="4.02797">
        <ele>782.8</ele>
      </trkpt>
      <trkpt lat="45.08545" lon="4.02802">
        <ele>782.7</ele>
      </trkpt>
      <trkpt lat="45.08572" lon="4.02812">
        <ele>781.9</ele>
      </trkpt>
      <trkpt lat="45.08603" lon="4.0281">
        <ele>778.9</ele>
      </trkpt>
      <trkpt lat="45.08631" lon="4.028">
        <ele>778</ele>
      </trkpt>
      <trkpt lat="45.08643" lon="4.02789">
        <ele>777.5</ele>
      </trkpt>
      <trkpt lat="45.08655" lon="4.02773">
        <ele>776.9</ele>
      </trkpt>
      <trkpt lat="45.08679" lon="4.02742">
        <ele>774</ele>
      </trkpt>
      <trkpt lat="45.087" lon="4.02711">
        <ele>772.8</ele>
      </trkpt>
      <trkpt lat="45.08722" lon="4.02679">
        <ele>772.1</ele>
      </trkpt>
      <trkpt lat="45.0878" lon="4.02593">
        <ele>766.5</ele>
      </trkpt>
      <trkpt lat="45.08796" lon="4.02576">
        <ele>763.2</ele>
      </trkpt>
      <trkpt lat="45.08815" lon="4.02568">
        <ele>763.3</ele>
      </trkpt>
      <trkpt lat="45.08873" lon="4.02564">
        <ele>764.2</ele>
      </trkpt>
      <trkpt lat="45.08886" lon="4.02556">
        <ele>764.3</ele>
      </trkpt>
      <trkpt lat="45.08898" lon="4.02539">
        <ele>763.8</ele>
      </trkpt>
      <trkpt lat="45.08902" lon="4.02524">
        <ele>763.2</ele>
      </trkpt>
      <trkpt lat="45.08913" lon="4.02476">
        <ele>758.6</ele>
      </trkpt>
      <trkpt lat="45.08921" lon="4.02456">
        <ele>759.7</ele>
      </trkpt>
      <trkpt lat="45.0893" lon="4.02443">
        <ele>758.9</ele>
      </trkpt>
      <trkpt lat="45.08939" lon="4.02433">
        <ele>758.6</ele>
      </trkpt>
      <trkpt lat="45.08989" lon="4.02393">
        <ele>755.8</ele>
      </trkpt>
      <trkpt lat="45.09005" lon="4.02374">
        <ele>760.2</ele>
      </trkpt>
      <trkpt lat="45.09009" lon="4.02365">
        <ele>759.9</ele>
      </trkpt>
      <trkpt lat="45.09012" lon="4.02352">
        <ele>759.1</ele>
      </trkpt>
      <trkpt lat="45.09013" lon="4.02337">
        <ele>757.9</ele>
      </trkpt>
      <trkpt lat="45.09012" lon="4.02313">
        <ele>758.6</ele>
      </trkpt>
      <trkpt lat="45.08999" lon="4.0214">
        <ele>755.2</ele>
      </trkpt>
      <trkpt lat="45.08997" lon="4.02111">
        <ele>755.6</ele>
      </trkpt>
      <trkpt lat="45.09003" lon="4.02107">
        <ele>763.9</ele>
      </trkpt>
      <trkpt lat="45.09012" lon="4.02093">
        <ele>763.4</ele>
      </trkpt>
      <trkpt lat="45.09017" lon="4.02078">
        <ele>764.5</ele>
      </trkpt>
      <trkpt lat="45.09024" lon="4.02037">
        <ele>767.1</ele>
      </trkpt>
      <trkpt lat="45.09032" lon="4.02">
        <ele>768.5</ele>
      </trkpt>
      <trkpt lat="45.0907" lon="4.01866">
        <ele>773.2</ele>
      </trkpt>
      <trkpt lat="45.09081" lon="4.01839">
        <ele>776.5</ele>
      </trkpt>
      <trkpt lat="45.09097" lon="4.01813">
        <ele>781</ele>
      </trkpt>
      <trkpt lat="45.09105" lon="4.01802">
        <ele>781.6</ele>
      </trkpt>
      <trkpt lat="45.0911" lon="4.01797">
        <ele>781.9</ele>
      </trkpt>
      <trkpt lat="45.09114" lon="4.01793">
        <ele>782.1</ele>
      </trkpt>
      <trkpt lat="45.09149" lon="4.01775">
        <ele>784.3</ele>
      </trkpt>
      <trkpt lat="45.09161" lon="4.01765">
        <ele>784.9</ele>
      </trkpt>
      <trkpt lat="45.09167" lon="4.01757">
        <ele>788.6</ele>
      </trkpt>
      <trkpt lat="45.09184" lon="4.01733">
        <ele>788</ele>
      </trkpt>
      <trkpt lat="45.09216" lon="4.0169">
        <ele>789.2</ele>
      </trkpt>
      <trkpt lat="45.0924" lon="4.01656">
        <ele>788.1</ele>
      </trkpt>
      <trkpt lat="45.09268" lon="4.01626">
        <ele>796.6</ele>
      </trkpt>
      <trkpt lat="45.09283" lon="4.01607">
        <ele>797.2</ele>
      </trkpt>
      <trkpt lat="45.09315" lon="4.01543">
        <ele>797.1</ele>
      </trkpt>
      <trkpt lat="45.09318" lon="4.01537">
        <ele>797.2</ele>
      </trkpt>
      <trkpt lat="45.09317" lon="4.01527">
        <ele>797.1</ele>
      </trkpt>
      <trkpt lat="45.0932" lon="4.01475">
        <ele>793.1</ele>
      </trkpt>
      <trkpt lat="45.09319" lon="4.01472">
        <ele>792.7</ele>
      </trkpt>
      <trkpt lat="45.09317" lon="4.01471">
        <ele>792.4</ele>
      </trkpt>
      <trkpt lat="45.0931" lon="4.01468">
        <ele>791.5</ele>
      </trkpt>
      <trkpt lat="45.09308" lon="4.01466">
        <ele>791.2</ele>
      </trkpt>
      <trkpt lat="45.09307" lon="4.01463">
        <ele>790.9</ele>
      </trkpt>
      <trkpt lat="45.09308" lon="4.01442">
        <ele>790.1</ele>
      </trkpt>
      <trkpt lat="45.09312" lon="4.01424">
        <ele>790.4</ele>
      </trkpt>
      <trkpt lat="45.09314" lon="4.01413">
        <ele>786.7</ele>
      </trkpt>
      <trkpt lat="45.09315" lon="4.01398">
        <ele>785.5</ele>
      </trkpt>
      <trkpt lat="45.09311" lon="4.01372">
        <ele>783</ele>
      </trkpt>
      <trkpt lat="45.09265" lon="4.01239">
        <ele>768.4</ele>
      </trkpt>
      <trkpt lat="45.09246" lon="4.01166">
        <ele>762.3</ele>
      </trkpt>
      <trkpt lat="45.09236" lon="4.01118">
        <ele>755.8</ele>
      </trkpt>
      <trkpt lat="45.0923" lon="4.01072">
        <ele>755.6</ele>
      </trkpt>
      <trkpt lat="45.09231" lon="4.01051">
        <ele>754.2</ele>
      </trkpt>
      <trkpt lat="45.09229" lon="4.00993">
        <ele>751.9</ele>
      </trkpt>
      <trkpt lat="45.09232" lon="4.00963">
        <ele>750.4</ele>
      </trkpt>
      <trkpt lat="45.09246" lon="4.00936">
        <ele>749.9</ele>
      </trkpt>
      <trkpt lat="45.0925" lon="4.00931">
        <ele>751.5</ele>
      </trkpt>
      <trkpt lat="45.09258" lon="4.00925">
        <ele>751.2</ele>
      </trkpt>
      <trkpt lat="45.09267" lon="4.00918">
        <ele>751.4</ele>
      </trkpt>
      <trkpt lat="45.09281" lon="4.00913">
        <ele>746.2</ele>
      </trkpt>
      <trkpt lat="45.09292" lon="4.00913">
        <ele>745.8</ele>
      </trkpt>
      <trkpt lat="45.0932" lon="4.00921">
        <ele>750.4</ele>
      </trkpt>
      <trkpt lat="45.09367" lon="4.00939">
        <ele>752.2</ele>
      </trkpt>
      <trkpt lat="45.09382" lon="4.00942">
        <ele>752.3</ele>
      </trkpt>
      <trkpt lat="45.0939" lon="4.00941">
        <ele>752</ele>
      </trkpt>
      <trkpt lat="45.09395" lon="4.00937">
        <ele>751.5</ele>
      </trkpt>
      <trkpt lat="45.094" lon="4.00931">
        <ele>750.8</ele>
      </trkpt>
      <trkpt lat="45.09405" lon="4.00922">
        <ele>749.5</ele>
      </trkpt>
      <trkpt lat="45.09415" lon="4.00877">
        <ele>744.6</ele>
      </trkpt>
      <trkpt lat="45.09417" lon="4.0086">
        <ele>748.1</ele>
      </trkpt>
      <trkpt lat="45.09414" lon="4.00805">
        <ele>740.4</ele>
      </trkpt>
      <trkpt lat="45.09418" lon="4.00788">
        <ele>745.8</ele>
      </trkpt>
      <trkpt lat="45.09433" lon="4.0077">
        <ele>745.5</ele>
      </trkpt>
      <trkpt lat="45.09436" lon="4.00763">
        <ele>745.4</ele>
      </trkpt>
      <trkpt lat="45.09438" lon="4.00743">
        <ele>744.6</ele>
      </trkpt>
      <trkpt lat="45.09436" lon="4.00732">
        <ele>744.7</ele>
      </trkpt>
      <trkpt lat="45.09418" lon="4.00673">
        <ele>740</ele>
      </trkpt>
      <trkpt lat="45.09396" lon="4.00644">
        <ele>732.4</ele>
      </trkpt>
      <trkpt lat="45.09373" lon="4.00587">
        <ele>729.5</ele>
      </trkpt>
      <trkpt lat="45.09344" lon="4.00531">
        <ele>724.3</ele>
      </trkpt>
      <trkpt lat="45.0934" lon="4.00519">
        <ele>722.4</ele>
      </trkpt>
      <trkpt lat="45.09338" lon="4.00512">
        <ele>720.8</ele>
      </trkpt>
      <trkpt lat="45.09333" lon="4.00493">
        <ele>714.6</ele>
      </trkpt>
      <trkpt lat="45.09325" lon="4.00481">
        <ele>712.9</ele>
      </trkpt>
      <trkpt lat="45.09322" lon="4.00473">
        <ele>712.2</ele>
      </trkpt>
      <trkpt lat="45.09315" lon="4.00445">
        <ele>711.4</ele>
      </trkpt>
      <trkpt lat="45.09307" lon="4.00439">
        <ele>710.9</ele>
      </trkpt>
      <trkpt lat="45.09293" lon="4.00438">
        <ele>709.7</ele>
      </trkpt>
      <trkpt lat="45.09286" lon="4.00436">
        <ele>708.9</ele>
      </trkpt>
      <trkpt lat="45.09257" lon="4.00404">
        <ele>703.1</ele>
      </trkpt>
      <trkpt lat="45.0925" lon="4.00393">
        <ele>703.4</ele>
      </trkpt>
      <trkpt lat="45.09245" lon="4.00384">
        <ele>696.4</ele>
      </trkpt>
      <trkpt lat="45.0923" lon="4.0035">
        <ele>695.2</ele>
      </trkpt>
      <trkpt lat="45.09221" lon="4.00331">
        <ele>692.3</ele>
      </trkpt>
      <trkpt lat="45.09215" lon="4.00322">
        <ele>691.6</ele>
      </trkpt>
      <trkpt lat="45.09194" lon="4.003">
        <ele>690.1</ele>
      </trkpt>
      <trkpt lat="45.09176" lon="4.00293">
        <ele>689.4</ele>
      </trkpt>
      <trkpt lat="45.09168" lon="4.00292">
        <ele>689.2</ele>
      </trkpt>
      <trkpt lat="45.09162" lon="4.00289">
        <ele>689.8</ele>
      </trkpt>
      <trkpt lat="45.09144" lon="4.00267">
        <ele>689.9</ele>
      </trkpt>
      <trkpt lat="45.09122" lon="4.00233">
        <ele>691.6</ele>
      </trkpt>
      <trkpt lat="45.09119" lon="4.00224">
        <ele>691.8</ele>
      </trkpt>
      <trkpt lat="45.09115" lon="4.00193">
        <ele>692.2</ele>
      </trkpt>
      <trkpt lat="45.09112" lon="4.0018">
        <ele>692.6</ele>
      </trkpt>
      <trkpt lat="45.0906" lon="4.00069">
        <ele>699</ele>
      </trkpt>
      <trkpt lat="45.09053" lon="4.00064">
        <ele>699.8</ele>
      </trkpt>
      <trkpt lat="45.09056" lon="4.00058">
        <ele>699.8</ele>
      </trkpt>
      <trkpt lat="45.09058" lon="4.00027">
        <ele>700.4</ele>
      </trkpt>
      <trkpt lat="45.0906" lon="4.00016">
        <ele>700.3</ele>
      </trkpt>
      <trkpt lat="45.0908" lon="3.99969">
        <ele>703</ele>
      </trkpt>
      <trkpt lat="45.09084" lon="3.99932">
        <ele>699.6</ele>
      </trkpt>
      <trkpt lat="45.0908" lon="3.99914">
        <ele>703.9</ele>
      </trkpt>
      <trkpt lat="45.09064" lon="3.99872">
        <ele>707.7</ele>
      </trkpt>
      <trkpt lat="45.0906" lon="3.99865">
        <ele>708</ele>
      </trkpt>
      <trkpt lat="45.09067" lon="3.99844">
        <ele>707.5</ele>
      </trkpt>
      <trkpt lat="45.09071" lon="3.99824">
        <ele>707.5</ele>
      </trkpt>
      <trkpt lat="45.09074" lon="3.99796">
        <ele>708</ele>
      </trkpt>
      <trkpt lat="45.09076" lon="3.9977">
        <ele>707.3</ele>
      </trkpt>
      <trkpt lat="45.09073" lon="3.99753">
        <ele>706.5</ele>
      </trkpt>
      <trkpt lat="45.09056" lon="3.99711">
        <ele>705.6</ele>
      </trkpt>
      <trkpt lat="45.09048" lon="3.99684">
        <ele>705.1</ele>
      </trkpt>
      <trkpt lat="45.09046" lon="3.99654">
        <ele>702.5</ele>
      </trkpt>
      <trkpt lat="45.09042" lon="3.99627">
        <ele>702.5</ele>
      </trkpt>
      <trkpt lat="45.09032" lon="3.99588">
        <ele>702.9</ele>
      </trkpt>
      <trkpt lat="45.09022" lon="3.99559">
        <ele>701.9</ele>
      </trkpt>
      <trkpt lat="45.09028" lon="3.99554">
        <ele>701.4</ele>
      </trkpt>
      <trkpt lat="45.09059" lon="3.9951">
        <ele>699</ele>
      </trkpt>
      <trkpt lat="45.09066" lon="3.99502">
        <ele>698.3</ele>
      </trkpt>
      <trkpt lat="45.09081" lon="3.9949">
        <ele>697</ele>
      </trkpt>
      <trkpt lat="45.09114" lon="3.99467">
        <ele>693.1</ele>
      </trkpt>
      <trkpt lat="45.09133" lon="3.99453">
        <ele>692.5</ele>
      </trkpt>
      <trkpt lat="45.0913" lon="3.99412">
        <ele>693.1</ele>
      </trkpt>
      <trkpt lat="45.09125" lon="3.993">
        <ele>694</ele>
      </trkpt>
      <trkpt lat="45.0913" lon="3.9927">
        <ele>693.8</ele>
      </trkpt>
      <trkpt lat="45.0915" lon="3.99215">
        <ele>692.8</ele>
      </trkpt>
      <trkpt lat="45.09174" lon="3.9916">
        <ele>689.9</ele>
      </trkpt>
      <trkpt lat="45.09204" lon="3.99079">
        <ele>687.3</ele>
      </trkpt>
      <trkpt lat="45.09212" lon="3.99053">
        <ele>687</ele>
      </trkpt>
      <trkpt lat="45.09223" lon="3.99007">
        <ele>685.9</ele>
      </trkpt>
      <trkpt lat="45.09238" lon="3.9892">
        <ele>684.7</ele>
      </trkpt>
      <trkpt lat="45.09262" lon="3.98877">
        <ele>682.9</ele>
      </trkpt>
      <trkpt lat="45.09268" lon="3.98863">
        <ele>683</ele>
      </trkpt>
      <trkpt lat="45.09279" lon="3.98824">
        <ele>683.3</ele>
      </trkpt>
      <trkpt lat="45.09293" lon="3.98759">
        <ele>683.1</ele>
      </trkpt>
      <trkpt lat="45.09299" lon="3.98729">
        <ele>683.3</ele>
      </trkpt>
      <trkpt lat="45.09289" lon="3.98697">
        <ele>683.6</ele>
      </trkpt>
      <trkpt lat="45.09275" lon="3.98665">
        <ele>684</ele>
      </trkpt>
      <trkpt lat="45.09259" lon="3.98639">
        <ele>684.1</ele>
      </trkpt>
      <trkpt lat="45.09238" lon="3.98615">
        <ele>685.8</ele>
      </trkpt>
      <trkpt lat="45.09207" lon="3.98591">
        <ele>686</ele>
      </trkpt>
      <trkpt lat="45.09195" lon="3.98584">
        <ele>686.1</ele>
      </trkpt>
      <trkpt lat="45.09155" lon="3.98571">
        <ele>684.4</ele>
      </trkpt>
      <trkpt lat="45.0913" lon="3.98569">
        <ele>683.6</ele>
      </trkpt>
      <trkpt lat="45.09118" lon="3.98571">
        <ele>683.6</ele>
      </trkpt>
      <trkpt lat="45.09082" lon="3.98587">
        <ele>685.8</ele>
      </trkpt>
      <trkpt lat="45.09062" lon="3.98591">
        <ele>688</ele>
      </trkpt>
      <trkpt lat="45.09055" lon="3.98589">
        <ele>688.4</ele>
      </trkpt>
      <trkpt lat="45.09026" lon="3.9857">
        <ele>684.9</ele>
      </trkpt>
      <trkpt lat="45.08915" lon="3.98528">
        <ele>694.7</ele>
      </trkpt>
      <trkpt lat="45.08861" lon="3.98497">
        <ele>691.7</ele>
      </trkpt>
      <trkpt lat="45.08833" lon="3.98487">
        <ele>694.7</ele>
      </trkpt>
      <trkpt lat="45.08822" lon="3.98483">
        <ele>694.2</ele>
      </trkpt>
      <trkpt lat="45.08827" lon="3.98475">
        <ele>693.8</ele>
      </trkpt>
      <trkpt lat="45.08841" lon="3.98442">
        <ele>689.7</ele>
      </trkpt>
      <trkpt lat="45.08846" lon="3.98436">
        <ele>689.4</ele>
      </trkpt>
      <trkpt lat="45.08853" lon="3.98429">
        <ele>689.2</ele>
      </trkpt>
      <trkpt lat="45.08892" lon="3.98402">
        <ele>684.4</ele>
      </trkpt>
      <trkpt lat="45.08937" lon="3.98371">
        <ele>681</ele>
      </trkpt>
      <trkpt lat="45.08944" lon="3.98365">
        <ele>680.8</ele>
      </trkpt>
      <trkpt lat="45.09015" lon="3.98278">
        <ele>676.8</ele>
      </trkpt>
      <trkpt lat="45.09089" lon="3.98211">
        <ele>672.9</ele>
      </trkpt>
      <trkpt lat="45.09119" lon="3.98175">
        <ele>672.5</ele>
      </trkpt>
      <trkpt lat="45.09133" lon="3.98162">
        <ele>671.3</ele>
      </trkpt>
      <trkpt lat="45.09149" lon="3.98157">
        <ele>671.4</ele>
      </trkpt>
      <trkpt lat="45.09226" lon="3.9815">
        <ele>670.6</ele>
      </trkpt>
      <trkpt lat="45.09241" lon="3.98143">
        <ele>670.6</ele>
      </trkpt>
      <trkpt lat="45.09249" lon="3.98136">
        <ele>670.5</ele>
      </trkpt>
      <trkpt lat="45.09261" lon="3.98119">
        <ele>670.8</ele>
      </trkpt>
      <trkpt lat="45.09269" lon="3.98098">
        <ele>670.6</ele>
      </trkpt>
      <trkpt lat="45.09299" lon="3.97978">
        <ele>667.2</ele>
      </trkpt>
      <trkpt lat="45.09314" lon="3.97896">
        <ele>667.3</ele>
      </trkpt>
      <trkpt lat="45.09333" lon="3.97746">
        <ele>668.5</ele>
      </trkpt>
      <trkpt lat="45.09336" lon="3.97734">
        <ele>669.6</ele>
      </trkpt>
      <trkpt lat="45.09352" lon="3.97699">
        <ele>669.5</ele>
      </trkpt>
      <trkpt lat="45.09358" lon="3.9768">
        <ele>669</ele>
      </trkpt>
      <trkpt lat="45.09363" lon="3.9766">
        <ele>666.7</ele>
      </trkpt>
      <trkpt lat="45.09378" lon="3.97568">
        <ele>663.9</ele>
      </trkpt>
      <trkpt lat="45.09397" lon="3.97478">
        <ele>663.1</ele>
      </trkpt>
      <trkpt lat="45.09398" lon="3.97456">
        <ele>662.8</ele>
      </trkpt>
      <trkpt lat="45.09396" lon="3.97444">
        <ele>662.8</ele>
      </trkpt>
      <trkpt lat="45.09373" lon="3.97355">
        <ele>662.6</ele>
      </trkpt>
      <trkpt lat="45.09369" lon="3.97325">
        <ele>662.3</ele>
      </trkpt>
      <trkpt lat="45.09368" lon="3.97289">
        <ele>662.1</ele>
      </trkpt>
      <trkpt lat="45.09371" lon="3.97259">
        <ele>661.9</ele>
      </trkpt>
      <trkpt lat="45.09376" lon="3.9723">
        <ele>660.2</ele>
      </trkpt>
      <trkpt lat="45.09382" lon="3.97199">
        <ele>659.6</ele>
      </trkpt>
      <trkpt lat="45.09386" lon="3.97179">
        <ele>659.2</ele>
      </trkpt>
      <trkpt lat="45.09387" lon="3.97169">
        <ele>659.1</ele>
      </trkpt>
      <trkpt lat="45.09386" lon="3.97165">
        <ele>658.1</ele>
      </trkpt>
      <trkpt lat="45.09381" lon="3.97152">
        <ele>658.2</ele>
      </trkpt>
      <trkpt lat="45.09377" lon="3.97141">
        <ele>658.2</ele>
      </trkpt>
      <trkpt lat="45.09375" lon="3.97135">
        <ele>658.2</ele>
      </trkpt>
      <trkpt lat="45.09375" lon="3.97121">
        <ele>658.3</ele>
      </trkpt>
      <trkpt lat="45.09378" lon="3.97113">
        <ele>658.3</ele>
      </trkpt>
      <trkpt lat="45.09382" lon="3.97105">
        <ele>658.3</ele>
      </trkpt>
      <trkpt lat="45.09462" lon="3.96999">
        <ele>660.4</ele>
      </trkpt>
      <trkpt lat="45.09479" lon="3.96969">
        <ele>660.4</ele>
      </trkpt>
      <trkpt lat="45.0949" lon="3.96939">
        <ele>660.3</ele>
      </trkpt>
      <trkpt lat="45.09497" lon="3.96911">
        <ele>660.5</ele>
      </trkpt>
      <trkpt lat="45.09514" lon="3.96793">
        <ele>661.6</ele>
      </trkpt>
      <trkpt lat="45.09519" lon="3.96742">
        <ele>666</ele>
      </trkpt>
      <trkpt lat="45.09521" lon="3.96694">
        <ele>666.8</ele>
      </trkpt>
      <trkpt lat="45.09521" lon="3.96672">
        <ele>668.1</ele>
      </trkpt>
      <trkpt lat="45.09517" lon="3.96636">
        <ele>669.5</ele>
      </trkpt>
      <trkpt lat="45.09511" lon="3.96604">
        <ele>670.5</ele>
      </trkpt>
      <trkpt lat="45.09511" lon="3.96577">
        <ele>671.8</ele>
      </trkpt>
      <trkpt lat="45.09513" lon="3.96553">
        <ele>670.2</ele>
      </trkpt>
      <trkpt lat="45.09514" lon="3.96541">
        <ele>669.8</ele>
      </trkpt>
      <trkpt lat="45.09517" lon="3.96536">
        <ele>669.7</ele>
      </trkpt>
      <trkpt lat="45.09526" lon="3.96526">
        <ele>669.3</ele>
      </trkpt>
      <trkpt lat="45.0953" lon="3.96523">
        <ele>669.2</ele>
      </trkpt>
      <trkpt lat="45.09534" lon="3.96521">
        <ele>669</ele>
      </trkpt>
      <trkpt lat="45.09544" lon="3.96532">
        <ele>668.6</ele>
      </trkpt>
      <trkpt lat="45.09562" lon="3.96549">
        <ele>667.8</ele>
      </trkpt>
      <trkpt lat="45.09599" lon="3.96585">
        <ele>662.1</ele>
      </trkpt>
      <trkpt lat="45.09616" lon="3.96595">
        <ele>660.8</ele>
      </trkpt>
      <trkpt lat="45.09624" lon="3.96598">
        <ele>660.3</ele>
      </trkpt>
      <trkpt lat="45.09644" lon="3.96604">
        <ele>659.5</ele>
      </trkpt>
      <trkpt lat="45.09676" lon="3.96613">
        <ele>656.3</ele>
      </trkpt>
      <trkpt lat="45.09738" lon="3.96633">
        <ele>654.8</ele>
      </trkpt>
      <trkpt lat="45.09748" lon="3.96634">
        <ele>654.6</ele>
      </trkpt>
      <trkpt lat="45.09789" lon="3.9663">
        <ele>651.8</ele>
      </trkpt>
      <trkpt lat="45.09807" lon="3.96632">
        <ele>651.4</ele>
      </trkpt>
      <trkpt lat="45.09828" lon="3.96637">
        <ele>651.1</ele>
      </trkpt>
      <trkpt lat="45.09834" lon="3.96597">
        <ele>649.6</ele>
      </trkpt>
      <trkpt lat="45.09845" lon="3.96511">
        <ele>649.4</ele>
      </trkpt>
      <trkpt lat="45.09849" lon="3.96498">
        <ele>649.7</ele>
      </trkpt>
      <trkpt lat="45.09864" lon="3.96469">
        <ele>649.4</ele>
      </trkpt>
      <trkpt lat="45.09896" lon="3.96414">
        <ele>649.8</ele>
      </trkpt>
      <trkpt lat="45.09988" lon="3.96273">
        <ele>648.8</ele>
      </trkpt>
      <trkpt lat="45.09997" lon="3.96238">
        <ele>650.2</ele>
      </trkpt>
      <trkpt lat="45.10059" lon="3.96017">
        <ele>650.4</ele>
      </trkpt>
      <trkpt lat="45.10066" lon="3.95986">
        <ele>650.6</ele>
      </trkpt>
      <trkpt lat="45.10069" lon="3.95972">
        <ele>650.9</ele>
      </trkpt>
      <trkpt lat="45.10069" lon="3.9595">
        <ele>650.7</ele>
      </trkpt>
      <trkpt lat="45.10066" lon="3.958">
        <ele>647.7</ele>
      </trkpt>
      <trkpt lat="45.10074" lon="3.95683">
        <ele>644.1</ele>
      </trkpt>
      <trkpt lat="45.10078" lon="3.9566">
        <ele>642.3</ele>
      </trkpt>
      <trkpt lat="45.1009" lon="3.95627">
        <ele>639.9</ele>
      </trkpt>
      <trkpt lat="45.10093" lon="3.95618">
        <ele>639.9</ele>
      </trkpt>
      <trkpt lat="45.10108" lon="3.9558">
        <ele>641</ele>
      </trkpt>
      <trkpt lat="45.10141" lon="3.95511">
        <ele>640.2</ele>
      </trkpt>
      <trkpt lat="45.10161" lon="3.95467">
        <ele>641.5</ele>
      </trkpt>
      <trkpt lat="45.10177" lon="3.95436">
        <ele>638.9</ele>
      </trkpt>
      <trkpt lat="45.10194" lon="3.95408">
        <ele>639.6</ele>
      </trkpt>
      <trkpt lat="45.10245" lon="3.95318">
        <ele>639.6</ele>
      </trkpt>
      <trkpt lat="45.10311" lon="3.95151">
        <ele>637</ele>
      </trkpt>
      <trkpt lat="45.10336" lon="3.95105">
        <ele>632.7</ele>
      </trkpt>
      <trkpt lat="45.10397" lon="3.94975">
        <ele>632.4</ele>
      </trkpt>
      <trkpt lat="45.10405" lon="3.9495">
        <ele>632.4</ele>
      </trkpt>
      <trkpt lat="45.10424" lon="3.94851">
        <ele>629.5</ele>
      </trkpt>
      <trkpt lat="45.10438" lon="3.94813">
        <ele>629.5</ele>
      </trkpt>
      <trkpt lat="45.10601" lon="3.94589">
        <ele>620.6</ele>
      </trkpt>
      <trkpt lat="45.10609" lon="3.94577">
        <ele>620.2</ele>
      </trkpt>
      <trkpt lat="45.10633" lon="3.94535">
        <ele>619.3</ele>
      </trkpt>
      <trkpt lat="45.10648" lon="3.9451">
        <ele>618.5</ele>
      </trkpt>
      <trkpt lat="45.10731" lon="3.94341">
        <ele>615.8</ele>
      </trkpt>
      <trkpt lat="45.10752" lon="3.94309">
        <ele>613.3</ele>
      </trkpt>
      <trkpt lat="45.10773" lon="3.94292">
        <ele>613</ele>
      </trkpt>
      <trkpt lat="45.10818" lon="3.94276">
        <ele>612.1</ele>
      </trkpt>
      <trkpt lat="45.10927" lon="3.94229">
        <ele>610.4</ele>
      </trkpt>
      <trkpt lat="45.1096" lon="3.94206">
        <ele>611.1</ele>
      </trkpt>
      <trkpt lat="45.11024" lon="3.94153">
        <ele>612.1</ele>
      </trkpt>
      <trkpt lat="45.11038" lon="3.94143">
        <ele>611.7</ele>
      </trkpt>
      <trkpt lat="45.1105" lon="3.94136">
        <ele>611.4</ele>
      </trkpt>
      <trkpt lat="45.11108" lon="3.94102">
        <ele>608.3</ele>
      </trkpt>
      <trkpt lat="45.11139" lon="3.94078">
        <ele>610.6</ele>
      </trkpt>
      <trkpt lat="45.1117" lon="3.94047">
        <ele>608.4</ele>
      </trkpt>
      <trkpt lat="45.11174" lon="3.94044">
        <ele>608.4</ele>
      </trkpt>
      <trkpt lat="45.11208" lon="3.94015">
        <ele>608.1</ele>
      </trkpt>
      <trkpt lat="45.11242" lon="3.93988">
        <ele>608</ele>
      </trkpt>
      <trkpt lat="45.11279" lon="3.93965">
        <ele>604.1</ele>
      </trkpt>
      <trkpt lat="45.11318" lon="3.93946">
        <ele>602.9</ele>
      </trkpt>
      <trkpt lat="45.1135" lon="3.93936">
        <ele>599.6</ele>
      </trkpt>
      <trkpt lat="45.11397" lon="3.93926">
        <ele>598.1</ele>
      </trkpt>
      <trkpt lat="45.1143" lon="3.93914">
        <ele>595.7</ele>
      </trkpt>
      <trkpt lat="45.11496" lon="3.9388">
        <ele>593.4</ele>
      </trkpt>
      <trkpt lat="45.11571" lon="3.93835">
        <ele>589.4</ele>
      </trkpt>
      <trkpt lat="45.11598" lon="3.93822">
        <ele>588</ele>
      </trkpt>
      <trkpt lat="45.11713" lon="3.93795">
        <ele>583.9</ele>
      </trkpt>
      <trkpt lat="45.1185" lon="3.93745">
        <ele>581.2</ele>
      </trkpt>
      <trkpt lat="45.11867" lon="3.93745">
        <ele>580.6</ele>
      </trkpt>
      <trkpt lat="45.11878" lon="3.93751">
        <ele>579.4</ele>
      </trkpt>
      <trkpt lat="45.11896" lon="3.9377">
        <ele>578.9</ele>
      </trkpt>
      <trkpt lat="45.11908" lon="3.93781">
        <ele>578.7</ele>
      </trkpt>
      <trkpt lat="45.11924" lon="3.93785">
        <ele>577.2</ele>
      </trkpt>
      <trkpt lat="45.11962" lon="3.93786">
        <ele>577</ele>
      </trkpt>
      <trkpt lat="45.12056" lon="3.93799">
        <ele>575.1</ele>
      </trkpt>
      <trkpt lat="45.12074" lon="3.93799">
        <ele>574.9</ele>
      </trkpt>
      <trkpt lat="45.12094" lon="3.93789">
        <ele>573.5</ele>
      </trkpt>
      <trkpt lat="45.12142" lon="3.93732">
        <ele>573.3</ele>
      </trkpt>
      <trkpt lat="45.1218" lon="3.93676">
        <ele>572.1</ele>
      </trkpt>
      <trkpt lat="45.12202" lon="3.93633">
        <ele>570</ele>
      </trkpt>
      <trkpt lat="45.12336" lon="3.93344">
        <ele>565</ele>
      </trkpt>
      <trkpt lat="45.1235" lon="3.93323">
        <ele>564.3</ele>
      </trkpt>
      <trkpt lat="45.12363" lon="3.93306">
        <ele>564</ele>
      </trkpt>
      <trkpt lat="45.12429" lon="3.93242">
        <ele>561.4</ele>
      </trkpt>
      <trkpt lat="45.12444" lon="3.93236">
        <ele>561</ele>
      </trkpt>
      <trkpt lat="45.12455" lon="3.93234">
        <ele>560.8</ele>
      </trkpt>
      <trkpt lat="45.1246" lon="3.93233">
        <ele>560.6</ele>
      </trkpt>
      <trkpt lat="45.12455" lon="3.93221">
        <ele>560.8</ele>
      </trkpt>
      <trkpt lat="45.12449" lon="3.93204">
        <ele>560.9</ele>
      </trkpt>
      <trkpt lat="45.12444" lon="3.93165">
        <ele>561.6</ele>
      </trkpt>
      <trkpt lat="45.12434" lon="3.93054">
        <ele>562.2</ele>
      </trkpt>
      <trkpt lat="45.12415" lon="3.92828">
        <ele>560.4</ele>
      </trkpt>
      <trkpt lat="45.12407" lon="3.9274">
        <ele>560.5</ele>
      </trkpt>
      <trkpt lat="45.12403" lon="3.92702">
        <ele>560.7</ele>
      </trkpt>
      <trkpt lat="45.12396" lon="3.92662">
        <ele>560.2</ele>
      </trkpt>
      <trkpt lat="45.12386" lon="3.92619">
        <ele>560.7</ele>
      </trkpt>
      <trkpt lat="45.12354" lon="3.925">
        <ele>559.1</ele>
      </trkpt>
      <trkpt lat="45.12289" lon="3.92276">
        <ele>558.4</ele>
      </trkpt>
    </trkseg>
  </trk>
</gpx>